<?xml version="1.0" encoding="UTF-8" standalone="no" ?>
<gpx xmlns="http://www.topografix.com/GPX/1/1" xmlns:xsi="http://www.w3.org/2001/XMLSchema-instance" xsi:schemaLocation="http://www.topografix.com/GPX/1/1 http://www.topografix.com/GPX/1/1/gpx.xsd" version="1.1" creator="VisuGPX - https://www.visugpx.com">
  <metadata>
    <name>HM-Lag_Gui_V3</name>
    <desc><![CDATA[1ere version]]></desc>
  </metadata>
  <wpt lat="43.40465" lon="1.44869">
    <ele>184.2</ele>
  </wpt>
  <wpt lat="43.69751" lon="7.29057">
    <ele>42.2</ele>
  </wpt>
  <wpt lat="43.78375" lon="4.08992">
    <ele>25</ele>
  </wpt>
  <trk>
    <name><![CDATA[HM-Lag_Gui_V2_2]]></name>
    <extensions>
      <line xmlns="http://www.topografix.com/GPX/gpx_style/0/2">
        <color>00FF00</color>
        <width>4</width>
      </line>
    </extensions>
    <trkseg>
      <trkpt lat="43.40505" lon="1.44908">
        <ele>184.7</ele>
      </trkpt>
      <trkpt lat="43.41029" lon="1.46187">
        <ele>239</ele>
        <time>2024-04-06T11:00:50Z</time>
      </trkpt>
      <trkpt lat="43.40916" lon="1.46393">
        <ele>237</ele>
        <time>2024-04-06T11:03:02Z</time>
      </trkpt>
      <trkpt lat="43.40598" lon="1.4738">
        <ele>233.6</ele>
        <time>2024-04-06T11:03:13Z</time>
      </trkpt>
      <trkpt lat="43.40611" lon="1.48075">
        <ele>185.6</ele>
        <time>2024-04-06T11:04:10Z</time>
      </trkpt>
      <trkpt lat="43.40854" lon="1.47697">
        <ele>192.1</ele>
      </trkpt>
      <trkpt lat="43.4139" lon="1.47534">
        <ele>183</ele>
        <time>2024-04-06T11:05:23Z</time>
      </trkpt>
      <trkpt lat="43.41646" lon="1.48015">
        <ele>180.8</ele>
        <time>2024-04-06T11:06:24Z</time>
      </trkpt>
      <trkpt lat="43.42039" lon="1.48101">
        <ele>176</ele>
        <time>2024-04-06T11:06:58Z</time>
      </trkpt>
      <trkpt lat="43.42223" lon="1.48211">
        <ele>179</ele>
        <time>2024-04-06T11:08:13Z</time>
      </trkpt>
      <trkpt lat="43.4221" lon="1.48286">
        <ele>179</ele>
        <time>2024-04-06T11:08:23Z</time>
      </trkpt>
      <trkpt lat="43.42131" lon="1.48633">
        <ele>180</ele>
        <time>2024-04-06T11:09:10Z</time>
      </trkpt>
      <trkpt lat="43.42111" lon="1.48705">
        <ele>181</ele>
        <time>2024-04-06T11:09:20Z</time>
      </trkpt>
      <trkpt lat="43.42076" lon="1.48806">
        <ele>181</ele>
        <time>2024-04-06T11:09:35Z</time>
      </trkpt>
      <trkpt lat="43.42024" lon="1.48942">
        <ele>180</ele>
        <time>2024-04-06T11:09:54Z</time>
      </trkpt>
      <trkpt lat="43.42002" lon="1.49003">
        <ele>179</ele>
        <time>2024-04-06T11:10:03Z</time>
      </trkpt>
      <trkpt lat="43.4199" lon="1.49046">
        <ele>180</ele>
        <time>2024-04-06T11:10:09Z</time>
      </trkpt>
      <trkpt lat="43.41983" lon="1.49079">
        <ele>181</ele>
        <time>2024-04-06T11:10:14Z</time>
      </trkpt>
      <trkpt lat="43.41976" lon="1.49125">
        <ele>181</ele>
        <time>2024-04-06T11:10:20Z</time>
      </trkpt>
      <trkpt lat="43.41973" lon="1.49165">
        <ele>180</ele>
        <time>2024-04-06T11:10:25Z</time>
      </trkpt>
      <trkpt lat="43.4196" lon="1.49395">
        <ele>182</ele>
        <time>2024-04-06T11:10:55Z</time>
      </trkpt>
      <trkpt lat="43.41958" lon="1.49431">
        <ele>182</ele>
        <time>2024-04-06T11:10:59Z</time>
      </trkpt>
      <trkpt lat="43.41953" lon="1.4953">
        <ele>181</ele>
        <time>2024-04-06T11:11:12Z</time>
      </trkpt>
      <trkpt lat="43.41949" lon="1.49581">
        <ele>180</ele>
        <time>2024-04-06T11:11:19Z</time>
      </trkpt>
      <trkpt lat="43.4194" lon="1.49638">
        <ele>181</ele>
        <time>2024-04-06T11:11:26Z</time>
      </trkpt>
      <trkpt lat="43.41927" lon="1.49692">
        <ele>182</ele>
        <time>2024-04-06T11:11:34Z</time>
      </trkpt>
      <trkpt lat="43.41814" lon="1.50041">
        <ele>184</ele>
        <time>2024-04-06T11:12:23Z</time>
      </trkpt>
      <trkpt lat="43.41758" lon="1.50224">
        <ele>185</ele>
        <time>2024-04-06T11:12:49Z</time>
      </trkpt>
      <trkpt lat="43.41541" lon="1.50907">
        <ele>184</ele>
        <time>2024-04-06T11:14:25Z</time>
      </trkpt>
      <trkpt lat="43.41526" lon="1.50954">
        <ele>184</ele>
        <time>2024-04-06T11:14:32Z</time>
      </trkpt>
      <trkpt lat="43.41517" lon="1.50991">
        <ele>184</ele>
        <time>2024-04-06T11:14:37Z</time>
      </trkpt>
      <trkpt lat="43.41513" lon="1.51011">
        <ele>184</ele>
        <time>2024-04-06T11:14:39Z</time>
      </trkpt>
      <trkpt lat="43.41507" lon="1.51056">
        <ele>185</ele>
        <time>2024-04-06T11:14:45Z</time>
      </trkpt>
      <trkpt lat="43.41505" lon="1.51074">
        <ele>185</ele>
        <time>2024-04-06T11:14:48Z</time>
      </trkpt>
      <trkpt lat="43.41484" lon="1.51279">
        <ele>187</ele>
        <time>2024-04-06T11:15:15Z</time>
      </trkpt>
      <trkpt lat="43.41469" lon="1.51398">
        <ele>190</ele>
        <time>2024-04-06T11:15:30Z</time>
      </trkpt>
      <trkpt lat="43.41457" lon="1.51475">
        <ele>191</ele>
        <time>2024-04-06T11:15:40Z</time>
      </trkpt>
      <trkpt lat="43.41448" lon="1.51519">
        <ele>192</ele>
        <time>2024-04-06T11:15:46Z</time>
      </trkpt>
      <trkpt lat="43.41437" lon="1.51575">
        <ele>192</ele>
        <time>2024-04-06T11:15:54Z</time>
      </trkpt>
      <trkpt lat="43.41424" lon="1.51627">
        <ele>193</ele>
        <time>2024-04-06T11:16:01Z</time>
      </trkpt>
      <trkpt lat="43.41399" lon="1.51709">
        <ele>194</ele>
        <time>2024-04-06T11:16:12Z</time>
      </trkpt>
      <trkpt lat="43.41343" lon="1.51866">
        <ele>195</ele>
        <time>2024-04-06T11:16:35Z</time>
      </trkpt>
      <trkpt lat="43.41286" lon="1.52022">
        <ele>195</ele>
        <time>2024-04-06T11:16:57Z</time>
      </trkpt>
      <trkpt lat="43.41499" lon="1.52116">
        <ele>217</ele>
        <time>2024-04-06T11:17:37Z</time>
      </trkpt>
      <trkpt lat="43.41488" lon="1.52161">
        <ele>215</ele>
        <time>2024-04-06T11:17:43Z</time>
      </trkpt>
      <trkpt lat="43.41492" lon="1.5216">
        <ele>216</ele>
        <time>2024-04-06T11:17:44Z</time>
      </trkpt>
      <trkpt lat="43.41497" lon="1.52162">
        <ele>216</ele>
        <time>2024-04-06T11:17:45Z</time>
      </trkpt>
      <trkpt lat="43.41512" lon="1.52173">
        <ele>216</ele>
        <time>2024-04-06T11:17:48Z</time>
      </trkpt>
      <trkpt lat="43.41546" lon="1.52193">
        <ele>215</ele>
        <time>2024-04-06T11:17:55Z</time>
      </trkpt>
      <trkpt lat="43.41602" lon="1.52215">
        <ele>215</ele>
        <time>2024-04-06T11:18:05Z</time>
      </trkpt>
      <trkpt lat="43.41608" lon="1.52215">
        <ele>215</ele>
        <time>2024-04-06T11:18:06Z</time>
      </trkpt>
      <trkpt lat="43.41614" lon="1.5223">
        <ele>215</ele>
        <time>2024-04-06T11:18:08Z</time>
      </trkpt>
      <trkpt lat="43.41624" lon="1.5224">
        <ele>216</ele>
        <time>2024-04-06T11:18:11Z</time>
      </trkpt>
      <trkpt lat="43.41654" lon="1.52266">
        <ele>217</ele>
        <time>2024-04-06T11:18:17Z</time>
      </trkpt>
      <trkpt lat="43.41658" lon="1.52278">
        <ele>217</ele>
        <time>2024-04-06T11:18:19Z</time>
      </trkpt>
      <trkpt lat="43.4166" lon="1.52432">
        <ele>219</ele>
        <time>2024-04-06T11:18:38Z</time>
      </trkpt>
      <trkpt lat="43.41655" lon="1.52475">
        <ele>221</ele>
        <time>2024-04-06T11:18:44Z</time>
      </trkpt>
      <trkpt lat="43.41645" lon="1.52522">
        <ele>223</ele>
        <time>2024-04-06T11:18:50Z</time>
      </trkpt>
      <trkpt lat="43.41632" lon="1.52573">
        <ele>226</ele>
        <time>2024-04-06T11:18:57Z</time>
      </trkpt>
      <trkpt lat="43.41613" lon="1.5269">
        <ele>230</ele>
        <time>2024-04-06T11:19:13Z</time>
      </trkpt>
      <trkpt lat="43.41567" lon="1.52918">
        <ele>234</ele>
        <time>2024-04-06T11:19:43Z</time>
      </trkpt>
      <trkpt lat="43.41564" lon="1.52943">
        <ele>235</ele>
        <time>2024-04-06T11:19:47Z</time>
      </trkpt>
      <trkpt lat="43.41565" lon="1.52962">
        <ele>235</ele>
        <time>2024-04-06T11:19:49Z</time>
      </trkpt>
      <trkpt lat="43.41571" lon="1.52978">
        <ele>235</ele>
        <time>2024-04-06T11:19:52Z</time>
      </trkpt>
      <trkpt lat="43.41723" lon="1.53292">
        <ele>242</ele>
        <time>2024-04-06T11:20:40Z</time>
      </trkpt>
      <trkpt lat="43.41763" lon="1.53371">
        <ele>247</ele>
        <time>2024-04-06T11:20:53Z</time>
      </trkpt>
      <trkpt lat="43.41785" lon="1.53406">
        <ele>249</ele>
        <time>2024-04-06T11:20:59Z</time>
      </trkpt>
      <trkpt lat="43.41825" lon="1.53455">
        <ele>251</ele>
        <time>2024-04-06T11:21:08Z</time>
      </trkpt>
      <trkpt lat="43.41834" lon="1.53468">
        <ele>251</ele>
        <time>2024-04-06T11:21:11Z</time>
      </trkpt>
      <trkpt lat="43.41846" lon="1.53499">
        <ele>250</ele>
        <time>2024-04-06T11:21:15Z</time>
      </trkpt>
      <trkpt lat="43.41932" lon="1.53794">
        <ele>243</ele>
        <time>2024-04-06T11:21:56Z</time>
      </trkpt>
      <trkpt lat="43.41941" lon="1.53828">
        <ele>243</ele>
        <time>2024-04-06T11:22:01Z</time>
      </trkpt>
      <trkpt lat="43.41944" lon="1.53858">
        <ele>243</ele>
        <time>2024-04-06T11:22:05Z</time>
      </trkpt>
      <trkpt lat="43.41941" lon="1.53927">
        <ele>246</ele>
        <time>2024-04-06T11:22:14Z</time>
      </trkpt>
      <trkpt lat="43.41948" lon="1.53994">
        <ele>247</ele>
        <time>2024-04-06T11:22:22Z</time>
      </trkpt>
      <trkpt lat="43.41949" lon="1.54009">
        <ele>248</ele>
        <time>2024-04-06T11:22:24Z</time>
      </trkpt>
      <trkpt lat="43.41946" lon="1.54032">
        <ele>249</ele>
        <time>2024-04-06T11:22:27Z</time>
      </trkpt>
      <trkpt lat="43.4194" lon="1.54055">
        <ele>249</ele>
        <time>2024-04-06T11:22:31Z</time>
      </trkpt>
      <trkpt lat="43.41906" lon="1.5415">
        <ele>253</ele>
        <time>2024-04-06T11:22:44Z</time>
      </trkpt>
      <trkpt lat="43.41872" lon="1.54238">
        <ele>255</ele>
        <time>2024-04-06T11:22:57Z</time>
      </trkpt>
      <trkpt lat="43.41867" lon="1.5426">
        <ele>256</ele>
        <time>2024-04-06T11:23:00Z</time>
      </trkpt>
      <trkpt lat="43.41868" lon="1.54274">
        <ele>256</ele>
        <time>2024-04-06T11:23:02Z</time>
      </trkpt>
      <trkpt lat="43.41871" lon="1.54282">
        <ele>256</ele>
        <time>2024-04-06T11:23:03Z</time>
      </trkpt>
      <trkpt lat="43.41877" lon="1.54289">
        <ele>255</ele>
        <time>2024-04-06T11:23:05Z</time>
      </trkpt>
      <trkpt lat="43.41884" lon="1.54293">
        <ele>255</ele>
        <time>2024-04-06T11:23:06Z</time>
      </trkpt>
      <trkpt lat="43.41916" lon="1.54307">
        <ele>255</ele>
        <time>2024-04-06T11:23:12Z</time>
      </trkpt>
      <trkpt lat="43.41948" lon="1.54318">
        <ele>256</ele>
        <time>2024-04-06T11:23:18Z</time>
      </trkpt>
      <trkpt lat="43.41969" lon="1.5433">
        <ele>257</ele>
        <time>2024-04-06T11:23:22Z</time>
      </trkpt>
      <trkpt lat="43.41976" lon="1.54337">
        <ele>258</ele>
        <time>2024-04-06T11:23:23Z</time>
      </trkpt>
      <trkpt lat="43.4199" lon="1.54358">
        <ele>258</ele>
        <time>2024-04-06T11:23:27Z</time>
      </trkpt>
      <trkpt lat="43.41998" lon="1.5438">
        <ele>259</ele>
        <time>2024-04-06T11:23:30Z</time>
      </trkpt>
      <trkpt lat="43.42007" lon="1.54425">
        <ele>259</ele>
        <time>2024-04-06T11:23:36Z</time>
      </trkpt>
      <trkpt lat="43.42011" lon="1.54455">
        <ele>259</ele>
        <time>2024-04-06T11:23:40Z</time>
      </trkpt>
      <trkpt lat="43.4202" lon="1.54539">
        <ele>260</ele>
        <time>2024-04-06T11:23:51Z</time>
      </trkpt>
      <trkpt lat="43.4203" lon="1.54615">
        <ele>261</ele>
        <time>2024-04-06T11:24:01Z</time>
      </trkpt>
      <trkpt lat="43.42037" lon="1.54651">
        <ele>261</ele>
        <time>2024-04-06T11:24:06Z</time>
      </trkpt>
      <trkpt lat="43.42093" lon="1.54896">
        <ele>252</ele>
        <time>2024-04-06T11:24:39Z</time>
      </trkpt>
      <trkpt lat="43.42106" lon="1.54928">
        <ele>252</ele>
        <time>2024-04-06T11:24:44Z</time>
      </trkpt>
      <trkpt lat="43.42133" lon="1.54972">
        <ele>253</ele>
        <time>2024-04-06T11:24:51Z</time>
      </trkpt>
      <trkpt lat="43.42146" lon="1.55">
        <ele>254</ele>
        <time>2024-04-06T11:24:56Z</time>
      </trkpt>
      <trkpt lat="43.42228" lon="1.5526">
        <ele>260</ele>
        <time>2024-04-06T11:25:32Z</time>
      </trkpt>
      <trkpt lat="43.42232" lon="1.55288">
        <ele>261</ele>
        <time>2024-04-06T11:25:36Z</time>
      </trkpt>
      <trkpt lat="43.42232" lon="1.55299">
        <ele>261</ele>
        <time>2024-04-06T11:25:37Z</time>
      </trkpt>
      <trkpt lat="43.42226" lon="1.55324">
        <ele>261</ele>
        <time>2024-04-06T11:25:41Z</time>
      </trkpt>
      <trkpt lat="43.42176" lon="1.55511">
        <ele>264</ele>
        <time>2024-04-06T11:26:06Z</time>
      </trkpt>
      <trkpt lat="43.42166" lon="1.55559">
        <ele>264</ele>
        <time>2024-04-06T11:26:13Z</time>
      </trkpt>
      <trkpt lat="43.42102" lon="1.55928">
        <ele>267</ele>
        <time>2024-04-06T11:27:02Z</time>
      </trkpt>
      <trkpt lat="43.42034" lon="1.56202">
        <ele>268</ele>
        <time>2024-04-06T11:27:39Z</time>
      </trkpt>
      <trkpt lat="43.4203" lon="1.56228">
        <ele>270</ele>
        <time>2024-04-06T11:27:43Z</time>
      </trkpt>
      <trkpt lat="43.42013" lon="1.56571">
        <ele>270</ele>
        <time>2024-04-06T11:28:27Z</time>
      </trkpt>
      <trkpt lat="43.42014" lon="1.56586">
        <ele>270</ele>
        <time>2024-04-06T11:28:29Z</time>
      </trkpt>
      <trkpt lat="43.42016" lon="1.56597">
        <ele>270</ele>
        <time>2024-04-06T11:28:31Z</time>
      </trkpt>
      <trkpt lat="43.42022" lon="1.56596">
        <ele>270</ele>
        <time>2024-04-06T11:28:32Z</time>
      </trkpt>
      <trkpt lat="43.42044" lon="1.56669">
        <ele>271</ele>
        <time>2024-04-06T11:28:42Z</time>
      </trkpt>
      <trkpt lat="43.42045" lon="1.5669">
        <ele>271</ele>
        <time>2024-04-06T11:28:45Z</time>
      </trkpt>
      <trkpt lat="43.42034" lon="1.5683">
        <ele>270</ele>
        <time>2024-04-06T11:29:03Z</time>
      </trkpt>
      <trkpt lat="43.42036" lon="1.56888">
        <ele>269</ele>
        <time>2024-04-06T11:29:10Z</time>
      </trkpt>
      <trkpt lat="43.42049" lon="1.57044">
        <ele>260</ele>
        <time>2024-04-06T11:29:31Z</time>
      </trkpt>
      <trkpt lat="43.42051" lon="1.57086">
        <ele>256</ele>
        <time>2024-04-06T11:29:36Z</time>
      </trkpt>
      <trkpt lat="43.42039" lon="1.57301">
        <ele>253</ele>
        <time>2024-04-06T11:30:04Z</time>
      </trkpt>
      <trkpt lat="43.42047" lon="1.57407">
        <ele>255</ele>
        <time>2024-04-06T11:30:18Z</time>
      </trkpt>
      <trkpt lat="43.42071" lon="1.576">
        <ele>254</ele>
        <time>2024-04-06T11:30:43Z</time>
      </trkpt>
      <trkpt lat="43.4208" lon="1.5762">
        <ele>255</ele>
        <time>2024-04-06T11:30:46Z</time>
      </trkpt>
      <trkpt lat="43.42107" lon="1.57639">
        <ele>254</ele>
        <time>2024-04-06T11:30:51Z</time>
      </trkpt>
      <trkpt lat="43.42198" lon="1.57696">
        <ele>241</ele>
        <time>2024-04-06T11:31:09Z</time>
      </trkpt>
      <trkpt lat="43.42241" lon="1.57713">
        <ele>237</ele>
        <time>2024-04-06T11:31:17Z</time>
      </trkpt>
      <trkpt lat="43.42255" lon="1.5773">
        <ele>236</ele>
        <time>2024-04-06T11:31:21Z</time>
      </trkpt>
      <trkpt lat="43.42311" lon="1.57901">
        <ele>235</ele>
        <time>2024-04-06T11:31:45Z</time>
      </trkpt>
      <trkpt lat="43.42323" lon="1.57927">
        <ele>235</ele>
        <time>2024-04-06T11:31:49Z</time>
      </trkpt>
      <trkpt lat="43.4237" lon="1.57957">
        <ele>233</ele>
        <time>2024-04-06T11:31:58Z</time>
      </trkpt>
      <trkpt lat="43.42391" lon="1.57981">
        <ele>232</ele>
        <time>2024-04-06T11:32:03Z</time>
      </trkpt>
      <trkpt lat="43.42422" lon="1.58028">
        <ele>230</ele>
        <time>2024-04-06T11:32:11Z</time>
      </trkpt>
      <trkpt lat="43.42446" lon="1.58075">
        <ele>227</ele>
        <time>2024-04-06T11:32:18Z</time>
      </trkpt>
      <trkpt lat="43.42492" lon="1.58154">
        <ele>225</ele>
        <time>2024-04-06T11:32:32Z</time>
      </trkpt>
      <trkpt lat="43.42618" lon="1.58291">
        <ele>224</ele>
        <time>2024-04-06T11:33:00Z</time>
      </trkpt>
      <trkpt lat="43.4264" lon="1.58309">
        <ele>223</ele>
        <time>2024-04-06T11:33:05Z</time>
      </trkpt>
      <trkpt lat="43.42647" lon="1.58325">
        <ele>223</ele>
        <time>2024-04-06T11:33:07Z</time>
      </trkpt>
      <trkpt lat="43.42645" lon="1.58343">
        <ele>223</ele>
        <time>2024-04-06T11:33:09Z</time>
      </trkpt>
      <trkpt lat="43.4262" lon="1.5841">
        <ele>221</ele>
        <time>2024-04-06T11:33:19Z</time>
      </trkpt>
      <trkpt lat="43.42619" lon="1.58427">
        <ele>220</ele>
        <time>2024-04-06T11:33:21Z</time>
      </trkpt>
      <trkpt lat="43.42638" lon="1.58478">
        <ele>216</ele>
        <time>2024-04-06T11:33:29Z</time>
      </trkpt>
      <trkpt lat="43.42658" lon="1.58526">
        <ele>215</ele>
        <time>2024-04-06T11:33:36Z</time>
      </trkpt>
      <trkpt lat="43.42679" lon="1.58562">
        <ele>212</ele>
        <time>2024-04-06T11:33:42Z</time>
      </trkpt>
      <trkpt lat="43.42705" lon="1.58585">
        <ele>210</ele>
        <time>2024-04-06T11:33:47Z</time>
      </trkpt>
      <trkpt lat="43.42737" lon="1.58605">
        <ele>210</ele>
        <time>2024-04-06T11:33:54Z</time>
      </trkpt>
      <trkpt lat="43.42748" lon="1.58626">
        <ele>211</ele>
        <time>2024-04-06T11:33:57Z</time>
      </trkpt>
      <trkpt lat="43.42745" lon="1.58717">
        <ele>207</ele>
        <time>2024-04-06T11:34:09Z</time>
      </trkpt>
      <trkpt lat="43.42759" lon="1.58759">
        <ele>205</ele>
        <time>2024-04-06T11:34:15Z</time>
      </trkpt>
      <trkpt lat="43.4277" lon="1.58777">
        <ele>204</ele>
        <time>2024-04-06T11:34:18Z</time>
      </trkpt>
      <trkpt lat="43.42783" lon="1.5879">
        <ele>205</ele>
        <time>2024-04-06T11:34:21Z</time>
      </trkpt>
      <trkpt lat="43.42814" lon="1.58816">
        <ele>207</ele>
        <time>2024-04-06T11:34:27Z</time>
      </trkpt>
      <trkpt lat="43.42857" lon="1.58841">
        <ele>208</ele>
        <time>2024-04-06T11:34:35Z</time>
      </trkpt>
      <trkpt lat="43.42872" lon="1.58846">
        <ele>207</ele>
        <time>2024-04-06T11:34:38Z</time>
      </trkpt>
      <trkpt lat="43.42921" lon="1.58859">
        <ele>204</ele>
        <time>2024-04-06T11:34:47Z</time>
      </trkpt>
      <trkpt lat="43.4294" lon="1.58867">
        <ele>201</ele>
        <time>2024-04-06T11:34:51Z</time>
      </trkpt>
      <trkpt lat="43.42958" lon="1.58881">
        <ele>197</ele>
        <time>2024-04-06T11:34:54Z</time>
      </trkpt>
      <trkpt lat="43.4298" lon="1.58901">
        <ele>194</ele>
        <time>2024-04-06T11:34:59Z</time>
      </trkpt>
      <trkpt lat="43.43022" lon="1.58955">
        <ele>188</ele>
        <time>2024-04-06T11:35:09Z</time>
      </trkpt>
      <trkpt lat="43.43035" lon="1.58978">
        <ele>186</ele>
        <time>2024-04-06T11:35:13Z</time>
      </trkpt>
      <trkpt lat="43.43046" lon="1.59023">
        <ele>184</ele>
        <time>2024-04-06T11:35:19Z</time>
      </trkpt>
      <trkpt lat="43.43055" lon="1.59087">
        <ele>183</ele>
        <time>2024-04-06T11:35:27Z</time>
      </trkpt>
      <trkpt lat="43.43068" lon="1.59149">
        <ele>183</ele>
        <time>2024-04-06T11:35:36Z</time>
      </trkpt>
      <trkpt lat="43.43075" lon="1.59173">
        <ele>182</ele>
        <time>2024-04-06T11:35:39Z</time>
      </trkpt>
      <trkpt lat="43.43082" lon="1.59192">
        <ele>182</ele>
        <time>2024-04-06T11:35:42Z</time>
      </trkpt>
      <trkpt lat="43.4309" lon="1.59207">
        <ele>181</ele>
        <time>2024-04-06T11:35:44Z</time>
      </trkpt>
      <trkpt lat="43.43112" lon="1.59233">
        <ele>180</ele>
        <time>2024-04-06T11:35:49Z</time>
      </trkpt>
      <trkpt lat="43.43139" lon="1.59263">
        <ele>179</ele>
        <time>2024-04-06T11:35:56Z</time>
      </trkpt>
      <trkpt lat="43.43151" lon="1.59281">
        <ele>178</ele>
        <time>2024-04-06T11:35:59Z</time>
      </trkpt>
      <trkpt lat="43.43193" lon="1.59329">
        <ele>179</ele>
        <time>2024-04-06T11:36:09Z</time>
      </trkpt>
      <trkpt lat="43.4321" lon="1.59339">
        <ele>179</ele>
        <time>2024-04-06T11:36:12Z</time>
      </trkpt>
      <trkpt lat="43.43217" lon="1.59349">
        <ele>178</ele>
        <time>2024-04-06T11:36:14Z</time>
      </trkpt>
      <trkpt lat="43.43225" lon="1.5937">
        <ele>177</ele>
        <time>2024-04-06T11:36:17Z</time>
      </trkpt>
      <trkpt lat="43.43239" lon="1.59396">
        <ele>176</ele>
        <time>2024-04-06T11:36:21Z</time>
      </trkpt>
      <trkpt lat="43.43269" lon="1.59426">
        <ele>176</ele>
        <time>2024-04-06T11:36:27Z</time>
      </trkpt>
      <trkpt lat="43.4329" lon="1.59452">
        <ele>178</ele>
        <time>2024-04-06T11:36:32Z</time>
      </trkpt>
      <trkpt lat="43.43317" lon="1.5948">
        <ele>177</ele>
        <time>2024-04-06T11:36:38Z</time>
      </trkpt>
      <trkpt lat="43.43342" lon="1.59491">
        <ele>176</ele>
        <time>2024-04-06T11:36:43Z</time>
      </trkpt>
      <trkpt lat="43.43366" lon="1.59495">
        <ele>177</ele>
        <time>2024-04-06T11:36:47Z</time>
      </trkpt>
      <trkpt lat="43.43384" lon="1.59488">
        <ele>178</ele>
        <time>2024-04-06T11:36:51Z</time>
      </trkpt>
      <trkpt lat="43.434" lon="1.59487">
        <ele>179</ele>
        <time>2024-04-06T11:36:54Z</time>
      </trkpt>
      <trkpt lat="43.4344" lon="1.59496">
        <ele>179</ele>
        <time>2024-04-06T11:37:01Z</time>
      </trkpt>
      <trkpt lat="43.43517" lon="1.59496">
        <ele>182</ele>
        <time>2024-04-06T11:37:15Z</time>
      </trkpt>
      <trkpt lat="43.43569" lon="1.59508">
        <ele>183</ele>
        <time>2024-04-06T11:37:24Z</time>
      </trkpt>
      <trkpt lat="43.43587" lon="1.59517">
        <ele>183</ele>
        <time>2024-04-06T11:37:27Z</time>
      </trkpt>
      <trkpt lat="43.43609" lon="1.59536">
        <ele>182</ele>
        <time>2024-04-06T11:37:32Z</time>
      </trkpt>
      <trkpt lat="43.43634" lon="1.59551">
        <ele>181</ele>
        <time>2024-04-06T11:37:37Z</time>
      </trkpt>
      <trkpt lat="43.43648" lon="1.59557">
        <ele>181</ele>
        <time>2024-04-06T11:37:39Z</time>
      </trkpt>
      <trkpt lat="43.43662" lon="1.59567">
        <ele>180</ele>
        <time>2024-04-06T11:37:42Z</time>
      </trkpt>
      <trkpt lat="43.43695" lon="1.59608">
        <ele>178</ele>
        <time>2024-04-06T11:37:50Z</time>
      </trkpt>
      <trkpt lat="43.43724" lon="1.59639">
        <ele>177</ele>
        <time>2024-04-06T11:37:57Z</time>
      </trkpt>
      <trkpt lat="43.438" lon="1.59696">
        <ele>175</ele>
        <time>2024-04-06T11:38:12Z</time>
      </trkpt>
      <trkpt lat="43.43771" lon="1.59757">
        <ele>174</ele>
        <time>2024-04-06T11:38:21Z</time>
      </trkpt>
      <trkpt lat="43.43902" lon="1.5981">
        <ele>176</ele>
        <time>2024-04-06T11:38:46Z</time>
      </trkpt>
      <trkpt lat="43.43965" lon="1.5984">
        <ele>178</ele>
        <time>2024-04-06T11:38:58Z</time>
      </trkpt>
      <trkpt lat="43.43994" lon="1.59858">
        <ele>178</ele>
        <time>2024-04-06T11:39:03Z</time>
      </trkpt>
      <trkpt lat="43.4406" lon="1.5992">
        <ele>175</ele>
        <time>2024-04-06T11:39:17Z</time>
      </trkpt>
      <trkpt lat="43.4423" lon="1.59989">
        <ele>168</ele>
        <time>2024-04-06T11:39:49Z</time>
      </trkpt>
      <trkpt lat="43.44285" lon="1.60001">
        <ele>170</ele>
        <time>2024-04-06T11:39:59Z</time>
      </trkpt>
      <trkpt lat="43.4431" lon="1.60017">
        <ele>170</ele>
        <time>2024-04-06T11:40:04Z</time>
      </trkpt>
      <trkpt lat="43.44374" lon="1.60068">
        <ele>168</ele>
        <time>2024-04-06T11:40:17Z</time>
      </trkpt>
      <trkpt lat="43.44391" lon="1.60076">
        <ele>167</ele>
        <time>2024-04-06T11:40:20Z</time>
      </trkpt>
      <trkpt lat="43.44411" lon="1.60076">
        <ele>168</ele>
        <time>2024-04-06T11:40:24Z</time>
      </trkpt>
      <trkpt lat="43.4442" lon="1.60074">
        <ele>168</ele>
        <time>2024-04-06T11:40:25Z</time>
      </trkpt>
      <trkpt lat="43.44475" lon="1.60045">
        <ele>172</ele>
        <time>2024-04-06T11:40:36Z</time>
      </trkpt>
      <trkpt lat="43.44502" lon="1.60027">
        <ele>173</ele>
        <time>2024-04-06T11:40:41Z</time>
      </trkpt>
      <trkpt lat="43.44521" lon="1.60011">
        <ele>173</ele>
        <time>2024-04-06T11:40:45Z</time>
      </trkpt>
      <trkpt lat="43.44585" lon="1.59935">
        <ele>173</ele>
        <time>2024-04-06T11:41:00Z</time>
      </trkpt>
      <trkpt lat="43.44665" lon="1.59851">
        <ele>168</ele>
        <time>2024-04-06T11:41:18Z</time>
      </trkpt>
      <trkpt lat="43.44676" lon="1.59831">
        <ele>168</ele>
        <time>2024-04-06T11:41:21Z</time>
      </trkpt>
      <trkpt lat="43.44687" lon="1.59895">
        <ele>165</ele>
        <time>2024-04-06T11:41:30Z</time>
      </trkpt>
      <trkpt lat="43.44693" lon="1.599">
        <ele>165</ele>
        <time>2024-04-06T11:41:31Z</time>
      </trkpt>
      <trkpt lat="43.44703" lon="1.599">
        <ele>165</ele>
        <time>2024-04-06T11:41:33Z</time>
      </trkpt>
      <trkpt lat="43.44703" lon="1.59906">
        <ele>165</ele>
        <time>2024-04-06T11:41:34Z</time>
      </trkpt>
      <trkpt lat="43.44697" lon="1.59912">
        <ele>165</ele>
        <time>2024-04-06T11:41:35Z</time>
      </trkpt>
      <trkpt lat="43.447" lon="1.59939">
        <ele>165</ele>
        <time>2024-04-06T11:41:38Z</time>
      </trkpt>
      <trkpt lat="43.44708" lon="1.59942">
        <ele>165</ele>
        <time>2024-04-06T11:41:40Z</time>
      </trkpt>
      <trkpt lat="43.44709" lon="1.59945">
        <ele>164</ele>
        <time>2024-04-06T11:41:40Z</time>
      </trkpt>
      <trkpt lat="43.44697" lon="1.5995">
        <ele>165</ele>
        <time>2024-04-06T11:41:43Z</time>
      </trkpt>
      <trkpt lat="43.44692" lon="1.59974">
        <ele>165</ele>
        <time>2024-04-06T11:41:46Z</time>
      </trkpt>
      <trkpt lat="43.44703" lon="1.60081">
        <ele>162</ele>
        <time>2024-04-06T11:42:00Z</time>
      </trkpt>
      <trkpt lat="43.4473" lon="1.6029">
        <ele>159</ele>
        <time>2024-04-06T11:42:27Z</time>
      </trkpt>
      <trkpt lat="43.44739" lon="1.60349">
        <ele>160</ele>
        <time>2024-04-06T11:42:35Z</time>
      </trkpt>
      <trkpt lat="43.44756" lon="1.60417">
        <ele>163</ele>
        <time>2024-04-06T11:42:44Z</time>
      </trkpt>
      <trkpt lat="43.44769" lon="1.6044">
        <ele>163</ele>
        <time>2024-04-06T11:42:48Z</time>
      </trkpt>
      <trkpt lat="43.44784" lon="1.60505">
        <ele>163</ele>
        <time>2024-04-06T11:42:57Z</time>
      </trkpt>
      <trkpt lat="43.44779" lon="1.60584">
        <ele>161</ele>
        <time>2024-04-06T11:43:07Z</time>
      </trkpt>
      <trkpt lat="43.44782" lon="1.60593">
        <ele>161</ele>
        <time>2024-04-06T11:43:08Z</time>
      </trkpt>
      <trkpt lat="43.44792" lon="1.60598">
        <ele>161</ele>
        <time>2024-04-06T11:43:10Z</time>
      </trkpt>
      <trkpt lat="43.44805" lon="1.60595">
        <ele>161</ele>
        <time>2024-04-06T11:43:13Z</time>
      </trkpt>
      <trkpt lat="43.44818" lon="1.60586">
        <ele>160</ele>
        <time>2024-04-06T11:43:15Z</time>
      </trkpt>
      <trkpt lat="43.44826" lon="1.60582">
        <ele>160</ele>
        <time>2024-04-06T11:43:17Z</time>
      </trkpt>
      <trkpt lat="43.44833" lon="1.60594">
        <ele>160</ele>
        <time>2024-04-06T11:43:19Z</time>
      </trkpt>
      <trkpt lat="43.4485" lon="1.60591">
        <ele>160</ele>
        <time>2024-04-06T11:43:22Z</time>
      </trkpt>
      <trkpt lat="43.44868" lon="1.60595">
        <ele>160</ele>
        <time>2024-04-06T11:43:25Z</time>
      </trkpt>
      <trkpt lat="43.44872" lon="1.60603">
        <ele>160</ele>
        <time>2024-04-06T11:43:26Z</time>
      </trkpt>
      <trkpt lat="43.44901" lon="1.60673">
        <ele>160</ele>
        <time>2024-04-06T11:43:37Z</time>
      </trkpt>
      <trkpt lat="43.4492" lon="1.60727">
        <ele>159</ele>
        <time>2024-04-06T11:43:44Z</time>
      </trkpt>
      <trkpt lat="43.44947" lon="1.60798">
        <ele>158</ele>
        <time>2024-04-06T11:43:55Z</time>
      </trkpt>
      <trkpt lat="43.45007" lon="1.60922">
        <ele>158</ele>
        <time>2024-04-06T11:44:14Z</time>
      </trkpt>
      <trkpt lat="43.45054" lon="1.61024">
        <ele>157</ele>
        <time>2024-04-06T11:44:30Z</time>
      </trkpt>
      <trkpt lat="43.45062" lon="1.61039">
        <ele>157</ele>
        <time>2024-04-06T11:44:32Z</time>
      </trkpt>
      <trkpt lat="43.45119" lon="1.61117">
        <ele>157</ele>
        <time>2024-04-06T11:44:46Z</time>
      </trkpt>
      <trkpt lat="43.45136" lon="1.61141">
        <ele>157</ele>
        <time>2024-04-06T11:44:51Z</time>
      </trkpt>
      <trkpt lat="43.45174" lon="1.61189">
        <ele>159</ele>
        <time>2024-04-06T11:45:00Z</time>
      </trkpt>
      <trkpt lat="43.45197" lon="1.6121">
        <ele>160</ele>
        <time>2024-04-06T11:45:05Z</time>
      </trkpt>
      <trkpt lat="43.45268" lon="1.61256">
        <ele>162</ele>
        <time>2024-04-06T11:45:19Z</time>
      </trkpt>
      <trkpt lat="43.45398" lon="1.61333">
        <ele>160</ele>
        <time>2024-04-06T11:45:44Z</time>
      </trkpt>
      <trkpt lat="43.45408" lon="1.6134">
        <ele>160</ele>
        <time>2024-04-06T11:45:46Z</time>
      </trkpt>
      <trkpt lat="43.45407" lon="1.61334">
        <ele>160</ele>
        <time>2024-04-06T11:45:47Z</time>
      </trkpt>
      <trkpt lat="43.45412" lon="1.61329">
        <ele>160</ele>
        <time>2024-04-06T11:45:48Z</time>
      </trkpt>
      <trkpt lat="43.45421" lon="1.61325">
        <ele>160</ele>
        <time>2024-04-06T11:45:49Z</time>
      </trkpt>
      <trkpt lat="43.45429" lon="1.61324">
        <ele>161</ele>
        <time>2024-04-06T11:45:51Z</time>
      </trkpt>
      <trkpt lat="43.45457" lon="1.61266">
        <ele>162</ele>
        <time>2024-04-06T11:46:00Z</time>
      </trkpt>
      <trkpt lat="43.45453" lon="1.61238">
        <ele>162</ele>
        <time>2024-04-06T11:46:04Z</time>
      </trkpt>
      <trkpt lat="43.45514" lon="1.61231">
        <ele>163</ele>
        <time>2024-04-06T11:46:14Z</time>
      </trkpt>
      <trkpt lat="43.45535" lon="1.61242">
        <ele>163</ele>
        <time>2024-04-06T11:46:18Z</time>
      </trkpt>
      <trkpt lat="43.45585" lon="1.61294">
        <ele>164</ele>
        <time>2024-04-06T11:46:30Z</time>
      </trkpt>
      <trkpt lat="43.45663" lon="1.61369">
        <ele>164</ele>
        <time>2024-04-06T11:46:47Z</time>
      </trkpt>
      <trkpt lat="43.45678" lon="1.61389">
        <ele>164</ele>
        <time>2024-04-06T11:46:50Z</time>
      </trkpt>
      <trkpt lat="43.45684" lon="1.61394">
        <ele>164</ele>
        <time>2024-04-06T11:46:52Z</time>
      </trkpt>
      <trkpt lat="43.45758" lon="1.61459">
        <ele>167</ele>
        <time>2024-04-06T11:47:07Z</time>
      </trkpt>
      <trkpt lat="43.45822" lon="1.61503">
        <ele>171</ele>
        <time>2024-04-06T11:47:20Z</time>
      </trkpt>
      <trkpt lat="43.45864" lon="1.61526">
        <ele>175</ele>
        <time>2024-04-06T11:47:28Z</time>
      </trkpt>
      <trkpt lat="43.45886" lon="1.6154">
        <ele>178</ele>
        <time>2024-04-06T11:47:32Z</time>
      </trkpt>
      <trkpt lat="43.45893" lon="1.61548">
        <ele>178</ele>
        <time>2024-04-06T11:47:34Z</time>
      </trkpt>
      <trkpt lat="43.45898" lon="1.6156">
        <ele>179</ele>
        <time>2024-04-06T11:47:36Z</time>
      </trkpt>
      <trkpt lat="43.45907" lon="1.61568">
        <ele>180</ele>
        <time>2024-04-06T11:47:38Z</time>
      </trkpt>
      <trkpt lat="43.45924" lon="1.61544">
        <ele>181</ele>
        <time>2024-04-06T11:47:42Z</time>
      </trkpt>
      <trkpt lat="43.45943" lon="1.61525">
        <ele>181</ele>
        <time>2024-04-06T11:47:46Z</time>
      </trkpt>
      <trkpt lat="43.45951" lon="1.6152">
        <ele>181</ele>
        <time>2024-04-06T11:47:48Z</time>
      </trkpt>
      <trkpt lat="43.45967" lon="1.61519">
        <ele>182</ele>
        <time>2024-04-06T11:47:50Z</time>
      </trkpt>
      <trkpt lat="43.45982" lon="1.61526">
        <ele>184</ele>
        <time>2024-04-06T11:47:53Z</time>
      </trkpt>
      <trkpt lat="43.45989" lon="1.61534">
        <ele>185</ele>
        <time>2024-04-06T11:47:55Z</time>
      </trkpt>
      <trkpt lat="43.45995" lon="1.61546">
        <ele>186</ele>
        <time>2024-04-06T11:47:57Z</time>
      </trkpt>
      <trkpt lat="43.45999" lon="1.61563">
        <ele>188</ele>
        <time>2024-04-06T11:47:59Z</time>
      </trkpt>
      <trkpt lat="43.46016" lon="1.61676">
        <ele>196</ele>
        <time>2024-04-06T11:48:14Z</time>
      </trkpt>
      <trkpt lat="43.46021" lon="1.61722">
        <ele>198</ele>
        <time>2024-04-06T11:48:20Z</time>
      </trkpt>
      <trkpt lat="43.46021" lon="1.61735">
        <ele>199</ele>
        <time>2024-04-06T11:48:22Z</time>
      </trkpt>
      <trkpt lat="43.46017" lon="1.61771">
        <ele>200</ele>
        <time>2024-04-06T11:48:26Z</time>
      </trkpt>
      <trkpt lat="43.45967" lon="1.61985">
        <ele>206</ele>
        <time>2024-04-06T11:48:55Z</time>
      </trkpt>
      <trkpt lat="43.45966" lon="1.61997">
        <ele>207</ele>
        <time>2024-04-06T11:48:57Z</time>
      </trkpt>
      <trkpt lat="43.45969" lon="1.62015">
        <ele>207</ele>
        <time>2024-04-06T11:48:59Z</time>
      </trkpt>
      <trkpt lat="43.45976" lon="1.62026">
        <ele>208</ele>
        <time>2024-04-06T11:49:01Z</time>
      </trkpt>
      <trkpt lat="43.45985" lon="1.62036">
        <ele>209</ele>
        <time>2024-04-06T11:49:03Z</time>
      </trkpt>
      <trkpt lat="43.45995" lon="1.62043">
        <ele>209</ele>
        <time>2024-04-06T11:49:05Z</time>
      </trkpt>
      <trkpt lat="43.46019" lon="1.62055">
        <ele>211</ele>
        <time>2024-04-06T11:49:10Z</time>
      </trkpt>
      <trkpt lat="43.46112" lon="1.62108">
        <ele>217</ele>
        <time>2024-04-06T11:49:28Z</time>
      </trkpt>
      <trkpt lat="43.46138" lon="1.62117">
        <ele>218</ele>
        <time>2024-04-06T11:49:32Z</time>
      </trkpt>
      <trkpt lat="43.4619" lon="1.62129">
        <ele>220</ele>
        <time>2024-04-06T11:49:42Z</time>
      </trkpt>
      <trkpt lat="43.46204" lon="1.62136">
        <ele>220</ele>
        <time>2024-04-06T11:49:45Z</time>
      </trkpt>
      <trkpt lat="43.4623" lon="1.62158">
        <ele>223</ele>
        <time>2024-04-06T11:49:50Z</time>
      </trkpt>
      <trkpt lat="43.46241" lon="1.62172">
        <ele>224</ele>
        <time>2024-04-06T11:49:53Z</time>
      </trkpt>
      <trkpt lat="43.46264" lon="1.62216">
        <ele>224</ele>
        <time>2024-04-06T11:50:00Z</time>
      </trkpt>
      <trkpt lat="43.46272" lon="1.62228">
        <ele>224</ele>
        <time>2024-04-06T11:50:02Z</time>
      </trkpt>
      <trkpt lat="43.46359" lon="1.62344">
        <ele>223</ele>
        <time>2024-04-06T11:50:23Z</time>
      </trkpt>
      <trkpt lat="43.4637" lon="1.6236">
        <ele>223</ele>
        <time>2024-04-06T11:50:26Z</time>
      </trkpt>
      <trkpt lat="43.46382" lon="1.6239">
        <ele>223</ele>
        <time>2024-04-06T11:50:31Z</time>
      </trkpt>
      <trkpt lat="43.46395" lon="1.62434">
        <ele>222</ele>
        <time>2024-04-06T11:50:37Z</time>
      </trkpt>
      <trkpt lat="43.46407" lon="1.6249">
        <ele>222</ele>
        <time>2024-04-06T11:50:44Z</time>
      </trkpt>
      <trkpt lat="43.46419" lon="1.62573">
        <ele>225</ele>
        <time>2024-04-06T11:50:55Z</time>
      </trkpt>
      <trkpt lat="43.46426" lon="1.62599">
        <ele>224</ele>
        <time>2024-04-06T11:50:59Z</time>
      </trkpt>
      <trkpt lat="43.46575" lon="1.62998">
        <ele>221</ele>
        <time>2024-04-06T11:51:57Z</time>
      </trkpt>
      <trkpt lat="43.46623" lon="1.63111">
        <ele>221</ele>
        <time>2024-04-06T11:52:14Z</time>
      </trkpt>
      <trkpt lat="43.46694" lon="1.63287">
        <ele>223</ele>
        <time>2024-04-06T11:52:40Z</time>
      </trkpt>
      <trkpt lat="43.4672" lon="1.63364">
        <ele>224</ele>
        <time>2024-04-06T11:52:51Z</time>
      </trkpt>
      <trkpt lat="43.46744" lon="1.63446">
        <ele>225</ele>
        <time>2024-04-06T11:53:02Z</time>
      </trkpt>
      <trkpt lat="43.46754" lon="1.63489">
        <ele>225</ele>
        <time>2024-04-06T11:53:08Z</time>
      </trkpt>
      <trkpt lat="43.46759" lon="1.63523">
        <ele>225</ele>
        <time>2024-04-06T11:53:12Z</time>
      </trkpt>
      <trkpt lat="43.46761" lon="1.63548">
        <ele>225</ele>
        <time>2024-04-06T11:53:16Z</time>
      </trkpt>
      <trkpt lat="43.46761" lon="1.63573">
        <ele>226</ele>
        <time>2024-04-06T11:53:19Z</time>
      </trkpt>
      <trkpt lat="43.46757" lon="1.6363">
        <ele>227</ele>
        <time>2024-04-06T11:53:26Z</time>
      </trkpt>
      <trkpt lat="43.4674" lon="1.63769">
        <ele>230</ele>
        <time>2024-04-06T11:53:44Z</time>
      </trkpt>
      <trkpt lat="43.46716" lon="1.63909">
        <ele>229</ele>
        <time>2024-04-06T11:54:03Z</time>
      </trkpt>
      <trkpt lat="43.46714" lon="1.63929">
        <ele>229</ele>
        <time>2024-04-06T11:54:06Z</time>
      </trkpt>
      <trkpt lat="43.46714" lon="1.63951">
        <ele>229</ele>
        <time>2024-04-06T11:54:08Z</time>
      </trkpt>
      <trkpt lat="43.46717" lon="1.6398">
        <ele>229</ele>
        <time>2024-04-06T11:54:12Z</time>
      </trkpt>
      <trkpt lat="43.46725" lon="1.64027">
        <ele>229</ele>
        <time>2024-04-06T11:54:18Z</time>
      </trkpt>
      <trkpt lat="43.46731" lon="1.64051">
        <ele>228</ele>
        <time>2024-04-06T11:54:22Z</time>
      </trkpt>
      <trkpt lat="43.46811" lon="1.64288">
        <ele>226</ele>
        <time>2024-04-06T11:54:55Z</time>
      </trkpt>
      <trkpt lat="43.46825" lon="1.64372">
        <ele>228</ele>
        <time>2024-04-06T11:55:07Z</time>
      </trkpt>
      <trkpt lat="43.46838" lon="1.645">
        <ele>228</ele>
        <time>2024-04-06T11:55:23Z</time>
      </trkpt>
      <trkpt lat="43.46843" lon="1.64584">
        <ele>227</ele>
        <time>2024-04-06T11:55:34Z</time>
      </trkpt>
      <trkpt lat="43.46853" lon="1.6464">
        <ele>226</ele>
        <time>2024-04-06T11:55:42Z</time>
      </trkpt>
      <trkpt lat="43.46895" lon="1.64755">
        <ele>226</ele>
        <time>2024-04-06T11:55:58Z</time>
      </trkpt>
      <trkpt lat="43.46944" lon="1.64862">
        <ele>227</ele>
        <time>2024-04-06T11:56:15Z</time>
      </trkpt>
      <trkpt lat="43.4697" lon="1.64905">
        <ele>226</ele>
        <time>2024-04-06T11:56:22Z</time>
      </trkpt>
      <trkpt lat="43.47024" lon="1.65008">
        <ele>228</ele>
        <time>2024-04-06T11:56:38Z</time>
      </trkpt>
      <trkpt lat="43.47051" lon="1.65067">
        <ele>228</ele>
        <time>2024-04-06T11:56:47Z</time>
      </trkpt>
      <trkpt lat="43.47058" lon="1.6509">
        <ele>228</ele>
        <time>2024-04-06T11:56:50Z</time>
      </trkpt>
      <trkpt lat="43.47089" lon="1.65316">
        <ele>231</ele>
        <time>2024-04-06T11:57:20Z</time>
      </trkpt>
      <trkpt lat="43.47108" lon="1.65397">
        <ele>231</ele>
        <time>2024-04-06T11:57:31Z</time>
      </trkpt>
      <trkpt lat="43.47124" lon="1.65432">
        <ele>231</ele>
        <time>2024-04-06T11:57:36Z</time>
      </trkpt>
      <trkpt lat="43.47158" lon="1.65487">
        <ele>231</ele>
        <time>2024-04-06T11:57:46Z</time>
      </trkpt>
      <trkpt lat="43.47231" lon="1.65547">
        <ele>229</ele>
        <time>2024-04-06T11:58:01Z</time>
      </trkpt>
      <trkpt lat="43.47259" lon="1.65564">
        <ele>228</ele>
        <time>2024-04-06T11:58:06Z</time>
      </trkpt>
      <trkpt lat="43.47336" lon="1.6558">
        <ele>227</ele>
        <time>2024-04-06T11:58:20Z</time>
      </trkpt>
      <trkpt lat="43.47429" lon="1.65582">
        <ele>229</ele>
        <time>2024-04-06T11:58:37Z</time>
      </trkpt>
      <trkpt lat="43.47528" lon="1.65581">
        <ele>234</ele>
        <time>2024-04-06T11:58:54Z</time>
      </trkpt>
      <trkpt lat="43.47877" lon="1.65635">
        <ele>249</ele>
        <time>2024-04-06T11:59:57Z</time>
      </trkpt>
      <trkpt lat="43.479" lon="1.65647">
        <ele>251</ele>
        <time>2024-04-06T12:00:01Z</time>
      </trkpt>
      <trkpt lat="43.47906" lon="1.65654">
        <ele>251</ele>
        <time>2024-04-06T12:00:03Z</time>
      </trkpt>
      <trkpt lat="43.47938" lon="1.65698">
        <ele>251</ele>
        <time>2024-04-06T12:00:11Z</time>
      </trkpt>
      <trkpt lat="43.48052" lon="1.65833">
        <ele>252</ele>
        <time>2024-04-06T12:00:37Z</time>
      </trkpt>
      <trkpt lat="43.48143" lon="1.65879">
        <ele>249</ele>
        <time>2024-04-06T12:00:55Z</time>
      </trkpt>
      <trkpt lat="43.48058" lon="1.66095">
        <ele>255</ele>
        <time>2024-04-06T12:01:26Z</time>
      </trkpt>
      <trkpt lat="43.48003" lon="1.662">
        <ele>256</ele>
        <time>2024-04-06T12:01:43Z</time>
      </trkpt>
      <trkpt lat="43.48004" lon="1.66208">
        <ele>255</ele>
        <time>2024-04-06T12:01:44Z</time>
      </trkpt>
      <trkpt lat="43.48066" lon="1.66353">
        <ele>254</ele>
        <time>2024-04-06T12:02:06Z</time>
      </trkpt>
      <trkpt lat="43.481" lon="1.66388">
        <ele>256</ele>
        <time>2024-04-06T12:02:13Z</time>
      </trkpt>
      <trkpt lat="43.48182" lon="1.66483">
        <ele>261</ele>
        <time>2024-04-06T12:02:32Z</time>
      </trkpt>
      <trkpt lat="43.48231" lon="1.66535">
        <ele>260</ele>
        <time>2024-04-06T12:02:43Z</time>
      </trkpt>
      <trkpt lat="43.48221" lon="1.66552">
        <ele>261</ele>
        <time>2024-04-06T12:02:46Z</time>
      </trkpt>
      <trkpt lat="43.48208" lon="1.66596">
        <ele>261</ele>
        <time>2024-04-06T12:02:52Z</time>
      </trkpt>
      <trkpt lat="43.48181" lon="1.66703">
        <ele>263</ele>
        <time>2024-04-06T12:03:07Z</time>
      </trkpt>
      <trkpt lat="43.48181" lon="1.66719">
        <ele>263</ele>
        <time>2024-04-06T12:03:09Z</time>
      </trkpt>
      <trkpt lat="43.48184" lon="1.66813">
        <ele>260</ele>
        <time>2024-04-06T12:03:21Z</time>
      </trkpt>
      <trkpt lat="43.48184" lon="1.66975">
        <ele>254</ele>
        <time>2024-04-06T12:03:42Z</time>
      </trkpt>
      <trkpt lat="43.48183" lon="1.67082">
        <ele>250</ele>
        <time>2024-04-06T12:03:56Z</time>
      </trkpt>
      <trkpt lat="43.48184" lon="1.68069">
        <ele>251</ele>
        <time>2024-04-06T12:06:03Z</time>
      </trkpt>
      <trkpt lat="43.48183" lon="1.68127">
        <ele>249</ele>
        <time>2024-04-06T12:06:11Z</time>
      </trkpt>
      <trkpt lat="43.4818" lon="1.6817">
        <ele>247</ele>
        <time>2024-04-06T12:06:16Z</time>
      </trkpt>
      <trkpt lat="43.48174" lon="1.68213">
        <ele>246</ele>
        <time>2024-04-06T12:06:22Z</time>
      </trkpt>
      <trkpt lat="43.48049" lon="1.68907">
        <ele>255</ele>
        <time>2024-04-06T12:07:54Z</time>
      </trkpt>
      <trkpt lat="43.48015" lon="1.69109">
        <ele>259</ele>
        <time>2024-04-06T12:08:21Z</time>
      </trkpt>
      <trkpt lat="43.47941" lon="1.69603">
        <ele>260</ele>
        <time>2024-04-06T12:09:26Z</time>
      </trkpt>
      <trkpt lat="43.47933" lon="1.69642">
        <ele>261</ele>
        <time>2024-04-06T12:09:32Z</time>
      </trkpt>
      <trkpt lat="43.47909" lon="1.69752">
        <ele>261</ele>
        <time>2024-04-06T12:09:46Z</time>
      </trkpt>
      <trkpt lat="43.47863" lon="1.69928">
        <ele>261</ele>
        <time>2024-04-06T12:10:11Z</time>
      </trkpt>
      <trkpt lat="43.47749" lon="1.70381">
        <ele>264</ele>
        <time>2024-04-06T12:11:12Z</time>
      </trkpt>
      <trkpt lat="43.47705" lon="1.7056">
        <ele>262</ele>
        <time>2024-04-06T12:11:37Z</time>
      </trkpt>
      <trkpt lat="43.47692" lon="1.70551">
        <ele>264</ele>
        <time>2024-04-06T12:11:39Z</time>
      </trkpt>
      <trkpt lat="43.47705" lon="1.7056">
        <ele>262</ele>
        <time>2024-04-06T12:11:42Z</time>
      </trkpt>
      <trkpt lat="43.47653" lon="1.70774">
        <ele>263</ele>
        <time>2024-04-06T12:12:11Z</time>
      </trkpt>
      <trkpt lat="43.47476" lon="1.71534">
        <ele>265</ele>
        <time>2024-04-06T12:13:54Z</time>
      </trkpt>
      <trkpt lat="43.4747" lon="1.71597">
        <ele>264</ele>
        <time>2024-04-06T12:14:02Z</time>
      </trkpt>
      <trkpt lat="43.47452" lon="1.719">
        <ele>265</ele>
        <time>2024-04-06T12:14:42Z</time>
      </trkpt>
      <trkpt lat="43.47401" lon="1.72622">
        <ele>260</ele>
        <time>2024-04-06T12:16:15Z</time>
      </trkpt>
      <trkpt lat="43.47379" lon="1.72942">
        <ele>258</ele>
        <time>2024-04-06T12:16:57Z</time>
      </trkpt>
      <trkpt lat="43.47273" lon="1.73444">
        <ele>259</ele>
        <time>2024-04-06T12:18:04Z</time>
      </trkpt>
      <trkpt lat="43.47203" lon="1.7378">
        <ele>258</ele>
        <time>2024-04-06T12:18:50Z</time>
      </trkpt>
      <trkpt lat="43.47101" lon="1.74098">
        <ele>242</ele>
        <time>2024-04-06T12:19:34Z</time>
      </trkpt>
      <trkpt lat="43.47096" lon="1.74125">
        <ele>241</ele>
        <time>2024-04-06T12:19:38Z</time>
      </trkpt>
      <trkpt lat="43.47087" lon="1.74181">
        <ele>240</ele>
        <time>2024-04-06T12:19:45Z</time>
      </trkpt>
      <trkpt lat="43.46992" lon="1.74787">
        <ele>229</ele>
        <time>2024-04-06T12:21:05Z</time>
      </trkpt>
      <trkpt lat="43.46953" lon="1.75013">
        <ele>231</ele>
        <time>2024-04-06T12:21:35Z</time>
      </trkpt>
      <trkpt lat="43.46933" lon="1.75165">
        <ele>231</ele>
        <time>2024-04-06T12:21:55Z</time>
      </trkpt>
      <trkpt lat="43.46931" lon="1.7521">
        <ele>231</ele>
        <time>2024-04-06T12:22:01Z</time>
      </trkpt>
      <trkpt lat="43.46937" lon="1.75887">
        <ele>240</ele>
        <time>2024-04-06T12:23:29Z</time>
      </trkpt>
      <trkpt lat="43.46938" lon="1.75927">
        <ele>241</ele>
        <time>2024-04-06T12:23:34Z</time>
      </trkpt>
      <trkpt lat="43.46936" lon="1.75956">
        <ele>242</ele>
        <time>2024-04-06T12:23:38Z</time>
      </trkpt>
      <trkpt lat="43.46906" lon="1.76115">
        <ele>245</ele>
        <time>2024-04-06T12:23:59Z</time>
      </trkpt>
      <trkpt lat="43.46879" lon="1.76277">
        <ele>246</ele>
        <time>2024-04-06T12:24:20Z</time>
      </trkpt>
      <trkpt lat="43.46764" lon="1.77208">
        <ele>273</ele>
        <time>2024-04-06T12:26:22Z</time>
      </trkpt>
      <trkpt lat="43.46767" lon="1.77258">
        <ele>275</ele>
        <time>2024-04-06T12:26:29Z</time>
      </trkpt>
      <trkpt lat="43.46783" lon="1.77331">
        <ele>277</ele>
        <time>2024-04-06T12:26:39Z</time>
      </trkpt>
      <trkpt lat="43.46806" lon="1.77383">
        <ele>278</ele>
        <time>2024-04-06T12:26:46Z</time>
      </trkpt>
      <trkpt lat="43.46831" lon="1.77419">
        <ele>279</ele>
        <time>2024-04-06T12:26:53Z</time>
      </trkpt>
      <trkpt lat="43.46931" lon="1.77496">
        <ele>278</ele>
        <time>2024-04-06T12:27:13Z</time>
      </trkpt>
      <trkpt lat="43.46958" lon="1.77532">
        <ele>275</ele>
        <time>2024-04-06T12:27:20Z</time>
      </trkpt>
      <trkpt lat="43.46975" lon="1.77566">
        <ele>273</ele>
        <time>2024-04-06T12:27:25Z</time>
      </trkpt>
      <trkpt lat="43.46988" lon="1.77604">
        <ele>270</ele>
        <time>2024-04-06T12:27:31Z</time>
      </trkpt>
      <trkpt lat="43.46995" lon="1.77635">
        <ele>267</ele>
        <time>2024-04-06T12:27:35Z</time>
      </trkpt>
      <trkpt lat="43.46999" lon="1.77676">
        <ele>264</ele>
        <time>2024-04-06T12:27:40Z</time>
      </trkpt>
      <trkpt lat="43.46998" lon="1.7776">
        <ele>262</ele>
        <time>2024-04-06T12:27:51Z</time>
      </trkpt>
      <trkpt lat="43.46987" lon="1.78028">
        <ele>261</ele>
        <time>2024-04-06T12:28:26Z</time>
      </trkpt>
      <trkpt lat="43.46982" lon="1.78338">
        <ele>266</ele>
        <time>2024-04-06T12:29:06Z</time>
      </trkpt>
      <trkpt lat="43.46977" lon="1.78455">
        <ele>265</ele>
        <time>2024-04-06T12:29:21Z</time>
      </trkpt>
      <trkpt lat="43.46948" lon="1.78714">
        <ele>257</ele>
        <time>2024-04-06T12:29:55Z</time>
      </trkpt>
      <trkpt lat="43.46827" lon="1.79604">
        <ele>247</ele>
        <time>2024-04-06T12:31:52Z</time>
      </trkpt>
      <trkpt lat="43.46785" lon="1.7993">
        <ele>243</ele>
        <time>2024-04-06T12:32:34Z</time>
      </trkpt>
      <trkpt lat="43.46762" lon="1.80092">
        <ele>245</ele>
        <time>2024-04-06T12:32:56Z</time>
      </trkpt>
      <trkpt lat="43.4673" lon="1.80203">
        <ele>247</ele>
        <time>2024-04-06T12:33:11Z</time>
      </trkpt>
      <trkpt lat="43.46595" lon="1.80651">
        <ele>254</ele>
        <time>2024-04-06T12:34:14Z</time>
      </trkpt>
      <trkpt lat="43.46404" lon="1.81282">
        <ele>262</ele>
        <time>2024-04-06T12:35:42Z</time>
      </trkpt>
      <trkpt lat="43.46218" lon="1.81717">
        <ele>266</ele>
        <time>2024-04-06T12:36:47Z</time>
      </trkpt>
      <trkpt lat="43.46206" lon="1.81751">
        <ele>267</ele>
        <time>2024-04-06T12:36:52Z</time>
      </trkpt>
      <trkpt lat="43.46197" lon="1.81782">
        <ele>266</ele>
        <time>2024-04-06T12:36:56Z</time>
      </trkpt>
      <trkpt lat="43.46184" lon="1.81849">
        <ele>264</ele>
        <time>2024-04-06T12:37:05Z</time>
      </trkpt>
      <trkpt lat="43.4618" lon="1.81887">
        <ele>263</ele>
        <time>2024-04-06T12:37:10Z</time>
      </trkpt>
      <trkpt lat="43.46177" lon="1.81943">
        <ele>263</ele>
        <time>2024-04-06T12:37:18Z</time>
      </trkpt>
      <trkpt lat="43.46178" lon="1.82032">
        <ele>263</ele>
        <time>2024-04-06T12:37:29Z</time>
      </trkpt>
      <trkpt lat="43.46175" lon="1.82284">
        <ele>270</ele>
        <time>2024-04-06T12:38:02Z</time>
      </trkpt>
      <trkpt lat="43.46178" lon="1.82395">
        <ele>268</ele>
        <time>2024-04-06T12:38:16Z</time>
      </trkpt>
      <trkpt lat="43.46186" lon="1.82566">
        <ele>269</ele>
        <time>2024-04-06T12:38:38Z</time>
      </trkpt>
      <trkpt lat="43.46194" lon="1.82996">
        <ele>275</ele>
        <time>2024-04-06T12:39:34Z</time>
      </trkpt>
      <trkpt lat="43.46193" lon="1.83025">
        <ele>274</ele>
        <time>2024-04-06T12:39:37Z</time>
      </trkpt>
      <trkpt lat="43.46188" lon="1.83078">
        <ele>274</ele>
        <time>2024-04-06T12:39:44Z</time>
      </trkpt>
      <trkpt lat="43.46143" lon="1.83447">
        <ele>278</ele>
        <time>2024-04-06T12:40:33Z</time>
      </trkpt>
      <trkpt lat="43.46133" lon="1.8352">
        <ele>276</ele>
        <time>2024-04-06T12:40:42Z</time>
      </trkpt>
      <trkpt lat="43.46112" lon="1.83711">
        <ele>276</ele>
        <time>2024-04-06T12:41:07Z</time>
      </trkpt>
      <trkpt lat="43.46115" lon="1.83765">
        <ele>277</ele>
        <time>2024-04-06T12:41:14Z</time>
      </trkpt>
      <trkpt lat="43.46123" lon="1.83826">
        <ele>277</ele>
        <time>2024-04-06T12:41:22Z</time>
      </trkpt>
      <trkpt lat="43.4614" lon="1.83893">
        <ele>277</ele>
        <time>2024-04-06T12:41:31Z</time>
      </trkpt>
      <trkpt lat="43.46147" lon="1.83926">
        <ele>277</ele>
        <time>2024-04-06T12:41:36Z</time>
      </trkpt>
      <trkpt lat="43.46154" lon="1.83969">
        <ele>277</ele>
        <time>2024-04-06T12:41:42Z</time>
      </trkpt>
      <trkpt lat="43.46156" lon="1.84017">
        <ele>276</ele>
        <time>2024-04-06T12:41:48Z</time>
      </trkpt>
      <trkpt lat="43.46154" lon="1.84078">
        <ele>275</ele>
        <time>2024-04-06T12:41:56Z</time>
      </trkpt>
      <trkpt lat="43.4599" lon="1.84889">
        <ele>267</ele>
        <time>2024-04-06T12:43:44Z</time>
      </trkpt>
      <trkpt lat="43.45998" lon="1.84894">
        <ele>267</ele>
        <time>2024-04-06T12:43:46Z</time>
      </trkpt>
      <trkpt lat="43.4599" lon="1.84889">
        <ele>267</ele>
        <time>2024-04-06T12:43:48Z</time>
      </trkpt>
      <trkpt lat="43.45981" lon="1.84933">
        <ele>267</ele>
        <time>2024-04-06T12:43:53Z</time>
      </trkpt>
      <trkpt lat="43.45978" lon="1.84961">
        <ele>267</ele>
        <time>2024-04-06T12:43:57Z</time>
      </trkpt>
      <trkpt lat="43.45979" lon="1.85009">
        <ele>266</ele>
        <time>2024-04-06T12:44:03Z</time>
      </trkpt>
      <trkpt lat="43.45981" lon="1.85029">
        <ele>266</ele>
        <time>2024-04-06T12:44:06Z</time>
      </trkpt>
      <trkpt lat="43.45987" lon="1.8506">
        <ele>266</ele>
        <time>2024-04-06T12:44:10Z</time>
      </trkpt>
      <trkpt lat="43.45996" lon="1.85091">
        <ele>266</ele>
        <time>2024-04-06T12:44:14Z</time>
      </trkpt>
      <trkpt lat="43.46085" lon="1.8529">
        <ele>257</ele>
        <time>2024-04-06T12:44:45Z</time>
      </trkpt>
      <trkpt lat="43.46091" lon="1.85308">
        <ele>256</ele>
        <time>2024-04-06T12:44:47Z</time>
      </trkpt>
      <trkpt lat="43.46099" lon="1.85353">
        <ele>255</ele>
        <time>2024-04-06T12:44:53Z</time>
      </trkpt>
      <trkpt lat="43.4614" lon="1.85704">
        <ele>240</ele>
        <time>2024-04-06T12:45:39Z</time>
      </trkpt>
      <trkpt lat="43.46141" lon="1.85754">
        <ele>237</ele>
        <time>2024-04-06T12:45:45Z</time>
      </trkpt>
      <trkpt lat="43.46138" lon="1.85787">
        <ele>237</ele>
        <time>2024-04-06T12:45:50Z</time>
      </trkpt>
      <trkpt lat="43.4613" lon="1.85821">
        <ele>237</ele>
        <time>2024-04-06T12:45:54Z</time>
      </trkpt>
      <trkpt lat="43.46124" lon="1.85836">
        <ele>237</ele>
        <time>2024-04-06T12:45:57Z</time>
      </trkpt>
      <trkpt lat="43.46107" lon="1.85867">
        <ele>240</ele>
        <time>2024-04-06T12:46:02Z</time>
      </trkpt>
      <trkpt lat="43.46077" lon="1.85899">
        <ele>242</ele>
        <time>2024-04-06T12:46:08Z</time>
      </trkpt>
      <trkpt lat="43.45868" lon="1.8605">
        <ele>252</ele>
        <time>2024-04-06T12:46:50Z</time>
      </trkpt>
      <trkpt lat="43.45842" lon="1.86073">
        <ele>253</ele>
        <time>2024-04-06T12:46:56Z</time>
      </trkpt>
      <trkpt lat="43.45826" lon="1.8609">
        <ele>254</ele>
        <time>2024-04-06T12:46:59Z</time>
      </trkpt>
      <trkpt lat="43.45773" lon="1.86161">
        <ele>259</ele>
        <time>2024-04-06T12:47:13Z</time>
      </trkpt>
      <trkpt lat="43.4574" lon="1.86221">
        <ele>263</ele>
        <time>2024-04-06T12:47:22Z</time>
      </trkpt>
      <trkpt lat="43.45727" lon="1.86249">
        <ele>265</ele>
        <time>2024-04-06T12:47:27Z</time>
      </trkpt>
      <trkpt lat="43.45717" lon="1.86271">
        <ele>266</ele>
        <time>2024-04-06T12:47:30Z</time>
      </trkpt>
      <trkpt lat="43.45674" lon="1.86391">
        <ele>271</ele>
        <time>2024-04-06T12:47:47Z</time>
      </trkpt>
      <trkpt lat="43.45665" lon="1.86408">
        <ele>272</ele>
        <time>2024-04-06T12:47:50Z</time>
      </trkpt>
      <trkpt lat="43.45628" lon="1.86453">
        <ele>272</ele>
        <time>2024-04-06T12:47:59Z</time>
      </trkpt>
      <trkpt lat="43.4562" lon="1.86466">
        <ele>273</ele>
        <time>2024-04-06T12:48:01Z</time>
      </trkpt>
      <trkpt lat="43.45606" lon="1.8649">
        <ele>274</ele>
        <time>2024-04-06T12:48:05Z</time>
      </trkpt>
      <trkpt lat="43.45565" lon="1.86573">
        <ele>276</ele>
        <time>2024-04-06T12:48:18Z</time>
      </trkpt>
      <trkpt lat="43.45554" lon="1.86602">
        <ele>277</ele>
        <time>2024-04-06T12:48:22Z</time>
      </trkpt>
      <trkpt lat="43.45531" lon="1.86689">
        <ele>280</ele>
        <time>2024-04-06T12:48:34Z</time>
      </trkpt>
      <trkpt lat="43.45524" lon="1.86724">
        <ele>282</ele>
        <time>2024-04-06T12:48:39Z</time>
      </trkpt>
      <trkpt lat="43.45484" lon="1.87027">
        <ele>295</ele>
        <time>2024-04-06T12:49:19Z</time>
      </trkpt>
      <trkpt lat="43.45475" lon="1.87067">
        <ele>296</ele>
        <time>2024-04-06T12:49:24Z</time>
      </trkpt>
      <trkpt lat="43.45408" lon="1.87289">
        <ele>301</ele>
        <time>2024-04-06T12:49:55Z</time>
      </trkpt>
      <trkpt lat="43.45376" lon="1.87421">
        <ele>303</ele>
        <time>2024-04-06T12:50:13Z</time>
      </trkpt>
      <trkpt lat="43.4531" lon="1.87637">
        <ele>306</ele>
        <time>2024-04-06T12:50:43Z</time>
      </trkpt>
      <trkpt lat="43.45243" lon="1.87846">
        <ele>309</ele>
        <time>2024-04-06T12:51:13Z</time>
      </trkpt>
      <trkpt lat="43.45234" lon="1.87872">
        <ele>308</ele>
        <time>2024-04-06T12:51:16Z</time>
      </trkpt>
      <trkpt lat="43.45212" lon="1.87924">
        <ele>308</ele>
        <time>2024-04-06T12:51:24Z</time>
      </trkpt>
      <trkpt lat="43.45149" lon="1.88047">
        <ele>315</ele>
        <time>2024-04-06T12:51:44Z</time>
      </trkpt>
      <trkpt lat="43.45002" lon="1.88399">
        <ele>320</ele>
        <time>2024-04-06T12:52:36Z</time>
      </trkpt>
      <trkpt lat="43.44974" lon="1.8847">
        <ele>318</ele>
        <time>2024-04-06T12:52:47Z</time>
      </trkpt>
      <trkpt lat="43.44964" lon="1.88501">
        <ele>319</ele>
        <time>2024-04-06T12:52:51Z</time>
      </trkpt>
      <trkpt lat="43.44959" lon="1.88508">
        <ele>319</ele>
        <time>2024-04-06T12:52:52Z</time>
      </trkpt>
      <trkpt lat="43.44964" lon="1.88532">
        <ele>319</ele>
        <time>2024-04-06T12:52:55Z</time>
      </trkpt>
      <trkpt lat="43.44965" lon="1.88555">
        <ele>320</ele>
        <time>2024-04-06T12:52:58Z</time>
      </trkpt>
      <trkpt lat="43.44958" lon="1.88589">
        <ele>321</ele>
        <time>2024-04-06T12:53:03Z</time>
      </trkpt>
      <trkpt lat="43.44941" lon="1.88645">
        <ele>325</ele>
        <time>2024-04-06T12:53:11Z</time>
      </trkpt>
      <trkpt lat="43.4494" lon="1.88661">
        <ele>326</ele>
        <time>2024-04-06T12:53:13Z</time>
      </trkpt>
      <trkpt lat="43.44944" lon="1.88683">
        <ele>326</ele>
        <time>2024-04-06T12:53:16Z</time>
      </trkpt>
      <trkpt lat="43.44963" lon="1.88712">
        <ele>323</ele>
        <time>2024-04-06T12:53:21Z</time>
      </trkpt>
      <trkpt lat="43.44976" lon="1.88724">
        <ele>321</ele>
        <time>2024-04-06T12:53:24Z</time>
      </trkpt>
      <trkpt lat="43.44983" lon="1.88745">
        <ele>321</ele>
        <time>2024-04-06T12:53:27Z</time>
      </trkpt>
      <trkpt lat="43.4497" lon="1.88842">
        <ele>322</ele>
        <time>2024-04-06T12:53:39Z</time>
      </trkpt>
      <trkpt lat="43.44946" lon="1.88911">
        <ele>323</ele>
        <time>2024-04-06T12:53:49Z</time>
      </trkpt>
      <trkpt lat="43.4495" lon="1.88951">
        <ele>319</ele>
        <time>2024-04-06T12:53:54Z</time>
      </trkpt>
      <trkpt lat="43.4496" lon="1.892">
        <ele>296</ele>
        <time>2024-04-06T12:54:27Z</time>
      </trkpt>
      <trkpt lat="43.44969" lon="1.89382">
        <ele>286</ele>
        <time>2024-04-06T12:54:50Z</time>
      </trkpt>
      <trkpt lat="43.44983" lon="1.89704">
        <ele>269</ele>
        <time>2024-04-06T12:55:32Z</time>
      </trkpt>
      <trkpt lat="43.44978" lon="1.89724">
        <ele>269</ele>
        <time>2024-04-06T12:55:35Z</time>
      </trkpt>
      <trkpt lat="43.44964" lon="1.89728">
        <ele>269</ele>
        <time>2024-04-06T12:55:37Z</time>
      </trkpt>
      <trkpt lat="43.44983" lon="1.89804">
        <ele>264</ele>
        <time>2024-04-06T12:55:48Z</time>
      </trkpt>
      <trkpt lat="43.44989" lon="1.89847">
        <ele>261</ele>
        <time>2024-04-06T12:55:53Z</time>
      </trkpt>
      <trkpt lat="43.45009" lon="1.90263">
        <ele>240</ele>
        <time>2024-04-06T12:56:47Z</time>
      </trkpt>
      <trkpt lat="43.4501" lon="1.90311">
        <ele>238</ele>
        <time>2024-04-06T12:56:53Z</time>
      </trkpt>
      <trkpt lat="43.45007" lon="1.9035">
        <ele>235</ele>
        <time>2024-04-06T12:56:58Z</time>
      </trkpt>
      <trkpt lat="43.44988" lon="1.90574">
        <ele>229</ele>
        <time>2024-04-06T12:57:27Z</time>
      </trkpt>
      <trkpt lat="43.44888" lon="1.91628">
        <ele>204</ele>
        <time>2024-04-06T12:59:45Z</time>
      </trkpt>
      <trkpt lat="43.44884" lon="1.91628">
        <ele>204</ele>
        <time>2024-04-06T12:59:46Z</time>
      </trkpt>
      <trkpt lat="43.44867" lon="1.91616">
        <ele>204</ele>
        <time>2024-04-06T12:59:49Z</time>
      </trkpt>
      <trkpt lat="43.4486" lon="1.91602">
        <ele>204</ele>
        <time>2024-04-06T12:59:51Z</time>
      </trkpt>
      <trkpt lat="43.44854" lon="1.9158">
        <ele>205</ele>
        <time>2024-04-06T12:59:54Z</time>
      </trkpt>
      <trkpt lat="43.4486" lon="1.91602">
        <ele>204</ele>
        <time>2024-04-06T12:59:57Z</time>
      </trkpt>
      <trkpt lat="43.44867" lon="1.91616">
        <ele>204</ele>
        <time>2024-04-06T12:59:59Z</time>
      </trkpt>
      <trkpt lat="43.44884" lon="1.91628">
        <ele>204</ele>
        <time>2024-04-06T13:00:03Z</time>
      </trkpt>
      <trkpt lat="43.44888" lon="1.91628">
        <ele>204</ele>
        <time>2024-04-06T13:00:03Z</time>
      </trkpt>
      <trkpt lat="43.44791" lon="1.92636">
        <ele>201</ele>
        <time>2024-04-06T13:02:15Z</time>
      </trkpt>
      <trkpt lat="43.44762" lon="1.92928">
        <ele>205</ele>
        <time>2024-04-06T13:02:53Z</time>
      </trkpt>
      <trkpt lat="43.44646" lon="1.94187">
        <ele>208</ele>
        <time>2024-04-06T13:05:37Z</time>
      </trkpt>
      <trkpt lat="43.44604" lon="1.94615">
        <ele>207</ele>
        <time>2024-04-06T13:06:33Z</time>
      </trkpt>
      <trkpt lat="43.44591" lon="1.94743">
        <ele>207</ele>
        <time>2024-04-06T13:06:49Z</time>
      </trkpt>
      <trkpt lat="43.44589" lon="1.9476">
        <ele>207</ele>
        <time>2024-04-06T13:06:52Z</time>
      </trkpt>
      <trkpt lat="43.44551" lon="1.95137">
        <ele>209</ele>
        <time>2024-04-06T13:07:41Z</time>
      </trkpt>
      <trkpt lat="43.44546" lon="1.95154">
        <ele>210</ele>
        <time>2024-04-06T13:07:43Z</time>
      </trkpt>
      <trkpt lat="43.44523" lon="1.95196">
        <ele>212</ele>
        <time>2024-04-06T13:07:50Z</time>
      </trkpt>
      <trkpt lat="43.44531" lon="1.95207">
        <ele>212</ele>
        <time>2024-04-06T13:07:52Z</time>
      </trkpt>
      <trkpt lat="43.44533" lon="1.95217">
        <ele>213</ele>
        <time>2024-04-06T13:07:53Z</time>
      </trkpt>
      <trkpt lat="43.44544" lon="1.95236">
        <ele>213</ele>
        <time>2024-04-06T13:07:56Z</time>
      </trkpt>
      <trkpt lat="43.44552" lon="1.95255">
        <ele>213</ele>
        <time>2024-04-06T13:07:59Z</time>
      </trkpt>
      <trkpt lat="43.44562" lon="1.95283">
        <ele>213</ele>
        <time>2024-04-06T13:08:03Z</time>
      </trkpt>
      <trkpt lat="43.44836" lon="1.9654">
        <ele>212</ele>
        <time>2024-04-06T13:10:53Z</time>
      </trkpt>
      <trkpt lat="43.44936" lon="1.96998">
        <ele>212</ele>
        <time>2024-04-06T13:11:55Z</time>
      </trkpt>
      <trkpt lat="43.45027" lon="1.97407">
        <ele>215</ele>
        <time>2024-04-06T13:12:50Z</time>
      </trkpt>
      <trkpt lat="43.45132" lon="1.9789">
        <ele>216</ele>
        <time>2024-04-06T13:13:55Z</time>
      </trkpt>
      <trkpt lat="43.45134" lon="1.97905">
        <ele>216</ele>
        <time>2024-04-06T13:13:57Z</time>
      </trkpt>
      <trkpt lat="43.45144" lon="1.9794">
        <ele>216</ele>
        <time>2024-04-06T13:14:02Z</time>
      </trkpt>
      <trkpt lat="43.45143" lon="1.97948">
        <ele>216</ele>
        <time>2024-04-06T13:14:03Z</time>
      </trkpt>
      <trkpt lat="43.45141" lon="1.97962">
        <ele>216</ele>
        <time>2024-04-06T13:14:05Z</time>
      </trkpt>
      <trkpt lat="43.45145" lon="1.97974">
        <ele>216</ele>
        <time>2024-04-06T13:14:06Z</time>
      </trkpt>
      <trkpt lat="43.45151" lon="1.98008">
        <ele>216</ele>
        <time>2024-04-06T13:14:11Z</time>
      </trkpt>
      <trkpt lat="43.45157" lon="1.98028">
        <ele>216</ele>
        <time>2024-04-06T13:14:14Z</time>
      </trkpt>
      <trkpt lat="43.45163" lon="1.98041">
        <ele>217</ele>
        <time>2024-04-06T13:14:16Z</time>
      </trkpt>
      <trkpt lat="43.45292" lon="1.98634">
        <ele>214</ele>
        <time>2024-04-06T13:15:36Z</time>
      </trkpt>
      <trkpt lat="43.45352" lon="1.98923">
        <ele>213</ele>
        <time>2024-04-06T13:16:14Z</time>
      </trkpt>
      <trkpt lat="43.45397" lon="1.99119">
        <ele>212</ele>
        <time>2024-04-06T13:16:41Z</time>
      </trkpt>
      <trkpt lat="43.45434" lon="1.99293">
        <ele>213</ele>
        <time>2024-04-06T13:17:04Z</time>
      </trkpt>
      <trkpt lat="43.45435" lon="1.99309">
        <ele>213</ele>
        <time>2024-04-06T13:17:06Z</time>
      </trkpt>
      <trkpt lat="43.45429" lon="1.99312">
        <ele>213</ele>
        <time>2024-04-06T13:17:08Z</time>
      </trkpt>
      <trkpt lat="43.45424" lon="1.99318">
        <ele>213</ele>
        <time>2024-04-06T13:17:09Z</time>
      </trkpt>
      <trkpt lat="43.45421" lon="1.99326">
        <ele>213</ele>
        <time>2024-04-06T13:17:10Z</time>
      </trkpt>
      <trkpt lat="43.4542" lon="1.99335">
        <ele>213</ele>
        <time>2024-04-06T13:17:11Z</time>
      </trkpt>
      <trkpt lat="43.45422" lon="1.99344">
        <ele>213</ele>
        <time>2024-04-06T13:17:12Z</time>
      </trkpt>
      <trkpt lat="43.45426" lon="1.99351">
        <ele>213</ele>
        <time>2024-04-06T13:17:14Z</time>
      </trkpt>
      <trkpt lat="43.45431" lon="1.99356">
        <ele>213</ele>
        <time>2024-04-06T13:17:15Z</time>
      </trkpt>
      <trkpt lat="43.45436" lon="1.99358">
        <ele>213</ele>
        <time>2024-04-06T13:17:16Z</time>
      </trkpt>
      <trkpt lat="43.45447" lon="1.99355">
        <ele>212</ele>
        <time>2024-04-06T13:17:18Z</time>
      </trkpt>
      <trkpt lat="43.45451" lon="1.99369">
        <ele>212</ele>
        <time>2024-04-06T13:17:19Z</time>
      </trkpt>
      <trkpt lat="43.45597" lon="2.00032">
        <ele>213</ele>
        <time>2024-04-06T13:18:49Z</time>
      </trkpt>
      <trkpt lat="43.45593" lon="2.00038">
        <ele>213</ele>
        <time>2024-04-06T13:18:50Z</time>
      </trkpt>
      <trkpt lat="43.45594" lon="2.00046">
        <ele>213</ele>
        <time>2024-04-06T13:18:51Z</time>
      </trkpt>
      <trkpt lat="43.456" lon="2.00049">
        <ele>213</ele>
        <time>2024-04-06T13:18:52Z</time>
      </trkpt>
      <trkpt lat="43.45639" lon="2.00231">
        <ele>214</ele>
        <time>2024-04-06T13:19:17Z</time>
      </trkpt>
      <trkpt lat="43.45632" lon="2.00238">
        <ele>214</ele>
        <time>2024-04-06T13:19:18Z</time>
      </trkpt>
      <trkpt lat="43.45631" lon="2.0025">
        <ele>214</ele>
        <time>2024-04-06T13:19:20Z</time>
      </trkpt>
      <trkpt lat="43.45636" lon="2.00258">
        <ele>214</ele>
        <time>2024-04-06T13:19:21Z</time>
      </trkpt>
      <trkpt lat="43.45644" lon="2.00259">
        <ele>214</ele>
        <time>2024-04-06T13:19:23Z</time>
      </trkpt>
      <trkpt lat="43.45658" lon="2.00316">
        <ele>215</ele>
        <time>2024-04-06T13:19:30Z</time>
      </trkpt>
      <trkpt lat="43.4566" lon="2.00334">
        <ele>215</ele>
        <time>2024-04-06T13:19:33Z</time>
      </trkpt>
      <trkpt lat="43.45652" lon="2.00368">
        <ele>215</ele>
        <time>2024-04-06T13:19:37Z</time>
      </trkpt>
      <trkpt lat="43.45639" lon="2.00409">
        <ele>216</ele>
        <time>2024-04-06T13:19:43Z</time>
      </trkpt>
      <trkpt lat="43.45637" lon="2.00432">
        <ele>216</ele>
        <time>2024-04-06T13:19:46Z</time>
      </trkpt>
      <trkpt lat="43.45654" lon="2.00499">
        <ele>217</ele>
        <time>2024-04-06T13:19:55Z</time>
      </trkpt>
      <trkpt lat="43.45667" lon="2.00544">
        <ele>216</ele>
        <time>2024-04-06T13:20:02Z</time>
      </trkpt>
      <trkpt lat="43.45692" lon="2.0061">
        <ele>217</ele>
        <time>2024-04-06T13:20:11Z</time>
      </trkpt>
      <trkpt lat="43.45708" lon="2.0063">
        <ele>218</ele>
        <time>2024-04-06T13:20:15Z</time>
      </trkpt>
      <trkpt lat="43.45812" lon="2.00701">
        <ele>218</ele>
        <time>2024-04-06T13:20:36Z</time>
      </trkpt>
      <trkpt lat="43.45802" lon="2.00723">
        <ele>218</ele>
        <time>2024-04-06T13:20:39Z</time>
      </trkpt>
      <trkpt lat="43.45769" lon="2.00809">
        <ele>218</ele>
        <time>2024-04-06T13:20:52Z</time>
      </trkpt>
      <trkpt lat="43.45534" lon="2.01457">
        <ele>226</ele>
        <time>2024-04-06T13:22:25Z</time>
      </trkpt>
      <trkpt lat="43.45495" lon="2.0145">
        <ele>226</ele>
        <time>2024-04-06T13:22:32Z</time>
      </trkpt>
      <trkpt lat="43.45457" lon="2.01515">
        <ele>226</ele>
        <time>2024-04-06T13:22:43Z</time>
      </trkpt>
      <trkpt lat="43.45402" lon="2.01598">
        <ele>228</ele>
        <time>2024-04-06T13:22:57Z</time>
      </trkpt>
      <trkpt lat="43.45394" lon="2.01613">
        <ele>228</ele>
        <time>2024-04-06T13:23:00Z</time>
      </trkpt>
      <trkpt lat="43.45365" lon="2.01684">
        <ele>230</ele>
        <time>2024-04-06T13:23:10Z</time>
      </trkpt>
      <trkpt lat="43.45351" lon="2.01723">
        <ele>231</ele>
        <time>2024-04-06T13:23:16Z</time>
      </trkpt>
      <trkpt lat="43.45343" lon="2.01758">
        <ele>231</ele>
        <time>2024-04-06T13:23:21Z</time>
      </trkpt>
      <trkpt lat="43.45338" lon="2.01798">
        <ele>231</ele>
        <time>2024-04-06T13:23:26Z</time>
      </trkpt>
      <trkpt lat="43.45345" lon="2.01872">
        <ele>231</ele>
        <time>2024-04-06T13:23:36Z</time>
      </trkpt>
      <trkpt lat="43.45346" lon="2.01914">
        <ele>231</ele>
        <time>2024-04-06T13:23:41Z</time>
      </trkpt>
      <trkpt lat="43.45349" lon="2.01961">
        <ele>231</ele>
        <time>2024-04-06T13:23:47Z</time>
      </trkpt>
      <trkpt lat="43.45353" lon="2.01988">
        <ele>231</ele>
        <time>2024-04-06T13:23:51Z</time>
      </trkpt>
      <trkpt lat="43.4536" lon="2.01995">
        <ele>231</ele>
        <time>2024-04-06T13:23:52Z</time>
      </trkpt>
      <trkpt lat="43.45335" lon="2.02272">
        <ele>231</ele>
        <time>2024-04-06T13:24:28Z</time>
      </trkpt>
      <trkpt lat="43.45329" lon="2.02469">
        <ele>232</ele>
        <time>2024-04-06T13:24:54Z</time>
      </trkpt>
      <trkpt lat="43.45324" lon="2.02468">
        <ele>232</ele>
        <time>2024-04-06T13:24:55Z</time>
      </trkpt>
      <trkpt lat="43.45316" lon="2.02469">
        <ele>232</ele>
        <time>2024-04-06T13:24:56Z</time>
      </trkpt>
      <trkpt lat="43.45222" lon="2.02557">
        <ele>235</ele>
        <time>2024-04-06T13:25:16Z</time>
      </trkpt>
      <trkpt lat="43.45185" lon="2.026">
        <ele>237</ele>
        <time>2024-04-06T13:25:25Z</time>
      </trkpt>
      <trkpt lat="43.45156" lon="2.02638">
        <ele>237</ele>
        <time>2024-04-06T13:25:32Z</time>
      </trkpt>
      <trkpt lat="43.45145" lon="2.02656">
        <ele>238</ele>
        <time>2024-04-06T13:25:35Z</time>
      </trkpt>
      <trkpt lat="43.45133" lon="2.02684">
        <ele>239</ele>
        <time>2024-04-06T13:25:39Z</time>
      </trkpt>
      <trkpt lat="43.45068" lon="2.02924">
        <ele>240</ele>
        <time>2024-04-06T13:26:12Z</time>
      </trkpt>
      <trkpt lat="43.45056" lon="2.03">
        <ele>240</ele>
        <time>2024-04-06T13:26:22Z</time>
      </trkpt>
      <trkpt lat="43.45046" lon="2.03094">
        <ele>240</ele>
        <time>2024-04-06T13:26:35Z</time>
      </trkpt>
      <trkpt lat="43.45017" lon="2.03184">
        <ele>242</ele>
        <time>2024-04-06T13:26:47Z</time>
      </trkpt>
      <trkpt lat="43.44987" lon="2.03286">
        <ele>244</ele>
        <time>2024-04-06T13:27:02Z</time>
      </trkpt>
      <trkpt lat="43.44951" lon="2.03434">
        <ele>246</ele>
        <time>2024-04-06T13:27:22Z</time>
      </trkpt>
      <trkpt lat="43.4494" lon="2.03456">
        <ele>246</ele>
        <time>2024-04-06T13:27:25Z</time>
      </trkpt>
      <trkpt lat="43.44941" lon="2.03463">
        <ele>246</ele>
        <time>2024-04-06T13:27:26Z</time>
      </trkpt>
      <trkpt lat="43.4495" lon="2.03485">
        <ele>244</ele>
        <time>2024-04-06T13:27:29Z</time>
      </trkpt>
      <trkpt lat="43.44946" lon="2.03492">
        <ele>244</ele>
        <time>2024-04-06T13:27:31Z</time>
      </trkpt>
      <trkpt lat="43.44939" lon="2.03497">
        <ele>245</ele>
        <time>2024-04-06T13:27:32Z</time>
      </trkpt>
      <trkpt lat="43.44937" lon="2.03513">
        <ele>245</ele>
        <time>2024-04-06T13:27:34Z</time>
      </trkpt>
      <trkpt lat="43.44941" lon="2.03521">
        <ele>244</ele>
        <time>2024-04-06T13:27:35Z</time>
      </trkpt>
      <trkpt lat="43.44961" lon="2.03535">
        <ele>243</ele>
        <time>2024-04-06T13:27:39Z</time>
      </trkpt>
      <trkpt lat="43.44962" lon="2.03539">
        <ele>243</ele>
        <time>2024-04-06T13:27:40Z</time>
      </trkpt>
      <trkpt lat="43.44961" lon="2.03544">
        <ele>243</ele>
        <time>2024-04-06T13:27:41Z</time>
      </trkpt>
      <trkpt lat="43.44982" lon="2.03739">
        <ele>243</ele>
        <time>2024-04-06T13:28:06Z</time>
      </trkpt>
      <trkpt lat="43.44998" lon="2.03878">
        <ele>241</ele>
        <time>2024-04-06T13:28:24Z</time>
      </trkpt>
      <trkpt lat="43.45006" lon="2.03956">
        <ele>241</ele>
        <time>2024-04-06T13:28:34Z</time>
      </trkpt>
      <trkpt lat="43.45046" lon="2.04316">
        <ele>243</ele>
        <time>2024-04-06T13:29:21Z</time>
      </trkpt>
      <trkpt lat="43.45083" lon="2.0463">
        <ele>247</ele>
        <time>2024-04-06T13:30:02Z</time>
      </trkpt>
      <trkpt lat="43.45097" lon="2.04637">
        <ele>247</ele>
        <time>2024-04-06T13:30:05Z</time>
      </trkpt>
      <trkpt lat="43.45106" lon="2.04643">
        <ele>247</ele>
        <time>2024-04-06T13:30:07Z</time>
      </trkpt>
      <trkpt lat="43.45108" lon="2.04645">
        <ele>247</ele>
        <time>2024-04-06T13:30:07Z</time>
      </trkpt>
      <trkpt lat="43.45106" lon="2.04668">
        <ele>247</ele>
        <time>2024-04-06T13:30:10Z</time>
      </trkpt>
      <trkpt lat="43.45106" lon="2.04688">
        <ele>247</ele>
        <time>2024-04-06T13:30:13Z</time>
      </trkpt>
      <trkpt lat="43.45111" lon="2.04701">
        <ele>246</ele>
        <time>2024-04-06T13:30:15Z</time>
      </trkpt>
      <trkpt lat="43.45118" lon="2.04712">
        <ele>246</ele>
        <time>2024-04-06T13:30:17Z</time>
      </trkpt>
      <trkpt lat="43.45127" lon="2.04719">
        <ele>246</ele>
        <time>2024-04-06T13:30:19Z</time>
      </trkpt>
      <trkpt lat="43.45141" lon="2.04732">
        <ele>246</ele>
        <time>2024-04-06T13:30:22Z</time>
      </trkpt>
      <trkpt lat="43.45155" lon="2.04758">
        <ele>245</ele>
        <time>2024-04-06T13:30:26Z</time>
      </trkpt>
      <trkpt lat="43.45183" lon="2.04798">
        <ele>245</ele>
        <time>2024-04-06T13:30:33Z</time>
      </trkpt>
      <trkpt lat="43.45195" lon="2.04832">
        <ele>245</ele>
        <time>2024-04-06T13:30:38Z</time>
      </trkpt>
      <trkpt lat="43.45204" lon="2.0488">
        <ele>245</ele>
        <time>2024-04-06T13:30:44Z</time>
      </trkpt>
      <trkpt lat="43.45202" lon="2.04918">
        <ele>245</ele>
        <time>2024-04-06T13:30:49Z</time>
      </trkpt>
      <trkpt lat="43.45179" lon="2.05052">
        <ele>246</ele>
        <time>2024-04-06T13:31:07Z</time>
      </trkpt>
      <trkpt lat="43.45008" lon="2.05991">
        <ele>263</ele>
        <time>2024-04-06T13:33:12Z</time>
      </trkpt>
      <trkpt lat="43.44995" lon="2.06069">
        <ele>265</ele>
        <time>2024-04-06T13:33:22Z</time>
      </trkpt>
      <trkpt lat="43.44995" lon="2.06105">
        <ele>265</ele>
        <time>2024-04-06T13:33:27Z</time>
      </trkpt>
      <trkpt lat="43.45001" lon="2.06137">
        <ele>266</ele>
        <time>2024-04-06T13:33:31Z</time>
      </trkpt>
      <trkpt lat="43.45012" lon="2.06182">
        <ele>266</ele>
        <time>2024-04-06T13:33:37Z</time>
      </trkpt>
      <trkpt lat="43.45041" lon="2.0628">
        <ele>269</ele>
        <time>2024-04-06T13:33:51Z</time>
      </trkpt>
      <trkpt lat="43.45065" lon="2.06376">
        <ele>270</ele>
        <time>2024-04-06T13:34:04Z</time>
      </trkpt>
      <trkpt lat="43.45058" lon="2.06381">
        <ele>270</ele>
        <time>2024-04-06T13:34:06Z</time>
      </trkpt>
      <trkpt lat="43.45055" lon="2.06386">
        <ele>270</ele>
        <time>2024-04-06T13:34:06Z</time>
      </trkpt>
      <trkpt lat="43.45055" lon="2.06392">
        <ele>270</ele>
        <time>2024-04-06T13:34:07Z</time>
      </trkpt>
      <trkpt lat="43.45057" lon="2.06399">
        <ele>270</ele>
        <time>2024-04-06T13:34:08Z</time>
      </trkpt>
      <trkpt lat="43.4506" lon="2.06403">
        <ele>270</ele>
        <time>2024-04-06T13:34:09Z</time>
      </trkpt>
      <trkpt lat="43.45064" lon="2.06405">
        <ele>271</ele>
        <time>2024-04-06T13:34:10Z</time>
      </trkpt>
      <trkpt lat="43.45069" lon="2.06404">
        <ele>271</ele>
        <time>2024-04-06T13:34:10Z</time>
      </trkpt>
      <trkpt lat="43.45073" lon="2.06399">
        <ele>271</ele>
        <time>2024-04-06T13:34:11Z</time>
      </trkpt>
      <trkpt lat="43.45102" lon="2.06462">
        <ele>272</ele>
        <time>2024-04-06T13:34:21Z</time>
      </trkpt>
      <trkpt lat="43.45126" lon="2.06496">
        <ele>273</ele>
        <time>2024-04-06T13:34:27Z</time>
      </trkpt>
      <trkpt lat="43.45134" lon="2.06504">
        <ele>274</ele>
        <time>2024-04-06T13:34:29Z</time>
      </trkpt>
      <trkpt lat="43.45145" lon="2.06504">
        <ele>274</ele>
        <time>2024-04-06T13:34:31Z</time>
      </trkpt>
      <trkpt lat="43.4518" lon="2.0649">
        <ele>273</ele>
        <time>2024-04-06T13:34:37Z</time>
      </trkpt>
      <trkpt lat="43.45208" lon="2.06492">
        <ele>273</ele>
        <time>2024-04-06T13:34:42Z</time>
      </trkpt>
      <trkpt lat="43.45221" lon="2.065">
        <ele>273</ele>
        <time>2024-04-06T13:34:45Z</time>
      </trkpt>
      <trkpt lat="43.45323" lon="2.06582">
        <ele>275</ele>
        <time>2024-04-06T13:35:06Z</time>
      </trkpt>
      <trkpt lat="43.45343" lon="2.06603">
        <ele>276</ele>
        <time>2024-04-06T13:35:10Z</time>
      </trkpt>
      <trkpt lat="43.45361" lon="2.06629">
        <ele>276</ele>
        <time>2024-04-06T13:35:15Z</time>
      </trkpt>
      <trkpt lat="43.45379" lon="2.06671">
        <ele>276</ele>
        <time>2024-04-06T13:35:21Z</time>
      </trkpt>
      <trkpt lat="43.45392" lon="2.06711">
        <ele>276</ele>
        <time>2024-04-06T13:35:27Z</time>
      </trkpt>
      <trkpt lat="43.45396" lon="2.06726">
        <ele>277</ele>
        <time>2024-04-06T13:35:29Z</time>
      </trkpt>
      <trkpt lat="43.45398" lon="2.06755">
        <ele>277</ele>
        <time>2024-04-06T13:35:33Z</time>
      </trkpt>
      <trkpt lat="43.45396" lon="2.06768">
        <ele>278</ele>
        <time>2024-04-06T13:35:35Z</time>
      </trkpt>
      <trkpt lat="43.45388" lon="2.06797">
        <ele>278</ele>
        <time>2024-04-06T13:35:39Z</time>
      </trkpt>
      <trkpt lat="43.4533" lon="2.06987">
        <ele>284</ele>
        <time>2024-04-06T13:36:05Z</time>
      </trkpt>
      <trkpt lat="43.45326" lon="2.07007">
        <ele>284</ele>
        <time>2024-04-06T13:36:08Z</time>
      </trkpt>
      <trkpt lat="43.45323" lon="2.07031">
        <ele>284</ele>
        <time>2024-04-06T13:36:11Z</time>
      </trkpt>
      <trkpt lat="43.45325" lon="2.07063">
        <ele>284</ele>
        <time>2024-04-06T13:36:15Z</time>
      </trkpt>
      <trkpt lat="43.4533" lon="2.07089">
        <ele>284</ele>
        <time>2024-04-06T13:36:19Z</time>
      </trkpt>
      <trkpt lat="43.45345" lon="2.07121">
        <ele>285</ele>
        <time>2024-04-06T13:36:24Z</time>
      </trkpt>
      <trkpt lat="43.4543" lon="2.07268">
        <ele>289</ele>
        <time>2024-04-06T13:36:48Z</time>
      </trkpt>
      <trkpt lat="43.45558" lon="2.07441">
        <ele>296</ele>
        <time>2024-04-06T13:37:20Z</time>
      </trkpt>
      <trkpt lat="43.45672" lon="2.07586">
        <ele>300</ele>
        <time>2024-04-06T13:37:47Z</time>
      </trkpt>
      <trkpt lat="43.45788" lon="2.07725">
        <ele>301</ele>
        <time>2024-04-06T13:38:15Z</time>
      </trkpt>
      <trkpt lat="43.45807" lon="2.07743">
        <ele>300</ele>
        <time>2024-04-06T13:38:19Z</time>
      </trkpt>
      <trkpt lat="43.46262" lon="2.08008">
        <ele>287</ele>
        <time>2024-04-06T13:39:47Z</time>
      </trkpt>
      <trkpt lat="43.46272" lon="2.08016">
        <ele>287</ele>
        <time>2024-04-06T13:39:49Z</time>
      </trkpt>
      <trkpt lat="43.4629" lon="2.0804">
        <ele>287</ele>
        <time>2024-04-06T13:39:53Z</time>
      </trkpt>
      <trkpt lat="43.46298" lon="2.08053">
        <ele>288</ele>
        <time>2024-04-06T13:39:55Z</time>
      </trkpt>
      <trkpt lat="43.4631" lon="2.08082">
        <ele>288</ele>
        <time>2024-04-06T13:40:00Z</time>
      </trkpt>
      <trkpt lat="43.46321" lon="2.08132">
        <ele>287</ele>
        <time>2024-04-06T13:40:06Z</time>
      </trkpt>
      <trkpt lat="43.46406" lon="2.08587">
        <ele>285</ele>
        <time>2024-04-06T13:41:07Z</time>
      </trkpt>
      <trkpt lat="43.46424" lon="2.08674">
        <ele>282</ele>
        <time>2024-04-06T13:41:19Z</time>
      </trkpt>
      <trkpt lat="43.46581" lon="2.09362">
        <ele>269</ele>
        <time>2024-04-06T13:42:52Z</time>
      </trkpt>
      <trkpt lat="43.46591" lon="2.09395">
        <ele>268</ele>
        <time>2024-04-06T13:42:57Z</time>
      </trkpt>
      <trkpt lat="43.46602" lon="2.09422">
        <ele>268</ele>
        <time>2024-04-06T13:43:01Z</time>
      </trkpt>
      <trkpt lat="43.46766" lon="2.09715">
        <ele>271</ele>
        <time>2024-04-06T13:43:48Z</time>
      </trkpt>
      <trkpt lat="43.46868" lon="2.09891">
        <ele>268</ele>
        <time>2024-04-06T13:44:17Z</time>
      </trkpt>
      <trkpt lat="43.47038" lon="2.10176">
        <ele>262</ele>
        <time>2024-04-06T13:45:05Z</time>
      </trkpt>
      <trkpt lat="43.47164" lon="2.1038">
        <ele>261</ele>
        <time>2024-04-06T13:45:40Z</time>
      </trkpt>
      <trkpt lat="43.47195" lon="2.10415">
        <ele>260</ele>
        <time>2024-04-06T13:45:47Z</time>
      </trkpt>
      <trkpt lat="43.47291" lon="2.10485">
        <ele>261</ele>
        <time>2024-04-06T13:46:06Z</time>
      </trkpt>
      <trkpt lat="43.47308" lon="2.10502">
        <ele>261</ele>
        <time>2024-04-06T13:46:10Z</time>
      </trkpt>
      <trkpt lat="43.47324" lon="2.10525">
        <ele>261</ele>
        <time>2024-04-06T13:46:14Z</time>
      </trkpt>
      <trkpt lat="43.47422" lon="2.10704">
        <ele>255</ele>
        <time>2024-04-06T13:46:43Z</time>
      </trkpt>
      <trkpt lat="43.47438" lon="2.10729">
        <ele>255</ele>
        <time>2024-04-06T13:46:47Z</time>
      </trkpt>
      <trkpt lat="43.47515" lon="2.10821">
        <ele>248</ele>
        <time>2024-04-06T13:47:05Z</time>
      </trkpt>
      <trkpt lat="43.47559" lon="2.10865">
        <ele>243</ele>
        <time>2024-04-06T13:47:15Z</time>
      </trkpt>
      <trkpt lat="43.4758" lon="2.1088">
        <ele>242</ele>
        <time>2024-04-06T13:47:19Z</time>
      </trkpt>
      <trkpt lat="43.47603" lon="2.10893">
        <ele>241</ele>
        <time>2024-04-06T13:47:24Z</time>
      </trkpt>
      <trkpt lat="43.4763" lon="2.10902">
        <ele>240</ele>
        <time>2024-04-06T13:47:29Z</time>
      </trkpt>
      <trkpt lat="43.47663" lon="2.10908">
        <ele>240</ele>
        <time>2024-04-06T13:47:35Z</time>
      </trkpt>
      <trkpt lat="43.47816" lon="2.10922">
        <ele>244</ele>
        <time>2024-04-06T13:48:02Z</time>
      </trkpt>
      <trkpt lat="43.4784" lon="2.10928">
        <ele>245</ele>
        <time>2024-04-06T13:48:06Z</time>
      </trkpt>
      <trkpt lat="43.47863" lon="2.10938">
        <ele>245</ele>
        <time>2024-04-06T13:48:10Z</time>
      </trkpt>
      <trkpt lat="43.47885" lon="2.10951">
        <ele>246</ele>
        <time>2024-04-06T13:48:15Z</time>
      </trkpt>
      <trkpt lat="43.47902" lon="2.10967">
        <ele>247</ele>
        <time>2024-04-06T13:48:18Z</time>
      </trkpt>
      <trkpt lat="43.47932" lon="2.11003">
        <ele>246</ele>
        <time>2024-04-06T13:48:25Z</time>
      </trkpt>
      <trkpt lat="43.48102" lon="2.11294">
        <ele>248</ele>
        <time>2024-04-06T13:49:14Z</time>
      </trkpt>
      <trkpt lat="43.48121" lon="2.11339">
        <ele>251</ele>
        <time>2024-04-06T13:49:20Z</time>
      </trkpt>
      <trkpt lat="43.48129" lon="2.11369">
        <ele>253</ele>
        <time>2024-04-06T13:49:25Z</time>
      </trkpt>
      <trkpt lat="43.48135" lon="2.11407">
        <ele>257</ele>
        <time>2024-04-06T13:49:30Z</time>
      </trkpt>
      <trkpt lat="43.4816" lon="2.1166">
        <ele>258</ele>
        <time>2024-04-06T13:50:03Z</time>
      </trkpt>
      <trkpt lat="43.4816" lon="2.11703">
        <ele>255</ele>
        <time>2024-04-06T13:50:08Z</time>
      </trkpt>
      <trkpt lat="43.48155" lon="2.11743">
        <ele>254</ele>
        <time>2024-04-06T13:50:13Z</time>
      </trkpt>
      <trkpt lat="43.48131" lon="2.11878">
        <ele>251</ele>
        <time>2024-04-06T13:50:31Z</time>
      </trkpt>
      <trkpt lat="43.48119" lon="2.11971">
        <ele>249</ele>
        <time>2024-04-06T13:50:43Z</time>
      </trkpt>
      <trkpt lat="43.48116" lon="2.12027">
        <ele>248</ele>
        <time>2024-04-06T13:50:51Z</time>
      </trkpt>
      <trkpt lat="43.4812" lon="2.1214">
        <ele>247</ele>
        <time>2024-04-06T13:51:05Z</time>
      </trkpt>
      <trkpt lat="43.48126" lon="2.12199">
        <ele>247</ele>
        <time>2024-04-06T13:51:13Z</time>
      </trkpt>
      <trkpt lat="43.48134" lon="2.12251">
        <ele>249</ele>
        <time>2024-04-06T13:51:20Z</time>
      </trkpt>
      <trkpt lat="43.48151" lon="2.12325">
        <ele>248</ele>
        <time>2024-04-06T13:51:30Z</time>
      </trkpt>
      <trkpt lat="43.48495" lon="2.13548">
        <ele>263</ele>
        <time>2024-04-06T13:54:19Z</time>
      </trkpt>
      <trkpt lat="43.48504" lon="2.1357">
        <ele>264</ele>
        <time>2024-04-06T13:54:22Z</time>
      </trkpt>
      <trkpt lat="43.48515" lon="2.13592">
        <ele>263</ele>
        <time>2024-04-06T13:54:26Z</time>
      </trkpt>
      <trkpt lat="43.48704" lon="2.13873">
        <ele>248</ele>
        <time>2024-04-06T13:55:15Z</time>
      </trkpt>
      <trkpt lat="43.48709" lon="2.13881">
        <ele>248</ele>
        <time>2024-04-06T13:55:17Z</time>
      </trkpt>
      <trkpt lat="43.48858" lon="2.14103">
        <ele>242</ele>
        <time>2024-04-06T13:55:56Z</time>
      </trkpt>
      <trkpt lat="43.48912" lon="2.14181">
        <ele>241</ele>
        <time>2024-04-06T13:56:10Z</time>
      </trkpt>
      <trkpt lat="43.49244" lon="2.14672">
        <ele>235</ele>
        <time>2024-04-06T13:57:36Z</time>
      </trkpt>
      <trkpt lat="43.49237" lon="2.14681">
        <ele>236</ele>
        <time>2024-04-06T13:57:38Z</time>
      </trkpt>
      <trkpt lat="43.49258" lon="2.14718">
        <ele>236</ele>
        <time>2024-04-06T13:57:44Z</time>
      </trkpt>
      <trkpt lat="43.4928" lon="2.14749">
        <ele>236</ele>
        <time>2024-04-06T13:57:50Z</time>
      </trkpt>
      <trkpt lat="43.49258" lon="2.14718">
        <ele>236</ele>
        <time>2024-04-06T13:57:55Z</time>
      </trkpt>
      <trkpt lat="43.49237" lon="2.14681">
        <ele>236</ele>
        <time>2024-04-06T13:58:01Z</time>
      </trkpt>
      <trkpt lat="43.49244" lon="2.14672">
        <ele>235</ele>
        <time>2024-04-06T13:58:03Z</time>
      </trkpt>
      <trkpt lat="43.49321" lon="2.14788">
        <ele>234</ele>
        <time>2024-04-06T13:58:23Z</time>
      </trkpt>
      <trkpt lat="43.49533" lon="2.15099">
        <ele>237</ele>
        <time>2024-04-06T13:59:18Z</time>
      </trkpt>
      <trkpt lat="43.49616" lon="2.15224">
        <ele>245</ele>
        <time>2024-04-06T13:59:40Z</time>
      </trkpt>
      <trkpt lat="43.49636" lon="2.15243">
        <ele>246</ele>
        <time>2024-04-06T13:59:45Z</time>
      </trkpt>
      <trkpt lat="43.49658" lon="2.15261">
        <ele>247</ele>
        <time>2024-04-06T13:59:49Z</time>
      </trkpt>
      <trkpt lat="43.49681" lon="2.15274">
        <ele>248</ele>
        <time>2024-04-06T13:59:54Z</time>
      </trkpt>
      <trkpt lat="43.49719" lon="2.15285">
        <ele>250</ele>
        <time>2024-04-06T14:00:01Z</time>
      </trkpt>
      <trkpt lat="43.49747" lon="2.15285">
        <ele>252</ele>
        <time>2024-04-06T14:00:06Z</time>
      </trkpt>
      <trkpt lat="43.49775" lon="2.1528">
        <ele>253</ele>
        <time>2024-04-06T14:00:11Z</time>
      </trkpt>
      <trkpt lat="43.49805" lon="2.15265">
        <ele>253</ele>
        <time>2024-04-06T14:00:16Z</time>
      </trkpt>
      <trkpt lat="43.499" lon="2.15205">
        <ele>257</ele>
        <time>2024-04-06T14:00:35Z</time>
      </trkpt>
      <trkpt lat="43.50009" lon="2.1514">
        <ele>258</ele>
        <time>2024-04-06T14:00:56Z</time>
      </trkpt>
      <trkpt lat="43.50029" lon="2.15132">
        <ele>258</ele>
        <time>2024-04-06T14:01:00Z</time>
      </trkpt>
      <trkpt lat="43.50043" lon="2.15133">
        <ele>258</ele>
        <time>2024-04-06T14:01:02Z</time>
      </trkpt>
      <trkpt lat="43.50043" lon="2.15142">
        <ele>259</ele>
        <time>2024-04-06T14:01:03Z</time>
      </trkpt>
      <trkpt lat="43.50045" lon="2.15149">
        <ele>259</ele>
        <time>2024-04-06T14:01:04Z</time>
      </trkpt>
      <trkpt lat="43.5005" lon="2.15158">
        <ele>259</ele>
        <time>2024-04-06T14:01:06Z</time>
      </trkpt>
      <trkpt lat="43.50058" lon="2.15163">
        <ele>259</ele>
        <time>2024-04-06T14:01:07Z</time>
      </trkpt>
      <trkpt lat="43.50067" lon="2.15163">
        <ele>259</ele>
        <time>2024-04-06T14:01:09Z</time>
      </trkpt>
      <trkpt lat="43.50074" lon="2.15158">
        <ele>259</ele>
        <time>2024-04-06T14:01:10Z</time>
      </trkpt>
      <trkpt lat="43.5008" lon="2.15147">
        <ele>259</ele>
        <time>2024-04-06T14:01:12Z</time>
      </trkpt>
      <trkpt lat="43.501" lon="2.15159">
        <ele>259</ele>
        <time>2024-04-06T14:01:16Z</time>
      </trkpt>
      <trkpt lat="43.50232" lon="2.15263">
        <ele>257</ele>
        <time>2024-04-06T14:01:43Z</time>
      </trkpt>
      <trkpt lat="43.50423" lon="2.15419">
        <ele>253</ele>
        <time>2024-04-06T14:02:23Z</time>
      </trkpt>
      <trkpt lat="43.50583" lon="2.1554">
        <ele>251</ele>
        <time>2024-04-06T14:02:55Z</time>
      </trkpt>
      <trkpt lat="43.50946" lon="2.15827">
        <ele>240</ele>
        <time>2024-04-06T14:04:09Z</time>
      </trkpt>
      <trkpt lat="43.51033" lon="2.15899">
        <ele>240</ele>
        <time>2024-04-06T14:04:28Z</time>
      </trkpt>
      <trkpt lat="43.51055" lon="2.15927">
        <ele>239</ele>
        <time>2024-04-06T14:04:33Z</time>
      </trkpt>
      <trkpt lat="43.51082" lon="2.15984">
        <ele>239</ele>
        <time>2024-04-06T14:04:42Z</time>
      </trkpt>
      <trkpt lat="43.51097" lon="2.16022">
        <ele>239</ele>
        <time>2024-04-06T14:04:47Z</time>
      </trkpt>
      <trkpt lat="43.51189" lon="2.16325">
        <ele>237</ele>
        <time>2024-04-06T14:05:30Z</time>
      </trkpt>
      <trkpt lat="43.51186" lon="2.16333">
        <ele>237</ele>
        <time>2024-04-06T14:05:31Z</time>
      </trkpt>
      <trkpt lat="43.51186" lon="2.16339">
        <ele>236</ele>
        <time>2024-04-06T14:05:32Z</time>
      </trkpt>
      <trkpt lat="43.51189" lon="2.16344">
        <ele>236</ele>
        <time>2024-04-06T14:05:32Z</time>
      </trkpt>
      <trkpt lat="43.51196" lon="2.16345">
        <ele>236</ele>
        <time>2024-04-06T14:05:34Z</time>
      </trkpt>
      <trkpt lat="43.51201" lon="2.16366">
        <ele>236</ele>
        <time>2024-04-06T14:05:36Z</time>
      </trkpt>
      <trkpt lat="43.51347" lon="2.16845">
        <ele>230</ele>
        <time>2024-04-06T14:06:44Z</time>
      </trkpt>
      <trkpt lat="43.51349" lon="2.16853">
        <ele>230</ele>
        <time>2024-04-06T14:06:45Z</time>
      </trkpt>
      <trkpt lat="43.5149" lon="2.17318">
        <ele>235</ele>
        <time>2024-04-06T14:07:50Z</time>
      </trkpt>
      <trkpt lat="43.5153" lon="2.17443">
        <ele>237</ele>
        <time>2024-04-06T14:08:07Z</time>
      </trkpt>
      <trkpt lat="43.51806" lon="2.18233">
        <ele>218</ele>
        <time>2024-04-06T14:10:00Z</time>
      </trkpt>
      <trkpt lat="43.51808" lon="2.18237">
        <ele>218</ele>
        <time>2024-04-06T14:10:01Z</time>
      </trkpt>
      <trkpt lat="43.51839" lon="2.18316">
        <ele>224</ele>
        <time>2024-04-06T14:10:13Z</time>
      </trkpt>
      <trkpt lat="43.51857" lon="2.18353">
        <ele>228</ele>
        <time>2024-04-06T14:10:18Z</time>
      </trkpt>
      <trkpt lat="43.51866" lon="2.18367">
        <ele>229</ele>
        <time>2024-04-06T14:10:21Z</time>
      </trkpt>
      <trkpt lat="43.51907" lon="2.18419">
        <ele>231</ele>
        <time>2024-04-06T14:10:31Z</time>
      </trkpt>
      <trkpt lat="43.52309" lon="2.18859">
        <ele>218</ele>
        <time>2024-04-06T14:12:02Z</time>
      </trkpt>
      <trkpt lat="43.52339" lon="2.18888">
        <ele>220</ele>
        <time>2024-04-06T14:12:09Z</time>
      </trkpt>
      <trkpt lat="43.52388" lon="2.18925">
        <ele>219</ele>
        <time>2024-04-06T14:12:18Z</time>
      </trkpt>
      <trkpt lat="43.52665" lon="2.19116">
        <ele>233</ele>
        <time>2024-04-06T14:13:14Z</time>
      </trkpt>
      <trkpt lat="43.52698" lon="2.19144">
        <ele>234</ele>
        <time>2024-04-06T14:13:20Z</time>
      </trkpt>
      <trkpt lat="43.52728" lon="2.19178">
        <ele>234</ele>
        <time>2024-04-06T14:13:27Z</time>
      </trkpt>
      <trkpt lat="43.52766" lon="2.19228">
        <ele>234</ele>
        <time>2024-04-06T14:13:37Z</time>
      </trkpt>
      <trkpt lat="43.52806" lon="2.19288">
        <ele>234</ele>
        <time>2024-04-06T14:13:47Z</time>
      </trkpt>
      <trkpt lat="43.52839" lon="2.19351">
        <ele>234</ele>
        <time>2024-04-06T14:13:57Z</time>
      </trkpt>
      <trkpt lat="43.52866" lon="2.19413">
        <ele>236</ele>
        <time>2024-04-06T14:14:07Z</time>
      </trkpt>
      <trkpt lat="43.52881" lon="2.19455">
        <ele>239</ele>
        <time>2024-04-06T14:14:13Z</time>
      </trkpt>
      <trkpt lat="43.52896" lon="2.19504">
        <ele>243</ele>
        <time>2024-04-06T14:14:20Z</time>
      </trkpt>
      <trkpt lat="43.52917" lon="2.19597">
        <ele>248</ele>
        <time>2024-04-06T14:14:32Z</time>
      </trkpt>
      <trkpt lat="43.52924" lon="2.19619">
        <ele>249</ele>
        <time>2024-04-06T14:14:35Z</time>
      </trkpt>
      <trkpt lat="43.52932" lon="2.19638">
        <ele>251</ele>
        <time>2024-04-06T14:14:38Z</time>
      </trkpt>
      <trkpt lat="43.52956" lon="2.19684">
        <ele>254</ele>
        <time>2024-04-06T14:14:45Z</time>
      </trkpt>
      <trkpt lat="43.53137" lon="2.19994">
        <ele>258</ele>
        <time>2024-04-06T14:15:37Z</time>
      </trkpt>
      <trkpt lat="43.53162" lon="2.2004">
        <ele>258</ele>
        <time>2024-04-06T14:15:44Z</time>
      </trkpt>
      <trkpt lat="43.53204" lon="2.20128">
        <ele>254</ele>
        <time>2024-04-06T14:15:58Z</time>
      </trkpt>
      <trkpt lat="43.53279" lon="2.20315">
        <ele>248</ele>
        <time>2024-04-06T14:16:25Z</time>
      </trkpt>
      <trkpt lat="43.53301" lon="2.20383">
        <ele>247</ele>
        <time>2024-04-06T14:16:35Z</time>
      </trkpt>
      <trkpt lat="43.53296" lon="2.20388">
        <ele>247</ele>
        <time>2024-04-06T14:16:36Z</time>
      </trkpt>
      <trkpt lat="43.53294" lon="2.204">
        <ele>247</ele>
        <time>2024-04-06T14:16:38Z</time>
      </trkpt>
      <trkpt lat="43.53296" lon="2.20407">
        <ele>247</ele>
        <time>2024-04-06T14:16:39Z</time>
      </trkpt>
      <trkpt lat="43.533" lon="2.20412">
        <ele>247</ele>
        <time>2024-04-06T14:16:39Z</time>
      </trkpt>
      <trkpt lat="43.53306" lon="2.20414">
        <ele>247</ele>
        <time>2024-04-06T14:16:41Z</time>
      </trkpt>
      <trkpt lat="43.53314" lon="2.20409">
        <ele>247</ele>
        <time>2024-04-06T14:16:42Z</time>
      </trkpt>
      <trkpt lat="43.53343" lon="2.20443">
        <ele>245</ele>
        <time>2024-04-06T14:16:49Z</time>
      </trkpt>
      <trkpt lat="43.5337" lon="2.2048">
        <ele>244</ele>
        <time>2024-04-06T14:16:56Z</time>
      </trkpt>
      <trkpt lat="43.53357" lon="2.20505">
        <ele>244</ele>
        <time>2024-04-06T14:17:00Z</time>
      </trkpt>
      <trkpt lat="43.53332" lon="2.20578">
        <ele>242</ele>
        <time>2024-04-06T14:17:10Z</time>
      </trkpt>
      <trkpt lat="43.5328" lon="2.20716">
        <ele>245</ele>
        <time>2024-04-06T14:17:30Z</time>
      </trkpt>
      <trkpt lat="43.53255" lon="2.20792">
        <ele>245</ele>
        <time>2024-04-06T14:17:41Z</time>
      </trkpt>
      <trkpt lat="43.53248" lon="2.20836">
        <ele>245</ele>
        <time>2024-04-06T14:17:47Z</time>
      </trkpt>
      <trkpt lat="43.53237" lon="2.20879">
        <ele>246</ele>
        <time>2024-04-06T14:17:53Z</time>
      </trkpt>
      <trkpt lat="43.532" lon="2.20979">
        <ele>247</ele>
        <time>2024-04-06T14:18:07Z</time>
      </trkpt>
      <trkpt lat="43.53196" lon="2.20999">
        <ele>246</ele>
        <time>2024-04-06T14:18:10Z</time>
      </trkpt>
      <trkpt lat="43.53235" lon="2.21022">
        <ele>247</ele>
        <time>2024-04-06T14:18:17Z</time>
      </trkpt>
      <trkpt lat="43.53314" lon="2.211">
        <ele>248</ele>
        <time>2024-04-06T14:18:35Z</time>
      </trkpt>
      <trkpt lat="43.53367" lon="2.21159">
        <ele>248</ele>
        <time>2024-04-06T14:18:47Z</time>
      </trkpt>
      <trkpt lat="43.53401" lon="2.21191">
        <ele>247</ele>
        <time>2024-04-06T14:18:54Z</time>
      </trkpt>
      <trkpt lat="43.5345" lon="2.21227">
        <ele>246</ele>
        <time>2024-04-06T14:19:04Z</time>
      </trkpt>
      <trkpt lat="43.53485" lon="2.21247">
        <ele>247</ele>
        <time>2024-04-06T14:19:11Z</time>
      </trkpt>
      <trkpt lat="43.53487" lon="2.2126">
        <ele>246</ele>
        <time>2024-04-06T14:19:12Z</time>
      </trkpt>
      <trkpt lat="43.5349" lon="2.21269">
        <ele>246</ele>
        <time>2024-04-06T14:19:14Z</time>
      </trkpt>
      <trkpt lat="43.53502" lon="2.21295">
        <ele>246</ele>
        <time>2024-04-06T14:19:18Z</time>
      </trkpt>
      <trkpt lat="43.53535" lon="2.2135">
        <ele>245</ele>
        <time>2024-04-06T14:19:27Z</time>
      </trkpt>
      <trkpt lat="43.53552" lon="2.21375">
        <ele>243</ele>
        <time>2024-04-06T14:19:31Z</time>
      </trkpt>
      <trkpt lat="43.53566" lon="2.21388">
        <ele>242</ele>
        <time>2024-04-06T14:19:34Z</time>
      </trkpt>
      <trkpt lat="43.53584" lon="2.21399">
        <ele>242</ele>
        <time>2024-04-06T14:19:38Z</time>
      </trkpt>
      <trkpt lat="43.53635" lon="2.21417">
        <ele>240</ele>
        <time>2024-04-06T14:19:47Z</time>
      </trkpt>
      <trkpt lat="43.53645" lon="2.21423">
        <ele>239</ele>
        <time>2024-04-06T14:19:49Z</time>
      </trkpt>
      <trkpt lat="43.53656" lon="2.21441">
        <ele>237</ele>
        <time>2024-04-06T14:19:52Z</time>
      </trkpt>
      <trkpt lat="43.53668" lon="2.21472">
        <ele>234</ele>
        <time>2024-04-06T14:19:57Z</time>
      </trkpt>
      <trkpt lat="43.53677" lon="2.21481">
        <ele>233</ele>
        <time>2024-04-06T14:19:59Z</time>
      </trkpt>
      <trkpt lat="43.53715" lon="2.21493">
        <ele>231</ele>
        <time>2024-04-06T14:20:06Z</time>
      </trkpt>
      <trkpt lat="43.53774" lon="2.21508">
        <ele>229</ele>
        <time>2024-04-06T14:20:16Z</time>
      </trkpt>
      <trkpt lat="43.53797" lon="2.21517">
        <ele>227</ele>
        <time>2024-04-06T14:20:20Z</time>
      </trkpt>
      <trkpt lat="43.53867" lon="2.21538">
        <ele>223</ele>
        <time>2024-04-06T14:20:33Z</time>
      </trkpt>
      <trkpt lat="43.53916" lon="2.21551">
        <ele>221</ele>
        <time>2024-04-06T14:20:42Z</time>
      </trkpt>
      <trkpt lat="43.54049" lon="2.21574">
        <ele>204</ele>
        <time>2024-04-06T14:21:06Z</time>
      </trkpt>
      <trkpt lat="43.54059" lon="2.21577">
        <ele>202</ele>
        <time>2024-04-06T14:21:08Z</time>
      </trkpt>
      <trkpt lat="43.54055" lon="2.21593">
        <ele>201</ele>
        <time>2024-04-06T14:21:10Z</time>
      </trkpt>
      <trkpt lat="43.54045" lon="2.21616">
        <ele>201</ele>
        <time>2024-04-06T14:21:13Z</time>
      </trkpt>
      <trkpt lat="43.54015" lon="2.21675">
        <ele>198</ele>
        <time>2024-04-06T14:21:23Z</time>
      </trkpt>
      <trkpt lat="43.54001" lon="2.21696">
        <ele>197</ele>
        <time>2024-04-06T14:21:26Z</time>
      </trkpt>
      <trkpt lat="43.53961" lon="2.21749">
        <ele>194</ele>
        <time>2024-04-06T14:21:36Z</time>
      </trkpt>
      <trkpt lat="43.53943" lon="2.21779">
        <ele>194</ele>
        <time>2024-04-06T14:21:41Z</time>
      </trkpt>
      <trkpt lat="43.53931" lon="2.21817">
        <ele>192</ele>
        <time>2024-04-06T14:21:47Z</time>
      </trkpt>
      <trkpt lat="43.53923" lon="2.21858">
        <ele>192</ele>
        <time>2024-04-06T14:21:52Z</time>
      </trkpt>
      <trkpt lat="43.53916" lon="2.21899">
        <ele>194</ele>
        <time>2024-04-06T14:21:58Z</time>
      </trkpt>
      <trkpt lat="43.53916" lon="2.21914">
        <ele>195</ele>
        <time>2024-04-06T14:21:59Z</time>
      </trkpt>
      <trkpt lat="43.53924" lon="2.2195">
        <ele>196</ele>
        <time>2024-04-06T14:22:04Z</time>
      </trkpt>
      <trkpt lat="43.53951" lon="2.2199">
        <ele>195</ele>
        <time>2024-04-06T14:22:11Z</time>
      </trkpt>
      <trkpt lat="43.53971" lon="2.22048">
        <ele>195</ele>
        <time>2024-04-06T14:22:20Z</time>
      </trkpt>
      <trkpt lat="43.53991" lon="2.22121">
        <ele>194</ele>
        <time>2024-04-06T14:22:30Z</time>
      </trkpt>
      <trkpt lat="43.53992" lon="2.22149">
        <ele>193</ele>
        <time>2024-04-06T14:22:33Z</time>
      </trkpt>
      <trkpt lat="43.53981" lon="2.2219">
        <ele>195</ele>
        <time>2024-04-06T14:22:39Z</time>
      </trkpt>
      <trkpt lat="43.53976" lon="2.22218">
        <ele>196</ele>
        <time>2024-04-06T14:22:43Z</time>
      </trkpt>
      <trkpt lat="43.53987" lon="2.22249">
        <ele>195</ele>
        <time>2024-04-06T14:22:47Z</time>
      </trkpt>
      <trkpt lat="43.54039" lon="2.22355">
        <ele>191</ele>
        <time>2024-04-06T14:23:04Z</time>
      </trkpt>
      <trkpt lat="43.54061" lon="2.22548">
        <ele>191</ele>
        <time>2024-04-06T14:23:29Z</time>
      </trkpt>
      <trkpt lat="43.54072" lon="2.22576">
        <ele>191</ele>
        <time>2024-04-06T14:23:33Z</time>
      </trkpt>
      <trkpt lat="43.54118" lon="2.22629">
        <ele>188</ele>
        <time>2024-04-06T14:23:44Z</time>
      </trkpt>
      <trkpt lat="43.54145" lon="2.22661">
        <ele>186</ele>
        <time>2024-04-06T14:23:50Z</time>
      </trkpt>
      <trkpt lat="43.5415" lon="2.22679">
        <ele>186</ele>
        <time>2024-04-06T14:23:52Z</time>
      </trkpt>
      <trkpt lat="43.54141" lon="2.2293">
        <ele>191</ele>
        <time>2024-04-06T14:24:25Z</time>
      </trkpt>
      <trkpt lat="43.54144" lon="2.23031">
        <ele>192</ele>
        <time>2024-04-06T14:24:38Z</time>
      </trkpt>
      <trkpt lat="43.54124" lon="2.23211">
        <ele>194</ele>
        <time>2024-04-06T14:25:01Z</time>
      </trkpt>
      <trkpt lat="43.54103" lon="2.23276">
        <ele>195</ele>
        <time>2024-04-06T14:25:11Z</time>
      </trkpt>
      <trkpt lat="43.54086" lon="2.23366">
        <ele>196</ele>
        <time>2024-04-06T14:25:23Z</time>
      </trkpt>
      <trkpt lat="43.54056" lon="2.23609">
        <ele>195</ele>
        <time>2024-04-06T14:25:54Z</time>
      </trkpt>
      <trkpt lat="43.54042" lon="2.2366">
        <ele>196</ele>
        <time>2024-04-06T14:26:01Z</time>
      </trkpt>
      <trkpt lat="43.54016" lon="2.23729">
        <ele>197</ele>
        <time>2024-04-06T14:26:11Z</time>
      </trkpt>
      <trkpt lat="43.54" lon="2.23807">
        <ele>199</ele>
        <time>2024-04-06T14:26:22Z</time>
      </trkpt>
      <trkpt lat="43.53985" lon="2.23945">
        <ele>201</ele>
        <time>2024-04-06T14:26:40Z</time>
      </trkpt>
      <trkpt lat="43.53978" lon="2.2399">
        <ele>201</ele>
        <time>2024-04-06T14:26:46Z</time>
      </trkpt>
      <trkpt lat="43.53933" lon="2.24139">
        <ele>201</ele>
        <time>2024-04-06T14:27:07Z</time>
      </trkpt>
      <trkpt lat="43.53902" lon="2.2418">
        <ele>201</ele>
        <time>2024-04-06T14:27:14Z</time>
      </trkpt>
      <trkpt lat="43.53883" lon="2.24213">
        <ele>200</ele>
        <time>2024-04-06T14:27:20Z</time>
      </trkpt>
      <trkpt lat="43.5388" lon="2.2422">
        <ele>200</ele>
        <time>2024-04-06T14:27:21Z</time>
      </trkpt>
      <trkpt lat="43.53877" lon="2.24228">
        <ele>200</ele>
        <time>2024-04-06T14:27:22Z</time>
      </trkpt>
      <trkpt lat="43.53851" lon="2.24327">
        <ele>196</ele>
        <time>2024-04-06T14:27:35Z</time>
      </trkpt>
      <trkpt lat="43.53828" lon="2.24592">
        <ele>195</ele>
        <time>2024-04-06T14:28:10Z</time>
      </trkpt>
      <trkpt lat="43.53818" lon="2.24654">
        <ele>196</ele>
        <time>2024-04-06T14:28:18Z</time>
      </trkpt>
      <trkpt lat="43.5379" lon="2.24708">
        <ele>197</ele>
        <time>2024-04-06T14:28:27Z</time>
      </trkpt>
      <trkpt lat="43.53721" lon="2.24923">
        <ele>198</ele>
        <time>2024-04-06T14:28:57Z</time>
      </trkpt>
      <trkpt lat="43.53688" lon="2.25033">
        <ele>201</ele>
        <time>2024-04-06T14:29:12Z</time>
      </trkpt>
      <trkpt lat="43.53654" lon="2.25012">
        <ele>203</ele>
        <time>2024-04-06T14:29:19Z</time>
      </trkpt>
      <trkpt lat="43.53608" lon="2.24986">
        <ele>204</ele>
        <time>2024-04-06T14:29:28Z</time>
      </trkpt>
      <trkpt lat="43.53523" lon="2.2492">
        <ele>206</ele>
        <time>2024-04-06T14:29:45Z</time>
      </trkpt>
      <trkpt lat="43.53511" lon="2.2492">
        <ele>206</ele>
        <time>2024-04-06T14:29:47Z</time>
      </trkpt>
      <trkpt lat="43.5352" lon="2.25015">
        <ele>205</ele>
        <time>2024-04-06T14:30:00Z</time>
      </trkpt>
      <trkpt lat="43.53514" lon="2.25107">
        <ele>204</ele>
        <time>2024-04-06T14:30:12Z</time>
      </trkpt>
      <trkpt lat="43.53522" lon="2.25431">
        <ele>201</ele>
        <time>2024-04-06T14:30:53Z</time>
      </trkpt>
      <trkpt lat="43.53521" lon="2.25441">
        <ele>201</ele>
        <time>2024-04-06T14:30:55Z</time>
      </trkpt>
      <trkpt lat="43.53522" lon="2.25449">
        <ele>200</ele>
        <time>2024-04-06T14:30:56Z</time>
      </trkpt>
      <trkpt lat="43.53522" lon="2.2547">
        <ele>199</ele>
        <time>2024-04-06T14:30:58Z</time>
      </trkpt>
      <trkpt lat="43.53528" lon="2.25498">
        <ele>197</ele>
        <time>2024-04-06T14:31:02Z</time>
      </trkpt>
      <trkpt lat="43.53586" lon="2.2562">
        <ele>195</ele>
        <time>2024-04-06T14:31:21Z</time>
      </trkpt>
      <trkpt lat="43.53646" lon="2.25738">
        <ele>193</ele>
        <time>2024-04-06T14:31:40Z</time>
      </trkpt>
      <trkpt lat="43.53652" lon="2.25751">
        <ele>193</ele>
        <time>2024-04-06T14:31:42Z</time>
      </trkpt>
      <trkpt lat="43.53735" lon="2.25916">
        <ele>191</ele>
        <time>2024-04-06T14:32:08Z</time>
      </trkpt>
      <trkpt lat="43.5373" lon="2.2592">
        <ele>192</ele>
        <time>2024-04-06T14:32:09Z</time>
      </trkpt>
      <trkpt lat="43.53719" lon="2.25948">
        <ele>192</ele>
        <time>2024-04-06T14:32:13Z</time>
      </trkpt>
      <trkpt lat="43.53705" lon="2.2601">
        <ele>194</ele>
        <time>2024-04-06T14:32:21Z</time>
      </trkpt>
      <trkpt lat="43.53681" lon="2.26078">
        <ele>194</ele>
        <time>2024-04-06T14:32:31Z</time>
      </trkpt>
      <trkpt lat="43.53661" lon="2.26158">
        <ele>192</ele>
        <time>2024-04-06T14:32:42Z</time>
      </trkpt>
      <trkpt lat="43.53645" lon="2.26203">
        <ele>193</ele>
        <time>2024-04-06T14:32:48Z</time>
      </trkpt>
      <trkpt lat="43.53619" lon="2.26248">
        <ele>194</ele>
        <time>2024-04-06T14:32:56Z</time>
      </trkpt>
      <trkpt lat="43.53624" lon="2.26255">
        <ele>194</ele>
        <time>2024-04-06T14:32:57Z</time>
      </trkpt>
      <trkpt lat="43.53626" lon="2.26287">
        <ele>193</ele>
        <time>2024-04-06T14:33:01Z</time>
      </trkpt>
      <trkpt lat="43.53628" lon="2.26293">
        <ele>193</ele>
        <time>2024-04-06T14:33:02Z</time>
      </trkpt>
      <trkpt lat="43.53626" lon="2.26302">
        <ele>193</ele>
        <time>2024-04-06T14:33:03Z</time>
      </trkpt>
      <trkpt lat="43.53649" lon="2.26313">
        <ele>192</ele>
        <time>2024-04-06T14:33:07Z</time>
      </trkpt>
      <trkpt lat="43.53655" lon="2.26322">
        <ele>192</ele>
        <time>2024-04-06T14:33:09Z</time>
      </trkpt>
      <trkpt lat="43.53657" lon="2.26336">
        <ele>191</ele>
        <time>2024-04-06T14:33:11Z</time>
      </trkpt>
      <trkpt lat="43.53645" lon="2.26365">
        <ele>191</ele>
        <time>2024-04-06T14:33:15Z</time>
      </trkpt>
      <trkpt lat="43.53583" lon="2.26577">
        <ele>192</ele>
        <time>2024-04-06T14:33:45Z</time>
      </trkpt>
      <trkpt lat="43.53584" lon="2.26593">
        <ele>192</ele>
        <time>2024-04-06T14:33:47Z</time>
      </trkpt>
      <trkpt lat="43.53583" lon="2.26605">
        <ele>192</ele>
        <time>2024-04-06T14:33:48Z</time>
      </trkpt>
      <trkpt lat="43.53593" lon="2.26617">
        <ele>192</ele>
        <time>2024-04-06T14:33:51Z</time>
      </trkpt>
      <trkpt lat="43.53576" lon="2.26646">
        <ele>192</ele>
        <time>2024-04-06T14:33:55Z</time>
      </trkpt>
      <trkpt lat="43.53562" lon="2.26677">
        <ele>193</ele>
        <time>2024-04-06T14:34:00Z</time>
      </trkpt>
      <trkpt lat="43.53545" lon="2.26725">
        <ele>194</ele>
        <time>2024-04-06T14:34:07Z</time>
      </trkpt>
      <trkpt lat="43.53525" lon="2.26812">
        <ele>195</ele>
        <time>2024-04-06T14:34:19Z</time>
      </trkpt>
      <trkpt lat="43.53496" lon="2.2696">
        <ele>196</ele>
        <time>2024-04-06T14:34:39Z</time>
      </trkpt>
      <trkpt lat="43.53494" lon="2.26973">
        <ele>196</ele>
        <time>2024-04-06T14:34:40Z</time>
      </trkpt>
      <trkpt lat="43.53501" lon="2.2699">
        <ele>195</ele>
        <time>2024-04-06T14:34:43Z</time>
      </trkpt>
      <trkpt lat="43.53498" lon="2.27002">
        <ele>195</ele>
        <time>2024-04-06T14:34:44Z</time>
      </trkpt>
      <trkpt lat="43.53488" lon="2.27007">
        <ele>195</ele>
        <time>2024-04-06T14:34:46Z</time>
      </trkpt>
      <trkpt lat="43.53485" lon="2.2702">
        <ele>195</ele>
        <time>2024-04-06T14:34:48Z</time>
      </trkpt>
      <trkpt lat="43.53475" lon="2.27074">
        <ele>194</ele>
        <time>2024-04-06T14:34:55Z</time>
      </trkpt>
      <trkpt lat="43.53411" lon="2.27384">
        <ele>193</ele>
        <time>2024-04-06T14:35:37Z</time>
      </trkpt>
      <trkpt lat="43.53412" lon="2.27392">
        <ele>193</ele>
        <time>2024-04-06T14:35:38Z</time>
      </trkpt>
      <trkpt lat="43.53423" lon="2.27407">
        <ele>192</ele>
        <time>2024-04-06T14:35:41Z</time>
      </trkpt>
      <trkpt lat="43.53424" lon="2.27416">
        <ele>192</ele>
        <time>2024-04-06T14:35:42Z</time>
      </trkpt>
      <trkpt lat="43.53423" lon="2.27433">
        <ele>192</ele>
        <time>2024-04-06T14:35:44Z</time>
      </trkpt>
      <trkpt lat="43.53429" lon="2.27454">
        <ele>191</ele>
        <time>2024-04-06T14:35:47Z</time>
      </trkpt>
      <trkpt lat="43.534" lon="2.27445">
        <ele>192</ele>
        <time>2024-04-06T14:35:52Z</time>
      </trkpt>
      <trkpt lat="43.534" lon="2.27441">
        <ele>192</ele>
        <time>2024-04-06T14:35:53Z</time>
      </trkpt>
      <trkpt lat="43.53397" lon="2.27437">
        <ele>192</ele>
        <time>2024-04-06T14:35:53Z</time>
      </trkpt>
      <trkpt lat="43.53392" lon="2.27439">
        <ele>192</ele>
        <time>2024-04-06T14:35:54Z</time>
      </trkpt>
      <trkpt lat="43.5339" lon="2.27442">
        <ele>192</ele>
        <time>2024-04-06T14:35:55Z</time>
      </trkpt>
      <trkpt lat="43.5339" lon="2.27446">
        <ele>192</ele>
        <time>2024-04-06T14:35:55Z</time>
      </trkpt>
      <trkpt lat="43.53394" lon="2.27451">
        <ele>192</ele>
        <time>2024-04-06T14:35:56Z</time>
      </trkpt>
      <trkpt lat="43.5331" lon="2.27852">
        <ele>193</ele>
        <time>2024-04-06T14:36:50Z</time>
      </trkpt>
      <trkpt lat="43.53307" lon="2.27873">
        <ele>193</ele>
        <time>2024-04-06T14:36:53Z</time>
      </trkpt>
      <trkpt lat="43.53312" lon="2.27941">
        <ele>193</ele>
        <time>2024-04-06T14:37:02Z</time>
      </trkpt>
      <trkpt lat="43.53305" lon="2.27958">
        <ele>194</ele>
        <time>2024-04-06T14:37:04Z</time>
      </trkpt>
      <trkpt lat="43.53306" lon="2.27976">
        <ele>194</ele>
        <time>2024-04-06T14:37:07Z</time>
      </trkpt>
      <trkpt lat="43.53289" lon="2.27991">
        <ele>195</ele>
        <time>2024-04-06T14:37:10Z</time>
      </trkpt>
      <trkpt lat="43.53276" lon="2.28023">
        <ele>196</ele>
        <time>2024-04-06T14:37:15Z</time>
      </trkpt>
      <trkpt lat="43.53224" lon="2.28281">
        <ele>194</ele>
        <time>2024-04-06T14:37:50Z</time>
      </trkpt>
      <trkpt lat="43.53185" lon="2.28411">
        <ele>195</ele>
        <time>2024-04-06T14:38:08Z</time>
      </trkpt>
      <trkpt lat="43.52953" lon="2.29111">
        <ele>199</ele>
        <time>2024-04-06T14:39:47Z</time>
      </trkpt>
      <trkpt lat="43.5293" lon="2.29151">
        <ele>199</ele>
        <time>2024-04-06T14:39:54Z</time>
      </trkpt>
      <trkpt lat="43.52898" lon="2.2918">
        <ele>198</ele>
        <time>2024-04-06T14:40:00Z</time>
      </trkpt>
      <trkpt lat="43.52742" lon="2.29258">
        <ele>198</ele>
        <time>2024-04-06T14:40:30Z</time>
      </trkpt>
      <trkpt lat="43.52703" lon="2.2929">
        <ele>197</ele>
        <time>2024-04-06T14:40:38Z</time>
      </trkpt>
      <trkpt lat="43.52619" lon="2.29401">
        <ele>197</ele>
        <time>2024-04-06T14:40:59Z</time>
      </trkpt>
      <trkpt lat="43.52421" lon="2.29626">
        <ele>193</ele>
        <time>2024-04-06T14:41:44Z</time>
      </trkpt>
      <trkpt lat="43.52188" lon="2.29897">
        <ele>195</ele>
        <time>2024-04-06T14:42:39Z</time>
      </trkpt>
      <trkpt lat="43.52103" lon="2.3001">
        <ele>197</ele>
        <time>2024-04-06T14:43:00Z</time>
      </trkpt>
      <trkpt lat="43.52056" lon="2.30107">
        <ele>198</ele>
        <time>2024-04-06T14:43:15Z</time>
      </trkpt>
      <trkpt lat="43.51889" lon="2.30605">
        <ele>199</ele>
        <time>2024-04-06T14:44:25Z</time>
      </trkpt>
      <trkpt lat="43.51827" lon="2.30785">
        <ele>200</ele>
        <time>2024-04-06T14:44:51Z</time>
      </trkpt>
      <trkpt lat="43.51809" lon="2.30831">
        <ele>201</ele>
        <time>2024-04-06T14:44:58Z</time>
      </trkpt>
      <trkpt lat="43.51787" lon="2.30896">
        <ele>203</ele>
        <time>2024-04-06T14:45:07Z</time>
      </trkpt>
      <trkpt lat="43.51729" lon="2.31088">
        <ele>204</ele>
        <time>2024-04-06T14:45:34Z</time>
      </trkpt>
      <trkpt lat="43.51655" lon="2.31305">
        <ele>209</ele>
        <time>2024-04-06T14:46:05Z</time>
      </trkpt>
      <trkpt lat="43.51648" lon="2.31336">
        <ele>210</ele>
        <time>2024-04-06T14:46:09Z</time>
      </trkpt>
      <trkpt lat="43.51411" lon="2.32452">
        <ele>212</ele>
        <time>2024-04-06T14:48:39Z</time>
      </trkpt>
      <trkpt lat="43.5139" lon="2.32543">
        <ele>213</ele>
        <time>2024-04-06T14:48:51Z</time>
      </trkpt>
      <trkpt lat="43.51362" lon="2.32634">
        <ele>211</ele>
        <time>2024-04-06T14:49:04Z</time>
      </trkpt>
      <trkpt lat="43.51208" lon="2.33083">
        <ele>211</ele>
        <time>2024-04-06T14:50:08Z</time>
      </trkpt>
      <trkpt lat="43.51171" lon="2.33196">
        <ele>210</ele>
        <time>2024-04-06T14:50:24Z</time>
      </trkpt>
      <trkpt lat="43.51146" lon="2.33286">
        <ele>211</ele>
        <time>2024-04-06T14:50:37Z</time>
      </trkpt>
      <trkpt lat="43.51117" lon="2.33428">
        <ele>211</ele>
        <time>2024-04-06T14:50:56Z</time>
      </trkpt>
      <trkpt lat="43.51105" lon="2.33475">
        <ele>211</ele>
        <time>2024-04-06T14:51:02Z</time>
      </trkpt>
      <trkpt lat="43.51097" lon="2.33477">
        <ele>212</ele>
        <time>2024-04-06T14:51:04Z</time>
      </trkpt>
      <trkpt lat="43.5109" lon="2.33485">
        <ele>212</ele>
        <time>2024-04-06T14:51:05Z</time>
      </trkpt>
      <trkpt lat="43.51088" lon="2.33502">
        <ele>212</ele>
        <time>2024-04-06T14:51:07Z</time>
      </trkpt>
      <trkpt lat="43.51076" lon="2.33511">
        <ele>212</ele>
        <time>2024-04-06T14:51:10Z</time>
      </trkpt>
      <trkpt lat="43.51066" lon="2.33525">
        <ele>212</ele>
        <time>2024-04-06T14:51:12Z</time>
      </trkpt>
      <trkpt lat="43.51057" lon="2.33545">
        <ele>212</ele>
        <time>2024-04-06T14:51:15Z</time>
      </trkpt>
      <trkpt lat="43.51024" lon="2.33647">
        <ele>214</ele>
        <time>2024-04-06T14:51:30Z</time>
      </trkpt>
      <trkpt lat="43.50993" lon="2.33747">
        <ele>214</ele>
        <time>2024-04-06T14:51:44Z</time>
      </trkpt>
      <trkpt lat="43.50924" lon="2.33944">
        <ele>215</ele>
        <time>2024-04-06T14:52:12Z</time>
      </trkpt>
      <trkpt lat="43.50898" lon="2.3402">
        <ele>215</ele>
        <time>2024-04-06T14:52:23Z</time>
      </trkpt>
      <trkpt lat="43.50867" lon="2.34121">
        <ele>218</ele>
        <time>2024-04-06T14:52:37Z</time>
      </trkpt>
      <trkpt lat="43.50852" lon="2.34199">
        <ele>219</ele>
        <time>2024-04-06T14:52:48Z</time>
      </trkpt>
      <trkpt lat="43.50842" lon="2.34266">
        <ele>218</ele>
        <time>2024-04-06T14:52:56Z</time>
      </trkpt>
      <trkpt lat="43.50836" lon="2.34364">
        <ele>219</ele>
        <time>2024-04-06T14:53:09Z</time>
      </trkpt>
      <trkpt lat="43.50836" lon="2.34432">
        <ele>219</ele>
        <time>2024-04-06T14:53:18Z</time>
      </trkpt>
      <trkpt lat="43.50842" lon="2.34528">
        <ele>218</ele>
        <time>2024-04-06T14:53:30Z</time>
      </trkpt>
      <trkpt lat="43.50854" lon="2.34625">
        <ele>220</ele>
        <time>2024-04-06T14:53:43Z</time>
      </trkpt>
      <trkpt lat="43.50862" lon="2.34706">
        <ele>220</ele>
        <time>2024-04-06T14:53:54Z</time>
      </trkpt>
      <trkpt lat="43.5086" lon="2.34748">
        <ele>220</ele>
        <time>2024-04-06T14:53:59Z</time>
      </trkpt>
      <trkpt lat="43.50841" lon="2.34913">
        <ele>221</ele>
        <time>2024-04-06T14:54:21Z</time>
      </trkpt>
      <trkpt lat="43.50828" lon="2.34998">
        <ele>219</ele>
        <time>2024-04-06T14:54:32Z</time>
      </trkpt>
      <trkpt lat="43.50812" lon="2.35128">
        <ele>220</ele>
        <time>2024-04-06T14:54:49Z</time>
      </trkpt>
      <trkpt lat="43.50813" lon="2.35153">
        <ele>219</ele>
        <time>2024-04-06T14:54:52Z</time>
      </trkpt>
      <trkpt lat="43.50822" lon="2.3518">
        <ele>219</ele>
        <time>2024-04-06T14:54:56Z</time>
      </trkpt>
      <trkpt lat="43.50817" lon="2.35188">
        <ele>219</ele>
        <time>2024-04-06T14:54:57Z</time>
      </trkpt>
      <trkpt lat="43.50816" lon="2.35199">
        <ele>219</ele>
        <time>2024-04-06T14:54:59Z</time>
      </trkpt>
      <trkpt lat="43.50817" lon="2.35208">
        <ele>219</ele>
        <time>2024-04-06T14:55:00Z</time>
      </trkpt>
      <trkpt lat="43.50822" lon="2.35215">
        <ele>219</ele>
        <time>2024-04-06T14:55:01Z</time>
      </trkpt>
      <trkpt lat="43.50798" lon="2.35273">
        <ele>220</ele>
        <time>2024-04-06T14:55:10Z</time>
      </trkpt>
      <trkpt lat="43.50783" lon="2.35378">
        <ele>222</ele>
        <time>2024-04-06T14:55:24Z</time>
      </trkpt>
      <trkpt lat="43.50772" lon="2.35474">
        <ele>223</ele>
        <time>2024-04-06T14:55:36Z</time>
      </trkpt>
      <trkpt lat="43.50746" lon="2.35676">
        <ele>223</ele>
        <time>2024-04-06T14:56:03Z</time>
      </trkpt>
      <trkpt lat="43.50745" lon="2.35733">
        <ele>223</ele>
        <time>2024-04-06T14:56:10Z</time>
      </trkpt>
      <trkpt lat="43.50746" lon="2.35759">
        <ele>223</ele>
        <time>2024-04-06T14:56:13Z</time>
      </trkpt>
      <trkpt lat="43.50753" lon="2.35817">
        <ele>224</ele>
        <time>2024-04-06T14:56:21Z</time>
      </trkpt>
      <trkpt lat="43.50753" lon="2.35837">
        <ele>224</ele>
        <time>2024-04-06T14:56:23Z</time>
      </trkpt>
      <trkpt lat="43.50761" lon="2.35877">
        <ele>223</ele>
        <time>2024-04-06T14:56:29Z</time>
      </trkpt>
      <trkpt lat="43.50793" lon="2.35977">
        <ele>222</ele>
        <time>2024-04-06T14:56:43Z</time>
      </trkpt>
      <trkpt lat="43.50827" lon="2.36046">
        <ele>223</ele>
        <time>2024-04-06T14:56:54Z</time>
      </trkpt>
      <trkpt lat="43.50842" lon="2.36073">
        <ele>223</ele>
        <time>2024-04-06T14:56:58Z</time>
      </trkpt>
      <trkpt lat="43.50852" lon="2.36085">
        <ele>223</ele>
        <time>2024-04-06T14:57:00Z</time>
      </trkpt>
      <trkpt lat="43.50868" lon="2.3612">
        <ele>223</ele>
        <time>2024-04-06T14:57:06Z</time>
      </trkpt>
      <trkpt lat="43.50926" lon="2.36236">
        <ele>223</ele>
        <time>2024-04-06T14:57:24Z</time>
      </trkpt>
      <trkpt lat="43.5092" lon="2.36242">
        <ele>223</ele>
        <time>2024-04-06T14:57:25Z</time>
      </trkpt>
      <trkpt lat="43.50742" lon="2.36412">
        <ele>226</ele>
        <time>2024-04-06T14:58:04Z</time>
      </trkpt>
      <trkpt lat="43.50727" lon="2.36434">
        <ele>227</ele>
        <time>2024-04-06T14:58:08Z</time>
      </trkpt>
      <trkpt lat="43.50714" lon="2.36464">
        <ele>229</ele>
        <time>2024-04-06T14:58:12Z</time>
      </trkpt>
      <trkpt lat="43.50704" lon="2.365">
        <ele>230</ele>
        <time>2024-04-06T14:58:17Z</time>
      </trkpt>
      <trkpt lat="43.50701" lon="2.36521">
        <ele>230</ele>
        <time>2024-04-06T14:58:20Z</time>
      </trkpt>
      <trkpt lat="43.50701" lon="2.36539">
        <ele>230</ele>
        <time>2024-04-06T14:58:22Z</time>
      </trkpt>
      <trkpt lat="43.50703" lon="2.36667">
        <ele>231</ele>
        <time>2024-04-06T14:58:39Z</time>
      </trkpt>
      <trkpt lat="43.50693" lon="2.36668">
        <ele>231</ele>
        <time>2024-04-06T14:58:41Z</time>
      </trkpt>
      <trkpt lat="43.50702" lon="2.37151">
        <ele>230</ele>
        <time>2024-04-06T14:59:43Z</time>
      </trkpt>
      <trkpt lat="43.50699" lon="2.3716">
        <ele>230</ele>
        <time>2024-04-06T14:59:44Z</time>
      </trkpt>
      <trkpt lat="43.50696" lon="2.37165">
        <ele>230</ele>
        <time>2024-04-06T14:59:45Z</time>
      </trkpt>
      <trkpt lat="43.50691" lon="2.37168">
        <ele>230</ele>
        <time>2024-04-06T14:59:46Z</time>
      </trkpt>
      <trkpt lat="43.50562" lon="2.37165">
        <ele>231</ele>
        <time>2024-04-06T15:00:09Z</time>
      </trkpt>
      <trkpt lat="43.50562" lon="2.3717">
        <ele>231</ele>
        <time>2024-04-06T15:00:10Z</time>
      </trkpt>
      <trkpt lat="43.50543" lon="2.37175">
        <ele>231</ele>
        <time>2024-04-06T15:00:13Z</time>
      </trkpt>
      <trkpt lat="43.50482" lon="2.37174">
        <ele>232</ele>
        <time>2024-04-06T15:00:24Z</time>
      </trkpt>
      <trkpt lat="43.50501" lon="2.37254">
        <ele>232</ele>
        <time>2024-04-06T15:00:35Z</time>
      </trkpt>
      <trkpt lat="43.50503" lon="2.37275">
        <ele>233</ele>
        <time>2024-04-06T15:00:37Z</time>
      </trkpt>
      <trkpt lat="43.50492" lon="2.37314">
        <ele>234</ele>
        <time>2024-04-06T15:00:43Z</time>
      </trkpt>
      <trkpt lat="43.50483" lon="2.37363">
        <ele>234</ele>
        <time>2024-04-06T15:00:49Z</time>
      </trkpt>
      <trkpt lat="43.50422" lon="2.37346">
        <ele>235</ele>
        <time>2024-04-06T15:01:00Z</time>
      </trkpt>
      <trkpt lat="43.50378" lon="2.37546">
        <ele>235</ele>
        <time>2024-04-06T15:01:27Z</time>
      </trkpt>
      <trkpt lat="43.50356" lon="2.3765">
        <ele>236</ele>
        <time>2024-04-06T15:01:41Z</time>
      </trkpt>
      <trkpt lat="43.50331" lon="2.37761">
        <ele>235</ele>
        <time>2024-04-06T15:01:56Z</time>
      </trkpt>
      <trkpt lat="43.50354" lon="2.37768">
        <ele>235</ele>
        <time>2024-04-06T15:02:01Z</time>
      </trkpt>
      <trkpt lat="43.50266" lon="2.3802">
        <ele>232</ele>
        <time>2024-04-06T15:02:37Z</time>
      </trkpt>
      <trkpt lat="43.50222" lon="2.38143">
        <ele>231</ele>
        <time>2024-04-06T15:02:54Z</time>
      </trkpt>
      <trkpt lat="43.50217" lon="2.38168">
        <ele>230</ele>
        <time>2024-04-06T15:02:58Z</time>
      </trkpt>
      <trkpt lat="43.50173" lon="2.38201">
        <ele>231</ele>
        <time>2024-04-06T15:03:07Z</time>
      </trkpt>
      <trkpt lat="43.50149" lon="2.38215">
        <ele>231</ele>
        <time>2024-04-06T15:03:11Z</time>
      </trkpt>
      <trkpt lat="43.50132" lon="2.38231">
        <ele>231</ele>
        <time>2024-04-06T15:03:15Z</time>
      </trkpt>
      <trkpt lat="43.50116" lon="2.3826">
        <ele>231</ele>
        <time>2024-04-06T15:03:20Z</time>
      </trkpt>
      <trkpt lat="43.50111" lon="2.3827">
        <ele>231</ele>
        <time>2024-04-06T15:03:21Z</time>
      </trkpt>
      <trkpt lat="43.50098" lon="2.38295">
        <ele>231</ele>
        <time>2024-04-06T15:03:25Z</time>
      </trkpt>
      <trkpt lat="43.50016" lon="2.38452">
        <ele>232</ele>
        <time>2024-04-06T15:03:50Z</time>
      </trkpt>
      <trkpt lat="43.4996" lon="2.38548">
        <ele>229</ele>
        <time>2024-04-06T15:04:06Z</time>
      </trkpt>
      <trkpt lat="43.49949" lon="2.38558">
        <ele>229</ele>
        <time>2024-04-06T15:04:08Z</time>
      </trkpt>
      <trkpt lat="43.49939" lon="2.38555">
        <ele>230</ele>
        <time>2024-04-06T15:04:10Z</time>
      </trkpt>
      <trkpt lat="43.49923" lon="2.38557">
        <ele>231</ele>
        <time>2024-04-06T15:04:13Z</time>
      </trkpt>
      <trkpt lat="43.4991" lon="2.38567">
        <ele>231</ele>
        <time>2024-04-06T15:04:16Z</time>
      </trkpt>
      <trkpt lat="43.49904" lon="2.38577">
        <ele>230</ele>
        <time>2024-04-06T15:04:17Z</time>
      </trkpt>
      <trkpt lat="43.49899" lon="2.38592">
        <ele>230</ele>
        <time>2024-04-06T15:04:20Z</time>
      </trkpt>
      <trkpt lat="43.49898" lon="2.38614">
        <ele>228</ele>
        <time>2024-04-06T15:04:22Z</time>
      </trkpt>
      <trkpt lat="43.49904" lon="2.38634">
        <ele>227</ele>
        <time>2024-04-06T15:04:25Z</time>
      </trkpt>
      <trkpt lat="43.49904" lon="2.38648">
        <ele>226</ele>
        <time>2024-04-06T15:04:27Z</time>
      </trkpt>
      <trkpt lat="43.49893" lon="2.38686">
        <ele>225</ele>
        <time>2024-04-06T15:04:32Z</time>
      </trkpt>
      <trkpt lat="43.49856" lon="2.38762">
        <ele>224</ele>
        <time>2024-04-06T15:04:44Z</time>
      </trkpt>
      <trkpt lat="43.49846" lon="2.38789">
        <ele>224</ele>
        <time>2024-04-06T15:04:48Z</time>
      </trkpt>
      <trkpt lat="43.49835" lon="2.38834">
        <ele>225</ele>
        <time>2024-04-06T15:04:54Z</time>
      </trkpt>
      <trkpt lat="43.49808" lon="2.39071">
        <ele>226</ele>
        <time>2024-04-06T15:05:25Z</time>
      </trkpt>
      <trkpt lat="43.49786" lon="2.39294">
        <ele>225</ele>
        <time>2024-04-06T15:05:54Z</time>
      </trkpt>
      <trkpt lat="43.49769" lon="2.39463">
        <ele>227</ele>
        <time>2024-04-06T15:06:16Z</time>
      </trkpt>
      <trkpt lat="43.49765" lon="2.39477">
        <ele>227</ele>
        <time>2024-04-06T15:06:18Z</time>
      </trkpt>
      <trkpt lat="43.49759" lon="2.39483">
        <ele>228</ele>
        <time>2024-04-06T15:06:19Z</time>
      </trkpt>
      <trkpt lat="43.49756" lon="2.39519">
        <ele>228</ele>
        <time>2024-04-06T15:06:24Z</time>
      </trkpt>
      <trkpt lat="43.4976" lon="2.39527">
        <ele>228</ele>
        <time>2024-04-06T15:06:25Z</time>
      </trkpt>
      <trkpt lat="43.49761" lon="2.39548">
        <ele>228</ele>
        <time>2024-04-06T15:06:28Z</time>
      </trkpt>
      <trkpt lat="43.49755" lon="2.39601">
        <ele>227</ele>
        <time>2024-04-06T15:06:35Z</time>
      </trkpt>
      <trkpt lat="43.49745" lon="2.39698">
        <ele>225</ele>
        <time>2024-04-06T15:06:48Z</time>
      </trkpt>
      <trkpt lat="43.49741" lon="2.3974">
        <ele>225</ele>
        <time>2024-04-06T15:06:53Z</time>
      </trkpt>
      <trkpt lat="43.49718" lon="2.3995">
        <ele>228</ele>
        <time>2024-04-06T15:07:21Z</time>
      </trkpt>
      <trkpt lat="43.4971" lon="2.39983">
        <ele>229</ele>
        <time>2024-04-06T15:07:25Z</time>
      </trkpt>
      <trkpt lat="43.49701" lon="2.40003">
        <ele>229</ele>
        <time>2024-04-06T15:07:28Z</time>
      </trkpt>
      <trkpt lat="43.49689" lon="2.4001">
        <ele>229</ele>
        <time>2024-04-06T15:07:30Z</time>
      </trkpt>
      <trkpt lat="43.4968" lon="2.40024">
        <ele>229</ele>
        <time>2024-04-06T15:07:33Z</time>
      </trkpt>
      <trkpt lat="43.49652" lon="2.40039">
        <ele>229</ele>
        <time>2024-04-06T15:07:38Z</time>
      </trkpt>
      <trkpt lat="43.49639" lon="2.40052">
        <ele>228</ele>
        <time>2024-04-06T15:07:41Z</time>
      </trkpt>
      <trkpt lat="43.49629" lon="2.40074">
        <ele>228</ele>
        <time>2024-04-06T15:07:44Z</time>
      </trkpt>
      <trkpt lat="43.49626" lon="2.40091">
        <ele>228</ele>
        <time>2024-04-06T15:07:47Z</time>
      </trkpt>
      <trkpt lat="43.49629" lon="2.40109">
        <ele>228</ele>
        <time>2024-04-06T15:07:49Z</time>
      </trkpt>
      <trkpt lat="43.49636" lon="2.40137">
        <ele>228</ele>
        <time>2024-04-06T15:07:53Z</time>
      </trkpt>
      <trkpt lat="43.49612" lon="2.40374">
        <ele>232</ele>
        <time>2024-04-06T15:08:24Z</time>
      </trkpt>
      <trkpt lat="43.49613" lon="2.40383">
        <ele>232</ele>
        <time>2024-04-06T15:08:25Z</time>
      </trkpt>
      <trkpt lat="43.49624" lon="2.40425">
        <ele>233</ele>
        <time>2024-04-06T15:08:31Z</time>
      </trkpt>
      <trkpt lat="43.49632" lon="2.4047">
        <ele>232</ele>
        <time>2024-04-06T15:08:37Z</time>
      </trkpt>
      <trkpt lat="43.49638" lon="2.40538">
        <ele>233</ele>
        <time>2024-04-06T15:08:45Z</time>
      </trkpt>
      <trkpt lat="43.49638" lon="2.40549">
        <ele>233</ele>
        <time>2024-04-06T15:08:47Z</time>
      </trkpt>
      <trkpt lat="43.49636" lon="2.40556">
        <ele>233</ele>
        <time>2024-04-06T15:08:48Z</time>
      </trkpt>
      <trkpt lat="43.49633" lon="2.40565">
        <ele>233</ele>
        <time>2024-04-06T15:08:49Z</time>
      </trkpt>
      <trkpt lat="43.49632" lon="2.40579">
        <ele>233</ele>
        <time>2024-04-06T15:08:51Z</time>
      </trkpt>
      <trkpt lat="43.49613" lon="2.40735">
        <ele>234</ele>
        <time>2024-04-06T15:09:11Z</time>
      </trkpt>
      <trkpt lat="43.49606" lon="2.40809">
        <ele>234</ele>
        <time>2024-04-06T15:09:21Z</time>
      </trkpt>
      <trkpt lat="43.49595" lon="2.40897">
        <ele>234</ele>
        <time>2024-04-06T15:09:32Z</time>
      </trkpt>
      <trkpt lat="43.49588" lon="2.40979">
        <ele>233</ele>
        <time>2024-04-06T15:09:43Z</time>
      </trkpt>
      <trkpt lat="43.49588" lon="2.41025">
        <ele>233</ele>
        <time>2024-04-06T15:09:49Z</time>
      </trkpt>
      <trkpt lat="43.4958" lon="2.41093">
        <ele>232</ele>
        <time>2024-04-06T15:09:58Z</time>
      </trkpt>
      <trkpt lat="43.49575" lon="2.41116">
        <ele>233</ele>
        <time>2024-04-06T15:10:01Z</time>
      </trkpt>
      <trkpt lat="43.49558" lon="2.41156">
        <ele>233</ele>
        <time>2024-04-06T15:10:07Z</time>
      </trkpt>
      <trkpt lat="43.49598" lon="2.41168">
        <ele>234</ele>
        <time>2024-04-06T15:10:14Z</time>
      </trkpt>
      <trkpt lat="43.49614" lon="2.41005">
        <ele>233</ele>
        <time>2024-04-06T15:10:36Z</time>
      </trkpt>
      <trkpt lat="43.49646" lon="2.40697">
        <ele>233</ele>
        <time>2024-04-06T15:11:16Z</time>
      </trkpt>
      <trkpt lat="43.49642" lon="2.40696">
        <ele>233</ele>
        <time>2024-04-06T15:11:16Z</time>
      </trkpt>
      <trkpt lat="43.49601" lon="2.41089">
        <ele>232</ele>
        <time>2024-04-06T15:12:08Z</time>
      </trkpt>
      <trkpt lat="43.49595" lon="2.41107">
        <ele>233</ele>
        <time>2024-04-06T15:12:10Z</time>
      </trkpt>
      <trkpt lat="43.49588" lon="2.41165">
        <ele>234</ele>
        <time>2024-04-06T15:12:18Z</time>
      </trkpt>
      <trkpt lat="43.49583" lon="2.41222">
        <ele>234</ele>
        <time>2024-04-06T15:12:25Z</time>
      </trkpt>
      <trkpt lat="43.49585" lon="2.41248">
        <ele>234</ele>
        <time>2024-04-06T15:12:29Z</time>
      </trkpt>
      <trkpt lat="43.4946" lon="2.42492">
        <ele>240</ele>
        <time>2024-04-06T15:15:11Z</time>
      </trkpt>
      <trkpt lat="43.49387" lon="2.43252">
        <ele>248</ele>
        <time>2024-04-06T15:16:50Z</time>
      </trkpt>
      <trkpt lat="43.49375" lon="2.43487">
        <ele>249</ele>
        <time>2024-04-06T15:17:20Z</time>
      </trkpt>
      <trkpt lat="43.49374" lon="2.43546">
        <ele>251</ele>
        <time>2024-04-06T15:17:28Z</time>
      </trkpt>
      <trkpt lat="43.49376" lon="2.43574">
        <ele>252</ele>
        <time>2024-04-06T15:17:31Z</time>
      </trkpt>
      <trkpt lat="43.49382" lon="2.43631">
        <ele>251</ele>
        <time>2024-04-06T15:17:39Z</time>
      </trkpt>
      <trkpt lat="43.49389" lon="2.43666">
        <ele>250</ele>
        <time>2024-04-06T15:17:43Z</time>
      </trkpt>
      <trkpt lat="43.49422" lon="2.43796">
        <ele>248</ele>
        <time>2024-04-06T15:18:01Z</time>
      </trkpt>
      <trkpt lat="43.49429" lon="2.43836">
        <ele>246</ele>
        <time>2024-04-06T15:18:07Z</time>
      </trkpt>
      <trkpt lat="43.49431" lon="2.4386">
        <ele>247</ele>
        <time>2024-04-06T15:18:10Z</time>
      </trkpt>
      <trkpt lat="43.4943" lon="2.43893">
        <ele>248</ele>
        <time>2024-04-06T15:18:14Z</time>
      </trkpt>
      <trkpt lat="43.49427" lon="2.4393">
        <ele>248</ele>
        <time>2024-04-06T15:18:19Z</time>
      </trkpt>
      <trkpt lat="43.49421" lon="2.43961">
        <ele>247</ele>
        <time>2024-04-06T15:18:23Z</time>
      </trkpt>
      <trkpt lat="43.4941" lon="2.44">
        <ele>247</ele>
        <time>2024-04-06T15:18:28Z</time>
      </trkpt>
      <trkpt lat="43.4936" lon="2.44121">
        <ele>245</ele>
        <time>2024-04-06T15:18:46Z</time>
      </trkpt>
      <trkpt lat="43.49352" lon="2.44145">
        <ele>245</ele>
        <time>2024-04-06T15:18:50Z</time>
      </trkpt>
      <trkpt lat="43.49341" lon="2.44185">
        <ele>243</ele>
        <time>2024-04-06T15:18:55Z</time>
      </trkpt>
      <trkpt lat="43.49334" lon="2.44225">
        <ele>242</ele>
        <time>2024-04-06T15:19:01Z</time>
      </trkpt>
      <trkpt lat="43.49323" lon="2.44306">
        <ele>242</ele>
        <time>2024-04-06T15:19:11Z</time>
      </trkpt>
      <trkpt lat="43.49313" lon="2.44387">
        <ele>244</ele>
        <time>2024-04-06T15:19:22Z</time>
      </trkpt>
      <trkpt lat="43.49306" lon="2.44467">
        <ele>244</ele>
        <time>2024-04-06T15:19:32Z</time>
      </trkpt>
      <trkpt lat="43.49298" lon="2.44564">
        <ele>245</ele>
        <time>2024-04-06T15:19:45Z</time>
      </trkpt>
      <trkpt lat="43.49292" lon="2.44687">
        <ele>248</ele>
        <time>2024-04-06T15:20:01Z</time>
      </trkpt>
      <trkpt lat="43.49275" lon="2.44913">
        <ele>250</ele>
        <time>2024-04-06T15:20:30Z</time>
      </trkpt>
      <trkpt lat="43.49259" lon="2.44981">
        <ele>249</ele>
        <time>2024-04-06T15:20:39Z</time>
      </trkpt>
      <trkpt lat="43.49215" lon="2.45149">
        <ele>251</ele>
        <time>2024-04-06T15:21:02Z</time>
      </trkpt>
      <trkpt lat="43.49165" lon="2.45285">
        <ele>251</ele>
        <time>2024-04-06T15:21:22Z</time>
      </trkpt>
      <trkpt lat="43.49143" lon="2.45329">
        <ele>251</ele>
        <time>2024-04-06T15:21:29Z</time>
      </trkpt>
      <trkpt lat="43.49139" lon="2.45336">
        <ele>251</ele>
        <time>2024-04-06T15:21:30Z</time>
      </trkpt>
      <trkpt lat="43.48955" lon="2.45668">
        <ele>252</ele>
        <time>2024-04-06T15:22:24Z</time>
      </trkpt>
      <trkpt lat="43.48943" lon="2.45695">
        <ele>252</ele>
        <time>2024-04-06T15:22:28Z</time>
      </trkpt>
      <trkpt lat="43.4894" lon="2.45703">
        <ele>252</ele>
        <time>2024-04-06T15:22:29Z</time>
      </trkpt>
      <trkpt lat="43.48932" lon="2.4573">
        <ele>252</ele>
        <time>2024-04-06T15:22:33Z</time>
      </trkpt>
      <trkpt lat="43.48929" lon="2.45752">
        <ele>251</ele>
        <time>2024-04-06T15:22:36Z</time>
      </trkpt>
      <trkpt lat="43.48894" lon="2.4611">
        <ele>253</ele>
        <time>2024-04-06T15:23:22Z</time>
      </trkpt>
      <trkpt lat="43.48889" lon="2.46143">
        <ele>255</ele>
        <time>2024-04-06T15:23:27Z</time>
      </trkpt>
      <trkpt lat="43.48882" lon="2.4617">
        <ele>255</ele>
        <time>2024-04-06T15:23:31Z</time>
      </trkpt>
      <trkpt lat="43.48872" lon="2.46201">
        <ele>255</ele>
        <time>2024-04-06T15:23:35Z</time>
      </trkpt>
      <trkpt lat="43.48863" lon="2.46221">
        <ele>255</ele>
        <time>2024-04-06T15:23:38Z</time>
      </trkpt>
      <trkpt lat="43.48844" lon="2.46252">
        <ele>253</ele>
        <time>2024-04-06T15:23:43Z</time>
      </trkpt>
      <trkpt lat="43.48803" lon="2.46306">
        <ele>254</ele>
        <time>2024-04-06T15:23:53Z</time>
      </trkpt>
      <trkpt lat="43.48779" lon="2.46337">
        <ele>256</ele>
        <time>2024-04-06T15:23:59Z</time>
      </trkpt>
      <trkpt lat="43.48677" lon="2.46471">
        <ele>264</ele>
        <time>2024-04-06T15:24:24Z</time>
      </trkpt>
      <trkpt lat="43.48628" lon="2.46542">
        <ele>265</ele>
        <time>2024-04-06T15:24:37Z</time>
      </trkpt>
      <trkpt lat="43.48384" lon="2.46936">
        <ele>268</ele>
        <time>2024-04-06T15:25:44Z</time>
      </trkpt>
      <trkpt lat="43.48369" lon="2.46968">
        <ele>268</ele>
        <time>2024-04-06T15:25:49Z</time>
      </trkpt>
      <trkpt lat="43.48358" lon="2.46999">
        <ele>268</ele>
        <time>2024-04-06T15:25:53Z</time>
      </trkpt>
      <trkpt lat="43.48344" lon="2.4705">
        <ele>268</ele>
        <time>2024-04-06T15:26:00Z</time>
      </trkpt>
      <trkpt lat="43.48336" lon="2.47106">
        <ele>267</ele>
        <time>2024-04-06T15:26:08Z</time>
      </trkpt>
      <trkpt lat="43.48319" lon="2.47353">
        <ele>265</ele>
        <time>2024-04-06T15:26:40Z</time>
      </trkpt>
      <trkpt lat="43.48284" lon="2.47901">
        <ele>272</ele>
        <time>2024-04-06T15:27:51Z</time>
      </trkpt>
      <trkpt lat="43.48278" lon="2.47947">
        <ele>271</ele>
        <time>2024-04-06T15:27:57Z</time>
      </trkpt>
      <trkpt lat="43.48267" lon="2.4799">
        <ele>270</ele>
        <time>2024-04-06T15:28:02Z</time>
      </trkpt>
      <trkpt lat="43.4825" lon="2.4804">
        <ele>269</ele>
        <time>2024-04-06T15:28:10Z</time>
      </trkpt>
      <trkpt lat="43.48209" lon="2.48136">
        <ele>271</ele>
        <time>2024-04-06T15:28:24Z</time>
      </trkpt>
      <trkpt lat="43.4818" lon="2.48191">
        <ele>273</ele>
        <time>2024-04-06T15:28:33Z</time>
      </trkpt>
      <trkpt lat="43.48087" lon="2.48312">
        <ele>276</ele>
        <time>2024-04-06T15:28:56Z</time>
      </trkpt>
      <trkpt lat="43.479" lon="2.48566">
        <ele>272</ele>
        <time>2024-04-06T15:29:42Z</time>
      </trkpt>
      <trkpt lat="43.47848" lon="2.4864">
        <ele>271</ele>
        <time>2024-04-06T15:29:56Z</time>
      </trkpt>
      <trkpt lat="43.47834" lon="2.48664">
        <ele>271</ele>
        <time>2024-04-06T15:30:00Z</time>
      </trkpt>
      <trkpt lat="43.4778" lon="2.48786">
        <ele>274</ele>
        <time>2024-04-06T15:30:18Z</time>
      </trkpt>
      <trkpt lat="43.47772" lon="2.488">
        <ele>275</ele>
        <time>2024-04-06T15:30:20Z</time>
      </trkpt>
      <trkpt lat="43.47778" lon="2.48861">
        <ele>275</ele>
        <time>2024-04-06T15:30:28Z</time>
      </trkpt>
      <trkpt lat="43.47787" lon="2.48932">
        <ele>276</ele>
        <time>2024-04-06T15:30:38Z</time>
      </trkpt>
      <trkpt lat="43.47788" lon="2.48997">
        <ele>278</ele>
        <time>2024-04-06T15:30:46Z</time>
      </trkpt>
      <trkpt lat="43.47784" lon="2.49027">
        <ele>278</ele>
        <time>2024-04-06T15:30:50Z</time>
      </trkpt>
      <trkpt lat="43.47776" lon="2.49061">
        <ele>278</ele>
        <time>2024-04-06T15:30:54Z</time>
      </trkpt>
      <trkpt lat="43.47749" lon="2.49119">
        <ele>279</ele>
        <time>2024-04-06T15:31:03Z</time>
      </trkpt>
      <trkpt lat="43.47622" lon="2.49311">
        <ele>283</ele>
        <time>2024-04-06T15:31:37Z</time>
      </trkpt>
      <trkpt lat="43.47605" lon="2.49345">
        <ele>283</ele>
        <time>2024-04-06T15:31:42Z</time>
      </trkpt>
      <trkpt lat="43.47598" lon="2.49364">
        <ele>283</ele>
        <time>2024-04-06T15:31:45Z</time>
      </trkpt>
      <trkpt lat="43.4757" lon="2.49492">
        <ele>282</ele>
        <time>2024-04-06T15:32:02Z</time>
      </trkpt>
      <trkpt lat="43.47533" lon="2.49677">
        <ele>287</ele>
        <time>2024-04-06T15:32:27Z</time>
      </trkpt>
      <trkpt lat="43.47531" lon="2.49699">
        <ele>287</ele>
        <time>2024-04-06T15:32:30Z</time>
      </trkpt>
      <trkpt lat="43.47531" lon="2.4978">
        <ele>288</ele>
        <time>2024-04-06T15:32:40Z</time>
      </trkpt>
      <trkpt lat="43.47495" lon="2.50579">
        <ele>285</ele>
        <time>2024-04-06T15:34:24Z</time>
      </trkpt>
      <trkpt lat="43.47492" lon="2.50609">
        <ele>285</ele>
        <time>2024-04-06T15:34:28Z</time>
      </trkpt>
      <trkpt lat="43.47487" lon="2.50639">
        <ele>285</ele>
        <time>2024-04-06T15:34:32Z</time>
      </trkpt>
      <trkpt lat="43.47476" lon="2.50672">
        <ele>285</ele>
        <time>2024-04-06T15:34:36Z</time>
      </trkpt>
      <trkpt lat="43.47479" lon="2.5068">
        <ele>285</ele>
        <time>2024-04-06T15:34:37Z</time>
      </trkpt>
      <trkpt lat="43.47478" lon="2.50692">
        <ele>285</ele>
        <time>2024-04-06T15:34:39Z</time>
      </trkpt>
      <trkpt lat="43.47465" lon="2.50722">
        <ele>285</ele>
        <time>2024-04-06T15:34:44Z</time>
      </trkpt>
      <trkpt lat="43.47463" lon="2.50737">
        <ele>285</ele>
        <time>2024-04-06T15:34:45Z</time>
      </trkpt>
      <trkpt lat="43.47468" lon="2.50743">
        <ele>285</ele>
        <time>2024-04-06T15:34:47Z</time>
      </trkpt>
      <trkpt lat="43.47391" lon="2.50907">
        <ele>284</ele>
        <time>2024-04-06T15:35:12Z</time>
      </trkpt>
      <trkpt lat="43.47364" lon="2.50979">
        <ele>283</ele>
        <time>2024-04-06T15:35:22Z</time>
      </trkpt>
      <trkpt lat="43.47333" lon="2.51087">
        <ele>286</ele>
        <time>2024-04-06T15:35:37Z</time>
      </trkpt>
      <trkpt lat="43.4733" lon="2.51098">
        <ele>286</ele>
        <time>2024-04-06T15:35:39Z</time>
      </trkpt>
      <trkpt lat="43.47284" lon="2.51289">
        <ele>286</ele>
        <time>2024-04-06T15:36:05Z</time>
      </trkpt>
      <trkpt lat="43.47156" lon="2.51808">
        <ele>287</ele>
        <time>2024-04-06T15:37:16Z</time>
      </trkpt>
      <trkpt lat="43.47153" lon="2.51819">
        <ele>287</ele>
        <time>2024-04-06T15:37:17Z</time>
      </trkpt>
      <trkpt lat="43.47075" lon="2.52142">
        <ele>285</ele>
        <time>2024-04-06T15:38:01Z</time>
      </trkpt>
      <trkpt lat="43.47072" lon="2.52154">
        <ele>285</ele>
        <time>2024-04-06T15:38:03Z</time>
      </trkpt>
      <trkpt lat="43.47047" lon="2.5226">
        <ele>284</ele>
        <time>2024-04-06T15:38:17Z</time>
      </trkpt>
      <trkpt lat="43.47039" lon="2.52305">
        <ele>285</ele>
        <time>2024-04-06T15:38:23Z</time>
      </trkpt>
      <trkpt lat="43.47029" lon="2.5238">
        <ele>286</ele>
        <time>2024-04-06T15:38:33Z</time>
      </trkpt>
      <trkpt lat="43.47026" lon="2.52471">
        <ele>287</ele>
        <time>2024-04-06T15:38:45Z</time>
      </trkpt>
      <trkpt lat="43.4703" lon="2.52567">
        <ele>287</ele>
        <time>2024-04-06T15:38:57Z</time>
      </trkpt>
      <trkpt lat="43.47057" lon="2.52808">
        <ele>291</ele>
        <time>2024-04-06T15:39:29Z</time>
      </trkpt>
      <trkpt lat="43.47083" lon="2.53017">
        <ele>293</ele>
        <time>2024-04-06T15:39:56Z</time>
      </trkpt>
      <trkpt lat="43.47085" lon="2.53051">
        <ele>294</ele>
        <time>2024-04-06T15:40:00Z</time>
      </trkpt>
      <trkpt lat="43.47086" lon="2.53211">
        <ele>299</ele>
        <time>2024-04-06T15:40:21Z</time>
      </trkpt>
      <trkpt lat="43.47085" lon="2.53446">
        <ele>296</ele>
        <time>2024-04-06T15:40:51Z</time>
      </trkpt>
      <trkpt lat="43.47093" lon="2.53477">
        <ele>296</ele>
        <time>2024-04-06T15:40:56Z</time>
      </trkpt>
      <trkpt lat="43.47093" lon="2.53483">
        <ele>296</ele>
        <time>2024-04-06T15:40:56Z</time>
      </trkpt>
      <trkpt lat="43.47093" lon="2.53493">
        <ele>296</ele>
        <time>2024-04-06T15:40:58Z</time>
      </trkpt>
      <trkpt lat="43.47084" lon="2.5353">
        <ele>297</ele>
        <time>2024-04-06T15:41:03Z</time>
      </trkpt>
      <trkpt lat="43.47084" lon="2.53593">
        <ele>300</ele>
        <time>2024-04-06T15:41:11Z</time>
      </trkpt>
      <trkpt lat="43.47084" lon="2.53626">
        <ele>300</ele>
        <time>2024-04-06T15:41:15Z</time>
      </trkpt>
      <trkpt lat="43.47084" lon="2.53722">
        <ele>298</ele>
        <time>2024-04-06T15:41:28Z</time>
      </trkpt>
      <trkpt lat="43.47088" lon="2.53751">
        <ele>297</ele>
        <time>2024-04-06T15:41:31Z</time>
      </trkpt>
      <trkpt lat="43.47087" lon="2.53796">
        <ele>297</ele>
        <time>2024-04-06T15:41:37Z</time>
      </trkpt>
      <trkpt lat="43.47" lon="2.53803">
        <ele>300</ele>
        <time>2024-04-06T15:41:53Z</time>
      </trkpt>
      <trkpt lat="43.4699" lon="2.53804">
        <ele>300</ele>
        <time>2024-04-06T15:41:54Z</time>
      </trkpt>
      <trkpt lat="43.46982" lon="2.53604">
        <ele>301</ele>
        <time>2024-04-06T15:42:20Z</time>
      </trkpt>
      <trkpt lat="43.46982" lon="2.5359">
        <ele>301</ele>
        <time>2024-04-06T15:42:22Z</time>
      </trkpt>
      <trkpt lat="43.4698" lon="2.53529">
        <ele>302</ele>
        <time>2024-04-06T15:42:30Z</time>
      </trkpt>
      <trkpt lat="43.46982" lon="2.53498">
        <ele>302</ele>
        <time>2024-04-06T15:42:34Z</time>
      </trkpt>
      <trkpt lat="43.46981" lon="2.53484">
        <ele>303</ele>
        <time>2024-04-06T15:42:36Z</time>
      </trkpt>
      <trkpt lat="43.46984" lon="2.53471">
        <ele>303</ele>
        <time>2024-04-06T15:42:38Z</time>
      </trkpt>
      <trkpt lat="43.46994" lon="2.53437">
        <ele>304</ele>
        <time>2024-04-06T15:42:42Z</time>
      </trkpt>
      <trkpt lat="43.46993" lon="2.53431">
        <ele>304</ele>
        <time>2024-04-06T15:42:43Z</time>
      </trkpt>
      <trkpt lat="43.46981" lon="2.53471">
        <ele>303</ele>
        <time>2024-04-06T15:42:49Z</time>
      </trkpt>
      <trkpt lat="43.46975" lon="2.53508">
        <ele>303</ele>
        <time>2024-04-06T15:42:54Z</time>
      </trkpt>
      <trkpt lat="43.46976" lon="2.53591">
        <ele>301</ele>
        <time>2024-04-06T15:43:04Z</time>
      </trkpt>
      <trkpt lat="43.46976" lon="2.53605">
        <ele>301</ele>
        <time>2024-04-06T15:43:06Z</time>
      </trkpt>
      <trkpt lat="43.47025" lon="2.5476">
        <ele>318</ele>
        <time>2024-04-06T15:45:36Z</time>
      </trkpt>
      <trkpt lat="43.47025" lon="2.54787">
        <ele>318</ele>
        <time>2024-04-06T15:45:39Z</time>
      </trkpt>
      <trkpt lat="43.47023" lon="2.54814">
        <ele>319</ele>
        <time>2024-04-06T15:45:43Z</time>
      </trkpt>
      <trkpt lat="43.47001" lon="2.54964">
        <ele>323</ele>
        <time>2024-04-06T15:46:02Z</time>
      </trkpt>
      <trkpt lat="43.46998" lon="2.54997">
        <ele>326</ele>
        <time>2024-04-06T15:46:07Z</time>
      </trkpt>
      <trkpt lat="43.46998" lon="2.55032">
        <ele>328</ele>
        <time>2024-04-06T15:46:11Z</time>
      </trkpt>
      <trkpt lat="43.47002" lon="2.55086">
        <ele>331</ele>
        <time>2024-04-06T15:46:18Z</time>
      </trkpt>
      <trkpt lat="43.47007" lon="2.55122">
        <ele>333</ele>
        <time>2024-04-06T15:46:23Z</time>
      </trkpt>
      <trkpt lat="43.47061" lon="2.55365">
        <ele>342</ele>
        <time>2024-04-06T15:46:56Z</time>
      </trkpt>
      <trkpt lat="43.47065" lon="2.55398">
        <ele>340</ele>
        <time>2024-04-06T15:47:00Z</time>
      </trkpt>
      <trkpt lat="43.47064" lon="2.55439">
        <ele>338</ele>
        <time>2024-04-06T15:47:05Z</time>
      </trkpt>
      <trkpt lat="43.47059" lon="2.55469">
        <ele>335</ele>
        <time>2024-04-06T15:47:09Z</time>
      </trkpt>
      <trkpt lat="43.47034" lon="2.55564">
        <ele>326</ele>
        <time>2024-04-06T15:47:22Z</time>
      </trkpt>
      <trkpt lat="43.47029" lon="2.55593">
        <ele>323</ele>
        <time>2024-04-06T15:47:26Z</time>
      </trkpt>
      <trkpt lat="43.47028" lon="2.55617">
        <ele>322</ele>
        <time>2024-04-06T15:47:29Z</time>
      </trkpt>
      <trkpt lat="43.47032" lon="2.55892">
        <ele>315</ele>
        <time>2024-04-06T15:48:05Z</time>
      </trkpt>
      <trkpt lat="43.47009" lon="2.5652">
        <ele>315</ele>
        <time>2024-04-06T15:49:26Z</time>
      </trkpt>
      <trkpt lat="43.47009" lon="2.5657">
        <ele>316</ele>
        <time>2024-04-06T15:49:32Z</time>
      </trkpt>
      <trkpt lat="43.47032" lon="2.57167">
        <ele>318</ele>
        <time>2024-04-06T15:50:50Z</time>
      </trkpt>
      <trkpt lat="43.47031" lon="2.57219">
        <ele>319</ele>
        <time>2024-04-06T15:50:56Z</time>
      </trkpt>
      <trkpt lat="43.47025" lon="2.57243">
        <ele>320</ele>
        <time>2024-04-06T15:51:00Z</time>
      </trkpt>
      <trkpt lat="43.47017" lon="2.57267">
        <ele>320</ele>
        <time>2024-04-06T15:51:03Z</time>
      </trkpt>
      <trkpt lat="43.46984" lon="2.57337">
        <ele>322</ele>
        <time>2024-04-06T15:51:14Z</time>
      </trkpt>
      <trkpt lat="43.46968" lon="2.57382">
        <ele>324</ele>
        <time>2024-04-06T15:51:20Z</time>
      </trkpt>
      <trkpt lat="43.46961" lon="2.5741">
        <ele>326</ele>
        <time>2024-04-06T15:51:24Z</time>
      </trkpt>
      <trkpt lat="43.46958" lon="2.57433">
        <ele>326</ele>
        <time>2024-04-06T15:51:27Z</time>
      </trkpt>
      <trkpt lat="43.46956" lon="2.57467">
        <ele>327</ele>
        <time>2024-04-06T15:51:32Z</time>
      </trkpt>
      <trkpt lat="43.46959" lon="2.57514">
        <ele>326</ele>
        <time>2024-04-06T15:51:38Z</time>
      </trkpt>
      <trkpt lat="43.46968" lon="2.5756">
        <ele>325</ele>
        <time>2024-04-06T15:51:44Z</time>
      </trkpt>
      <trkpt lat="43.47016" lon="2.57718">
        <ele>324</ele>
        <time>2024-04-06T15:52:06Z</time>
      </trkpt>
      <trkpt lat="43.47025" lon="2.57751">
        <ele>325</ele>
        <time>2024-04-06T15:52:10Z</time>
      </trkpt>
      <trkpt lat="43.4703" lon="2.5778">
        <ele>325</ele>
        <time>2024-04-06T15:52:14Z</time>
      </trkpt>
      <trkpt lat="43.47035" lon="2.57814">
        <ele>326</ele>
        <time>2024-04-06T15:52:19Z</time>
      </trkpt>
      <trkpt lat="43.47038" lon="2.5786">
        <ele>326</ele>
        <time>2024-04-06T15:52:25Z</time>
      </trkpt>
      <trkpt lat="43.47039" lon="2.579">
        <ele>325</ele>
        <time>2024-04-06T15:52:30Z</time>
      </trkpt>
      <trkpt lat="43.47038" lon="2.57945">
        <ele>325</ele>
        <time>2024-04-06T15:52:36Z</time>
      </trkpt>
      <trkpt lat="43.47034" lon="2.57988">
        <ele>326</ele>
        <time>2024-04-06T15:52:41Z</time>
      </trkpt>
      <trkpt lat="43.47025" lon="2.58046">
        <ele>326</ele>
        <time>2024-04-06T15:52:49Z</time>
      </trkpt>
      <trkpt lat="43.46977" lon="2.5823">
        <ele>329</ele>
        <time>2024-04-06T15:53:14Z</time>
      </trkpt>
      <trkpt lat="43.46967" lon="2.5826">
        <ele>329</ele>
        <time>2024-04-06T15:53:19Z</time>
      </trkpt>
      <trkpt lat="43.46949" lon="2.58307">
        <ele>330</ele>
        <time>2024-04-06T15:53:25Z</time>
      </trkpt>
      <trkpt lat="43.46856" lon="2.58581">
        <ele>333</ele>
        <time>2024-04-06T15:54:04Z</time>
      </trkpt>
      <trkpt lat="43.46847" lon="2.586">
        <ele>333</ele>
        <time>2024-04-06T15:54:07Z</time>
      </trkpt>
      <trkpt lat="43.46829" lon="2.58629">
        <ele>333</ele>
        <time>2024-04-06T15:54:12Z</time>
      </trkpt>
      <trkpt lat="43.46814" lon="2.58647">
        <ele>335</ele>
        <time>2024-04-06T15:54:16Z</time>
      </trkpt>
      <trkpt lat="43.46787" lon="2.58681">
        <ele>338</ele>
        <time>2024-04-06T15:54:22Z</time>
      </trkpt>
      <trkpt lat="43.46761" lon="2.58717">
        <ele>341</ele>
        <time>2024-04-06T15:54:29Z</time>
      </trkpt>
      <trkpt lat="43.46746" lon="2.58748">
        <ele>342</ele>
        <time>2024-04-06T15:54:34Z</time>
      </trkpt>
      <trkpt lat="43.46733" lon="2.58778">
        <ele>343</ele>
        <time>2024-04-06T15:54:38Z</time>
      </trkpt>
      <trkpt lat="43.46719" lon="2.58826">
        <ele>344</ele>
        <time>2024-04-06T15:54:45Z</time>
      </trkpt>
      <trkpt lat="43.46714" lon="2.58862">
        <ele>345</ele>
        <time>2024-04-06T15:54:50Z</time>
      </trkpt>
      <trkpt lat="43.46712" lon="2.5892">
        <ele>346</ele>
        <time>2024-04-06T15:54:57Z</time>
      </trkpt>
      <trkpt lat="43.46716" lon="2.58955">
        <ele>347</ele>
        <time>2024-04-06T15:55:02Z</time>
      </trkpt>
      <trkpt lat="43.46725" lon="2.58985">
        <ele>346</ele>
        <time>2024-04-06T15:55:06Z</time>
      </trkpt>
      <trkpt lat="43.46733" lon="2.59003">
        <ele>345</ele>
        <time>2024-04-06T15:55:09Z</time>
      </trkpt>
      <trkpt lat="43.46789" lon="2.59103">
        <ele>347</ele>
        <time>2024-04-06T15:55:25Z</time>
      </trkpt>
      <trkpt lat="43.46827" lon="2.59184">
        <ele>347</ele>
        <time>2024-04-06T15:55:37Z</time>
      </trkpt>
      <trkpt lat="43.4683" lon="2.59191">
        <ele>347</ele>
        <time>2024-04-06T15:55:38Z</time>
      </trkpt>
      <trkpt lat="43.46871" lon="2.59287">
        <ele>348</ele>
        <time>2024-04-06T15:55:53Z</time>
      </trkpt>
      <trkpt lat="43.46892" lon="2.59347">
        <ele>352</ele>
        <time>2024-04-06T15:56:01Z</time>
      </trkpt>
      <trkpt lat="43.4691" lon="2.59431">
        <ele>358</ele>
        <time>2024-04-06T15:56:13Z</time>
      </trkpt>
      <trkpt lat="43.46924" lon="2.59506">
        <ele>363</ele>
        <time>2024-04-06T15:56:23Z</time>
      </trkpt>
      <trkpt lat="43.46928" lon="2.59546">
        <ele>364</ele>
        <time>2024-04-06T15:56:28Z</time>
      </trkpt>
      <trkpt lat="43.46953" lon="2.59875">
        <ele>375</ele>
        <time>2024-04-06T15:57:11Z</time>
      </trkpt>
      <trkpt lat="43.46955" lon="2.59935">
        <ele>381</ele>
        <time>2024-04-06T15:57:18Z</time>
      </trkpt>
      <trkpt lat="43.46953" lon="2.60001">
        <ele>386</ele>
        <time>2024-04-06T15:57:27Z</time>
      </trkpt>
      <trkpt lat="43.46942" lon="2.60093">
        <ele>392</ele>
        <time>2024-04-06T15:57:39Z</time>
      </trkpt>
      <trkpt lat="43.46932" lon="2.60147">
        <ele>391</ele>
        <time>2024-04-06T15:57:46Z</time>
      </trkpt>
      <trkpt lat="43.46896" lon="2.60318">
        <ele>390</ele>
        <time>2024-04-06T15:58:09Z</time>
      </trkpt>
      <trkpt lat="43.46885" lon="2.60384">
        <ele>390</ele>
        <time>2024-04-06T15:58:18Z</time>
      </trkpt>
      <trkpt lat="43.46895" lon="2.60386">
        <ele>387</ele>
        <time>2024-04-06T15:58:20Z</time>
      </trkpt>
      <trkpt lat="43.46885" lon="2.60384">
        <ele>390</ele>
        <time>2024-04-06T15:58:22Z</time>
      </trkpt>
      <trkpt lat="43.46882" lon="2.60429">
        <ele>389</ele>
        <time>2024-04-06T15:58:27Z</time>
      </trkpt>
      <trkpt lat="43.46881" lon="2.60464">
        <ele>388</ele>
        <time>2024-04-06T15:58:32Z</time>
      </trkpt>
      <trkpt lat="43.46887" lon="2.60575">
        <ele>385</ele>
        <time>2024-04-06T15:58:46Z</time>
      </trkpt>
      <trkpt lat="43.46901" lon="2.60763">
        <ele>385</ele>
        <time>2024-04-06T15:59:11Z</time>
      </trkpt>
      <trkpt lat="43.46907" lon="2.60794">
        <ele>386</ele>
        <time>2024-04-06T15:59:15Z</time>
      </trkpt>
      <trkpt lat="43.46915" lon="2.60828">
        <ele>386</ele>
        <time>2024-04-06T15:59:19Z</time>
      </trkpt>
      <trkpt lat="43.46926" lon="2.60862">
        <ele>386</ele>
        <time>2024-04-06T15:59:24Z</time>
      </trkpt>
      <trkpt lat="43.46941" lon="2.60896">
        <ele>385</ele>
        <time>2024-04-06T15:59:29Z</time>
      </trkpt>
      <trkpt lat="43.46966" lon="2.6094">
        <ele>384</ele>
        <time>2024-04-06T15:59:37Z</time>
      </trkpt>
      <trkpt lat="43.46982" lon="2.6096">
        <ele>385</ele>
        <time>2024-04-06T15:59:40Z</time>
      </trkpt>
      <trkpt lat="43.47019" lon="2.61002">
        <ele>385</ele>
        <time>2024-04-06T15:59:49Z</time>
      </trkpt>
      <trkpt lat="43.47069" lon="2.61054">
        <ele>385</ele>
        <time>2024-04-06T16:00:00Z</time>
      </trkpt>
      <trkpt lat="43.47115" lon="2.61097">
        <ele>383</ele>
        <time>2024-04-06T16:00:10Z</time>
      </trkpt>
      <trkpt lat="43.47143" lon="2.61128">
        <ele>379</ele>
        <time>2024-04-06T16:00:16Z</time>
      </trkpt>
      <trkpt lat="43.47156" lon="2.61147">
        <ele>375</ele>
        <time>2024-04-06T16:00:20Z</time>
      </trkpt>
      <trkpt lat="43.47169" lon="2.61171">
        <ele>373</ele>
        <time>2024-04-06T16:00:24Z</time>
      </trkpt>
      <trkpt lat="43.47187" lon="2.61213">
        <ele>377</ele>
        <time>2024-04-06T16:00:30Z</time>
      </trkpt>
      <trkpt lat="43.47251" lon="2.61479">
        <ele>381</ele>
        <time>2024-04-06T16:01:06Z</time>
      </trkpt>
      <trkpt lat="43.47279" lon="2.6159">
        <ele>378</ele>
        <time>2024-04-06T16:01:21Z</time>
      </trkpt>
      <trkpt lat="43.47316" lon="2.61722">
        <ele>380</ele>
        <time>2024-04-06T16:01:40Z</time>
      </trkpt>
      <trkpt lat="43.47337" lon="2.61774">
        <ele>382</ele>
        <time>2024-04-06T16:01:47Z</time>
      </trkpt>
      <trkpt lat="43.47386" lon="2.61882">
        <ele>384</ele>
        <time>2024-04-06T16:02:04Z</time>
      </trkpt>
      <trkpt lat="43.47416" lon="2.61985">
        <ele>383</ele>
        <time>2024-04-06T16:02:18Z</time>
      </trkpt>
      <trkpt lat="43.4743" lon="2.62027">
        <ele>385</ele>
        <time>2024-04-06T16:02:24Z</time>
      </trkpt>
      <trkpt lat="43.47482" lon="2.62157">
        <ele>385</ele>
        <time>2024-04-06T16:02:43Z</time>
      </trkpt>
      <trkpt lat="43.47498" lon="2.62191">
        <ele>382</ele>
        <time>2024-04-06T16:02:48Z</time>
      </trkpt>
      <trkpt lat="43.47527" lon="2.62232">
        <ele>385</ele>
        <time>2024-04-06T16:02:56Z</time>
      </trkpt>
      <trkpt lat="43.47564" lon="2.62277">
        <ele>386</ele>
        <time>2024-04-06T16:03:05Z</time>
      </trkpt>
      <trkpt lat="43.47594" lon="2.62312">
        <ele>387</ele>
        <time>2024-04-06T16:03:12Z</time>
      </trkpt>
      <trkpt lat="43.47611" lon="2.62337">
        <ele>388</ele>
        <time>2024-04-06T16:03:16Z</time>
      </trkpt>
      <trkpt lat="43.47624" lon="2.62373">
        <ele>389</ele>
        <time>2024-04-06T16:03:21Z</time>
      </trkpt>
      <trkpt lat="43.47628" lon="2.62401">
        <ele>390</ele>
        <time>2024-04-06T16:03:25Z</time>
      </trkpt>
      <trkpt lat="43.47627" lon="2.62429">
        <ele>392</ele>
        <time>2024-04-06T16:03:28Z</time>
      </trkpt>
      <trkpt lat="43.47623" lon="2.62472">
        <ele>394</ele>
        <time>2024-04-06T16:03:34Z</time>
      </trkpt>
      <trkpt lat="43.47618" lon="2.62496">
        <ele>396</ele>
        <time>2024-04-06T16:03:37Z</time>
      </trkpt>
      <trkpt lat="43.47605" lon="2.62531">
        <ele>396</ele>
        <time>2024-04-06T16:03:42Z</time>
      </trkpt>
      <trkpt lat="43.47595" lon="2.62548">
        <ele>395</ele>
        <time>2024-04-06T16:03:45Z</time>
      </trkpt>
      <trkpt lat="43.47544" lon="2.62603">
        <ele>401</ele>
        <time>2024-04-06T16:03:57Z</time>
      </trkpt>
      <trkpt lat="43.47528" lon="2.6263">
        <ele>400</ele>
        <time>2024-04-06T16:04:01Z</time>
      </trkpt>
      <trkpt lat="43.47517" lon="2.62659">
        <ele>396</ele>
        <time>2024-04-06T16:04:05Z</time>
      </trkpt>
      <trkpt lat="43.47503" lon="2.62715">
        <ele>391</ele>
        <time>2024-04-06T16:04:13Z</time>
      </trkpt>
      <trkpt lat="43.47498" lon="2.62745">
        <ele>388</ele>
        <time>2024-04-06T16:04:17Z</time>
      </trkpt>
      <trkpt lat="43.47496" lon="2.6278">
        <ele>387</ele>
        <time>2024-04-06T16:04:22Z</time>
      </trkpt>
      <trkpt lat="43.47497" lon="2.62812">
        <ele>387</ele>
        <time>2024-04-06T16:04:26Z</time>
      </trkpt>
      <trkpt lat="43.47501" lon="2.62865">
        <ele>386</ele>
        <time>2024-04-06T16:04:33Z</time>
      </trkpt>
      <trkpt lat="43.47509" lon="2.62904">
        <ele>386</ele>
        <time>2024-04-06T16:04:38Z</time>
      </trkpt>
      <trkpt lat="43.47539" lon="2.63006">
        <ele>389</ele>
        <time>2024-04-06T16:04:52Z</time>
      </trkpt>
      <trkpt lat="43.47554" lon="2.63065">
        <ele>388</ele>
        <time>2024-04-06T16:05:00Z</time>
      </trkpt>
      <trkpt lat="43.47577" lon="2.63207">
        <ele>387</ele>
        <time>2024-04-06T16:05:19Z</time>
      </trkpt>
      <trkpt lat="43.47587" lon="2.63304">
        <ele>388</ele>
        <time>2024-04-06T16:05:32Z</time>
      </trkpt>
      <trkpt lat="43.47631" lon="2.63923">
        <ele>394</ele>
        <time>2024-04-06T16:06:52Z</time>
      </trkpt>
      <trkpt lat="43.47632" lon="2.63939">
        <ele>395</ele>
        <time>2024-04-06T16:06:54Z</time>
      </trkpt>
      <trkpt lat="43.47639" lon="2.64028">
        <ele>399</ele>
        <time>2024-04-06T16:07:06Z</time>
      </trkpt>
      <trkpt lat="43.4764" lon="2.64069">
        <ele>400</ele>
        <time>2024-04-06T16:07:11Z</time>
      </trkpt>
      <trkpt lat="43.47637" lon="2.64088">
        <ele>401</ele>
        <time>2024-04-06T16:07:13Z</time>
      </trkpt>
      <trkpt lat="43.47629" lon="2.6411">
        <ele>402</ele>
        <time>2024-04-06T16:07:16Z</time>
      </trkpt>
      <trkpt lat="43.47483" lon="2.64446">
        <ele>406</ele>
        <time>2024-04-06T16:08:07Z</time>
      </trkpt>
      <trkpt lat="43.47468" lon="2.64506">
        <ele>408</ele>
        <time>2024-04-06T16:08:15Z</time>
      </trkpt>
      <trkpt lat="43.47464" lon="2.64521">
        <ele>408</ele>
        <time>2024-04-06T16:08:17Z</time>
      </trkpt>
      <trkpt lat="43.474" lon="2.64801">
        <ele>413</ele>
        <time>2024-04-06T16:08:55Z</time>
      </trkpt>
      <trkpt lat="43.47397" lon="2.64826">
        <ele>414</ele>
        <time>2024-04-06T16:08:58Z</time>
      </trkpt>
      <trkpt lat="43.47398" lon="2.64868">
        <ele>415</ele>
        <time>2024-04-06T16:09:04Z</time>
      </trkpt>
      <trkpt lat="43.47403" lon="2.64893">
        <ele>416</ele>
        <time>2024-04-06T16:09:07Z</time>
      </trkpt>
      <trkpt lat="43.47414" lon="2.64924">
        <ele>418</ele>
        <time>2024-04-06T16:09:12Z</time>
      </trkpt>
      <trkpt lat="43.47541" lon="2.65192">
        <ele>423</ele>
        <time>2024-04-06T16:09:53Z</time>
      </trkpt>
      <trkpt lat="43.47557" lon="2.65228">
        <ele>423</ele>
        <time>2024-04-06T16:09:58Z</time>
      </trkpt>
      <trkpt lat="43.47566" lon="2.65255">
        <ele>422</ele>
        <time>2024-04-06T16:10:02Z</time>
      </trkpt>
      <trkpt lat="43.47728" lon="2.65974">
        <ele>433</ele>
        <time>2024-04-06T16:11:40Z</time>
      </trkpt>
      <trkpt lat="43.47753" lon="2.6609">
        <ele>432</ele>
        <time>2024-04-06T16:11:55Z</time>
      </trkpt>
      <trkpt lat="43.47762" lon="2.66156">
        <ele>433</ele>
        <time>2024-04-06T16:12:04Z</time>
      </trkpt>
      <trkpt lat="43.47778" lon="2.66366">
        <ele>439</ele>
        <time>2024-04-06T16:12:31Z</time>
      </trkpt>
      <trkpt lat="43.47784" lon="2.66422">
        <ele>441</ele>
        <time>2024-04-06T16:12:38Z</time>
      </trkpt>
      <trkpt lat="43.47791" lon="2.66462">
        <ele>441</ele>
        <time>2024-04-06T16:12:44Z</time>
      </trkpt>
      <trkpt lat="43.47799" lon="2.66494">
        <ele>441</ele>
        <time>2024-04-06T16:12:48Z</time>
      </trkpt>
      <trkpt lat="43.47859" lon="2.66714">
        <ele>455</ele>
        <time>2024-04-06T16:13:18Z</time>
      </trkpt>
      <trkpt lat="43.47869" lon="2.66783">
        <ele>456</ele>
        <time>2024-04-06T16:13:28Z</time>
      </trkpt>
      <trkpt lat="43.47871" lon="2.66858">
        <ele>456</ele>
        <time>2024-04-06T16:13:37Z</time>
      </trkpt>
      <trkpt lat="43.4787" lon="2.66892">
        <ele>456</ele>
        <time>2024-04-06T16:13:42Z</time>
      </trkpt>
      <trkpt lat="43.47865" lon="2.66922">
        <ele>455</ele>
        <time>2024-04-06T16:13:46Z</time>
      </trkpt>
      <trkpt lat="43.47765" lon="2.67319">
        <ele>464</ele>
        <time>2024-04-06T16:14:40Z</time>
      </trkpt>
      <trkpt lat="43.4776" lon="2.67355">
        <ele>464</ele>
        <time>2024-04-06T16:14:45Z</time>
      </trkpt>
      <trkpt lat="43.47757" lon="2.6739">
        <ele>463</ele>
        <time>2024-04-06T16:14:49Z</time>
      </trkpt>
      <trkpt lat="43.47756" lon="2.67428">
        <ele>462</ele>
        <time>2024-04-06T16:14:54Z</time>
      </trkpt>
      <trkpt lat="43.47757" lon="2.67462">
        <ele>462</ele>
        <time>2024-04-06T16:14:58Z</time>
      </trkpt>
      <trkpt lat="43.47761" lon="2.67495">
        <ele>462</ele>
        <time>2024-04-06T16:15:03Z</time>
      </trkpt>
      <trkpt lat="43.47768" lon="2.67538">
        <ele>463</ele>
        <time>2024-04-06T16:15:08Z</time>
      </trkpt>
      <trkpt lat="43.47779" lon="2.67573">
        <ele>465</ele>
        <time>2024-04-06T16:15:13Z</time>
      </trkpt>
      <trkpt lat="43.47881" lon="2.67844">
        <ele>450</ele>
        <time>2024-04-06T16:15:53Z</time>
      </trkpt>
      <trkpt lat="43.47909" lon="2.67909">
        <ele>444</ele>
        <time>2024-04-06T16:16:03Z</time>
      </trkpt>
      <trkpt lat="43.47943" lon="2.67976">
        <ele>438</ele>
        <time>2024-04-06T16:16:13Z</time>
      </trkpt>
      <trkpt lat="43.47965" lon="2.68028">
        <ele>435</ele>
        <time>2024-04-06T16:16:21Z</time>
      </trkpt>
      <trkpt lat="43.47976" lon="2.68064">
        <ele>434</ele>
        <time>2024-04-06T16:16:26Z</time>
      </trkpt>
      <trkpt lat="43.47982" lon="2.68097">
        <ele>434</ele>
        <time>2024-04-06T16:16:30Z</time>
      </trkpt>
      <trkpt lat="43.47985" lon="2.68129">
        <ele>433</ele>
        <time>2024-04-06T16:16:34Z</time>
      </trkpt>
      <trkpt lat="43.47986" lon="2.68177">
        <ele>432</ele>
        <time>2024-04-06T16:16:41Z</time>
      </trkpt>
      <trkpt lat="43.4798" lon="2.68382">
        <ele>425</ele>
        <time>2024-04-06T16:17:07Z</time>
      </trkpt>
      <trkpt lat="43.47979" lon="2.68411">
        <ele>424</ele>
        <time>2024-04-06T16:17:11Z</time>
      </trkpt>
      <trkpt lat="43.47976" lon="2.68487">
        <ele>422</ele>
        <time>2024-04-06T16:17:21Z</time>
      </trkpt>
      <trkpt lat="43.47977" lon="2.68546">
        <ele>422</ele>
        <time>2024-04-06T16:17:28Z</time>
      </trkpt>
      <trkpt lat="43.47979" lon="2.6858">
        <ele>422</ele>
        <time>2024-04-06T16:17:33Z</time>
      </trkpt>
      <trkpt lat="43.47984" lon="2.68611">
        <ele>420</ele>
        <time>2024-04-06T16:17:37Z</time>
      </trkpt>
      <trkpt lat="43.47992" lon="2.68646">
        <ele>418</ele>
        <time>2024-04-06T16:17:42Z</time>
      </trkpt>
      <trkpt lat="43.48004" lon="2.68691">
        <ele>414</ele>
        <time>2024-04-06T16:17:48Z</time>
      </trkpt>
      <trkpt lat="43.48084" lon="2.68946">
        <ele>402</ele>
        <time>2024-04-06T16:18:24Z</time>
      </trkpt>
      <trkpt lat="43.48097" lon="2.69005">
        <ele>402</ele>
        <time>2024-04-06T16:18:32Z</time>
      </trkpt>
      <trkpt lat="43.48099" lon="2.69036">
        <ele>402</ele>
        <time>2024-04-06T16:18:36Z</time>
      </trkpt>
      <trkpt lat="43.48098" lon="2.69086">
        <ele>401</ele>
        <time>2024-04-06T16:18:42Z</time>
      </trkpt>
      <trkpt lat="43.48093" lon="2.6914">
        <ele>401</ele>
        <time>2024-04-06T16:18:49Z</time>
      </trkpt>
      <trkpt lat="43.48078" lon="2.69239">
        <ele>400</ele>
        <time>2024-04-06T16:19:02Z</time>
      </trkpt>
      <trkpt lat="43.48036" lon="2.69474">
        <ele>398</ele>
        <time>2024-04-06T16:19:33Z</time>
      </trkpt>
      <trkpt lat="43.48025" lon="2.69526">
        <ele>398</ele>
        <time>2024-04-06T16:19:40Z</time>
      </trkpt>
      <trkpt lat="43.48015" lon="2.6956">
        <ele>398</ele>
        <time>2024-04-06T16:19:45Z</time>
      </trkpt>
      <trkpt lat="43.4787" lon="2.69955">
        <ele>391</ele>
        <time>2024-04-06T16:20:42Z</time>
      </trkpt>
      <trkpt lat="43.4785" lon="2.69988">
        <ele>390</ele>
        <time>2024-04-06T16:20:48Z</time>
      </trkpt>
      <trkpt lat="43.47843" lon="2.6999">
        <ele>390</ele>
        <time>2024-04-06T16:20:49Z</time>
      </trkpt>
      <trkpt lat="43.47838" lon="2.69995">
        <ele>390</ele>
        <time>2024-04-06T16:20:50Z</time>
      </trkpt>
      <trkpt lat="43.47835" lon="2.70001">
        <ele>390</ele>
        <time>2024-04-06T16:20:51Z</time>
      </trkpt>
      <trkpt lat="43.47834" lon="2.70009">
        <ele>390</ele>
        <time>2024-04-06T16:20:52Z</time>
      </trkpt>
      <trkpt lat="43.47835" lon="2.70018">
        <ele>389</ele>
        <time>2024-04-06T16:20:53Z</time>
      </trkpt>
      <trkpt lat="43.47838" lon="2.70024">
        <ele>389</ele>
        <time>2024-04-06T16:20:54Z</time>
      </trkpt>
      <trkpt lat="43.47836" lon="2.70037">
        <ele>389</ele>
        <time>2024-04-06T16:20:56Z</time>
      </trkpt>
      <trkpt lat="43.47828" lon="2.70067">
        <ele>387</ele>
        <time>2024-04-06T16:21:00Z</time>
      </trkpt>
      <trkpt lat="43.47654" lon="2.70548">
        <ele>378</ele>
        <time>2024-04-06T16:22:10Z</time>
      </trkpt>
      <trkpt lat="43.47622" lon="2.70619">
        <ele>376</ele>
        <time>2024-04-06T16:22:20Z</time>
      </trkpt>
      <trkpt lat="43.47569" lon="2.70725">
        <ele>374</ele>
        <time>2024-04-06T16:22:37Z</time>
      </trkpt>
      <trkpt lat="43.4754" lon="2.70778">
        <ele>373</ele>
        <time>2024-04-06T16:22:46Z</time>
      </trkpt>
      <trkpt lat="43.4754" lon="2.70785">
        <ele>373</ele>
        <time>2024-04-06T16:22:46Z</time>
      </trkpt>
      <trkpt lat="43.47533" lon="2.70798">
        <ele>374</ele>
        <time>2024-04-06T16:22:49Z</time>
      </trkpt>
      <trkpt lat="43.47528" lon="2.70802">
        <ele>373</ele>
        <time>2024-04-06T16:22:50Z</time>
      </trkpt>
      <trkpt lat="43.4751" lon="2.70844">
        <ele>375</ele>
        <time>2024-04-06T16:22:56Z</time>
      </trkpt>
      <trkpt lat="43.47424" lon="2.71017">
        <ele>372</ele>
        <time>2024-04-06T16:23:23Z</time>
      </trkpt>
      <trkpt lat="43.474" lon="2.71076">
        <ele>370</ele>
        <time>2024-04-06T16:23:32Z</time>
      </trkpt>
      <trkpt lat="43.47371" lon="2.71153">
        <ele>369</ele>
        <time>2024-04-06T16:23:43Z</time>
      </trkpt>
      <trkpt lat="43.47358" lon="2.71185">
        <ele>368</ele>
        <time>2024-04-06T16:23:48Z</time>
      </trkpt>
      <trkpt lat="43.4735" lon="2.71196">
        <ele>367</ele>
        <time>2024-04-06T16:23:50Z</time>
      </trkpt>
      <trkpt lat="43.47344" lon="2.71197">
        <ele>367</ele>
        <time>2024-04-06T16:23:51Z</time>
      </trkpt>
      <trkpt lat="43.47341" lon="2.71204">
        <ele>366</ele>
        <time>2024-04-06T16:23:52Z</time>
      </trkpt>
      <trkpt lat="43.47341" lon="2.71209">
        <ele>366</ele>
        <time>2024-04-06T16:23:52Z</time>
      </trkpt>
      <trkpt lat="43.47343" lon="2.71212">
        <ele>367</ele>
        <time>2024-04-06T16:23:53Z</time>
      </trkpt>
      <trkpt lat="43.47332" lon="2.71261">
        <ele>366</ele>
        <time>2024-04-06T16:24:00Z</time>
      </trkpt>
      <trkpt lat="43.47255" lon="2.71469">
        <ele>363</ele>
        <time>2024-04-06T16:24:30Z</time>
      </trkpt>
      <trkpt lat="43.47221" lon="2.71572">
        <ele>367</ele>
        <time>2024-04-06T16:24:44Z</time>
      </trkpt>
      <trkpt lat="43.47209" lon="2.71615">
        <ele>369</ele>
        <time>2024-04-06T16:24:50Z</time>
      </trkpt>
      <trkpt lat="43.47192" lon="2.71702">
        <ele>369</ele>
        <time>2024-04-06T16:25:02Z</time>
      </trkpt>
      <trkpt lat="43.47187" lon="2.71753">
        <ele>369</ele>
        <time>2024-04-06T16:25:09Z</time>
      </trkpt>
      <trkpt lat="43.4719" lon="2.71806">
        <ele>370</ele>
        <time>2024-04-06T16:25:15Z</time>
      </trkpt>
      <trkpt lat="43.47262" lon="2.72476">
        <ele>363</ele>
        <time>2024-04-06T16:26:43Z</time>
      </trkpt>
      <trkpt lat="43.47272" lon="2.72546">
        <ele>363</ele>
        <time>2024-04-06T16:26:52Z</time>
      </trkpt>
      <trkpt lat="43.47294" lon="2.72644">
        <ele>363</ele>
        <time>2024-04-06T16:27:05Z</time>
      </trkpt>
      <trkpt lat="43.4731" lon="2.727">
        <ele>363</ele>
        <time>2024-04-06T16:27:13Z</time>
      </trkpt>
      <trkpt lat="43.4736" lon="2.72843">
        <ele>363</ele>
        <time>2024-04-06T16:27:34Z</time>
      </trkpt>
      <trkpt lat="43.47389" lon="2.72911">
        <ele>360</ele>
        <time>2024-04-06T16:27:44Z</time>
      </trkpt>
      <trkpt lat="43.47401" lon="2.72943">
        <ele>358</ele>
        <time>2024-04-06T16:27:48Z</time>
      </trkpt>
      <trkpt lat="43.47412" lon="2.72975">
        <ele>356</ele>
        <time>2024-04-06T16:27:53Z</time>
      </trkpt>
      <trkpt lat="43.47424" lon="2.73032">
        <ele>355</ele>
        <time>2024-04-06T16:28:01Z</time>
      </trkpt>
      <trkpt lat="43.47426" lon="2.73073">
        <ele>356</ele>
        <time>2024-04-06T16:28:06Z</time>
      </trkpt>
      <trkpt lat="43.47426" lon="2.7311">
        <ele>355</ele>
        <time>2024-04-06T16:28:11Z</time>
      </trkpt>
      <trkpt lat="43.47429" lon="2.73141">
        <ele>355</ele>
        <time>2024-04-06T16:28:15Z</time>
      </trkpt>
      <trkpt lat="43.47438" lon="2.73182">
        <ele>356</ele>
        <time>2024-04-06T16:28:20Z</time>
      </trkpt>
      <trkpt lat="43.47485" lon="2.73345">
        <ele>354</ele>
        <time>2024-04-06T16:28:43Z</time>
      </trkpt>
      <trkpt lat="43.47503" lon="2.73394">
        <ele>351</ele>
        <time>2024-04-06T16:28:50Z</time>
      </trkpt>
      <trkpt lat="43.47547" lon="2.73499">
        <ele>350</ele>
        <time>2024-04-06T16:29:06Z</time>
      </trkpt>
      <trkpt lat="43.47576" lon="2.73557">
        <ele>350</ele>
        <time>2024-04-06T16:29:15Z</time>
      </trkpt>
      <trkpt lat="43.47647" lon="2.73675">
        <ele>351</ele>
        <time>2024-04-06T16:29:35Z</time>
      </trkpt>
      <trkpt lat="43.47745" lon="2.73849">
        <ele>350</ele>
        <time>2024-04-06T16:30:03Z</time>
      </trkpt>
      <trkpt lat="43.47767" lon="2.73896">
        <ele>350</ele>
        <time>2024-04-06T16:30:10Z</time>
      </trkpt>
      <trkpt lat="43.47782" lon="2.73936">
        <ele>348</ele>
        <time>2024-04-06T16:30:16Z</time>
      </trkpt>
      <trkpt lat="43.47796" lon="2.73985">
        <ele>345</ele>
        <time>2024-04-06T16:30:23Z</time>
      </trkpt>
      <trkpt lat="43.47804" lon="2.74034">
        <ele>345</ele>
        <time>2024-04-06T16:30:29Z</time>
      </trkpt>
      <trkpt lat="43.47807" lon="2.74074">
        <ele>347</ele>
        <time>2024-04-06T16:30:35Z</time>
      </trkpt>
      <trkpt lat="43.47807" lon="2.74119">
        <ele>350</ele>
        <time>2024-04-06T16:30:40Z</time>
      </trkpt>
      <trkpt lat="43.47803" lon="2.74207">
        <ele>353</ele>
        <time>2024-04-06T16:30:52Z</time>
      </trkpt>
      <trkpt lat="43.47797" lon="2.74302">
        <ele>353</ele>
        <time>2024-04-06T16:31:04Z</time>
      </trkpt>
      <trkpt lat="43.47791" lon="2.74483">
        <ele>351</ele>
        <time>2024-04-06T16:31:27Z</time>
      </trkpt>
      <trkpt lat="43.47793" lon="2.74518">
        <ele>352</ele>
        <time>2024-04-06T16:31:32Z</time>
      </trkpt>
      <trkpt lat="43.47805" lon="2.74619">
        <ele>359</ele>
        <time>2024-04-06T16:31:45Z</time>
      </trkpt>
      <trkpt lat="43.47811" lon="2.74805">
        <ele>359</ele>
        <time>2024-04-06T16:32:09Z</time>
      </trkpt>
      <trkpt lat="43.47817" lon="2.74854">
        <ele>360</ele>
        <time>2024-04-06T16:32:16Z</time>
      </trkpt>
      <trkpt lat="43.47825" lon="2.74885">
        <ele>361</ele>
        <time>2024-04-06T16:32:20Z</time>
      </trkpt>
      <trkpt lat="43.47837" lon="2.74915">
        <ele>363</ele>
        <time>2024-04-06T16:32:24Z</time>
      </trkpt>
      <trkpt lat="43.47862" lon="2.74953">
        <ele>365</ele>
        <time>2024-04-06T16:32:31Z</time>
      </trkpt>
      <trkpt lat="43.47906" lon="2.75012">
        <ele>370</ele>
        <time>2024-04-06T16:32:42Z</time>
      </trkpt>
      <trkpt lat="43.47925" lon="2.75032">
        <ele>369</ele>
        <time>2024-04-06T16:32:46Z</time>
      </trkpt>
      <trkpt lat="43.47967" lon="2.75061">
        <ele>369</ele>
        <time>2024-04-06T16:32:54Z</time>
      </trkpt>
      <trkpt lat="43.48025" lon="2.75085">
        <ele>375</ele>
        <time>2024-04-06T16:33:05Z</time>
      </trkpt>
      <trkpt lat="43.48064" lon="2.75108">
        <ele>378</ele>
        <time>2024-04-06T16:33:13Z</time>
      </trkpt>
      <trkpt lat="43.48088" lon="2.7512">
        <ele>381</ele>
        <time>2024-04-06T16:33:17Z</time>
      </trkpt>
      <trkpt lat="43.48115" lon="2.75129">
        <ele>383</ele>
        <time>2024-04-06T16:33:22Z</time>
      </trkpt>
      <trkpt lat="43.48129" lon="2.75132">
        <ele>384</ele>
        <time>2024-04-06T16:33:25Z</time>
      </trkpt>
      <trkpt lat="43.48246" lon="2.7513">
        <ele>381</ele>
        <time>2024-04-06T16:33:46Z</time>
      </trkpt>
      <trkpt lat="43.48349" lon="2.75135">
        <ele>369</ele>
        <time>2024-04-06T16:34:04Z</time>
      </trkpt>
      <trkpt lat="43.48402" lon="2.75125">
        <ele>363</ele>
        <time>2024-04-06T16:34:13Z</time>
      </trkpt>
      <trkpt lat="43.48426" lon="2.75129">
        <ele>362</ele>
        <time>2024-04-06T16:34:18Z</time>
      </trkpt>
      <trkpt lat="43.48441" lon="2.75137">
        <ele>364</ele>
        <time>2024-04-06T16:34:21Z</time>
      </trkpt>
      <trkpt lat="43.48454" lon="2.7515">
        <ele>364</ele>
        <time>2024-04-06T16:34:23Z</time>
      </trkpt>
      <trkpt lat="43.48572" lon="2.75316">
        <ele>352</ele>
        <time>2024-04-06T16:34:53Z</time>
      </trkpt>
      <trkpt lat="43.48602" lon="2.75362">
        <ele>348</ele>
        <time>2024-04-06T16:35:01Z</time>
      </trkpt>
      <trkpt lat="43.48608" lon="2.7538">
        <ele>347</ele>
        <time>2024-04-06T16:35:04Z</time>
      </trkpt>
      <trkpt lat="43.48605" lon="2.75384">
        <ele>346</ele>
        <time>2024-04-06T16:35:05Z</time>
      </trkpt>
      <trkpt lat="43.48603" lon="2.75393">
        <ele>345</ele>
        <time>2024-04-06T16:35:06Z</time>
      </trkpt>
      <trkpt lat="43.48599" lon="2.75398">
        <ele>345</ele>
        <time>2024-04-06T16:35:07Z</time>
      </trkpt>
      <trkpt lat="43.48595" lon="2.75405">
        <ele>344</ele>
        <time>2024-04-06T16:35:08Z</time>
      </trkpt>
      <trkpt lat="43.48592" lon="2.75422">
        <ele>343</ele>
        <time>2024-04-06T16:35:10Z</time>
      </trkpt>
      <trkpt lat="43.48595" lon="2.75449">
        <ele>345</ele>
        <time>2024-04-06T16:35:14Z</time>
      </trkpt>
      <trkpt lat="43.48605" lon="2.75472">
        <ele>346</ele>
        <time>2024-04-06T16:35:17Z</time>
      </trkpt>
      <trkpt lat="43.48623" lon="2.75503">
        <ele>344</ele>
        <time>2024-04-06T16:35:22Z</time>
      </trkpt>
      <trkpt lat="43.48632" lon="2.7553">
        <ele>345</ele>
        <time>2024-04-06T16:35:26Z</time>
      </trkpt>
      <trkpt lat="43.48639" lon="2.75589">
        <ele>347</ele>
        <time>2024-04-06T16:35:34Z</time>
      </trkpt>
      <trkpt lat="43.4864" lon="2.75612">
        <ele>347</ele>
        <time>2024-04-06T16:35:37Z</time>
      </trkpt>
      <trkpt lat="43.48636" lon="2.7565">
        <ele>349</ele>
        <time>2024-04-06T16:35:42Z</time>
      </trkpt>
      <trkpt lat="43.48639" lon="2.75773">
        <ele>342</ele>
        <time>2024-04-06T16:35:58Z</time>
      </trkpt>
      <trkpt lat="43.48639" lon="2.75806">
        <ele>339</ele>
        <time>2024-04-06T16:36:02Z</time>
      </trkpt>
      <trkpt lat="43.48642" lon="2.75837">
        <ele>336</ele>
        <time>2024-04-06T16:36:06Z</time>
      </trkpt>
      <trkpt lat="43.48654" lon="2.75895">
        <ele>332</ele>
        <time>2024-04-06T16:36:14Z</time>
      </trkpt>
      <trkpt lat="43.48666" lon="2.75942">
        <ele>330</ele>
        <time>2024-04-06T16:36:20Z</time>
      </trkpt>
      <trkpt lat="43.48704" lon="2.76009">
        <ele>325</ele>
        <time>2024-04-06T16:36:31Z</time>
      </trkpt>
      <trkpt lat="43.48706" lon="2.76022">
        <ele>325</ele>
        <time>2024-04-06T16:36:33Z</time>
      </trkpt>
      <trkpt lat="43.48709" lon="2.76106">
        <ele>324</ele>
        <time>2024-04-06T16:36:44Z</time>
      </trkpt>
      <trkpt lat="43.48707" lon="2.76127">
        <ele>323</ele>
        <time>2024-04-06T16:36:47Z</time>
      </trkpt>
      <trkpt lat="43.48704" lon="2.76143">
        <ele>323</ele>
        <time>2024-04-06T16:36:49Z</time>
      </trkpt>
      <trkpt lat="43.48686" lon="2.76181">
        <ele>324</ele>
        <time>2024-04-06T16:36:55Z</time>
      </trkpt>
      <trkpt lat="43.48679" lon="2.76206">
        <ele>323</ele>
        <time>2024-04-06T16:36:58Z</time>
      </trkpt>
      <trkpt lat="43.48672" lon="2.76249">
        <ele>321</ele>
        <time>2024-04-06T16:37:04Z</time>
      </trkpt>
      <trkpt lat="43.48669" lon="2.76299">
        <ele>318</ele>
        <time>2024-04-06T16:37:10Z</time>
      </trkpt>
      <trkpt lat="43.48673" lon="2.76298">
        <ele>318</ele>
        <time>2024-04-06T16:37:11Z</time>
      </trkpt>
      <trkpt lat="43.48677" lon="2.76301">
        <ele>317</ele>
        <time>2024-04-06T16:37:12Z</time>
      </trkpt>
      <trkpt lat="43.48691" lon="2.76304">
        <ele>316</ele>
        <time>2024-04-06T16:37:14Z</time>
      </trkpt>
      <trkpt lat="43.48768" lon="2.76324">
        <ele>314</ele>
        <time>2024-04-06T16:37:28Z</time>
      </trkpt>
      <trkpt lat="43.48785" lon="2.76342">
        <ele>316</ele>
        <time>2024-04-06T16:37:32Z</time>
      </trkpt>
      <trkpt lat="43.48792" lon="2.76354">
        <ele>317</ele>
        <time>2024-04-06T16:37:34Z</time>
      </trkpt>
      <trkpt lat="43.48787" lon="2.76399">
        <ele>315</ele>
        <time>2024-04-06T16:37:40Z</time>
      </trkpt>
      <trkpt lat="43.48788" lon="2.76416">
        <ele>314</ele>
        <time>2024-04-06T16:37:42Z</time>
      </trkpt>
      <trkpt lat="43.48749" lon="2.76751">
        <ele>304</ele>
        <time>2024-04-06T16:38:26Z</time>
      </trkpt>
      <trkpt lat="43.48743" lon="2.76788">
        <ele>305</ele>
        <time>2024-04-06T16:38:31Z</time>
      </trkpt>
      <trkpt lat="43.48738" lon="2.76833">
        <ele>305</ele>
        <time>2024-04-06T16:38:37Z</time>
      </trkpt>
      <trkpt lat="43.48737" lon="2.76863">
        <ele>304</ele>
        <time>2024-04-06T16:38:41Z</time>
      </trkpt>
      <trkpt lat="43.48732" lon="2.76899">
        <ele>304</ele>
        <time>2024-04-06T16:38:45Z</time>
      </trkpt>
      <trkpt lat="43.48727" lon="2.76959">
        <ele>305</ele>
        <time>2024-04-06T16:38:53Z</time>
      </trkpt>
      <trkpt lat="43.4871" lon="2.77116">
        <ele>309</ele>
        <time>2024-04-06T16:39:14Z</time>
      </trkpt>
      <trkpt lat="43.48709" lon="2.77193">
        <ele>310</ele>
        <time>2024-04-06T16:39:24Z</time>
      </trkpt>
      <trkpt lat="43.48706" lon="2.77235">
        <ele>309</ele>
        <time>2024-04-06T16:39:29Z</time>
      </trkpt>
      <trkpt lat="43.48702" lon="2.77259">
        <ele>309</ele>
        <time>2024-04-06T16:39:32Z</time>
      </trkpt>
      <trkpt lat="43.4869" lon="2.77295">
        <ele>310</ele>
        <time>2024-04-06T16:39:37Z</time>
      </trkpt>
      <trkpt lat="43.4868" lon="2.77311">
        <ele>308</ele>
        <time>2024-04-06T16:39:40Z</time>
      </trkpt>
      <trkpt lat="43.48665" lon="2.7733">
        <ele>304</ele>
        <time>2024-04-06T16:39:44Z</time>
      </trkpt>
      <trkpt lat="43.48623" lon="2.77371">
        <ele>304</ele>
        <time>2024-04-06T16:39:53Z</time>
      </trkpt>
      <trkpt lat="43.48612" lon="2.77381">
        <ele>303</ele>
        <time>2024-04-06T16:39:55Z</time>
      </trkpt>
      <trkpt lat="43.48596" lon="2.77387">
        <ele>300</ele>
        <time>2024-04-06T16:39:58Z</time>
      </trkpt>
      <trkpt lat="43.48574" lon="2.77397">
        <ele>298</ele>
        <time>2024-04-06T16:40:02Z</time>
      </trkpt>
      <trkpt lat="43.4856" lon="2.77404">
        <ele>297</ele>
        <time>2024-04-06T16:40:05Z</time>
      </trkpt>
      <trkpt lat="43.48547" lon="2.77416">
        <ele>296</ele>
        <time>2024-04-06T16:40:08Z</time>
      </trkpt>
      <trkpt lat="43.48541" lon="2.77425">
        <ele>296</ele>
        <time>2024-04-06T16:40:09Z</time>
      </trkpt>
      <trkpt lat="43.48535" lon="2.77449">
        <ele>296</ele>
        <time>2024-04-06T16:40:12Z</time>
      </trkpt>
      <trkpt lat="43.48532" lon="2.77477">
        <ele>296</ele>
        <time>2024-04-06T16:40:16Z</time>
      </trkpt>
      <trkpt lat="43.48532" lon="2.77509">
        <ele>296</ele>
        <time>2024-04-06T16:40:20Z</time>
      </trkpt>
      <trkpt lat="43.48538" lon="2.77536">
        <ele>295</ele>
        <time>2024-04-06T16:40:24Z</time>
      </trkpt>
      <trkpt lat="43.48549" lon="2.77559">
        <ele>296</ele>
        <time>2024-04-06T16:40:27Z</time>
      </trkpt>
      <trkpt lat="43.486" lon="2.77626">
        <ele>298</ele>
        <time>2024-04-06T16:40:40Z</time>
      </trkpt>
      <trkpt lat="43.48609" lon="2.7764">
        <ele>299</ele>
        <time>2024-04-06T16:40:42Z</time>
      </trkpt>
      <trkpt lat="43.48621" lon="2.77669">
        <ele>299</ele>
        <time>2024-04-06T16:40:47Z</time>
      </trkpt>
      <trkpt lat="43.48644" lon="2.7778">
        <ele>302</ele>
        <time>2024-04-06T16:41:02Z</time>
      </trkpt>
      <trkpt lat="43.48658" lon="2.77884">
        <ele>302</ele>
        <time>2024-04-06T16:41:15Z</time>
      </trkpt>
      <trkpt lat="43.48661" lon="2.77939">
        <ele>300</ele>
        <time>2024-04-06T16:41:22Z</time>
      </trkpt>
      <trkpt lat="43.48665" lon="2.77976">
        <ele>298</ele>
        <time>2024-04-06T16:41:27Z</time>
      </trkpt>
      <trkpt lat="43.48666" lon="2.78012">
        <ele>296</ele>
        <time>2024-04-06T16:41:32Z</time>
      </trkpt>
      <trkpt lat="43.48664" lon="2.78028">
        <ele>296</ele>
        <time>2024-04-06T16:41:34Z</time>
      </trkpt>
      <trkpt lat="43.48666" lon="2.78037">
        <ele>296</ele>
        <time>2024-04-06T16:41:35Z</time>
      </trkpt>
      <trkpt lat="43.48669" lon="2.7804">
        <ele>296</ele>
        <time>2024-04-06T16:41:36Z</time>
      </trkpt>
      <trkpt lat="43.48698" lon="2.78059">
        <ele>300</ele>
        <time>2024-04-06T16:41:42Z</time>
      </trkpt>
      <trkpt lat="43.48757" lon="2.78115">
        <ele>300</ele>
        <time>2024-04-06T16:41:54Z</time>
      </trkpt>
      <trkpt lat="43.48802" lon="2.7816">
        <ele>301</ele>
        <time>2024-04-06T16:42:04Z</time>
      </trkpt>
      <trkpt lat="43.48824" lon="2.78177">
        <ele>301</ele>
        <time>2024-04-06T16:42:09Z</time>
      </trkpt>
      <trkpt lat="43.48854" lon="2.78193">
        <ele>305</ele>
        <time>2024-04-06T16:42:14Z</time>
      </trkpt>
      <trkpt lat="43.48877" lon="2.78211">
        <ele>307</ele>
        <time>2024-04-06T16:42:19Z</time>
      </trkpt>
      <trkpt lat="43.48905" lon="2.78238">
        <ele>306</ele>
        <time>2024-04-06T16:42:25Z</time>
      </trkpt>
      <trkpt lat="43.48925" lon="2.78263">
        <ele>304</ele>
        <time>2024-04-06T16:42:30Z</time>
      </trkpt>
      <trkpt lat="43.48941" lon="2.78287">
        <ele>302</ele>
        <time>2024-04-06T16:42:34Z</time>
      </trkpt>
      <trkpt lat="43.48958" lon="2.78339">
        <ele>294</ele>
        <time>2024-04-06T16:42:42Z</time>
      </trkpt>
      <trkpt lat="43.48966" lon="2.78363">
        <ele>294</ele>
        <time>2024-04-06T16:42:45Z</time>
      </trkpt>
      <trkpt lat="43.48974" lon="2.78375">
        <ele>294</ele>
        <time>2024-04-06T16:42:47Z</time>
      </trkpt>
      <trkpt lat="43.49001" lon="2.78402">
        <ele>295</ele>
        <time>2024-04-06T16:42:53Z</time>
      </trkpt>
      <trkpt lat="43.4903" lon="2.7842">
        <ele>295</ele>
        <time>2024-04-06T16:42:59Z</time>
      </trkpt>
      <trkpt lat="43.49094" lon="2.7845">
        <ele>296</ele>
        <time>2024-04-06T16:43:11Z</time>
      </trkpt>
      <trkpt lat="43.4911" lon="2.7846">
        <ele>297</ele>
        <time>2024-04-06T16:43:14Z</time>
      </trkpt>
      <trkpt lat="43.49147" lon="2.78494">
        <ele>296</ele>
        <time>2024-04-06T16:43:22Z</time>
      </trkpt>
      <trkpt lat="43.4926" lon="2.78652">
        <ele>293</ele>
        <time>2024-04-06T16:43:50Z</time>
      </trkpt>
      <trkpt lat="43.49278" lon="2.78678">
        <ele>293</ele>
        <time>2024-04-06T16:43:55Z</time>
      </trkpt>
      <trkpt lat="43.49315" lon="2.7875">
        <ele>289</ele>
        <time>2024-04-06T16:44:06Z</time>
      </trkpt>
      <trkpt lat="43.4933" lon="2.78774">
        <ele>289</ele>
        <time>2024-04-06T16:44:11Z</time>
      </trkpt>
      <trkpt lat="43.49384" lon="2.78844">
        <ele>289</ele>
        <time>2024-04-06T16:44:24Z</time>
      </trkpt>
      <trkpt lat="43.49406" lon="2.78868">
        <ele>288</ele>
        <time>2024-04-06T16:44:29Z</time>
      </trkpt>
      <trkpt lat="43.49449" lon="2.78899">
        <ele>286</ele>
        <time>2024-04-06T16:44:37Z</time>
      </trkpt>
      <trkpt lat="43.4947" lon="2.78909">
        <ele>285</ele>
        <time>2024-04-06T16:44:41Z</time>
      </trkpt>
      <trkpt lat="43.4949" lon="2.78916">
        <ele>285</ele>
        <time>2024-04-06T16:44:45Z</time>
      </trkpt>
      <trkpt lat="43.49505" lon="2.78919">
        <ele>286</ele>
        <time>2024-04-06T16:44:48Z</time>
      </trkpt>
      <trkpt lat="43.49525" lon="2.7892">
        <ele>286</ele>
        <time>2024-04-06T16:44:51Z</time>
      </trkpt>
      <trkpt lat="43.49563" lon="2.78927">
        <ele>285</ele>
        <time>2024-04-06T16:44:58Z</time>
      </trkpt>
      <trkpt lat="43.49612" lon="2.78926">
        <ele>282</ele>
        <time>2024-04-06T16:45:07Z</time>
      </trkpt>
      <trkpt lat="43.49653" lon="2.78916">
        <ele>279</ele>
        <time>2024-04-06T16:45:14Z</time>
      </trkpt>
      <trkpt lat="43.4967" lon="2.78914">
        <ele>277</ele>
        <time>2024-04-06T16:45:17Z</time>
      </trkpt>
      <trkpt lat="43.49703" lon="2.78911">
        <ele>276</ele>
        <time>2024-04-06T16:45:23Z</time>
      </trkpt>
      <trkpt lat="43.4974" lon="2.78911">
        <ele>275</ele>
        <time>2024-04-06T16:45:30Z</time>
      </trkpt>
      <trkpt lat="43.49749" lon="2.78912">
        <ele>274</ele>
        <time>2024-04-06T16:45:31Z</time>
      </trkpt>
      <trkpt lat="43.49923" lon="2.78931">
        <ele>279</ele>
        <time>2024-04-06T16:46:02Z</time>
      </trkpt>
      <trkpt lat="43.49952" lon="2.7894">
        <ele>279</ele>
        <time>2024-04-06T16:46:08Z</time>
      </trkpt>
      <trkpt lat="43.49983" lon="2.78959">
        <ele>278</ele>
        <time>2024-04-06T16:46:14Z</time>
      </trkpt>
      <trkpt lat="43.50015" lon="2.78984">
        <ele>277</ele>
        <time>2024-04-06T16:46:20Z</time>
      </trkpt>
      <trkpt lat="43.50046" lon="2.79013">
        <ele>277</ele>
        <time>2024-04-06T16:46:27Z</time>
      </trkpt>
      <trkpt lat="43.50061" lon="2.7903">
        <ele>277</ele>
        <time>2024-04-06T16:46:30Z</time>
      </trkpt>
      <trkpt lat="43.50072" lon="2.79049">
        <ele>276</ele>
        <time>2024-04-06T16:46:33Z</time>
      </trkpt>
      <trkpt lat="43.50109" lon="2.79137">
        <ele>272</ele>
        <time>2024-04-06T16:46:47Z</time>
      </trkpt>
      <trkpt lat="43.50119" lon="2.79154">
        <ele>271</ele>
        <time>2024-04-06T16:46:49Z</time>
      </trkpt>
      <trkpt lat="43.5013" lon="2.79167">
        <ele>271</ele>
        <time>2024-04-06T16:46:52Z</time>
      </trkpt>
      <trkpt lat="43.50148" lon="2.79185">
        <ele>271</ele>
        <time>2024-04-06T16:46:56Z</time>
      </trkpt>
      <trkpt lat="43.50189" lon="2.79205">
        <ele>271</ele>
        <time>2024-04-06T16:47:04Z</time>
      </trkpt>
      <trkpt lat="43.502" lon="2.79208">
        <ele>271</ele>
        <time>2024-04-06T16:47:06Z</time>
      </trkpt>
      <trkpt lat="43.50221" lon="2.79207">
        <ele>272</ele>
        <time>2024-04-06T16:47:09Z</time>
      </trkpt>
      <trkpt lat="43.50314" lon="2.79187">
        <ele>272</ele>
        <time>2024-04-06T16:47:26Z</time>
      </trkpt>
      <trkpt lat="43.50345" lon="2.79184">
        <ele>272</ele>
        <time>2024-04-06T16:47:32Z</time>
      </trkpt>
      <trkpt lat="43.50359" lon="2.79187">
        <ele>272</ele>
        <time>2024-04-06T16:47:34Z</time>
      </trkpt>
      <trkpt lat="43.50467" lon="2.79217">
        <ele>274</ele>
        <time>2024-04-06T16:47:54Z</time>
      </trkpt>
      <trkpt lat="43.50597" lon="2.79259">
        <ele>278</ele>
        <time>2024-04-06T16:48:18Z</time>
      </trkpt>
      <trkpt lat="43.50647" lon="2.79284">
        <ele>276</ele>
        <time>2024-04-06T16:48:27Z</time>
      </trkpt>
      <trkpt lat="43.50663" lon="2.79295">
        <ele>275</ele>
        <time>2024-04-06T16:48:30Z</time>
      </trkpt>
      <trkpt lat="43.50765" lon="2.79378">
        <ele>269</ele>
        <time>2024-04-06T16:48:51Z</time>
      </trkpt>
      <trkpt lat="43.50778" lon="2.79406">
        <ele>267</ele>
        <time>2024-04-06T16:48:56Z</time>
      </trkpt>
      <trkpt lat="43.50835" lon="2.79453">
        <ele>266</ele>
        <time>2024-04-06T16:49:07Z</time>
      </trkpt>
      <trkpt lat="43.50861" lon="2.79456">
        <ele>267</ele>
        <time>2024-04-06T16:49:12Z</time>
      </trkpt>
      <trkpt lat="43.51038" lon="2.79602">
        <ele>264</ele>
        <time>2024-04-06T16:49:49Z</time>
      </trkpt>
      <trkpt lat="43.51222" lon="2.79757">
        <ele>270</ele>
        <time>2024-04-06T16:50:27Z</time>
      </trkpt>
      <trkpt lat="43.51254" lon="2.7979">
        <ele>270</ele>
        <time>2024-04-06T16:50:34Z</time>
      </trkpt>
      <trkpt lat="43.51277" lon="2.79823">
        <ele>272</ele>
        <time>2024-04-06T16:50:40Z</time>
      </trkpt>
      <trkpt lat="43.51324" lon="2.79903">
        <ele>268</ele>
        <time>2024-04-06T16:50:53Z</time>
      </trkpt>
      <trkpt lat="43.51504" lon="2.80225">
        <ele>261</ele>
        <time>2024-04-06T16:51:46Z</time>
      </trkpt>
      <trkpt lat="43.51523" lon="2.80263">
        <ele>260</ele>
        <time>2024-04-06T16:51:52Z</time>
      </trkpt>
      <trkpt lat="43.51536" lon="2.80296">
        <ele>261</ele>
        <time>2024-04-06T16:51:57Z</time>
      </trkpt>
      <trkpt lat="43.51552" lon="2.80349">
        <ele>260</ele>
        <time>2024-04-06T16:52:04Z</time>
      </trkpt>
      <trkpt lat="43.51562" lon="2.80403">
        <ele>258</ele>
        <time>2024-04-06T16:52:11Z</time>
      </trkpt>
      <trkpt lat="43.51611" lon="2.80617">
        <ele>256</ele>
        <time>2024-04-06T16:52:40Z</time>
      </trkpt>
      <trkpt lat="43.51655" lon="2.80768">
        <ele>255</ele>
        <time>2024-04-06T16:53:01Z</time>
      </trkpt>
      <trkpt lat="43.51684" lon="2.8086">
        <ele>253</ele>
        <time>2024-04-06T16:53:14Z</time>
      </trkpt>
      <trkpt lat="43.51707" lon="2.80918">
        <ele>252</ele>
        <time>2024-04-06T16:53:23Z</time>
      </trkpt>
      <trkpt lat="43.5176" lon="2.81044">
        <ele>254</ele>
        <time>2024-04-06T16:53:41Z</time>
      </trkpt>
      <trkpt lat="43.51903" lon="2.81354">
        <ele>256</ele>
        <time>2024-04-06T16:54:29Z</time>
      </trkpt>
      <trkpt lat="43.51912" lon="2.81379">
        <ele>256</ele>
        <time>2024-04-06T16:54:32Z</time>
      </trkpt>
      <trkpt lat="43.51918" lon="2.814">
        <ele>256</ele>
        <time>2024-04-06T16:54:35Z</time>
      </trkpt>
      <trkpt lat="43.51937" lon="2.81519">
        <ele>258</ele>
        <time>2024-04-06T16:54:51Z</time>
      </trkpt>
      <trkpt lat="43.51942" lon="2.81567">
        <ele>258</ele>
        <time>2024-04-06T16:54:57Z</time>
      </trkpt>
      <trkpt lat="43.51943" lon="2.81621">
        <ele>257</ele>
        <time>2024-04-06T16:55:04Z</time>
      </trkpt>
      <trkpt lat="43.51936" lon="2.81763">
        <ele>257</ele>
        <time>2024-04-06T16:55:23Z</time>
      </trkpt>
      <trkpt lat="43.51931" lon="2.81802">
        <ele>257</ele>
        <time>2024-04-06T16:55:28Z</time>
      </trkpt>
      <trkpt lat="43.5192" lon="2.81833">
        <ele>256</ele>
        <time>2024-04-06T16:55:32Z</time>
      </trkpt>
      <trkpt lat="43.51974" lon="2.81801">
        <ele>263</ele>
        <time>2024-04-06T16:55:43Z</time>
      </trkpt>
      <trkpt lat="43.52031" lon="2.8178">
        <ele>268</ele>
        <time>2024-04-06T16:55:53Z</time>
      </trkpt>
      <trkpt lat="43.52051" lon="2.81843">
        <ele>267</ele>
        <time>2024-04-06T16:56:02Z</time>
      </trkpt>
      <trkpt lat="43.5207" lon="2.81887">
        <ele>264</ele>
        <time>2024-04-06T16:56:09Z</time>
      </trkpt>
      <trkpt lat="43.52086" lon="2.81921">
        <ele>263</ele>
        <time>2024-04-06T16:56:14Z</time>
      </trkpt>
      <trkpt lat="43.52114" lon="2.81968">
        <ele>263</ele>
        <time>2024-04-06T16:56:22Z</time>
      </trkpt>
      <trkpt lat="43.52142" lon="2.82015">
        <ele>266</ele>
        <time>2024-04-06T16:56:30Z</time>
      </trkpt>
      <trkpt lat="43.52161" lon="2.8205">
        <ele>272</ele>
        <time>2024-04-06T16:56:35Z</time>
      </trkpt>
      <trkpt lat="43.52169" lon="2.82041">
        <ele>271</ele>
        <time>2024-04-06T16:56:37Z</time>
      </trkpt>
      <trkpt lat="43.52174" lon="2.82045">
        <ele>272</ele>
        <time>2024-04-06T16:56:38Z</time>
      </trkpt>
      <trkpt lat="43.52178" lon="2.82054">
        <ele>274</ele>
        <time>2024-04-06T16:56:40Z</time>
      </trkpt>
      <trkpt lat="43.52192" lon="2.82065">
        <ele>276</ele>
        <time>2024-04-06T16:56:42Z</time>
      </trkpt>
      <trkpt lat="43.52227" lon="2.82191">
        <ele>286</ele>
        <time>2024-04-06T16:57:00Z</time>
      </trkpt>
      <trkpt lat="43.52246" lon="2.8227">
        <ele>279</ele>
        <time>2024-04-06T16:57:11Z</time>
      </trkpt>
      <trkpt lat="43.52268" lon="2.82324">
        <ele>276</ele>
        <time>2024-04-06T16:57:19Z</time>
      </trkpt>
      <trkpt lat="43.52293" lon="2.82403">
        <ele>273</ele>
        <time>2024-04-06T16:57:30Z</time>
      </trkpt>
      <trkpt lat="43.52307" lon="2.82437">
        <ele>273</ele>
        <time>2024-04-06T16:57:35Z</time>
      </trkpt>
      <trkpt lat="43.5233" lon="2.82479">
        <ele>273</ele>
        <time>2024-04-06T16:57:41Z</time>
      </trkpt>
      <trkpt lat="43.52351" lon="2.82525">
        <ele>271</ele>
        <time>2024-04-06T16:57:48Z</time>
      </trkpt>
      <trkpt lat="43.52384" lon="2.82578">
        <ele>268</ele>
        <time>2024-04-06T16:57:58Z</time>
      </trkpt>
      <trkpt lat="43.52397" lon="2.82601">
        <ele>268</ele>
        <time>2024-04-06T16:58:01Z</time>
      </trkpt>
      <trkpt lat="43.52438" lon="2.82744">
        <ele>258</ele>
        <time>2024-04-06T16:58:21Z</time>
      </trkpt>
      <trkpt lat="43.52458" lon="2.82804">
        <ele>256</ele>
        <time>2024-04-06T16:58:30Z</time>
      </trkpt>
      <trkpt lat="43.52451" lon="2.82827">
        <ele>254</ele>
        <time>2024-04-06T16:58:33Z</time>
      </trkpt>
      <trkpt lat="43.52474" lon="2.82874">
        <ele>254</ele>
        <time>2024-04-06T16:58:40Z</time>
      </trkpt>
      <trkpt lat="43.52487" lon="2.82898">
        <ele>255</ele>
        <time>2024-04-06T16:58:44Z</time>
      </trkpt>
      <trkpt lat="43.52518" lon="2.82942">
        <ele>258</ele>
        <time>2024-04-06T16:58:52Z</time>
      </trkpt>
      <trkpt lat="43.52542" lon="2.82968">
        <ele>259</ele>
        <time>2024-04-06T16:58:57Z</time>
      </trkpt>
      <trkpt lat="43.52571" lon="2.82993">
        <ele>261</ele>
        <time>2024-04-06T16:59:03Z</time>
      </trkpt>
      <trkpt lat="43.52601" lon="2.83008">
        <ele>261</ele>
        <time>2024-04-06T16:59:09Z</time>
      </trkpt>
      <trkpt lat="43.52643" lon="2.83023">
        <ele>259</ele>
        <time>2024-04-06T16:59:17Z</time>
      </trkpt>
      <trkpt lat="43.5277" lon="2.83052">
        <ele>256</ele>
        <time>2024-04-06T16:59:40Z</time>
      </trkpt>
      <trkpt lat="43.5279" lon="2.83059">
        <ele>255</ele>
        <time>2024-04-06T16:59:43Z</time>
      </trkpt>
      <trkpt lat="43.52811" lon="2.8307">
        <ele>254</ele>
        <time>2024-04-06T16:59:47Z</time>
      </trkpt>
      <trkpt lat="43.52844" lon="2.83096">
        <ele>252</ele>
        <time>2024-04-06T16:59:54Z</time>
      </trkpt>
      <trkpt lat="43.52868" lon="2.83119">
        <ele>251</ele>
        <time>2024-04-06T16:59:59Z</time>
      </trkpt>
      <trkpt lat="43.52904" lon="2.83168">
        <ele>247</ele>
        <time>2024-04-06T17:00:08Z</time>
      </trkpt>
      <trkpt lat="43.52918" lon="2.83193">
        <ele>247</ele>
        <time>2024-04-06T17:00:12Z</time>
      </trkpt>
      <trkpt lat="43.52943" lon="2.8325">
        <ele>250</ele>
        <time>2024-04-06T17:00:21Z</time>
      </trkpt>
      <trkpt lat="43.52958" lon="2.83306">
        <ele>252</ele>
        <time>2024-04-06T17:00:29Z</time>
      </trkpt>
      <trkpt lat="43.52947" lon="2.83311">
        <ele>250</ele>
        <time>2024-04-06T17:00:31Z</time>
      </trkpt>
      <trkpt lat="43.52942" lon="2.83318">
        <ele>249</ele>
        <time>2024-04-06T17:00:32Z</time>
      </trkpt>
      <trkpt lat="43.52937" lon="2.83328">
        <ele>248</ele>
        <time>2024-04-06T17:00:34Z</time>
      </trkpt>
      <trkpt lat="43.52938" lon="2.8338">
        <ele>248</ele>
        <time>2024-04-06T17:00:40Z</time>
      </trkpt>
      <trkpt lat="43.52933" lon="2.83397">
        <ele>247</ele>
        <time>2024-04-06T17:00:43Z</time>
      </trkpt>
      <trkpt lat="43.52928" lon="2.83401">
        <ele>246</ele>
        <time>2024-04-06T17:00:44Z</time>
      </trkpt>
      <trkpt lat="43.52906" lon="2.83402">
        <ele>243</ele>
        <time>2024-04-06T17:00:48Z</time>
      </trkpt>
      <trkpt lat="43.52898" lon="2.83399">
        <ele>242</ele>
        <time>2024-04-06T17:00:49Z</time>
      </trkpt>
      <trkpt lat="43.52909" lon="2.83428">
        <ele>243</ele>
        <time>2024-04-06T17:00:53Z</time>
      </trkpt>
      <trkpt lat="43.52922" lon="2.83454">
        <ele>246</ele>
        <time>2024-04-06T17:00:57Z</time>
      </trkpt>
      <trkpt lat="43.52926" lon="2.83467">
        <ele>247</ele>
        <time>2024-04-06T17:00:59Z</time>
      </trkpt>
      <trkpt lat="43.5293" lon="2.83493">
        <ele>248</ele>
        <time>2024-04-06T17:01:03Z</time>
      </trkpt>
      <trkpt lat="43.52935" lon="2.83551">
        <ele>253</ele>
        <time>2024-04-06T17:01:10Z</time>
      </trkpt>
      <trkpt lat="43.52934" lon="2.83565">
        <ele>253</ele>
        <time>2024-04-06T17:01:12Z</time>
      </trkpt>
      <trkpt lat="43.52924" lon="2.83611">
        <ele>254</ele>
        <time>2024-04-06T17:01:18Z</time>
      </trkpt>
      <trkpt lat="43.52896" lon="2.83729">
        <ele>260</ele>
        <time>2024-04-06T17:01:34Z</time>
      </trkpt>
      <trkpt lat="43.52897" lon="2.8378">
        <ele>264</ele>
        <time>2024-04-06T17:01:41Z</time>
      </trkpt>
      <trkpt lat="43.52894" lon="2.83807">
        <ele>266</ele>
        <time>2024-04-06T17:01:44Z</time>
      </trkpt>
      <trkpt lat="43.52877" lon="2.83886">
        <ele>267</ele>
        <time>2024-04-06T17:01:55Z</time>
      </trkpt>
      <trkpt lat="43.52877" lon="2.83913">
        <ele>265</ele>
        <time>2024-04-06T17:01:58Z</time>
      </trkpt>
      <trkpt lat="43.52881" lon="2.83935">
        <ele>261</ele>
        <time>2024-04-06T17:02:01Z</time>
      </trkpt>
      <trkpt lat="43.52893" lon="2.83969">
        <ele>255</ele>
        <time>2024-04-06T17:02:06Z</time>
      </trkpt>
      <trkpt lat="43.52895" lon="2.83977">
        <ele>254</ele>
        <time>2024-04-06T17:02:07Z</time>
      </trkpt>
      <trkpt lat="43.52884" lon="2.84042">
        <ele>250</ele>
        <time>2024-04-06T17:02:16Z</time>
      </trkpt>
      <trkpt lat="43.52876" lon="2.84065">
        <ele>250</ele>
        <time>2024-04-06T17:02:19Z</time>
      </trkpt>
      <trkpt lat="43.52867" lon="2.84069">
        <ele>250</ele>
        <time>2024-04-06T17:02:21Z</time>
      </trkpt>
      <trkpt lat="43.52845" lon="2.84073">
        <ele>248</ele>
        <time>2024-04-06T17:02:25Z</time>
      </trkpt>
      <trkpt lat="43.52824" lon="2.84081">
        <ele>250</ele>
        <time>2024-04-06T17:02:29Z</time>
      </trkpt>
      <trkpt lat="43.52817" lon="2.84091">
        <ele>251</ele>
        <time>2024-04-06T17:02:31Z</time>
      </trkpt>
      <trkpt lat="43.52816" lon="2.84102">
        <ele>251</ele>
        <time>2024-04-06T17:02:32Z</time>
      </trkpt>
      <trkpt lat="43.52817" lon="2.84118">
        <ele>250</ele>
        <time>2024-04-06T17:02:34Z</time>
      </trkpt>
      <trkpt lat="43.52832" lon="2.84169">
        <ele>247</ele>
        <time>2024-04-06T17:02:41Z</time>
      </trkpt>
      <trkpt lat="43.52836" lon="2.84189">
        <ele>248</ele>
        <time>2024-04-06T17:02:44Z</time>
      </trkpt>
      <trkpt lat="43.52837" lon="2.84209">
        <ele>249</ele>
        <time>2024-04-06T17:02:46Z</time>
      </trkpt>
      <trkpt lat="43.52836" lon="2.84235">
        <ele>250</ele>
        <time>2024-04-06T17:02:50Z</time>
      </trkpt>
      <trkpt lat="43.52831" lon="2.84256">
        <ele>249</ele>
        <time>2024-04-06T17:02:53Z</time>
      </trkpt>
      <trkpt lat="43.5282" lon="2.84287">
        <ele>250</ele>
        <time>2024-04-06T17:02:57Z</time>
      </trkpt>
      <trkpt lat="43.52811" lon="2.8432">
        <ele>252</ele>
        <time>2024-04-06T17:03:02Z</time>
      </trkpt>
      <trkpt lat="43.52799" lon="2.84322">
        <ele>250</ele>
        <time>2024-04-06T17:03:04Z</time>
      </trkpt>
      <trkpt lat="43.52789" lon="2.84328">
        <ele>249</ele>
        <time>2024-04-06T17:03:06Z</time>
      </trkpt>
      <trkpt lat="43.5278" lon="2.84337">
        <ele>248</ele>
        <time>2024-04-06T17:03:08Z</time>
      </trkpt>
      <trkpt lat="43.52773" lon="2.84348">
        <ele>247</ele>
        <time>2024-04-06T17:03:10Z</time>
      </trkpt>
      <trkpt lat="43.52769" lon="2.84358">
        <ele>247</ele>
        <time>2024-04-06T17:03:11Z</time>
      </trkpt>
      <trkpt lat="43.52763" lon="2.84391">
        <ele>247</ele>
        <time>2024-04-06T17:03:15Z</time>
      </trkpt>
      <trkpt lat="43.52738" lon="2.84444">
        <ele>244</ele>
        <time>2024-04-06T17:03:24Z</time>
      </trkpt>
      <trkpt lat="43.52724" lon="2.84482">
        <ele>242</ele>
        <time>2024-04-06T17:03:29Z</time>
      </trkpt>
      <trkpt lat="43.52714" lon="2.84497">
        <ele>242</ele>
        <time>2024-04-06T17:03:32Z</time>
      </trkpt>
      <trkpt lat="43.52695" lon="2.84513">
        <ele>240</ele>
        <time>2024-04-06T17:03:36Z</time>
      </trkpt>
      <trkpt lat="43.52685" lon="2.84528">
        <ele>240</ele>
        <time>2024-04-06T17:03:38Z</time>
      </trkpt>
      <trkpt lat="43.52695" lon="2.84538">
        <ele>240</ele>
        <time>2024-04-06T17:03:41Z</time>
      </trkpt>
      <trkpt lat="43.527" lon="2.84548">
        <ele>240</ele>
        <time>2024-04-06T17:03:42Z</time>
      </trkpt>
      <trkpt lat="43.52738" lon="2.8459">
        <ele>238</ele>
        <time>2024-04-06T17:03:51Z</time>
      </trkpt>
      <trkpt lat="43.52957" lon="2.84863">
        <ele>230</ele>
        <time>2024-04-06T17:04:43Z</time>
      </trkpt>
      <trkpt lat="43.52966" lon="2.8488">
        <ele>230</ele>
        <time>2024-04-06T17:04:46Z</time>
      </trkpt>
      <trkpt lat="43.52975" lon="2.849">
        <ele>229</ele>
        <time>2024-04-06T17:04:49Z</time>
      </trkpt>
      <trkpt lat="43.53078" lon="2.85178">
        <ele>219</ele>
        <time>2024-04-06T17:05:29Z</time>
      </trkpt>
      <trkpt lat="43.53081" lon="2.85191">
        <ele>218</ele>
        <time>2024-04-06T17:05:31Z</time>
      </trkpt>
      <trkpt lat="43.5309" lon="2.85376">
        <ele>218</ele>
        <time>2024-04-06T17:05:55Z</time>
      </trkpt>
      <trkpt lat="43.53086" lon="2.85388">
        <ele>218</ele>
        <time>2024-04-06T17:05:57Z</time>
      </trkpt>
      <trkpt lat="43.53089" lon="2.85467">
        <ele>219</ele>
        <time>2024-04-06T17:06:07Z</time>
      </trkpt>
      <trkpt lat="43.53094" lon="2.85488">
        <ele>219</ele>
        <time>2024-04-06T17:06:10Z</time>
      </trkpt>
      <trkpt lat="43.53097" lon="2.85489">
        <ele>220</ele>
        <time>2024-04-06T17:06:10Z</time>
      </trkpt>
      <trkpt lat="43.531" lon="2.85488">
        <ele>220</ele>
        <time>2024-04-06T17:06:11Z</time>
      </trkpt>
      <trkpt lat="43.53119" lon="2.85563">
        <ele>219</ele>
        <time>2024-04-06T17:06:21Z</time>
      </trkpt>
      <trkpt lat="43.53125" lon="2.85579">
        <ele>219</ele>
        <time>2024-04-06T17:06:23Z</time>
      </trkpt>
      <trkpt lat="43.53131" lon="2.85589">
        <ele>219</ele>
        <time>2024-04-06T17:06:25Z</time>
      </trkpt>
      <trkpt lat="43.53178" lon="2.85643">
        <ele>219</ele>
        <time>2024-04-06T17:06:36Z</time>
      </trkpt>
      <trkpt lat="43.53217" lon="2.85694">
        <ele>218</ele>
        <time>2024-04-06T17:06:46Z</time>
      </trkpt>
      <trkpt lat="43.53267" lon="2.85753">
        <ele>218</ele>
        <time>2024-04-06T17:06:57Z</time>
      </trkpt>
      <trkpt lat="43.53316" lon="2.85806">
        <ele>216</ele>
        <time>2024-04-06T17:07:08Z</time>
      </trkpt>
      <trkpt lat="43.53338" lon="2.85818">
        <ele>216</ele>
        <time>2024-04-06T17:07:13Z</time>
      </trkpt>
      <trkpt lat="43.53388" lon="2.85866">
        <ele>220</ele>
        <time>2024-04-06T17:07:23Z</time>
      </trkpt>
      <trkpt lat="43.53406" lon="2.85888">
        <ele>221</ele>
        <time>2024-04-06T17:07:28Z</time>
      </trkpt>
      <trkpt lat="43.53514" lon="2.85978">
        <ele>221</ele>
        <time>2024-04-06T17:07:50Z</time>
      </trkpt>
      <trkpt lat="43.53548" lon="2.86001">
        <ele>220</ele>
        <time>2024-04-06T17:07:57Z</time>
      </trkpt>
      <trkpt lat="43.53573" lon="2.86012">
        <ele>220</ele>
        <time>2024-04-06T17:08:02Z</time>
      </trkpt>
      <trkpt lat="43.53599" lon="2.8602">
        <ele>221</ele>
        <time>2024-04-06T17:08:06Z</time>
      </trkpt>
      <trkpt lat="43.53627" lon="2.86024">
        <ele>222</ele>
        <time>2024-04-06T17:08:11Z</time>
      </trkpt>
      <trkpt lat="43.5366" lon="2.86025">
        <ele>224</ele>
        <time>2024-04-06T17:08:17Z</time>
      </trkpt>
      <trkpt lat="43.53697" lon="2.8602">
        <ele>225</ele>
        <time>2024-04-06T17:08:24Z</time>
      </trkpt>
      <trkpt lat="43.53736" lon="2.8601">
        <ele>226</ele>
        <time>2024-04-06T17:08:31Z</time>
      </trkpt>
      <trkpt lat="43.53905" lon="2.85951">
        <ele>226</ele>
        <time>2024-04-06T17:09:02Z</time>
      </trkpt>
      <trkpt lat="43.5392" lon="2.85951">
        <ele>225</ele>
        <time>2024-04-06T17:09:04Z</time>
      </trkpt>
      <trkpt lat="43.53933" lon="2.85955">
        <ele>225</ele>
        <time>2024-04-06T17:09:07Z</time>
      </trkpt>
      <trkpt lat="43.53946" lon="2.85963">
        <ele>224</ele>
        <time>2024-04-06T17:09:09Z</time>
      </trkpt>
      <trkpt lat="43.53998" lon="2.86006">
        <ele>221</ele>
        <time>2024-04-06T17:09:20Z</time>
      </trkpt>
      <trkpt lat="43.54012" lon="2.86028">
        <ele>220</ele>
        <time>2024-04-06T17:09:24Z</time>
      </trkpt>
      <trkpt lat="43.54022" lon="2.8605">
        <ele>219</ele>
        <time>2024-04-06T17:09:27Z</time>
      </trkpt>
      <trkpt lat="43.54029" lon="2.86077">
        <ele>217</ele>
        <time>2024-04-06T17:09:31Z</time>
      </trkpt>
      <trkpt lat="43.54034" lon="2.86112">
        <ele>216</ele>
        <time>2024-04-06T17:09:36Z</time>
      </trkpt>
      <trkpt lat="43.54036" lon="2.86135">
        <ele>215</ele>
        <time>2024-04-06T17:09:39Z</time>
      </trkpt>
      <trkpt lat="43.54034" lon="2.8616">
        <ele>214</ele>
        <time>2024-04-06T17:09:42Z</time>
      </trkpt>
      <trkpt lat="43.54026" lon="2.86222">
        <ele>213</ele>
        <time>2024-04-06T17:09:50Z</time>
      </trkpt>
      <trkpt lat="43.54014" lon="2.86292">
        <ele>214</ele>
        <time>2024-04-06T17:09:59Z</time>
      </trkpt>
      <trkpt lat="43.53959" lon="2.86514">
        <ele>222</ele>
        <time>2024-04-06T17:10:30Z</time>
      </trkpt>
      <trkpt lat="43.53957" lon="2.86535">
        <ele>222</ele>
        <time>2024-04-06T17:10:32Z</time>
      </trkpt>
      <trkpt lat="43.53959" lon="2.86567">
        <ele>222</ele>
        <time>2024-04-06T17:10:36Z</time>
      </trkpt>
      <trkpt lat="43.53963" lon="2.86595">
        <ele>222</ele>
        <time>2024-04-06T17:10:40Z</time>
      </trkpt>
      <trkpt lat="43.53972" lon="2.86625">
        <ele>220</ele>
        <time>2024-04-06T17:10:44Z</time>
      </trkpt>
      <trkpt lat="43.53983" lon="2.86646">
        <ele>217</ele>
        <time>2024-04-06T17:10:48Z</time>
      </trkpt>
      <trkpt lat="43.53997" lon="2.86664">
        <ele>213</ele>
        <time>2024-04-06T17:10:51Z</time>
      </trkpt>
      <trkpt lat="43.54011" lon="2.86676">
        <ele>214</ele>
        <time>2024-04-06T17:10:54Z</time>
      </trkpt>
      <trkpt lat="43.5403" lon="2.86682">
        <ele>215</ele>
        <time>2024-04-06T17:10:57Z</time>
      </trkpt>
      <trkpt lat="43.54059" lon="2.8668">
        <ele>215</ele>
        <time>2024-04-06T17:11:03Z</time>
      </trkpt>
      <trkpt lat="43.54201" lon="2.86621">
        <ele>219</ele>
        <time>2024-04-06T17:11:29Z</time>
      </trkpt>
      <trkpt lat="43.54311" lon="2.86588">
        <ele>215</ele>
        <time>2024-04-06T17:11:49Z</time>
      </trkpt>
      <trkpt lat="43.54359" lon="2.86596">
        <ele>212</ele>
        <time>2024-04-06T17:11:58Z</time>
      </trkpt>
      <trkpt lat="43.54388" lon="2.8661">
        <ele>210</ele>
        <time>2024-04-06T17:12:03Z</time>
      </trkpt>
      <trkpt lat="43.54415" lon="2.86632">
        <ele>208</ele>
        <time>2024-04-06T17:12:09Z</time>
      </trkpt>
      <trkpt lat="43.54435" lon="2.86657">
        <ele>209</ele>
        <time>2024-04-06T17:12:13Z</time>
      </trkpt>
      <trkpt lat="43.5445" lon="2.86692">
        <ele>210</ele>
        <time>2024-04-06T17:12:19Z</time>
      </trkpt>
      <trkpt lat="43.54454" lon="2.86715">
        <ele>210</ele>
        <time>2024-04-06T17:12:22Z</time>
      </trkpt>
      <trkpt lat="43.54455" lon="2.86747">
        <ele>209</ele>
        <time>2024-04-06T17:12:26Z</time>
      </trkpt>
      <trkpt lat="43.54452" lon="2.8678">
        <ele>208</ele>
        <time>2024-04-06T17:12:30Z</time>
      </trkpt>
      <trkpt lat="43.54449" lon="2.86799">
        <ele>207</ele>
        <time>2024-04-06T17:12:33Z</time>
      </trkpt>
      <trkpt lat="43.54439" lon="2.86829">
        <ele>205</ele>
        <time>2024-04-06T17:12:37Z</time>
      </trkpt>
      <trkpt lat="43.54436" lon="2.86845">
        <ele>205</ele>
        <time>2024-04-06T17:12:39Z</time>
      </trkpt>
      <trkpt lat="43.54437" lon="2.8685">
        <ele>205</ele>
        <time>2024-04-06T17:12:40Z</time>
      </trkpt>
      <trkpt lat="43.54441" lon="2.86856">
        <ele>206</ele>
        <time>2024-04-06T17:12:41Z</time>
      </trkpt>
      <trkpt lat="43.54386" lon="2.87012">
        <ele>208</ele>
        <time>2024-04-06T17:13:03Z</time>
      </trkpt>
      <trkpt lat="43.54377" lon="2.87039">
        <ele>209</ele>
        <time>2024-04-06T17:13:07Z</time>
      </trkpt>
      <trkpt lat="43.5429" lon="2.87285">
        <ele>218</ele>
        <time>2024-04-06T17:13:42Z</time>
      </trkpt>
      <trkpt lat="43.54285" lon="2.87295">
        <ele>217</ele>
        <time>2024-04-06T17:13:44Z</time>
      </trkpt>
      <trkpt lat="43.54277" lon="2.87307">
        <ele>216</ele>
        <time>2024-04-06T17:13:46Z</time>
      </trkpt>
      <trkpt lat="43.54269" lon="2.87314">
        <ele>215</ele>
        <time>2024-04-06T17:13:48Z</time>
      </trkpt>
      <trkpt lat="43.54255" lon="2.87324">
        <ele>212</ele>
        <time>2024-04-06T17:13:50Z</time>
      </trkpt>
      <trkpt lat="43.54231" lon="2.87334">
        <ele>209</ele>
        <time>2024-04-06T17:13:55Z</time>
      </trkpt>
      <trkpt lat="43.54218" lon="2.87344">
        <ele>208</ele>
        <time>2024-04-06T17:13:58Z</time>
      </trkpt>
      <trkpt lat="43.54206" lon="2.87358">
        <ele>207</ele>
        <time>2024-04-06T17:14:00Z</time>
      </trkpt>
      <trkpt lat="43.54194" lon="2.87387">
        <ele>208</ele>
        <time>2024-04-06T17:14:05Z</time>
      </trkpt>
      <trkpt lat="43.54192" lon="2.87407">
        <ele>209</ele>
        <time>2024-04-06T17:14:07Z</time>
      </trkpt>
      <trkpt lat="43.54192" lon="2.87425">
        <ele>209</ele>
        <time>2024-04-06T17:14:10Z</time>
      </trkpt>
      <trkpt lat="43.54195" lon="2.87444">
        <ele>209</ele>
        <time>2024-04-06T17:14:12Z</time>
      </trkpt>
      <trkpt lat="43.54202" lon="2.8746">
        <ele>209</ele>
        <time>2024-04-06T17:14:14Z</time>
      </trkpt>
      <trkpt lat="43.54213" lon="2.87477">
        <ele>210</ele>
        <time>2024-04-06T17:14:17Z</time>
      </trkpt>
      <trkpt lat="43.54224" lon="2.87487">
        <ele>210</ele>
        <time>2024-04-06T17:14:20Z</time>
      </trkpt>
      <trkpt lat="43.54239" lon="2.87494">
        <ele>211</ele>
        <time>2024-04-06T17:14:23Z</time>
      </trkpt>
      <trkpt lat="43.54251" lon="2.87496">
        <ele>211</ele>
        <time>2024-04-06T17:14:25Z</time>
      </trkpt>
      <trkpt lat="43.54333" lon="2.87494">
        <ele>217</ele>
        <time>2024-04-06T17:14:39Z</time>
      </trkpt>
      <trkpt lat="43.54359" lon="2.87498">
        <ele>222</ele>
        <time>2024-04-06T17:14:44Z</time>
      </trkpt>
      <trkpt lat="43.54378" lon="2.87505">
        <ele>225</ele>
        <time>2024-04-06T17:14:47Z</time>
      </trkpt>
      <trkpt lat="43.54395" lon="2.87514">
        <ele>226</ele>
        <time>2024-04-06T17:14:51Z</time>
      </trkpt>
      <trkpt lat="43.54463" lon="2.87577">
        <ele>222</ele>
        <time>2024-04-06T17:15:05Z</time>
      </trkpt>
      <trkpt lat="43.54623" lon="2.87843">
        <ele>211</ele>
        <time>2024-04-06T17:15:50Z</time>
      </trkpt>
      <trkpt lat="43.54638" lon="2.87865">
        <ele>211</ele>
        <time>2024-04-06T17:15:54Z</time>
      </trkpt>
      <trkpt lat="43.54668" lon="2.87899">
        <ele>210</ele>
        <time>2024-04-06T17:16:01Z</time>
      </trkpt>
      <trkpt lat="43.54679" lon="2.87918">
        <ele>210</ele>
        <time>2024-04-06T17:16:04Z</time>
      </trkpt>
      <trkpt lat="43.54692" lon="2.87947">
        <ele>212</ele>
        <time>2024-04-06T17:16:08Z</time>
      </trkpt>
      <trkpt lat="43.54726" lon="2.88051">
        <ele>212</ele>
        <time>2024-04-06T17:16:23Z</time>
      </trkpt>
      <trkpt lat="43.54741" lon="2.88112">
        <ele>208</ele>
        <time>2024-04-06T17:16:31Z</time>
      </trkpt>
      <trkpt lat="43.5477" lon="2.88246">
        <ele>206</ele>
        <time>2024-04-06T17:16:49Z</time>
      </trkpt>
      <trkpt lat="43.54776" lon="2.88281">
        <ele>205</ele>
        <time>2024-04-06T17:16:54Z</time>
      </trkpt>
      <trkpt lat="43.5478" lon="2.88318">
        <ele>203</ele>
        <time>2024-04-06T17:16:59Z</time>
      </trkpt>
      <trkpt lat="43.54785" lon="2.88345">
        <ele>203</ele>
        <time>2024-04-06T17:17:02Z</time>
      </trkpt>
      <trkpt lat="43.54831" lon="2.88496">
        <ele>199</ele>
        <time>2024-04-06T17:17:23Z</time>
      </trkpt>
      <trkpt lat="43.54846" lon="2.88536">
        <ele>200</ele>
        <time>2024-04-06T17:17:29Z</time>
      </trkpt>
      <trkpt lat="43.54858" lon="2.88587">
        <ele>200</ele>
        <time>2024-04-06T17:17:36Z</time>
      </trkpt>
      <trkpt lat="43.54861" lon="2.88611">
        <ele>200</ele>
        <time>2024-04-06T17:17:39Z</time>
      </trkpt>
      <trkpt lat="43.54861" lon="2.88642">
        <ele>199</ele>
        <time>2024-04-06T17:17:43Z</time>
      </trkpt>
      <trkpt lat="43.54859" lon="2.88663">
        <ele>198</ele>
        <time>2024-04-06T17:17:46Z</time>
      </trkpt>
      <trkpt lat="43.54836" lon="2.88806">
        <ele>195</ele>
        <time>2024-04-06T17:18:05Z</time>
      </trkpt>
      <trkpt lat="43.54828" lon="2.88876">
        <ele>194</ele>
        <time>2024-04-06T17:18:14Z</time>
      </trkpt>
      <trkpt lat="43.54822" lon="2.88956">
        <ele>193</ele>
        <time>2024-04-06T17:18:24Z</time>
      </trkpt>
      <trkpt lat="43.54819" lon="2.89066">
        <ele>192</ele>
        <time>2024-04-06T17:18:39Z</time>
      </trkpt>
      <trkpt lat="43.54823" lon="2.89163">
        <ele>192</ele>
        <time>2024-04-06T17:18:51Z</time>
      </trkpt>
      <trkpt lat="43.54831" lon="2.8923">
        <ele>189</ele>
        <time>2024-04-06T17:19:00Z</time>
      </trkpt>
      <trkpt lat="43.54842" lon="2.89288">
        <ele>189</ele>
        <time>2024-04-06T17:19:08Z</time>
      </trkpt>
      <trkpt lat="43.54874" lon="2.89436">
        <ele>198</ele>
        <time>2024-04-06T17:19:28Z</time>
      </trkpt>
      <trkpt lat="43.54875" lon="2.89477">
        <ele>198</ele>
        <time>2024-04-06T17:19:33Z</time>
      </trkpt>
      <trkpt lat="43.54872" lon="2.89505">
        <ele>198</ele>
        <time>2024-04-06T17:19:37Z</time>
      </trkpt>
      <trkpt lat="43.54864" lon="2.89537">
        <ele>197</ele>
        <time>2024-04-06T17:19:41Z</time>
      </trkpt>
      <trkpt lat="43.54849" lon="2.89602">
        <ele>199</ele>
        <time>2024-04-06T17:19:50Z</time>
      </trkpt>
      <trkpt lat="43.54844" lon="2.8963">
        <ele>201</ele>
        <time>2024-04-06T17:19:53Z</time>
      </trkpt>
      <trkpt lat="43.54843" lon="2.89653">
        <ele>202</ele>
        <time>2024-04-06T17:19:56Z</time>
      </trkpt>
      <trkpt lat="43.54845" lon="2.89689">
        <ele>203</ele>
        <time>2024-04-06T17:20:01Z</time>
      </trkpt>
      <trkpt lat="43.54852" lon="2.89718">
        <ele>202</ele>
        <time>2024-04-06T17:20:05Z</time>
      </trkpt>
      <trkpt lat="43.54861" lon="2.89739">
        <ele>203</ele>
        <time>2024-04-06T17:20:08Z</time>
      </trkpt>
      <trkpt lat="43.5487" lon="2.89751">
        <ele>203</ele>
        <time>2024-04-06T17:20:10Z</time>
      </trkpt>
      <trkpt lat="43.54885" lon="2.89768">
        <ele>203</ele>
        <time>2024-04-06T17:20:14Z</time>
      </trkpt>
      <trkpt lat="43.54904" lon="2.89782">
        <ele>202</ele>
        <time>2024-04-06T17:20:18Z</time>
      </trkpt>
      <trkpt lat="43.54938" lon="2.89805">
        <ele>202</ele>
        <time>2024-04-06T17:20:24Z</time>
      </trkpt>
      <trkpt lat="43.5501" lon="2.89849">
        <ele>203</ele>
        <time>2024-04-06T17:20:38Z</time>
      </trkpt>
      <trkpt lat="43.55061" lon="2.89885">
        <ele>201</ele>
        <time>2024-04-06T17:20:49Z</time>
      </trkpt>
      <trkpt lat="43.55078" lon="2.89904">
        <ele>201</ele>
        <time>2024-04-06T17:20:52Z</time>
      </trkpt>
      <trkpt lat="43.55093" lon="2.89925">
        <ele>201</ele>
        <time>2024-04-06T17:20:56Z</time>
      </trkpt>
      <trkpt lat="43.55114" lon="2.89965">
        <ele>199</ele>
        <time>2024-04-06T17:21:03Z</time>
      </trkpt>
      <trkpt lat="43.55138" lon="2.90043">
        <ele>201</ele>
        <time>2024-04-06T17:21:14Z</time>
      </trkpt>
      <trkpt lat="43.55145" lon="2.9007">
        <ele>201</ele>
        <time>2024-04-06T17:21:17Z</time>
      </trkpt>
      <trkpt lat="43.55149" lon="2.9009">
        <ele>200</ele>
        <time>2024-04-06T17:21:20Z</time>
      </trkpt>
      <trkpt lat="43.55149" lon="2.90113">
        <ele>199</ele>
        <time>2024-04-06T17:21:23Z</time>
      </trkpt>
      <trkpt lat="43.55143" lon="2.90168">
        <ele>194</ele>
        <time>2024-04-06T17:21:30Z</time>
      </trkpt>
      <trkpt lat="43.55144" lon="2.90184">
        <ele>194</ele>
        <time>2024-04-06T17:21:32Z</time>
      </trkpt>
      <trkpt lat="43.55161" lon="2.90231">
        <ele>192</ele>
        <time>2024-04-06T17:21:39Z</time>
      </trkpt>
      <trkpt lat="43.55172" lon="2.90251">
        <ele>192</ele>
        <time>2024-04-06T17:21:42Z</time>
      </trkpt>
      <trkpt lat="43.55184" lon="2.90269">
        <ele>191</ele>
        <time>2024-04-06T17:21:45Z</time>
      </trkpt>
      <trkpt lat="43.55234" lon="2.90299">
        <ele>194</ele>
        <time>2024-04-06T17:21:55Z</time>
      </trkpt>
      <trkpt lat="43.55251" lon="2.90312">
        <ele>194</ele>
        <time>2024-04-06T17:21:58Z</time>
      </trkpt>
      <trkpt lat="43.55262" lon="2.90327">
        <ele>192</ele>
        <time>2024-04-06T17:22:01Z</time>
      </trkpt>
      <trkpt lat="43.55334" lon="2.90459">
        <ele>189</ele>
        <time>2024-04-06T17:22:23Z</time>
      </trkpt>
      <trkpt lat="43.55343" lon="2.90489">
        <ele>190</ele>
        <time>2024-04-06T17:22:27Z</time>
      </trkpt>
      <trkpt lat="43.55377" lon="2.90656">
        <ele>187</ele>
        <time>2024-04-06T17:22:49Z</time>
      </trkpt>
      <trkpt lat="43.55378" lon="2.9069">
        <ele>187</ele>
        <time>2024-04-06T17:22:53Z</time>
      </trkpt>
      <trkpt lat="43.55369" lon="2.90792">
        <ele>184</ele>
        <time>2024-04-06T17:23:07Z</time>
      </trkpt>
      <trkpt lat="43.5537" lon="2.90811">
        <ele>184</ele>
        <time>2024-04-06T17:23:09Z</time>
      </trkpt>
      <trkpt lat="43.55378" lon="2.90858">
        <ele>183</ele>
        <time>2024-04-06T17:23:15Z</time>
      </trkpt>
      <trkpt lat="43.55387" lon="2.90887">
        <ele>182</ele>
        <time>2024-04-06T17:23:19Z</time>
      </trkpt>
      <trkpt lat="43.554" lon="2.90923">
        <ele>181</ele>
        <time>2024-04-06T17:23:25Z</time>
      </trkpt>
      <trkpt lat="43.55406" lon="2.90935">
        <ele>181</ele>
        <time>2024-04-06T17:23:27Z</time>
      </trkpt>
      <trkpt lat="43.55413" lon="2.90943">
        <ele>181</ele>
        <time>2024-04-06T17:23:28Z</time>
      </trkpt>
      <trkpt lat="43.55425" lon="2.90954">
        <ele>180</ele>
        <time>2024-04-06T17:23:31Z</time>
      </trkpt>
      <trkpt lat="43.55415" lon="2.9108">
        <ele>178</ele>
        <time>2024-04-06T17:23:47Z</time>
      </trkpt>
      <trkpt lat="43.55416" lon="2.91087">
        <ele>179</ele>
        <time>2024-04-06T17:23:48Z</time>
      </trkpt>
      <trkpt lat="43.55422" lon="2.91097">
        <ele>181</ele>
        <time>2024-04-06T17:23:50Z</time>
      </trkpt>
      <trkpt lat="43.55449" lon="2.91122">
        <ele>183</ele>
        <time>2024-04-06T17:23:55Z</time>
      </trkpt>
      <trkpt lat="43.55477" lon="2.91143">
        <ele>183</ele>
        <time>2024-04-06T17:24:01Z</time>
      </trkpt>
      <trkpt lat="43.55493" lon="2.91164">
        <ele>184</ele>
        <time>2024-04-06T17:24:05Z</time>
      </trkpt>
      <trkpt lat="43.55555" lon="2.91251">
        <ele>189</ele>
        <time>2024-04-06T17:24:21Z</time>
      </trkpt>
      <trkpt lat="43.55596" lon="2.91289">
        <ele>190</ele>
        <time>2024-04-06T17:24:30Z</time>
      </trkpt>
      <trkpt lat="43.55601" lon="2.91298">
        <ele>192</ele>
        <time>2024-04-06T17:24:31Z</time>
      </trkpt>
      <trkpt lat="43.55603" lon="2.91307">
        <ele>193</ele>
        <time>2024-04-06T17:24:32Z</time>
      </trkpt>
      <trkpt lat="43.55605" lon="2.91322">
        <ele>195</ele>
        <time>2024-04-06T17:24:34Z</time>
      </trkpt>
      <trkpt lat="43.55605" lon="2.91366">
        <ele>196</ele>
        <time>2024-04-06T17:24:40Z</time>
      </trkpt>
      <trkpt lat="43.55607" lon="2.91372">
        <ele>197</ele>
        <time>2024-04-06T17:24:41Z</time>
      </trkpt>
      <trkpt lat="43.5561" lon="2.91384">
        <ele>197</ele>
        <time>2024-04-06T17:24:42Z</time>
      </trkpt>
      <trkpt lat="43.55629" lon="2.91432">
        <ele>199</ele>
        <time>2024-04-06T17:24:49Z</time>
      </trkpt>
      <trkpt lat="43.55634" lon="2.91451">
        <ele>198</ele>
        <time>2024-04-06T17:24:52Z</time>
      </trkpt>
      <trkpt lat="43.55664" lon="2.91503">
        <ele>195</ele>
        <time>2024-04-06T17:25:01Z</time>
      </trkpt>
      <trkpt lat="43.55674" lon="2.91531">
        <ele>192</ele>
        <time>2024-04-06T17:25:05Z</time>
      </trkpt>
      <trkpt lat="43.5569" lon="2.91522">
        <ele>192</ele>
        <time>2024-04-06T17:25:08Z</time>
      </trkpt>
      <trkpt lat="43.5571" lon="2.91573">
        <ele>184</ele>
        <time>2024-04-06T17:25:15Z</time>
      </trkpt>
      <trkpt lat="43.55722" lon="2.91576">
        <ele>182</ele>
        <time>2024-04-06T17:25:17Z</time>
      </trkpt>
      <trkpt lat="43.55731" lon="2.91574">
        <ele>182</ele>
        <time>2024-04-06T17:25:19Z</time>
      </trkpt>
      <trkpt lat="43.55749" lon="2.91585">
        <ele>178</ele>
        <time>2024-04-06T17:25:22Z</time>
      </trkpt>
      <trkpt lat="43.55762" lon="2.91555">
        <ele>181</ele>
        <time>2024-04-06T17:25:27Z</time>
      </trkpt>
      <trkpt lat="43.55777" lon="2.91512">
        <ele>184</ele>
        <time>2024-04-06T17:25:33Z</time>
      </trkpt>
      <trkpt lat="43.55786" lon="2.91513">
        <ele>182</ele>
        <time>2024-04-06T17:25:35Z</time>
      </trkpt>
      <trkpt lat="43.5584" lon="2.91518">
        <ele>172</ele>
        <time>2024-04-06T17:25:44Z</time>
      </trkpt>
      <trkpt lat="43.5585" lon="2.9152">
        <ele>174</ele>
        <time>2024-04-06T17:25:46Z</time>
      </trkpt>
      <trkpt lat="43.55844" lon="2.91563">
        <ele>174</ele>
        <time>2024-04-06T17:25:52Z</time>
      </trkpt>
      <trkpt lat="43.55832" lon="2.91621">
        <ele>175</ele>
        <time>2024-04-06T17:26:00Z</time>
      </trkpt>
      <trkpt lat="43.55823" lon="2.91708">
        <ele>184</ele>
        <time>2024-04-06T17:26:11Z</time>
      </trkpt>
      <trkpt lat="43.55818" lon="2.91729">
        <ele>185</ele>
        <time>2024-04-06T17:26:14Z</time>
      </trkpt>
      <trkpt lat="43.55808" lon="2.91757">
        <ele>185</ele>
        <time>2024-04-06T17:26:18Z</time>
      </trkpt>
      <trkpt lat="43.55788" lon="2.91801">
        <ele>183</ele>
        <time>2024-04-06T17:26:24Z</time>
      </trkpt>
      <trkpt lat="43.55775" lon="2.91843">
        <ele>180</ele>
        <time>2024-04-06T17:26:30Z</time>
      </trkpt>
      <trkpt lat="43.55765" lon="2.91882">
        <ele>177</ele>
        <time>2024-04-06T17:26:36Z</time>
      </trkpt>
      <trkpt lat="43.55747" lon="2.91989">
        <ele>173</ele>
        <time>2024-04-06T17:26:50Z</time>
      </trkpt>
      <trkpt lat="43.55741" lon="2.92039">
        <ele>174</ele>
        <time>2024-04-06T17:26:56Z</time>
      </trkpt>
      <trkpt lat="43.55736" lon="2.9214">
        <ele>174</ele>
        <time>2024-04-06T17:27:09Z</time>
      </trkpt>
      <trkpt lat="43.55737" lon="2.92198">
        <ele>173</ele>
        <time>2024-04-06T17:27:17Z</time>
      </trkpt>
      <trkpt lat="43.55756" lon="2.92651">
        <ele>166</ele>
        <time>2024-04-06T17:28:15Z</time>
      </trkpt>
      <trkpt lat="43.55761" lon="2.92704">
        <ele>165</ele>
        <time>2024-04-06T17:28:22Z</time>
      </trkpt>
      <trkpt lat="43.5577" lon="2.92752">
        <ele>164</ele>
        <time>2024-04-06T17:28:29Z</time>
      </trkpt>
      <trkpt lat="43.5578" lon="2.92796">
        <ele>163</ele>
        <time>2024-04-06T17:28:35Z</time>
      </trkpt>
      <trkpt lat="43.55794" lon="2.92837">
        <ele>163</ele>
        <time>2024-04-06T17:28:41Z</time>
      </trkpt>
      <trkpt lat="43.55832" lon="2.92917">
        <ele>165</ele>
        <time>2024-04-06T17:28:53Z</time>
      </trkpt>
      <trkpt lat="43.55998" lon="2.9323">
        <ele>165</ele>
        <time>2024-04-06T17:29:43Z</time>
      </trkpt>
      <trkpt lat="43.56028" lon="2.93277">
        <ele>165</ele>
        <time>2024-04-06T17:29:51Z</time>
      </trkpt>
      <trkpt lat="43.56072" lon="2.93329">
        <ele>164</ele>
        <time>2024-04-06T17:30:01Z</time>
      </trkpt>
      <trkpt lat="43.56095" lon="2.9335">
        <ele>165</ele>
        <time>2024-04-06T17:30:06Z</time>
      </trkpt>
      <trkpt lat="43.56108" lon="2.93357">
        <ele>165</ele>
        <time>2024-04-06T17:30:09Z</time>
      </trkpt>
      <trkpt lat="43.56168" lon="2.93409">
        <ele>163</ele>
        <time>2024-04-06T17:30:21Z</time>
      </trkpt>
      <trkpt lat="43.56175" lon="2.93421">
        <ele>163</ele>
        <time>2024-04-06T17:30:23Z</time>
      </trkpt>
      <trkpt lat="43.56209" lon="2.93462">
        <ele>166</ele>
        <time>2024-04-06T17:30:31Z</time>
      </trkpt>
      <trkpt lat="43.56254" lon="2.9354">
        <ele>163</ele>
        <time>2024-04-06T17:30:44Z</time>
      </trkpt>
      <trkpt lat="43.56291" lon="2.93595">
        <ele>162</ele>
        <time>2024-04-06T17:30:54Z</time>
      </trkpt>
      <trkpt lat="43.564" lon="2.93735">
        <ele>160</ele>
        <time>2024-04-06T17:31:20Z</time>
      </trkpt>
      <trkpt lat="43.5642" lon="2.93764">
        <ele>160</ele>
        <time>2024-04-06T17:31:25Z</time>
      </trkpt>
      <trkpt lat="43.56432" lon="2.93786">
        <ele>161</ele>
        <time>2024-04-06T17:31:29Z</time>
      </trkpt>
      <trkpt lat="43.56443" lon="2.93817">
        <ele>163</ele>
        <time>2024-04-06T17:31:33Z</time>
      </trkpt>
      <trkpt lat="43.56466" lon="2.93906">
        <ele>169</ele>
        <time>2024-04-06T17:31:46Z</time>
      </trkpt>
      <trkpt lat="43.56472" lon="2.93962">
        <ele>166</ele>
        <time>2024-04-06T17:31:53Z</time>
      </trkpt>
      <trkpt lat="43.56472" lon="2.93981">
        <ele>165</ele>
        <time>2024-04-06T17:31:55Z</time>
      </trkpt>
      <trkpt lat="43.56471" lon="2.94002">
        <ele>163</ele>
        <time>2024-04-06T17:31:58Z</time>
      </trkpt>
      <trkpt lat="43.56465" lon="2.94033">
        <ele>162</ele>
        <time>2024-04-06T17:32:02Z</time>
      </trkpt>
      <trkpt lat="43.56459" lon="2.94067">
        <ele>161</ele>
        <time>2024-04-06T17:32:07Z</time>
      </trkpt>
      <trkpt lat="43.56449" lon="2.94097">
        <ele>161</ele>
        <time>2024-04-06T17:32:11Z</time>
      </trkpt>
      <trkpt lat="43.56433" lon="2.94144">
        <ele>163</ele>
        <time>2024-04-06T17:32:18Z</time>
      </trkpt>
      <trkpt lat="43.56422" lon="2.94166">
        <ele>163</ele>
        <time>2024-04-06T17:32:21Z</time>
      </trkpt>
      <trkpt lat="43.56415" lon="2.94197">
        <ele>165</ele>
        <time>2024-04-06T17:32:25Z</time>
      </trkpt>
      <trkpt lat="43.56409" lon="2.94252">
        <ele>167</ele>
        <time>2024-04-06T17:32:33Z</time>
      </trkpt>
      <trkpt lat="43.56413" lon="2.94313">
        <ele>168</ele>
        <time>2024-04-06T17:32:40Z</time>
      </trkpt>
      <trkpt lat="43.56419" lon="2.9438">
        <ele>167</ele>
        <time>2024-04-06T17:32:49Z</time>
      </trkpt>
      <trkpt lat="43.56427" lon="2.94419">
        <ele>167</ele>
        <time>2024-04-06T17:32:54Z</time>
      </trkpt>
      <trkpt lat="43.56438" lon="2.94443">
        <ele>165</ele>
        <time>2024-04-06T17:32:58Z</time>
      </trkpt>
      <trkpt lat="43.56451" lon="2.94465">
        <ele>163</ele>
        <time>2024-04-06T17:33:02Z</time>
      </trkpt>
      <trkpt lat="43.56471" lon="2.94486">
        <ele>163</ele>
        <time>2024-04-06T17:33:06Z</time>
      </trkpt>
      <trkpt lat="43.5654" lon="2.94532">
        <ele>164</ele>
        <time>2024-04-06T17:33:20Z</time>
      </trkpt>
      <trkpt lat="43.56561" lon="2.94551">
        <ele>164</ele>
        <time>2024-04-06T17:33:24Z</time>
      </trkpt>
      <trkpt lat="43.56583" lon="2.94576">
        <ele>163</ele>
        <time>2024-04-06T17:33:29Z</time>
      </trkpt>
      <trkpt lat="43.56595" lon="2.94595">
        <ele>163</ele>
        <time>2024-04-06T17:33:33Z</time>
      </trkpt>
      <trkpt lat="43.56616" lon="2.94631">
        <ele>165</ele>
        <time>2024-04-06T17:33:39Z</time>
      </trkpt>
      <trkpt lat="43.56644" lon="2.94686">
        <ele>170</ele>
        <time>2024-04-06T17:33:47Z</time>
      </trkpt>
      <trkpt lat="43.5666" lon="2.94723">
        <ele>171</ele>
        <time>2024-04-06T17:33:53Z</time>
      </trkpt>
      <trkpt lat="43.5667" lon="2.94758">
        <ele>170</ele>
        <time>2024-04-06T17:33:58Z</time>
      </trkpt>
      <trkpt lat="43.56676" lon="2.94791">
        <ele>170</ele>
        <time>2024-04-06T17:34:02Z</time>
      </trkpt>
      <trkpt lat="43.5668" lon="2.94829">
        <ele>168</ele>
        <time>2024-04-06T17:34:07Z</time>
      </trkpt>
      <trkpt lat="43.5668" lon="2.94864">
        <ele>168</ele>
        <time>2024-04-06T17:34:11Z</time>
      </trkpt>
      <trkpt lat="43.56677" lon="2.94902">
        <ele>167</ele>
        <time>2024-04-06T17:34:16Z</time>
      </trkpt>
      <trkpt lat="43.5667" lon="2.94942">
        <ele>165</ele>
        <time>2024-04-06T17:34:22Z</time>
      </trkpt>
      <trkpt lat="43.56663" lon="2.94969">
        <ele>163</ele>
        <time>2024-04-06T17:34:25Z</time>
      </trkpt>
      <trkpt lat="43.56653" lon="2.94999">
        <ele>162</ele>
        <time>2024-04-06T17:34:30Z</time>
      </trkpt>
      <trkpt lat="43.56645" lon="2.95018">
        <ele>162</ele>
        <time>2024-04-06T17:34:32Z</time>
      </trkpt>
      <trkpt lat="43.56629" lon="2.95064">
        <ele>164</ele>
        <time>2024-04-06T17:34:39Z</time>
      </trkpt>
      <trkpt lat="43.56622" lon="2.95091">
        <ele>164</ele>
        <time>2024-04-06T17:34:43Z</time>
      </trkpt>
      <trkpt lat="43.56619" lon="2.95114">
        <ele>164</ele>
        <time>2024-04-06T17:34:46Z</time>
      </trkpt>
      <trkpt lat="43.5662" lon="2.95148">
        <ele>165</ele>
        <time>2024-04-06T17:34:50Z</time>
      </trkpt>
      <trkpt lat="43.5663" lon="2.95216">
        <ele>168</ele>
        <time>2024-04-06T17:34:59Z</time>
      </trkpt>
      <trkpt lat="43.56632" lon="2.95242">
        <ele>168</ele>
        <time>2024-04-06T17:35:02Z</time>
      </trkpt>
      <trkpt lat="43.56632" lon="2.95268">
        <ele>168</ele>
        <time>2024-04-06T17:35:06Z</time>
      </trkpt>
      <trkpt lat="43.56629" lon="2.95298">
        <ele>168</ele>
        <time>2024-04-06T17:35:10Z</time>
      </trkpt>
      <trkpt lat="43.56608" lon="2.95408">
        <ele>166</ele>
        <time>2024-04-06T17:35:24Z</time>
      </trkpt>
      <trkpt lat="43.56615" lon="2.95413">
        <ele>168</ele>
        <time>2024-04-06T17:35:26Z</time>
      </trkpt>
      <trkpt lat="43.56618" lon="2.95419">
        <ele>169</ele>
        <time>2024-04-06T17:35:27Z</time>
      </trkpt>
      <trkpt lat="43.56618" lon="2.95432">
        <ele>169</ele>
        <time>2024-04-06T17:35:28Z</time>
      </trkpt>
      <trkpt lat="43.56614" lon="2.95462">
        <ele>168</ele>
        <time>2024-04-06T17:35:32Z</time>
      </trkpt>
      <trkpt lat="43.56613" lon="2.95484">
        <ele>168</ele>
        <time>2024-04-06T17:35:35Z</time>
      </trkpt>
      <trkpt lat="43.56615" lon="2.95497">
        <ele>168</ele>
        <time>2024-04-06T17:35:37Z</time>
      </trkpt>
      <trkpt lat="43.56623" lon="2.95514">
        <ele>170</ele>
        <time>2024-04-06T17:35:39Z</time>
      </trkpt>
      <trkpt lat="43.56636" lon="2.95532">
        <ele>173</ele>
        <time>2024-04-06T17:35:43Z</time>
      </trkpt>
      <trkpt lat="43.56639" lon="2.95544">
        <ele>174</ele>
        <time>2024-04-06T17:35:44Z</time>
      </trkpt>
      <trkpt lat="43.5664" lon="2.95563">
        <ele>174</ele>
        <time>2024-04-06T17:35:47Z</time>
      </trkpt>
      <trkpt lat="43.5664" lon="2.95603">
        <ele>175</ele>
        <time>2024-04-06T17:35:52Z</time>
      </trkpt>
      <trkpt lat="43.56626" lon="2.95653">
        <ele>174</ele>
        <time>2024-04-06T17:35:59Z</time>
      </trkpt>
      <trkpt lat="43.56624" lon="2.9567">
        <ele>174</ele>
        <time>2024-04-06T17:36:01Z</time>
      </trkpt>
      <trkpt lat="43.56632" lon="2.95754">
        <ele>176</ele>
        <time>2024-04-06T17:36:12Z</time>
      </trkpt>
      <trkpt lat="43.56648" lon="2.95815">
        <ele>180</ele>
        <time>2024-04-06T17:36:20Z</time>
      </trkpt>
      <trkpt lat="43.56652" lon="2.95839">
        <ele>181</ele>
        <time>2024-04-06T17:36:24Z</time>
      </trkpt>
      <trkpt lat="43.56662" lon="2.9596">
        <ele>185</ele>
        <time>2024-04-06T17:36:39Z</time>
      </trkpt>
      <trkpt lat="43.56631" lon="2.95963">
        <ele>184</ele>
        <time>2024-04-06T17:36:45Z</time>
      </trkpt>
      <trkpt lat="43.56639" lon="2.96105">
        <ele>185</ele>
        <time>2024-04-06T17:37:03Z</time>
      </trkpt>
      <trkpt lat="43.56637" lon="2.96112">
        <ele>185</ele>
        <time>2024-04-06T17:37:04Z</time>
      </trkpt>
      <trkpt lat="43.56635" lon="2.96115">
        <ele>185</ele>
        <time>2024-04-06T17:37:05Z</time>
      </trkpt>
      <trkpt lat="43.5663" lon="2.96115">
        <ele>185</ele>
        <time>2024-04-06T17:37:06Z</time>
      </trkpt>
      <trkpt lat="43.56655" lon="2.96416">
        <ele>174</ele>
        <time>2024-04-06T17:37:45Z</time>
      </trkpt>
      <trkpt lat="43.56675" lon="2.96554">
        <ele>170</ele>
        <time>2024-04-06T17:38:03Z</time>
      </trkpt>
      <trkpt lat="43.56677" lon="2.96586">
        <ele>170</ele>
        <time>2024-04-06T17:38:07Z</time>
      </trkpt>
      <trkpt lat="43.56673" lon="2.96619">
        <ele>170</ele>
        <time>2024-04-06T17:38:11Z</time>
      </trkpt>
      <trkpt lat="43.56661" lon="2.96661">
        <ele>171</ele>
        <time>2024-04-06T17:38:17Z</time>
      </trkpt>
      <trkpt lat="43.56616" lon="2.96781">
        <ele>171</ele>
        <time>2024-04-06T17:38:34Z</time>
      </trkpt>
      <trkpt lat="43.56601" lon="2.96827">
        <ele>170</ele>
        <time>2024-04-06T17:38:41Z</time>
      </trkpt>
      <trkpt lat="43.56592" lon="2.96859">
        <ele>169</ele>
        <time>2024-04-06T17:38:45Z</time>
      </trkpt>
      <trkpt lat="43.56585" lon="2.969">
        <ele>168</ele>
        <time>2024-04-06T17:38:51Z</time>
      </trkpt>
      <trkpt lat="43.56579" lon="2.96936">
        <ele>169</ele>
        <time>2024-04-06T17:38:56Z</time>
      </trkpt>
      <trkpt lat="43.56577" lon="2.96966">
        <ele>170</ele>
        <time>2024-04-06T17:38:59Z</time>
      </trkpt>
      <trkpt lat="43.56578" lon="2.97077">
        <ele>167</ele>
        <time>2024-04-06T17:39:14Z</time>
      </trkpt>
      <trkpt lat="43.56576" lon="2.97105">
        <ele>166</ele>
        <time>2024-04-06T17:39:17Z</time>
      </trkpt>
      <trkpt lat="43.56552" lon="2.97239">
        <ele>154</ele>
        <time>2024-04-06T17:39:35Z</time>
      </trkpt>
      <trkpt lat="43.56549" lon="2.97261">
        <ele>153</ele>
        <time>2024-04-06T17:39:38Z</time>
      </trkpt>
      <trkpt lat="43.56547" lon="2.97301">
        <ele>152</ele>
        <time>2024-04-06T17:39:43Z</time>
      </trkpt>
      <trkpt lat="43.5655" lon="2.9733">
        <ele>152</ele>
        <time>2024-04-06T17:39:47Z</time>
      </trkpt>
      <trkpt lat="43.56555" lon="2.97355">
        <ele>152</ele>
        <time>2024-04-06T17:39:50Z</time>
      </trkpt>
      <trkpt lat="43.56568" lon="2.97385">
        <ele>152</ele>
        <time>2024-04-06T17:39:55Z</time>
      </trkpt>
      <trkpt lat="43.56585" lon="2.97407">
        <ele>153</ele>
        <time>2024-04-06T17:39:59Z</time>
      </trkpt>
      <trkpt lat="43.56598" lon="2.97418">
        <ele>153</ele>
        <time>2024-04-06T17:40:02Z</time>
      </trkpt>
      <trkpt lat="43.56621" lon="2.9743">
        <ele>152</ele>
        <time>2024-04-06T17:40:06Z</time>
      </trkpt>
      <trkpt lat="43.56632" lon="2.97433">
        <ele>151</ele>
        <time>2024-04-06T17:40:08Z</time>
      </trkpt>
      <trkpt lat="43.5665" lon="2.97432">
        <ele>151</ele>
        <time>2024-04-06T17:40:11Z</time>
      </trkpt>
      <trkpt lat="43.56694" lon="2.97429">
        <ele>150</ele>
        <time>2024-04-06T17:40:19Z</time>
      </trkpt>
      <trkpt lat="43.56712" lon="2.97434">
        <ele>149</ele>
        <time>2024-04-06T17:40:22Z</time>
      </trkpt>
      <trkpt lat="43.56732" lon="2.97443">
        <ele>148</ele>
        <time>2024-04-06T17:40:26Z</time>
      </trkpt>
      <trkpt lat="43.56753" lon="2.97465">
        <ele>147</ele>
        <time>2024-04-06T17:40:31Z</time>
      </trkpt>
      <trkpt lat="43.56761" lon="2.97477">
        <ele>148</ele>
        <time>2024-04-06T17:40:33Z</time>
      </trkpt>
      <trkpt lat="43.56781" lon="2.97512">
        <ele>152</ele>
        <time>2024-04-06T17:40:39Z</time>
      </trkpt>
      <trkpt lat="43.56799" lon="2.97547">
        <ele>155</ele>
        <time>2024-04-06T17:40:44Z</time>
      </trkpt>
      <trkpt lat="43.56854" lon="2.97616">
        <ele>161</ele>
        <time>2024-04-06T17:40:57Z</time>
      </trkpt>
      <trkpt lat="43.56906" lon="2.97744">
        <ele>162</ele>
        <time>2024-04-06T17:41:16Z</time>
      </trkpt>
      <trkpt lat="43.56912" lon="2.97753">
        <ele>163</ele>
        <time>2024-04-06T17:41:18Z</time>
      </trkpt>
      <trkpt lat="43.5693" lon="2.97765">
        <ele>166</ele>
        <time>2024-04-06T17:41:22Z</time>
      </trkpt>
      <trkpt lat="43.56951" lon="2.97769">
        <ele>169</ele>
        <time>2024-04-06T17:41:25Z</time>
      </trkpt>
      <trkpt lat="43.56975" lon="2.97768">
        <ele>173</ele>
        <time>2024-04-06T17:41:30Z</time>
      </trkpt>
      <trkpt lat="43.56998" lon="2.97785">
        <ele>175</ele>
        <time>2024-04-06T17:41:34Z</time>
      </trkpt>
      <trkpt lat="43.57013" lon="2.97801">
        <ele>177</ele>
        <time>2024-04-06T17:41:38Z</time>
      </trkpt>
      <trkpt lat="43.57025" lon="2.97818">
        <ele>178</ele>
        <time>2024-04-06T17:41:41Z</time>
      </trkpt>
      <trkpt lat="43.57031" lon="2.97833">
        <ele>177</ele>
        <time>2024-04-06T17:41:43Z</time>
      </trkpt>
      <trkpt lat="43.57034" lon="2.9785">
        <ele>179</ele>
        <time>2024-04-06T17:41:45Z</time>
      </trkpt>
      <trkpt lat="43.57033" lon="2.97871">
        <ele>180</ele>
        <time>2024-04-06T17:41:48Z</time>
      </trkpt>
      <trkpt lat="43.57028" lon="2.97888">
        <ele>180</ele>
        <time>2024-04-06T17:41:50Z</time>
      </trkpt>
      <trkpt lat="43.57023" lon="2.979">
        <ele>180</ele>
        <time>2024-04-06T17:41:52Z</time>
      </trkpt>
      <trkpt lat="43.56998" lon="2.97929">
        <ele>180</ele>
        <time>2024-04-06T17:41:58Z</time>
      </trkpt>
      <trkpt lat="43.56988" lon="2.97947">
        <ele>179</ele>
        <time>2024-04-06T17:42:01Z</time>
      </trkpt>
      <trkpt lat="43.56982" lon="2.97968">
        <ele>180</ele>
        <time>2024-04-06T17:42:04Z</time>
      </trkpt>
      <trkpt lat="43.56963" lon="2.98128">
        <ele>184</ele>
        <time>2024-04-06T17:42:25Z</time>
      </trkpt>
      <trkpt lat="43.56962" lon="2.98146">
        <ele>185</ele>
        <time>2024-04-06T17:42:27Z</time>
      </trkpt>
      <trkpt lat="43.56968" lon="2.98193">
        <ele>188</ele>
        <time>2024-04-06T17:42:33Z</time>
      </trkpt>
      <trkpt lat="43.56968" lon="2.98208">
        <ele>188</ele>
        <time>2024-04-06T17:42:35Z</time>
      </trkpt>
      <trkpt lat="43.56946" lon="2.98309">
        <ele>190</ele>
        <time>2024-04-06T17:42:49Z</time>
      </trkpt>
      <trkpt lat="43.56927" lon="2.98344">
        <ele>190</ele>
        <time>2024-04-06T17:42:54Z</time>
      </trkpt>
      <trkpt lat="43.56903" lon="2.98378">
        <ele>191</ele>
        <time>2024-04-06T17:43:00Z</time>
      </trkpt>
      <trkpt lat="43.56888" lon="2.98395">
        <ele>192</ele>
        <time>2024-04-06T17:43:04Z</time>
      </trkpt>
      <trkpt lat="43.56833" lon="2.98449">
        <ele>193</ele>
        <time>2024-04-06T17:43:16Z</time>
      </trkpt>
      <trkpt lat="43.56807" lon="2.98484">
        <ele>194</ele>
        <time>2024-04-06T17:43:22Z</time>
      </trkpt>
      <trkpt lat="43.56797" lon="2.98507">
        <ele>196</ele>
        <time>2024-04-06T17:43:26Z</time>
      </trkpt>
      <trkpt lat="43.56793" lon="2.98538">
        <ele>198</ele>
        <time>2024-04-06T17:43:30Z</time>
      </trkpt>
      <trkpt lat="43.56795" lon="2.98568">
        <ele>201</ele>
        <time>2024-04-06T17:43:34Z</time>
      </trkpt>
      <trkpt lat="43.56802" lon="2.98594">
        <ele>201</ele>
        <time>2024-04-06T17:43:37Z</time>
      </trkpt>
      <trkpt lat="43.56808" lon="2.98605">
        <ele>199</ele>
        <time>2024-04-06T17:43:39Z</time>
      </trkpt>
      <trkpt lat="43.5682" lon="2.98622">
        <ele>198</ele>
        <time>2024-04-06T17:43:42Z</time>
      </trkpt>
      <trkpt lat="43.56835" lon="2.98635">
        <ele>198</ele>
        <time>2024-04-06T17:43:45Z</time>
      </trkpt>
      <trkpt lat="43.5692" lon="2.98681">
        <ele>202</ele>
        <time>2024-04-06T17:44:01Z</time>
      </trkpt>
      <trkpt lat="43.56963" lon="2.98707">
        <ele>200</ele>
        <time>2024-04-06T17:44:10Z</time>
      </trkpt>
      <trkpt lat="43.57065" lon="2.98785">
        <ele>200</ele>
        <time>2024-04-06T17:44:31Z</time>
      </trkpt>
      <trkpt lat="43.57097" lon="2.98814">
        <ele>200</ele>
        <time>2024-04-06T17:44:37Z</time>
      </trkpt>
      <trkpt lat="43.57113" lon="2.98833">
        <ele>200</ele>
        <time>2024-04-06T17:44:41Z</time>
      </trkpt>
      <trkpt lat="43.57128" lon="2.98856">
        <ele>200</ele>
        <time>2024-04-06T17:44:45Z</time>
      </trkpt>
      <trkpt lat="43.57143" lon="2.98888">
        <ele>197</ele>
        <time>2024-04-06T17:44:50Z</time>
      </trkpt>
      <trkpt lat="43.57154" lon="2.98917">
        <ele>193</ele>
        <time>2024-04-06T17:44:54Z</time>
      </trkpt>
      <trkpt lat="43.57197" lon="2.99122">
        <ele>187</ele>
        <time>2024-04-06T17:45:22Z</time>
      </trkpt>
      <trkpt lat="43.57213" lon="2.99179">
        <ele>182</ele>
        <time>2024-04-06T17:45:30Z</time>
      </trkpt>
      <trkpt lat="43.57234" lon="2.99249">
        <ele>178</ele>
        <time>2024-04-06T17:45:39Z</time>
      </trkpt>
      <trkpt lat="43.57263" lon="2.99332">
        <ele>180</ele>
        <time>2024-04-06T17:45:51Z</time>
      </trkpt>
      <trkpt lat="43.57307" lon="2.99449">
        <ele>176</ele>
        <time>2024-04-06T17:46:08Z</time>
      </trkpt>
      <trkpt lat="43.57338" lon="2.99518">
        <ele>175</ele>
        <time>2024-04-06T17:46:19Z</time>
      </trkpt>
      <trkpt lat="43.57378" lon="2.996">
        <ele>177</ele>
        <time>2024-04-06T17:46:31Z</time>
      </trkpt>
      <trkpt lat="43.57406" lon="2.99652">
        <ele>178</ele>
        <time>2024-04-06T17:46:40Z</time>
      </trkpt>
      <trkpt lat="43.57452" lon="2.99727">
        <ele>174</ele>
        <time>2024-04-06T17:46:52Z</time>
      </trkpt>
      <trkpt lat="43.57514" lon="2.99815">
        <ele>168</ele>
        <time>2024-04-06T17:47:08Z</time>
      </trkpt>
      <trkpt lat="43.57574" lon="2.99905">
        <ele>173</ele>
        <time>2024-04-06T17:47:24Z</time>
      </trkpt>
      <trkpt lat="43.57594" lon="2.99943">
        <ele>177</ele>
        <time>2024-04-06T17:47:30Z</time>
      </trkpt>
      <trkpt lat="43.57604" lon="2.99929">
        <ele>178</ele>
        <time>2024-04-06T17:47:33Z</time>
      </trkpt>
      <trkpt lat="43.57616" lon="2.99937">
        <ele>180</ele>
        <time>2024-04-06T17:47:35Z</time>
      </trkpt>
      <trkpt lat="43.57686" lon="2.99991">
        <ele>190</ele>
        <time>2024-04-06T17:47:49Z</time>
      </trkpt>
      <trkpt lat="43.5773" lon="3.00016">
        <ele>197</ele>
        <time>2024-04-06T17:47:58Z</time>
      </trkpt>
      <trkpt lat="43.57742" lon="3.00027">
        <ele>198</ele>
        <time>2024-04-06T17:48:00Z</time>
      </trkpt>
      <trkpt lat="43.57763" lon="3.0004">
        <ele>202</ele>
        <time>2024-04-06T17:48:04Z</time>
      </trkpt>
      <trkpt lat="43.57775" lon="3.00057">
        <ele>204</ele>
        <time>2024-04-06T17:48:07Z</time>
      </trkpt>
      <trkpt lat="43.57789" lon="3.0007">
        <ele>207</ele>
        <time>2024-04-06T17:48:10Z</time>
      </trkpt>
      <trkpt lat="43.57819" lon="3.00087">
        <ele>213</ele>
        <time>2024-04-06T17:48:16Z</time>
      </trkpt>
      <trkpt lat="43.57825" lon="3.00095">
        <ele>214</ele>
        <time>2024-04-06T17:48:18Z</time>
      </trkpt>
      <trkpt lat="43.57827" lon="3.00104">
        <ele>215</ele>
        <time>2024-04-06T17:48:19Z</time>
      </trkpt>
      <trkpt lat="43.57829" lon="3.00255">
        <ele>219</ele>
        <time>2024-04-06T17:48:38Z</time>
      </trkpt>
      <trkpt lat="43.57833" lon="3.00285">
        <ele>220</ele>
        <time>2024-04-06T17:48:42Z</time>
      </trkpt>
      <trkpt lat="43.57829" lon="3.00341">
        <ele>220</ele>
        <time>2024-04-06T17:48:50Z</time>
      </trkpt>
      <trkpt lat="43.5783" lon="3.00358">
        <ele>220</ele>
        <time>2024-04-06T17:48:52Z</time>
      </trkpt>
      <trkpt lat="43.57839" lon="3.004">
        <ele>222</ele>
        <time>2024-04-06T17:48:57Z</time>
      </trkpt>
      <trkpt lat="43.57863" lon="3.00451">
        <ele>228</ele>
        <time>2024-04-06T17:49:05Z</time>
      </trkpt>
      <trkpt lat="43.57867" lon="3.00463">
        <ele>229</ele>
        <time>2024-04-06T17:49:07Z</time>
      </trkpt>
      <trkpt lat="43.57869" lon="3.00481">
        <ele>229</ele>
        <time>2024-04-06T17:49:09Z</time>
      </trkpt>
      <trkpt lat="43.57869" lon="3.00495">
        <ele>229</ele>
        <time>2024-04-06T17:49:11Z</time>
      </trkpt>
      <trkpt lat="43.57864" lon="3.00538">
        <ele>226</ele>
        <time>2024-04-06T17:49:17Z</time>
      </trkpt>
      <trkpt lat="43.57867" lon="3.00568">
        <ele>225</ele>
        <time>2024-04-06T17:49:21Z</time>
      </trkpt>
      <trkpt lat="43.57874" lon="3.00602">
        <ele>226</ele>
        <time>2024-04-06T17:49:25Z</time>
      </trkpt>
      <trkpt lat="43.57873" lon="3.00613">
        <ele>225</ele>
        <time>2024-04-06T17:49:27Z</time>
      </trkpt>
      <trkpt lat="43.57869" lon="3.00628">
        <ele>223</ele>
        <time>2024-04-06T17:49:29Z</time>
      </trkpt>
      <trkpt lat="43.57869" lon="3.00639">
        <ele>223</ele>
        <time>2024-04-06T17:49:30Z</time>
      </trkpt>
      <trkpt lat="43.57878" lon="3.00664">
        <ele>224</ele>
        <time>2024-04-06T17:49:34Z</time>
      </trkpt>
      <trkpt lat="43.57881" lon="3.00667">
        <ele>225</ele>
        <time>2024-04-06T17:49:34Z</time>
      </trkpt>
      <trkpt lat="43.57886" lon="3.00702">
        <ele>223</ele>
        <time>2024-04-06T17:49:39Z</time>
      </trkpt>
      <trkpt lat="43.57904" lon="3.00741">
        <ele>225</ele>
        <time>2024-04-06T17:49:45Z</time>
      </trkpt>
      <trkpt lat="43.57923" lon="3.00808">
        <ele>222</ele>
        <time>2024-04-06T17:49:54Z</time>
      </trkpt>
      <trkpt lat="43.5796" lon="3.00921">
        <ele>220</ele>
        <time>2024-04-06T17:50:10Z</time>
      </trkpt>
      <trkpt lat="43.57978" lon="3.00954">
        <ele>222</ele>
        <time>2024-04-06T17:50:16Z</time>
      </trkpt>
      <trkpt lat="43.57988" lon="3.00991">
        <ele>221</ele>
        <time>2024-04-06T17:50:21Z</time>
      </trkpt>
      <trkpt lat="43.57989" lon="3.01015">
        <ele>218</ele>
        <time>2024-04-06T17:50:24Z</time>
      </trkpt>
      <trkpt lat="43.57993" lon="3.01034">
        <ele>217</ele>
        <time>2024-04-06T17:50:26Z</time>
      </trkpt>
      <trkpt lat="43.58006" lon="3.01079">
        <ele>214</ele>
        <time>2024-04-06T17:50:32Z</time>
      </trkpt>
      <trkpt lat="43.58037" lon="3.01112">
        <ele>219</ele>
        <time>2024-04-06T17:50:39Z</time>
      </trkpt>
      <trkpt lat="43.5806" lon="3.01162">
        <ele>218</ele>
        <time>2024-04-06T17:50:47Z</time>
      </trkpt>
      <trkpt lat="43.58077" lon="3.0119">
        <ele>219</ele>
        <time>2024-04-06T17:50:52Z</time>
      </trkpt>
      <trkpt lat="43.58082" lon="3.01201">
        <ele>220</ele>
        <time>2024-04-06T17:50:53Z</time>
      </trkpt>
      <trkpt lat="43.5809" lon="3.01242">
        <ele>219</ele>
        <time>2024-04-06T17:50:59Z</time>
      </trkpt>
      <trkpt lat="43.58093" lon="3.01263">
        <ele>221</ele>
        <time>2024-04-06T17:51:02Z</time>
      </trkpt>
      <trkpt lat="43.58093" lon="3.01284">
        <ele>222</ele>
        <time>2024-04-06T17:51:04Z</time>
      </trkpt>
      <trkpt lat="43.58088" lon="3.01311">
        <ele>223</ele>
        <time>2024-04-06T17:51:08Z</time>
      </trkpt>
      <trkpt lat="43.58067" lon="3.01345">
        <ele>222</ele>
        <time>2024-04-06T17:51:14Z</time>
      </trkpt>
      <trkpt lat="43.58049" lon="3.01366">
        <ele>221</ele>
        <time>2024-04-06T17:51:18Z</time>
      </trkpt>
      <trkpt lat="43.58039" lon="3.01382">
        <ele>221</ele>
        <time>2024-04-06T17:51:21Z</time>
      </trkpt>
      <trkpt lat="43.58033" lon="3.014">
        <ele>221</ele>
        <time>2024-04-06T17:51:23Z</time>
      </trkpt>
      <trkpt lat="43.5802" lon="3.0146">
        <ele>223</ele>
        <time>2024-04-06T17:51:31Z</time>
      </trkpt>
      <trkpt lat="43.58015" lon="3.01472">
        <ele>223</ele>
        <time>2024-04-06T17:51:33Z</time>
      </trkpt>
      <trkpt lat="43.57987" lon="3.01513">
        <ele>222</ele>
        <time>2024-04-06T17:51:40Z</time>
      </trkpt>
      <trkpt lat="43.57938" lon="3.01577">
        <ele>221</ele>
        <time>2024-04-06T17:51:52Z</time>
      </trkpt>
      <trkpt lat="43.57924" lon="3.01598">
        <ele>221</ele>
        <time>2024-04-06T17:51:56Z</time>
      </trkpt>
      <trkpt lat="43.57913" lon="3.0162">
        <ele>221</ele>
        <time>2024-04-06T17:51:59Z</time>
      </trkpt>
      <trkpt lat="43.57907" lon="3.01637">
        <ele>221</ele>
        <time>2024-04-06T17:52:02Z</time>
      </trkpt>
      <trkpt lat="43.57901" lon="3.01673">
        <ele>222</ele>
        <time>2024-04-06T17:52:07Z</time>
      </trkpt>
      <trkpt lat="43.57893" lon="3.01765">
        <ele>219</ele>
        <time>2024-04-06T17:52:19Z</time>
      </trkpt>
      <trkpt lat="43.57887" lon="3.01809">
        <ele>217</ele>
        <time>2024-04-06T17:52:24Z</time>
      </trkpt>
      <trkpt lat="43.57874" lon="3.01969">
        <ele>213</ele>
        <time>2024-04-06T17:52:45Z</time>
      </trkpt>
      <trkpt lat="43.57875" lon="3.02013">
        <ele>213</ele>
        <time>2024-04-06T17:52:51Z</time>
      </trkpt>
      <trkpt lat="43.57869" lon="3.02074">
        <ele>215</ele>
        <time>2024-04-06T17:52:59Z</time>
      </trkpt>
      <trkpt lat="43.57868" lon="3.02112">
        <ele>215</ele>
        <time>2024-04-06T17:53:04Z</time>
      </trkpt>
      <trkpt lat="43.57869" lon="3.02133">
        <ele>216</ele>
        <time>2024-04-06T17:53:06Z</time>
      </trkpt>
      <trkpt lat="43.57873" lon="3.02159">
        <ele>217</ele>
        <time>2024-04-06T17:53:10Z</time>
      </trkpt>
      <trkpt lat="43.5788" lon="3.02185">
        <ele>216</ele>
        <time>2024-04-06T17:53:13Z</time>
      </trkpt>
      <trkpt lat="43.57891" lon="3.02212">
        <ele>214</ele>
        <time>2024-04-06T17:53:17Z</time>
      </trkpt>
      <trkpt lat="43.57913" lon="3.02245">
        <ele>214</ele>
        <time>2024-04-06T17:53:23Z</time>
      </trkpt>
      <trkpt lat="43.57936" lon="3.0227">
        <ele>214</ele>
        <time>2024-04-06T17:53:28Z</time>
      </trkpt>
      <trkpt lat="43.57971" lon="3.02301">
        <ele>214</ele>
        <time>2024-04-06T17:53:36Z</time>
      </trkpt>
      <trkpt lat="43.5798" lon="3.02313">
        <ele>213</ele>
        <time>2024-04-06T17:53:38Z</time>
      </trkpt>
      <trkpt lat="43.57986" lon="3.02329">
        <ele>212</ele>
        <time>2024-04-06T17:53:40Z</time>
      </trkpt>
      <trkpt lat="43.57991" lon="3.02353">
        <ele>213</ele>
        <time>2024-04-06T17:53:44Z</time>
      </trkpt>
      <trkpt lat="43.57991" lon="3.02366">
        <ele>214</ele>
        <time>2024-04-06T17:53:45Z</time>
      </trkpt>
      <trkpt lat="43.57989" lon="3.0238">
        <ele>215</ele>
        <time>2024-04-06T17:53:47Z</time>
      </trkpt>
      <trkpt lat="43.57982" lon="3.02396">
        <ele>215</ele>
        <time>2024-04-06T17:53:49Z</time>
      </trkpt>
      <trkpt lat="43.57974" lon="3.02409">
        <ele>216</ele>
        <time>2024-04-06T17:53:52Z</time>
      </trkpt>
      <trkpt lat="43.57963" lon="3.0242">
        <ele>216</ele>
        <time>2024-04-06T17:53:54Z</time>
      </trkpt>
      <trkpt lat="43.5794" lon="3.02434">
        <ele>215</ele>
        <time>2024-04-06T17:53:59Z</time>
      </trkpt>
      <trkpt lat="43.57854" lon="3.02473">
        <ele>212</ele>
        <time>2024-04-06T17:54:15Z</time>
      </trkpt>
      <trkpt lat="43.57838" lon="3.02485">
        <ele>211</ele>
        <time>2024-04-06T17:54:18Z</time>
      </trkpt>
      <trkpt lat="43.57828" lon="3.02499">
        <ele>212</ele>
        <time>2024-04-06T17:54:20Z</time>
      </trkpt>
      <trkpt lat="43.5782" lon="3.02517">
        <ele>212</ele>
        <time>2024-04-06T17:54:23Z</time>
      </trkpt>
      <trkpt lat="43.57813" lon="3.02545">
        <ele>213</ele>
        <time>2024-04-06T17:54:27Z</time>
      </trkpt>
      <trkpt lat="43.57811" lon="3.02562">
        <ele>214</ele>
        <time>2024-04-06T17:54:29Z</time>
      </trkpt>
      <trkpt lat="43.57815" lon="3.02589">
        <ele>214</ele>
        <time>2024-04-06T17:54:33Z</time>
      </trkpt>
      <trkpt lat="43.57824" lon="3.02617">
        <ele>212</ele>
        <time>2024-04-06T17:54:37Z</time>
      </trkpt>
      <trkpt lat="43.57944" lon="3.0289">
        <ele>208</ele>
        <time>2024-04-06T17:55:18Z</time>
      </trkpt>
      <trkpt lat="43.57991" lon="3.03008">
        <ele>202</ele>
        <time>2024-04-06T17:55:35Z</time>
      </trkpt>
      <trkpt lat="43.5802" lon="3.03098">
        <ele>198</ele>
        <time>2024-04-06T17:55:48Z</time>
      </trkpt>
      <trkpt lat="43.5803" lon="3.03141">
        <ele>198</ele>
        <time>2024-04-06T17:55:54Z</time>
      </trkpt>
      <trkpt lat="43.58039" lon="3.03195">
        <ele>197</ele>
        <time>2024-04-06T17:56:01Z</time>
      </trkpt>
      <trkpt lat="43.58045" lon="3.03247">
        <ele>194</ele>
        <time>2024-04-06T17:56:08Z</time>
      </trkpt>
      <trkpt lat="43.58048" lon="3.03306">
        <ele>188</ele>
        <time>2024-04-06T17:56:15Z</time>
      </trkpt>
      <trkpt lat="43.58048" lon="3.03353">
        <ele>184</ele>
        <time>2024-04-06T17:56:21Z</time>
      </trkpt>
      <trkpt lat="43.5804" lon="3.03445">
        <ele>179</ele>
        <time>2024-04-06T17:56:33Z</time>
      </trkpt>
      <trkpt lat="43.58031" lon="3.03504">
        <ele>180</ele>
        <time>2024-04-06T17:56:41Z</time>
      </trkpt>
      <trkpt lat="43.58007" lon="3.03595">
        <ele>181</ele>
        <time>2024-04-06T17:56:54Z</time>
      </trkpt>
      <trkpt lat="43.5791" lon="3.03917">
        <ele>171</ele>
        <time>2024-04-06T17:57:38Z</time>
      </trkpt>
      <trkpt lat="43.57886" lon="3.03994">
        <ele>173</ele>
        <time>2024-04-06T17:57:49Z</time>
      </trkpt>
      <trkpt lat="43.57873" lon="3.04022">
        <ele>174</ele>
        <time>2024-04-06T17:57:54Z</time>
      </trkpt>
      <trkpt lat="43.57848" lon="3.04054">
        <ele>176</ele>
        <time>2024-04-06T17:58:00Z</time>
      </trkpt>
      <trkpt lat="43.57837" lon="3.04073">
        <ele>176</ele>
        <time>2024-04-06T17:58:03Z</time>
      </trkpt>
      <trkpt lat="43.57831" lon="3.04087">
        <ele>177</ele>
        <time>2024-04-06T17:58:05Z</time>
      </trkpt>
      <trkpt lat="43.57813" lon="3.0415">
        <ele>177</ele>
        <time>2024-04-06T17:58:14Z</time>
      </trkpt>
      <trkpt lat="43.57748" lon="3.04337">
        <ele>176</ele>
        <time>2024-04-06T17:58:40Z</time>
      </trkpt>
      <trkpt lat="43.57716" lon="3.04417">
        <ele>177</ele>
        <time>2024-04-06T17:58:52Z</time>
      </trkpt>
      <trkpt lat="43.57702" lon="3.04447">
        <ele>176</ele>
        <time>2024-04-06T17:58:57Z</time>
      </trkpt>
      <trkpt lat="43.57652" lon="3.04533">
        <ele>173</ele>
        <time>2024-04-06T17:59:11Z</time>
      </trkpt>
      <trkpt lat="43.57531" lon="3.04806">
        <ele>170</ele>
        <time>2024-04-06T17:59:52Z</time>
      </trkpt>
      <trkpt lat="43.57525" lon="3.04835">
        <ele>170</ele>
        <time>2024-04-06T17:59:56Z</time>
      </trkpt>
      <trkpt lat="43.57525" lon="3.04885">
        <ele>169</ele>
        <time>2024-04-06T18:00:02Z</time>
      </trkpt>
      <trkpt lat="43.57529" lon="3.04907">
        <ele>169</ele>
        <time>2024-04-06T18:00:05Z</time>
      </trkpt>
      <trkpt lat="43.57536" lon="3.04925">
        <ele>170</ele>
        <time>2024-04-06T18:00:08Z</time>
      </trkpt>
      <trkpt lat="43.5755" lon="3.04952">
        <ele>170</ele>
        <time>2024-04-06T18:00:12Z</time>
      </trkpt>
      <trkpt lat="43.57674" lon="3.05087">
        <ele>172</ele>
        <time>2024-04-06T18:00:40Z</time>
      </trkpt>
      <trkpt lat="43.57709" lon="3.0513">
        <ele>173</ele>
        <time>2024-04-06T18:00:49Z</time>
      </trkpt>
      <trkpt lat="43.57724" lon="3.05155">
        <ele>172</ele>
        <time>2024-04-06T18:00:53Z</time>
      </trkpt>
      <trkpt lat="43.57737" lon="3.05184">
        <ele>171</ele>
        <time>2024-04-06T18:00:57Z</time>
      </trkpt>
      <trkpt lat="43.57764" lon="3.05254">
        <ele>172</ele>
        <time>2024-04-06T18:01:08Z</time>
      </trkpt>
      <trkpt lat="43.5781" lon="3.05398">
        <ele>173</ele>
        <time>2024-04-06T18:01:28Z</time>
      </trkpt>
      <trkpt lat="43.57832" lon="3.0547">
        <ele>174</ele>
        <time>2024-04-06T18:01:38Z</time>
      </trkpt>
      <trkpt lat="43.5786" lon="3.05569">
        <ele>175</ele>
        <time>2024-04-06T18:01:52Z</time>
      </trkpt>
      <trkpt lat="43.57863" lon="3.056">
        <ele>174</ele>
        <time>2024-04-06T18:01:56Z</time>
      </trkpt>
      <trkpt lat="43.57864" lon="3.0563">
        <ele>174</ele>
        <time>2024-04-06T18:02:00Z</time>
      </trkpt>
      <trkpt lat="43.57861" lon="3.057">
        <ele>172</ele>
        <time>2024-04-06T18:02:09Z</time>
      </trkpt>
      <trkpt lat="43.57862" lon="3.05726">
        <ele>171</ele>
        <time>2024-04-06T18:02:12Z</time>
      </trkpt>
      <trkpt lat="43.57869" lon="3.05796">
        <ele>172</ele>
        <time>2024-04-06T18:02:21Z</time>
      </trkpt>
      <trkpt lat="43.5787" lon="3.05827">
        <ele>172</ele>
        <time>2024-04-06T18:02:25Z</time>
      </trkpt>
      <trkpt lat="43.57865" lon="3.05856">
        <ele>173</ele>
        <time>2024-04-06T18:02:29Z</time>
      </trkpt>
      <trkpt lat="43.57861" lon="3.05905">
        <ele>175</ele>
        <time>2024-04-06T18:02:35Z</time>
      </trkpt>
      <trkpt lat="43.57861" lon="3.05919">
        <ele>175</ele>
        <time>2024-04-06T18:02:37Z</time>
      </trkpt>
      <trkpt lat="43.57876" lon="3.06082">
        <ele>177</ele>
        <time>2024-04-06T18:02:58Z</time>
      </trkpt>
      <trkpt lat="43.57904" lon="3.0622">
        <ele>172</ele>
        <time>2024-04-06T18:03:17Z</time>
      </trkpt>
      <trkpt lat="43.57919" lon="3.06273">
        <ele>172</ele>
        <time>2024-04-06T18:03:24Z</time>
      </trkpt>
      <trkpt lat="43.57931" lon="3.063">
        <ele>172</ele>
        <time>2024-04-06T18:03:28Z</time>
      </trkpt>
      <trkpt lat="43.57953" lon="3.06337">
        <ele>173</ele>
        <time>2024-04-06T18:03:34Z</time>
      </trkpt>
      <trkpt lat="43.58285" lon="3.06752">
        <ele>178</ele>
        <time>2024-04-06T18:04:54Z</time>
      </trkpt>
      <trkpt lat="43.5836" lon="3.06849">
        <ele>180</ele>
        <time>2024-04-06T18:05:12Z</time>
      </trkpt>
      <trkpt lat="43.58368" lon="3.06861">
        <ele>180</ele>
        <time>2024-04-06T18:05:14Z</time>
      </trkpt>
      <trkpt lat="43.58383" lon="3.0688">
        <ele>180</ele>
        <time>2024-04-06T18:05:18Z</time>
      </trkpt>
      <trkpt lat="43.58383" lon="3.06889">
        <ele>180</ele>
        <time>2024-04-06T18:05:19Z</time>
      </trkpt>
      <trkpt lat="43.58386" lon="3.06894">
        <ele>180</ele>
        <time>2024-04-06T18:05:20Z</time>
      </trkpt>
      <trkpt lat="43.58389" lon="3.06897">
        <ele>180</ele>
        <time>2024-04-06T18:05:21Z</time>
      </trkpt>
      <trkpt lat="43.58395" lon="3.06897">
        <ele>180</ele>
        <time>2024-04-06T18:05:22Z</time>
      </trkpt>
      <trkpt lat="43.58445" lon="3.06952">
        <ele>182</ele>
        <time>2024-04-06T18:05:33Z</time>
      </trkpt>
      <trkpt lat="43.58473" lon="3.06988">
        <ele>183</ele>
        <time>2024-04-06T18:05:40Z</time>
      </trkpt>
      <trkpt lat="43.58507" lon="3.07037">
        <ele>186</ele>
        <time>2024-04-06T18:05:49Z</time>
      </trkpt>
      <trkpt lat="43.5854" lon="3.07092">
        <ele>187</ele>
        <time>2024-04-06T18:05:58Z</time>
      </trkpt>
      <trkpt lat="43.58565" lon="3.07136">
        <ele>184</ele>
        <time>2024-04-06T18:06:05Z</time>
      </trkpt>
      <trkpt lat="43.5859" lon="3.07191">
        <ele>182</ele>
        <time>2024-04-06T18:06:13Z</time>
      </trkpt>
      <trkpt lat="43.58632" lon="3.07289">
        <ele>182</ele>
        <time>2024-04-06T18:06:28Z</time>
      </trkpt>
      <trkpt lat="43.58651" lon="3.07343">
        <ele>180</ele>
        <time>2024-04-06T18:06:36Z</time>
      </trkpt>
      <trkpt lat="43.58678" lon="3.07453">
        <ele>177</ele>
        <time>2024-04-06T18:06:51Z</time>
      </trkpt>
      <trkpt lat="43.58694" lon="3.07534">
        <ele>176</ele>
        <time>2024-04-06T18:07:02Z</time>
      </trkpt>
      <trkpt lat="43.58704" lon="3.07621">
        <ele>176</ele>
        <time>2024-04-06T18:07:13Z</time>
      </trkpt>
      <trkpt lat="43.58709" lon="3.07678">
        <ele>176</ele>
        <time>2024-04-06T18:07:20Z</time>
      </trkpt>
      <trkpt lat="43.58722" lon="3.07957">
        <ele>179</ele>
        <time>2024-04-06T18:07:56Z</time>
      </trkpt>
      <trkpt lat="43.58723" lon="3.08011">
        <ele>179</ele>
        <time>2024-04-06T18:08:03Z</time>
      </trkpt>
      <trkpt lat="43.58715" lon="3.08062">
        <ele>178</ele>
        <time>2024-04-06T18:08:10Z</time>
      </trkpt>
      <trkpt lat="43.58703" lon="3.08123">
        <ele>176</ele>
        <time>2024-04-06T18:08:18Z</time>
      </trkpt>
      <trkpt lat="43.58698" lon="3.08172">
        <ele>175</ele>
        <time>2024-04-06T18:08:25Z</time>
      </trkpt>
      <trkpt lat="43.58696" lon="3.08291">
        <ele>175</ele>
        <time>2024-04-06T18:08:40Z</time>
      </trkpt>
      <trkpt lat="43.5869" lon="3.083">
        <ele>175</ele>
        <time>2024-04-06T18:08:42Z</time>
      </trkpt>
      <trkpt lat="43.58686" lon="3.08317">
        <ele>174</ele>
        <time>2024-04-06T18:08:44Z</time>
      </trkpt>
      <trkpt lat="43.58685" lon="3.08324">
        <ele>174</ele>
        <time>2024-04-06T18:08:45Z</time>
      </trkpt>
      <trkpt lat="43.58687" lon="3.08337">
        <ele>174</ele>
        <time>2024-04-06T18:08:46Z</time>
      </trkpt>
      <trkpt lat="43.58692" lon="3.08348">
        <ele>174</ele>
        <time>2024-04-06T18:08:48Z</time>
      </trkpt>
      <trkpt lat="43.58715" lon="3.0837">
        <ele>176</ele>
        <time>2024-04-06T18:08:53Z</time>
      </trkpt>
      <trkpt lat="43.58728" lon="3.08406">
        <ele>178</ele>
        <time>2024-04-06T18:08:58Z</time>
      </trkpt>
      <trkpt lat="43.58751" lon="3.08521">
        <ele>180</ele>
        <time>2024-04-06T18:09:14Z</time>
      </trkpt>
      <trkpt lat="43.58772" lon="3.08649">
        <ele>183</ele>
        <time>2024-04-06T18:09:31Z</time>
      </trkpt>
      <trkpt lat="43.58786" lon="3.08711">
        <ele>185</ele>
        <time>2024-04-06T18:09:39Z</time>
      </trkpt>
      <trkpt lat="43.58827" lon="3.08863">
        <ele>187</ele>
        <time>2024-04-06T18:10:00Z</time>
      </trkpt>
      <trkpt lat="43.58835" lon="3.08907">
        <ele>188</ele>
        <time>2024-04-06T18:10:06Z</time>
      </trkpt>
      <trkpt lat="43.58837" lon="3.08984">
        <ele>186</ele>
        <time>2024-04-06T18:10:16Z</time>
      </trkpt>
      <trkpt lat="43.58813" lon="3.09576">
        <ele>188</ele>
        <time>2024-04-06T18:11:32Z</time>
      </trkpt>
      <trkpt lat="43.58818" lon="3.09619">
        <ele>187</ele>
        <time>2024-04-06T18:11:38Z</time>
      </trkpt>
      <trkpt lat="43.58828" lon="3.09671">
        <ele>186</ele>
        <time>2024-04-06T18:11:45Z</time>
      </trkpt>
      <trkpt lat="43.58843" lon="3.09725">
        <ele>186</ele>
        <time>2024-04-06T18:11:52Z</time>
      </trkpt>
      <trkpt lat="43.58882" lon="3.09819">
        <ele>186</ele>
        <time>2024-04-06T18:12:06Z</time>
      </trkpt>
      <trkpt lat="43.59018" lon="3.10097">
        <ele>182</ele>
        <time>2024-04-06T18:12:49Z</time>
      </trkpt>
      <trkpt lat="43.59038" lon="3.1013">
        <ele>182</ele>
        <time>2024-04-06T18:12:55Z</time>
      </trkpt>
      <trkpt lat="43.59076" lon="3.1017">
        <ele>182</ele>
        <time>2024-04-06T18:13:03Z</time>
      </trkpt>
      <trkpt lat="43.59106" lon="3.10205">
        <ele>183</ele>
        <time>2024-04-06T18:13:10Z</time>
      </trkpt>
      <trkpt lat="43.59145" lon="3.10262">
        <ele>184</ele>
        <time>2024-04-06T18:13:20Z</time>
      </trkpt>
      <trkpt lat="43.59179" lon="3.10329">
        <ele>185</ele>
        <time>2024-04-06T18:13:31Z</time>
      </trkpt>
      <trkpt lat="43.59195" lon="3.10366">
        <ele>186</ele>
        <time>2024-04-06T18:13:36Z</time>
      </trkpt>
      <trkpt lat="43.59209" lon="3.10411">
        <ele>187</ele>
        <time>2024-04-06T18:13:43Z</time>
      </trkpt>
      <trkpt lat="43.5925" lon="3.10608">
        <ele>188</ele>
        <time>2024-04-06T18:14:09Z</time>
      </trkpt>
      <trkpt lat="43.59254" lon="3.10631">
        <ele>188</ele>
        <time>2024-04-06T18:14:12Z</time>
      </trkpt>
      <trkpt lat="43.59256" lon="3.10672">
        <ele>188</ele>
        <time>2024-04-06T18:14:18Z</time>
      </trkpt>
      <trkpt lat="43.59252" lon="3.10692">
        <ele>189</ele>
        <time>2024-04-06T18:14:20Z</time>
      </trkpt>
      <trkpt lat="43.59252" lon="3.10702">
        <ele>189</ele>
        <time>2024-04-06T18:14:22Z</time>
      </trkpt>
      <trkpt lat="43.59246" lon="3.10711">
        <ele>189</ele>
        <time>2024-04-06T18:14:23Z</time>
      </trkpt>
      <trkpt lat="43.59236" lon="3.10733">
        <ele>189</ele>
        <time>2024-04-06T18:14:26Z</time>
      </trkpt>
      <trkpt lat="43.59223" lon="3.10771">
        <ele>188</ele>
        <time>2024-04-06T18:14:32Z</time>
      </trkpt>
      <trkpt lat="43.59214" lon="3.10809">
        <ele>186</ele>
        <time>2024-04-06T18:14:37Z</time>
      </trkpt>
      <trkpt lat="43.59212" lon="3.10824">
        <ele>186</ele>
        <time>2024-04-06T18:14:39Z</time>
      </trkpt>
      <trkpt lat="43.59222" lon="3.10877">
        <ele>186</ele>
        <time>2024-04-06T18:14:46Z</time>
      </trkpt>
      <trkpt lat="43.59225" lon="3.10916">
        <ele>185</ele>
        <time>2024-04-06T18:14:51Z</time>
      </trkpt>
      <trkpt lat="43.59225" lon="3.10923">
        <ele>185</ele>
        <time>2024-04-06T18:14:52Z</time>
      </trkpt>
      <trkpt lat="43.59233" lon="3.11094">
        <ele>186</ele>
        <time>2024-04-06T18:15:14Z</time>
      </trkpt>
      <trkpt lat="43.59236" lon="3.1117">
        <ele>187</ele>
        <time>2024-04-06T18:15:24Z</time>
      </trkpt>
      <trkpt lat="43.59247" lon="3.1133">
        <ele>186</ele>
        <time>2024-04-06T18:15:45Z</time>
      </trkpt>
      <trkpt lat="43.59249" lon="3.11525">
        <ele>188</ele>
        <time>2024-04-06T18:16:10Z</time>
      </trkpt>
      <trkpt lat="43.59253" lon="3.11591">
        <ele>189</ele>
        <time>2024-04-06T18:16:18Z</time>
      </trkpt>
      <trkpt lat="43.59255" lon="3.11614">
        <ele>188</ele>
        <time>2024-04-06T18:16:21Z</time>
      </trkpt>
      <trkpt lat="43.59259" lon="3.11627">
        <ele>188</ele>
        <time>2024-04-06T18:16:23Z</time>
      </trkpt>
      <trkpt lat="43.59266" lon="3.11642">
        <ele>188</ele>
        <time>2024-04-06T18:16:25Z</time>
      </trkpt>
      <trkpt lat="43.59269" lon="3.11654">
        <ele>187</ele>
        <time>2024-04-06T18:16:27Z</time>
      </trkpt>
      <trkpt lat="43.59275" lon="3.11662">
        <ele>187</ele>
        <time>2024-04-06T18:16:28Z</time>
      </trkpt>
      <trkpt lat="43.59281" lon="3.11667">
        <ele>187</ele>
        <time>2024-04-06T18:16:30Z</time>
      </trkpt>
      <trkpt lat="43.59279" lon="3.11681">
        <ele>187</ele>
        <time>2024-04-06T18:16:32Z</time>
      </trkpt>
      <trkpt lat="43.59303" lon="3.11693">
        <ele>187</ele>
        <time>2024-04-06T18:16:36Z</time>
      </trkpt>
      <trkpt lat="43.59302" lon="3.11726">
        <ele>185</ele>
        <time>2024-04-06T18:16:40Z</time>
      </trkpt>
      <trkpt lat="43.59299" lon="3.11738">
        <ele>184</ele>
        <time>2024-04-06T18:16:42Z</time>
      </trkpt>
      <trkpt lat="43.59304" lon="3.11809">
        <ele>182</ele>
        <time>2024-04-06T18:16:51Z</time>
      </trkpt>
      <trkpt lat="43.59316" lon="3.11884">
        <ele>182</ele>
        <time>2024-04-06T18:17:01Z</time>
      </trkpt>
      <trkpt lat="43.5936" lon="3.11903">
        <ele>183</ele>
        <time>2024-04-06T18:17:09Z</time>
      </trkpt>
      <trkpt lat="43.59386" lon="3.11919">
        <ele>184</ele>
        <time>2024-04-06T18:17:14Z</time>
      </trkpt>
      <trkpt lat="43.59399" lon="3.11932">
        <ele>184</ele>
        <time>2024-04-06T18:17:17Z</time>
      </trkpt>
      <trkpt lat="43.59405" lon="3.11943">
        <ele>184</ele>
        <time>2024-04-06T18:17:19Z</time>
      </trkpt>
      <trkpt lat="43.59413" lon="3.11964">
        <ele>184</ele>
        <time>2024-04-06T18:17:22Z</time>
      </trkpt>
      <trkpt lat="43.59418" lon="3.1199">
        <ele>184</ele>
        <time>2024-04-06T18:17:26Z</time>
      </trkpt>
      <trkpt lat="43.59443" lon="3.12209">
        <ele>180</ele>
        <time>2024-04-06T18:17:54Z</time>
      </trkpt>
      <trkpt lat="43.5945" lon="3.12278">
        <ele>180</ele>
        <time>2024-04-06T18:18:03Z</time>
      </trkpt>
      <trkpt lat="43.59493" lon="3.12657">
        <ele>185</ele>
        <time>2024-04-06T18:18:52Z</time>
      </trkpt>
      <trkpt lat="43.59504" lon="3.1272">
        <ele>186</ele>
        <time>2024-04-06T18:19:01Z</time>
      </trkpt>
      <trkpt lat="43.59511" lon="3.12796">
        <ele>185</ele>
        <time>2024-04-06T18:19:11Z</time>
      </trkpt>
      <trkpt lat="43.5951" lon="3.12811">
        <ele>185</ele>
        <time>2024-04-06T18:19:13Z</time>
      </trkpt>
      <trkpt lat="43.59507" lon="3.12822">
        <ele>185</ele>
        <time>2024-04-06T18:19:14Z</time>
      </trkpt>
      <trkpt lat="43.59503" lon="3.12834">
        <ele>184</ele>
        <time>2024-04-06T18:19:16Z</time>
      </trkpt>
      <trkpt lat="43.59504" lon="3.12843">
        <ele>184</ele>
        <time>2024-04-06T18:19:17Z</time>
      </trkpt>
      <trkpt lat="43.59507" lon="3.1285">
        <ele>184</ele>
        <time>2024-04-06T18:19:18Z</time>
      </trkpt>
      <trkpt lat="43.59511" lon="3.12856">
        <ele>185</ele>
        <time>2024-04-06T18:19:19Z</time>
      </trkpt>
      <trkpt lat="43.59518" lon="3.1286">
        <ele>185</ele>
        <time>2024-04-06T18:19:20Z</time>
      </trkpt>
      <trkpt lat="43.5953" lon="3.12877">
        <ele>186</ele>
        <time>2024-04-06T18:19:24Z</time>
      </trkpt>
      <trkpt lat="43.59543" lon="3.12915">
        <ele>187</ele>
        <time>2024-04-06T18:19:29Z</time>
      </trkpt>
      <trkpt lat="43.59556" lon="3.1296">
        <ele>188</ele>
        <time>2024-04-06T18:19:35Z</time>
      </trkpt>
      <trkpt lat="43.59635" lon="3.13267">
        <ele>188</ele>
        <time>2024-04-06T18:20:17Z</time>
      </trkpt>
      <trkpt lat="43.5975" lon="3.13722">
        <ele>190</ele>
        <time>2024-04-06T18:21:19Z</time>
      </trkpt>
      <trkpt lat="43.59777" lon="3.13817">
        <ele>191</ele>
        <time>2024-04-06T18:21:32Z</time>
      </trkpt>
      <trkpt lat="43.59793" lon="3.13864">
        <ele>191</ele>
        <time>2024-04-06T18:21:39Z</time>
      </trkpt>
      <trkpt lat="43.59805" lon="3.13912">
        <ele>191</ele>
        <time>2024-04-06T18:21:46Z</time>
      </trkpt>
      <trkpt lat="43.59805" lon="3.13927">
        <ele>191</ele>
        <time>2024-04-06T18:21:48Z</time>
      </trkpt>
      <trkpt lat="43.59804" lon="3.13934">
        <ele>191</ele>
        <time>2024-04-06T18:21:49Z</time>
      </trkpt>
      <trkpt lat="43.59796" lon="3.13951">
        <ele>190</ele>
        <time>2024-04-06T18:21:51Z</time>
      </trkpt>
      <trkpt lat="43.5979" lon="3.13955">
        <ele>189</ele>
        <time>2024-04-06T18:21:52Z</time>
      </trkpt>
      <trkpt lat="43.59785" lon="3.13962">
        <ele>189</ele>
        <time>2024-04-06T18:21:54Z</time>
      </trkpt>
      <trkpt lat="43.59781" lon="3.1397">
        <ele>189</ele>
        <time>2024-04-06T18:21:55Z</time>
      </trkpt>
      <trkpt lat="43.5978" lon="3.1398">
        <ele>189</ele>
        <time>2024-04-06T18:21:56Z</time>
      </trkpt>
      <trkpt lat="43.59781" lon="3.13992">
        <ele>189</ele>
        <time>2024-04-06T18:21:58Z</time>
      </trkpt>
      <trkpt lat="43.59785" lon="3.14002">
        <ele>189</ele>
        <time>2024-04-06T18:21:59Z</time>
      </trkpt>
      <trkpt lat="43.59791" lon="3.14009">
        <ele>189</ele>
        <time>2024-04-06T18:22:01Z</time>
      </trkpt>
      <trkpt lat="43.59799" lon="3.14013">
        <ele>189</ele>
        <time>2024-04-06T18:22:02Z</time>
      </trkpt>
      <trkpt lat="43.59806" lon="3.14013">
        <ele>190</ele>
        <time>2024-04-06T18:22:03Z</time>
      </trkpt>
      <trkpt lat="43.59814" lon="3.1401">
        <ele>190</ele>
        <time>2024-04-06T18:22:05Z</time>
      </trkpt>
      <trkpt lat="43.5982" lon="3.14004">
        <ele>190</ele>
        <time>2024-04-06T18:22:06Z</time>
      </trkpt>
      <trkpt lat="43.59833" lon="3.14002">
        <ele>191</ele>
        <time>2024-04-06T18:22:08Z</time>
      </trkpt>
      <trkpt lat="43.59863" lon="3.14021">
        <ele>191</ele>
        <time>2024-04-06T18:22:14Z</time>
      </trkpt>
      <trkpt lat="43.59866" lon="3.14026">
        <ele>191</ele>
        <time>2024-04-06T18:22:15Z</time>
      </trkpt>
      <trkpt lat="43.59914" lon="3.14116">
        <ele>191</ele>
        <time>2024-04-06T18:22:30Z</time>
      </trkpt>
      <trkpt lat="43.6002" lon="3.14301">
        <ele>192</ele>
        <time>2024-04-06T18:23:00Z</time>
      </trkpt>
      <trkpt lat="43.60099" lon="3.14449">
        <ele>192</ele>
        <time>2024-04-06T18:23:24Z</time>
      </trkpt>
      <trkpt lat="43.60111" lon="3.1447">
        <ele>192</ele>
        <time>2024-04-06T18:23:27Z</time>
      </trkpt>
      <trkpt lat="43.60135" lon="3.14501">
        <ele>193</ele>
        <time>2024-04-06T18:23:33Z</time>
      </trkpt>
      <trkpt lat="43.60178" lon="3.14553">
        <ele>193</ele>
        <time>2024-04-06T18:23:43Z</time>
      </trkpt>
      <trkpt lat="43.60201" lon="3.14576">
        <ele>193</ele>
        <time>2024-04-06T18:23:48Z</time>
      </trkpt>
      <trkpt lat="43.60377" lon="3.14721">
        <ele>193</ele>
        <time>2024-04-06T18:24:25Z</time>
      </trkpt>
      <trkpt lat="43.60576" lon="3.14885">
        <ele>193</ele>
        <time>2024-04-06T18:25:06Z</time>
      </trkpt>
      <trkpt lat="43.60602" lon="3.14912">
        <ele>193</ele>
        <time>2024-04-06T18:25:12Z</time>
      </trkpt>
      <trkpt lat="43.60608" lon="3.14922">
        <ele>193</ele>
        <time>2024-04-06T18:25:13Z</time>
      </trkpt>
      <trkpt lat="43.60614" lon="3.14933">
        <ele>193</ele>
        <time>2024-04-06T18:25:15Z</time>
      </trkpt>
      <trkpt lat="43.60622" lon="3.14933">
        <ele>193</ele>
        <time>2024-04-06T18:25:17Z</time>
      </trkpt>
      <trkpt lat="43.60635" lon="3.14935">
        <ele>193</ele>
        <time>2024-04-06T18:25:19Z</time>
      </trkpt>
      <trkpt lat="43.60677" lon="3.14959">
        <ele>194</ele>
        <time>2024-04-06T18:25:27Z</time>
      </trkpt>
      <trkpt lat="43.60706" lon="3.14971">
        <ele>195</ele>
        <time>2024-04-06T18:25:32Z</time>
      </trkpt>
      <trkpt lat="43.60791" lon="3.15018">
        <ele>197</ele>
        <time>2024-04-06T18:25:49Z</time>
      </trkpt>
      <trkpt lat="43.60823" lon="3.15028">
        <ele>197</ele>
        <time>2024-04-06T18:25:54Z</time>
      </trkpt>
      <trkpt lat="43.60856" lon="3.15047">
        <ele>197</ele>
        <time>2024-04-06T18:26:01Z</time>
      </trkpt>
      <trkpt lat="43.60871" lon="3.1506">
        <ele>196</ele>
        <time>2024-04-06T18:26:04Z</time>
      </trkpt>
      <trkpt lat="43.61078" lon="3.15144">
        <ele>196</ele>
        <time>2024-04-06T18:26:42Z</time>
      </trkpt>
      <trkpt lat="43.612" lon="3.15193">
        <ele>197</ele>
        <time>2024-04-06T18:27:05Z</time>
      </trkpt>
      <trkpt lat="43.61269" lon="3.15244">
        <ele>198</ele>
        <time>2024-04-06T18:27:19Z</time>
      </trkpt>
      <trkpt lat="43.61422" lon="3.15371">
        <ele>202</ele>
        <time>2024-04-06T18:27:51Z</time>
      </trkpt>
      <trkpt lat="43.61518" lon="3.15446">
        <ele>203</ele>
        <time>2024-04-06T18:28:10Z</time>
      </trkpt>
      <trkpt lat="43.61546" lon="3.15361">
        <ele>205</ele>
        <time>2024-04-06T18:28:22Z</time>
      </trkpt>
      <trkpt lat="43.61538" lon="3.15352">
        <ele>205</ele>
        <time>2024-04-06T18:28:24Z</time>
      </trkpt>
      <trkpt lat="43.6153" lon="3.15347">
        <ele>205</ele>
        <time>2024-04-06T18:28:26Z</time>
      </trkpt>
      <trkpt lat="43.61538" lon="3.15352">
        <ele>205</ele>
        <time>2024-04-06T18:28:27Z</time>
      </trkpt>
      <trkpt lat="43.61546" lon="3.15361">
        <ele>205</ele>
        <time>2024-04-06T18:28:29Z</time>
      </trkpt>
      <trkpt lat="43.61518" lon="3.15446">
        <ele>203</ele>
        <time>2024-04-06T18:28:41Z</time>
      </trkpt>
      <trkpt lat="43.61622" lon="3.15499">
        <ele>206</ele>
        <time>2024-04-06T18:29:01Z</time>
      </trkpt>
      <trkpt lat="43.61622" lon="3.15629">
        <ele>199</ele>
        <time>2024-04-06T18:29:18Z</time>
      </trkpt>
      <trkpt lat="43.61623" lon="3.15711">
        <ele>198</ele>
        <time>2024-04-06T18:29:28Z</time>
      </trkpt>
      <trkpt lat="43.61621" lon="3.15715">
        <ele>198</ele>
        <time>2024-04-06T18:29:29Z</time>
      </trkpt>
      <trkpt lat="43.61616" lon="3.15716">
        <ele>198</ele>
        <time>2024-04-06T18:29:30Z</time>
      </trkpt>
      <trkpt lat="43.61544" lon="3.15725">
        <ele>197</ele>
        <time>2024-04-06T18:29:43Z</time>
      </trkpt>
      <trkpt lat="43.61539" lon="3.15733">
        <ele>197</ele>
        <time>2024-04-06T18:29:44Z</time>
      </trkpt>
      <trkpt lat="43.6154" lon="3.15744">
        <ele>198</ele>
        <time>2024-04-06T18:29:45Z</time>
      </trkpt>
      <trkpt lat="43.6152" lon="3.15785">
        <ele>200</ele>
        <time>2024-04-06T18:29:52Z</time>
      </trkpt>
      <trkpt lat="43.6152" lon="3.1579">
        <ele>200</ele>
        <time>2024-04-06T18:29:52Z</time>
      </trkpt>
      <trkpt lat="43.61527" lon="3.15799">
        <ele>200</ele>
        <time>2024-04-06T18:29:54Z</time>
      </trkpt>
      <trkpt lat="43.61481" lon="3.15864">
        <ele>204</ele>
        <time>2024-04-06T18:30:06Z</time>
      </trkpt>
      <trkpt lat="43.61476" lon="3.15856">
        <ele>204</ele>
        <time>2024-04-06T18:30:07Z</time>
      </trkpt>
      <trkpt lat="43.61395" lon="3.15924">
        <ele>207</ele>
        <time>2024-04-06T18:30:24Z</time>
      </trkpt>
      <trkpt lat="43.61365" lon="3.15952">
        <ele>208</ele>
        <time>2024-04-06T18:30:30Z</time>
      </trkpt>
      <trkpt lat="43.61346" lon="3.15981">
        <ele>209</ele>
        <time>2024-04-06T18:30:35Z</time>
      </trkpt>
      <trkpt lat="43.61296" lon="3.16093">
        <ele>214</ele>
        <time>2024-04-06T18:30:52Z</time>
      </trkpt>
      <trkpt lat="43.61217" lon="3.16278">
        <ele>216</ele>
        <time>2024-04-06T18:31:20Z</time>
      </trkpt>
      <trkpt lat="43.61202" lon="3.16294">
        <ele>215</ele>
        <time>2024-04-06T18:31:23Z</time>
      </trkpt>
      <trkpt lat="43.61146" lon="3.16345">
        <ele>214</ele>
        <time>2024-04-06T18:31:35Z</time>
      </trkpt>
      <trkpt lat="43.61124" lon="3.1636">
        <ele>216</ele>
        <time>2024-04-06T18:31:40Z</time>
      </trkpt>
      <trkpt lat="43.61067" lon="3.16386">
        <ele>218</ele>
        <time>2024-04-06T18:31:50Z</time>
      </trkpt>
      <trkpt lat="43.60959" lon="3.16403">
        <ele>220</ele>
        <time>2024-04-06T18:32:10Z</time>
      </trkpt>
      <trkpt lat="43.60941" lon="3.16413">
        <ele>219</ele>
        <time>2024-04-06T18:32:13Z</time>
      </trkpt>
      <trkpt lat="43.60898" lon="3.16449">
        <ele>220</ele>
        <time>2024-04-06T18:32:22Z</time>
      </trkpt>
      <trkpt lat="43.60894" lon="3.1645">
        <ele>220</ele>
        <time>2024-04-06T18:32:23Z</time>
      </trkpt>
      <trkpt lat="43.60889" lon="3.16456">
        <ele>220</ele>
        <time>2024-04-06T18:32:24Z</time>
      </trkpt>
      <trkpt lat="43.60888" lon="3.16462">
        <ele>220</ele>
        <time>2024-04-06T18:32:25Z</time>
      </trkpt>
      <trkpt lat="43.60888" lon="3.16468">
        <ele>220</ele>
        <time>2024-04-06T18:32:26Z</time>
      </trkpt>
      <trkpt lat="43.60891" lon="3.16474">
        <ele>219</ele>
        <time>2024-04-06T18:32:27Z</time>
      </trkpt>
      <trkpt lat="43.60904" lon="3.16481">
        <ele>218</ele>
        <time>2024-04-06T18:32:29Z</time>
      </trkpt>
      <trkpt lat="43.60966" lon="3.16552">
        <ele>220</ele>
        <time>2024-04-06T18:32:43Z</time>
      </trkpt>
      <trkpt lat="43.61014" lon="3.1659">
        <ele>221</ele>
        <time>2024-04-06T18:32:53Z</time>
      </trkpt>
      <trkpt lat="43.61037" lon="3.16602">
        <ele>222</ele>
        <time>2024-04-06T18:32:58Z</time>
      </trkpt>
      <trkpt lat="43.61059" lon="3.1661">
        <ele>223</ele>
        <time>2024-04-06T18:33:02Z</time>
      </trkpt>
      <trkpt lat="43.61116" lon="3.16626">
        <ele>224</ele>
        <time>2024-04-06T18:33:12Z</time>
      </trkpt>
      <trkpt lat="43.61172" lon="3.16638">
        <ele>225</ele>
        <time>2024-04-06T18:33:22Z</time>
      </trkpt>
      <trkpt lat="43.61192" lon="3.16644">
        <ele>225</ele>
        <time>2024-04-06T18:33:26Z</time>
      </trkpt>
      <trkpt lat="43.61202" lon="3.1665">
        <ele>225</ele>
        <time>2024-04-06T18:33:28Z</time>
      </trkpt>
      <trkpt lat="43.61211" lon="3.16658">
        <ele>225</ele>
        <time>2024-04-06T18:33:30Z</time>
      </trkpt>
      <trkpt lat="43.61215" lon="3.16663">
        <ele>225</ele>
        <time>2024-04-06T18:33:31Z</time>
      </trkpt>
      <trkpt lat="43.6122" lon="3.1668">
        <ele>226</ele>
        <time>2024-04-06T18:33:33Z</time>
      </trkpt>
      <trkpt lat="43.61222" lon="3.16701">
        <ele>226</ele>
        <time>2024-04-06T18:33:36Z</time>
      </trkpt>
      <trkpt lat="43.61217" lon="3.16845">
        <ele>230</ele>
        <time>2024-04-06T18:33:54Z</time>
      </trkpt>
      <trkpt lat="43.61218" lon="3.16863">
        <ele>230</ele>
        <time>2024-04-06T18:33:57Z</time>
      </trkpt>
      <trkpt lat="43.61232" lon="3.16945">
        <ele>231</ele>
        <time>2024-04-06T18:34:07Z</time>
      </trkpt>
      <trkpt lat="43.61231" lon="3.16964">
        <ele>231</ele>
        <time>2024-04-06T18:34:10Z</time>
      </trkpt>
      <trkpt lat="43.61225" lon="3.16979">
        <ele>231</ele>
        <time>2024-04-06T18:34:12Z</time>
      </trkpt>
      <trkpt lat="43.61222" lon="3.16981">
        <ele>231</ele>
        <time>2024-04-06T18:34:13Z</time>
      </trkpt>
      <trkpt lat="43.61218" lon="3.16988">
        <ele>230</ele>
        <time>2024-04-06T18:34:14Z</time>
      </trkpt>
      <trkpt lat="43.61219" lon="3.16997">
        <ele>230</ele>
        <time>2024-04-06T18:34:15Z</time>
      </trkpt>
      <trkpt lat="43.61223" lon="3.17004">
        <ele>231</ele>
        <time>2024-04-06T18:34:16Z</time>
      </trkpt>
      <trkpt lat="43.61233" lon="3.17004">
        <ele>231</ele>
        <time>2024-04-06T18:34:18Z</time>
      </trkpt>
      <trkpt lat="43.61251" lon="3.17008">
        <ele>232</ele>
        <time>2024-04-06T18:34:21Z</time>
      </trkpt>
      <trkpt lat="43.61262" lon="3.17023">
        <ele>232</ele>
        <time>2024-04-06T18:34:24Z</time>
      </trkpt>
      <trkpt lat="43.61272" lon="3.17046">
        <ele>232</ele>
        <time>2024-04-06T18:34:27Z</time>
      </trkpt>
      <trkpt lat="43.61385" lon="3.17403">
        <ele>236</ele>
        <time>2024-04-06T18:35:18Z</time>
      </trkpt>
      <trkpt lat="43.614" lon="3.1746">
        <ele>236</ele>
        <time>2024-04-06T18:35:25Z</time>
      </trkpt>
      <trkpt lat="43.61415" lon="3.17641">
        <ele>241</ele>
        <time>2024-04-06T18:35:49Z</time>
      </trkpt>
      <trkpt lat="43.6142" lon="3.17723">
        <ele>244</ele>
        <time>2024-04-06T18:35:59Z</time>
      </trkpt>
      <trkpt lat="43.6142" lon="3.1777">
        <ele>245</ele>
        <time>2024-04-06T18:36:05Z</time>
      </trkpt>
      <trkpt lat="43.61414" lon="3.17798">
        <ele>246</ele>
        <time>2024-04-06T18:36:09Z</time>
      </trkpt>
      <trkpt lat="43.61374" lon="3.17872">
        <ele>247</ele>
        <time>2024-04-06T18:36:21Z</time>
      </trkpt>
      <trkpt lat="43.61359" lon="3.17906">
        <ele>246</ele>
        <time>2024-04-06T18:36:26Z</time>
      </trkpt>
      <trkpt lat="43.61353" lon="3.17949">
        <ele>248</ele>
        <time>2024-04-06T18:36:32Z</time>
      </trkpt>
      <trkpt lat="43.61347" lon="3.18056">
        <ele>252</ele>
        <time>2024-04-06T18:36:46Z</time>
      </trkpt>
      <trkpt lat="43.61343" lon="3.18248">
        <ele>255</ele>
        <time>2024-04-06T18:37:10Z</time>
      </trkpt>
      <trkpt lat="43.61344" lon="3.18267">
        <ele>255</ele>
        <time>2024-04-06T18:37:13Z</time>
      </trkpt>
      <trkpt lat="43.61347" lon="3.18284">
        <ele>257</ele>
        <time>2024-04-06T18:37:15Z</time>
      </trkpt>
      <trkpt lat="43.61355" lon="3.18303">
        <ele>259</ele>
        <time>2024-04-06T18:37:18Z</time>
      </trkpt>
      <trkpt lat="43.6137" lon="3.18331">
        <ele>263</ele>
        <time>2024-04-06T18:37:23Z</time>
      </trkpt>
      <trkpt lat="43.61374" lon="3.1835">
        <ele>264</ele>
        <time>2024-04-06T18:37:25Z</time>
      </trkpt>
      <trkpt lat="43.61375" lon="3.18364">
        <ele>265</ele>
        <time>2024-04-06T18:37:27Z</time>
      </trkpt>
      <trkpt lat="43.61373" lon="3.18378">
        <ele>264</ele>
        <time>2024-04-06T18:37:29Z</time>
      </trkpt>
      <trkpt lat="43.61368" lon="3.18392">
        <ele>264</ele>
        <time>2024-04-06T18:37:31Z</time>
      </trkpt>
      <trkpt lat="43.61361" lon="3.18404">
        <ele>263</ele>
        <time>2024-04-06T18:37:33Z</time>
      </trkpt>
      <trkpt lat="43.61341" lon="3.18428">
        <ele>263</ele>
        <time>2024-04-06T18:37:37Z</time>
      </trkpt>
      <trkpt lat="43.61312" lon="3.1849">
        <ele>273</ele>
        <time>2024-04-06T18:37:47Z</time>
      </trkpt>
      <trkpt lat="43.61268" lon="3.186">
        <ele>273</ele>
        <time>2024-04-06T18:38:03Z</time>
      </trkpt>
      <trkpt lat="43.61234" lon="3.18666">
        <ele>271</ele>
        <time>2024-04-06T18:38:14Z</time>
      </trkpt>
      <trkpt lat="43.61232" lon="3.18683">
        <ele>271</ele>
        <time>2024-04-06T18:38:16Z</time>
      </trkpt>
      <trkpt lat="43.61233" lon="3.18696">
        <ele>271</ele>
        <time>2024-04-06T18:38:17Z</time>
      </trkpt>
      <trkpt lat="43.61262" lon="3.18776">
        <ele>269</ele>
        <time>2024-04-06T18:38:29Z</time>
      </trkpt>
      <trkpt lat="43.61276" lon="3.18797">
        <ele>271</ele>
        <time>2024-04-06T18:38:33Z</time>
      </trkpt>
      <trkpt lat="43.61286" lon="3.18804">
        <ele>271</ele>
        <time>2024-04-06T18:38:35Z</time>
      </trkpt>
      <trkpt lat="43.61298" lon="3.18809">
        <ele>272</ele>
        <time>2024-04-06T18:38:37Z</time>
      </trkpt>
      <trkpt lat="43.61325" lon="3.18818">
        <ele>272</ele>
        <time>2024-04-06T18:38:42Z</time>
      </trkpt>
      <trkpt lat="43.61412" lon="3.1883">
        <ele>271</ele>
        <time>2024-04-06T18:38:57Z</time>
      </trkpt>
      <trkpt lat="43.61422" lon="3.18834">
        <ele>271</ele>
        <time>2024-04-06T18:38:59Z</time>
      </trkpt>
      <trkpt lat="43.61432" lon="3.18841">
        <ele>272</ele>
        <time>2024-04-06T18:39:01Z</time>
      </trkpt>
      <trkpt lat="43.61449" lon="3.18863">
        <ele>273</ele>
        <time>2024-04-06T18:39:05Z</time>
      </trkpt>
      <trkpt lat="43.61459" lon="3.1888">
        <ele>273</ele>
        <time>2024-04-06T18:39:08Z</time>
      </trkpt>
      <trkpt lat="43.61472" lon="3.18907">
        <ele>273</ele>
        <time>2024-04-06T18:39:12Z</time>
      </trkpt>
      <trkpt lat="43.61483" lon="3.18924">
        <ele>272</ele>
        <time>2024-04-06T18:39:15Z</time>
      </trkpt>
      <trkpt lat="43.61493" lon="3.18936">
        <ele>272</ele>
        <time>2024-04-06T18:39:18Z</time>
      </trkpt>
      <trkpt lat="43.61509" lon="3.18947">
        <ele>272</ele>
        <time>2024-04-06T18:39:21Z</time>
      </trkpt>
      <trkpt lat="43.61535" lon="3.1896">
        <ele>275</ele>
        <time>2024-04-06T18:39:26Z</time>
      </trkpt>
      <trkpt lat="43.61557" lon="3.18975">
        <ele>277</ele>
        <time>2024-04-06T18:39:30Z</time>
      </trkpt>
      <trkpt lat="43.61587" lon="3.19018">
        <ele>277</ele>
        <time>2024-04-06T18:39:38Z</time>
      </trkpt>
      <trkpt lat="43.61592" lon="3.19034">
        <ele>277</ele>
        <time>2024-04-06T18:39:40Z</time>
      </trkpt>
      <trkpt lat="43.61603" lon="3.19051">
        <ele>278</ele>
        <time>2024-04-06T18:39:43Z</time>
      </trkpt>
      <trkpt lat="43.61632" lon="3.19074">
        <ele>281</ele>
        <time>2024-04-06T18:39:49Z</time>
      </trkpt>
      <trkpt lat="43.61646" lon="3.19095">
        <ele>282</ele>
        <time>2024-04-06T18:39:53Z</time>
      </trkpt>
      <trkpt lat="43.61665" lon="3.19133">
        <ele>281</ele>
        <time>2024-04-06T18:39:59Z</time>
      </trkpt>
      <trkpt lat="43.6167" lon="3.19153">
        <ele>280</ele>
        <time>2024-04-06T18:40:01Z</time>
      </trkpt>
      <trkpt lat="43.61671" lon="3.19168">
        <ele>279</ele>
        <time>2024-04-06T18:40:03Z</time>
      </trkpt>
      <trkpt lat="43.61664" lon="3.19234">
        <ele>278</ele>
        <time>2024-04-06T18:40:12Z</time>
      </trkpt>
      <trkpt lat="43.61645" lon="3.19305">
        <ele>279</ele>
        <time>2024-04-06T18:40:22Z</time>
      </trkpt>
      <trkpt lat="43.6164" lon="3.19328">
        <ele>279</ele>
        <time>2024-04-06T18:40:25Z</time>
      </trkpt>
      <trkpt lat="43.61638" lon="3.19352">
        <ele>279</ele>
        <time>2024-04-06T18:40:28Z</time>
      </trkpt>
      <trkpt lat="43.61638" lon="3.19377">
        <ele>278</ele>
        <time>2024-04-06T18:40:31Z</time>
      </trkpt>
      <trkpt lat="43.6164" lon="3.19399">
        <ele>278</ele>
        <time>2024-04-06T18:40:34Z</time>
      </trkpt>
      <trkpt lat="43.6165" lon="3.19434">
        <ele>278</ele>
        <time>2024-04-06T18:40:39Z</time>
      </trkpt>
      <trkpt lat="43.61659" lon="3.19454">
        <ele>279</ele>
        <time>2024-04-06T18:40:42Z</time>
      </trkpt>
      <trkpt lat="43.61677" lon="3.19481">
        <ele>281</ele>
        <time>2024-04-06T18:40:46Z</time>
      </trkpt>
      <trkpt lat="43.61721" lon="3.19519">
        <ele>282</ele>
        <time>2024-04-06T18:40:56Z</time>
      </trkpt>
      <trkpt lat="43.61764" lon="3.19552">
        <ele>283</ele>
        <time>2024-04-06T18:41:04Z</time>
      </trkpt>
      <trkpt lat="43.61784" lon="3.19562">
        <ele>285</ele>
        <time>2024-04-06T18:41:08Z</time>
      </trkpt>
      <trkpt lat="43.61808" lon="3.19559">
        <ele>287</ele>
        <time>2024-04-06T18:41:13Z</time>
      </trkpt>
      <trkpt lat="43.61824" lon="3.19554">
        <ele>289</ele>
        <time>2024-04-06T18:41:15Z</time>
      </trkpt>
      <trkpt lat="43.61835" lon="3.19622">
        <ele>287</ele>
        <time>2024-04-06T18:41:24Z</time>
      </trkpt>
      <trkpt lat="43.61885" lon="3.20102">
        <ele>293</ele>
        <time>2024-04-06T18:42:27Z</time>
      </trkpt>
      <trkpt lat="43.61894" lon="3.20163">
        <ele>295</ele>
        <time>2024-04-06T18:42:35Z</time>
      </trkpt>
      <trkpt lat="43.6191" lon="3.20219">
        <ele>295</ele>
        <time>2024-04-06T18:42:43Z</time>
      </trkpt>
      <trkpt lat="43.61928" lon="3.20264">
        <ele>296</ele>
        <time>2024-04-06T18:42:49Z</time>
      </trkpt>
      <trkpt lat="43.62033" lon="3.20486">
        <ele>299</ele>
        <time>2024-04-06T18:43:23Z</time>
      </trkpt>
      <trkpt lat="43.62072" lon="3.20558">
        <ele>299</ele>
        <time>2024-04-06T18:43:35Z</time>
      </trkpt>
      <trkpt lat="43.621" lon="3.20595">
        <ele>299</ele>
        <time>2024-04-06T18:43:42Z</time>
      </trkpt>
      <trkpt lat="43.62113" lon="3.20609">
        <ele>299</ele>
        <time>2024-04-06T18:43:45Z</time>
      </trkpt>
      <trkpt lat="43.62134" lon="3.20627">
        <ele>300</ele>
        <time>2024-04-06T18:43:49Z</time>
      </trkpt>
      <trkpt lat="43.62391" lon="3.20827">
        <ele>309</ele>
        <time>2024-04-06T18:44:42Z</time>
      </trkpt>
      <trkpt lat="43.62409" lon="3.20844">
        <ele>309</ele>
        <time>2024-04-06T18:44:46Z</time>
      </trkpt>
      <trkpt lat="43.62422" lon="3.20861">
        <ele>308</ele>
        <time>2024-04-06T18:44:49Z</time>
      </trkpt>
      <trkpt lat="43.62436" lon="3.20882">
        <ele>308</ele>
        <time>2024-04-06T18:44:52Z</time>
      </trkpt>
      <trkpt lat="43.62455" lon="3.20922">
        <ele>308</ele>
        <time>2024-04-06T18:44:59Z</time>
      </trkpt>
      <trkpt lat="43.62469" lon="3.20971">
        <ele>309</ele>
        <time>2024-04-06T18:45:05Z</time>
      </trkpt>
      <trkpt lat="43.62475" lon="3.21017">
        <ele>309</ele>
        <time>2024-04-06T18:45:11Z</time>
      </trkpt>
      <trkpt lat="43.62486" lon="3.21199">
        <ele>312</ele>
        <time>2024-04-06T18:45:35Z</time>
      </trkpt>
      <trkpt lat="43.62495" lon="3.21332">
        <ele>315</ele>
        <time>2024-04-06T18:45:52Z</time>
      </trkpt>
      <trkpt lat="43.62506" lon="3.21382">
        <ele>317</ele>
        <time>2024-04-06T18:45:59Z</time>
      </trkpt>
      <trkpt lat="43.62524" lon="3.21426">
        <ele>319</ele>
        <time>2024-04-06T18:46:05Z</time>
      </trkpt>
      <trkpt lat="43.62573" lon="3.2153">
        <ele>322</ele>
        <time>2024-04-06T18:46:21Z</time>
      </trkpt>
      <trkpt lat="43.6259" lon="3.21556">
        <ele>322</ele>
        <time>2024-04-06T18:46:26Z</time>
      </trkpt>
      <trkpt lat="43.6261" lon="3.21579">
        <ele>324</ele>
        <time>2024-04-06T18:46:31Z</time>
      </trkpt>
      <trkpt lat="43.62632" lon="3.21598">
        <ele>325</ele>
        <time>2024-04-06T18:46:35Z</time>
      </trkpt>
      <trkpt lat="43.62731" lon="3.21661">
        <ele>326</ele>
        <time>2024-04-06T18:46:55Z</time>
      </trkpt>
      <trkpt lat="43.62749" lon="3.21677">
        <ele>327</ele>
        <time>2024-04-06T18:46:58Z</time>
      </trkpt>
      <trkpt lat="43.62763" lon="3.21693">
        <ele>328</ele>
        <time>2024-04-06T18:47:02Z</time>
      </trkpt>
      <trkpt lat="43.62783" lon="3.21725">
        <ele>328</ele>
        <time>2024-04-06T18:47:07Z</time>
      </trkpt>
      <trkpt lat="43.628" lon="3.21755">
        <ele>328</ele>
        <time>2024-04-06T18:47:12Z</time>
      </trkpt>
      <trkpt lat="43.62972" lon="3.22091">
        <ele>342</ele>
        <time>2024-04-06T18:48:05Z</time>
      </trkpt>
      <trkpt lat="43.62986" lon="3.22133">
        <ele>345</ele>
        <time>2024-04-06T18:48:11Z</time>
      </trkpt>
      <trkpt lat="43.62991" lon="3.22155">
        <ele>346</ele>
        <time>2024-04-06T18:48:14Z</time>
      </trkpt>
      <trkpt lat="43.62996" lon="3.22185">
        <ele>348</ele>
        <time>2024-04-06T18:48:18Z</time>
      </trkpt>
      <trkpt lat="43.62998" lon="3.2221">
        <ele>350</ele>
        <time>2024-04-06T18:48:21Z</time>
      </trkpt>
      <trkpt lat="43.62997" lon="3.22238">
        <ele>352</ele>
        <time>2024-04-06T18:48:25Z</time>
      </trkpt>
      <trkpt lat="43.62994" lon="3.22266">
        <ele>354</ele>
        <time>2024-04-06T18:48:28Z</time>
      </trkpt>
      <trkpt lat="43.62985" lon="3.22307">
        <ele>356</ele>
        <time>2024-04-06T18:48:34Z</time>
      </trkpt>
      <trkpt lat="43.62976" lon="3.22334">
        <ele>357</ele>
        <time>2024-04-06T18:48:38Z</time>
      </trkpt>
      <trkpt lat="43.62965" lon="3.22361">
        <ele>358</ele>
        <time>2024-04-06T18:48:42Z</time>
      </trkpt>
      <trkpt lat="43.62837" lon="3.22588">
        <ele>369</ele>
        <time>2024-04-06T18:49:19Z</time>
      </trkpt>
      <trkpt lat="43.6281" lon="3.22632">
        <ele>374</ele>
        <time>2024-04-06T18:49:26Z</time>
      </trkpt>
      <trkpt lat="43.62786" lon="3.22657">
        <ele>375</ele>
        <time>2024-04-06T18:49:32Z</time>
      </trkpt>
      <trkpt lat="43.62721" lon="3.22714">
        <ele>379</ele>
        <time>2024-04-06T18:49:45Z</time>
      </trkpt>
      <trkpt lat="43.62711" lon="3.22725">
        <ele>379</ele>
        <time>2024-04-06T18:49:47Z</time>
      </trkpt>
      <trkpt lat="43.62694" lon="3.22753">
        <ele>380</ele>
        <time>2024-04-06T18:49:52Z</time>
      </trkpt>
      <trkpt lat="43.6267" lon="3.22804">
        <ele>382</ele>
        <time>2024-04-06T18:50:00Z</time>
      </trkpt>
      <trkpt lat="43.62586" lon="3.23046">
        <ele>396</ele>
        <time>2024-04-06T18:50:35Z</time>
      </trkpt>
      <trkpt lat="43.62569" lon="3.23085">
        <ele>398</ele>
        <time>2024-04-06T18:50:40Z</time>
      </trkpt>
      <trkpt lat="43.6255" lon="3.23117">
        <ele>401</ele>
        <time>2024-04-06T18:50:46Z</time>
      </trkpt>
      <trkpt lat="43.62536" lon="3.23136">
        <ele>402</ele>
        <time>2024-04-06T18:50:49Z</time>
      </trkpt>
      <trkpt lat="43.62523" lon="3.23151">
        <ele>404</ele>
        <time>2024-04-06T18:50:52Z</time>
      </trkpt>
      <trkpt lat="43.62361" lon="3.23304">
        <ele>418</ele>
        <time>2024-04-06T18:51:27Z</time>
      </trkpt>
      <trkpt lat="43.62342" lon="3.23329">
        <ele>418</ele>
        <time>2024-04-06T18:51:32Z</time>
      </trkpt>
      <trkpt lat="43.62319" lon="3.23376">
        <ele>420</ele>
        <time>2024-04-06T18:51:39Z</time>
      </trkpt>
      <trkpt lat="43.62304" lon="3.2343">
        <ele>420</ele>
        <time>2024-04-06T18:51:47Z</time>
      </trkpt>
      <trkpt lat="43.62299" lon="3.2346">
        <ele>420</ele>
        <time>2024-04-06T18:51:51Z</time>
      </trkpt>
      <trkpt lat="43.62296" lon="3.23492">
        <ele>419</ele>
        <time>2024-04-06T18:51:55Z</time>
      </trkpt>
      <trkpt lat="43.62296" lon="3.23528">
        <ele>418</ele>
        <time>2024-04-06T18:51:59Z</time>
      </trkpt>
      <trkpt lat="43.62299" lon="3.23637">
        <ele>417</ele>
        <time>2024-04-06T18:52:13Z</time>
      </trkpt>
      <trkpt lat="43.62298" lon="3.23674">
        <ele>417</ele>
        <time>2024-04-06T18:52:18Z</time>
      </trkpt>
      <trkpt lat="43.62291" lon="3.23726">
        <ele>417</ele>
        <time>2024-04-06T18:52:25Z</time>
      </trkpt>
      <trkpt lat="43.62284" lon="3.23754">
        <ele>416</ele>
        <time>2024-04-06T18:52:29Z</time>
      </trkpt>
      <trkpt lat="43.62273" lon="3.23788">
        <ele>414</ele>
        <time>2024-04-06T18:52:34Z</time>
      </trkpt>
      <trkpt lat="43.62206" lon="3.23932">
        <ele>409</ele>
        <time>2024-04-06T18:52:56Z</time>
      </trkpt>
      <trkpt lat="43.62161" lon="3.24038">
        <ele>409</ele>
        <time>2024-04-06T18:53:12Z</time>
      </trkpt>
      <trkpt lat="43.62027" lon="3.24531">
        <ele>400</ele>
        <time>2024-04-06T18:54:19Z</time>
      </trkpt>
      <trkpt lat="43.62008" lon="3.24592">
        <ele>400</ele>
        <time>2024-04-06T18:54:28Z</time>
      </trkpt>
      <trkpt lat="43.61983" lon="3.24652">
        <ele>404</ele>
        <time>2024-04-06T18:54:37Z</time>
      </trkpt>
      <trkpt lat="43.6196" lon="3.24695">
        <ele>406</ele>
        <time>2024-04-06T18:54:44Z</time>
      </trkpt>
      <trkpt lat="43.61851" lon="3.24872">
        <ele>409</ele>
        <time>2024-04-06T18:55:14Z</time>
      </trkpt>
      <trkpt lat="43.61622" lon="3.25239">
        <ele>419</ele>
        <time>2024-04-06T18:56:16Z</time>
      </trkpt>
      <trkpt lat="43.61579" lon="3.25305">
        <ele>419</ele>
        <time>2024-04-06T18:56:27Z</time>
      </trkpt>
      <trkpt lat="43.6132" lon="3.25595">
        <ele>418</ele>
        <time>2024-04-06T18:57:27Z</time>
      </trkpt>
      <trkpt lat="43.61304" lon="3.25614">
        <ele>418</ele>
        <time>2024-04-06T18:57:31Z</time>
      </trkpt>
      <trkpt lat="43.6128" lon="3.2565">
        <ele>418</ele>
        <time>2024-04-06T18:57:37Z</time>
      </trkpt>
      <trkpt lat="43.61265" lon="3.25678">
        <ele>418</ele>
        <time>2024-04-06T18:57:41Z</time>
      </trkpt>
      <trkpt lat="43.61245" lon="3.2573">
        <ele>419</ele>
        <time>2024-04-06T18:57:49Z</time>
      </trkpt>
      <trkpt lat="43.61234" lon="3.2578">
        <ele>418</ele>
        <time>2024-04-06T18:57:56Z</time>
      </trkpt>
      <trkpt lat="43.6123" lon="3.25811">
        <ele>418</ele>
        <time>2024-04-06T18:58:00Z</time>
      </trkpt>
      <trkpt lat="43.61229" lon="3.25841">
        <ele>418</ele>
        <time>2024-04-06T18:58:04Z</time>
      </trkpt>
      <trkpt lat="43.61229" lon="3.25872">
        <ele>417</ele>
        <time>2024-04-06T18:58:08Z</time>
      </trkpt>
      <trkpt lat="43.6124" lon="3.25972">
        <ele>414</ele>
        <time>2024-04-06T18:58:21Z</time>
      </trkpt>
      <trkpt lat="43.61293" lon="3.26337">
        <ele>408</ele>
        <time>2024-04-06T18:59:09Z</time>
      </trkpt>
      <trkpt lat="43.61304" lon="3.26419">
        <ele>405</ele>
        <time>2024-04-06T18:59:19Z</time>
      </trkpt>
      <trkpt lat="43.61307" lon="3.26452">
        <ele>405</ele>
        <time>2024-04-06T18:59:24Z</time>
      </trkpt>
      <trkpt lat="43.61308" lon="3.26506">
        <ele>403</ele>
        <time>2024-04-06T18:59:31Z</time>
      </trkpt>
      <trkpt lat="43.61303" lon="3.26557">
        <ele>403</ele>
        <time>2024-04-06T18:59:37Z</time>
      </trkpt>
      <trkpt lat="43.61296" lon="3.2659">
        <ele>402</ele>
        <time>2024-04-06T18:59:42Z</time>
      </trkpt>
      <trkpt lat="43.61288" lon="3.26622">
        <ele>402</ele>
        <time>2024-04-06T18:59:46Z</time>
      </trkpt>
      <trkpt lat="43.61279" lon="3.26646">
        <ele>401</ele>
        <time>2024-04-06T18:59:49Z</time>
      </trkpt>
      <trkpt lat="43.61267" lon="3.26672">
        <ele>401</ele>
        <time>2024-04-06T18:59:53Z</time>
      </trkpt>
      <trkpt lat="43.61241" lon="3.26715">
        <ele>400</ele>
        <time>2024-04-06T19:00:01Z</time>
      </trkpt>
      <trkpt lat="43.61218" lon="3.26741">
        <ele>399</ele>
        <time>2024-04-06T19:00:06Z</time>
      </trkpt>
      <trkpt lat="43.61174" lon="3.2678">
        <ele>398</ele>
        <time>2024-04-06T19:00:15Z</time>
      </trkpt>
      <trkpt lat="43.61148" lon="3.26799">
        <ele>397</ele>
        <time>2024-04-06T19:00:20Z</time>
      </trkpt>
      <trkpt lat="43.61016" lon="3.2688">
        <ele>397</ele>
        <time>2024-04-06T19:00:46Z</time>
      </trkpt>
      <trkpt lat="43.60969" lon="3.26917">
        <ele>398</ele>
        <time>2024-04-06T19:00:56Z</time>
      </trkpt>
      <trkpt lat="43.6084" lon="3.27042">
        <ele>399</ele>
        <time>2024-04-06T19:01:24Z</time>
      </trkpt>
      <trkpt lat="43.60804" lon="3.27083">
        <ele>399</ele>
        <time>2024-04-06T19:01:32Z</time>
      </trkpt>
      <trkpt lat="43.60774" lon="3.27131">
        <ele>397</ele>
        <time>2024-04-06T19:01:40Z</time>
      </trkpt>
      <trkpt lat="43.60753" lon="3.27182">
        <ele>396</ele>
        <time>2024-04-06T19:01:48Z</time>
      </trkpt>
      <trkpt lat="43.60743" lon="3.27215">
        <ele>396</ele>
        <time>2024-04-06T19:01:52Z</time>
      </trkpt>
      <trkpt lat="43.60737" lon="3.27248">
        <ele>396</ele>
        <time>2024-04-06T19:01:57Z</time>
      </trkpt>
      <trkpt lat="43.60732" lon="3.27307">
        <ele>393</ele>
        <time>2024-04-06T19:02:05Z</time>
      </trkpt>
      <trkpt lat="43.60736" lon="3.27362">
        <ele>392</ele>
        <time>2024-04-06T19:02:12Z</time>
      </trkpt>
      <trkpt lat="43.60747" lon="3.27422">
        <ele>391</ele>
        <time>2024-04-06T19:02:20Z</time>
      </trkpt>
      <trkpt lat="43.60767" lon="3.27491">
        <ele>390</ele>
        <time>2024-04-06T19:02:29Z</time>
      </trkpt>
      <trkpt lat="43.61067" lon="3.2846">
        <ele>369</ele>
        <time>2024-04-06T19:04:45Z</time>
      </trkpt>
      <trkpt lat="43.61077" lon="3.28498">
        <ele>369</ele>
        <time>2024-04-06T19:04:50Z</time>
      </trkpt>
      <trkpt lat="43.61083" lon="3.28532">
        <ele>369</ele>
        <time>2024-04-06T19:04:55Z</time>
      </trkpt>
      <trkpt lat="43.61088" lon="3.28565">
        <ele>368</ele>
        <time>2024-04-06T19:04:59Z</time>
      </trkpt>
      <trkpt lat="43.61091" lon="3.28618">
        <ele>368</ele>
        <time>2024-04-06T19:05:06Z</time>
      </trkpt>
      <trkpt lat="43.61101" lon="3.2963">
        <ele>387</ele>
        <time>2024-04-06T19:07:16Z</time>
      </trkpt>
      <trkpt lat="43.61105" lon="3.29745">
        <ele>388</ele>
        <time>2024-04-06T19:07:31Z</time>
      </trkpt>
      <trkpt lat="43.61111" lon="3.29785">
        <ele>387</ele>
        <time>2024-04-06T19:07:36Z</time>
      </trkpt>
      <trkpt lat="43.61122" lon="3.29823">
        <ele>387</ele>
        <time>2024-04-06T19:07:42Z</time>
      </trkpt>
      <trkpt lat="43.61137" lon="3.29858">
        <ele>387</ele>
        <time>2024-04-06T19:07:47Z</time>
      </trkpt>
      <trkpt lat="43.6115" lon="3.29881">
        <ele>387</ele>
        <time>2024-04-06T19:07:51Z</time>
      </trkpt>
      <trkpt lat="43.612" lon="3.29942">
        <ele>388</ele>
        <time>2024-04-06T19:08:02Z</time>
      </trkpt>
      <trkpt lat="43.61227" lon="3.29982">
        <ele>387</ele>
        <time>2024-04-06T19:08:10Z</time>
      </trkpt>
      <trkpt lat="43.6124" lon="3.3001">
        <ele>386</ele>
        <time>2024-04-06T19:08:14Z</time>
      </trkpt>
      <trkpt lat="43.61253" lon="3.30049">
        <ele>385</ele>
        <time>2024-04-06T19:08:19Z</time>
      </trkpt>
      <trkpt lat="43.61258" lon="3.30084">
        <ele>384</ele>
        <time>2024-04-06T19:08:24Z</time>
      </trkpt>
      <trkpt lat="43.61262" lon="3.30121">
        <ele>385</ele>
        <time>2024-04-06T19:08:29Z</time>
      </trkpt>
      <trkpt lat="43.61261" lon="3.30165">
        <ele>387</ele>
        <time>2024-04-06T19:08:34Z</time>
      </trkpt>
      <trkpt lat="43.61258" lon="3.30182">
        <ele>388</ele>
        <time>2024-04-06T19:08:37Z</time>
      </trkpt>
      <trkpt lat="43.6125" lon="3.30218">
        <ele>390</ele>
        <time>2024-04-06T19:08:42Z</time>
      </trkpt>
      <trkpt lat="43.61241" lon="3.30245">
        <ele>391</ele>
        <time>2024-04-06T19:08:45Z</time>
      </trkpt>
      <trkpt lat="43.6123" lon="3.30271">
        <ele>391</ele>
        <time>2024-04-06T19:08:49Z</time>
      </trkpt>
      <trkpt lat="43.61219" lon="3.30289">
        <ele>391</ele>
        <time>2024-04-06T19:08:52Z</time>
      </trkpt>
      <trkpt lat="43.61205" lon="3.3031">
        <ele>390</ele>
        <time>2024-04-06T19:08:56Z</time>
      </trkpt>
      <trkpt lat="43.61191" lon="3.30327">
        <ele>389</ele>
        <time>2024-04-06T19:08:59Z</time>
      </trkpt>
      <trkpt lat="43.61177" lon="3.30341">
        <ele>389</ele>
        <time>2024-04-06T19:09:02Z</time>
      </trkpt>
      <trkpt lat="43.61152" lon="3.30359">
        <ele>387</ele>
        <time>2024-04-06T19:09:07Z</time>
      </trkpt>
      <trkpt lat="43.61136" lon="3.30367">
        <ele>387</ele>
        <time>2024-04-06T19:09:10Z</time>
      </trkpt>
      <trkpt lat="43.611" lon="3.30377">
        <ele>385</ele>
        <time>2024-04-06T19:09:17Z</time>
      </trkpt>
      <trkpt lat="43.61078" lon="3.30379">
        <ele>384</ele>
        <time>2024-04-06T19:09:21Z</time>
      </trkpt>
      <trkpt lat="43.6106" lon="3.30377">
        <ele>384</ele>
        <time>2024-04-06T19:09:24Z</time>
      </trkpt>
      <trkpt lat="43.61014" lon="3.30365">
        <ele>385</ele>
        <time>2024-04-06T19:09:32Z</time>
      </trkpt>
      <trkpt lat="43.60942" lon="3.30341">
        <ele>382</ele>
        <time>2024-04-06T19:09:46Z</time>
      </trkpt>
      <trkpt lat="43.6092" lon="3.30337">
        <ele>381</ele>
        <time>2024-04-06T19:09:50Z</time>
      </trkpt>
      <trkpt lat="43.60888" lon="3.30339">
        <ele>381</ele>
        <time>2024-04-06T19:09:55Z</time>
      </trkpt>
      <trkpt lat="43.60872" lon="3.30343">
        <ele>380</ele>
        <time>2024-04-06T19:09:58Z</time>
      </trkpt>
      <trkpt lat="43.60854" lon="3.3035">
        <ele>380</ele>
        <time>2024-04-06T19:10:01Z</time>
      </trkpt>
      <trkpt lat="43.60839" lon="3.30361">
        <ele>380</ele>
        <time>2024-04-06T19:10:04Z</time>
      </trkpt>
      <trkpt lat="43.60812" lon="3.30388">
        <ele>381</ele>
        <time>2024-04-06T19:10:10Z</time>
      </trkpt>
      <trkpt lat="43.60799" lon="3.30408">
        <ele>381</ele>
        <time>2024-04-06T19:10:14Z</time>
      </trkpt>
      <trkpt lat="43.60788" lon="3.30429">
        <ele>381</ele>
        <time>2024-04-06T19:10:17Z</time>
      </trkpt>
      <trkpt lat="43.60779" lon="3.30454">
        <ele>381</ele>
        <time>2024-04-06T19:10:21Z</time>
      </trkpt>
      <trkpt lat="43.60773" lon="3.30477">
        <ele>380</ele>
        <time>2024-04-06T19:10:24Z</time>
      </trkpt>
      <trkpt lat="43.6077" lon="3.30501">
        <ele>380</ele>
        <time>2024-04-06T19:10:27Z</time>
      </trkpt>
      <trkpt lat="43.60768" lon="3.3053">
        <ele>379</ele>
        <time>2024-04-06T19:10:31Z</time>
      </trkpt>
      <trkpt lat="43.6077" lon="3.30559">
        <ele>379</ele>
        <time>2024-04-06T19:10:35Z</time>
      </trkpt>
      <trkpt lat="43.60779" lon="3.30603">
        <ele>378</ele>
        <time>2024-04-06T19:10:40Z</time>
      </trkpt>
      <trkpt lat="43.60791" lon="3.30636">
        <ele>379</ele>
        <time>2024-04-06T19:10:45Z</time>
      </trkpt>
      <trkpt lat="43.60848" lon="3.30746">
        <ele>379</ele>
        <time>2024-04-06T19:11:03Z</time>
      </trkpt>
      <trkpt lat="43.60859" lon="3.3077">
        <ele>377</ele>
        <time>2024-04-06T19:11:06Z</time>
      </trkpt>
      <trkpt lat="43.6087" lon="3.30814">
        <ele>373</ele>
        <time>2024-04-06T19:11:12Z</time>
      </trkpt>
      <trkpt lat="43.60875" lon="3.30847">
        <ele>370</ele>
        <time>2024-04-06T19:11:17Z</time>
      </trkpt>
      <trkpt lat="43.60877" lon="3.30881">
        <ele>367</ele>
        <time>2024-04-06T19:11:21Z</time>
      </trkpt>
      <trkpt lat="43.60874" lon="3.30912">
        <ele>364</ele>
        <time>2024-04-06T19:11:25Z</time>
      </trkpt>
      <trkpt lat="43.60871" lon="3.30941">
        <ele>363</ele>
        <time>2024-04-06T19:11:29Z</time>
      </trkpt>
      <trkpt lat="43.60864" lon="3.3097">
        <ele>362</ele>
        <time>2024-04-06T19:11:33Z</time>
      </trkpt>
      <trkpt lat="43.60856" lon="3.30992">
        <ele>361</ele>
        <time>2024-04-06T19:11:36Z</time>
      </trkpt>
      <trkpt lat="43.60842" lon="3.31022">
        <ele>360</ele>
        <time>2024-04-06T19:11:41Z</time>
      </trkpt>
      <trkpt lat="43.60824" lon="3.31051">
        <ele>359</ele>
        <time>2024-04-06T19:11:45Z</time>
      </trkpt>
      <trkpt lat="43.60807" lon="3.31073">
        <ele>358</ele>
        <time>2024-04-06T19:11:50Z</time>
      </trkpt>
      <trkpt lat="43.60707" lon="3.3118">
        <ele>357</ele>
        <time>2024-04-06T19:12:12Z</time>
      </trkpt>
      <trkpt lat="43.60685" lon="3.31207">
        <ele>355</ele>
        <time>2024-04-06T19:12:17Z</time>
      </trkpt>
      <trkpt lat="43.60669" lon="3.31235">
        <ele>355</ele>
        <time>2024-04-06T19:12:22Z</time>
      </trkpt>
      <trkpt lat="43.60658" lon="3.31264">
        <ele>354</ele>
        <time>2024-04-06T19:12:26Z</time>
      </trkpt>
      <trkpt lat="43.6065" lon="3.31292">
        <ele>352</ele>
        <time>2024-04-06T19:12:30Z</time>
      </trkpt>
      <trkpt lat="43.60645" lon="3.31321">
        <ele>350</ele>
        <time>2024-04-06T19:12:34Z</time>
      </trkpt>
      <trkpt lat="43.60643" lon="3.31348">
        <ele>347</ele>
        <time>2024-04-06T19:12:37Z</time>
      </trkpt>
      <trkpt lat="43.60644" lon="3.31374">
        <ele>345</ele>
        <time>2024-04-06T19:12:41Z</time>
      </trkpt>
      <trkpt lat="43.60647" lon="3.31398">
        <ele>343</ele>
        <time>2024-04-06T19:12:44Z</time>
      </trkpt>
      <trkpt lat="43.60654" lon="3.31429">
        <ele>341</ele>
        <time>2024-04-06T19:12:48Z</time>
      </trkpt>
      <trkpt lat="43.60665" lon="3.3146">
        <ele>340</ele>
        <time>2024-04-06T19:12:53Z</time>
      </trkpt>
      <trkpt lat="43.60674" lon="3.3148">
        <ele>339</ele>
        <time>2024-04-06T19:12:56Z</time>
      </trkpt>
      <trkpt lat="43.60689" lon="3.31503">
        <ele>338</ele>
        <time>2024-04-06T19:13:00Z</time>
      </trkpt>
      <trkpt lat="43.60703" lon="3.31522">
        <ele>338</ele>
        <time>2024-04-06T19:13:03Z</time>
      </trkpt>
      <trkpt lat="43.60722" lon="3.31539">
        <ele>337</ele>
        <time>2024-04-06T19:13:07Z</time>
      </trkpt>
      <trkpt lat="43.60753" lon="3.31556">
        <ele>335</ele>
        <time>2024-04-06T19:13:13Z</time>
      </trkpt>
      <trkpt lat="43.60772" lon="3.31563">
        <ele>331</ele>
        <time>2024-04-06T19:13:17Z</time>
      </trkpt>
      <trkpt lat="43.60787" lon="3.31565">
        <ele>329</ele>
        <time>2024-04-06T19:13:19Z</time>
      </trkpt>
      <trkpt lat="43.60808" lon="3.31565">
        <ele>326</ele>
        <time>2024-04-06T19:13:23Z</time>
      </trkpt>
      <trkpt lat="43.60854" lon="3.31554">
        <ele>320</ele>
        <time>2024-04-06T19:13:31Z</time>
      </trkpt>
      <trkpt lat="43.6094" lon="3.31523">
        <ele>310</ele>
        <time>2024-04-06T19:13:47Z</time>
      </trkpt>
      <trkpt lat="43.60974" lon="3.31516">
        <ele>309</ele>
        <time>2024-04-06T19:13:53Z</time>
      </trkpt>
      <trkpt lat="43.61008" lon="3.3152">
        <ele>307</ele>
        <time>2024-04-06T19:13:59Z</time>
      </trkpt>
      <trkpt lat="43.61054" lon="3.31543">
        <ele>304</ele>
        <time>2024-04-06T19:14:08Z</time>
      </trkpt>
      <trkpt lat="43.61085" lon="3.3157">
        <ele>300</ele>
        <time>2024-04-06T19:14:14Z</time>
      </trkpt>
      <trkpt lat="43.61105" lon="3.31595">
        <ele>292</ele>
        <time>2024-04-06T19:14:19Z</time>
      </trkpt>
      <trkpt lat="43.61121" lon="3.31624">
        <ele>287</ele>
        <time>2024-04-06T19:14:24Z</time>
      </trkpt>
      <trkpt lat="43.61133" lon="3.31659">
        <ele>283</ele>
        <time>2024-04-06T19:14:29Z</time>
      </trkpt>
      <trkpt lat="43.61142" lon="3.31698">
        <ele>282</ele>
        <time>2024-04-06T19:14:34Z</time>
      </trkpt>
      <trkpt lat="43.61148" lon="3.31765">
        <ele>282</ele>
        <time>2024-04-06T19:14:43Z</time>
      </trkpt>
      <trkpt lat="43.61151" lon="3.32077">
        <ele>281</ele>
        <time>2024-04-06T19:15:23Z</time>
      </trkpt>
      <trkpt lat="43.61147" lon="3.32118">
        <ele>280</ele>
        <time>2024-04-06T19:15:28Z</time>
      </trkpt>
      <trkpt lat="43.61139" lon="3.3216">
        <ele>279</ele>
        <time>2024-04-06T19:15:34Z</time>
      </trkpt>
      <trkpt lat="43.61131" lon="3.32185">
        <ele>279</ele>
        <time>2024-04-06T19:15:38Z</time>
      </trkpt>
      <trkpt lat="43.61118" lon="3.32208">
        <ele>278</ele>
        <time>2024-04-06T19:15:41Z</time>
      </trkpt>
      <trkpt lat="43.61095" lon="3.32236">
        <ele>277</ele>
        <time>2024-04-06T19:15:47Z</time>
      </trkpt>
      <trkpt lat="43.61064" lon="3.32257">
        <ele>277</ele>
        <time>2024-04-06T19:15:53Z</time>
      </trkpt>
      <trkpt lat="43.61041" lon="3.32264">
        <ele>277</ele>
        <time>2024-04-06T19:15:57Z</time>
      </trkpt>
      <trkpt lat="43.61022" lon="3.32265">
        <ele>277</ele>
        <time>2024-04-06T19:16:00Z</time>
      </trkpt>
      <trkpt lat="43.6099" lon="3.32259">
        <ele>276</ele>
        <time>2024-04-06T19:16:06Z</time>
      </trkpt>
      <trkpt lat="43.6095" lon="3.32246">
        <ele>276</ele>
        <time>2024-04-06T19:16:14Z</time>
      </trkpt>
      <trkpt lat="43.60923" lon="3.32241">
        <ele>276</ele>
        <time>2024-04-06T19:16:18Z</time>
      </trkpt>
      <trkpt lat="43.60894" lon="3.32242">
        <ele>276</ele>
        <time>2024-04-06T19:16:24Z</time>
      </trkpt>
      <trkpt lat="43.60867" lon="3.32251">
        <ele>277</ele>
        <time>2024-04-06T19:16:28Z</time>
      </trkpt>
      <trkpt lat="43.60842" lon="3.32268">
        <ele>278</ele>
        <time>2024-04-06T19:16:33Z</time>
      </trkpt>
      <trkpt lat="43.60818" lon="3.32295">
        <ele>279</ele>
        <time>2024-04-06T19:16:39Z</time>
      </trkpt>
      <trkpt lat="43.60742" lon="3.32415">
        <ele>278</ele>
        <time>2024-04-06T19:16:59Z</time>
      </trkpt>
      <trkpt lat="43.60715" lon="3.32468">
        <ele>281</ele>
        <time>2024-04-06T19:17:08Z</time>
      </trkpt>
      <trkpt lat="43.60699" lon="3.32517">
        <ele>282</ele>
        <time>2024-04-06T19:17:15Z</time>
      </trkpt>
      <trkpt lat="43.60687" lon="3.32576">
        <ele>281</ele>
        <time>2024-04-06T19:17:23Z</time>
      </trkpt>
      <trkpt lat="43.60685" lon="3.3262">
        <ele>280</ele>
        <time>2024-04-06T19:17:28Z</time>
      </trkpt>
      <trkpt lat="43.60687" lon="3.3267">
        <ele>278</ele>
        <time>2024-04-06T19:17:35Z</time>
      </trkpt>
      <trkpt lat="43.60697" lon="3.32729">
        <ele>280</ele>
        <time>2024-04-06T19:17:43Z</time>
      </trkpt>
      <trkpt lat="43.60713" lon="3.32792">
        <ele>283</ele>
        <time>2024-04-06T19:17:51Z</time>
      </trkpt>
      <trkpt lat="43.60934" lon="3.33478">
        <ele>282</ele>
        <time>2024-04-06T19:19:28Z</time>
      </trkpt>
      <trkpt lat="43.60944" lon="3.33524">
        <ele>281</ele>
        <time>2024-04-06T19:19:34Z</time>
      </trkpt>
      <trkpt lat="43.60948" lon="3.33545">
        <ele>282</ele>
        <time>2024-04-06T19:19:37Z</time>
      </trkpt>
      <trkpt lat="43.60948" lon="3.336">
        <ele>282</ele>
        <time>2024-04-06T19:19:44Z</time>
      </trkpt>
      <trkpt lat="43.60947" lon="3.33657">
        <ele>284</ele>
        <time>2024-04-06T19:19:51Z</time>
      </trkpt>
      <trkpt lat="43.60949" lon="3.33718">
        <ele>284</ele>
        <time>2024-04-06T19:19:59Z</time>
      </trkpt>
      <trkpt lat="43.6096" lon="3.3378">
        <ele>285</ele>
        <time>2024-04-06T19:20:07Z</time>
      </trkpt>
      <trkpt lat="43.60963" lon="3.33826">
        <ele>284</ele>
        <time>2024-04-06T19:20:13Z</time>
      </trkpt>
      <trkpt lat="43.60964" lon="3.33874">
        <ele>285</ele>
        <time>2024-04-06T19:20:20Z</time>
      </trkpt>
      <trkpt lat="43.60957" lon="3.34">
        <ele>285</ele>
        <time>2024-04-06T19:20:36Z</time>
      </trkpt>
      <trkpt lat="43.6095" lon="3.34077">
        <ele>283</ele>
        <time>2024-04-06T19:20:46Z</time>
      </trkpt>
      <trkpt lat="43.60951" lon="3.34126">
        <ele>284</ele>
        <time>2024-04-06T19:20:52Z</time>
      </trkpt>
      <trkpt lat="43.60956" lon="3.34176">
        <ele>284</ele>
        <time>2024-04-06T19:20:59Z</time>
      </trkpt>
      <trkpt lat="43.60968" lon="3.34236">
        <ele>284</ele>
        <time>2024-04-06T19:21:07Z</time>
      </trkpt>
      <trkpt lat="43.60975" lon="3.34291">
        <ele>283</ele>
        <time>2024-04-06T19:21:14Z</time>
      </trkpt>
      <trkpt lat="43.60977" lon="3.34337">
        <ele>282</ele>
        <time>2024-04-06T19:21:20Z</time>
      </trkpt>
      <trkpt lat="43.60959" lon="3.34588">
        <ele>282</ele>
        <time>2024-04-06T19:21:52Z</time>
      </trkpt>
      <trkpt lat="43.60947" lon="3.34712">
        <ele>276</ele>
        <time>2024-04-06T19:22:08Z</time>
      </trkpt>
      <trkpt lat="43.60937" lon="3.34758">
        <ele>274</ele>
        <time>2024-04-06T19:22:15Z</time>
      </trkpt>
      <trkpt lat="43.60914" lon="3.34826">
        <ele>274</ele>
        <time>2024-04-06T19:22:24Z</time>
      </trkpt>
      <trkpt lat="43.60896" lon="3.3487">
        <ele>274</ele>
        <time>2024-04-06T19:22:31Z</time>
      </trkpt>
      <trkpt lat="43.60807" lon="3.35032">
        <ele>274</ele>
        <time>2024-04-06T19:22:57Z</time>
      </trkpt>
      <trkpt lat="43.60776" lon="3.35064">
        <ele>272</ele>
        <time>2024-04-06T19:23:04Z</time>
      </trkpt>
      <trkpt lat="43.60741" lon="3.35096">
        <ele>270</ele>
        <time>2024-04-06T19:23:11Z</time>
      </trkpt>
      <trkpt lat="43.60695" lon="3.3515">
        <ele>268</ele>
        <time>2024-04-06T19:23:22Z</time>
      </trkpt>
      <trkpt lat="43.60674" lon="3.35178">
        <ele>267</ele>
        <time>2024-04-06T19:23:27Z</time>
      </trkpt>
      <trkpt lat="43.60657" lon="3.35205">
        <ele>267</ele>
        <time>2024-04-06T19:23:32Z</time>
      </trkpt>
      <trkpt lat="43.60642" lon="3.35239">
        <ele>269</ele>
        <time>2024-04-06T19:23:37Z</time>
      </trkpt>
      <trkpt lat="43.60632" lon="3.35293">
        <ele>269</ele>
        <time>2024-04-06T19:23:44Z</time>
      </trkpt>
      <trkpt lat="43.60631" lon="3.35336">
        <ele>267</ele>
        <time>2024-04-06T19:23:50Z</time>
      </trkpt>
      <trkpt lat="43.60639" lon="3.3549">
        <ele>264</ele>
        <time>2024-04-06T19:24:10Z</time>
      </trkpt>
      <trkpt lat="43.60632" lon="3.35534">
        <ele>262</ele>
        <time>2024-04-06T19:24:15Z</time>
      </trkpt>
      <trkpt lat="43.60542" lon="3.35807">
        <ele>259</ele>
        <time>2024-04-06T19:24:54Z</time>
      </trkpt>
      <trkpt lat="43.60534" lon="3.35853">
        <ele>258</ele>
        <time>2024-04-06T19:25:00Z</time>
      </trkpt>
      <trkpt lat="43.60534" lon="3.35902">
        <ele>255</ele>
        <time>2024-04-06T19:25:07Z</time>
      </trkpt>
      <trkpt lat="43.60571" lon="3.36206">
        <ele>243</ele>
        <time>2024-04-06T19:25:46Z</time>
      </trkpt>
      <trkpt lat="43.60576" lon="3.36253">
        <ele>241</ele>
        <time>2024-04-06T19:25:52Z</time>
      </trkpt>
      <trkpt lat="43.60574" lon="3.36293">
        <ele>243</ele>
        <time>2024-04-06T19:25:58Z</time>
      </trkpt>
      <trkpt lat="43.60571" lon="3.36317">
        <ele>244</ele>
        <time>2024-04-06T19:26:01Z</time>
      </trkpt>
      <trkpt lat="43.60565" lon="3.36343">
        <ele>245</ele>
        <time>2024-04-06T19:26:04Z</time>
      </trkpt>
      <trkpt lat="43.6055" lon="3.36391">
        <ele>245</ele>
        <time>2024-04-06T19:26:11Z</time>
      </trkpt>
      <trkpt lat="43.60512" lon="3.36497">
        <ele>240</ele>
        <time>2024-04-06T19:26:26Z</time>
      </trkpt>
      <trkpt lat="43.60501" lon="3.36538">
        <ele>238</ele>
        <time>2024-04-06T19:26:32Z</time>
      </trkpt>
      <trkpt lat="43.60498" lon="3.36564">
        <ele>238</ele>
        <time>2024-04-06T19:26:35Z</time>
      </trkpt>
      <trkpt lat="43.60498" lon="3.3659">
        <ele>238</ele>
        <time>2024-04-06T19:26:39Z</time>
      </trkpt>
      <trkpt lat="43.60501" lon="3.3661">
        <ele>238</ele>
        <time>2024-04-06T19:26:41Z</time>
      </trkpt>
      <trkpt lat="43.60507" lon="3.36626">
        <ele>239</ele>
        <time>2024-04-06T19:26:43Z</time>
      </trkpt>
      <trkpt lat="43.60524" lon="3.36658">
        <ele>237</ele>
        <time>2024-04-06T19:26:49Z</time>
      </trkpt>
      <trkpt lat="43.60547" lon="3.36687">
        <ele>233</ele>
        <time>2024-04-06T19:26:54Z</time>
      </trkpt>
      <trkpt lat="43.60561" lon="3.36706">
        <ele>229</ele>
        <time>2024-04-06T19:26:58Z</time>
      </trkpt>
      <trkpt lat="43.60576" lon="3.36736">
        <ele>225</ele>
        <time>2024-04-06T19:27:02Z</time>
      </trkpt>
      <trkpt lat="43.60584" lon="3.36768">
        <ele>223</ele>
        <time>2024-04-06T19:27:07Z</time>
      </trkpt>
      <trkpt lat="43.60586" lon="3.36793">
        <ele>222</ele>
        <time>2024-04-06T19:27:10Z</time>
      </trkpt>
      <trkpt lat="43.60585" lon="3.36819">
        <ele>222</ele>
        <time>2024-04-06T19:27:13Z</time>
      </trkpt>
      <trkpt lat="43.6057" lon="3.36924">
        <ele>226</ele>
        <time>2024-04-06T19:27:27Z</time>
      </trkpt>
      <trkpt lat="43.60571" lon="3.36947">
        <ele>227</ele>
        <time>2024-04-06T19:27:30Z</time>
      </trkpt>
      <trkpt lat="43.60579" lon="3.36974">
        <ele>227</ele>
        <time>2024-04-06T19:27:34Z</time>
      </trkpt>
      <trkpt lat="43.60588" lon="3.36993">
        <ele>226</ele>
        <time>2024-04-06T19:27:37Z</time>
      </trkpt>
      <trkpt lat="43.60598" lon="3.37005">
        <ele>226</ele>
        <time>2024-04-06T19:27:39Z</time>
      </trkpt>
      <trkpt lat="43.6065" lon="3.37052">
        <ele>222</ele>
        <time>2024-04-06T19:27:50Z</time>
      </trkpt>
      <trkpt lat="43.60665" lon="3.37074">
        <ele>219</ele>
        <time>2024-04-06T19:27:54Z</time>
      </trkpt>
      <trkpt lat="43.60672" lon="3.37089">
        <ele>220</ele>
        <time>2024-04-06T19:27:56Z</time>
      </trkpt>
      <trkpt lat="43.60677" lon="3.37109">
        <ele>220</ele>
        <time>2024-04-06T19:27:59Z</time>
      </trkpt>
      <trkpt lat="43.60679" lon="3.37131">
        <ele>221</ele>
        <time>2024-04-06T19:28:02Z</time>
      </trkpt>
      <trkpt lat="43.60678" lon="3.37153">
        <ele>221</ele>
        <time>2024-04-06T19:28:05Z</time>
      </trkpt>
      <trkpt lat="43.6067" lon="3.37207">
        <ele>218</ele>
        <time>2024-04-06T19:28:12Z</time>
      </trkpt>
      <trkpt lat="43.60668" lon="3.37285">
        <ele>215</ele>
        <time>2024-04-06T19:28:22Z</time>
      </trkpt>
      <trkpt lat="43.60661" lon="3.37319">
        <ele>213</ele>
        <time>2024-04-06T19:28:26Z</time>
      </trkpt>
      <trkpt lat="43.60648" lon="3.3735">
        <ele>213</ele>
        <time>2024-04-06T19:28:31Z</time>
      </trkpt>
      <trkpt lat="43.6056" lon="3.37516">
        <ele>212</ele>
        <time>2024-04-06T19:28:58Z</time>
      </trkpt>
      <trkpt lat="43.60551" lon="3.37543">
        <ele>214</ele>
        <time>2024-04-06T19:29:01Z</time>
      </trkpt>
      <trkpt lat="43.60549" lon="3.37567">
        <ele>214</ele>
        <time>2024-04-06T19:29:05Z</time>
      </trkpt>
      <trkpt lat="43.6055" lon="3.3759">
        <ele>213</ele>
        <time>2024-04-06T19:29:07Z</time>
      </trkpt>
      <trkpt lat="43.60553" lon="3.37604">
        <ele>213</ele>
        <time>2024-04-06T19:29:09Z</time>
      </trkpt>
      <trkpt lat="43.60565" lon="3.37633">
        <ele>211</ele>
        <time>2024-04-06T19:29:14Z</time>
      </trkpt>
      <trkpt lat="43.60577" lon="3.3765">
        <ele>208</ele>
        <time>2024-04-06T19:29:17Z</time>
      </trkpt>
      <trkpt lat="43.6059" lon="3.3766">
        <ele>206</ele>
        <time>2024-04-06T19:29:19Z</time>
      </trkpt>
      <trkpt lat="43.60641" lon="3.3769">
        <ele>203</ele>
        <time>2024-04-06T19:29:29Z</time>
      </trkpt>
      <trkpt lat="43.60652" lon="3.37698">
        <ele>202</ele>
        <time>2024-04-06T19:29:31Z</time>
      </trkpt>
      <trkpt lat="43.60661" lon="3.37709">
        <ele>201</ele>
        <time>2024-04-06T19:29:34Z</time>
      </trkpt>
      <trkpt lat="43.6067" lon="3.37723">
        <ele>201</ele>
        <time>2024-04-06T19:29:36Z</time>
      </trkpt>
      <trkpt lat="43.60676" lon="3.37737">
        <ele>203</ele>
        <time>2024-04-06T19:29:38Z</time>
      </trkpt>
      <trkpt lat="43.60682" lon="3.37761">
        <ele>205</ele>
        <time>2024-04-06T19:29:41Z</time>
      </trkpt>
      <trkpt lat="43.60685" lon="3.37838">
        <ele>208</ele>
        <time>2024-04-06T19:29:51Z</time>
      </trkpt>
      <trkpt lat="43.60688" lon="3.37856">
        <ele>208</ele>
        <time>2024-04-06T19:29:54Z</time>
      </trkpt>
      <trkpt lat="43.60696" lon="3.37877">
        <ele>207</ele>
        <time>2024-04-06T19:29:57Z</time>
      </trkpt>
      <trkpt lat="43.60707" lon="3.37894">
        <ele>204</ele>
        <time>2024-04-06T19:30:00Z</time>
      </trkpt>
      <trkpt lat="43.60717" lon="3.37907">
        <ele>200</ele>
        <time>2024-04-06T19:30:02Z</time>
      </trkpt>
      <trkpt lat="43.60731" lon="3.37917">
        <ele>195</ele>
        <time>2024-04-06T19:30:05Z</time>
      </trkpt>
      <trkpt lat="43.60806" lon="3.37962">
        <ele>191</ele>
        <time>2024-04-06T19:30:19Z</time>
      </trkpt>
      <trkpt lat="43.60818" lon="3.37974">
        <ele>190</ele>
        <time>2024-04-06T19:30:22Z</time>
      </trkpt>
      <trkpt lat="43.60828" lon="3.37987">
        <ele>189</ele>
        <time>2024-04-06T19:30:25Z</time>
      </trkpt>
      <trkpt lat="43.60836" lon="3.38001">
        <ele>188</ele>
        <time>2024-04-06T19:30:27Z</time>
      </trkpt>
      <trkpt lat="43.60842" lon="3.38021">
        <ele>187</ele>
        <time>2024-04-06T19:30:30Z</time>
      </trkpt>
      <trkpt lat="43.60846" lon="3.3804">
        <ele>186</ele>
        <time>2024-04-06T19:30:32Z</time>
      </trkpt>
      <trkpt lat="43.60846" lon="3.38057">
        <ele>186</ele>
        <time>2024-04-06T19:30:34Z</time>
      </trkpt>
      <trkpt lat="43.6084" lon="3.3814">
        <ele>185</ele>
        <time>2024-04-06T19:30:45Z</time>
      </trkpt>
      <trkpt lat="43.60841" lon="3.3816">
        <ele>185</ele>
        <time>2024-04-06T19:30:48Z</time>
      </trkpt>
      <trkpt lat="43.6085" lon="3.38199">
        <ele>187</ele>
        <time>2024-04-06T19:30:53Z</time>
      </trkpt>
      <trkpt lat="43.60857" lon="3.38215">
        <ele>187</ele>
        <time>2024-04-06T19:30:55Z</time>
      </trkpt>
      <trkpt lat="43.60867" lon="3.38231">
        <ele>186</ele>
        <time>2024-04-06T19:30:58Z</time>
      </trkpt>
      <trkpt lat="43.6095" lon="3.38339">
        <ele>174</ele>
        <time>2024-04-06T19:31:18Z</time>
      </trkpt>
      <trkpt lat="43.60961" lon="3.38353">
        <ele>172</ele>
        <time>2024-04-06T19:31:21Z</time>
      </trkpt>
      <trkpt lat="43.60965" lon="3.38378">
        <ele>171</ele>
        <time>2024-04-06T19:31:24Z</time>
      </trkpt>
      <trkpt lat="43.60968" lon="3.38406">
        <ele>170</ele>
        <time>2024-04-06T19:31:28Z</time>
      </trkpt>
      <trkpt lat="43.60967" lon="3.38435">
        <ele>169</ele>
        <time>2024-04-06T19:31:32Z</time>
      </trkpt>
      <trkpt lat="43.60959" lon="3.38468">
        <ele>169</ele>
        <time>2024-04-06T19:31:36Z</time>
      </trkpt>
      <trkpt lat="43.60939" lon="3.38519">
        <ele>171</ele>
        <time>2024-04-06T19:31:44Z</time>
      </trkpt>
      <trkpt lat="43.6092" lon="3.38591">
        <ele>168</ele>
        <time>2024-04-06T19:31:54Z</time>
      </trkpt>
      <trkpt lat="43.60913" lon="3.38625">
        <ele>168</ele>
        <time>2024-04-06T19:31:58Z</time>
      </trkpt>
      <trkpt lat="43.60912" lon="3.38644">
        <ele>168</ele>
        <time>2024-04-06T19:32:01Z</time>
      </trkpt>
      <trkpt lat="43.60914" lon="3.38665">
        <ele>166</ele>
        <time>2024-04-06T19:32:03Z</time>
      </trkpt>
      <trkpt lat="43.60926" lon="3.38715">
        <ele>167</ele>
        <time>2024-04-06T19:32:10Z</time>
      </trkpt>
      <trkpt lat="43.60931" lon="3.38727">
        <ele>168</ele>
        <time>2024-04-06T19:32:12Z</time>
      </trkpt>
      <trkpt lat="43.60939" lon="3.38737">
        <ele>167</ele>
        <time>2024-04-06T19:32:14Z</time>
      </trkpt>
      <trkpt lat="43.6096" lon="3.38752">
        <ele>164</ele>
        <time>2024-04-06T19:32:18Z</time>
      </trkpt>
      <trkpt lat="43.61033" lon="3.38786">
        <ele>161</ele>
        <time>2024-04-06T19:32:32Z</time>
      </trkpt>
      <trkpt lat="43.61044" lon="3.38801">
        <ele>161</ele>
        <time>2024-04-06T19:32:34Z</time>
      </trkpt>
      <trkpt lat="43.61054" lon="3.38821">
        <ele>161</ele>
        <time>2024-04-06T19:32:38Z</time>
      </trkpt>
      <trkpt lat="43.61062" lon="3.38848">
        <ele>161</ele>
        <time>2024-04-06T19:32:41Z</time>
      </trkpt>
      <trkpt lat="43.61079" lon="3.3899">
        <ele>162</ele>
        <time>2024-04-06T19:33:00Z</time>
      </trkpt>
      <trkpt lat="43.61099" lon="3.39059">
        <ele>162</ele>
        <time>2024-04-06T19:33:09Z</time>
      </trkpt>
      <trkpt lat="43.61103" lon="3.3908">
        <ele>162</ele>
        <time>2024-04-06T19:33:12Z</time>
      </trkpt>
      <trkpt lat="43.61102" lon="3.39105">
        <ele>162</ele>
        <time>2024-04-06T19:33:16Z</time>
      </trkpt>
      <trkpt lat="43.61093" lon="3.3915">
        <ele>163</ele>
        <time>2024-04-06T19:33:22Z</time>
      </trkpt>
      <trkpt lat="43.61091" lon="3.39193">
        <ele>163</ele>
        <time>2024-04-06T19:33:27Z</time>
      </trkpt>
      <trkpt lat="43.61101" lon="3.39336">
        <ele>163</ele>
        <time>2024-04-06T19:33:46Z</time>
      </trkpt>
      <trkpt lat="43.61102" lon="3.39372">
        <ele>160</ele>
        <time>2024-04-06T19:33:50Z</time>
      </trkpt>
      <trkpt lat="43.611" lon="3.39404">
        <ele>157</ele>
        <time>2024-04-06T19:33:54Z</time>
      </trkpt>
      <trkpt lat="43.61093" lon="3.39433">
        <ele>154</ele>
        <time>2024-04-06T19:33:58Z</time>
      </trkpt>
      <trkpt lat="43.61084" lon="3.39454">
        <ele>151</ele>
        <time>2024-04-06T19:34:01Z</time>
      </trkpt>
      <trkpt lat="43.61071" lon="3.39474">
        <ele>151</ele>
        <time>2024-04-06T19:34:05Z</time>
      </trkpt>
      <trkpt lat="43.61055" lon="3.39496">
        <ele>151</ele>
        <time>2024-04-06T19:34:09Z</time>
      </trkpt>
      <trkpt lat="43.60911" lon="3.39628">
        <ele>150</ele>
        <time>2024-04-06T19:34:40Z</time>
      </trkpt>
      <trkpt lat="43.60904" lon="3.39638">
        <ele>150</ele>
        <time>2024-04-06T19:34:41Z</time>
      </trkpt>
      <trkpt lat="43.60892" lon="3.39663">
        <ele>149</ele>
        <time>2024-04-06T19:34:45Z</time>
      </trkpt>
      <trkpt lat="43.6089" lon="3.3967">
        <ele>149</ele>
        <time>2024-04-06T19:34:46Z</time>
      </trkpt>
      <trkpt lat="43.60882" lon="3.39709">
        <ele>150</ele>
        <time>2024-04-06T19:34:52Z</time>
      </trkpt>
      <trkpt lat="43.60869" lon="3.39847">
        <ele>149</ele>
        <time>2024-04-06T19:35:09Z</time>
      </trkpt>
      <trkpt lat="43.60871" lon="3.39878">
        <ele>149</ele>
        <time>2024-04-06T19:35:13Z</time>
      </trkpt>
      <trkpt lat="43.60902" lon="3.40011">
        <ele>143</ele>
        <time>2024-04-06T19:35:31Z</time>
      </trkpt>
      <trkpt lat="43.60904" lon="3.40033">
        <ele>142</ele>
        <time>2024-04-06T19:35:34Z</time>
      </trkpt>
      <trkpt lat="43.60902" lon="3.40054">
        <ele>141</ele>
        <time>2024-04-06T19:35:37Z</time>
      </trkpt>
      <trkpt lat="43.60894" lon="3.40091">
        <ele>140</ele>
        <time>2024-04-06T19:35:42Z</time>
      </trkpt>
      <trkpt lat="43.60895" lon="3.40121">
        <ele>138</ele>
        <time>2024-04-06T19:35:46Z</time>
      </trkpt>
      <trkpt lat="43.60906" lon="3.40151">
        <ele>135</ele>
        <time>2024-04-06T19:35:50Z</time>
      </trkpt>
      <trkpt lat="43.60917" lon="3.40171">
        <ele>134</ele>
        <time>2024-04-06T19:35:53Z</time>
      </trkpt>
      <trkpt lat="43.60923" lon="3.40176">
        <ele>134</ele>
        <time>2024-04-06T19:35:55Z</time>
      </trkpt>
      <trkpt lat="43.6095" lon="3.40184">
        <ele>135</ele>
        <time>2024-04-06T19:36:00Z</time>
      </trkpt>
      <trkpt lat="43.60963" lon="3.40192">
        <ele>135</ele>
        <time>2024-04-06T19:36:02Z</time>
      </trkpt>
      <trkpt lat="43.60989" lon="3.40223">
        <ele>135</ele>
        <time>2024-04-06T19:36:08Z</time>
      </trkpt>
      <trkpt lat="43.61156" lon="3.40451">
        <ele>133</ele>
        <time>2024-04-06T19:36:50Z</time>
      </trkpt>
      <trkpt lat="43.61192" lon="3.40501">
        <ele>131</ele>
        <time>2024-04-06T19:36:59Z</time>
      </trkpt>
      <trkpt lat="43.61354" lon="3.4072">
        <ele>139</ele>
        <time>2024-04-06T19:37:39Z</time>
      </trkpt>
      <trkpt lat="43.61389" lon="3.40755">
        <ele>139</ele>
        <time>2024-04-06T19:37:47Z</time>
      </trkpt>
      <trkpt lat="43.61445" lon="3.40794">
        <ele>141</ele>
        <time>2024-04-06T19:37:58Z</time>
      </trkpt>
      <trkpt lat="43.61851" lon="3.41052">
        <ele>165</ele>
        <time>2024-04-06T19:39:18Z</time>
      </trkpt>
      <trkpt lat="43.61954" lon="3.41116">
        <ele>170</ele>
        <time>2024-04-06T19:39:38Z</time>
      </trkpt>
      <trkpt lat="43.62046" lon="3.4117">
        <ele>164</ele>
        <time>2024-04-06T19:39:56Z</time>
      </trkpt>
      <trkpt lat="43.62085" lon="3.41201">
        <ele>162</ele>
        <time>2024-04-06T19:40:04Z</time>
      </trkpt>
      <trkpt lat="43.62116" lon="3.41232">
        <ele>161</ele>
        <time>2024-04-06T19:40:11Z</time>
      </trkpt>
      <trkpt lat="43.6217" lon="3.41312">
        <ele>153</ele>
        <time>2024-04-06T19:40:25Z</time>
      </trkpt>
      <trkpt lat="43.62337" lon="3.41607">
        <ele>142</ele>
        <time>2024-04-06T19:41:13Z</time>
      </trkpt>
      <trkpt lat="43.6235" lon="3.41649">
        <ele>141</ele>
        <time>2024-04-06T19:41:19Z</time>
      </trkpt>
      <trkpt lat="43.62352" lon="3.41651">
        <ele>141</ele>
        <time>2024-04-06T19:41:19Z</time>
      </trkpt>
      <trkpt lat="43.62351" lon="3.41659">
        <ele>141</ele>
        <time>2024-04-06T19:41:20Z</time>
      </trkpt>
      <trkpt lat="43.62352" lon="3.41666">
        <ele>141</ele>
        <time>2024-04-06T19:41:21Z</time>
      </trkpt>
      <trkpt lat="43.62349" lon="3.4169">
        <ele>142</ele>
        <time>2024-04-06T19:41:24Z</time>
      </trkpt>
      <trkpt lat="43.62352" lon="3.41704">
        <ele>141</ele>
        <time>2024-04-06T19:41:26Z</time>
      </trkpt>
      <trkpt lat="43.62358" lon="3.41718">
        <ele>141</ele>
        <time>2024-04-06T19:41:28Z</time>
      </trkpt>
      <trkpt lat="43.62371" lon="3.41728">
        <ele>140</ele>
        <time>2024-04-06T19:41:31Z</time>
      </trkpt>
      <trkpt lat="43.62375" lon="3.41734">
        <ele>140</ele>
        <time>2024-04-06T19:41:32Z</time>
      </trkpt>
      <trkpt lat="43.62385" lon="3.41753">
        <ele>139</ele>
        <time>2024-04-06T19:41:35Z</time>
      </trkpt>
      <trkpt lat="43.6239" lon="3.41769">
        <ele>139</ele>
        <time>2024-04-06T19:41:37Z</time>
      </trkpt>
      <trkpt lat="43.62396" lon="3.41793">
        <ele>140</ele>
        <time>2024-04-06T19:41:40Z</time>
      </trkpt>
      <trkpt lat="43.62405" lon="3.4185">
        <ele>140</ele>
        <time>2024-04-06T19:41:48Z</time>
      </trkpt>
      <trkpt lat="43.62405" lon="3.41881">
        <ele>140</ele>
        <time>2024-04-06T19:41:52Z</time>
      </trkpt>
      <trkpt lat="43.62402" lon="3.41916">
        <ele>140</ele>
        <time>2024-04-06T19:41:57Z</time>
      </trkpt>
      <trkpt lat="43.62404" lon="3.41949">
        <ele>141</ele>
        <time>2024-04-06T19:42:01Z</time>
      </trkpt>
      <trkpt lat="43.62407" lon="3.41971">
        <ele>141</ele>
        <time>2024-04-06T19:42:04Z</time>
      </trkpt>
      <trkpt lat="43.62413" lon="3.41992">
        <ele>141</ele>
        <time>2024-04-06T19:42:07Z</time>
      </trkpt>
      <trkpt lat="43.62429" lon="3.42028">
        <ele>140</ele>
        <time>2024-04-06T19:42:12Z</time>
      </trkpt>
      <trkpt lat="43.62436" lon="3.42043">
        <ele>139</ele>
        <time>2024-04-06T19:42:14Z</time>
      </trkpt>
      <trkpt lat="43.62446" lon="3.42078">
        <ele>139</ele>
        <time>2024-04-06T19:42:19Z</time>
      </trkpt>
      <trkpt lat="43.62451" lon="3.42112">
        <ele>139</ele>
        <time>2024-04-06T19:42:24Z</time>
      </trkpt>
      <trkpt lat="43.62451" lon="3.42172">
        <ele>141</ele>
        <time>2024-04-06T19:42:31Z</time>
      </trkpt>
      <trkpt lat="43.62456" lon="3.42186">
        <ele>141</ele>
        <time>2024-04-06T19:42:33Z</time>
      </trkpt>
      <trkpt lat="43.62463" lon="3.42198">
        <ele>140</ele>
        <time>2024-04-06T19:42:35Z</time>
      </trkpt>
      <trkpt lat="43.62473" lon="3.42207">
        <ele>138</ele>
        <time>2024-04-06T19:42:37Z</time>
      </trkpt>
      <trkpt lat="43.62501" lon="3.42225">
        <ele>134</ele>
        <time>2024-04-06T19:42:43Z</time>
      </trkpt>
      <trkpt lat="43.62522" lon="3.42258">
        <ele>132</ele>
        <time>2024-04-06T19:42:49Z</time>
      </trkpt>
      <trkpt lat="43.62539" lon="3.42295">
        <ele>130</ele>
        <time>2024-04-06T19:42:54Z</time>
      </trkpt>
      <trkpt lat="43.62568" lon="3.42374">
        <ele>126</ele>
        <time>2024-04-06T19:43:06Z</time>
      </trkpt>
      <trkpt lat="43.62571" lon="3.42376">
        <ele>125</ele>
        <time>2024-04-06T19:43:06Z</time>
      </trkpt>
      <trkpt lat="43.6257" lon="3.42554">
        <ele>127</ele>
        <time>2024-04-06T19:43:29Z</time>
      </trkpt>
      <trkpt lat="43.62571" lon="3.42561">
        <ele>126</ele>
        <time>2024-04-06T19:43:30Z</time>
      </trkpt>
      <trkpt lat="43.62572" lon="3.42641">
        <ele>125</ele>
        <time>2024-04-06T19:43:40Z</time>
      </trkpt>
      <trkpt lat="43.62595" lon="3.42908">
        <ele>114</ele>
        <time>2024-04-06T19:44:15Z</time>
      </trkpt>
      <trkpt lat="43.62598" lon="3.43029">
        <ele>112</ele>
        <time>2024-04-06T19:44:31Z</time>
      </trkpt>
      <trkpt lat="43.62595" lon="3.43063">
        <ele>111</ele>
        <time>2024-04-06T19:44:35Z</time>
      </trkpt>
      <trkpt lat="43.62591" lon="3.43094">
        <ele>111</ele>
        <time>2024-04-06T19:44:39Z</time>
      </trkpt>
      <trkpt lat="43.62655" lon="3.43117">
        <ele>109</ele>
        <time>2024-04-06T19:44:51Z</time>
      </trkpt>
      <trkpt lat="43.62666" lon="3.43122">
        <ele>109</ele>
        <time>2024-04-06T19:44:53Z</time>
      </trkpt>
      <trkpt lat="43.62672" lon="3.43129">
        <ele>109</ele>
        <time>2024-04-06T19:44:54Z</time>
      </trkpt>
      <trkpt lat="43.62679" lon="3.43129">
        <ele>109</ele>
        <time>2024-04-06T19:44:56Z</time>
      </trkpt>
      <trkpt lat="43.62715" lon="3.43112">
        <ele>111</ele>
        <time>2024-04-06T19:45:02Z</time>
      </trkpt>
      <trkpt lat="43.62733" lon="3.4309">
        <ele>114</ele>
        <time>2024-04-06T19:45:07Z</time>
      </trkpt>
      <trkpt lat="43.62734" lon="3.4308">
        <ele>114</ele>
        <time>2024-04-06T19:45:08Z</time>
      </trkpt>
      <trkpt lat="43.62741" lon="3.43089">
        <ele>114</ele>
        <time>2024-04-06T19:45:10Z</time>
      </trkpt>
      <trkpt lat="43.62752" lon="3.43099">
        <ele>114</ele>
        <time>2024-04-06T19:45:12Z</time>
      </trkpt>
      <trkpt lat="43.62764" lon="3.4314">
        <ele>111</ele>
        <time>2024-04-06T19:45:18Z</time>
      </trkpt>
      <trkpt lat="43.62773" lon="3.4318">
        <ele>109</ele>
        <time>2024-04-06T19:45:23Z</time>
      </trkpt>
      <trkpt lat="43.62779" lon="3.43195">
        <ele>108</ele>
        <time>2024-04-06T19:45:25Z</time>
      </trkpt>
      <trkpt lat="43.62794" lon="3.43222">
        <ele>106</ele>
        <time>2024-04-06T19:45:30Z</time>
      </trkpt>
      <trkpt lat="43.628" lon="3.43237">
        <ele>105</ele>
        <time>2024-04-06T19:45:32Z</time>
      </trkpt>
      <trkpt lat="43.62826" lon="3.43304">
        <ele>103</ele>
        <time>2024-04-06T19:45:42Z</time>
      </trkpt>
      <trkpt lat="43.62841" lon="3.43348">
        <ele>101</ele>
        <time>2024-04-06T19:45:48Z</time>
      </trkpt>
      <trkpt lat="43.62849" lon="3.43366">
        <ele>100</ele>
        <time>2024-04-06T19:45:51Z</time>
      </trkpt>
      <trkpt lat="43.62858" lon="3.4338">
        <ele>99</ele>
        <time>2024-04-06T19:45:53Z</time>
      </trkpt>
      <trkpt lat="43.62905" lon="3.43441">
        <ele>96</ele>
        <time>2024-04-06T19:46:05Z</time>
      </trkpt>
      <trkpt lat="43.62936" lon="3.43477">
        <ele>95</ele>
        <time>2024-04-06T19:46:12Z</time>
      </trkpt>
      <trkpt lat="43.62943" lon="3.43491">
        <ele>94</ele>
        <time>2024-04-06T19:46:14Z</time>
      </trkpt>
      <trkpt lat="43.62997" lon="3.43538">
        <ele>93</ele>
        <time>2024-04-06T19:46:25Z</time>
      </trkpt>
      <trkpt lat="43.63063" lon="3.43585">
        <ele>92</ele>
        <time>2024-04-06T19:46:39Z</time>
      </trkpt>
      <trkpt lat="43.63081" lon="3.43597">
        <ele>92</ele>
        <time>2024-04-06T19:46:42Z</time>
      </trkpt>
      <trkpt lat="43.63097" lon="3.43612">
        <ele>92</ele>
        <time>2024-04-06T19:46:45Z</time>
      </trkpt>
      <trkpt lat="43.6313" lon="3.43649">
        <ele>93</ele>
        <time>2024-04-06T19:46:53Z</time>
      </trkpt>
      <trkpt lat="43.63167" lon="3.43717">
        <ele>91</ele>
        <time>2024-04-06T19:47:04Z</time>
      </trkpt>
      <trkpt lat="43.6328" lon="3.43954">
        <ele>90</ele>
        <time>2024-04-06T19:47:41Z</time>
      </trkpt>
      <trkpt lat="43.633" lon="3.44">
        <ele>90</ele>
        <time>2024-04-06T19:47:47Z</time>
      </trkpt>
      <trkpt lat="43.63301" lon="3.44012">
        <ele>89</ele>
        <time>2024-04-06T19:47:49Z</time>
      </trkpt>
      <trkpt lat="43.63296" lon="3.44018">
        <ele>89</ele>
        <time>2024-04-06T19:47:50Z</time>
      </trkpt>
      <trkpt lat="43.63292" lon="3.44028">
        <ele>89</ele>
        <time>2024-04-06T19:47:52Z</time>
      </trkpt>
      <trkpt lat="43.63293" lon="3.44039">
        <ele>88</ele>
        <time>2024-04-06T19:47:53Z</time>
      </trkpt>
      <trkpt lat="43.63296" lon="3.44047">
        <ele>88</ele>
        <time>2024-04-06T19:47:54Z</time>
      </trkpt>
      <trkpt lat="43.63306" lon="3.44054">
        <ele>87</ele>
        <time>2024-04-06T19:47:56Z</time>
      </trkpt>
      <trkpt lat="43.63314" lon="3.44052">
        <ele>87</ele>
        <time>2024-04-06T19:47:58Z</time>
      </trkpt>
      <trkpt lat="43.63318" lon="3.44049">
        <ele>87</ele>
        <time>2024-04-06T19:47:59Z</time>
      </trkpt>
      <trkpt lat="43.6333" lon="3.44048">
        <ele>87</ele>
        <time>2024-04-06T19:48:01Z</time>
      </trkpt>
      <trkpt lat="43.63371" lon="3.4406">
        <ele>87</ele>
        <time>2024-04-06T19:48:08Z</time>
      </trkpt>
      <trkpt lat="43.63433" lon="3.44089">
        <ele>88</ele>
        <time>2024-04-06T19:48:20Z</time>
      </trkpt>
      <trkpt lat="43.63602" lon="3.44185">
        <ele>84</ele>
        <time>2024-04-06T19:48:52Z</time>
      </trkpt>
      <trkpt lat="43.63641" lon="3.44204">
        <ele>83</ele>
        <time>2024-04-06T19:49:00Z</time>
      </trkpt>
      <trkpt lat="43.63695" lon="3.44221">
        <ele>80</ele>
        <time>2024-04-06T19:49:09Z</time>
      </trkpt>
      <trkpt lat="43.63755" lon="3.44234">
        <ele>77</ele>
        <time>2024-04-06T19:49:20Z</time>
      </trkpt>
      <trkpt lat="43.63791" lon="3.44244">
        <ele>76</ele>
        <time>2024-04-06T19:49:27Z</time>
      </trkpt>
      <trkpt lat="43.63827" lon="3.44262">
        <ele>75</ele>
        <time>2024-04-06T19:49:34Z</time>
      </trkpt>
      <trkpt lat="43.63848" lon="3.44278">
        <ele>75</ele>
        <time>2024-04-06T19:49:38Z</time>
      </trkpt>
      <trkpt lat="43.63873" lon="3.44302">
        <ele>75</ele>
        <time>2024-04-06T19:49:43Z</time>
      </trkpt>
      <trkpt lat="43.64017" lon="3.44458">
        <ele>67</ele>
        <time>2024-04-06T19:50:16Z</time>
      </trkpt>
      <trkpt lat="43.6408" lon="3.4452">
        <ele>65</ele>
        <time>2024-04-06T19:50:30Z</time>
      </trkpt>
      <trkpt lat="43.64109" lon="3.44539">
        <ele>66</ele>
        <time>2024-04-06T19:50:35Z</time>
      </trkpt>
      <trkpt lat="43.64152" lon="3.44553">
        <ele>66</ele>
        <time>2024-04-06T19:50:43Z</time>
      </trkpt>
      <trkpt lat="43.64187" lon="3.44559">
        <ele>65</ele>
        <time>2024-04-06T19:50:49Z</time>
      </trkpt>
      <trkpt lat="43.64248" lon="3.4456">
        <ele>62</ele>
        <time>2024-04-06T19:51:00Z</time>
      </trkpt>
      <trkpt lat="43.64278" lon="3.4457">
        <ele>62</ele>
        <time>2024-04-06T19:51:06Z</time>
      </trkpt>
      <trkpt lat="43.64302" lon="3.44586">
        <ele>62</ele>
        <time>2024-04-06T19:51:11Z</time>
      </trkpt>
      <trkpt lat="43.64325" lon="3.44608">
        <ele>61</ele>
        <time>2024-04-06T19:51:16Z</time>
      </trkpt>
      <trkpt lat="43.6434" lon="3.44631">
        <ele>60</ele>
        <time>2024-04-06T19:51:20Z</time>
      </trkpt>
      <trkpt lat="43.64352" lon="3.44658">
        <ele>58</ele>
        <time>2024-04-06T19:51:24Z</time>
      </trkpt>
      <trkpt lat="43.64364" lon="3.44691">
        <ele>56</ele>
        <time>2024-04-06T19:51:28Z</time>
      </trkpt>
      <trkpt lat="43.64369" lon="3.44729">
        <ele>54</ele>
        <time>2024-04-06T19:51:33Z</time>
      </trkpt>
      <trkpt lat="43.64373" lon="3.44766">
        <ele>52</ele>
        <time>2024-04-06T19:51:38Z</time>
      </trkpt>
      <trkpt lat="43.64375" lon="3.44795">
        <ele>51</ele>
        <time>2024-04-06T19:51:42Z</time>
      </trkpt>
      <trkpt lat="43.64381" lon="3.44844">
        <ele>50</ele>
        <time>2024-04-06T19:51:48Z</time>
      </trkpt>
      <trkpt lat="43.64393" lon="3.44893">
        <ele>49</ele>
        <time>2024-04-06T19:51:55Z</time>
      </trkpt>
      <trkpt lat="43.64435" lon="3.45047">
        <ele>51</ele>
        <time>2024-04-06T19:52:16Z</time>
      </trkpt>
      <trkpt lat="43.64463" lon="3.45145">
        <ele>54</ele>
        <time>2024-04-06T19:52:30Z</time>
      </trkpt>
      <trkpt lat="43.64466" lon="3.45166">
        <ele>55</ele>
        <time>2024-04-06T19:52:32Z</time>
      </trkpt>
      <trkpt lat="43.64464" lon="3.45175">
        <ele>55</ele>
        <time>2024-04-06T19:52:34Z</time>
      </trkpt>
      <trkpt lat="43.64465" lon="3.45184">
        <ele>55</ele>
        <time>2024-04-06T19:52:35Z</time>
      </trkpt>
      <trkpt lat="43.64469" lon="3.45192">
        <ele>56</ele>
        <time>2024-04-06T19:52:36Z</time>
      </trkpt>
      <trkpt lat="43.6447" lon="3.45205">
        <ele>57</ele>
        <time>2024-04-06T19:52:38Z</time>
      </trkpt>
      <trkpt lat="43.64463" lon="3.45273">
        <ele>59</ele>
        <time>2024-04-06T19:52:47Z</time>
      </trkpt>
      <trkpt lat="43.64451" lon="3.45334">
        <ele>60</ele>
        <time>2024-04-06T19:52:55Z</time>
      </trkpt>
      <trkpt lat="43.6443" lon="3.4539">
        <ele>61</ele>
        <time>2024-04-06T19:53:03Z</time>
      </trkpt>
      <trkpt lat="43.64407" lon="3.45445">
        <ele>61</ele>
        <time>2024-04-06T19:53:11Z</time>
      </trkpt>
      <trkpt lat="43.64402" lon="3.45462">
        <ele>62</ele>
        <time>2024-04-06T19:53:13Z</time>
      </trkpt>
      <trkpt lat="43.64399" lon="3.45486">
        <ele>63</ele>
        <time>2024-04-06T19:53:17Z</time>
      </trkpt>
      <trkpt lat="43.644" lon="3.45508">
        <ele>64</ele>
        <time>2024-04-06T19:53:19Z</time>
      </trkpt>
      <trkpt lat="43.64404" lon="3.45529">
        <ele>65</ele>
        <time>2024-04-06T19:53:22Z</time>
      </trkpt>
      <trkpt lat="43.64411" lon="3.45547">
        <ele>67</ele>
        <time>2024-04-06T19:53:25Z</time>
      </trkpt>
      <trkpt lat="43.64517" lon="3.45742">
        <ele>65</ele>
        <time>2024-04-06T19:53:56Z</time>
      </trkpt>
      <trkpt lat="43.64527" lon="3.45768">
        <ele>66</ele>
        <time>2024-04-06T19:54:00Z</time>
      </trkpt>
      <trkpt lat="43.64524" lon="3.45771">
        <ele>66</ele>
        <time>2024-04-06T19:54:01Z</time>
      </trkpt>
      <trkpt lat="43.64523" lon="3.45777">
        <ele>66</ele>
        <time>2024-04-06T19:54:01Z</time>
      </trkpt>
      <trkpt lat="43.64524" lon="3.4578">
        <ele>66</ele>
        <time>2024-04-06T19:54:02Z</time>
      </trkpt>
      <trkpt lat="43.64527" lon="3.45783">
        <ele>66</ele>
        <time>2024-04-06T19:54:03Z</time>
      </trkpt>
      <trkpt lat="43.64522" lon="3.45874">
        <ele>68</ele>
        <time>2024-04-06T19:54:14Z</time>
      </trkpt>
      <trkpt lat="43.6452" lon="3.45893">
        <ele>68</ele>
        <time>2024-04-06T19:54:17Z</time>
      </trkpt>
      <trkpt lat="43.64515" lon="3.45905">
        <ele>68</ele>
        <time>2024-04-06T19:54:19Z</time>
      </trkpt>
      <trkpt lat="43.64473" lon="3.45982">
        <ele>67</ele>
        <time>2024-04-06T19:54:31Z</time>
      </trkpt>
      <trkpt lat="43.64466" lon="3.46004">
        <ele>67</ele>
        <time>2024-04-06T19:54:34Z</time>
      </trkpt>
      <trkpt lat="43.64462" lon="3.46024">
        <ele>66</ele>
        <time>2024-04-06T19:54:37Z</time>
      </trkpt>
      <trkpt lat="43.64457" lon="3.46063">
        <ele>65</ele>
        <time>2024-04-06T19:54:42Z</time>
      </trkpt>
      <trkpt lat="43.64449" lon="3.46122">
        <ele>64</ele>
        <time>2024-04-06T19:54:50Z</time>
      </trkpt>
      <trkpt lat="43.6436" lon="3.46785">
        <ele>60</ele>
        <time>2024-04-06T19:56:16Z</time>
      </trkpt>
      <trkpt lat="43.64355" lon="3.46868">
        <ele>59</ele>
        <time>2024-04-06T19:56:27Z</time>
      </trkpt>
      <trkpt lat="43.64356" lon="3.46917">
        <ele>60</ele>
        <time>2024-04-06T19:56:33Z</time>
      </trkpt>
      <trkpt lat="43.64361" lon="3.46967">
        <ele>61</ele>
        <time>2024-04-06T19:56:40Z</time>
      </trkpt>
      <trkpt lat="43.64371" lon="3.4704">
        <ele>61</ele>
        <time>2024-04-06T19:56:50Z</time>
      </trkpt>
      <trkpt lat="43.64434" lon="3.47416">
        <ele>64</ele>
        <time>2024-04-06T19:57:39Z</time>
      </trkpt>
      <trkpt lat="43.64694" lon="3.49035">
        <ele>69</ele>
        <time>2024-04-06T20:01:13Z</time>
      </trkpt>
      <trkpt lat="43.64718" lon="3.49156">
        <ele>68</ele>
        <time>2024-04-06T20:01:29Z</time>
      </trkpt>
      <trkpt lat="43.64737" lon="3.49235">
        <ele>69</ele>
        <time>2024-04-06T20:01:40Z</time>
      </trkpt>
      <trkpt lat="43.64772" lon="3.49349">
        <ele>68</ele>
        <time>2024-04-06T20:01:56Z</time>
      </trkpt>
      <trkpt lat="43.6482" lon="3.49499">
        <ele>70</ele>
        <time>2024-04-06T20:02:17Z</time>
      </trkpt>
      <trkpt lat="43.6484" lon="3.49593">
        <ele>70</ele>
        <time>2024-04-06T20:02:29Z</time>
      </trkpt>
      <trkpt lat="43.6484" lon="3.49602">
        <ele>70</ele>
        <time>2024-04-06T20:02:30Z</time>
      </trkpt>
      <trkpt lat="43.64846" lon="3.4961">
        <ele>70</ele>
        <time>2024-04-06T20:02:32Z</time>
      </trkpt>
      <trkpt lat="43.6485" lon="3.4961">
        <ele>71</ele>
        <time>2024-04-06T20:02:33Z</time>
      </trkpt>
      <trkpt lat="43.64863" lon="3.49628">
        <ele>71</ele>
        <time>2024-04-06T20:02:36Z</time>
      </trkpt>
      <trkpt lat="43.64886" lon="3.49714">
        <ele>72</ele>
        <time>2024-04-06T20:02:48Z</time>
      </trkpt>
      <trkpt lat="43.64951" lon="3.49926">
        <ele>72</ele>
        <time>2024-04-06T20:03:17Z</time>
      </trkpt>
      <trkpt lat="43.64954" lon="3.49937">
        <ele>72</ele>
        <time>2024-04-06T20:03:19Z</time>
      </trkpt>
      <trkpt lat="43.65032" lon="3.50177">
        <ele>71</ele>
        <time>2024-04-06T20:03:53Z</time>
      </trkpt>
      <trkpt lat="43.65045" lon="3.50231">
        <ele>72</ele>
        <time>2024-04-06T20:04:00Z</time>
      </trkpt>
      <trkpt lat="43.65005" lon="3.50437">
        <ele>70</ele>
        <time>2024-04-06T20:04:28Z</time>
      </trkpt>
      <trkpt lat="43.65004" lon="3.50454">
        <ele>70</ele>
        <time>2024-04-06T20:04:30Z</time>
      </trkpt>
      <trkpt lat="43.65018" lon="3.50652">
        <ele>71</ele>
        <time>2024-04-06T20:04:55Z</time>
      </trkpt>
      <trkpt lat="43.65022" lon="3.50679">
        <ele>71</ele>
        <time>2024-04-06T20:04:59Z</time>
      </trkpt>
      <trkpt lat="43.65059" lon="3.50873">
        <ele>70</ele>
        <time>2024-04-06T20:05:25Z</time>
      </trkpt>
      <trkpt lat="43.65063" lon="3.50895">
        <ele>69</ele>
        <time>2024-04-06T20:05:28Z</time>
      </trkpt>
      <trkpt lat="43.65096" lon="3.51077">
        <ele>68</ele>
        <time>2024-04-06T20:05:52Z</time>
      </trkpt>
      <trkpt lat="43.65093" lon="3.5108">
        <ele>68</ele>
        <time>2024-04-06T20:05:52Z</time>
      </trkpt>
      <trkpt lat="43.65088" lon="3.51089">
        <ele>68</ele>
        <time>2024-04-06T20:05:54Z</time>
      </trkpt>
      <trkpt lat="43.65088" lon="3.511">
        <ele>68</ele>
        <time>2024-04-06T20:05:55Z</time>
      </trkpt>
      <trkpt lat="43.65093" lon="3.51109">
        <ele>68</ele>
        <time>2024-04-06T20:05:57Z</time>
      </trkpt>
      <trkpt lat="43.65096" lon="3.51112">
        <ele>68</ele>
        <time>2024-04-06T20:05:57Z</time>
      </trkpt>
      <trkpt lat="43.65104" lon="3.51113">
        <ele>68</ele>
        <time>2024-04-06T20:05:59Z</time>
      </trkpt>
      <trkpt lat="43.65135" lon="3.5127">
        <ele>68</ele>
        <time>2024-04-06T20:06:20Z</time>
      </trkpt>
      <trkpt lat="43.65141" lon="3.51319">
        <ele>67</ele>
        <time>2024-04-06T20:06:26Z</time>
      </trkpt>
      <trkpt lat="43.65141" lon="3.51339">
        <ele>66</ele>
        <time>2024-04-06T20:06:29Z</time>
      </trkpt>
      <trkpt lat="43.65135" lon="3.51342">
        <ele>66</ele>
        <time>2024-04-06T20:06:30Z</time>
      </trkpt>
      <trkpt lat="43.6513" lon="3.51351">
        <ele>66</ele>
        <time>2024-04-06T20:06:31Z</time>
      </trkpt>
      <trkpt lat="43.65131" lon="3.51359">
        <ele>66</ele>
        <time>2024-04-06T20:06:32Z</time>
      </trkpt>
      <trkpt lat="43.65137" lon="3.51368">
        <ele>66</ele>
        <time>2024-04-06T20:06:34Z</time>
      </trkpt>
      <trkpt lat="43.65146" lon="3.51366">
        <ele>66</ele>
        <time>2024-04-06T20:06:36Z</time>
      </trkpt>
      <trkpt lat="43.6516" lon="3.51401">
        <ele>65</ele>
        <time>2024-04-06T20:06:41Z</time>
      </trkpt>
      <trkpt lat="43.65192" lon="3.51562">
        <ele>65</ele>
        <time>2024-04-06T20:07:02Z</time>
      </trkpt>
      <trkpt lat="43.65193" lon="3.51569">
        <ele>65</ele>
        <time>2024-04-06T20:07:03Z</time>
      </trkpt>
      <trkpt lat="43.65231" lon="3.51773">
        <ele>65</ele>
        <time>2024-04-06T20:07:30Z</time>
      </trkpt>
      <trkpt lat="43.65283" lon="3.52036">
        <ele>65</ele>
        <time>2024-04-06T20:08:05Z</time>
      </trkpt>
      <trkpt lat="43.6529" lon="3.52066">
        <ele>65</ele>
        <time>2024-04-06T20:08:09Z</time>
      </trkpt>
      <trkpt lat="43.65305" lon="3.52114">
        <ele>66</ele>
        <time>2024-04-06T20:08:16Z</time>
      </trkpt>
      <trkpt lat="43.65306" lon="3.5213">
        <ele>66</ele>
        <time>2024-04-06T20:08:18Z</time>
      </trkpt>
      <trkpt lat="43.65302" lon="3.52139">
        <ele>66</ele>
        <time>2024-04-06T20:08:20Z</time>
      </trkpt>
      <trkpt lat="43.65298" lon="3.52154">
        <ele>66</ele>
        <time>2024-04-06T20:08:22Z</time>
      </trkpt>
      <trkpt lat="43.65299" lon="3.52173">
        <ele>65</ele>
        <time>2024-04-06T20:08:24Z</time>
      </trkpt>
      <trkpt lat="43.65305" lon="3.52188">
        <ele>65</ele>
        <time>2024-04-06T20:08:26Z</time>
      </trkpt>
      <trkpt lat="43.65311" lon="3.52197">
        <ele>65</ele>
        <time>2024-04-06T20:08:28Z</time>
      </trkpt>
      <trkpt lat="43.65326" lon="3.52251">
        <ele>64</ele>
        <time>2024-04-06T20:08:35Z</time>
      </trkpt>
      <trkpt lat="43.65335" lon="3.52277">
        <ele>64</ele>
        <time>2024-04-06T20:08:39Z</time>
      </trkpt>
      <trkpt lat="43.65378" lon="3.5244">
        <ele>64</ele>
        <time>2024-04-06T20:09:01Z</time>
      </trkpt>
      <trkpt lat="43.65414" lon="3.52585">
        <ele>62</ele>
        <time>2024-04-06T20:09:21Z</time>
      </trkpt>
      <trkpt lat="43.65418" lon="3.52622">
        <ele>61</ele>
        <time>2024-04-06T20:09:26Z</time>
      </trkpt>
      <trkpt lat="43.65422" lon="3.5276">
        <ele>59</ele>
        <time>2024-04-06T20:09:44Z</time>
      </trkpt>
      <trkpt lat="43.65433" lon="3.52847">
        <ele>58</ele>
        <time>2024-04-06T20:09:55Z</time>
      </trkpt>
      <trkpt lat="43.65442" lon="3.52941">
        <ele>58</ele>
        <time>2024-04-06T20:10:07Z</time>
      </trkpt>
      <trkpt lat="43.65444" lon="3.53025">
        <ele>57</ele>
        <time>2024-04-06T20:10:18Z</time>
      </trkpt>
      <trkpt lat="43.65439" lon="3.53125">
        <ele>55</ele>
        <time>2024-04-06T20:10:31Z</time>
      </trkpt>
      <trkpt lat="43.65431" lon="3.53198">
        <ele>53</ele>
        <time>2024-04-06T20:10:41Z</time>
      </trkpt>
      <trkpt lat="43.65386" lon="3.53454">
        <ele>49</ele>
        <time>2024-04-06T20:11:14Z</time>
      </trkpt>
      <trkpt lat="43.65349" lon="3.53668">
        <ele>43</ele>
        <time>2024-04-06T20:11:43Z</time>
      </trkpt>
      <trkpt lat="43.65345" lon="3.53689">
        <ele>45</ele>
        <time>2024-04-06T20:11:46Z</time>
      </trkpt>
      <trkpt lat="43.65307" lon="3.53905">
        <ele>48</ele>
        <time>2024-04-06T20:12:14Z</time>
      </trkpt>
      <trkpt lat="43.65288" lon="3.54004">
        <ele>49</ele>
        <time>2024-04-06T20:12:27Z</time>
      </trkpt>
      <trkpt lat="43.65273" lon="3.54102">
        <ele>51</ele>
        <time>2024-04-06T20:12:40Z</time>
      </trkpt>
      <trkpt lat="43.65295" lon="3.54107">
        <ele>51</ele>
        <time>2024-04-06T20:12:44Z</time>
      </trkpt>
      <trkpt lat="43.65292" lon="3.54241">
        <ele>51</ele>
        <time>2024-04-06T20:13:02Z</time>
      </trkpt>
      <trkpt lat="43.65281" lon="3.54461">
        <ele>51</ele>
        <time>2024-04-06T20:13:30Z</time>
      </trkpt>
      <trkpt lat="43.65281" lon="3.54492">
        <ele>52</ele>
        <time>2024-04-06T20:13:34Z</time>
      </trkpt>
      <trkpt lat="43.65265" lon="3.54552">
        <ele>54</ele>
        <time>2024-04-06T20:13:42Z</time>
      </trkpt>
      <trkpt lat="43.65258" lon="3.54633">
        <ele>55</ele>
        <time>2024-04-06T20:13:53Z</time>
      </trkpt>
      <trkpt lat="43.65252" lon="3.5468">
        <ele>55</ele>
        <time>2024-04-06T20:13:59Z</time>
      </trkpt>
      <trkpt lat="43.65246" lon="3.54711">
        <ele>57</ele>
        <time>2024-04-06T20:14:03Z</time>
      </trkpt>
      <trkpt lat="43.65215" lon="3.54807">
        <ele>62</ele>
        <time>2024-04-06T20:14:16Z</time>
      </trkpt>
      <trkpt lat="43.65203" lon="3.5485">
        <ele>65</ele>
        <time>2024-04-06T20:14:22Z</time>
      </trkpt>
      <trkpt lat="43.65216" lon="3.54864">
        <ele>65</ele>
        <time>2024-04-06T20:14:25Z</time>
      </trkpt>
      <trkpt lat="43.65243" lon="3.54898">
        <ele>67</ele>
        <time>2024-04-06T20:14:32Z</time>
      </trkpt>
      <trkpt lat="43.65273" lon="3.54956">
        <ele>69</ele>
        <time>2024-04-06T20:14:41Z</time>
      </trkpt>
      <trkpt lat="43.65338" lon="3.55147">
        <ele>65</ele>
        <time>2024-04-06T20:15:08Z</time>
      </trkpt>
      <trkpt lat="43.65454" lon="3.5536">
        <ele>65</ele>
        <time>2024-04-06T20:15:42Z</time>
      </trkpt>
      <trkpt lat="43.65527" lon="3.55489">
        <ele>70</ele>
        <time>2024-04-06T20:16:04Z</time>
      </trkpt>
      <trkpt lat="43.65551" lon="3.55526">
        <ele>69</ele>
        <time>2024-04-06T20:16:10Z</time>
      </trkpt>
      <trkpt lat="43.65566" lon="3.55544">
        <ele>68</ele>
        <time>2024-04-06T20:16:13Z</time>
      </trkpt>
      <trkpt lat="43.65564" lon="3.55554">
        <ele>68</ele>
        <time>2024-04-06T20:16:15Z</time>
      </trkpt>
      <trkpt lat="43.65567" lon="3.55563">
        <ele>69</ele>
        <time>2024-04-06T20:16:16Z</time>
      </trkpt>
      <trkpt lat="43.65575" lon="3.55568">
        <ele>68</ele>
        <time>2024-04-06T20:16:18Z</time>
      </trkpt>
      <trkpt lat="43.65583" lon="3.55563">
        <ele>68</ele>
        <time>2024-04-06T20:16:19Z</time>
      </trkpt>
      <trkpt lat="43.6559" lon="3.55575">
        <ele>68</ele>
        <time>2024-04-06T20:16:21Z</time>
      </trkpt>
      <trkpt lat="43.656" lon="3.55588">
        <ele>68</ele>
        <time>2024-04-06T20:16:24Z</time>
      </trkpt>
      <trkpt lat="43.65655" lon="3.5565">
        <ele>68</ele>
        <time>2024-04-06T20:16:36Z</time>
      </trkpt>
      <trkpt lat="43.65735" lon="3.55747">
        <ele>65</ele>
        <time>2024-04-06T20:16:55Z</time>
      </trkpt>
      <trkpt lat="43.65816" lon="3.5581">
        <ele>64</ele>
        <time>2024-04-06T20:17:12Z</time>
      </trkpt>
      <trkpt lat="43.65854" lon="3.55847">
        <ele>62</ele>
        <time>2024-04-06T20:17:20Z</time>
      </trkpt>
      <trkpt lat="43.65921" lon="3.55925">
        <ele>57</ele>
        <time>2024-04-06T20:17:36Z</time>
      </trkpt>
      <trkpt lat="43.65941" lon="3.55956">
        <ele>59</ele>
        <time>2024-04-06T20:17:41Z</time>
      </trkpt>
      <trkpt lat="43.66002" lon="3.56078">
        <ele>63</ele>
        <time>2024-04-06T20:18:00Z</time>
      </trkpt>
      <trkpt lat="43.66035" lon="3.56134">
        <ele>64</ele>
        <time>2024-04-06T20:18:09Z</time>
      </trkpt>
      <trkpt lat="43.66237" lon="3.56394">
        <ele>62</ele>
        <time>2024-04-06T20:18:58Z</time>
      </trkpt>
      <trkpt lat="43.66259" lon="3.56429">
        <ele>62</ele>
        <time>2024-04-06T20:19:04Z</time>
      </trkpt>
      <trkpt lat="43.66288" lon="3.56484">
        <ele>60</ele>
        <time>2024-04-06T20:19:13Z</time>
      </trkpt>
      <trkpt lat="43.66316" lon="3.56523">
        <ele>58</ele>
        <time>2024-04-06T20:19:20Z</time>
      </trkpt>
      <trkpt lat="43.66364" lon="3.56568">
        <ele>58</ele>
        <time>2024-04-06T20:19:31Z</time>
      </trkpt>
      <trkpt lat="43.66381" lon="3.56582">
        <ele>59</ele>
        <time>2024-04-06T20:19:34Z</time>
      </trkpt>
      <trkpt lat="43.66421" lon="3.56605">
        <ele>60</ele>
        <time>2024-04-06T20:19:42Z</time>
      </trkpt>
      <trkpt lat="43.66437" lon="3.56611">
        <ele>61</ele>
        <time>2024-04-06T20:19:45Z</time>
      </trkpt>
      <trkpt lat="43.66507" lon="3.56627">
        <ele>63</ele>
        <time>2024-04-06T20:19:57Z</time>
      </trkpt>
      <trkpt lat="43.66548" lon="3.56643">
        <ele>62</ele>
        <time>2024-04-06T20:20:05Z</time>
      </trkpt>
      <trkpt lat="43.66847" lon="3.56792">
        <ele>59</ele>
        <time>2024-04-06T20:21:02Z</time>
      </trkpt>
      <trkpt lat="43.66877" lon="3.5681">
        <ele>60</ele>
        <time>2024-04-06T20:21:07Z</time>
      </trkpt>
      <trkpt lat="43.66952" lon="3.56861">
        <ele>61</ele>
        <time>2024-04-06T20:21:22Z</time>
      </trkpt>
      <trkpt lat="43.67091" lon="3.5698">
        <ele>60</ele>
        <time>2024-04-06T20:21:51Z</time>
      </trkpt>
      <trkpt lat="43.67391" lon="3.57232">
        <ele>60</ele>
        <time>2024-04-06T20:22:54Z</time>
      </trkpt>
      <trkpt lat="43.67727" lon="3.57517">
        <ele>61</ele>
        <time>2024-04-06T20:24:04Z</time>
      </trkpt>
      <trkpt lat="43.67783" lon="3.57545">
        <ele>62</ele>
        <time>2024-04-06T20:24:14Z</time>
      </trkpt>
      <trkpt lat="43.6782" lon="3.57557">
        <ele>63</ele>
        <time>2024-04-06T20:24:21Z</time>
      </trkpt>
      <trkpt lat="43.68239" lon="3.57612">
        <ele>63</ele>
        <time>2024-04-06T20:25:36Z</time>
      </trkpt>
      <trkpt lat="43.68255" lon="3.5762">
        <ele>63</ele>
        <time>2024-04-06T20:25:39Z</time>
      </trkpt>
      <trkpt lat="43.68264" lon="3.5763">
        <ele>63</ele>
        <time>2024-04-06T20:25:41Z</time>
      </trkpt>
      <trkpt lat="43.68267" lon="3.57636">
        <ele>63</ele>
        <time>2024-04-06T20:25:42Z</time>
      </trkpt>
      <trkpt lat="43.68274" lon="3.57641">
        <ele>63</ele>
        <time>2024-04-06T20:25:44Z</time>
      </trkpt>
      <trkpt lat="43.6828" lon="3.57642">
        <ele>62</ele>
        <time>2024-04-06T20:25:45Z</time>
      </trkpt>
      <trkpt lat="43.68287" lon="3.57639">
        <ele>63</ele>
        <time>2024-04-06T20:25:46Z</time>
      </trkpt>
      <trkpt lat="43.68294" lon="3.57629">
        <ele>63</ele>
        <time>2024-04-06T20:25:48Z</time>
      </trkpt>
      <trkpt lat="43.68316" lon="3.57624">
        <ele>63</ele>
        <time>2024-04-06T20:25:52Z</time>
      </trkpt>
      <trkpt lat="43.68376" lon="3.57641">
        <ele>63</ele>
        <time>2024-04-06T20:26:03Z</time>
      </trkpt>
      <trkpt lat="43.68443" lon="3.57667">
        <ele>63</ele>
        <time>2024-04-06T20:26:15Z</time>
      </trkpt>
      <trkpt lat="43.68496" lon="3.57691">
        <ele>61</ele>
        <time>2024-04-06T20:26:25Z</time>
      </trkpt>
      <trkpt lat="43.68548" lon="3.57707">
        <ele>62</ele>
        <time>2024-04-06T20:26:34Z</time>
      </trkpt>
      <trkpt lat="43.68585" lon="3.57711">
        <ele>62</ele>
        <time>2024-04-06T20:26:41Z</time>
      </trkpt>
      <trkpt lat="43.68666" lon="3.57706">
        <ele>60</ele>
        <time>2024-04-06T20:26:55Z</time>
      </trkpt>
      <trkpt lat="43.68732" lon="3.57698">
        <ele>55</ele>
        <time>2024-04-06T20:27:07Z</time>
      </trkpt>
      <trkpt lat="43.68836" lon="3.57685">
        <ele>62</ele>
        <time>2024-04-06T20:27:26Z</time>
      </trkpt>
      <trkpt lat="43.68892" lon="3.57683">
        <ele>63</ele>
        <time>2024-04-06T20:27:36Z</time>
      </trkpt>
      <trkpt lat="43.68914" lon="3.57687">
        <ele>63</ele>
        <time>2024-04-06T20:27:40Z</time>
      </trkpt>
      <trkpt lat="43.68949" lon="3.57698">
        <ele>63</ele>
        <time>2024-04-06T20:27:46Z</time>
      </trkpt>
      <trkpt lat="43.68992" lon="3.57724">
        <ele>63</ele>
        <time>2024-04-06T20:27:54Z</time>
      </trkpt>
      <trkpt lat="43.69033" lon="3.57762">
        <ele>62</ele>
        <time>2024-04-06T20:28:03Z</time>
      </trkpt>
      <trkpt lat="43.69062" lon="3.57805">
        <ele>62</ele>
        <time>2024-04-06T20:28:11Z</time>
      </trkpt>
      <trkpt lat="43.69074" lon="3.57828">
        <ele>63</ele>
        <time>2024-04-06T20:28:14Z</time>
      </trkpt>
      <trkpt lat="43.69091" lon="3.57866">
        <ele>63</ele>
        <time>2024-04-06T20:28:20Z</time>
      </trkpt>
      <trkpt lat="43.69186" lon="3.58124">
        <ele>60</ele>
        <time>2024-04-06T20:28:57Z</time>
      </trkpt>
      <trkpt lat="43.69201" lon="3.58159">
        <ele>60</ele>
        <time>2024-04-06T20:29:03Z</time>
      </trkpt>
      <trkpt lat="43.69205" lon="3.58195">
        <ele>61</ele>
        <time>2024-04-06T20:29:07Z</time>
      </trkpt>
      <trkpt lat="43.69202" lon="3.58208">
        <ele>61</ele>
        <time>2024-04-06T20:29:09Z</time>
      </trkpt>
      <trkpt lat="43.69204" lon="3.58218">
        <ele>61</ele>
        <time>2024-04-06T20:29:10Z</time>
      </trkpt>
      <trkpt lat="43.69209" lon="3.58225">
        <ele>61</ele>
        <time>2024-04-06T20:29:12Z</time>
      </trkpt>
      <trkpt lat="43.69216" lon="3.58228">
        <ele>61</ele>
        <time>2024-04-06T20:29:13Z</time>
      </trkpt>
      <trkpt lat="43.69224" lon="3.5824">
        <ele>61</ele>
        <time>2024-04-06T20:29:15Z</time>
      </trkpt>
      <trkpt lat="43.69232" lon="3.58258">
        <ele>62</ele>
        <time>2024-04-06T20:29:18Z</time>
      </trkpt>
      <trkpt lat="43.69242" lon="3.58298">
        <ele>63</ele>
        <time>2024-04-06T20:29:23Z</time>
      </trkpt>
      <trkpt lat="43.69247" lon="3.58331">
        <ele>65</ele>
        <time>2024-04-06T20:29:28Z</time>
      </trkpt>
      <trkpt lat="43.69247" lon="3.58438">
        <ele>65</ele>
        <time>2024-04-06T20:29:41Z</time>
      </trkpt>
      <trkpt lat="43.69245" lon="3.58485">
        <ele>67</ele>
        <time>2024-04-06T20:29:47Z</time>
      </trkpt>
      <trkpt lat="43.69248" lon="3.5853">
        <ele>68</ele>
        <time>2024-04-06T20:29:53Z</time>
      </trkpt>
      <trkpt lat="43.69253" lon="3.58551">
        <ele>69</ele>
        <time>2024-04-06T20:29:56Z</time>
      </trkpt>
      <trkpt lat="43.6926" lon="3.58571">
        <ele>70</ele>
        <time>2024-04-06T20:29:59Z</time>
      </trkpt>
      <trkpt lat="43.69274" lon="3.58597">
        <ele>70</ele>
        <time>2024-04-06T20:30:03Z</time>
      </trkpt>
      <trkpt lat="43.69291" lon="3.5862">
        <ele>71</ele>
        <time>2024-04-06T20:30:07Z</time>
      </trkpt>
      <trkpt lat="43.69304" lon="3.58634">
        <ele>71</ele>
        <time>2024-04-06T20:30:10Z</time>
      </trkpt>
      <trkpt lat="43.69316" lon="3.58646">
        <ele>71</ele>
        <time>2024-04-06T20:30:13Z</time>
      </trkpt>
      <trkpt lat="43.6939" lon="3.58729">
        <ele>78</ele>
        <time>2024-04-06T20:30:30Z</time>
      </trkpt>
      <trkpt lat="43.69508" lon="3.5885">
        <ele>84</ele>
        <time>2024-04-06T20:30:56Z</time>
      </trkpt>
      <trkpt lat="43.69655" lon="3.59015">
        <ele>88</ele>
        <time>2024-04-06T20:31:30Z</time>
      </trkpt>
      <trkpt lat="43.69698" lon="3.5905">
        <ele>92</ele>
        <time>2024-04-06T20:31:39Z</time>
      </trkpt>
      <trkpt lat="43.69847" lon="3.5912">
        <ele>100</ele>
        <time>2024-04-06T20:32:07Z</time>
      </trkpt>
      <trkpt lat="43.69887" lon="3.59144">
        <ele>102</ele>
        <time>2024-04-06T20:32:14Z</time>
      </trkpt>
      <trkpt lat="43.70288" lon="3.59471">
        <ele>121</ele>
        <time>2024-04-06T20:33:37Z</time>
      </trkpt>
      <trkpt lat="43.70323" lon="3.59508">
        <ele>124</ele>
        <time>2024-04-06T20:33:45Z</time>
      </trkpt>
      <trkpt lat="43.70349" lon="3.59544">
        <ele>126</ele>
        <time>2024-04-06T20:33:52Z</time>
      </trkpt>
      <trkpt lat="43.70519" lon="3.59853">
        <ele>135</ele>
        <time>2024-04-06T20:34:41Z</time>
      </trkpt>
      <trkpt lat="43.70731" lon="3.60234">
        <ele>152</ele>
        <time>2024-04-06T20:35:43Z</time>
      </trkpt>
      <trkpt lat="43.70838" lon="3.6036">
        <ele>151</ele>
        <time>2024-04-06T20:36:08Z</time>
      </trkpt>
      <trkpt lat="43.70925" lon="3.60458">
        <ele>151</ele>
        <time>2024-04-06T20:36:28Z</time>
      </trkpt>
      <trkpt lat="43.70945" lon="3.60477">
        <ele>152</ele>
        <time>2024-04-06T20:36:33Z</time>
      </trkpt>
      <trkpt lat="43.70979" lon="3.60505">
        <ele>152</ele>
        <time>2024-04-06T20:36:40Z</time>
      </trkpt>
      <trkpt lat="43.71002" lon="3.60527">
        <ele>151</ele>
        <time>2024-04-06T20:36:45Z</time>
      </trkpt>
      <trkpt lat="43.71017" lon="3.60549">
        <ele>150</ele>
        <time>2024-04-06T20:36:48Z</time>
      </trkpt>
      <trkpt lat="43.71063" lon="3.6063">
        <ele>146</ele>
        <time>2024-04-06T20:37:02Z</time>
      </trkpt>
      <trkpt lat="43.71093" lon="3.60689">
        <ele>143</ele>
        <time>2024-04-06T20:37:11Z</time>
      </trkpt>
      <trkpt lat="43.71159" lon="3.60839">
        <ele>139</ele>
        <time>2024-04-06T20:37:34Z</time>
      </trkpt>
      <trkpt lat="43.71221" lon="3.60917">
        <ele>144</ele>
        <time>2024-04-06T20:37:49Z</time>
      </trkpt>
      <trkpt lat="43.71243" lon="3.60948">
        <ele>145</ele>
        <time>2024-04-06T20:37:54Z</time>
      </trkpt>
      <trkpt lat="43.71255" lon="3.60972">
        <ele>145</ele>
        <time>2024-04-06T20:37:58Z</time>
      </trkpt>
      <trkpt lat="43.71346" lon="3.61199">
        <ele>157</ele>
        <time>2024-04-06T20:38:31Z</time>
      </trkpt>
      <trkpt lat="43.7135" lon="3.61216">
        <ele>157</ele>
        <time>2024-04-06T20:38:34Z</time>
      </trkpt>
      <trkpt lat="43.7135" lon="3.61248">
        <ele>159</ele>
        <time>2024-04-06T20:38:38Z</time>
      </trkpt>
      <trkpt lat="43.71349" lon="3.61258">
        <ele>159</ele>
        <time>2024-04-06T20:38:39Z</time>
      </trkpt>
      <trkpt lat="43.71345" lon="3.61272">
        <ele>160</ele>
        <time>2024-04-06T20:38:41Z</time>
      </trkpt>
      <trkpt lat="43.71316" lon="3.61328">
        <ele>163</ele>
        <time>2024-04-06T20:38:50Z</time>
      </trkpt>
      <trkpt lat="43.71282" lon="3.61385">
        <ele>166</ele>
        <time>2024-04-06T20:38:59Z</time>
      </trkpt>
      <trkpt lat="43.71274" lon="3.61396">
        <ele>167</ele>
        <time>2024-04-06T20:39:01Z</time>
      </trkpt>
      <trkpt lat="43.71275" lon="3.61399">
        <ele>167</ele>
        <time>2024-04-06T20:39:02Z</time>
      </trkpt>
      <trkpt lat="43.71275" lon="3.61409">
        <ele>168</ele>
        <time>2024-04-06T20:39:03Z</time>
      </trkpt>
      <trkpt lat="43.71257" lon="3.61477">
        <ele>173</ele>
        <time>2024-04-06T20:39:12Z</time>
      </trkpt>
      <trkpt lat="43.71256" lon="3.61489">
        <ele>174</ele>
        <time>2024-04-06T20:39:14Z</time>
      </trkpt>
      <trkpt lat="43.71258" lon="3.61502">
        <ele>175</ele>
        <time>2024-04-06T20:39:16Z</time>
      </trkpt>
      <trkpt lat="43.7127" lon="3.61532">
        <ele>174</ele>
        <time>2024-04-06T20:39:20Z</time>
      </trkpt>
      <trkpt lat="43.71305" lon="3.61576">
        <ele>175</ele>
        <time>2024-04-06T20:39:28Z</time>
      </trkpt>
      <trkpt lat="43.71324" lon="3.61595">
        <ele>174</ele>
        <time>2024-04-06T20:39:33Z</time>
      </trkpt>
      <trkpt lat="43.7134" lon="3.61608">
        <ele>174</ele>
        <time>2024-04-06T20:39:36Z</time>
      </trkpt>
      <trkpt lat="43.71358" lon="3.6163">
        <ele>173</ele>
        <time>2024-04-06T20:39:40Z</time>
      </trkpt>
      <trkpt lat="43.71363" lon="3.6164">
        <ele>172</ele>
        <time>2024-04-06T20:39:42Z</time>
      </trkpt>
      <trkpt lat="43.71423" lon="3.61637">
        <ele>173</ele>
        <time>2024-04-06T20:39:52Z</time>
      </trkpt>
      <trkpt lat="43.71451" lon="3.61649">
        <ele>173</ele>
        <time>2024-04-06T20:39:58Z</time>
      </trkpt>
      <trkpt lat="43.7146" lon="3.61656">
        <ele>172</ele>
        <time>2024-04-06T20:39:59Z</time>
      </trkpt>
      <trkpt lat="43.71466" lon="3.61669">
        <ele>172</ele>
        <time>2024-04-06T20:40:01Z</time>
      </trkpt>
      <trkpt lat="43.71494" lon="3.61796">
        <ele>167</ele>
        <time>2024-04-06T20:40:18Z</time>
      </trkpt>
      <trkpt lat="43.71498" lon="3.6182">
        <ele>165</ele>
        <time>2024-04-06T20:40:22Z</time>
      </trkpt>
      <trkpt lat="43.71436" lon="3.6198">
        <ele>160</ele>
        <time>2024-04-06T20:40:45Z</time>
      </trkpt>
      <trkpt lat="43.71419" lon="3.62023">
        <ele>161</ele>
        <time>2024-04-06T20:40:51Z</time>
      </trkpt>
      <trkpt lat="43.71393" lon="3.62095">
        <ele>163</ele>
        <time>2024-04-06T20:41:02Z</time>
      </trkpt>
      <trkpt lat="43.71394" lon="3.62119">
        <ele>165</ele>
        <time>2024-04-06T20:41:05Z</time>
      </trkpt>
      <trkpt lat="43.71399" lon="3.6214">
        <ele>167</ele>
        <time>2024-04-06T20:41:08Z</time>
      </trkpt>
      <trkpt lat="43.71399" lon="3.62151">
        <ele>168</ele>
        <time>2024-04-06T20:41:09Z</time>
      </trkpt>
      <trkpt lat="43.71397" lon="3.62173">
        <ele>169</ele>
        <time>2024-04-06T20:41:12Z</time>
      </trkpt>
      <trkpt lat="43.71371" lon="3.62336">
        <ele>180</ele>
        <time>2024-04-06T20:41:33Z</time>
      </trkpt>
      <trkpt lat="43.7137" lon="3.62351">
        <ele>182</ele>
        <time>2024-04-06T20:41:35Z</time>
      </trkpt>
      <trkpt lat="43.71377" lon="3.62377">
        <ele>183</ele>
        <time>2024-04-06T20:41:39Z</time>
      </trkpt>
      <trkpt lat="43.71388" lon="3.62394">
        <ele>184</ele>
        <time>2024-04-06T20:41:42Z</time>
      </trkpt>
      <trkpt lat="43.714" lon="3.62398">
        <ele>183</ele>
        <time>2024-04-06T20:41:44Z</time>
      </trkpt>
      <trkpt lat="43.7141" lon="3.62398">
        <ele>182</ele>
        <time>2024-04-06T20:41:46Z</time>
      </trkpt>
      <trkpt lat="43.71419" lon="3.62395">
        <ele>182</ele>
        <time>2024-04-06T20:41:47Z</time>
      </trkpt>
      <trkpt lat="43.71437" lon="3.6238">
        <ele>183</ele>
        <time>2024-04-06T20:41:51Z</time>
      </trkpt>
      <trkpt lat="43.71478" lon="3.62322">
        <ele>185</ele>
        <time>2024-04-06T20:42:02Z</time>
      </trkpt>
      <trkpt lat="43.71493" lon="3.62307">
        <ele>186</ele>
        <time>2024-04-06T20:42:05Z</time>
      </trkpt>
      <trkpt lat="43.71515" lon="3.62285">
        <ele>186</ele>
        <time>2024-04-06T20:42:10Z</time>
      </trkpt>
      <trkpt lat="43.71534" lon="3.62272">
        <ele>187</ele>
        <time>2024-04-06T20:42:13Z</time>
      </trkpt>
      <trkpt lat="43.71549" lon="3.62265">
        <ele>187</ele>
        <time>2024-04-06T20:42:16Z</time>
      </trkpt>
      <trkpt lat="43.71567" lon="3.62261">
        <ele>188</ele>
        <time>2024-04-06T20:42:20Z</time>
      </trkpt>
      <trkpt lat="43.71586" lon="3.62259">
        <ele>189</ele>
        <time>2024-04-06T20:42:23Z</time>
      </trkpt>
      <trkpt lat="43.71744" lon="3.62272">
        <ele>198</ele>
        <time>2024-04-06T20:42:51Z</time>
      </trkpt>
      <trkpt lat="43.71763" lon="3.62277">
        <ele>200</ele>
        <time>2024-04-06T20:42:54Z</time>
      </trkpt>
      <trkpt lat="43.71777" lon="3.62283">
        <ele>201</ele>
        <time>2024-04-06T20:42:57Z</time>
      </trkpt>
      <trkpt lat="43.71813" lon="3.62305">
        <ele>204</ele>
        <time>2024-04-06T20:43:04Z</time>
      </trkpt>
      <trkpt lat="43.71866" lon="3.62351">
        <ele>211</ele>
        <time>2024-04-06T20:43:15Z</time>
      </trkpt>
      <trkpt lat="43.71893" lon="3.62367">
        <ele>212</ele>
        <time>2024-04-06T20:43:20Z</time>
      </trkpt>
      <trkpt lat="43.72" lon="3.62416">
        <ele>217</ele>
        <time>2024-04-06T20:43:41Z</time>
      </trkpt>
      <trkpt lat="43.72029" lon="3.62431">
        <ele>218</ele>
        <time>2024-04-06T20:43:46Z</time>
      </trkpt>
      <trkpt lat="43.72047" lon="3.62444">
        <ele>219</ele>
        <time>2024-04-06T20:43:50Z</time>
      </trkpt>
      <trkpt lat="43.72067" lon="3.6246">
        <ele>220</ele>
        <time>2024-04-06T20:43:54Z</time>
      </trkpt>
      <trkpt lat="43.72091" lon="3.62485">
        <ele>222</ele>
        <time>2024-04-06T20:43:59Z</time>
      </trkpt>
      <trkpt lat="43.72116" lon="3.62518">
        <ele>223</ele>
        <time>2024-04-06T20:44:05Z</time>
      </trkpt>
      <trkpt lat="43.72133" lon="3.62545">
        <ele>224</ele>
        <time>2024-04-06T20:44:10Z</time>
      </trkpt>
      <trkpt lat="43.72168" lon="3.62615">
        <ele>227</ele>
        <time>2024-04-06T20:44:21Z</time>
      </trkpt>
      <trkpt lat="43.72182" lon="3.62639">
        <ele>229</ele>
        <time>2024-04-06T20:44:25Z</time>
      </trkpt>
      <trkpt lat="43.72203" lon="3.62663">
        <ele>230</ele>
        <time>2024-04-06T20:44:30Z</time>
      </trkpt>
      <trkpt lat="43.72253" lon="3.62708">
        <ele>235</ele>
        <time>2024-04-06T20:44:40Z</time>
      </trkpt>
      <trkpt lat="43.7232" lon="3.62772">
        <ele>239</ele>
        <time>2024-04-06T20:44:55Z</time>
      </trkpt>
      <trkpt lat="43.72362" lon="3.62808">
        <ele>243</ele>
        <time>2024-04-06T20:45:03Z</time>
      </trkpt>
      <trkpt lat="43.7239" lon="3.62823">
        <ele>245</ele>
        <time>2024-04-06T20:45:09Z</time>
      </trkpt>
      <trkpt lat="43.72409" lon="3.62828">
        <ele>245</ele>
        <time>2024-04-06T20:45:12Z</time>
      </trkpt>
      <trkpt lat="43.72458" lon="3.62832">
        <ele>246</ele>
        <time>2024-04-06T20:45:21Z</time>
      </trkpt>
      <trkpt lat="43.7247" lon="3.62836">
        <ele>247</ele>
        <time>2024-04-06T20:45:23Z</time>
      </trkpt>
      <trkpt lat="43.72498" lon="3.62851">
        <ele>251</ele>
        <time>2024-04-06T20:45:29Z</time>
      </trkpt>
      <trkpt lat="43.72509" lon="3.6286">
        <ele>252</ele>
        <time>2024-04-06T20:45:31Z</time>
      </trkpt>
      <trkpt lat="43.72535" lon="3.62894">
        <ele>255</ele>
        <time>2024-04-06T20:45:37Z</time>
      </trkpt>
      <trkpt lat="43.72545" lon="3.62913">
        <ele>256</ele>
        <time>2024-04-06T20:45:40Z</time>
      </trkpt>
      <trkpt lat="43.72594" lon="3.63023">
        <ele>264</ele>
        <time>2024-04-06T20:45:57Z</time>
      </trkpt>
      <trkpt lat="43.72621" lon="3.63064">
        <ele>267</ele>
        <time>2024-04-06T20:46:04Z</time>
      </trkpt>
      <trkpt lat="43.72637" lon="3.63084">
        <ele>268</ele>
        <time>2024-04-06T20:46:08Z</time>
      </trkpt>
      <trkpt lat="43.72723" lon="3.63175">
        <ele>278</ele>
        <time>2024-04-06T20:46:27Z</time>
      </trkpt>
      <trkpt lat="43.7275" lon="3.63208">
        <ele>283</ele>
        <time>2024-04-06T20:46:33Z</time>
      </trkpt>
      <trkpt lat="43.7278" lon="3.63255">
        <ele>290</ele>
        <time>2024-04-06T20:46:42Z</time>
      </trkpt>
      <trkpt lat="43.72799" lon="3.63293">
        <ele>292</ele>
        <time>2024-04-06T20:46:47Z</time>
      </trkpt>
      <trkpt lat="43.72813" lon="3.63324">
        <ele>293</ele>
        <time>2024-04-06T20:46:52Z</time>
      </trkpt>
      <trkpt lat="43.72889" lon="3.63507">
        <ele>298</ele>
        <time>2024-04-06T20:47:19Z</time>
      </trkpt>
      <trkpt lat="43.729" lon="3.63552">
        <ele>299</ele>
        <time>2024-04-06T20:47:25Z</time>
      </trkpt>
      <trkpt lat="43.72903" lon="3.63575">
        <ele>299</ele>
        <time>2024-04-06T20:47:28Z</time>
      </trkpt>
      <trkpt lat="43.72904" lon="3.63599">
        <ele>299</ele>
        <time>2024-04-06T20:47:32Z</time>
      </trkpt>
      <trkpt lat="43.72903" lon="3.63632">
        <ele>299</ele>
        <time>2024-04-06T20:47:36Z</time>
      </trkpt>
      <trkpt lat="43.72896" lon="3.63689">
        <ele>299</ele>
        <time>2024-04-06T20:47:43Z</time>
      </trkpt>
      <trkpt lat="43.72654" lon="3.65059">
        <ele>290</ele>
        <time>2024-04-06T20:50:45Z</time>
      </trkpt>
      <trkpt lat="43.72683" lon="3.65826">
        <ele>286</ele>
        <time>2024-04-06T20:52:23Z</time>
      </trkpt>
      <trkpt lat="43.72702" lon="3.66305">
        <ele>293</ele>
        <time>2024-04-06T20:53:25Z</time>
      </trkpt>
      <trkpt lat="43.7271" lon="3.66554">
        <ele>297</ele>
        <time>2024-04-06T20:53:57Z</time>
      </trkpt>
      <trkpt lat="43.72723" lon="3.66662">
        <ele>299</ele>
        <time>2024-04-06T20:54:11Z</time>
      </trkpt>
      <trkpt lat="43.72767" lon="3.67168">
        <ele>285</ele>
        <time>2024-04-06T20:55:17Z</time>
      </trkpt>
      <trkpt lat="43.72782" lon="3.6728">
        <ele>284</ele>
        <time>2024-04-06T20:55:31Z</time>
      </trkpt>
      <trkpt lat="43.7279" lon="3.6733">
        <ele>283</ele>
        <time>2024-04-06T20:55:38Z</time>
      </trkpt>
      <trkpt lat="43.7281" lon="3.67415">
        <ele>281</ele>
        <time>2024-04-06T20:55:49Z</time>
      </trkpt>
      <trkpt lat="43.7283" lon="3.67482">
        <ele>281</ele>
        <time>2024-04-06T20:55:59Z</time>
      </trkpt>
      <trkpt lat="43.7285" lon="3.67537">
        <ele>282</ele>
        <time>2024-04-06T20:56:07Z</time>
      </trkpt>
      <trkpt lat="43.72974" lon="3.67838">
        <ele>287</ele>
        <time>2024-04-06T20:56:51Z</time>
      </trkpt>
      <trkpt lat="43.73151" lon="3.68277">
        <ele>284</ele>
        <time>2024-04-06T20:57:56Z</time>
      </trkpt>
      <trkpt lat="43.73175" lon="3.68386">
        <ele>284</ele>
        <time>2024-04-06T20:58:10Z</time>
      </trkpt>
      <trkpt lat="43.73181" lon="3.68435">
        <ele>282</ele>
        <time>2024-04-06T20:58:17Z</time>
      </trkpt>
      <trkpt lat="43.73183" lon="3.68473">
        <ele>281</ele>
        <time>2024-04-06T20:58:22Z</time>
      </trkpt>
      <trkpt lat="43.73187" lon="3.68503">
        <ele>280</ele>
        <time>2024-04-06T20:58:26Z</time>
      </trkpt>
      <trkpt lat="43.73199" lon="3.68553">
        <ele>280</ele>
        <time>2024-04-06T20:58:32Z</time>
      </trkpt>
      <trkpt lat="43.73267" lon="3.68773">
        <ele>273</ele>
        <time>2024-04-06T20:59:03Z</time>
      </trkpt>
      <trkpt lat="43.73289" lon="3.6883">
        <ele>271</ele>
        <time>2024-04-06T20:59:11Z</time>
      </trkpt>
      <trkpt lat="43.73303" lon="3.68858">
        <ele>269</ele>
        <time>2024-04-06T20:59:16Z</time>
      </trkpt>
      <trkpt lat="43.73322" lon="3.6889">
        <ele>267</ele>
        <time>2024-04-06T20:59:21Z</time>
      </trkpt>
      <trkpt lat="43.73417" lon="3.69026">
        <ele>262</ele>
        <time>2024-04-06T20:59:46Z</time>
      </trkpt>
      <trkpt lat="43.73485" lon="3.69121">
        <ele>262</ele>
        <time>2024-04-06T21:00:03Z</time>
      </trkpt>
      <trkpt lat="43.73514" lon="3.69151">
        <ele>262</ele>
        <time>2024-04-06T21:00:09Z</time>
      </trkpt>
      <trkpt lat="43.73534" lon="3.69168">
        <ele>262</ele>
        <time>2024-04-06T21:00:13Z</time>
      </trkpt>
      <trkpt lat="43.73633" lon="3.69239">
        <ele>258</ele>
        <time>2024-04-06T21:00:33Z</time>
      </trkpt>
      <trkpt lat="43.73667" lon="3.69261">
        <ele>257</ele>
        <time>2024-04-06T21:00:40Z</time>
      </trkpt>
      <trkpt lat="43.73694" lon="3.69274">
        <ele>256</ele>
        <time>2024-04-06T21:00:45Z</time>
      </trkpt>
      <trkpt lat="43.73725" lon="3.69285">
        <ele>255</ele>
        <time>2024-04-06T21:00:51Z</time>
      </trkpt>
      <trkpt lat="43.73774" lon="3.69288">
        <ele>255</ele>
        <time>2024-04-06T21:00:59Z</time>
      </trkpt>
      <trkpt lat="43.73905" lon="3.69277">
        <ele>255</ele>
        <time>2024-04-06T21:01:23Z</time>
      </trkpt>
      <trkpt lat="43.73935" lon="3.69279">
        <ele>255</ele>
        <time>2024-04-06T21:01:28Z</time>
      </trkpt>
      <trkpt lat="43.73965" lon="3.69289">
        <ele>255</ele>
        <time>2024-04-06T21:01:34Z</time>
      </trkpt>
      <trkpt lat="43.73978" lon="3.69297">
        <ele>255</ele>
        <time>2024-04-06T21:01:36Z</time>
      </trkpt>
      <trkpt lat="43.74004" lon="3.6932">
        <ele>255</ele>
        <time>2024-04-06T21:01:42Z</time>
      </trkpt>
      <trkpt lat="43.74022" lon="3.69346">
        <ele>255</ele>
        <time>2024-04-06T21:01:46Z</time>
      </trkpt>
      <trkpt lat="43.74039" lon="3.69385">
        <ele>254</ele>
        <time>2024-04-06T21:01:52Z</time>
      </trkpt>
      <trkpt lat="43.74084" lon="3.6952">
        <ele>258</ele>
        <time>2024-04-06T21:02:11Z</time>
      </trkpt>
      <trkpt lat="43.74156" lon="3.69749">
        <ele>254</ele>
        <time>2024-04-06T21:02:43Z</time>
      </trkpt>
      <trkpt lat="43.74163" lon="3.69776">
        <ele>254</ele>
        <time>2024-04-06T21:02:47Z</time>
      </trkpt>
      <trkpt lat="43.74177" lon="3.69844">
        <ele>254</ele>
        <time>2024-04-06T21:02:56Z</time>
      </trkpt>
      <trkpt lat="43.74206" lon="3.70168">
        <ele>255</ele>
        <time>2024-04-06T21:03:38Z</time>
      </trkpt>
      <trkpt lat="43.74214" lon="3.70195">
        <ele>256</ele>
        <time>2024-04-06T21:03:42Z</time>
      </trkpt>
      <trkpt lat="43.7424" lon="3.70258">
        <ele>257</ele>
        <time>2024-04-06T21:03:51Z</time>
      </trkpt>
      <trkpt lat="43.74254" lon="3.70289">
        <ele>259</ele>
        <time>2024-04-06T21:03:56Z</time>
      </trkpt>
      <trkpt lat="43.74296" lon="3.70351">
        <ele>261</ele>
        <time>2024-04-06T21:04:07Z</time>
      </trkpt>
      <trkpt lat="43.74318" lon="3.7041">
        <ele>263</ele>
        <time>2024-04-06T21:04:15Z</time>
      </trkpt>
      <trkpt lat="43.74331" lon="3.70428">
        <ele>263</ele>
        <time>2024-04-06T21:04:18Z</time>
      </trkpt>
      <trkpt lat="43.74466" lon="3.70563">
        <ele>257</ele>
        <time>2024-04-06T21:04:48Z</time>
      </trkpt>
      <trkpt lat="43.74475" lon="3.7059">
        <ele>256</ele>
        <time>2024-04-06T21:04:52Z</time>
      </trkpt>
      <trkpt lat="43.74494" lon="3.70711">
        <ele>252</ele>
        <time>2024-04-06T21:05:08Z</time>
      </trkpt>
      <trkpt lat="43.74502" lon="3.70744">
        <ele>251</ele>
        <time>2024-04-06T21:05:12Z</time>
      </trkpt>
      <trkpt lat="43.7451" lon="3.70767">
        <ele>250</ele>
        <time>2024-04-06T21:05:16Z</time>
      </trkpt>
      <trkpt lat="43.74522" lon="3.70788">
        <ele>249</ele>
        <time>2024-04-06T21:05:19Z</time>
      </trkpt>
      <trkpt lat="43.74541" lon="3.70814">
        <ele>247</ele>
        <time>2024-04-06T21:05:24Z</time>
      </trkpt>
      <trkpt lat="43.7517" lon="3.71439">
        <ele>243</ele>
        <time>2024-04-06T21:07:42Z</time>
      </trkpt>
      <trkpt lat="43.75318" lon="3.71592">
        <ele>247</ele>
        <time>2024-04-06T21:08:14Z</time>
      </trkpt>
      <trkpt lat="43.75448" lon="3.71719">
        <ele>250</ele>
        <time>2024-04-06T21:08:43Z</time>
      </trkpt>
      <trkpt lat="43.75498" lon="3.71755">
        <ele>252</ele>
        <time>2024-04-06T21:08:53Z</time>
      </trkpt>
      <trkpt lat="43.75572" lon="3.71803">
        <ele>249</ele>
        <time>2024-04-06T21:09:07Z</time>
      </trkpt>
      <trkpt lat="43.75593" lon="3.71817">
        <ele>249</ele>
        <time>2024-04-06T21:09:11Z</time>
      </trkpt>
      <trkpt lat="43.75996" lon="3.72064">
        <ele>256</ele>
        <time>2024-04-06T21:10:30Z</time>
      </trkpt>
      <trkpt lat="43.76916" lon="3.72545">
        <ele>258</ele>
        <time>2024-04-06T21:13:25Z</time>
      </trkpt>
      <trkpt lat="43.76949" lon="3.72552">
        <ele>258</ele>
        <time>2024-04-06T21:13:31Z</time>
      </trkpt>
      <trkpt lat="43.76993" lon="3.72557">
        <ele>259</ele>
        <time>2024-04-06T21:13:39Z</time>
      </trkpt>
      <trkpt lat="43.77032" lon="3.72556">
        <ele>258</ele>
        <time>2024-04-06T21:13:46Z</time>
      </trkpt>
      <trkpt lat="43.77065" lon="3.72547">
        <ele>257</ele>
        <time>2024-04-06T21:13:52Z</time>
      </trkpt>
      <trkpt lat="43.77166" lon="3.72493">
        <ele>246</ele>
        <time>2024-04-06T21:14:11Z</time>
      </trkpt>
      <trkpt lat="43.77178" lon="3.72483">
        <ele>246</ele>
        <time>2024-04-06T21:14:13Z</time>
      </trkpt>
      <trkpt lat="43.77189" lon="3.72471">
        <ele>246</ele>
        <time>2024-04-06T21:14:16Z</time>
      </trkpt>
      <trkpt lat="43.77197" lon="3.72457">
        <ele>246</ele>
        <time>2024-04-06T21:14:18Z</time>
      </trkpt>
      <trkpt lat="43.77211" lon="3.72424">
        <ele>245</ele>
        <time>2024-04-06T21:14:23Z</time>
      </trkpt>
      <trkpt lat="43.7727" lon="3.72121">
        <ele>230</ele>
        <time>2024-04-06T21:15:03Z</time>
      </trkpt>
      <trkpt lat="43.77281" lon="3.72094">
        <ele>228</ele>
        <time>2024-04-06T21:15:07Z</time>
      </trkpt>
      <trkpt lat="43.77289" lon="3.72082">
        <ele>226</ele>
        <time>2024-04-06T21:15:09Z</time>
      </trkpt>
      <trkpt lat="43.77299" lon="3.72074">
        <ele>225</ele>
        <time>2024-04-06T21:15:11Z</time>
      </trkpt>
      <trkpt lat="43.77322" lon="3.72066">
        <ele>221</ele>
        <time>2024-04-06T21:15:16Z</time>
      </trkpt>
      <trkpt lat="43.77386" lon="3.72062">
        <ele>218</ele>
        <time>2024-04-06T21:15:27Z</time>
      </trkpt>
      <trkpt lat="43.7745" lon="3.72061">
        <ele>217</ele>
        <time>2024-04-06T21:15:39Z</time>
      </trkpt>
      <trkpt lat="43.77466" lon="3.72066">
        <ele>217</ele>
        <time>2024-04-06T21:15:41Z</time>
      </trkpt>
      <trkpt lat="43.77498" lon="3.72083">
        <ele>215</ele>
        <time>2024-04-06T21:15:48Z</time>
      </trkpt>
      <trkpt lat="43.77639" lon="3.72171">
        <ele>215</ele>
        <time>2024-04-06T21:16:15Z</time>
      </trkpt>
      <trkpt lat="43.78035" lon="3.7247">
        <ele>208</ele>
        <time>2024-04-06T21:17:35Z</time>
      </trkpt>
      <trkpt lat="43.7813" lon="3.72546">
        <ele>206</ele>
        <time>2024-04-06T21:17:55Z</time>
      </trkpt>
      <trkpt lat="43.78288" lon="3.72695">
        <ele>202</ele>
        <time>2024-04-06T21:18:29Z</time>
      </trkpt>
      <trkpt lat="43.78287" lon="3.727">
        <ele>202</ele>
        <time>2024-04-06T21:18:29Z</time>
      </trkpt>
      <trkpt lat="43.78288" lon="3.72705">
        <ele>201</ele>
        <time>2024-04-06T21:18:30Z</time>
      </trkpt>
      <trkpt lat="43.78291" lon="3.7271">
        <ele>201</ele>
        <time>2024-04-06T21:18:31Z</time>
      </trkpt>
      <trkpt lat="43.78296" lon="3.72711">
        <ele>201</ele>
        <time>2024-04-06T21:18:32Z</time>
      </trkpt>
      <trkpt lat="43.78301" lon="3.72707">
        <ele>201</ele>
        <time>2024-04-06T21:18:33Z</time>
      </trkpt>
      <trkpt lat="43.78682" lon="3.73065">
        <ele>196</ele>
        <time>2024-04-06T21:19:55Z</time>
      </trkpt>
      <trkpt lat="43.78767" lon="3.73146">
        <ele>197</ele>
        <time>2024-04-06T21:20:13Z</time>
      </trkpt>
      <trkpt lat="43.78836" lon="3.73208">
        <ele>196</ele>
        <time>2024-04-06T21:20:28Z</time>
      </trkpt>
      <trkpt lat="43.78837" lon="3.7323">
        <ele>195</ele>
        <time>2024-04-06T21:20:31Z</time>
      </trkpt>
      <trkpt lat="43.7884" lon="3.73226">
        <ele>195</ele>
        <time>2024-04-06T21:20:31Z</time>
      </trkpt>
      <trkpt lat="43.78847" lon="3.73223">
        <ele>195</ele>
        <time>2024-04-06T21:20:33Z</time>
      </trkpt>
      <trkpt lat="43.78863" lon="3.73223">
        <ele>195</ele>
        <time>2024-04-06T21:20:36Z</time>
      </trkpt>
      <trkpt lat="43.79037" lon="3.7326">
        <ele>191</ele>
        <time>2024-04-06T21:21:07Z</time>
      </trkpt>
      <trkpt lat="43.79085" lon="3.7326">
        <ele>192</ele>
        <time>2024-04-06T21:21:15Z</time>
      </trkpt>
      <trkpt lat="43.7909" lon="3.73311">
        <ele>190</ele>
        <time>2024-04-06T21:21:22Z</time>
      </trkpt>
      <trkpt lat="43.79092" lon="3.73323">
        <ele>190</ele>
        <time>2024-04-06T21:21:24Z</time>
      </trkpt>
      <trkpt lat="43.79091" lon="3.73334">
        <ele>190</ele>
        <time>2024-04-06T21:21:25Z</time>
      </trkpt>
      <trkpt lat="43.79088" lon="3.73345">
        <ele>190</ele>
        <time>2024-04-06T21:21:27Z</time>
      </trkpt>
      <trkpt lat="43.79041" lon="3.73436">
        <ele>189</ele>
        <time>2024-04-06T21:21:41Z</time>
      </trkpt>
      <trkpt lat="43.78985" lon="3.73589">
        <ele>190</ele>
        <time>2024-04-06T21:22:03Z</time>
      </trkpt>
      <trkpt lat="43.78969" lon="3.73601">
        <ele>190</ele>
        <time>2024-04-06T21:22:06Z</time>
      </trkpt>
      <trkpt lat="43.78961" lon="3.73611">
        <ele>190</ele>
        <time>2024-04-06T21:22:08Z</time>
      </trkpt>
      <trkpt lat="43.78946" lon="3.73636">
        <ele>189</ele>
        <time>2024-04-06T21:22:12Z</time>
      </trkpt>
      <trkpt lat="43.78941" lon="3.7364">
        <ele>189</ele>
        <time>2024-04-06T21:22:13Z</time>
      </trkpt>
      <trkpt lat="43.78936" lon="3.73642">
        <ele>189</ele>
        <time>2024-04-06T21:22:14Z</time>
      </trkpt>
      <trkpt lat="43.78928" lon="3.73651">
        <ele>189</ele>
        <time>2024-04-06T21:22:16Z</time>
      </trkpt>
      <trkpt lat="43.78925" lon="3.73663">
        <ele>189</ele>
        <time>2024-04-06T21:22:18Z</time>
      </trkpt>
      <trkpt lat="43.78926" lon="3.73676">
        <ele>189</ele>
        <time>2024-04-06T21:22:19Z</time>
      </trkpt>
      <trkpt lat="43.78932" lon="3.73687">
        <ele>189</ele>
        <time>2024-04-06T21:22:21Z</time>
      </trkpt>
      <trkpt lat="43.78937" lon="3.73702">
        <ele>189</ele>
        <time>2024-04-06T21:22:23Z</time>
      </trkpt>
      <trkpt lat="43.78939" lon="3.73719">
        <ele>189</ele>
        <time>2024-04-06T21:22:25Z</time>
      </trkpt>
      <trkpt lat="43.78939" lon="3.73758">
        <ele>190</ele>
        <time>2024-04-06T21:22:30Z</time>
      </trkpt>
      <trkpt lat="43.78935" lon="3.73832">
        <ele>191</ele>
        <time>2024-04-06T21:22:40Z</time>
      </trkpt>
      <trkpt lat="43.78926" lon="3.73874">
        <ele>191</ele>
        <time>2024-04-06T21:22:46Z</time>
      </trkpt>
      <trkpt lat="43.78919" lon="3.73891">
        <ele>191</ele>
        <time>2024-04-06T21:22:48Z</time>
      </trkpt>
      <trkpt lat="43.78914" lon="3.739">
        <ele>192</ele>
        <time>2024-04-06T21:22:50Z</time>
      </trkpt>
      <trkpt lat="43.78891" lon="3.7393">
        <ele>193</ele>
        <time>2024-04-06T21:22:55Z</time>
      </trkpt>
      <trkpt lat="43.7883" lon="3.7399">
        <ele>195</ele>
        <time>2024-04-06T21:23:09Z</time>
      </trkpt>
      <trkpt lat="43.78805" lon="3.74009">
        <ele>196</ele>
        <time>2024-04-06T21:23:14Z</time>
      </trkpt>
      <trkpt lat="43.78771" lon="3.74024">
        <ele>197</ele>
        <time>2024-04-06T21:23:20Z</time>
      </trkpt>
      <trkpt lat="43.78744" lon="3.7404">
        <ele>197</ele>
        <time>2024-04-06T21:23:25Z</time>
      </trkpt>
      <trkpt lat="43.78724" lon="3.74055">
        <ele>197</ele>
        <time>2024-04-06T21:23:29Z</time>
      </trkpt>
      <trkpt lat="43.78691" lon="3.74092">
        <ele>198</ele>
        <time>2024-04-06T21:23:37Z</time>
      </trkpt>
      <trkpt lat="43.78676" lon="3.74113">
        <ele>199</ele>
        <time>2024-04-06T21:23:41Z</time>
      </trkpt>
      <trkpt lat="43.78666" lon="3.74133">
        <ele>199</ele>
        <time>2024-04-06T21:23:44Z</time>
      </trkpt>
      <trkpt lat="43.78625" lon="3.74234">
        <ele>199</ele>
        <time>2024-04-06T21:23:59Z</time>
      </trkpt>
      <trkpt lat="43.786" lon="3.74304">
        <ele>198</ele>
        <time>2024-04-06T21:24:09Z</time>
      </trkpt>
      <trkpt lat="43.78516" lon="3.74642">
        <ele>199</ele>
        <time>2024-04-06T21:24:55Z</time>
      </trkpt>
      <trkpt lat="43.78501" lon="3.74724">
        <ele>201</ele>
        <time>2024-04-06T21:25:05Z</time>
      </trkpt>
      <trkpt lat="43.78488" lon="3.74819">
        <ele>203</ele>
        <time>2024-04-06T21:25:18Z</time>
      </trkpt>
      <trkpt lat="43.78484" lon="3.74841">
        <ele>203</ele>
        <time>2024-04-06T21:25:21Z</time>
      </trkpt>
      <trkpt lat="43.78478" lon="3.74864">
        <ele>203</ele>
        <time>2024-04-06T21:25:24Z</time>
      </trkpt>
      <trkpt lat="43.7844" lon="3.74948">
        <ele>206</ele>
        <time>2024-04-06T21:25:37Z</time>
      </trkpt>
      <trkpt lat="43.78432" lon="3.74973">
        <ele>205</ele>
        <time>2024-04-06T21:25:40Z</time>
      </trkpt>
      <trkpt lat="43.78428" lon="3.75005">
        <ele>205</ele>
        <time>2024-04-06T21:25:44Z</time>
      </trkpt>
      <trkpt lat="43.78429" lon="3.75039">
        <ele>205</ele>
        <time>2024-04-06T21:25:49Z</time>
      </trkpt>
      <trkpt lat="43.78467" lon="3.75198">
        <ele>203</ele>
        <time>2024-04-06T21:26:10Z</time>
      </trkpt>
      <trkpt lat="43.78479" lon="3.75255">
        <ele>202</ele>
        <time>2024-04-06T21:26:18Z</time>
      </trkpt>
      <trkpt lat="43.7851" lon="3.75439">
        <ele>204</ele>
        <time>2024-04-06T21:26:42Z</time>
      </trkpt>
      <trkpt lat="43.78505" lon="3.75442">
        <ele>204</ele>
        <time>2024-04-06T21:26:43Z</time>
      </trkpt>
      <trkpt lat="43.78501" lon="3.75456">
        <ele>204</ele>
        <time>2024-04-06T21:26:45Z</time>
      </trkpt>
      <trkpt lat="43.78505" lon="3.75442">
        <ele>204</ele>
        <time>2024-04-06T21:26:47Z</time>
      </trkpt>
      <trkpt lat="43.7851" lon="3.75439">
        <ele>204</ele>
        <time>2024-04-06T21:26:48Z</time>
      </trkpt>
      <trkpt lat="43.78524" lon="3.75504">
        <ele>203</ele>
        <time>2024-04-06T21:26:57Z</time>
      </trkpt>
      <trkpt lat="43.7853" lon="3.7556">
        <ele>204</ele>
        <time>2024-04-06T21:27:04Z</time>
      </trkpt>
      <trkpt lat="43.78533" lon="3.75574">
        <ele>204</ele>
        <time>2024-04-06T21:27:06Z</time>
      </trkpt>
      <trkpt lat="43.78575" lon="3.75703">
        <ele>204</ele>
        <time>2024-04-06T21:27:24Z</time>
      </trkpt>
      <trkpt lat="43.78589" lon="3.75743">
        <ele>203</ele>
        <time>2024-04-06T21:27:30Z</time>
      </trkpt>
      <trkpt lat="43.78599" lon="3.75759">
        <ele>202</ele>
        <time>2024-04-06T21:27:32Z</time>
      </trkpt>
      <trkpt lat="43.78612" lon="3.75773">
        <ele>201</ele>
        <time>2024-04-06T21:27:35Z</time>
      </trkpt>
      <trkpt lat="43.78639" lon="3.7579">
        <ele>199</ele>
        <time>2024-04-06T21:27:41Z</time>
      </trkpt>
      <trkpt lat="43.78753" lon="3.75851">
        <ele>194</ele>
        <time>2024-04-06T21:28:02Z</time>
      </trkpt>
      <trkpt lat="43.78832" lon="3.75897">
        <ele>192</ele>
        <time>2024-04-06T21:28:18Z</time>
      </trkpt>
      <trkpt lat="43.7885" lon="3.7591">
        <ele>192</ele>
        <time>2024-04-06T21:28:21Z</time>
      </trkpt>
      <trkpt lat="43.78887" lon="3.7595">
        <ele>191</ele>
        <time>2024-04-06T21:28:30Z</time>
      </trkpt>
      <trkpt lat="43.78929" lon="3.75991">
        <ele>190</ele>
        <time>2024-04-06T21:28:39Z</time>
      </trkpt>
      <trkpt lat="43.78948" lon="3.76007">
        <ele>190</ele>
        <time>2024-04-06T21:28:43Z</time>
      </trkpt>
      <trkpt lat="43.78974" lon="3.76027">
        <ele>190</ele>
        <time>2024-04-06T21:28:48Z</time>
      </trkpt>
      <trkpt lat="43.79008" lon="3.76047">
        <ele>188</ele>
        <time>2024-04-06T21:28:54Z</time>
      </trkpt>
      <trkpt lat="43.79069" lon="3.7608">
        <ele>185</ele>
        <time>2024-04-06T21:29:06Z</time>
      </trkpt>
      <trkpt lat="43.79088" lon="3.76096">
        <ele>185</ele>
        <time>2024-04-06T21:29:10Z</time>
      </trkpt>
      <trkpt lat="43.79117" lon="3.76128">
        <ele>183</ele>
        <time>2024-04-06T21:29:17Z</time>
      </trkpt>
      <trkpt lat="43.79132" lon="3.76149">
        <ele>183</ele>
        <time>2024-04-06T21:29:20Z</time>
      </trkpt>
      <trkpt lat="43.79159" lon="3.76201">
        <ele>182</ele>
        <time>2024-04-06T21:29:29Z</time>
      </trkpt>
      <trkpt lat="43.79209" lon="3.76309">
        <ele>181</ele>
        <time>2024-04-06T21:29:45Z</time>
      </trkpt>
      <trkpt lat="43.79223" lon="3.76343">
        <ele>181</ele>
        <time>2024-04-06T21:29:50Z</time>
      </trkpt>
      <trkpt lat="43.79273" lon="3.76508">
        <ele>183</ele>
        <time>2024-04-06T21:30:13Z</time>
      </trkpt>
      <trkpt lat="43.79295" lon="3.76568">
        <ele>182</ele>
        <time>2024-04-06T21:30:22Z</time>
      </trkpt>
      <trkpt lat="43.79375" lon="3.76771">
        <ele>181</ele>
        <time>2024-04-06T21:30:52Z</time>
      </trkpt>
      <trkpt lat="43.79383" lon="3.76794">
        <ele>181</ele>
        <time>2024-04-06T21:30:55Z</time>
      </trkpt>
      <trkpt lat="43.79395" lon="3.76846">
        <ele>181</ele>
        <time>2024-04-06T21:31:02Z</time>
      </trkpt>
      <trkpt lat="43.79397" lon="3.7687">
        <ele>180</ele>
        <time>2024-04-06T21:31:05Z</time>
      </trkpt>
      <trkpt lat="43.79398" lon="3.76903">
        <ele>179</ele>
        <time>2024-04-06T21:31:09Z</time>
      </trkpt>
      <trkpt lat="43.79399" lon="3.76914">
        <ele>178</ele>
        <time>2024-04-06T21:31:11Z</time>
      </trkpt>
      <trkpt lat="43.79406" lon="3.77009">
        <ele>179</ele>
        <time>2024-04-06T21:31:23Z</time>
      </trkpt>
      <trkpt lat="43.79412" lon="3.77054">
        <ele>181</ele>
        <time>2024-04-06T21:31:29Z</time>
      </trkpt>
      <trkpt lat="43.79507" lon="3.77516">
        <ele>184</ele>
        <time>2024-04-06T21:32:30Z</time>
      </trkpt>
      <trkpt lat="43.79519" lon="3.77581">
        <ele>185</ele>
        <time>2024-04-06T21:32:39Z</time>
      </trkpt>
      <trkpt lat="43.7953" lon="3.77653">
        <ele>187</ele>
        <time>2024-04-06T21:32:49Z</time>
      </trkpt>
      <trkpt lat="43.79533" lon="3.77682">
        <ele>188</ele>
        <time>2024-04-06T21:32:52Z</time>
      </trkpt>
      <trkpt lat="43.79533" lon="3.77705">
        <ele>188</ele>
        <time>2024-04-06T21:32:55Z</time>
      </trkpt>
      <trkpt lat="43.79529" lon="3.77735">
        <ele>189</ele>
        <time>2024-04-06T21:32:59Z</time>
      </trkpt>
      <trkpt lat="43.7949" lon="3.77868">
        <ele>190</ele>
        <time>2024-04-06T21:33:18Z</time>
      </trkpt>
      <trkpt lat="43.79484" lon="3.77895">
        <ele>190</ele>
        <time>2024-04-06T21:33:21Z</time>
      </trkpt>
      <trkpt lat="43.79463" lon="3.7807">
        <ele>191</ele>
        <time>2024-04-06T21:33:44Z</time>
      </trkpt>
      <trkpt lat="43.79461" lon="3.78093">
        <ele>191</ele>
        <time>2024-04-06T21:33:47Z</time>
      </trkpt>
      <trkpt lat="43.79463" lon="3.78134">
        <ele>190</ele>
        <time>2024-04-06T21:33:52Z</time>
      </trkpt>
      <trkpt lat="43.79474" lon="3.78199">
        <ele>188</ele>
        <time>2024-04-06T21:34:01Z</time>
      </trkpt>
      <trkpt lat="43.79475" lon="3.7823">
        <ele>188</ele>
        <time>2024-04-06T21:34:05Z</time>
      </trkpt>
      <trkpt lat="43.79473" lon="3.78255">
        <ele>188</ele>
        <time>2024-04-06T21:34:08Z</time>
      </trkpt>
      <trkpt lat="43.79461" lon="3.78295">
        <ele>188</ele>
        <time>2024-04-06T21:34:14Z</time>
      </trkpt>
      <trkpt lat="43.79451" lon="3.78314">
        <ele>188</ele>
        <time>2024-04-06T21:34:17Z</time>
      </trkpt>
      <trkpt lat="43.79438" lon="3.78334">
        <ele>188</ele>
        <time>2024-04-06T21:34:20Z</time>
      </trkpt>
      <trkpt lat="43.79378" lon="3.784">
        <ele>190</ele>
        <time>2024-04-06T21:34:34Z</time>
      </trkpt>
      <trkpt lat="43.79342" lon="3.78446">
        <ele>190</ele>
        <time>2024-04-06T21:34:42Z</time>
      </trkpt>
      <trkpt lat="43.79311" lon="3.7851">
        <ele>190</ele>
        <time>2024-04-06T21:34:52Z</time>
      </trkpt>
      <trkpt lat="43.79243" lon="3.78703">
        <ele>188</ele>
        <time>2024-04-06T21:35:20Z</time>
      </trkpt>
      <trkpt lat="43.79235" lon="3.78733">
        <ele>188</ele>
        <time>2024-04-06T21:35:24Z</time>
      </trkpt>
      <trkpt lat="43.79225" lon="3.78792">
        <ele>188</ele>
        <time>2024-04-06T21:35:32Z</time>
      </trkpt>
      <trkpt lat="43.79222" lon="3.78822">
        <ele>188</ele>
        <time>2024-04-06T21:35:36Z</time>
      </trkpt>
      <trkpt lat="43.79224" lon="3.78873">
        <ele>187</ele>
        <time>2024-04-06T21:35:42Z</time>
      </trkpt>
      <trkpt lat="43.79243" lon="3.79055">
        <ele>186</ele>
        <time>2024-04-06T21:36:06Z</time>
      </trkpt>
      <trkpt lat="43.79244" lon="3.79074">
        <ele>186</ele>
        <time>2024-04-06T21:36:08Z</time>
      </trkpt>
      <trkpt lat="43.79244" lon="3.79104">
        <ele>186</ele>
        <time>2024-04-06T21:36:12Z</time>
      </trkpt>
      <trkpt lat="43.79235" lon="3.79162">
        <ele>187</ele>
        <time>2024-04-06T21:36:20Z</time>
      </trkpt>
      <trkpt lat="43.79206" lon="3.79291">
        <ele>187</ele>
        <time>2024-04-06T21:36:37Z</time>
      </trkpt>
      <trkpt lat="43.79186" lon="3.79389">
        <ele>188</ele>
        <time>2024-04-06T21:36:50Z</time>
      </trkpt>
      <trkpt lat="43.79183" lon="3.79414">
        <ele>188</ele>
        <time>2024-04-06T21:36:53Z</time>
      </trkpt>
      <trkpt lat="43.79183" lon="3.79438">
        <ele>188</ele>
        <time>2024-04-06T21:36:57Z</time>
      </trkpt>
      <trkpt lat="43.79188" lon="3.79487">
        <ele>189</ele>
        <time>2024-04-06T21:37:03Z</time>
      </trkpt>
      <trkpt lat="43.79199" lon="3.79532">
        <ele>189</ele>
        <time>2024-04-06T21:37:09Z</time>
      </trkpt>
      <trkpt lat="43.79211" lon="3.79562">
        <ele>188</ele>
        <time>2024-04-06T21:37:13Z</time>
      </trkpt>
      <trkpt lat="43.79231" lon="3.79596">
        <ele>187</ele>
        <time>2024-04-06T21:37:19Z</time>
      </trkpt>
      <trkpt lat="43.79264" lon="3.7964">
        <ele>187</ele>
        <time>2024-04-06T21:37:27Z</time>
      </trkpt>
      <trkpt lat="43.79286" lon="3.79674">
        <ele>188</ele>
        <time>2024-04-06T21:37:33Z</time>
      </trkpt>
      <trkpt lat="43.7931" lon="3.79723">
        <ele>187</ele>
        <time>2024-04-06T21:37:41Z</time>
      </trkpt>
      <trkpt lat="43.79322" lon="3.79764">
        <ele>187</ele>
        <time>2024-04-06T21:37:46Z</time>
      </trkpt>
      <trkpt lat="43.79334" lon="3.79818">
        <ele>188</ele>
        <time>2024-04-06T21:37:54Z</time>
      </trkpt>
      <trkpt lat="43.79369" lon="3.80049">
        <ele>189</ele>
        <time>2024-04-06T21:38:24Z</time>
      </trkpt>
      <trkpt lat="43.79371" lon="3.80077">
        <ele>189</ele>
        <time>2024-04-06T21:38:28Z</time>
      </trkpt>
      <trkpt lat="43.79371" lon="3.80087">
        <ele>190</ele>
        <time>2024-04-06T21:38:29Z</time>
      </trkpt>
      <trkpt lat="43.7936" lon="3.80152">
        <ele>192</ele>
        <time>2024-04-06T21:38:37Z</time>
      </trkpt>
      <trkpt lat="43.79354" lon="3.80176">
        <ele>193</ele>
        <time>2024-04-06T21:38:41Z</time>
      </trkpt>
      <trkpt lat="43.79346" lon="3.802">
        <ele>194</ele>
        <time>2024-04-06T21:38:44Z</time>
      </trkpt>
      <trkpt lat="43.79336" lon="3.80222">
        <ele>195</ele>
        <time>2024-04-06T21:38:47Z</time>
      </trkpt>
      <trkpt lat="43.79315" lon="3.80255">
        <ele>197</ele>
        <time>2024-04-06T21:38:53Z</time>
      </trkpt>
      <trkpt lat="43.79292" lon="3.8028">
        <ele>199</ele>
        <time>2024-04-06T21:38:58Z</time>
      </trkpt>
      <trkpt lat="43.79125" lon="3.80392">
        <ele>208</ele>
        <time>2024-04-06T21:39:31Z</time>
      </trkpt>
      <trkpt lat="43.79111" lon="3.80403">
        <ele>209</ele>
        <time>2024-04-06T21:39:34Z</time>
      </trkpt>
      <trkpt lat="43.791" lon="3.80416">
        <ele>210</ele>
        <time>2024-04-06T21:39:37Z</time>
      </trkpt>
      <trkpt lat="43.7907" lon="3.80467">
        <ele>215</ele>
        <time>2024-04-06T21:39:45Z</time>
      </trkpt>
      <trkpt lat="43.79049" lon="3.805">
        <ele>218</ele>
        <time>2024-04-06T21:39:51Z</time>
      </trkpt>
      <trkpt lat="43.79012" lon="3.80547">
        <ele>221</ele>
        <time>2024-04-06T21:40:00Z</time>
      </trkpt>
      <trkpt lat="43.78997" lon="3.80554">
        <ele>222</ele>
        <time>2024-04-06T21:40:03Z</time>
      </trkpt>
      <trkpt lat="43.78989" lon="3.80555">
        <ele>223</ele>
        <time>2024-04-06T21:40:04Z</time>
      </trkpt>
      <trkpt lat="43.78981" lon="3.80552">
        <ele>224</ele>
        <time>2024-04-06T21:40:05Z</time>
      </trkpt>
      <trkpt lat="43.78969" lon="3.80543">
        <ele>225</ele>
        <time>2024-04-06T21:40:08Z</time>
      </trkpt>
      <trkpt lat="43.78908" lon="3.80461">
        <ele>225</ele>
        <time>2024-04-06T21:40:23Z</time>
      </trkpt>
      <trkpt lat="43.78851" lon="3.80406">
        <ele>227</ele>
        <time>2024-04-06T21:40:35Z</time>
      </trkpt>
      <trkpt lat="43.78843" lon="3.80401">
        <ele>227</ele>
        <time>2024-04-06T21:40:37Z</time>
      </trkpt>
      <trkpt lat="43.78836" lon="3.80399">
        <ele>228</ele>
        <time>2024-04-06T21:40:38Z</time>
      </trkpt>
      <trkpt lat="43.78828" lon="3.80401">
        <ele>228</ele>
        <time>2024-04-06T21:40:40Z</time>
      </trkpt>
      <trkpt lat="43.78822" lon="3.80409">
        <ele>228</ele>
        <time>2024-04-06T21:40:41Z</time>
      </trkpt>
      <trkpt lat="43.7882" lon="3.8042">
        <ele>228</ele>
        <time>2024-04-06T21:40:43Z</time>
      </trkpt>
      <trkpt lat="43.78824" lon="3.80436">
        <ele>229</ele>
        <time>2024-04-06T21:40:45Z</time>
      </trkpt>
      <trkpt lat="43.78834" lon="3.80466">
        <ele>231</ele>
        <time>2024-04-06T21:40:49Z</time>
      </trkpt>
      <trkpt lat="43.78853" lon="3.80501">
        <ele>232</ele>
        <time>2024-04-06T21:40:55Z</time>
      </trkpt>
      <trkpt lat="43.78865" lon="3.80518">
        <ele>232</ele>
        <time>2024-04-06T21:40:58Z</time>
      </trkpt>
      <trkpt lat="43.78879" lon="3.80535">
        <ele>233</ele>
        <time>2024-04-06T21:41:01Z</time>
      </trkpt>
      <trkpt lat="43.78918" lon="3.80573">
        <ele>234</ele>
        <time>2024-04-06T21:41:09Z</time>
      </trkpt>
      <trkpt lat="43.78924" lon="3.80581">
        <ele>234</ele>
        <time>2024-04-06T21:41:11Z</time>
      </trkpt>
      <trkpt lat="43.78926" lon="3.80589">
        <ele>234</ele>
        <time>2024-04-06T21:41:12Z</time>
      </trkpt>
      <trkpt lat="43.78924" lon="3.80599">
        <ele>236</ele>
        <time>2024-04-06T21:41:13Z</time>
      </trkpt>
      <trkpt lat="43.7892" lon="3.80601">
        <ele>237</ele>
        <time>2024-04-06T21:41:14Z</time>
      </trkpt>
      <trkpt lat="43.78912" lon="3.80601">
        <ele>237</ele>
        <time>2024-04-06T21:41:16Z</time>
      </trkpt>
      <trkpt lat="43.78891" lon="3.80584">
        <ele>236</ele>
        <time>2024-04-06T21:41:20Z</time>
      </trkpt>
      <trkpt lat="43.78868" lon="3.80575">
        <ele>236</ele>
        <time>2024-04-06T21:41:24Z</time>
      </trkpt>
      <trkpt lat="43.78858" lon="3.80574">
        <ele>236</ele>
        <time>2024-04-06T21:41:26Z</time>
      </trkpt>
      <trkpt lat="43.78844" lon="3.80579">
        <ele>237</ele>
        <time>2024-04-06T21:41:29Z</time>
      </trkpt>
      <trkpt lat="43.78819" lon="3.8059">
        <ele>238</ele>
        <time>2024-04-06T21:41:33Z</time>
      </trkpt>
      <trkpt lat="43.78808" lon="3.80599">
        <ele>238</ele>
        <time>2024-04-06T21:41:35Z</time>
      </trkpt>
      <trkpt lat="43.78806" lon="3.80604">
        <ele>238</ele>
        <time>2024-04-06T21:41:36Z</time>
      </trkpt>
      <trkpt lat="43.78805" lon="3.8061">
        <ele>239</ele>
        <time>2024-04-06T21:41:37Z</time>
      </trkpt>
      <trkpt lat="43.78813" lon="3.80624">
        <ele>240</ele>
        <time>2024-04-06T21:41:39Z</time>
      </trkpt>
      <trkpt lat="43.78824" lon="3.80634">
        <ele>241</ele>
        <time>2024-04-06T21:41:42Z</time>
      </trkpt>
      <trkpt lat="43.78865" lon="3.80659">
        <ele>243</ele>
        <time>2024-04-06T21:41:50Z</time>
      </trkpt>
      <trkpt lat="43.78876" lon="3.80673">
        <ele>244</ele>
        <time>2024-04-06T21:41:52Z</time>
      </trkpt>
      <trkpt lat="43.78892" lon="3.80724">
        <ele>241</ele>
        <time>2024-04-06T21:41:59Z</time>
      </trkpt>
      <trkpt lat="43.789" lon="3.80743">
        <ele>241</ele>
        <time>2024-04-06T21:42:02Z</time>
      </trkpt>
      <trkpt lat="43.78913" lon="3.80771">
        <ele>238</ele>
        <time>2024-04-06T21:42:06Z</time>
      </trkpt>
      <trkpt lat="43.78928" lon="3.80789">
        <ele>236</ele>
        <time>2024-04-06T21:42:10Z</time>
      </trkpt>
      <trkpt lat="43.79006" lon="3.80864">
        <ele>236</ele>
        <time>2024-04-06T21:42:27Z</time>
      </trkpt>
      <trkpt lat="43.79029" lon="3.80912">
        <ele>234</ele>
        <time>2024-04-06T21:42:34Z</time>
      </trkpt>
      <trkpt lat="43.79038" lon="3.80934">
        <ele>235</ele>
        <time>2024-04-06T21:42:38Z</time>
      </trkpt>
      <trkpt lat="43.79043" lon="3.80958">
        <ele>234</ele>
        <time>2024-04-06T21:42:41Z</time>
      </trkpt>
      <trkpt lat="43.79084" lon="3.81183">
        <ele>230</ele>
        <time>2024-04-06T21:43:11Z</time>
      </trkpt>
      <trkpt lat="43.79098" lon="3.81278">
        <ele>228</ele>
        <time>2024-04-06T21:43:23Z</time>
      </trkpt>
      <trkpt lat="43.79101" lon="3.81355">
        <ele>223</ele>
        <time>2024-04-06T21:43:33Z</time>
      </trkpt>
      <trkpt lat="43.79109" lon="3.81727">
        <ele>217</ele>
        <time>2024-04-06T21:44:21Z</time>
      </trkpt>
      <trkpt lat="43.79093" lon="3.821">
        <ele>208</ele>
        <time>2024-04-06T21:45:09Z</time>
      </trkpt>
      <trkpt lat="43.7909" lon="3.82154">
        <ele>206</ele>
        <time>2024-04-06T21:45:16Z</time>
      </trkpt>
      <trkpt lat="43.79032" lon="3.82438">
        <ele>197</ele>
        <time>2024-04-06T21:45:54Z</time>
      </trkpt>
      <trkpt lat="43.78995" lon="3.82641">
        <ele>190</ele>
        <time>2024-04-06T21:46:20Z</time>
      </trkpt>
      <trkpt lat="43.78982" lon="3.82685">
        <ele>189</ele>
        <time>2024-04-06T21:46:27Z</time>
      </trkpt>
      <trkpt lat="43.78893" lon="3.82926">
        <ele>177</ele>
        <time>2024-04-06T21:47:01Z</time>
      </trkpt>
      <trkpt lat="43.78892" lon="3.82931">
        <ele>177</ele>
        <time>2024-04-06T21:47:02Z</time>
      </trkpt>
      <trkpt lat="43.78861" lon="3.83016">
        <ele>173</ele>
        <time>2024-04-06T21:47:14Z</time>
      </trkpt>
      <trkpt lat="43.78846" lon="3.83087">
        <ele>168</ele>
        <time>2024-04-06T21:47:24Z</time>
      </trkpt>
      <trkpt lat="43.78825" lon="3.83201">
        <ele>168</ele>
        <time>2024-04-06T21:47:39Z</time>
      </trkpt>
      <trkpt lat="43.78821" lon="3.83314">
        <ele>167</ele>
        <time>2024-04-06T21:47:53Z</time>
      </trkpt>
      <trkpt lat="43.78816" lon="3.83353">
        <ele>165</ele>
        <time>2024-04-06T21:47:58Z</time>
      </trkpt>
      <trkpt lat="43.78786" lon="3.8351">
        <ele>157</ele>
        <time>2024-04-06T21:48:19Z</time>
      </trkpt>
      <trkpt lat="43.78785" lon="3.83552">
        <ele>157</ele>
        <time>2024-04-06T21:48:25Z</time>
      </trkpt>
      <trkpt lat="43.78792" lon="3.83606">
        <ele>157</ele>
        <time>2024-04-06T21:48:32Z</time>
      </trkpt>
      <trkpt lat="43.78829" lon="3.83812">
        <ele>151</ele>
        <time>2024-04-06T21:48:59Z</time>
      </trkpt>
      <trkpt lat="43.78843" lon="3.839">
        <ele>148</ele>
        <time>2024-04-06T21:49:11Z</time>
      </trkpt>
      <trkpt lat="43.78869" lon="3.84047">
        <ele>142</ele>
        <time>2024-04-06T21:49:30Z</time>
      </trkpt>
      <trkpt lat="43.7887" lon="3.84057">
        <ele>142</ele>
        <time>2024-04-06T21:49:31Z</time>
      </trkpt>
      <trkpt lat="43.78916" lon="3.8432">
        <ele>136</ele>
        <time>2024-04-06T21:50:06Z</time>
      </trkpt>
      <trkpt lat="43.78926" lon="3.84364">
        <ele>135</ele>
        <time>2024-04-06T21:50:12Z</time>
      </trkpt>
      <trkpt lat="43.79004" lon="3.84661">
        <ele>127</ele>
        <time>2024-04-06T21:50:53Z</time>
      </trkpt>
      <trkpt lat="43.79007" lon="3.84672">
        <ele>127</ele>
        <time>2024-04-06T21:50:54Z</time>
      </trkpt>
      <trkpt lat="43.79081" lon="3.84952">
        <ele>127</ele>
        <time>2024-04-06T21:51:32Z</time>
      </trkpt>
      <trkpt lat="43.79084" lon="3.84964">
        <ele>126</ele>
        <time>2024-04-06T21:51:34Z</time>
      </trkpt>
      <trkpt lat="43.79089" lon="3.84984">
        <ele>126</ele>
        <time>2024-04-06T21:51:37Z</time>
      </trkpt>
      <trkpt lat="43.79097" lon="3.8503">
        <ele>126</ele>
        <time>2024-04-06T21:51:43Z</time>
      </trkpt>
      <trkpt lat="43.79098" lon="3.85055">
        <ele>126</ele>
        <time>2024-04-06T21:51:46Z</time>
      </trkpt>
      <trkpt lat="43.79094" lon="3.85112">
        <ele>125</ele>
        <time>2024-04-06T21:51:53Z</time>
      </trkpt>
      <trkpt lat="43.79064" lon="3.85469">
        <ele>124</ele>
        <time>2024-04-06T21:52:40Z</time>
      </trkpt>
      <trkpt lat="43.79064" lon="3.85475">
        <ele>124</ele>
        <time>2024-04-06T21:52:40Z</time>
      </trkpt>
      <trkpt lat="43.79055" lon="3.85522">
        <ele>125</ele>
        <time>2024-04-06T21:52:47Z</time>
      </trkpt>
      <trkpt lat="43.79048" lon="3.85549">
        <ele>126</ele>
        <time>2024-04-06T21:52:50Z</time>
      </trkpt>
      <trkpt lat="43.79038" lon="3.85575">
        <ele>127</ele>
        <time>2024-04-06T21:52:54Z</time>
      </trkpt>
      <trkpt lat="43.79017" lon="3.85613">
        <ele>127</ele>
        <time>2024-04-06T21:53:00Z</time>
      </trkpt>
      <trkpt lat="43.78996" lon="3.85639">
        <ele>127</ele>
        <time>2024-04-06T21:53:05Z</time>
      </trkpt>
      <trkpt lat="43.78972" lon="3.85659">
        <ele>126</ele>
        <time>2024-04-06T21:53:10Z</time>
      </trkpt>
      <trkpt lat="43.78937" lon="3.85678">
        <ele>124</ele>
        <time>2024-04-06T21:53:17Z</time>
      </trkpt>
      <trkpt lat="43.78904" lon="3.85689">
        <ele>123</ele>
        <time>2024-04-06T21:53:23Z</time>
      </trkpt>
      <trkpt lat="43.78852" lon="3.857">
        <ele>121</ele>
        <time>2024-04-06T21:53:32Z</time>
      </trkpt>
      <trkpt lat="43.78823" lon="3.85708">
        <ele>121</ele>
        <time>2024-04-06T21:53:38Z</time>
      </trkpt>
      <trkpt lat="43.78424" lon="3.85804">
        <ele>120</ele>
        <time>2024-04-06T21:54:50Z</time>
      </trkpt>
      <trkpt lat="43.78393" lon="3.85806">
        <ele>120</ele>
        <time>2024-04-06T21:54:55Z</time>
      </trkpt>
      <trkpt lat="43.78365" lon="3.858">
        <ele>121</ele>
        <time>2024-04-06T21:55:00Z</time>
      </trkpt>
      <trkpt lat="43.78349" lon="3.85797">
        <ele>121</ele>
        <time>2024-04-06T21:55:03Z</time>
      </trkpt>
      <trkpt lat="43.78141" lon="3.85755">
        <ele>122</ele>
        <time>2024-04-06T21:55:40Z</time>
      </trkpt>
      <trkpt lat="43.78098" lon="3.85739">
        <ele>120</ele>
        <time>2024-04-06T21:55:48Z</time>
      </trkpt>
      <trkpt lat="43.77952" lon="3.85672">
        <ele>115</ele>
        <time>2024-04-06T21:56:16Z</time>
      </trkpt>
      <trkpt lat="43.77937" lon="3.8567">
        <ele>115</ele>
        <time>2024-04-06T21:56:18Z</time>
      </trkpt>
      <trkpt lat="43.77924" lon="3.85672">
        <ele>115</ele>
        <time>2024-04-06T21:56:21Z</time>
      </trkpt>
      <trkpt lat="43.77913" lon="3.85676">
        <ele>115</ele>
        <time>2024-04-06T21:56:23Z</time>
      </trkpt>
      <trkpt lat="43.77899" lon="3.85687">
        <ele>115</ele>
        <time>2024-04-06T21:56:26Z</time>
      </trkpt>
      <trkpt lat="43.77873" lon="3.85715">
        <ele>115</ele>
        <time>2024-04-06T21:56:32Z</time>
      </trkpt>
      <trkpt lat="43.77866" lon="3.85722">
        <ele>115</ele>
        <time>2024-04-06T21:56:33Z</time>
      </trkpt>
      <trkpt lat="43.77786" lon="3.8581">
        <ele>115</ele>
        <time>2024-04-06T21:56:51Z</time>
      </trkpt>
      <trkpt lat="43.77773" lon="3.85828">
        <ele>115</ele>
        <time>2024-04-06T21:56:55Z</time>
      </trkpt>
      <trkpt lat="43.77764" lon="3.85846">
        <ele>115</ele>
        <time>2024-04-06T21:56:57Z</time>
      </trkpt>
      <trkpt lat="43.77756" lon="3.85871">
        <ele>116</ele>
        <time>2024-04-06T21:57:01Z</time>
      </trkpt>
      <trkpt lat="43.77599" lon="3.86384">
        <ele>102</ele>
        <time>2024-04-06T21:58:12Z</time>
      </trkpt>
      <trkpt lat="43.77594" lon="3.86404">
        <ele>102</ele>
        <time>2024-04-06T21:58:15Z</time>
      </trkpt>
      <trkpt lat="43.77465" lon="3.86823">
        <ele>111</ele>
        <time>2024-04-06T21:59:14Z</time>
      </trkpt>
      <trkpt lat="43.77458" lon="3.86839">
        <ele>111</ele>
        <time>2024-04-06T21:59:16Z</time>
      </trkpt>
      <trkpt lat="43.7745" lon="3.86866">
        <ele>111</ele>
        <time>2024-04-06T21:59:20Z</time>
      </trkpt>
      <trkpt lat="43.77441" lon="3.86916">
        <ele>111</ele>
        <time>2024-04-06T21:59:26Z</time>
      </trkpt>
      <trkpt lat="43.77435" lon="3.86925">
        <ele>111</ele>
        <time>2024-04-06T21:59:28Z</time>
      </trkpt>
      <trkpt lat="43.77425" lon="3.86932">
        <ele>111</ele>
        <time>2024-04-06T21:59:30Z</time>
      </trkpt>
      <trkpt lat="43.77411" lon="3.86936">
        <ele>111</ele>
        <time>2024-04-06T21:59:33Z</time>
      </trkpt>
      <trkpt lat="43.77405" lon="3.86942">
        <ele>111</ele>
        <time>2024-04-06T21:59:34Z</time>
      </trkpt>
      <trkpt lat="43.77397" lon="3.86953">
        <ele>111</ele>
        <time>2024-04-06T21:59:36Z</time>
      </trkpt>
      <trkpt lat="43.77391" lon="3.86975">
        <ele>111</ele>
        <time>2024-04-06T21:59:39Z</time>
      </trkpt>
      <trkpt lat="43.77393" lon="3.86996">
        <ele>111</ele>
        <time>2024-04-06T21:59:42Z</time>
      </trkpt>
      <trkpt lat="43.77401" lon="3.87015">
        <ele>112</ele>
        <time>2024-04-06T21:59:44Z</time>
      </trkpt>
      <trkpt lat="43.77407" lon="3.87022">
        <ele>112</ele>
        <time>2024-04-06T21:59:46Z</time>
      </trkpt>
      <trkpt lat="43.77413" lon="3.87035">
        <ele>112</ele>
        <time>2024-04-06T21:59:48Z</time>
      </trkpt>
      <trkpt lat="43.77415" lon="3.87048">
        <ele>112</ele>
        <time>2024-04-06T21:59:50Z</time>
      </trkpt>
      <trkpt lat="43.77387" lon="3.87433">
        <ele>112</ele>
        <time>2024-04-06T22:00:39Z</time>
      </trkpt>
      <trkpt lat="43.77362" lon="3.87647">
        <ele>114</ele>
        <time>2024-04-06T22:01:07Z</time>
      </trkpt>
      <trkpt lat="43.77363" lon="3.87714">
        <ele>114</ele>
        <time>2024-04-06T22:01:16Z</time>
      </trkpt>
      <trkpt lat="43.77368" lon="3.87758">
        <ele>113</ele>
        <time>2024-04-06T22:01:21Z</time>
      </trkpt>
      <trkpt lat="43.77377" lon="3.87802">
        <ele>112</ele>
        <time>2024-04-06T22:01:27Z</time>
      </trkpt>
      <trkpt lat="43.77406" lon="3.87925">
        <ele>116</ele>
        <time>2024-04-06T22:01:44Z</time>
      </trkpt>
      <trkpt lat="43.7749" lon="3.88267">
        <ele>119</ele>
        <time>2024-04-06T22:02:30Z</time>
      </trkpt>
      <trkpt lat="43.77499" lon="3.88298">
        <ele>118</ele>
        <time>2024-04-06T22:02:35Z</time>
      </trkpt>
      <trkpt lat="43.77664" lon="3.88782">
        <ele>124</ele>
        <time>2024-04-06T22:03:43Z</time>
      </trkpt>
      <trkpt lat="43.77686" lon="3.88854">
        <ele>124</ele>
        <time>2024-04-06T22:03:53Z</time>
      </trkpt>
      <trkpt lat="43.77692" lon="3.88883">
        <ele>124</ele>
        <time>2024-04-06T22:03:57Z</time>
      </trkpt>
      <trkpt lat="43.77701" lon="3.88941">
        <ele>123</ele>
        <time>2024-04-06T22:04:05Z</time>
      </trkpt>
      <trkpt lat="43.77879" lon="3.90363">
        <ele>113</ele>
        <time>2024-04-06T22:07:10Z</time>
      </trkpt>
      <trkpt lat="43.77912" lon="3.90603">
        <ele>112</ele>
        <time>2024-04-06T22:07:42Z</time>
      </trkpt>
      <trkpt lat="43.77937" lon="3.90739">
        <ele>112</ele>
        <time>2024-04-06T22:08:00Z</time>
      </trkpt>
      <trkpt lat="43.77997" lon="3.91018">
        <ele>110</ele>
        <time>2024-04-06T22:08:37Z</time>
      </trkpt>
      <trkpt lat="43.78004" lon="3.91061">
        <ele>111</ele>
        <time>2024-04-06T22:08:43Z</time>
      </trkpt>
      <trkpt lat="43.78009" lon="3.91139">
        <ele>111</ele>
        <time>2024-04-06T22:08:53Z</time>
      </trkpt>
      <trkpt lat="43.78004" lon="3.91441">
        <ele>106</ele>
        <time>2024-04-06T22:09:32Z</time>
      </trkpt>
      <trkpt lat="43.78003" lon="3.91471">
        <ele>105</ele>
        <time>2024-04-06T22:09:36Z</time>
      </trkpt>
      <trkpt lat="43.78002" lon="3.91557">
        <ele>106</ele>
        <time>2024-04-06T22:09:47Z</time>
      </trkpt>
      <trkpt lat="43.78002" lon="3.91567">
        <ele>106</ele>
        <time>2024-04-06T22:09:48Z</time>
      </trkpt>
      <trkpt lat="43.78001" lon="3.91609">
        <ele>107</ele>
        <time>2024-04-06T22:09:53Z</time>
      </trkpt>
      <trkpt lat="43.78009" lon="3.91778">
        <ele>112</ele>
        <time>2024-04-06T22:10:15Z</time>
      </trkpt>
      <trkpt lat="43.78015" lon="3.91889">
        <ele>116</ele>
        <time>2024-04-06T22:10:29Z</time>
      </trkpt>
      <trkpt lat="43.78019" lon="3.91915">
        <ele>117</ele>
        <time>2024-04-06T22:10:33Z</time>
      </trkpt>
      <trkpt lat="43.78028" lon="3.91951">
        <ele>119</ele>
        <time>2024-04-06T22:10:38Z</time>
      </trkpt>
      <trkpt lat="43.78063" lon="3.9206">
        <ele>118</ele>
        <time>2024-04-06T22:10:53Z</time>
      </trkpt>
      <trkpt lat="43.78071" lon="3.92104">
        <ele>118</ele>
        <time>2024-04-06T22:10:59Z</time>
      </trkpt>
      <trkpt lat="43.78075" lon="3.92159">
        <ele>119</ele>
        <time>2024-04-06T22:11:06Z</time>
      </trkpt>
      <trkpt lat="43.78074" lon="3.92212">
        <ele>119</ele>
        <time>2024-04-06T22:11:13Z</time>
      </trkpt>
      <trkpt lat="43.7806" lon="3.92629">
        <ele>122</ele>
        <time>2024-04-06T22:12:06Z</time>
      </trkpt>
      <trkpt lat="43.7806" lon="3.92667">
        <ele>120</ele>
        <time>2024-04-06T22:12:11Z</time>
      </trkpt>
      <trkpt lat="43.78073" lon="3.92875">
        <ele>117</ele>
        <time>2024-04-06T22:12:38Z</time>
      </trkpt>
      <trkpt lat="43.78077" lon="3.92897">
        <ele>117</ele>
        <time>2024-04-06T22:12:41Z</time>
      </trkpt>
      <trkpt lat="43.78101" lon="3.92977">
        <ele>117</ele>
        <time>2024-04-06T22:12:52Z</time>
      </trkpt>
      <trkpt lat="43.78104" lon="3.93007">
        <ele>118</ele>
        <time>2024-04-06T22:12:56Z</time>
      </trkpt>
      <trkpt lat="43.781" lon="3.93146">
        <ele>112</ele>
        <time>2024-04-06T22:13:14Z</time>
      </trkpt>
      <trkpt lat="43.78097" lon="3.9317">
        <ele>111</ele>
        <time>2024-04-06T22:13:17Z</time>
      </trkpt>
      <trkpt lat="43.78092" lon="3.9319">
        <ele>110</ele>
        <time>2024-04-06T22:13:20Z</time>
      </trkpt>
      <trkpt lat="43.78084" lon="3.93211">
        <ele>109</ele>
        <time>2024-04-06T22:13:23Z</time>
      </trkpt>
      <trkpt lat="43.78075" lon="3.93226">
        <ele>109</ele>
        <time>2024-04-06T22:13:25Z</time>
      </trkpt>
      <trkpt lat="43.78058" lon="3.93246">
        <ele>109</ele>
        <time>2024-04-06T22:13:29Z</time>
      </trkpt>
      <trkpt lat="43.77944" lon="3.93346">
        <ele>115</ele>
        <time>2024-04-06T22:13:53Z</time>
      </trkpt>
      <trkpt lat="43.77921" lon="3.93358">
        <ele>116</ele>
        <time>2024-04-06T22:13:58Z</time>
      </trkpt>
      <trkpt lat="43.77824" lon="3.93381">
        <ele>120</ele>
        <time>2024-04-06T22:14:15Z</time>
      </trkpt>
      <trkpt lat="43.77776" lon="3.93383">
        <ele>122</ele>
        <time>2024-04-06T22:14:24Z</time>
      </trkpt>
      <trkpt lat="43.77755" lon="3.93387">
        <ele>122</ele>
        <time>2024-04-06T22:14:27Z</time>
      </trkpt>
      <trkpt lat="43.77736" lon="3.93395">
        <ele>122</ele>
        <time>2024-04-06T22:14:31Z</time>
      </trkpt>
      <trkpt lat="43.77695" lon="3.93419">
        <ele>120</ele>
        <time>2024-04-06T22:14:39Z</time>
      </trkpt>
      <trkpt lat="43.77676" lon="3.93422">
        <ele>121</ele>
        <time>2024-04-06T22:14:42Z</time>
      </trkpt>
      <trkpt lat="43.77405" lon="3.93433">
        <ele>127</ele>
        <time>2024-04-06T22:15:31Z</time>
      </trkpt>
      <trkpt lat="43.77383" lon="3.93436">
        <ele>129</ele>
        <time>2024-04-06T22:15:34Z</time>
      </trkpt>
      <trkpt lat="43.77312" lon="3.93465">
        <ele>129</ele>
        <time>2024-04-06T22:15:48Z</time>
      </trkpt>
      <trkpt lat="43.77239" lon="3.93498">
        <ele>127</ele>
        <time>2024-04-06T22:16:01Z</time>
      </trkpt>
      <trkpt lat="43.77211" lon="3.93512">
        <ele>128</ele>
        <time>2024-04-06T22:16:07Z</time>
      </trkpt>
      <trkpt lat="43.77197" lon="3.93521">
        <ele>130</ele>
        <time>2024-04-06T22:16:09Z</time>
      </trkpt>
      <trkpt lat="43.77182" lon="3.93535">
        <ele>131</ele>
        <time>2024-04-06T22:16:13Z</time>
      </trkpt>
      <trkpt lat="43.77169" lon="3.9355">
        <ele>133</ele>
        <time>2024-04-06T22:16:16Z</time>
      </trkpt>
      <trkpt lat="43.77026" lon="3.93781">
        <ele>133</ele>
        <time>2024-04-06T22:16:55Z</time>
      </trkpt>
      <trkpt lat="43.77011" lon="3.93807">
        <ele>132</ele>
        <time>2024-04-06T22:16:59Z</time>
      </trkpt>
      <trkpt lat="43.76998" lon="3.93839">
        <ele>131</ele>
        <time>2024-04-06T22:17:04Z</time>
      </trkpt>
      <trkpt lat="43.76984" lon="3.93881">
        <ele>131</ele>
        <time>2024-04-06T22:17:10Z</time>
      </trkpt>
      <trkpt lat="43.76977" lon="3.93914">
        <ele>132</ele>
        <time>2024-04-06T22:17:14Z</time>
      </trkpt>
      <trkpt lat="43.7697" lon="3.93957">
        <ele>132</ele>
        <time>2024-04-06T22:17:20Z</time>
      </trkpt>
      <trkpt lat="43.76967" lon="3.93994">
        <ele>132</ele>
        <time>2024-04-06T22:17:24Z</time>
      </trkpt>
      <trkpt lat="43.76967" lon="3.94042">
        <ele>133</ele>
        <time>2024-04-06T22:17:31Z</time>
      </trkpt>
      <trkpt lat="43.7697" lon="3.94088">
        <ele>133</ele>
        <time>2024-04-06T22:17:37Z</time>
      </trkpt>
      <trkpt lat="43.76977" lon="3.9414">
        <ele>132</ele>
        <time>2024-04-06T22:17:43Z</time>
      </trkpt>
      <trkpt lat="43.7699" lon="3.94212">
        <ele>131</ele>
        <time>2024-04-06T22:17:53Z</time>
      </trkpt>
      <trkpt lat="43.76993" lon="3.94232">
        <ele>130</ele>
        <time>2024-04-06T22:17:56Z</time>
      </trkpt>
      <trkpt lat="43.77026" lon="3.9444">
        <ele>130</ele>
        <time>2024-04-06T22:18:23Z</time>
      </trkpt>
      <trkpt lat="43.7705" lon="3.94577">
        <ele>132</ele>
        <time>2024-04-06T22:18:41Z</time>
      </trkpt>
      <trkpt lat="43.77047" lon="3.94578">
        <ele>132</ele>
        <time>2024-04-06T22:18:42Z</time>
      </trkpt>
      <trkpt lat="43.77043" lon="3.94585">
        <ele>132</ele>
        <time>2024-04-06T22:18:43Z</time>
      </trkpt>
      <trkpt lat="43.77044" lon="3.94594">
        <ele>132</ele>
        <time>2024-04-06T22:18:44Z</time>
      </trkpt>
      <trkpt lat="43.7705" lon="3.94598">
        <ele>132</ele>
        <time>2024-04-06T22:18:45Z</time>
      </trkpt>
      <trkpt lat="43.77053" lon="3.94598">
        <ele>132</ele>
        <time>2024-04-06T22:18:46Z</time>
      </trkpt>
      <trkpt lat="43.77061" lon="3.94668">
        <ele>132</ele>
        <time>2024-04-06T22:18:55Z</time>
      </trkpt>
      <trkpt lat="43.77061" lon="3.94703">
        <ele>132</ele>
        <time>2024-04-06T22:18:59Z</time>
      </trkpt>
      <trkpt lat="43.77059" lon="3.94721">
        <ele>132</ele>
        <time>2024-04-06T22:19:02Z</time>
      </trkpt>
      <trkpt lat="43.77055" lon="3.94743">
        <ele>132</ele>
        <time>2024-04-06T22:19:04Z</time>
      </trkpt>
      <trkpt lat="43.77044" lon="3.94781">
        <ele>130</ele>
        <time>2024-04-06T22:19:10Z</time>
      </trkpt>
      <trkpt lat="43.77036" lon="3.94802">
        <ele>129</ele>
        <time>2024-04-06T22:19:13Z</time>
      </trkpt>
      <trkpt lat="43.7701" lon="3.94861">
        <ele>128</ele>
        <time>2024-04-06T22:19:22Z</time>
      </trkpt>
      <trkpt lat="43.76998" lon="3.94898">
        <ele>128</ele>
        <time>2024-04-06T22:19:27Z</time>
      </trkpt>
      <trkpt lat="43.76984" lon="3.94965">
        <ele>124</ele>
        <time>2024-04-06T22:19:36Z</time>
      </trkpt>
      <trkpt lat="43.76975" lon="3.94985">
        <ele>122</ele>
        <time>2024-04-06T22:19:39Z</time>
      </trkpt>
      <trkpt lat="43.76969" lon="3.94991">
        <ele>121</ele>
        <time>2024-04-06T22:19:40Z</time>
      </trkpt>
      <trkpt lat="43.76964" lon="3.94995">
        <ele>121</ele>
        <time>2024-04-06T22:19:41Z</time>
      </trkpt>
      <trkpt lat="43.76962" lon="3.95002">
        <ele>120</ele>
        <time>2024-04-06T22:19:42Z</time>
      </trkpt>
      <trkpt lat="43.76963" lon="3.95006">
        <ele>120</ele>
        <time>2024-04-06T22:19:43Z</time>
      </trkpt>
      <trkpt lat="43.76968" lon="3.95013">
        <ele>121</ele>
        <time>2024-04-06T22:19:44Z</time>
      </trkpt>
      <trkpt lat="43.76972" lon="3.95031">
        <ele>121</ele>
        <time>2024-04-06T22:19:46Z</time>
      </trkpt>
      <trkpt lat="43.76969" lon="3.95057">
        <ele>120</ele>
        <time>2024-04-06T22:19:50Z</time>
      </trkpt>
      <trkpt lat="43.76951" lon="3.95169">
        <ele>117</ele>
        <time>2024-04-06T22:20:04Z</time>
      </trkpt>
      <trkpt lat="43.76947" lon="3.95203">
        <ele>117</ele>
        <time>2024-04-06T22:20:09Z</time>
      </trkpt>
      <trkpt lat="43.7694" lon="3.95315">
        <ele>115</ele>
        <time>2024-04-06T22:20:23Z</time>
      </trkpt>
      <trkpt lat="43.76936" lon="3.95347">
        <ele>114</ele>
        <time>2024-04-06T22:20:28Z</time>
      </trkpt>
      <trkpt lat="43.76936" lon="3.95381">
        <ele>114</ele>
        <time>2024-04-06T22:20:32Z</time>
      </trkpt>
      <trkpt lat="43.76933" lon="3.95421">
        <ele>114</ele>
        <time>2024-04-06T22:20:37Z</time>
      </trkpt>
      <trkpt lat="43.76934" lon="3.95459">
        <ele>114</ele>
        <time>2024-04-06T22:20:42Z</time>
      </trkpt>
      <trkpt lat="43.76929" lon="3.95467">
        <ele>114</ele>
        <time>2024-04-06T22:20:43Z</time>
      </trkpt>
      <trkpt lat="43.76917" lon="3.95509">
        <ele>113</ele>
        <time>2024-04-06T22:20:49Z</time>
      </trkpt>
      <trkpt lat="43.76904" lon="3.95572">
        <ele>111</ele>
        <time>2024-04-06T22:20:58Z</time>
      </trkpt>
      <trkpt lat="43.76897" lon="3.95587">
        <ele>111</ele>
        <time>2024-04-06T22:21:00Z</time>
      </trkpt>
      <trkpt lat="43.76857" lon="3.95626">
        <ele>108</ele>
        <time>2024-04-06T22:21:09Z</time>
      </trkpt>
      <trkpt lat="43.76847" lon="3.95642">
        <ele>107</ele>
        <time>2024-04-06T22:21:11Z</time>
      </trkpt>
      <trkpt lat="43.76879" lon="3.95681">
        <ele>108</ele>
        <time>2024-04-06T22:21:19Z</time>
      </trkpt>
      <trkpt lat="43.76905" lon="3.95704">
        <ele>110</ele>
        <time>2024-04-06T22:21:24Z</time>
      </trkpt>
      <trkpt lat="43.76928" lon="3.95741">
        <ele>110</ele>
        <time>2024-04-06T22:21:31Z</time>
      </trkpt>
      <trkpt lat="43.76948" lon="3.95795">
        <ele>109</ele>
        <time>2024-04-06T22:21:38Z</time>
      </trkpt>
      <trkpt lat="43.76997" lon="3.95841">
        <ele>111</ele>
        <time>2024-04-06T22:21:49Z</time>
      </trkpt>
      <trkpt lat="43.77005" lon="3.95847">
        <ele>111</ele>
        <time>2024-04-06T22:21:51Z</time>
      </trkpt>
      <trkpt lat="43.77039" lon="3.9588">
        <ele>112</ele>
        <time>2024-04-06T22:21:58Z</time>
      </trkpt>
      <trkpt lat="43.76989" lon="3.96132">
        <ele>100</ele>
        <time>2024-04-06T22:22:32Z</time>
      </trkpt>
      <trkpt lat="43.76965" lon="3.96269">
        <ele>95</ele>
        <time>2024-04-06T22:22:50Z</time>
      </trkpt>
      <trkpt lat="43.76954" lon="3.96322">
        <ele>94</ele>
        <time>2024-04-06T22:22:57Z</time>
      </trkpt>
      <trkpt lat="43.76925" lon="3.96417">
        <ele>92</ele>
        <time>2024-04-06T22:23:10Z</time>
      </trkpt>
      <trkpt lat="43.76917" lon="3.96451">
        <ele>91</ele>
        <time>2024-04-06T22:23:15Z</time>
      </trkpt>
      <trkpt lat="43.76911" lon="3.96488">
        <ele>90</ele>
        <time>2024-04-06T22:23:19Z</time>
      </trkpt>
      <trkpt lat="43.76891" lon="3.96652">
        <ele>88</ele>
        <time>2024-04-06T22:23:41Z</time>
      </trkpt>
      <trkpt lat="43.76885" lon="3.96904">
        <ele>87</ele>
        <time>2024-04-06T22:24:13Z</time>
      </trkpt>
      <trkpt lat="43.7688" lon="3.9695">
        <ele>87</ele>
        <time>2024-04-06T22:24:19Z</time>
      </trkpt>
      <trkpt lat="43.76866" lon="3.97019">
        <ele>87</ele>
        <time>2024-04-06T22:24:28Z</time>
      </trkpt>
      <trkpt lat="43.76834" lon="3.97145">
        <ele>85</ele>
        <time>2024-04-06T22:24:46Z</time>
      </trkpt>
      <trkpt lat="43.76814" lon="3.97234">
        <ele>82</ele>
        <time>2024-04-06T22:24:58Z</time>
      </trkpt>
      <trkpt lat="43.76802" lon="3.97327">
        <ele>81</ele>
        <time>2024-04-06T22:25:10Z</time>
      </trkpt>
      <trkpt lat="43.76763" lon="3.97697">
        <ele>78</ele>
        <time>2024-04-06T22:25:58Z</time>
      </trkpt>
      <trkpt lat="43.76759" lon="3.97763">
        <ele>77</ele>
        <time>2024-04-06T22:26:06Z</time>
      </trkpt>
      <trkpt lat="43.76759" lon="3.97798">
        <ele>78</ele>
        <time>2024-04-06T22:26:11Z</time>
      </trkpt>
      <trkpt lat="43.76762" lon="3.97888">
        <ele>77</ele>
        <time>2024-04-06T22:26:22Z</time>
      </trkpt>
      <trkpt lat="43.76769" lon="3.9798">
        <ele>76</ele>
        <time>2024-04-06T22:26:34Z</time>
      </trkpt>
      <trkpt lat="43.76783" lon="3.98116">
        <ele>74</ele>
        <time>2024-04-06T22:26:52Z</time>
      </trkpt>
      <trkpt lat="43.76797" lon="3.98275">
        <ele>74</ele>
        <time>2024-04-06T22:27:12Z</time>
      </trkpt>
      <trkpt lat="43.768" lon="3.98397">
        <ele>74</ele>
        <time>2024-04-06T22:27:28Z</time>
      </trkpt>
      <trkpt lat="43.76791" lon="3.98502">
        <ele>73</ele>
        <time>2024-04-06T22:27:42Z</time>
      </trkpt>
      <trkpt lat="43.76776" lon="3.98593">
        <ele>73</ele>
        <time>2024-04-06T22:27:54Z</time>
      </trkpt>
      <trkpt lat="43.76773" lon="3.98653">
        <ele>75</ele>
        <time>2024-04-06T22:28:01Z</time>
      </trkpt>
      <trkpt lat="43.76776" lon="3.98701">
        <ele>76</ele>
        <time>2024-04-06T22:28:08Z</time>
      </trkpt>
      <trkpt lat="43.76797" lon="3.98856">
        <ele>80</ele>
        <time>2024-04-06T22:28:28Z</time>
      </trkpt>
      <trkpt lat="43.76804" lon="3.98892">
        <ele>80</ele>
        <time>2024-04-06T22:28:33Z</time>
      </trkpt>
      <trkpt lat="43.7682" lon="3.98942">
        <ele>81</ele>
        <time>2024-04-06T22:28:40Z</time>
      </trkpt>
      <trkpt lat="43.76851" lon="3.99111">
        <ele>85</ele>
        <time>2024-04-06T22:29:02Z</time>
      </trkpt>
      <trkpt lat="43.76876" lon="3.99304">
        <ele>83</ele>
        <time>2024-04-06T22:29:27Z</time>
      </trkpt>
      <trkpt lat="43.76884" lon="3.99342">
        <ele>82</ele>
        <time>2024-04-06T22:29:32Z</time>
      </trkpt>
      <trkpt lat="43.76899" lon="3.994">
        <ele>81</ele>
        <time>2024-04-06T22:29:40Z</time>
      </trkpt>
      <trkpt lat="43.76916" lon="3.99483">
        <ele>78</ele>
        <time>2024-04-06T22:29:51Z</time>
      </trkpt>
      <trkpt lat="43.76926" lon="3.99614">
        <ele>76</ele>
        <time>2024-04-06T22:30:08Z</time>
      </trkpt>
      <trkpt lat="43.76931" lon="3.99651">
        <ele>75</ele>
        <time>2024-04-06T22:30:13Z</time>
      </trkpt>
      <trkpt lat="43.76974" lon="3.99844">
        <ele>64</ele>
        <time>2024-04-06T22:30:39Z</time>
      </trkpt>
      <trkpt lat="43.76975" lon="3.99883">
        <ele>63</ele>
        <time>2024-04-06T22:30:44Z</time>
      </trkpt>
      <trkpt lat="43.76966" lon="4.00027">
        <ele>65</ele>
        <time>2024-04-06T22:31:03Z</time>
      </trkpt>
      <trkpt lat="43.76966" lon="4.00059">
        <ele>66</ele>
        <time>2024-04-06T22:31:07Z</time>
      </trkpt>
      <trkpt lat="43.76969" lon="4.00085">
        <ele>66</ele>
        <time>2024-04-06T22:31:10Z</time>
      </trkpt>
      <trkpt lat="43.76975" lon="4.00113">
        <ele>67</ele>
        <time>2024-04-06T22:31:14Z</time>
      </trkpt>
      <trkpt lat="43.76993" lon="4.00167">
        <ele>67</ele>
        <time>2024-04-06T22:31:22Z</time>
      </trkpt>
      <trkpt lat="43.76999" lon="4.00193">
        <ele>68</ele>
        <time>2024-04-06T22:31:25Z</time>
      </trkpt>
      <trkpt lat="43.77" lon="4.0021">
        <ele>68</ele>
        <time>2024-04-06T22:31:27Z</time>
      </trkpt>
      <trkpt lat="43.76997" lon="4.00232">
        <ele>69</ele>
        <time>2024-04-06T22:31:30Z</time>
      </trkpt>
      <trkpt lat="43.76995" lon="4.00243">
        <ele>69</ele>
        <time>2024-04-06T22:31:32Z</time>
      </trkpt>
      <trkpt lat="43.76991" lon="4.00255">
        <ele>69</ele>
        <time>2024-04-06T22:31:33Z</time>
      </trkpt>
      <trkpt lat="43.76968" lon="4.00297">
        <ele>69</ele>
        <time>2024-04-06T22:31:40Z</time>
      </trkpt>
      <trkpt lat="43.76963" lon="4.00312">
        <ele>68</ele>
        <time>2024-04-06T22:31:42Z</time>
      </trkpt>
      <trkpt lat="43.76961" lon="4.00332">
        <ele>68</ele>
        <time>2024-04-06T22:31:45Z</time>
      </trkpt>
      <trkpt lat="43.76962" lon="4.00354">
        <ele>67</ele>
        <time>2024-04-06T22:31:48Z</time>
      </trkpt>
      <trkpt lat="43.76968" lon="4.00376">
        <ele>67</ele>
        <time>2024-04-06T22:31:51Z</time>
      </trkpt>
      <trkpt lat="43.76975" lon="4.00388">
        <ele>66</ele>
        <time>2024-04-06T22:31:53Z</time>
      </trkpt>
      <trkpt lat="43.77018" lon="4.0043">
        <ele>66</ele>
        <time>2024-04-06T22:32:02Z</time>
      </trkpt>
      <trkpt lat="43.77022" lon="4.00436">
        <ele>66</ele>
        <time>2024-04-06T22:32:03Z</time>
      </trkpt>
      <trkpt lat="43.77038" lon="4.00501">
        <ele>65</ele>
        <time>2024-04-06T22:32:12Z</time>
      </trkpt>
      <trkpt lat="43.77045" lon="4.00523">
        <ele>64</ele>
        <time>2024-04-06T22:32:15Z</time>
      </trkpt>
      <trkpt lat="43.77063" lon="4.0056">
        <ele>62</ele>
        <time>2024-04-06T22:32:21Z</time>
      </trkpt>
      <trkpt lat="43.77073" lon="4.00575">
        <ele>62</ele>
        <time>2024-04-06T22:32:23Z</time>
      </trkpt>
      <trkpt lat="43.77095" lon="4.00599">
        <ele>60</ele>
        <time>2024-04-06T22:32:28Z</time>
      </trkpt>
      <trkpt lat="43.77118" lon="4.00614">
        <ele>58</ele>
        <time>2024-04-06T22:32:33Z</time>
      </trkpt>
      <trkpt lat="43.77184" lon="4.00653">
        <ele>55</ele>
        <time>2024-04-06T22:32:46Z</time>
      </trkpt>
      <trkpt lat="43.77203" lon="4.00663">
        <ele>56</ele>
        <time>2024-04-06T22:32:49Z</time>
      </trkpt>
      <trkpt lat="43.77211" lon="4.00669">
        <ele>57</ele>
        <time>2024-04-06T22:32:51Z</time>
      </trkpt>
      <trkpt lat="43.77225" lon="4.00686">
        <ele>58</ele>
        <time>2024-04-06T22:32:54Z</time>
      </trkpt>
      <trkpt lat="43.77232" lon="4.00698">
        <ele>58</ele>
        <time>2024-04-06T22:32:56Z</time>
      </trkpt>
      <trkpt lat="43.77236" lon="4.00711">
        <ele>58</ele>
        <time>2024-04-06T22:32:58Z</time>
      </trkpt>
      <trkpt lat="43.77238" lon="4.00727">
        <ele>58</ele>
        <time>2024-04-06T22:33:00Z</time>
      </trkpt>
      <trkpt lat="43.77239" lon="4.00739">
        <ele>58</ele>
        <time>2024-04-06T22:33:02Z</time>
      </trkpt>
      <trkpt lat="43.77233" lon="4.00781">
        <ele>58</ele>
        <time>2024-04-06T22:33:07Z</time>
      </trkpt>
      <trkpt lat="43.76993" lon="4.0168">
        <ele>53</ele>
        <time>2024-04-06T22:35:10Z</time>
      </trkpt>
      <trkpt lat="43.76986" lon="4.01716">
        <ele>53</ele>
        <time>2024-04-06T22:35:15Z</time>
      </trkpt>
      <trkpt lat="43.76983" lon="4.01746">
        <ele>54</ele>
        <time>2024-04-06T22:35:19Z</time>
      </trkpt>
      <trkpt lat="43.76982" lon="4.01774">
        <ele>53</ele>
        <time>2024-04-06T22:35:22Z</time>
      </trkpt>
      <trkpt lat="43.76985" lon="4.01826">
        <ele>51</ele>
        <time>2024-04-06T22:35:29Z</time>
      </trkpt>
      <trkpt lat="43.77" lon="4.01954">
        <ele>52</ele>
        <time>2024-04-06T22:35:46Z</time>
      </trkpt>
      <trkpt lat="43.77024" lon="4.02068">
        <ele>54</ele>
        <time>2024-04-06T22:36:01Z</time>
      </trkpt>
      <trkpt lat="43.77052" lon="4.02134">
        <ele>54</ele>
        <time>2024-04-06T22:36:11Z</time>
      </trkpt>
      <trkpt lat="43.77091" lon="4.02179">
        <ele>53</ele>
        <time>2024-04-06T22:36:20Z</time>
      </trkpt>
      <trkpt lat="43.77156" lon="4.02277">
        <ele>53</ele>
        <time>2024-04-06T22:36:37Z</time>
      </trkpt>
      <trkpt lat="43.77211" lon="4.02666">
        <ele>46</ele>
        <time>2024-04-06T22:37:28Z</time>
      </trkpt>
      <trkpt lat="43.77213" lon="4.02697">
        <ele>45</ele>
        <time>2024-04-06T22:37:32Z</time>
      </trkpt>
      <trkpt lat="43.77216" lon="4.02708">
        <ele>45</ele>
        <time>2024-04-06T22:37:33Z</time>
      </trkpt>
      <trkpt lat="43.77268" lon="4.0309">
        <ele>42</ele>
        <time>2024-04-06T22:38:23Z</time>
      </trkpt>
      <trkpt lat="43.77293" lon="4.03262">
        <ele>43</ele>
        <time>2024-04-06T22:38:46Z</time>
      </trkpt>
      <trkpt lat="43.77297" lon="4.03286">
        <ele>43</ele>
        <time>2024-04-06T22:38:49Z</time>
      </trkpt>
      <trkpt lat="43.77318" lon="4.03364">
        <ele>42</ele>
        <time>2024-04-06T22:39:00Z</time>
      </trkpt>
      <trkpt lat="43.7733" lon="4.03402">
        <ele>41</ele>
        <time>2024-04-06T22:39:05Z</time>
      </trkpt>
      <trkpt lat="43.77341" lon="4.03442">
        <ele>41</ele>
        <time>2024-04-06T22:39:11Z</time>
      </trkpt>
      <trkpt lat="43.7735" lon="4.03471">
        <ele>42</ele>
        <time>2024-04-06T22:39:15Z</time>
      </trkpt>
      <trkpt lat="43.7736" lon="4.03496">
        <ele>42</ele>
        <time>2024-04-06T22:39:18Z</time>
      </trkpt>
      <trkpt lat="43.77375" lon="4.03521">
        <ele>43</ele>
        <time>2024-04-06T22:39:23Z</time>
      </trkpt>
      <trkpt lat="43.77399" lon="4.03548">
        <ele>44</ele>
        <time>2024-04-06T22:39:28Z</time>
      </trkpt>
      <trkpt lat="43.77482" lon="4.03622">
        <ele>44</ele>
        <time>2024-04-06T22:39:46Z</time>
      </trkpt>
      <trkpt lat="43.77555" lon="4.03692">
        <ele>45</ele>
        <time>2024-04-06T22:40:01Z</time>
      </trkpt>
      <trkpt lat="43.77577" lon="4.03717">
        <ele>45</ele>
        <time>2024-04-06T22:40:07Z</time>
      </trkpt>
      <trkpt lat="43.77627" lon="4.0379">
        <ele>43</ele>
        <time>2024-04-06T22:40:19Z</time>
      </trkpt>
      <trkpt lat="43.77645" lon="4.03825">
        <ele>42</ele>
        <time>2024-04-06T22:40:25Z</time>
      </trkpt>
      <trkpt lat="43.77786" lon="4.04133">
        <ele>44</ele>
        <time>2024-04-06T22:41:12Z</time>
      </trkpt>
      <trkpt lat="43.778" lon="4.04161">
        <ele>45</ele>
        <time>2024-04-06T22:41:16Z</time>
      </trkpt>
      <trkpt lat="43.77891" lon="4.04296">
        <ele>43</ele>
        <time>2024-04-06T22:41:40Z</time>
      </trkpt>
      <trkpt lat="43.77963" lon="4.04423">
        <ele>43</ele>
        <time>2024-04-06T22:42:01Z</time>
      </trkpt>
      <trkpt lat="43.77994" lon="4.04496">
        <ele>45</ele>
        <time>2024-04-06T22:42:12Z</time>
      </trkpt>
      <trkpt lat="43.78029" lon="4.04588">
        <ele>45</ele>
        <time>2024-04-06T22:42:25Z</time>
      </trkpt>
      <trkpt lat="43.78034" lon="4.04608">
        <ele>45</ele>
        <time>2024-04-06T22:42:28Z</time>
      </trkpt>
      <trkpt lat="43.78049" lon="4.04706">
        <ele>46</ele>
        <time>2024-04-06T22:42:40Z</time>
      </trkpt>
      <trkpt lat="43.78076" lon="4.04824">
        <ele>48</ele>
        <time>2024-04-06T22:42:56Z</time>
      </trkpt>
      <trkpt lat="43.78078" lon="4.04847">
        <ele>48</ele>
        <time>2024-04-06T22:42:59Z</time>
      </trkpt>
      <trkpt lat="43.78078" lon="4.0487">
        <ele>48</ele>
        <time>2024-04-06T22:43:02Z</time>
      </trkpt>
      <trkpt lat="43.78048" lon="4.05197">
        <ele>47</ele>
        <time>2024-04-06T22:43:45Z</time>
      </trkpt>
      <trkpt lat="43.78033" lon="4.05402">
        <ele>46</ele>
        <time>2024-04-06T22:44:11Z</time>
      </trkpt>
      <trkpt lat="43.78026" lon="4.05446">
        <ele>47</ele>
        <time>2024-04-06T22:44:17Z</time>
      </trkpt>
      <trkpt lat="43.7798" lon="4.05645">
        <ele>47</ele>
        <time>2024-04-06T22:44:44Z</time>
      </trkpt>
      <trkpt lat="43.77915" lon="4.05864">
        <ele>47</ele>
        <time>2024-04-06T22:45:14Z</time>
      </trkpt>
      <trkpt lat="43.7791" lon="4.05884">
        <ele>46</ele>
        <time>2024-04-06T22:45:17Z</time>
      </trkpt>
      <trkpt lat="43.77909" lon="4.059">
        <ele>46</ele>
        <time>2024-04-06T22:45:19Z</time>
      </trkpt>
      <trkpt lat="43.7791" lon="4.06001">
        <ele>45</ele>
        <time>2024-04-06T22:45:32Z</time>
      </trkpt>
      <trkpt lat="43.77902" lon="4.06036">
        <ele>45</ele>
        <time>2024-04-06T22:45:37Z</time>
      </trkpt>
      <trkpt lat="43.7789" lon="4.06061">
        <ele>45</ele>
        <time>2024-04-06T22:45:41Z</time>
      </trkpt>
      <trkpt lat="43.77829" lon="4.06153">
        <ele>46</ele>
        <time>2024-04-06T22:45:57Z</time>
      </trkpt>
      <trkpt lat="43.77803" lon="4.06199">
        <ele>48</ele>
        <time>2024-04-06T22:46:04Z</time>
      </trkpt>
      <trkpt lat="43.7779" lon="4.06239">
        <ele>50</ele>
        <time>2024-04-06T22:46:10Z</time>
      </trkpt>
      <trkpt lat="43.77776" lon="4.06349">
        <ele>54</ele>
        <time>2024-04-06T22:46:24Z</time>
      </trkpt>
      <trkpt lat="43.77773" lon="4.0636">
        <ele>55</ele>
        <time>2024-04-06T22:46:26Z</time>
      </trkpt>
      <trkpt lat="43.7774" lon="4.06429">
        <ele>58</ele>
        <time>2024-04-06T22:46:36Z</time>
      </trkpt>
      <trkpt lat="43.77731" lon="4.06454">
        <ele>59</ele>
        <time>2024-04-06T22:46:40Z</time>
      </trkpt>
      <trkpt lat="43.77705" lon="4.06541">
        <ele>61</ele>
        <time>2024-04-06T22:46:52Z</time>
      </trkpt>
      <trkpt lat="43.77698" lon="4.06557">
        <ele>61</ele>
        <time>2024-04-06T22:46:54Z</time>
      </trkpt>
      <trkpt lat="43.7768" lon="4.06576">
        <ele>61</ele>
        <time>2024-04-06T22:46:58Z</time>
      </trkpt>
      <trkpt lat="43.77672" lon="4.06577">
        <ele>61</ele>
        <time>2024-04-06T22:47:00Z</time>
      </trkpt>
      <trkpt lat="43.77665" lon="4.06583">
        <ele>61</ele>
        <time>2024-04-06T22:47:01Z</time>
      </trkpt>
      <trkpt lat="43.77655" lon="4.06584">
        <ele>61</ele>
        <time>2024-04-06T22:47:03Z</time>
      </trkpt>
      <trkpt lat="43.77656" lon="4.066">
        <ele>60</ele>
        <time>2024-04-06T22:47:05Z</time>
      </trkpt>
      <trkpt lat="43.77658" lon="4.06613">
        <ele>60</ele>
        <time>2024-04-06T22:47:07Z</time>
      </trkpt>
      <trkpt lat="43.77649" lon="4.06639">
        <ele>58</ele>
        <time>2024-04-06T22:47:10Z</time>
      </trkpt>
      <trkpt lat="43.77643" lon="4.06646">
        <ele>58</ele>
        <time>2024-04-06T22:47:12Z</time>
      </trkpt>
      <trkpt lat="43.77609" lon="4.06706">
        <ele>55</ele>
        <time>2024-04-06T22:47:22Z</time>
      </trkpt>
      <trkpt lat="43.77576" lon="4.06756">
        <ele>53</ele>
        <time>2024-04-06T22:47:30Z</time>
      </trkpt>
      <trkpt lat="43.77567" lon="4.06761">
        <ele>52</ele>
        <time>2024-04-06T22:47:32Z</time>
      </trkpt>
      <trkpt lat="43.77534" lon="4.06804">
        <ele>50</ele>
        <time>2024-04-06T22:47:40Z</time>
      </trkpt>
      <trkpt lat="43.77513" lon="4.06846">
        <ele>48</ele>
        <time>2024-04-06T22:47:47Z</time>
      </trkpt>
      <trkpt lat="43.77507" lon="4.06869">
        <ele>48</ele>
        <time>2024-04-06T22:47:50Z</time>
      </trkpt>
      <trkpt lat="43.77506" lon="4.06887">
        <ele>47</ele>
        <time>2024-04-06T22:47:52Z</time>
      </trkpt>
      <trkpt lat="43.77507" lon="4.06914">
        <ele>47</ele>
        <time>2024-04-06T22:47:56Z</time>
      </trkpt>
      <trkpt lat="43.7751" lon="4.06937">
        <ele>47</ele>
        <time>2024-04-06T22:47:59Z</time>
      </trkpt>
      <trkpt lat="43.77517" lon="4.06954">
        <ele>47</ele>
        <time>2024-04-06T22:48:01Z</time>
      </trkpt>
      <trkpt lat="43.77529" lon="4.06976">
        <ele>47</ele>
        <time>2024-04-06T22:48:05Z</time>
      </trkpt>
      <trkpt lat="43.77541" lon="4.06992">
        <ele>47</ele>
        <time>2024-04-06T22:48:08Z</time>
      </trkpt>
      <trkpt lat="43.77555" lon="4.07004">
        <ele>47</ele>
        <time>2024-04-06T22:48:11Z</time>
      </trkpt>
      <trkpt lat="43.77573" lon="4.07014">
        <ele>48</ele>
        <time>2024-04-06T22:48:14Z</time>
      </trkpt>
      <trkpt lat="43.776" lon="4.07023">
        <ele>47</ele>
        <time>2024-04-06T22:48:19Z</time>
      </trkpt>
      <trkpt lat="43.77621" lon="4.07038">
        <ele>47</ele>
        <time>2024-04-06T22:48:23Z</time>
      </trkpt>
      <trkpt lat="43.77639" lon="4.07043">
        <ele>46</ele>
        <time>2024-04-06T22:48:26Z</time>
      </trkpt>
      <trkpt lat="43.77681" lon="4.07099">
        <ele>47</ele>
        <time>2024-04-06T22:48:37Z</time>
      </trkpt>
      <trkpt lat="43.77712" lon="4.07143">
        <ele>48</ele>
        <time>2024-04-06T22:48:45Z</time>
      </trkpt>
      <trkpt lat="43.77721" lon="4.07159">
        <ele>48</ele>
        <time>2024-04-06T22:48:47Z</time>
      </trkpt>
      <trkpt lat="43.77728" lon="4.07182">
        <ele>47</ele>
        <time>2024-04-06T22:48:51Z</time>
      </trkpt>
      <trkpt lat="43.77733" lon="4.07208">
        <ele>47</ele>
        <time>2024-04-06T22:48:54Z</time>
      </trkpt>
      <trkpt lat="43.77736" lon="4.07243">
        <ele>47</ele>
        <time>2024-04-06T22:48:59Z</time>
      </trkpt>
      <trkpt lat="43.77739" lon="4.07296">
        <ele>44</ele>
        <time>2024-04-06T22:49:05Z</time>
      </trkpt>
      <trkpt lat="43.77714" lon="4.07427">
        <ele>39</ele>
        <time>2024-04-06T22:49:23Z</time>
      </trkpt>
      <trkpt lat="43.77705" lon="4.07439">
        <ele>39</ele>
        <time>2024-04-06T22:49:25Z</time>
      </trkpt>
      <trkpt lat="43.77705" lon="4.07446">
        <ele>38</ele>
        <time>2024-04-06T22:49:26Z</time>
      </trkpt>
      <trkpt lat="43.77715" lon="4.07451">
        <ele>38</ele>
        <time>2024-04-06T22:49:28Z</time>
      </trkpt>
      <trkpt lat="43.7771" lon="4.07471">
        <ele>38</ele>
        <time>2024-04-06T22:49:30Z</time>
      </trkpt>
      <trkpt lat="43.77707" lon="4.07494">
        <ele>37</ele>
        <time>2024-04-06T22:49:33Z</time>
      </trkpt>
      <trkpt lat="43.77708" lon="4.07522">
        <ele>36</ele>
        <time>2024-04-06T22:49:37Z</time>
      </trkpt>
      <trkpt lat="43.7771" lon="4.07542">
        <ele>35</ele>
        <time>2024-04-06T22:49:40Z</time>
      </trkpt>
      <trkpt lat="43.77719" lon="4.07571">
        <ele>35</ele>
        <time>2024-04-06T22:49:44Z</time>
      </trkpt>
      <trkpt lat="43.77749" lon="4.0761">
        <ele>36</ele>
        <time>2024-04-06T22:49:51Z</time>
      </trkpt>
      <trkpt lat="43.77836" lon="4.07708">
        <ele>37</ele>
        <time>2024-04-06T22:50:11Z</time>
      </trkpt>
      <trkpt lat="43.77847" lon="4.07728">
        <ele>36</ele>
        <time>2024-04-06T22:50:14Z</time>
      </trkpt>
      <trkpt lat="43.77852" lon="4.07742">
        <ele>35</ele>
        <time>2024-04-06T22:50:16Z</time>
      </trkpt>
      <trkpt lat="43.77846" lon="4.07745">
        <ele>35</ele>
        <time>2024-04-06T22:50:17Z</time>
      </trkpt>
      <trkpt lat="43.77842" lon="4.07757">
        <ele>34</ele>
        <time>2024-04-06T22:50:19Z</time>
      </trkpt>
      <trkpt lat="43.77841" lon="4.07762">
        <ele>34</ele>
        <time>2024-04-06T22:50:20Z</time>
      </trkpt>
      <trkpt lat="43.77824" lon="4.07779">
        <ele>33</ele>
        <time>2024-04-06T22:50:23Z</time>
      </trkpt>
      <trkpt lat="43.77819" lon="4.07795">
        <ele>31</ele>
        <time>2024-04-06T22:50:26Z</time>
      </trkpt>
      <trkpt lat="43.77813" lon="4.07804">
        <ele>31</ele>
        <time>2024-04-06T22:50:27Z</time>
      </trkpt>
      <trkpt lat="43.77821" lon="4.07818">
        <ele>30</ele>
        <time>2024-04-06T22:50:30Z</time>
      </trkpt>
      <trkpt lat="43.77815" lon="4.07822">
        <ele>30</ele>
        <time>2024-04-06T22:50:31Z</time>
      </trkpt>
      <trkpt lat="43.7781" lon="4.07831">
        <ele>29</ele>
        <time>2024-04-06T22:50:32Z</time>
      </trkpt>
      <trkpt lat="43.77814" lon="4.07839">
        <ele>29</ele>
        <time>2024-04-06T22:50:33Z</time>
      </trkpt>
      <trkpt lat="43.77819" lon="4.07851">
        <ele>29</ele>
        <time>2024-04-06T22:50:35Z</time>
      </trkpt>
      <trkpt lat="43.77837" lon="4.07881">
        <ele>29</ele>
        <time>2024-04-06T22:50:40Z</time>
      </trkpt>
      <trkpt lat="43.77817" lon="4.07902">
        <ele>28</ele>
        <time>2024-04-06T22:50:45Z</time>
      </trkpt>
      <trkpt lat="43.77828" lon="4.07929">
        <ele>28</ele>
        <time>2024-04-06T22:50:49Z</time>
      </trkpt>
      <trkpt lat="43.77836" lon="4.07963">
        <ele>28</ele>
        <time>2024-04-06T22:50:53Z</time>
      </trkpt>
      <trkpt lat="43.77863" lon="4.08017">
        <ele>27</ele>
        <time>2024-04-06T22:51:02Z</time>
      </trkpt>
      <trkpt lat="43.7788" lon="4.08042">
        <ele>27</ele>
        <time>2024-04-06T22:51:06Z</time>
      </trkpt>
      <trkpt lat="43.77893" lon="4.08057">
        <ele>27</ele>
        <time>2024-04-06T22:51:09Z</time>
      </trkpt>
      <trkpt lat="43.77916" lon="4.08043">
        <ele>27</ele>
        <time>2024-04-06T22:51:14Z</time>
      </trkpt>
      <trkpt lat="43.77926" lon="4.08032">
        <ele>27</ele>
        <time>2024-04-06T22:51:16Z</time>
      </trkpt>
      <trkpt lat="43.77946" lon="4.07995">
        <ele>27</ele>
        <time>2024-04-06T22:51:22Z</time>
      </trkpt>
      <trkpt lat="43.77958" lon="4.07985">
        <ele>27</ele>
        <time>2024-04-06T22:51:24Z</time>
      </trkpt>
      <trkpt lat="43.77962" lon="4.07987">
        <ele>27</ele>
        <time>2024-04-06T22:51:25Z</time>
      </trkpt>
      <trkpt lat="43.77966" lon="4.07986">
        <ele>27</ele>
        <time>2024-04-06T22:51:26Z</time>
      </trkpt>
      <trkpt lat="43.77982" lon="4.08013">
        <ele>27</ele>
        <time>2024-04-06T22:51:30Z</time>
      </trkpt>
      <trkpt lat="43.77987" lon="4.08017">
        <ele>28</ele>
        <time>2024-04-06T22:51:31Z</time>
      </trkpt>
      <trkpt lat="43.78074" lon="4.08146">
        <ele>29</ele>
        <time>2024-04-06T22:51:54Z</time>
      </trkpt>
      <trkpt lat="43.78086" lon="4.08168">
        <ele>29</ele>
        <time>2024-04-06T22:51:58Z</time>
      </trkpt>
      <trkpt lat="43.78086" lon="4.08172">
        <ele>29</ele>
        <time>2024-04-06T22:51:58Z</time>
      </trkpt>
      <trkpt lat="43.78099" lon="4.08196">
        <ele>29</ele>
        <time>2024-04-06T22:52:02Z</time>
      </trkpt>
      <trkpt lat="43.78109" lon="4.08372">
        <ele>27</ele>
        <time>2024-04-06T22:52:25Z</time>
      </trkpt>
      <trkpt lat="43.78135" lon="4.08603">
        <ele>27</ele>
        <time>2024-04-06T22:52:55Z</time>
      </trkpt>
      <trkpt lat="43.78138" lon="4.08613">
        <ele>27</ele>
        <time>2024-04-06T22:52:56Z</time>
      </trkpt>
      <trkpt lat="43.78143" lon="4.0862">
        <ele>26</ele>
        <time>2024-04-06T22:52:57Z</time>
      </trkpt>
      <trkpt lat="43.78149" lon="4.08625">
        <ele>26</ele>
        <time>2024-04-06T22:52:59Z</time>
      </trkpt>
      <trkpt lat="43.78185" lon="4.08637">
        <ele>26</ele>
        <time>2024-04-06T22:53:05Z</time>
      </trkpt>
      <trkpt lat="43.78188" lon="4.0864">
        <ele>26</ele>
        <time>2024-04-06T22:53:06Z</time>
      </trkpt>
      <trkpt lat="43.78192" lon="4.0865">
        <ele>26</ele>
        <time>2024-04-06T22:53:07Z</time>
      </trkpt>
      <trkpt lat="43.78192" lon="4.08657">
        <ele>26</ele>
        <time>2024-04-06T22:53:08Z</time>
      </trkpt>
      <trkpt lat="43.78184" lon="4.08669">
        <ele>26</ele>
        <time>2024-04-06T22:53:10Z</time>
      </trkpt>
      <trkpt lat="43.78178" lon="4.08675">
        <ele>26</ele>
        <time>2024-04-06T22:53:12Z</time>
      </trkpt>
      <trkpt lat="43.78176" lon="4.08684">
        <ele>26</ele>
        <time>2024-04-06T22:53:13Z</time>
      </trkpt>
      <trkpt lat="43.78176" lon="4.08691">
        <ele>27</ele>
        <time>2024-04-06T22:53:14Z</time>
      </trkpt>
      <trkpt lat="43.7818" lon="4.08701">
        <ele>27</ele>
        <time>2024-04-06T22:53:15Z</time>
      </trkpt>
      <trkpt lat="43.78185" lon="4.08708">
        <ele>27</ele>
        <time>2024-04-06T22:53:16Z</time>
      </trkpt>
      <trkpt lat="43.78194" lon="4.08715">
        <ele>27</ele>
        <time>2024-04-06T22:53:18Z</time>
      </trkpt>
      <trkpt lat="43.78199" lon="4.08717">
        <ele>27</ele>
        <time>2024-04-06T22:53:19Z</time>
      </trkpt>
      <trkpt lat="43.78212" lon="4.08716">
        <ele>27</ele>
        <time>2024-04-06T22:53:21Z</time>
      </trkpt>
      <trkpt lat="43.78226" lon="4.08717">
        <ele>27</ele>
        <time>2024-04-06T22:53:24Z</time>
      </trkpt>
      <trkpt lat="43.78237" lon="4.08725">
        <ele>27</ele>
        <time>2024-04-06T22:53:26Z</time>
      </trkpt>
      <trkpt lat="43.78247" lon="4.08726">
        <ele>27</ele>
        <time>2024-04-06T22:53:28Z</time>
      </trkpt>
      <trkpt lat="43.78257" lon="4.08725">
        <ele>27</ele>
        <time>2024-04-06T22:53:30Z</time>
      </trkpt>
      <trkpt lat="43.78257" lon="4.08734">
        <ele>27</ele>
        <time>2024-04-06T22:53:31Z</time>
      </trkpt>
      <trkpt lat="43.78266" lon="4.08756">
        <ele>27</ele>
        <time>2024-04-06T22:53:34Z</time>
      </trkpt>
      <trkpt lat="43.78265" lon="4.08763">
        <ele>27</ele>
        <time>2024-04-06T22:53:35Z</time>
      </trkpt>
      <trkpt lat="43.78209" lon="4.08799">
        <ele>29</ele>
        <time>2024-04-06T22:53:46Z</time>
      </trkpt>
      <trkpt lat="43.78205" lon="4.08803">
        <ele>29</ele>
        <time>2024-04-06T22:53:47Z</time>
      </trkpt>
      <trkpt lat="43.78196" lon="4.08809">
        <ele>30</ele>
        <time>2024-04-06T22:53:49Z</time>
      </trkpt>
      <trkpt lat="43.7819" lon="4.08814">
        <ele>30</ele>
        <time>2024-04-06T22:53:50Z</time>
      </trkpt>
      <trkpt lat="43.78187" lon="4.08816">
        <ele>30</ele>
        <time>2024-04-06T22:53:51Z</time>
      </trkpt>
      <trkpt lat="43.78201" lon="4.08843">
        <ele>30</ele>
        <time>2024-04-06T22:53:55Z</time>
      </trkpt>
      <trkpt lat="43.78239" lon="4.08933">
        <ele>29</ele>
        <time>2024-04-06T22:54:08Z</time>
      </trkpt>
      <trkpt lat="43.78243" lon="4.08943">
        <ele>30</ele>
        <time>2024-04-06T22:54:10Z</time>
      </trkpt>
      <trkpt lat="43.783" lon="4.08885">
        <ele>30</ele>
        <time>2024-04-06T22:54:22Z</time>
      </trkpt>
      <trkpt lat="43.78393" lon="4.08798">
        <ele>29</ele>
        <time>2024-04-06T22:54:42Z</time>
      </trkpt>
      <trkpt lat="43.78416" lon="4.0884">
        <ele>32</ele>
        <time>2024-04-06T22:54:49Z</time>
      </trkpt>
      <trkpt lat="43.78455" lon="4.08914">
        <ele>33</ele>
        <time>2024-04-06T22:55:01Z</time>
      </trkpt>
      <trkpt lat="43.7848" lon="4.08977">
        <ele>33</ele>
        <time>2024-04-06T22:55:10Z</time>
      </trkpt>
      <trkpt lat="43.78487" lon="4.0903">
        <ele>34</ele>
        <time>2024-04-06T22:55:17Z</time>
      </trkpt>
      <trkpt lat="43.78467" lon="4.09028">
        <ele>35</ele>
        <time>2024-04-06T22:55:21Z</time>
      </trkpt>
      <trkpt lat="43.78463" lon="4.09025">
        <ele>35</ele>
        <time>2024-04-06T22:55:21Z</time>
      </trkpt>
      <trkpt lat="43.78458" lon="4.09019">
        <ele>35</ele>
        <time>2024-04-06T22:55:23Z</time>
      </trkpt>
      <trkpt lat="43.78435" lon="4.08975">
        <ele>34</ele>
        <time>2024-04-06T22:55:29Z</time>
      </trkpt>
      <trkpt lat="43.78362" lon="4.08826">
        <ele>29</ele>
        <time>2024-04-06T22:55:53Z</time>
      </trkpt>
      <trkpt lat="43.78393" lon="4.08798">
        <ele>29</ele>
        <time>2024-04-06T22:55:59Z</time>
      </trkpt>
      <trkpt lat="43.78416" lon="4.0884">
        <ele>32</ele>
        <time>2024-04-06T22:56:06Z</time>
      </trkpt>
      <trkpt lat="43.78551" lon="4.08732">
        <ele>30</ele>
        <time>2024-04-06T22:56:34Z</time>
      </trkpt>
      <trkpt lat="43.78559" lon="4.08742">
        <ele>30</ele>
        <time>2024-04-06T22:56:36Z</time>
      </trkpt>
      <trkpt lat="43.78588" lon="4.08818">
        <ele>31</ele>
        <time>2024-04-06T22:56:47Z</time>
      </trkpt>
      <trkpt lat="43.7861" lon="4.08919">
        <ele>30</ele>
        <time>2024-04-06T22:57:00Z</time>
      </trkpt>
      <trkpt lat="43.78617" lon="4.09012">
        <ele>31</ele>
        <time>2024-04-06T22:57:12Z</time>
      </trkpt>
      <trkpt lat="43.7862" lon="4.09019">
        <ele>31</ele>
        <time>2024-04-06T22:57:13Z</time>
      </trkpt>
      <trkpt lat="43.78697" lon="4.09013">
        <ele>30</ele>
        <time>2024-04-06T22:57:27Z</time>
      </trkpt>
      <trkpt lat="43.78694" lon="4.09105">
        <ele>37</ele>
        <time>2024-04-06T22:57:39Z</time>
      </trkpt>
      <trkpt lat="43.78695" lon="4.0912">
        <ele>39</ele>
        <time>2024-04-06T22:57:41Z</time>
      </trkpt>
      <trkpt lat="43.78699" lon="4.09136">
        <ele>41</ele>
        <time>2024-04-06T22:57:43Z</time>
      </trkpt>
      <trkpt lat="43.78704" lon="4.09147">
        <ele>43</ele>
        <time>2024-04-06T22:57:45Z</time>
      </trkpt>
      <trkpt lat="43.78716" lon="4.09161">
        <ele>44</ele>
        <time>2024-04-06T22:57:47Z</time>
      </trkpt>
      <trkpt lat="43.78727" lon="4.09167">
        <ele>44</ele>
        <time>2024-04-06T22:57:50Z</time>
      </trkpt>
      <trkpt lat="43.78757" lon="4.09175">
        <ele>45</ele>
        <time>2024-04-06T22:57:55Z</time>
      </trkpt>
      <trkpt lat="43.78858" lon="4.09199">
        <ele>45</ele>
        <time>2024-04-06T22:58:13Z</time>
      </trkpt>
      <trkpt lat="43.78887" lon="4.0921">
        <ele>46</ele>
        <time>2024-04-06T22:58:19Z</time>
      </trkpt>
      <trkpt lat="43.78913" lon="4.09225">
        <ele>46</ele>
        <time>2024-04-06T22:58:24Z</time>
      </trkpt>
      <trkpt lat="43.78945" lon="4.09248">
        <ele>49</ele>
        <time>2024-04-06T22:58:30Z</time>
      </trkpt>
      <trkpt lat="43.78971" lon="4.09276">
        <ele>52</ele>
        <time>2024-04-06T22:58:36Z</time>
      </trkpt>
      <trkpt lat="43.78995" lon="4.09313">
        <ele>55</ele>
        <time>2024-04-06T22:58:42Z</time>
      </trkpt>
      <trkpt lat="43.79071" lon="4.09447">
        <ele>62</ele>
        <time>2024-04-06T22:59:04Z</time>
      </trkpt>
      <trkpt lat="43.79091" lon="4.09488">
        <ele>64</ele>
        <time>2024-04-06T22:59:10Z</time>
      </trkpt>
      <trkpt lat="43.79201" lon="4.09776">
        <ele>75</ele>
        <time>2024-04-06T22:59:52Z</time>
      </trkpt>
      <trkpt lat="43.79238" lon="4.09847">
        <ele>77</ele>
        <time>2024-04-06T23:00:04Z</time>
      </trkpt>
      <trkpt lat="43.79244" lon="4.09865">
        <ele>78</ele>
        <time>2024-04-06T23:00:06Z</time>
      </trkpt>
      <trkpt lat="43.79246" lon="4.09884">
        <ele>79</ele>
        <time>2024-04-06T23:00:09Z</time>
      </trkpt>
      <trkpt lat="43.79244" lon="4.09901">
        <ele>81</ele>
        <time>2024-04-06T23:00:11Z</time>
      </trkpt>
      <trkpt lat="43.7924" lon="4.0992">
        <ele>83</ele>
        <time>2024-04-06T23:00:13Z</time>
      </trkpt>
      <trkpt lat="43.79225" lon="4.09962">
        <ele>85</ele>
        <time>2024-04-06T23:00:19Z</time>
      </trkpt>
      <trkpt lat="43.79213" lon="4.09999">
        <ele>87</ele>
        <time>2024-04-06T23:00:25Z</time>
      </trkpt>
      <trkpt lat="43.79197" lon="4.10061">
        <ele>85</ele>
        <time>2024-04-06T23:00:33Z</time>
      </trkpt>
      <trkpt lat="43.79185" lon="4.10152">
        <ele>81</ele>
        <time>2024-04-06T23:00:45Z</time>
      </trkpt>
      <trkpt lat="43.7918" lon="4.10176">
        <ele>80</ele>
        <time>2024-04-06T23:00:48Z</time>
      </trkpt>
      <trkpt lat="43.79161" lon="4.10243">
        <ele>78</ele>
        <time>2024-04-06T23:00:57Z</time>
      </trkpt>
      <trkpt lat="43.79046" lon="4.10565">
        <ele>73</ele>
        <time>2024-04-06T23:01:43Z</time>
      </trkpt>
      <trkpt lat="43.79033" lon="4.10596">
        <ele>73</ele>
        <time>2024-04-06T23:01:48Z</time>
      </trkpt>
      <trkpt lat="43.79005" lon="4.1065">
        <ele>71</ele>
        <time>2024-04-06T23:01:57Z</time>
      </trkpt>
      <trkpt lat="43.78986" lon="4.10679">
        <ele>71</ele>
        <time>2024-04-06T23:02:02Z</time>
      </trkpt>
      <trkpt lat="43.78963" lon="4.1071">
        <ele>71</ele>
        <time>2024-04-06T23:02:07Z</time>
      </trkpt>
      <trkpt lat="43.78852" lon="4.10841">
        <ele>68</ele>
        <time>2024-04-06T23:02:33Z</time>
      </trkpt>
      <trkpt lat="43.7883" lon="4.10871">
        <ele>67</ele>
        <time>2024-04-06T23:02:39Z</time>
      </trkpt>
      <trkpt lat="43.78812" lon="4.10901">
        <ele>68</ele>
        <time>2024-04-06T23:02:44Z</time>
      </trkpt>
      <trkpt lat="43.78798" lon="4.1093">
        <ele>68</ele>
        <time>2024-04-06T23:02:48Z</time>
      </trkpt>
      <trkpt lat="43.78781" lon="4.10973">
        <ele>66</ele>
        <time>2024-04-06T23:02:55Z</time>
      </trkpt>
      <trkpt lat="43.78769" lon="4.11016">
        <ele>63</ele>
        <time>2024-04-06T23:03:01Z</time>
      </trkpt>
      <trkpt lat="43.7876" lon="4.11058">
        <ele>60</ele>
        <time>2024-04-06T23:03:06Z</time>
      </trkpt>
      <trkpt lat="43.78755" lon="4.11117">
        <ele>58</ele>
        <time>2024-04-06T23:03:14Z</time>
      </trkpt>
      <trkpt lat="43.78754" lon="4.11157">
        <ele>58</ele>
        <time>2024-04-06T23:03:19Z</time>
      </trkpt>
      <trkpt lat="43.78757" lon="4.11197">
        <ele>59</ele>
        <time>2024-04-06T23:03:24Z</time>
      </trkpt>
      <trkpt lat="43.78761" lon="4.11228">
        <ele>60</ele>
        <time>2024-04-06T23:03:28Z</time>
      </trkpt>
      <trkpt lat="43.78774" lon="4.11299">
        <ele>61</ele>
        <time>2024-04-06T23:03:38Z</time>
      </trkpt>
      <trkpt lat="43.78777" lon="4.11312">
        <ele>61</ele>
        <time>2024-04-06T23:03:39Z</time>
      </trkpt>
      <trkpt lat="43.78803" lon="4.11431">
        <ele>61</ele>
        <time>2024-04-06T23:03:55Z</time>
      </trkpt>
      <trkpt lat="43.78808" lon="4.11462">
        <ele>61</ele>
        <time>2024-04-06T23:03:59Z</time>
      </trkpt>
      <trkpt lat="43.78815" lon="4.11526">
        <ele>61</ele>
        <time>2024-04-06T23:04:08Z</time>
      </trkpt>
      <trkpt lat="43.78817" lon="4.1161">
        <ele>64</ele>
        <time>2024-04-06T23:04:18Z</time>
      </trkpt>
      <trkpt lat="43.78814" lon="4.11671">
        <ele>66</ele>
        <time>2024-04-06T23:04:26Z</time>
      </trkpt>
      <trkpt lat="43.78808" lon="4.11724">
        <ele>67</ele>
        <time>2024-04-06T23:04:33Z</time>
      </trkpt>
      <trkpt lat="43.78796" lon="4.1178">
        <ele>68</ele>
        <time>2024-04-06T23:04:41Z</time>
      </trkpt>
      <trkpt lat="43.78785" lon="4.11826">
        <ele>69</ele>
        <time>2024-04-06T23:04:47Z</time>
      </trkpt>
      <trkpt lat="43.7876" lon="4.11904">
        <ele>68</ele>
        <time>2024-04-06T23:04:58Z</time>
      </trkpt>
      <trkpt lat="43.7874" lon="4.11984">
        <ele>66</ele>
        <time>2024-04-06T23:05:09Z</time>
      </trkpt>
      <trkpt lat="43.78728" lon="4.12065">
        <ele>67</ele>
        <time>2024-04-06T23:05:19Z</time>
      </trkpt>
      <trkpt lat="43.78724" lon="4.12135">
        <ele>69</ele>
        <time>2024-04-06T23:05:28Z</time>
      </trkpt>
      <trkpt lat="43.78715" lon="4.12221">
        <ele>70</ele>
        <time>2024-04-06T23:05:40Z</time>
      </trkpt>
      <trkpt lat="43.787" lon="4.1228">
        <ele>70</ele>
        <time>2024-04-06T23:05:48Z</time>
      </trkpt>
      <trkpt lat="43.78692" lon="4.12295">
        <ele>70</ele>
        <time>2024-04-06T23:05:50Z</time>
      </trkpt>
      <trkpt lat="43.78685" lon="4.123">
        <ele>70</ele>
        <time>2024-04-06T23:05:51Z</time>
      </trkpt>
      <trkpt lat="43.78679" lon="4.12309">
        <ele>70</ele>
        <time>2024-04-06T23:05:53Z</time>
      </trkpt>
      <trkpt lat="43.78678" lon="4.1232">
        <ele>69</ele>
        <time>2024-04-06T23:05:54Z</time>
      </trkpt>
      <trkpt lat="43.7868" lon="4.12329">
        <ele>69</ele>
        <time>2024-04-06T23:05:56Z</time>
      </trkpt>
      <trkpt lat="43.78679" lon="4.12367">
        <ele>69</ele>
        <time>2024-04-06T23:06:00Z</time>
      </trkpt>
      <trkpt lat="43.78633" lon="4.12486">
        <ele>73</ele>
        <time>2024-04-06T23:06:18Z</time>
      </trkpt>
      <trkpt lat="43.78558" lon="4.12643">
        <ele>72</ele>
        <time>2024-04-06T23:06:42Z</time>
      </trkpt>
      <trkpt lat="43.78462" lon="4.128">
        <ele>79</ele>
        <time>2024-04-06T23:07:08Z</time>
      </trkpt>
      <trkpt lat="43.78347" lon="4.12973">
        <ele>82</ele>
        <time>2024-04-06T23:07:39Z</time>
      </trkpt>
      <trkpt lat="43.78244" lon="4.13152">
        <ele>80</ele>
        <time>2024-04-06T23:08:08Z</time>
      </trkpt>
      <trkpt lat="43.78125" lon="4.1339">
        <ele>80</ele>
        <time>2024-04-06T23:08:45Z</time>
      </trkpt>
      <trkpt lat="43.78025" lon="4.13616">
        <ele>82</ele>
        <time>2024-04-06T23:09:19Z</time>
      </trkpt>
      <trkpt lat="43.77963" lon="4.13736">
        <ele>75</ele>
        <time>2024-04-06T23:09:38Z</time>
      </trkpt>
      <trkpt lat="43.77829" lon="4.13938">
        <ele>80</ele>
        <time>2024-04-06T23:10:13Z</time>
      </trkpt>
      <trkpt lat="43.77789" lon="4.14013">
        <ele>81</ele>
        <time>2024-04-06T23:10:25Z</time>
      </trkpt>
      <trkpt lat="43.77751" lon="4.14095">
        <ele>78</ele>
        <time>2024-04-06T23:10:38Z</time>
      </trkpt>
      <trkpt lat="43.77661" lon="4.14336">
        <ele>82</ele>
        <time>2024-04-06T23:11:13Z</time>
      </trkpt>
      <trkpt lat="43.77627" lon="4.14436">
        <ele>83</ele>
        <time>2024-04-06T23:11:27Z</time>
      </trkpt>
      <trkpt lat="43.77605" lon="4.14518">
        <ele>81</ele>
        <time>2024-04-06T23:11:38Z</time>
      </trkpt>
      <trkpt lat="43.77574" lon="4.14691">
        <ele>80</ele>
        <time>2024-04-06T23:12:01Z</time>
      </trkpt>
      <trkpt lat="43.77557" lon="4.1478">
        <ele>79</ele>
        <time>2024-04-06T23:12:13Z</time>
      </trkpt>
      <trkpt lat="43.77535" lon="4.14861">
        <ele>81</ele>
        <time>2024-04-06T23:12:24Z</time>
      </trkpt>
      <trkpt lat="43.77397" lon="4.15266">
        <ele>72</ele>
        <time>2024-04-06T23:13:22Z</time>
      </trkpt>
      <trkpt lat="43.77369" lon="4.15359">
        <ele>70</ele>
        <time>2024-04-06T23:13:35Z</time>
      </trkpt>
      <trkpt lat="43.77357" lon="4.15428">
        <ele>69</ele>
        <time>2024-04-06T23:13:44Z</time>
      </trkpt>
      <trkpt lat="43.77351" lon="4.15473">
        <ele>68</ele>
        <time>2024-04-06T23:13:50Z</time>
      </trkpt>
      <trkpt lat="43.77349" lon="4.15518">
        <ele>68</ele>
        <time>2024-04-06T23:13:55Z</time>
      </trkpt>
      <trkpt lat="43.7735" lon="4.15639">
        <ele>67</ele>
        <time>2024-04-06T23:14:11Z</time>
      </trkpt>
      <trkpt lat="43.77367" lon="4.15892">
        <ele>67</ele>
        <time>2024-04-06T23:14:44Z</time>
      </trkpt>
      <trkpt lat="43.77366" lon="4.159">
        <ele>67</ele>
        <time>2024-04-06T23:14:45Z</time>
      </trkpt>
      <trkpt lat="43.77363" lon="4.15911">
        <ele>67</ele>
        <time>2024-04-06T23:14:46Z</time>
      </trkpt>
      <trkpt lat="43.77358" lon="4.15916">
        <ele>67</ele>
        <time>2024-04-06T23:14:47Z</time>
      </trkpt>
      <trkpt lat="43.77352" lon="4.15918">
        <ele>66</ele>
        <time>2024-04-06T23:14:48Z</time>
      </trkpt>
      <trkpt lat="43.77346" lon="4.15916">
        <ele>66</ele>
        <time>2024-04-06T23:14:49Z</time>
      </trkpt>
      <trkpt lat="43.77341" lon="4.15924">
        <ele>66</ele>
        <time>2024-04-06T23:14:51Z</time>
      </trkpt>
      <trkpt lat="43.77338" lon="4.15938">
        <ele>66</ele>
        <time>2024-04-06T23:14:53Z</time>
      </trkpt>
      <trkpt lat="43.77352" lon="4.15987">
        <ele>65</ele>
        <time>2024-04-06T23:14:59Z</time>
      </trkpt>
      <trkpt lat="43.77355" lon="4.16017">
        <ele>65</ele>
        <time>2024-04-06T23:15:03Z</time>
      </trkpt>
      <trkpt lat="43.77363" lon="4.16145">
        <ele>64</ele>
        <time>2024-04-06T23:15:20Z</time>
      </trkpt>
      <trkpt lat="43.77362" lon="4.16179">
        <ele>63</ele>
        <time>2024-04-06T23:15:24Z</time>
      </trkpt>
      <trkpt lat="43.77364" lon="4.1621">
        <ele>64</ele>
        <time>2024-04-06T23:15:28Z</time>
      </trkpt>
      <trkpt lat="43.77366" lon="4.16236">
        <ele>64</ele>
        <time>2024-04-06T23:15:32Z</time>
      </trkpt>
      <trkpt lat="43.77459" lon="4.17535">
        <ele>57</ele>
        <time>2024-04-06T23:18:19Z</time>
      </trkpt>
      <trkpt lat="43.77468" lon="4.17622">
        <ele>56</ele>
        <time>2024-04-06T23:18:31Z</time>
      </trkpt>
      <trkpt lat="43.7747" lon="4.17637">
        <ele>56</ele>
        <time>2024-04-06T23:18:33Z</time>
      </trkpt>
      <trkpt lat="43.77481" lon="4.1773">
        <ele>55</ele>
        <time>2024-04-06T23:18:45Z</time>
      </trkpt>
      <trkpt lat="43.77513" lon="4.17942">
        <ele>54</ele>
        <time>2024-04-06T23:19:12Z</time>
      </trkpt>
      <trkpt lat="43.7754" lon="4.18081">
        <ele>52</ele>
        <time>2024-04-06T23:19:31Z</time>
      </trkpt>
      <trkpt lat="43.7757" lon="4.18219">
        <ele>51</ele>
        <time>2024-04-06T23:19:49Z</time>
      </trkpt>
      <trkpt lat="43.77596" lon="4.18321">
        <ele>51</ele>
        <time>2024-04-06T23:20:03Z</time>
      </trkpt>
      <trkpt lat="43.77651" lon="4.18516">
        <ele>50</ele>
        <time>2024-04-06T23:20:30Z</time>
      </trkpt>
      <trkpt lat="43.77686" lon="4.18623">
        <ele>50</ele>
        <time>2024-04-06T23:20:45Z</time>
      </trkpt>
      <trkpt lat="43.77688" lon="4.18628">
        <ele>50</ele>
        <time>2024-04-06T23:20:46Z</time>
      </trkpt>
      <trkpt lat="43.77706" lon="4.18684">
        <ele>50</ele>
        <time>2024-04-06T23:20:54Z</time>
      </trkpt>
      <trkpt lat="43.7771" lon="4.18713">
        <ele>50</ele>
        <time>2024-04-06T23:20:58Z</time>
      </trkpt>
      <trkpt lat="43.77757" lon="4.18849">
        <ele>49</ele>
        <time>2024-04-06T23:21:17Z</time>
      </trkpt>
      <trkpt lat="43.77762" lon="4.18857">
        <ele>50</ele>
        <time>2024-04-06T23:21:18Z</time>
      </trkpt>
      <trkpt lat="43.77781" lon="4.18878">
        <ele>50</ele>
        <time>2024-04-06T23:21:23Z</time>
      </trkpt>
      <trkpt lat="43.77795" lon="4.18921">
        <ele>51</ele>
        <time>2024-04-06T23:21:29Z</time>
      </trkpt>
      <trkpt lat="43.77843" lon="4.19036">
        <ele>50</ele>
        <time>2024-04-06T23:21:46Z</time>
      </trkpt>
      <trkpt lat="43.77856" lon="4.1908">
        <ele>49</ele>
        <time>2024-04-06T23:21:52Z</time>
      </trkpt>
      <trkpt lat="43.77868" lon="4.19115">
        <ele>50</ele>
        <time>2024-04-06T23:21:57Z</time>
      </trkpt>
      <trkpt lat="43.77894" lon="4.19169">
        <ele>50</ele>
        <time>2024-04-06T23:22:05Z</time>
      </trkpt>
      <trkpt lat="43.77916" lon="4.19229">
        <ele>51</ele>
        <time>2024-04-06T23:22:14Z</time>
      </trkpt>
      <trkpt lat="43.77927" lon="4.19246">
        <ele>51</ele>
        <time>2024-04-06T23:22:17Z</time>
      </trkpt>
      <trkpt lat="43.77935" lon="4.19263">
        <ele>50</ele>
        <time>2024-04-06T23:22:20Z</time>
      </trkpt>
      <trkpt lat="43.7794" lon="4.193">
        <ele>49</ele>
        <time>2024-04-06T23:22:24Z</time>
      </trkpt>
      <trkpt lat="43.77944" lon="4.19317">
        <ele>48</ele>
        <time>2024-04-06T23:22:27Z</time>
      </trkpt>
      <trkpt lat="43.77981" lon="4.194">
        <ele>47</ele>
        <time>2024-04-06T23:22:39Z</time>
      </trkpt>
      <trkpt lat="43.77997" lon="4.19415">
        <ele>48</ele>
        <time>2024-04-06T23:22:43Z</time>
      </trkpt>
      <trkpt lat="43.77999" lon="4.19421">
        <ele>48</ele>
        <time>2024-04-06T23:22:43Z</time>
      </trkpt>
      <trkpt lat="43.7801" lon="4.19447">
        <ele>47</ele>
        <time>2024-04-06T23:22:47Z</time>
      </trkpt>
      <trkpt lat="43.78073" lon="4.19609">
        <ele>45</ele>
        <time>2024-04-06T23:23:11Z</time>
      </trkpt>
      <trkpt lat="43.78079" lon="4.19623">
        <ele>45</ele>
        <time>2024-04-06T23:23:13Z</time>
      </trkpt>
      <trkpt lat="43.78154" lon="4.19803">
        <ele>47</ele>
        <time>2024-04-06T23:23:40Z</time>
      </trkpt>
      <trkpt lat="43.78128" lon="4.19827">
        <ele>45</ele>
        <time>2024-04-06T23:23:45Z</time>
      </trkpt>
      <trkpt lat="43.78119" lon="4.19832">
        <ele>45</ele>
        <time>2024-04-06T23:23:47Z</time>
      </trkpt>
      <trkpt lat="43.78101" lon="4.19843">
        <ele>44</ele>
        <time>2024-04-06T23:23:51Z</time>
      </trkpt>
      <trkpt lat="43.78098" lon="4.19848">
        <ele>44</ele>
        <time>2024-04-06T23:23:51Z</time>
      </trkpt>
      <trkpt lat="43.78097" lon="4.19854">
        <ele>44</ele>
        <time>2024-04-06T23:23:52Z</time>
      </trkpt>
      <trkpt lat="43.78093" lon="4.19859">
        <ele>44</ele>
        <time>2024-04-06T23:23:53Z</time>
      </trkpt>
      <trkpt lat="43.78088" lon="4.19872">
        <ele>44</ele>
        <time>2024-04-06T23:23:55Z</time>
      </trkpt>
      <trkpt lat="43.78065" lon="4.19911">
        <ele>44</ele>
        <time>2024-04-06T23:24:02Z</time>
      </trkpt>
      <trkpt lat="43.78021" lon="4.19973">
        <ele>44</ele>
        <time>2024-04-06T23:24:13Z</time>
      </trkpt>
      <trkpt lat="43.77992" lon="4.2003">
        <ele>44</ele>
        <time>2024-04-06T23:24:22Z</time>
      </trkpt>
      <trkpt lat="43.77987" lon="4.2005">
        <ele>44</ele>
        <time>2024-04-06T23:24:24Z</time>
      </trkpt>
      <trkpt lat="43.77982" lon="4.20087">
        <ele>44</ele>
        <time>2024-04-06T23:24:29Z</time>
      </trkpt>
      <trkpt lat="43.77978" lon="4.20097">
        <ele>44</ele>
        <time>2024-04-06T23:24:31Z</time>
      </trkpt>
      <trkpt lat="43.77972" lon="4.201">
        <ele>43</ele>
        <time>2024-04-06T23:24:32Z</time>
      </trkpt>
      <trkpt lat="43.7795" lon="4.20105">
        <ele>43</ele>
        <time>2024-04-06T23:24:36Z</time>
      </trkpt>
      <trkpt lat="43.77946" lon="4.20116">
        <ele>43</ele>
        <time>2024-04-06T23:24:37Z</time>
      </trkpt>
      <trkpt lat="43.77981" lon="4.2039">
        <ele>40</ele>
        <time>2024-04-06T23:25:13Z</time>
      </trkpt>
      <trkpt lat="43.7798" lon="4.2042">
        <ele>40</ele>
        <time>2024-04-06T23:25:17Z</time>
      </trkpt>
      <trkpt lat="43.77977" lon="4.20442">
        <ele>40</ele>
        <time>2024-04-06T23:25:20Z</time>
      </trkpt>
      <trkpt lat="43.77953" lon="4.20538">
        <ele>39</ele>
        <time>2024-04-06T23:25:33Z</time>
      </trkpt>
      <trkpt lat="43.77952" lon="4.20567">
        <ele>40</ele>
        <time>2024-04-06T23:25:37Z</time>
      </trkpt>
      <trkpt lat="43.77954" lon="4.20637">
        <ele>41</ele>
        <time>2024-04-06T23:25:46Z</time>
      </trkpt>
      <trkpt lat="43.77938" lon="4.20641">
        <ele>41</ele>
        <time>2024-04-06T23:25:48Z</time>
      </trkpt>
      <trkpt lat="43.7793" lon="4.20654">
        <ele>41</ele>
        <time>2024-04-06T23:25:51Z</time>
      </trkpt>
      <trkpt lat="43.77922" lon="4.20679">
        <ele>42</ele>
        <time>2024-04-06T23:25:54Z</time>
      </trkpt>
      <trkpt lat="43.77902" lon="4.20772">
        <ele>41</ele>
        <time>2024-04-06T23:26:07Z</time>
      </trkpt>
      <trkpt lat="43.77883" lon="4.20876">
        <ele>38</ele>
        <time>2024-04-06T23:26:20Z</time>
      </trkpt>
      <trkpt lat="43.77881" lon="4.20895">
        <ele>38</ele>
        <time>2024-04-06T23:26:23Z</time>
      </trkpt>
      <trkpt lat="43.77882" lon="4.20944">
        <ele>38</ele>
        <time>2024-04-06T23:26:29Z</time>
      </trkpt>
      <trkpt lat="43.77881" lon="4.20962">
        <ele>38</ele>
        <time>2024-04-06T23:26:32Z</time>
      </trkpt>
      <trkpt lat="43.77876" lon="4.20992">
        <ele>38</ele>
        <time>2024-04-06T23:26:35Z</time>
      </trkpt>
      <trkpt lat="43.77869" lon="4.2102">
        <ele>38</ele>
        <time>2024-04-06T23:26:39Z</time>
      </trkpt>
      <trkpt lat="43.7786" lon="4.21037">
        <ele>38</ele>
        <time>2024-04-06T23:26:42Z</time>
      </trkpt>
      <trkpt lat="43.77847" lon="4.21049">
        <ele>37</ele>
        <time>2024-04-06T23:26:45Z</time>
      </trkpt>
      <trkpt lat="43.77803" lon="4.21061">
        <ele>38</ele>
        <time>2024-04-06T23:26:53Z</time>
      </trkpt>
      <trkpt lat="43.77785" lon="4.21077">
        <ele>38</ele>
        <time>2024-04-06T23:26:57Z</time>
      </trkpt>
      <trkpt lat="43.77759" lon="4.21094">
        <ele>38</ele>
        <time>2024-04-06T23:27:02Z</time>
      </trkpt>
      <trkpt lat="43.77741" lon="4.21101">
        <ele>38</ele>
        <time>2024-04-06T23:27:05Z</time>
      </trkpt>
      <trkpt lat="43.77736" lon="4.21107">
        <ele>38</ele>
        <time>2024-04-06T23:27:06Z</time>
      </trkpt>
      <trkpt lat="43.77734" lon="4.21116">
        <ele>37</ele>
        <time>2024-04-06T23:27:07Z</time>
      </trkpt>
      <trkpt lat="43.77738" lon="4.21136">
        <ele>37</ele>
        <time>2024-04-06T23:27:10Z</time>
      </trkpt>
      <trkpt lat="43.7775" lon="4.21179">
        <ele>36</ele>
        <time>2024-04-06T23:27:16Z</time>
      </trkpt>
      <trkpt lat="43.77753" lon="4.21211">
        <ele>34</ele>
        <time>2024-04-06T23:27:20Z</time>
      </trkpt>
      <trkpt lat="43.77775" lon="4.21566">
        <ele>32</ele>
        <time>2024-04-06T23:28:06Z</time>
      </trkpt>
      <trkpt lat="43.77794" lon="4.21656">
        <ele>31</ele>
        <time>2024-04-06T23:28:18Z</time>
      </trkpt>
      <trkpt lat="43.77801" lon="4.21684">
        <ele>30</ele>
        <time>2024-04-06T23:28:22Z</time>
      </trkpt>
      <trkpt lat="43.77816" lon="4.21748">
        <ele>31</ele>
        <time>2024-04-06T23:28:30Z</time>
      </trkpt>
      <trkpt lat="43.77853" lon="4.21888">
        <ele>31</ele>
        <time>2024-04-06T23:28:50Z</time>
      </trkpt>
      <trkpt lat="43.7786" lon="4.21928">
        <ele>31</ele>
        <time>2024-04-06T23:28:55Z</time>
      </trkpt>
      <trkpt lat="43.77862" lon="4.2196">
        <ele>30</ele>
        <time>2024-04-06T23:28:59Z</time>
      </trkpt>
      <trkpt lat="43.77861" lon="4.22003">
        <ele>30</ele>
        <time>2024-04-06T23:29:04Z</time>
      </trkpt>
      <trkpt lat="43.7785" lon="4.22119">
        <ele>31</ele>
        <time>2024-04-06T23:29:20Z</time>
      </trkpt>
      <trkpt lat="43.77846" lon="4.22147">
        <ele>31</ele>
        <time>2024-04-06T23:29:23Z</time>
      </trkpt>
      <trkpt lat="43.77837" lon="4.22179">
        <ele>32</ele>
        <time>2024-04-06T23:29:28Z</time>
      </trkpt>
      <trkpt lat="43.77817" lon="4.22234">
        <ele>33</ele>
        <time>2024-04-06T23:29:36Z</time>
      </trkpt>
      <trkpt lat="43.77798" lon="4.22274">
        <ele>33</ele>
        <time>2024-04-06T23:29:42Z</time>
      </trkpt>
      <trkpt lat="43.77698" lon="4.22454">
        <ele>34</ele>
        <time>2024-04-06T23:30:11Z</time>
      </trkpt>
      <trkpt lat="43.77686" lon="4.22488">
        <ele>33</ele>
        <time>2024-04-06T23:30:16Z</time>
      </trkpt>
      <trkpt lat="43.77648" lon="4.22639">
        <ele>35</ele>
        <time>2024-04-06T23:30:36Z</time>
      </trkpt>
      <trkpt lat="43.77636" lon="4.22697">
        <ele>35</ele>
        <time>2024-04-06T23:30:44Z</time>
      </trkpt>
      <trkpt lat="43.77633" lon="4.2272">
        <ele>35</ele>
        <time>2024-04-06T23:30:47Z</time>
      </trkpt>
      <trkpt lat="43.77633" lon="4.22807">
        <ele>35</ele>
        <time>2024-04-06T23:30:58Z</time>
      </trkpt>
      <trkpt lat="43.77626" lon="4.22841">
        <ele>36</ele>
        <time>2024-04-06T23:31:03Z</time>
      </trkpt>
      <trkpt lat="43.77606" lon="4.22895">
        <ele>36</ele>
        <time>2024-04-06T23:31:11Z</time>
      </trkpt>
      <trkpt lat="43.77583" lon="4.22948">
        <ele>37</ele>
        <time>2024-04-06T23:31:18Z</time>
      </trkpt>
      <trkpt lat="43.77579" lon="4.22968">
        <ele>37</ele>
        <time>2024-04-06T23:31:21Z</time>
      </trkpt>
      <trkpt lat="43.77578" lon="4.22982">
        <ele>37</ele>
        <time>2024-04-06T23:31:23Z</time>
      </trkpt>
      <trkpt lat="43.77498" lon="4.23094">
        <ele>43</ele>
        <time>2024-04-06T23:31:43Z</time>
      </trkpt>
      <trkpt lat="43.77412" lon="4.23204">
        <ele>54</ele>
        <time>2024-04-06T23:32:04Z</time>
      </trkpt>
      <trkpt lat="43.7739" lon="4.23257">
        <ele>61</ele>
        <time>2024-04-06T23:32:12Z</time>
      </trkpt>
      <trkpt lat="43.77411" lon="4.23295">
        <ele>61</ele>
        <time>2024-04-06T23:32:18Z</time>
      </trkpt>
      <trkpt lat="43.77395" lon="4.23313">
        <ele>66</ele>
        <time>2024-04-06T23:32:22Z</time>
      </trkpt>
      <trkpt lat="43.77386" lon="4.23307">
        <ele>67</ele>
        <time>2024-04-06T23:32:23Z</time>
      </trkpt>
      <trkpt lat="43.77366" lon="4.23288">
        <ele>69</ele>
        <time>2024-04-06T23:32:28Z</time>
      </trkpt>
      <trkpt lat="43.77386" lon="4.23307">
        <ele>67</ele>
        <time>2024-04-06T23:32:32Z</time>
      </trkpt>
      <trkpt lat="43.77395" lon="4.23313">
        <ele>66</ele>
        <time>2024-04-06T23:32:34Z</time>
      </trkpt>
      <trkpt lat="43.77411" lon="4.23295">
        <ele>61</ele>
        <time>2024-04-06T23:32:38Z</time>
      </trkpt>
      <trkpt lat="43.77418" lon="4.23292">
        <ele>59</ele>
        <time>2024-04-06T23:32:39Z</time>
      </trkpt>
      <trkpt lat="43.77441" lon="4.23325">
        <ele>59</ele>
        <time>2024-04-06T23:32:45Z</time>
      </trkpt>
      <trkpt lat="43.77448" lon="4.23332">
        <ele>59</ele>
        <time>2024-04-06T23:32:46Z</time>
      </trkpt>
      <trkpt lat="43.77464" lon="4.23373">
        <ele>59</ele>
        <time>2024-04-06T23:32:52Z</time>
      </trkpt>
      <trkpt lat="43.77482" lon="4.23405">
        <ele>58</ele>
        <time>2024-04-06T23:32:57Z</time>
      </trkpt>
      <trkpt lat="43.77488" lon="4.2342">
        <ele>58</ele>
        <time>2024-04-06T23:33:00Z</time>
      </trkpt>
      <trkpt lat="43.7753" lon="4.23545">
        <ele>51</ele>
        <time>2024-04-06T23:33:17Z</time>
      </trkpt>
      <trkpt lat="43.77498" lon="4.23572">
        <ele>51</ele>
        <time>2024-04-06T23:33:24Z</time>
      </trkpt>
      <trkpt lat="43.77487" lon="4.23585">
        <ele>51</ele>
        <time>2024-04-06T23:33:27Z</time>
      </trkpt>
      <trkpt lat="43.7746" lon="4.23636">
        <ele>53</ele>
        <time>2024-04-06T23:33:35Z</time>
      </trkpt>
      <trkpt lat="43.7744" lon="4.23665">
        <ele>54</ele>
        <time>2024-04-06T23:33:40Z</time>
      </trkpt>
      <trkpt lat="43.77364" lon="4.23765">
        <ele>57</ele>
        <time>2024-04-06T23:33:59Z</time>
      </trkpt>
      <trkpt lat="43.77352" lon="4.23779">
        <ele>58</ele>
        <time>2024-04-06T23:34:01Z</time>
      </trkpt>
      <trkpt lat="43.77288" lon="4.23836">
        <ele>62</ele>
        <time>2024-04-06T23:34:15Z</time>
      </trkpt>
      <trkpt lat="43.77246" lon="4.23862">
        <ele>65</ele>
        <time>2024-04-06T23:34:23Z</time>
      </trkpt>
      <trkpt lat="43.77209" lon="4.23878">
        <ele>68</ele>
        <time>2024-04-06T23:34:30Z</time>
      </trkpt>
      <trkpt lat="43.7717" lon="4.23889">
        <ele>69</ele>
        <time>2024-04-06T23:34:37Z</time>
      </trkpt>
      <trkpt lat="43.7715" lon="4.23902">
        <ele>69</ele>
        <time>2024-04-06T23:34:41Z</time>
      </trkpt>
      <trkpt lat="43.77134" lon="4.23918">
        <ele>69</ele>
        <time>2024-04-06T23:34:44Z</time>
      </trkpt>
      <trkpt lat="43.77085" lon="4.23992">
        <ele>71</ele>
        <time>2024-04-06T23:34:57Z</time>
      </trkpt>
      <trkpt lat="43.77056" lon="4.24045">
        <ele>71</ele>
        <time>2024-04-06T23:35:06Z</time>
      </trkpt>
      <trkpt lat="43.77036" lon="4.24087">
        <ele>71</ele>
        <time>2024-04-06T23:35:12Z</time>
      </trkpt>
      <trkpt lat="43.77011" lon="4.24147">
        <ele>70</ele>
        <time>2024-04-06T23:35:21Z</time>
      </trkpt>
      <trkpt lat="43.76895" lon="4.24398">
        <ele>60</ele>
        <time>2024-04-06T23:36:00Z</time>
      </trkpt>
      <trkpt lat="43.76871" lon="4.24454">
        <ele>58</ele>
        <time>2024-04-06T23:36:08Z</time>
      </trkpt>
      <trkpt lat="43.76837" lon="4.24587">
        <ele>55</ele>
        <time>2024-04-06T23:36:26Z</time>
      </trkpt>
      <trkpt lat="43.7677" lon="4.24777">
        <ele>49</ele>
        <time>2024-04-06T23:36:53Z</time>
      </trkpt>
      <trkpt lat="43.76703" lon="4.24956">
        <ele>44</ele>
        <time>2024-04-06T23:37:19Z</time>
      </trkpt>
      <trkpt lat="43.76686" lon="4.24992">
        <ele>43</ele>
        <time>2024-04-06T23:37:25Z</time>
      </trkpt>
      <trkpt lat="43.76448" lon="4.2537">
        <ele>40</ele>
        <time>2024-04-06T23:38:29Z</time>
      </trkpt>
      <trkpt lat="43.76425" lon="4.25399">
        <ele>39</ele>
        <time>2024-04-06T23:38:35Z</time>
      </trkpt>
      <trkpt lat="43.76368" lon="4.25448">
        <ele>38</ele>
        <time>2024-04-06T23:38:47Z</time>
      </trkpt>
      <trkpt lat="43.76252" lon="4.25583">
        <ele>33</ele>
        <time>2024-04-06T23:39:14Z</time>
      </trkpt>
      <trkpt lat="43.76211" lon="4.25648">
        <ele>33</ele>
        <time>2024-04-06T23:39:25Z</time>
      </trkpt>
      <trkpt lat="43.76186" lon="4.25681">
        <ele>32</ele>
        <time>2024-04-06T23:39:31Z</time>
      </trkpt>
      <trkpt lat="43.76086" lon="4.25803">
        <ele>33</ele>
        <time>2024-04-06T23:39:55Z</time>
      </trkpt>
      <trkpt lat="43.76055" lon="4.25858">
        <ele>32</ele>
        <time>2024-04-06T23:40:03Z</time>
      </trkpt>
      <trkpt lat="43.75976" lon="4.26029">
        <ele>30</ele>
        <time>2024-04-06T23:40:30Z</time>
      </trkpt>
      <trkpt lat="43.75944" lon="4.26087">
        <ele>32</ele>
        <time>2024-04-06T23:40:39Z</time>
      </trkpt>
      <trkpt lat="43.75874" lon="4.26193">
        <ele>33</ele>
        <time>2024-04-06T23:40:57Z</time>
      </trkpt>
      <trkpt lat="43.75836" lon="4.2625">
        <ele>36</ele>
        <time>2024-04-06T23:41:07Z</time>
      </trkpt>
      <trkpt lat="43.75794" lon="4.26318">
        <ele>34</ele>
        <time>2024-04-06T23:41:19Z</time>
      </trkpt>
      <trkpt lat="43.7579" lon="4.26331">
        <ele>34</ele>
        <time>2024-04-06T23:41:21Z</time>
      </trkpt>
      <trkpt lat="43.75791" lon="4.2635">
        <ele>33</ele>
        <time>2024-04-06T23:41:23Z</time>
      </trkpt>
      <trkpt lat="43.75813" lon="4.26437">
        <ele>30</ele>
        <time>2024-04-06T23:41:35Z</time>
      </trkpt>
      <trkpt lat="43.75829" lon="4.26487">
        <ele>29</ele>
        <time>2024-04-06T23:41:42Z</time>
      </trkpt>
      <trkpt lat="43.75838" lon="4.26509">
        <ele>29</ele>
        <time>2024-04-06T23:41:45Z</time>
      </trkpt>
      <trkpt lat="43.75848" lon="4.2655">
        <ele>30</ele>
        <time>2024-04-06T23:41:51Z</time>
      </trkpt>
      <trkpt lat="43.7585" lon="4.26567">
        <ele>30</ele>
        <time>2024-04-06T23:41:53Z</time>
      </trkpt>
      <trkpt lat="43.75847" lon="4.26587">
        <ele>30</ele>
        <time>2024-04-06T23:41:56Z</time>
      </trkpt>
      <trkpt lat="43.75842" lon="4.26607">
        <ele>30</ele>
        <time>2024-04-06T23:41:58Z</time>
      </trkpt>
      <trkpt lat="43.75814" lon="4.26679">
        <ele>29</ele>
        <time>2024-04-06T23:42:09Z</time>
      </trkpt>
      <trkpt lat="43.75813" lon="4.26692">
        <ele>29</ele>
        <time>2024-04-06T23:42:11Z</time>
      </trkpt>
      <trkpt lat="43.75817" lon="4.26717">
        <ele>29</ele>
        <time>2024-04-06T23:42:14Z</time>
      </trkpt>
      <trkpt lat="43.75832" lon="4.26775">
        <ele>30</ele>
        <time>2024-04-06T23:42:22Z</time>
      </trkpt>
      <trkpt lat="43.75815" lon="4.26787">
        <ele>29</ele>
        <time>2024-04-06T23:42:25Z</time>
      </trkpt>
      <trkpt lat="43.75815" lon="4.26796">
        <ele>29</ele>
        <time>2024-04-06T23:42:26Z</time>
      </trkpt>
      <trkpt lat="43.75858" lon="4.26882">
        <ele>30</ele>
        <time>2024-04-06T23:42:40Z</time>
      </trkpt>
      <trkpt lat="43.75859" lon="4.26888">
        <ele>30</ele>
        <time>2024-04-06T23:42:41Z</time>
      </trkpt>
      <trkpt lat="43.75857" lon="4.26893">
        <ele>30</ele>
        <time>2024-04-06T23:42:41Z</time>
      </trkpt>
      <trkpt lat="43.75829" lon="4.26911">
        <ele>29</ele>
        <time>2024-04-06T23:42:47Z</time>
      </trkpt>
      <trkpt lat="43.75903" lon="4.27142">
        <ele>24</ele>
        <time>2024-04-06T23:43:19Z</time>
      </trkpt>
      <trkpt lat="43.75903" lon="4.27152">
        <ele>24</ele>
        <time>2024-04-06T23:43:21Z</time>
      </trkpt>
      <trkpt lat="43.75907" lon="4.27166">
        <ele>24</ele>
        <time>2024-04-06T23:43:22Z</time>
      </trkpt>
      <trkpt lat="43.75945" lon="4.27212">
        <ele>24</ele>
        <time>2024-04-06T23:43:31Z</time>
      </trkpt>
      <trkpt lat="43.75998" lon="4.27273">
        <ele>24</ele>
        <time>2024-04-06T23:43:44Z</time>
      </trkpt>
      <trkpt lat="43.76109" lon="4.27383">
        <ele>25</ele>
        <time>2024-04-06T23:44:08Z</time>
      </trkpt>
      <trkpt lat="43.76118" lon="4.27399">
        <ele>25</ele>
        <time>2024-04-06T23:44:11Z</time>
      </trkpt>
      <trkpt lat="43.76164" lon="4.27496">
        <ele>24</ele>
        <time>2024-04-06T23:44:26Z</time>
      </trkpt>
      <trkpt lat="43.76259" lon="4.27708">
        <ele>22</ele>
        <time>2024-04-06T23:44:58Z</time>
      </trkpt>
      <trkpt lat="43.76297" lon="4.27786">
        <ele>20</ele>
        <time>2024-04-06T23:45:10Z</time>
      </trkpt>
      <trkpt lat="43.76342" lon="4.27845">
        <ele>21</ele>
        <time>2024-04-06T23:45:21Z</time>
      </trkpt>
      <trkpt lat="43.76356" lon="4.27868">
        <ele>21</ele>
        <time>2024-04-06T23:45:25Z</time>
      </trkpt>
      <trkpt lat="43.7639" lon="4.27955">
        <ele>22</ele>
        <time>2024-04-06T23:45:37Z</time>
      </trkpt>
      <trkpt lat="43.76425" lon="4.28047">
        <ele>22</ele>
        <time>2024-04-06T23:45:51Z</time>
      </trkpt>
      <trkpt lat="43.76435" lon="4.28081">
        <ele>21</ele>
        <time>2024-04-06T23:45:55Z</time>
      </trkpt>
      <trkpt lat="43.76503" lon="4.28398">
        <ele>24</ele>
        <time>2024-04-06T23:46:38Z</time>
      </trkpt>
      <trkpt lat="43.76518" lon="4.28485">
        <ele>25</ele>
        <time>2024-04-06T23:46:49Z</time>
      </trkpt>
      <trkpt lat="43.76552" lon="4.28507">
        <ele>24</ele>
        <time>2024-04-06T23:46:56Z</time>
      </trkpt>
      <trkpt lat="43.76573" lon="4.28521">
        <ele>24</ele>
        <time>2024-04-06T23:47:00Z</time>
      </trkpt>
      <trkpt lat="43.76608" lon="4.28568">
        <ele>25</ele>
        <time>2024-04-06T23:47:09Z</time>
      </trkpt>
      <trkpt lat="43.76618" lon="4.28608">
        <ele>25</ele>
        <time>2024-04-06T23:47:14Z</time>
      </trkpt>
      <trkpt lat="43.76627" lon="4.28666">
        <ele>25</ele>
        <time>2024-04-06T23:47:22Z</time>
      </trkpt>
      <trkpt lat="43.76624" lon="4.2869">
        <ele>25</ele>
        <time>2024-04-06T23:47:25Z</time>
      </trkpt>
      <trkpt lat="43.76606" lon="4.28735">
        <ele>25</ele>
        <time>2024-04-06T23:47:32Z</time>
      </trkpt>
      <trkpt lat="43.76602" lon="4.28733">
        <ele>25</ele>
        <time>2024-04-06T23:47:32Z</time>
      </trkpt>
      <trkpt lat="43.76598" lon="4.28736">
        <ele>25</ele>
        <time>2024-04-06T23:47:33Z</time>
      </trkpt>
      <trkpt lat="43.76598" lon="4.28742">
        <ele>25</ele>
        <time>2024-04-06T23:47:34Z</time>
      </trkpt>
      <trkpt lat="43.766" lon="4.28745">
        <ele>25</ele>
        <time>2024-04-06T23:47:35Z</time>
      </trkpt>
      <trkpt lat="43.76605" lon="4.28744">
        <ele>25</ele>
        <time>2024-04-06T23:47:35Z</time>
      </trkpt>
      <trkpt lat="43.76619" lon="4.28794">
        <ele>25</ele>
        <time>2024-04-06T23:47:42Z</time>
      </trkpt>
      <trkpt lat="43.76638" lon="4.28841">
        <ele>25</ele>
        <time>2024-04-06T23:47:49Z</time>
      </trkpt>
      <trkpt lat="43.7664" lon="4.28878">
        <ele>24</ele>
        <time>2024-04-06T23:47:54Z</time>
      </trkpt>
      <trkpt lat="43.76597" lon="4.2891">
        <ele>23</ele>
        <time>2024-04-06T23:48:03Z</time>
      </trkpt>
      <trkpt lat="43.76566" lon="4.28931">
        <ele>23</ele>
        <time>2024-04-06T23:48:09Z</time>
      </trkpt>
      <trkpt lat="43.76532" lon="4.28951">
        <ele>22</ele>
        <time>2024-04-06T23:48:15Z</time>
      </trkpt>
      <trkpt lat="43.76458" lon="4.29012">
        <ele>19</ele>
        <time>2024-04-06T23:48:31Z</time>
      </trkpt>
      <trkpt lat="43.76453" lon="4.29021">
        <ele>19</ele>
        <time>2024-04-06T23:48:32Z</time>
      </trkpt>
      <trkpt lat="43.76452" lon="4.29041">
        <ele>19</ele>
        <time>2024-04-06T23:48:35Z</time>
      </trkpt>
      <trkpt lat="43.76523" lon="4.29339">
        <ele>21</ele>
        <time>2024-04-06T23:49:15Z</time>
      </trkpt>
      <trkpt lat="43.76504" lon="4.29404">
        <ele>19</ele>
        <time>2024-04-06T23:49:24Z</time>
      </trkpt>
      <trkpt lat="43.76502" lon="4.29418">
        <ele>19</ele>
        <time>2024-04-06T23:49:26Z</time>
      </trkpt>
      <trkpt lat="43.76505" lon="4.29449">
        <ele>19</ele>
        <time>2024-04-06T23:49:30Z</time>
      </trkpt>
      <trkpt lat="43.76526" lon="4.2953">
        <ele>19</ele>
        <time>2024-04-06T23:49:41Z</time>
      </trkpt>
      <trkpt lat="43.7653" lon="4.29563">
        <ele>20</ele>
        <time>2024-04-06T23:49:45Z</time>
      </trkpt>
      <trkpt lat="43.76531" lon="4.296">
        <ele>20</ele>
        <time>2024-04-06T23:49:50Z</time>
      </trkpt>
      <trkpt lat="43.76529" lon="4.2964">
        <ele>19</ele>
        <time>2024-04-06T23:49:55Z</time>
      </trkpt>
      <trkpt lat="43.7652" lon="4.29696">
        <ele>19</ele>
        <time>2024-04-06T23:50:03Z</time>
      </trkpt>
      <trkpt lat="43.76519" lon="4.29745">
        <ele>19</ele>
        <time>2024-04-06T23:50:09Z</time>
      </trkpt>
      <trkpt lat="43.76521" lon="4.29772">
        <ele>19</ele>
        <time>2024-04-06T23:50:12Z</time>
      </trkpt>
      <trkpt lat="43.76529" lon="4.29814">
        <ele>18</ele>
        <time>2024-04-06T23:50:18Z</time>
      </trkpt>
      <trkpt lat="43.7654" lon="4.29853">
        <ele>18</ele>
        <time>2024-04-06T23:50:23Z</time>
      </trkpt>
      <trkpt lat="43.7654" lon="4.29864">
        <ele>18</ele>
        <time>2024-04-06T23:50:25Z</time>
      </trkpt>
      <trkpt lat="43.76537" lon="4.29872">
        <ele>18</ele>
        <time>2024-04-06T23:50:26Z</time>
      </trkpt>
      <trkpt lat="43.76522" lon="4.29886">
        <ele>18</ele>
        <time>2024-04-06T23:50:29Z</time>
      </trkpt>
      <trkpt lat="43.76513" lon="4.29898">
        <ele>17</ele>
        <time>2024-04-06T23:50:31Z</time>
      </trkpt>
      <trkpt lat="43.76506" lon="4.29917">
        <ele>17</ele>
        <time>2024-04-06T23:50:34Z</time>
      </trkpt>
      <trkpt lat="43.76501" lon="4.29954">
        <ele>17</ele>
        <time>2024-04-06T23:50:39Z</time>
      </trkpt>
      <trkpt lat="43.765" lon="4.29981">
        <ele>18</ele>
        <time>2024-04-06T23:50:42Z</time>
      </trkpt>
      <trkpt lat="43.76507" lon="4.30046">
        <ele>19</ele>
        <time>2024-04-06T23:50:51Z</time>
      </trkpt>
      <trkpt lat="43.76504" lon="4.30069">
        <ele>19</ele>
        <time>2024-04-06T23:50:54Z</time>
      </trkpt>
      <trkpt lat="43.76499" lon="4.30078">
        <ele>19</ele>
        <time>2024-04-06T23:50:55Z</time>
      </trkpt>
      <trkpt lat="43.76433" lon="4.30142">
        <ele>18</ele>
        <time>2024-04-06T23:51:10Z</time>
      </trkpt>
      <trkpt lat="43.76346" lon="4.30327">
        <ele>19</ele>
        <time>2024-04-06T23:51:38Z</time>
      </trkpt>
      <trkpt lat="43.76335" lon="4.30351">
        <ele>18</ele>
        <time>2024-04-06T23:51:42Z</time>
      </trkpt>
      <trkpt lat="43.7633" lon="4.30366">
        <ele>18</ele>
        <time>2024-04-06T23:51:44Z</time>
      </trkpt>
      <trkpt lat="43.76281" lon="4.30581">
        <ele>17</ele>
        <time>2024-04-06T23:52:13Z</time>
      </trkpt>
      <trkpt lat="43.76273" lon="4.30605">
        <ele>18</ele>
        <time>2024-04-06T23:52:16Z</time>
      </trkpt>
      <trkpt lat="43.76261" lon="4.30622">
        <ele>19</ele>
        <time>2024-04-06T23:52:19Z</time>
      </trkpt>
      <trkpt lat="43.76199" lon="4.30707">
        <ele>19</ele>
        <time>2024-04-06T23:52:35Z</time>
      </trkpt>
      <trkpt lat="43.76165" lon="4.30748">
        <ele>20</ele>
        <time>2024-04-06T23:52:43Z</time>
      </trkpt>
      <trkpt lat="43.76147" lon="4.30781">
        <ele>20</ele>
        <time>2024-04-06T23:52:48Z</time>
      </trkpt>
      <trkpt lat="43.76146" lon="4.30794">
        <ele>20</ele>
        <time>2024-04-06T23:52:50Z</time>
      </trkpt>
      <trkpt lat="43.76147" lon="4.30809">
        <ele>20</ele>
        <time>2024-04-06T23:52:52Z</time>
      </trkpt>
      <trkpt lat="43.7617" lon="4.30925">
        <ele>20</ele>
        <time>2024-04-06T23:53:07Z</time>
      </trkpt>
      <trkpt lat="43.7617" lon="4.30944">
        <ele>20</ele>
        <time>2024-04-06T23:53:10Z</time>
      </trkpt>
      <trkpt lat="43.76167" lon="4.30954">
        <ele>20</ele>
        <time>2024-04-06T23:53:11Z</time>
      </trkpt>
      <trkpt lat="43.76156" lon="4.30969">
        <ele>21</ele>
        <time>2024-04-06T23:53:14Z</time>
      </trkpt>
      <trkpt lat="43.75982" lon="4.31092">
        <ele>22</ele>
        <time>2024-04-06T23:53:48Z</time>
      </trkpt>
      <trkpt lat="43.75969" lon="4.31099">
        <ele>22</ele>
        <time>2024-04-06T23:53:51Z</time>
      </trkpt>
      <trkpt lat="43.75959" lon="4.31102">
        <ele>22</ele>
        <time>2024-04-06T23:53:53Z</time>
      </trkpt>
      <trkpt lat="43.75945" lon="4.31103">
        <ele>22</ele>
        <time>2024-04-06T23:53:55Z</time>
      </trkpt>
      <trkpt lat="43.75908" lon="4.31089">
        <ele>22</ele>
        <time>2024-04-06T23:54:02Z</time>
      </trkpt>
      <trkpt lat="43.75894" lon="4.31089">
        <ele>22</ele>
        <time>2024-04-06T23:54:05Z</time>
      </trkpt>
      <trkpt lat="43.7586" lon="4.31098">
        <ele>22</ele>
        <time>2024-04-06T23:54:11Z</time>
      </trkpt>
      <trkpt lat="43.75853" lon="4.31095">
        <ele>22</ele>
        <time>2024-04-06T23:54:12Z</time>
      </trkpt>
      <trkpt lat="43.75846" lon="4.31094">
        <ele>22</ele>
        <time>2024-04-06T23:54:13Z</time>
      </trkpt>
      <trkpt lat="43.7584" lon="4.31096">
        <ele>22</ele>
        <time>2024-04-06T23:54:14Z</time>
      </trkpt>
      <trkpt lat="43.75834" lon="4.311">
        <ele>22</ele>
        <time>2024-04-06T23:54:16Z</time>
      </trkpt>
      <trkpt lat="43.75828" lon="4.31107">
        <ele>22</ele>
        <time>2024-04-06T23:54:17Z</time>
      </trkpt>
      <trkpt lat="43.75825" lon="4.31115">
        <ele>22</ele>
        <time>2024-04-06T23:54:18Z</time>
      </trkpt>
      <trkpt lat="43.75823" lon="4.31124">
        <ele>22</ele>
        <time>2024-04-06T23:54:19Z</time>
      </trkpt>
      <trkpt lat="43.75823" lon="4.31133">
        <ele>22</ele>
        <time>2024-04-06T23:54:20Z</time>
      </trkpt>
      <trkpt lat="43.75825" lon="4.31145">
        <ele>22</ele>
        <time>2024-04-06T23:54:22Z</time>
      </trkpt>
      <trkpt lat="43.7583" lon="4.31155">
        <ele>22</ele>
        <time>2024-04-06T23:54:24Z</time>
      </trkpt>
      <trkpt lat="43.7583" lon="4.3118">
        <ele>22</ele>
        <time>2024-04-06T23:54:27Z</time>
      </trkpt>
      <trkpt lat="43.75827" lon="4.31193">
        <ele>22</ele>
        <time>2024-04-06T23:54:29Z</time>
      </trkpt>
      <trkpt lat="43.7582" lon="4.31209">
        <ele>22</ele>
        <time>2024-04-06T23:54:31Z</time>
      </trkpt>
      <trkpt lat="43.75737" lon="4.31275">
        <ele>25</ele>
        <time>2024-04-06T23:54:48Z</time>
      </trkpt>
      <trkpt lat="43.75717" lon="4.31291">
        <ele>25</ele>
        <time>2024-04-06T23:54:52Z</time>
      </trkpt>
      <trkpt lat="43.7571" lon="4.31288">
        <ele>25</ele>
        <time>2024-04-06T23:54:53Z</time>
      </trkpt>
      <trkpt lat="43.75706" lon="4.31294">
        <ele>26</ele>
        <time>2024-04-06T23:54:55Z</time>
      </trkpt>
      <trkpt lat="43.75705" lon="4.313">
        <ele>26</ele>
        <time>2024-04-06T23:54:55Z</time>
      </trkpt>
      <trkpt lat="43.75674" lon="4.31309">
        <ele>27</ele>
        <time>2024-04-06T23:55:01Z</time>
      </trkpt>
      <trkpt lat="43.75668" lon="4.31308">
        <ele>27</ele>
        <time>2024-04-06T23:55:02Z</time>
      </trkpt>
      <trkpt lat="43.75621" lon="4.31291">
        <ele>26</ele>
        <time>2024-04-06T23:55:11Z</time>
      </trkpt>
      <trkpt lat="43.75588" lon="4.31361">
        <ele>27</ele>
        <time>2024-04-06T23:55:21Z</time>
      </trkpt>
      <trkpt lat="43.75522" lon="4.31524">
        <ele>27</ele>
        <time>2024-04-06T23:55:45Z</time>
      </trkpt>
      <trkpt lat="43.75476" lon="4.3165">
        <ele>27</ele>
        <time>2024-04-06T23:56:04Z</time>
      </trkpt>
      <trkpt lat="43.75466" lon="4.31685">
        <ele>27</ele>
        <time>2024-04-06T23:56:08Z</time>
      </trkpt>
      <trkpt lat="43.7546" lon="4.31718">
        <ele>27</ele>
        <time>2024-04-06T23:56:13Z</time>
      </trkpt>
      <trkpt lat="43.75454" lon="4.31763">
        <ele>27</ele>
        <time>2024-04-06T23:56:19Z</time>
      </trkpt>
      <trkpt lat="43.75444" lon="4.31863">
        <ele>28</ele>
        <time>2024-04-06T23:56:32Z</time>
      </trkpt>
      <trkpt lat="43.75433" lon="4.31907">
        <ele>29</ele>
        <time>2024-04-06T23:56:38Z</time>
      </trkpt>
      <trkpt lat="43.75415" lon="4.31957">
        <ele>29</ele>
        <time>2024-04-06T23:56:45Z</time>
      </trkpt>
      <trkpt lat="43.75401" lon="4.31978">
        <ele>30</ele>
        <time>2024-04-06T23:56:48Z</time>
      </trkpt>
      <trkpt lat="43.75395" lon="4.31986">
        <ele>30</ele>
        <time>2024-04-06T23:56:50Z</time>
      </trkpt>
      <trkpt lat="43.75393" lon="4.31998">
        <ele>30</ele>
        <time>2024-04-06T23:56:52Z</time>
      </trkpt>
      <trkpt lat="43.75377" lon="4.32017">
        <ele>30</ele>
        <time>2024-04-06T23:56:55Z</time>
      </trkpt>
      <trkpt lat="43.75367" lon="4.32025">
        <ele>30</ele>
        <time>2024-04-06T23:56:57Z</time>
      </trkpt>
      <trkpt lat="43.75349" lon="4.3205">
        <ele>30</ele>
        <time>2024-04-06T23:57:02Z</time>
      </trkpt>
      <trkpt lat="43.75333" lon="4.32086">
        <ele>30</ele>
        <time>2024-04-06T23:57:07Z</time>
      </trkpt>
      <trkpt lat="43.75321" lon="4.32124">
        <ele>30</ele>
        <time>2024-04-06T23:57:13Z</time>
      </trkpt>
      <trkpt lat="43.75317" lon="4.32162">
        <ele>30</ele>
        <time>2024-04-06T23:57:18Z</time>
      </trkpt>
      <trkpt lat="43.75318" lon="4.32192">
        <ele>31</ele>
        <time>2024-04-06T23:57:21Z</time>
      </trkpt>
      <trkpt lat="43.75333" lon="4.32295">
        <ele>33</ele>
        <time>2024-04-06T23:57:35Z</time>
      </trkpt>
      <trkpt lat="43.75333" lon="4.32327">
        <ele>33</ele>
        <time>2024-04-06T23:57:39Z</time>
      </trkpt>
      <trkpt lat="43.75326" lon="4.32368">
        <ele>33</ele>
        <time>2024-04-06T23:57:44Z</time>
      </trkpt>
      <trkpt lat="43.75269" lon="4.32564">
        <ele>36</ele>
        <time>2024-04-06T23:58:12Z</time>
      </trkpt>
      <trkpt lat="43.75224" lon="4.32683">
        <ele>37</ele>
        <time>2024-04-06T23:58:29Z</time>
      </trkpt>
      <trkpt lat="43.75214" lon="4.32721">
        <ele>38</ele>
        <time>2024-04-06T23:58:34Z</time>
      </trkpt>
      <trkpt lat="43.75201" lon="4.32856">
        <ele>40</ele>
        <time>2024-04-06T23:58:52Z</time>
      </trkpt>
      <trkpt lat="43.75189" lon="4.32912">
        <ele>40</ele>
        <time>2024-04-06T23:58:59Z</time>
      </trkpt>
      <trkpt lat="43.75172" lon="4.32956">
        <ele>40</ele>
        <time>2024-04-06T23:59:05Z</time>
      </trkpt>
      <trkpt lat="43.75145" lon="4.33002">
        <ele>41</ele>
        <time>2024-04-06T23:59:13Z</time>
      </trkpt>
      <trkpt lat="43.75111" lon="4.33048">
        <ele>41</ele>
        <time>2024-04-06T23:59:22Z</time>
      </trkpt>
      <trkpt lat="43.75091" lon="4.33072">
        <ele>41</ele>
        <time>2024-04-06T23:59:26Z</time>
      </trkpt>
      <trkpt lat="43.74995" lon="4.33199">
        <ele>43</ele>
        <time>2024-04-06T23:59:50Z</time>
      </trkpt>
      <trkpt lat="43.74946" lon="4.33254">
        <ele>44</ele>
        <time>2024-04-07T00:00:01Z</time>
      </trkpt>
      <trkpt lat="43.74865" lon="4.3339">
        <ele>46</ele>
        <time>2024-04-07T00:00:24Z</time>
      </trkpt>
      <trkpt lat="43.74776" lon="4.33526">
        <ele>48</ele>
        <time>2024-04-07T00:00:47Z</time>
      </trkpt>
      <trkpt lat="43.74637" lon="4.33777">
        <ele>50</ele>
        <time>2024-04-07T00:01:28Z</time>
      </trkpt>
      <trkpt lat="43.74534" lon="4.33975">
        <ele>52</ele>
        <time>2024-04-07T00:01:59Z</time>
      </trkpt>
      <trkpt lat="43.74494" lon="4.34092">
        <ele>54</ele>
        <time>2024-04-07T00:02:16Z</time>
      </trkpt>
      <trkpt lat="43.74486" lon="4.34121">
        <ele>56</ele>
        <time>2024-04-07T00:02:20Z</time>
      </trkpt>
      <trkpt lat="43.74481" lon="4.34125">
        <ele>56</ele>
        <time>2024-04-07T00:02:21Z</time>
      </trkpt>
      <trkpt lat="43.74478" lon="4.34132">
        <ele>56</ele>
        <time>2024-04-07T00:02:22Z</time>
      </trkpt>
      <trkpt lat="43.74477" lon="4.34139">
        <ele>57</ele>
        <time>2024-04-07T00:02:23Z</time>
      </trkpt>
      <trkpt lat="43.74477" lon="4.34146">
        <ele>57</ele>
        <time>2024-04-07T00:02:24Z</time>
      </trkpt>
      <trkpt lat="43.7448" lon="4.34153">
        <ele>57</ele>
        <time>2024-04-07T00:02:25Z</time>
      </trkpt>
      <trkpt lat="43.74483" lon="4.34158">
        <ele>58</ele>
        <time>2024-04-07T00:02:26Z</time>
      </trkpt>
      <trkpt lat="43.74461" lon="4.34181">
        <ele>58</ele>
        <time>2024-04-07T00:02:31Z</time>
      </trkpt>
      <trkpt lat="43.74436" lon="4.34196">
        <ele>59</ele>
        <time>2024-04-07T00:02:36Z</time>
      </trkpt>
      <trkpt lat="43.74306" lon="4.34265">
        <ele>59</ele>
        <time>2024-04-07T00:03:00Z</time>
      </trkpt>
      <trkpt lat="43.74249" lon="4.3429">
        <ele>59</ele>
        <time>2024-04-07T00:03:11Z</time>
      </trkpt>
      <trkpt lat="43.74226" lon="4.34297">
        <ele>60</ele>
        <time>2024-04-07T00:03:15Z</time>
      </trkpt>
      <trkpt lat="43.74205" lon="4.343">
        <ele>61</ele>
        <time>2024-04-07T00:03:19Z</time>
      </trkpt>
      <trkpt lat="43.74178" lon="4.343">
        <ele>61</ele>
        <time>2024-04-07T00:03:24Z</time>
      </trkpt>
      <trkpt lat="43.741" lon="4.34289">
        <ele>63</ele>
        <time>2024-04-07T00:03:38Z</time>
      </trkpt>
      <trkpt lat="43.74042" lon="4.3429">
        <ele>63</ele>
        <time>2024-04-07T00:03:48Z</time>
      </trkpt>
      <trkpt lat="43.74011" lon="4.34297">
        <ele>63</ele>
        <time>2024-04-07T00:03:54Z</time>
      </trkpt>
      <trkpt lat="43.73979" lon="4.34306">
        <ele>63</ele>
        <time>2024-04-07T00:03:59Z</time>
      </trkpt>
      <trkpt lat="43.73849" lon="4.34352">
        <ele>66</ele>
        <time>2024-04-07T00:04:23Z</time>
      </trkpt>
      <trkpt lat="43.73815" lon="4.34367">
        <ele>66</ele>
        <time>2024-04-07T00:04:30Z</time>
      </trkpt>
      <trkpt lat="43.73782" lon="4.34385">
        <ele>66</ele>
        <time>2024-04-07T00:04:36Z</time>
      </trkpt>
      <trkpt lat="43.7375" lon="4.34408">
        <ele>67</ele>
        <time>2024-04-07T00:04:42Z</time>
      </trkpt>
      <trkpt lat="43.73608" lon="4.34527">
        <ele>73</ele>
        <time>2024-04-07T00:05:12Z</time>
      </trkpt>
      <trkpt lat="43.73545" lon="4.34599">
        <ele>75</ele>
        <time>2024-04-07T00:05:26Z</time>
      </trkpt>
      <trkpt lat="43.73521" lon="4.3463">
        <ele>76</ele>
        <time>2024-04-07T00:05:32Z</time>
      </trkpt>
      <trkpt lat="43.73506" lon="4.3465">
        <ele>76</ele>
        <time>2024-04-07T00:05:36Z</time>
      </trkpt>
      <trkpt lat="43.73478" lon="4.34686">
        <ele>77</ele>
        <time>2024-04-07T00:05:43Z</time>
      </trkpt>
      <trkpt lat="43.73445" lon="4.34744">
        <ele>79</ele>
        <time>2024-04-07T00:05:52Z</time>
      </trkpt>
      <trkpt lat="43.73417" lon="4.348">
        <ele>80</ele>
        <time>2024-04-07T00:06:01Z</time>
      </trkpt>
      <trkpt lat="43.73401" lon="4.34828">
        <ele>81</ele>
        <time>2024-04-07T00:06:06Z</time>
      </trkpt>
      <trkpt lat="43.73385" lon="4.34851">
        <ele>82</ele>
        <time>2024-04-07T00:06:10Z</time>
      </trkpt>
      <trkpt lat="43.73368" lon="4.34872">
        <ele>83</ele>
        <time>2024-04-07T00:06:14Z</time>
      </trkpt>
      <trkpt lat="43.7333" lon="4.34913">
        <ele>87</ele>
        <time>2024-04-07T00:06:22Z</time>
      </trkpt>
      <trkpt lat="43.73292" lon="4.34958">
        <ele>85</ele>
        <time>2024-04-07T00:06:31Z</time>
      </trkpt>
      <trkpt lat="43.73271" lon="4.34978">
        <ele>83</ele>
        <time>2024-04-07T00:06:36Z</time>
      </trkpt>
      <trkpt lat="43.73233" lon="4.35002">
        <ele>82</ele>
        <time>2024-04-07T00:06:43Z</time>
      </trkpt>
      <trkpt lat="43.73151" lon="4.35038">
        <ele>79</ele>
        <time>2024-04-07T00:06:58Z</time>
      </trkpt>
      <trkpt lat="43.73089" lon="4.35059">
        <ele>78</ele>
        <time>2024-04-07T00:07:10Z</time>
      </trkpt>
      <trkpt lat="43.73073" lon="4.35057">
        <ele>78</ele>
        <time>2024-04-07T00:07:13Z</time>
      </trkpt>
      <trkpt lat="43.7305" lon="4.35048">
        <ele>78</ele>
        <time>2024-04-07T00:07:17Z</time>
      </trkpt>
      <trkpt lat="43.72975" lon="4.34987">
        <ele>78</ele>
        <time>2024-04-07T00:07:32Z</time>
      </trkpt>
      <trkpt lat="43.72962" lon="4.34981">
        <ele>78</ele>
        <time>2024-04-07T00:07:35Z</time>
      </trkpt>
      <trkpt lat="43.72929" lon="4.3492">
        <ele>78</ele>
        <time>2024-04-07T00:07:45Z</time>
      </trkpt>
      <trkpt lat="43.72918" lon="4.34894">
        <ele>78</ele>
        <time>2024-04-07T00:07:49Z</time>
      </trkpt>
      <trkpt lat="43.72915" lon="4.34879">
        <ele>78</ele>
        <time>2024-04-07T00:07:51Z</time>
      </trkpt>
      <trkpt lat="43.7292" lon="4.34805">
        <ele>77</ele>
        <time>2024-04-07T00:08:00Z</time>
      </trkpt>
      <trkpt lat="43.7285" lon="4.34804">
        <ele>78</ele>
        <time>2024-04-07T00:08:13Z</time>
      </trkpt>
      <trkpt lat="43.72847" lon="4.34802">
        <ele>78</ele>
        <time>2024-04-07T00:08:13Z</time>
      </trkpt>
      <trkpt lat="43.72833" lon="4.34804">
        <ele>78</ele>
        <time>2024-04-07T00:08:16Z</time>
      </trkpt>
      <trkpt lat="43.72832" lon="4.34848">
        <ele>78</ele>
        <time>2024-04-07T00:08:21Z</time>
      </trkpt>
      <trkpt lat="43.72822" lon="4.34853">
        <ele>79</ele>
        <time>2024-04-07T00:08:23Z</time>
      </trkpt>
      <trkpt lat="43.7281" lon="4.34862">
        <ele>79</ele>
        <time>2024-04-07T00:08:26Z</time>
      </trkpt>
      <trkpt lat="43.72801" lon="4.34868">
        <ele>79</ele>
        <time>2024-04-07T00:08:27Z</time>
      </trkpt>
      <trkpt lat="43.72736" lon="4.34918">
        <ele>82</ele>
        <time>2024-04-07T00:08:41Z</time>
      </trkpt>
      <trkpt lat="43.72696" lon="4.34954">
        <ele>83</ele>
        <time>2024-04-07T00:08:49Z</time>
      </trkpt>
      <trkpt lat="43.72663" lon="4.34988">
        <ele>84</ele>
        <time>2024-04-07T00:08:56Z</time>
      </trkpt>
      <trkpt lat="43.72594" lon="4.35071">
        <ele>87</ele>
        <time>2024-04-07T00:09:13Z</time>
      </trkpt>
      <trkpt lat="43.7256" lon="4.351">
        <ele>89</ele>
        <time>2024-04-07T00:09:20Z</time>
      </trkpt>
      <trkpt lat="43.72517" lon="4.35122">
        <ele>91</ele>
        <time>2024-04-07T00:09:28Z</time>
      </trkpt>
      <trkpt lat="43.72482" lon="4.35134">
        <ele>93</ele>
        <time>2024-04-07T00:09:34Z</time>
      </trkpt>
      <trkpt lat="43.72438" lon="4.35146">
        <ele>95</ele>
        <time>2024-04-07T00:09:42Z</time>
      </trkpt>
      <trkpt lat="43.72342" lon="4.35157">
        <ele>98</ele>
        <time>2024-04-07T00:10:00Z</time>
      </trkpt>
      <trkpt lat="43.72312" lon="4.35167">
        <ele>99</ele>
        <time>2024-04-07T00:10:05Z</time>
      </trkpt>
      <trkpt lat="43.72285" lon="4.35179">
        <ele>99</ele>
        <time>2024-04-07T00:10:10Z</time>
      </trkpt>
      <trkpt lat="43.72258" lon="4.35196">
        <ele>99</ele>
        <time>2024-04-07T00:10:15Z</time>
      </trkpt>
      <trkpt lat="43.72192" lon="4.35246">
        <ele>100</ele>
        <time>2024-04-07T00:10:29Z</time>
      </trkpt>
      <trkpt lat="43.72177" lon="4.35259">
        <ele>100</ele>
        <time>2024-04-07T00:10:32Z</time>
      </trkpt>
      <trkpt lat="43.72131" lon="4.35304">
        <ele>102</ele>
        <time>2024-04-07T00:10:42Z</time>
      </trkpt>
      <trkpt lat="43.72055" lon="4.35396">
        <ele>107</ele>
        <time>2024-04-07T00:11:00Z</time>
      </trkpt>
      <trkpt lat="43.72041" lon="4.35416">
        <ele>107</ele>
        <time>2024-04-07T00:11:03Z</time>
      </trkpt>
      <trkpt lat="43.71991" lon="4.35503">
        <ele>110</ele>
        <time>2024-04-07T00:11:18Z</time>
      </trkpt>
      <trkpt lat="43.71978" lon="4.35531">
        <ele>111</ele>
        <time>2024-04-07T00:11:22Z</time>
      </trkpt>
      <trkpt lat="43.7195" lon="4.35599">
        <ele>112</ele>
        <time>2024-04-07T00:11:32Z</time>
      </trkpt>
      <trkpt lat="43.71912" lon="4.35696">
        <ele>110</ele>
        <time>2024-04-07T00:11:46Z</time>
      </trkpt>
      <trkpt lat="43.71906" lon="4.35721">
        <ele>110</ele>
        <time>2024-04-07T00:11:50Z</time>
      </trkpt>
      <trkpt lat="43.7188" lon="4.35865">
        <ele>111</ele>
        <time>2024-04-07T00:12:09Z</time>
      </trkpt>
      <trkpt lat="43.71867" lon="4.35918">
        <ele>111</ele>
        <time>2024-04-07T00:12:16Z</time>
      </trkpt>
      <trkpt lat="43.71856" lon="4.35953">
        <ele>111</ele>
        <time>2024-04-07T00:12:21Z</time>
      </trkpt>
      <trkpt lat="43.71837" lon="4.35997">
        <ele>110</ele>
        <time>2024-04-07T00:12:27Z</time>
      </trkpt>
      <trkpt lat="43.71776" lon="4.36126">
        <ele>108</ele>
        <time>2024-04-07T00:12:47Z</time>
      </trkpt>
      <trkpt lat="43.71754" lon="4.36167">
        <ele>108</ele>
        <time>2024-04-07T00:12:54Z</time>
      </trkpt>
      <trkpt lat="43.71742" lon="4.36187">
        <ele>108</ele>
        <time>2024-04-07T00:12:57Z</time>
      </trkpt>
      <trkpt lat="43.71698" lon="4.36243">
        <ele>111</ele>
        <time>2024-04-07T00:13:08Z</time>
      </trkpt>
      <trkpt lat="43.71533" lon="4.36429">
        <ele>107</ele>
        <time>2024-04-07T00:13:46Z</time>
      </trkpt>
      <trkpt lat="43.71516" lon="4.36452">
        <ele>107</ele>
        <time>2024-04-07T00:13:50Z</time>
      </trkpt>
      <trkpt lat="43.71415" lon="4.3661">
        <ele>98</ele>
        <time>2024-04-07T00:14:17Z</time>
      </trkpt>
      <trkpt lat="43.71399" lon="4.36625">
        <ele>98</ele>
        <time>2024-04-07T00:14:20Z</time>
      </trkpt>
      <trkpt lat="43.71361" lon="4.36654">
        <ele>96</ele>
        <time>2024-04-07T00:14:28Z</time>
      </trkpt>
      <trkpt lat="43.71054" lon="4.36871">
        <ele>88</ele>
        <time>2024-04-07T00:15:30Z</time>
      </trkpt>
      <trkpt lat="43.70874" lon="4.37057">
        <ele>80</ele>
        <time>2024-04-07T00:16:10Z</time>
      </trkpt>
      <trkpt lat="43.70638" lon="4.37216">
        <ele>68</ele>
        <time>2024-04-07T00:16:56Z</time>
      </trkpt>
      <trkpt lat="43.70613" lon="4.37238">
        <ele>67</ele>
        <time>2024-04-07T00:17:01Z</time>
      </trkpt>
      <trkpt lat="43.70518" lon="4.37347">
        <ele>63</ele>
        <time>2024-04-07T00:17:23Z</time>
      </trkpt>
      <trkpt lat="43.70477" lon="4.37386">
        <ele>64</ele>
        <time>2024-04-07T00:17:32Z</time>
      </trkpt>
      <trkpt lat="43.70453" lon="4.37405">
        <ele>63</ele>
        <time>2024-04-07T00:17:37Z</time>
      </trkpt>
      <trkpt lat="43.70363" lon="4.37446">
        <ele>62</ele>
        <time>2024-04-07T00:17:54Z</time>
      </trkpt>
      <trkpt lat="43.70344" lon="4.37463">
        <ele>62</ele>
        <time>2024-04-07T00:17:58Z</time>
      </trkpt>
      <trkpt lat="43.70303" lon="4.37532">
        <ele>62</ele>
        <time>2024-04-07T00:18:10Z</time>
      </trkpt>
      <trkpt lat="43.70282" lon="4.37554">
        <ele>62</ele>
        <time>2024-04-07T00:18:14Z</time>
      </trkpt>
      <trkpt lat="43.70119" lon="4.37692">
        <ele>55</ele>
        <time>2024-04-07T00:18:48Z</time>
      </trkpt>
      <trkpt lat="43.70092" lon="4.37726">
        <ele>53</ele>
        <time>2024-04-07T00:18:55Z</time>
      </trkpt>
      <trkpt lat="43.70063" lon="4.37781">
        <ele>52</ele>
        <time>2024-04-07T00:19:04Z</time>
      </trkpt>
      <trkpt lat="43.69672" lon="4.38588">
        <ele>31</ele>
        <time>2024-04-07T00:21:09Z</time>
      </trkpt>
      <trkpt lat="43.69551" lon="4.38868">
        <ele>28</ele>
        <time>2024-04-07T00:21:50Z</time>
      </trkpt>
      <trkpt lat="43.69507" lon="4.39007">
        <ele>30</ele>
        <time>2024-04-07T00:22:10Z</time>
      </trkpt>
      <trkpt lat="43.6944" lon="4.39138">
        <ele>30</ele>
        <time>2024-04-07T00:22:31Z</time>
      </trkpt>
      <trkpt lat="43.69331" lon="4.39312">
        <ele>30</ele>
        <time>2024-04-07T00:23:00Z</time>
      </trkpt>
      <trkpt lat="43.69263" lon="4.39376">
        <ele>29</ele>
        <time>2024-04-07T00:23:15Z</time>
      </trkpt>
      <trkpt lat="43.69161" lon="4.39449">
        <ele>27</ele>
        <time>2024-04-07T00:23:35Z</time>
      </trkpt>
      <trkpt lat="43.69051" lon="4.39533">
        <ele>26</ele>
        <time>2024-04-07T00:23:58Z</time>
      </trkpt>
      <trkpt lat="43.68965" lon="4.39614">
        <ele>26</ele>
        <time>2024-04-07T00:24:16Z</time>
      </trkpt>
      <trkpt lat="43.68843" lon="4.39758">
        <ele>25</ele>
        <time>2024-04-07T00:24:45Z</time>
      </trkpt>
      <trkpt lat="43.68768" lon="4.3984">
        <ele>25</ele>
        <time>2024-04-07T00:25:02Z</time>
      </trkpt>
      <trkpt lat="43.6863" lon="4.39968">
        <ele>23</ele>
        <time>2024-04-07T00:25:31Z</time>
      </trkpt>
      <trkpt lat="43.68537" lon="4.40043">
        <ele>22</ele>
        <time>2024-04-07T00:25:50Z</time>
      </trkpt>
      <trkpt lat="43.68428" lon="4.40161">
        <ele>21</ele>
        <time>2024-04-07T00:26:15Z</time>
      </trkpt>
      <trkpt lat="43.6814" lon="4.40543">
        <ele>22</ele>
        <time>2024-04-07T00:27:26Z</time>
      </trkpt>
      <trkpt lat="43.68087" lon="4.40607">
        <ele>21</ele>
        <time>2024-04-07T00:27:39Z</time>
      </trkpt>
      <trkpt lat="43.6806" lon="4.40638">
        <ele>21</ele>
        <time>2024-04-07T00:27:45Z</time>
      </trkpt>
      <trkpt lat="43.6799" lon="4.40714">
        <ele>20</ele>
        <time>2024-04-07T00:28:01Z</time>
      </trkpt>
      <trkpt lat="43.67925" lon="4.40782">
        <ele>21</ele>
        <time>2024-04-07T00:28:15Z</time>
      </trkpt>
      <trkpt lat="43.67899" lon="4.40814">
        <ele>21</ele>
        <time>2024-04-07T00:28:21Z</time>
      </trkpt>
      <trkpt lat="43.67872" lon="4.40859">
        <ele>22</ele>
        <time>2024-04-07T00:28:29Z</time>
      </trkpt>
      <trkpt lat="43.67856" lon="4.40898">
        <ele>21</ele>
        <time>2024-04-07T00:28:35Z</time>
      </trkpt>
      <trkpt lat="43.67847" lon="4.40929">
        <ele>21</ele>
        <time>2024-04-07T00:28:39Z</time>
      </trkpt>
      <trkpt lat="43.67829" lon="4.4107">
        <ele>19</ele>
        <time>2024-04-07T00:28:57Z</time>
      </trkpt>
      <trkpt lat="43.67796" lon="4.41215">
        <ele>19</ele>
        <time>2024-04-07T00:29:17Z</time>
      </trkpt>
      <trkpt lat="43.67759" lon="4.41392">
        <ele>21</ele>
        <time>2024-04-07T00:29:41Z</time>
      </trkpt>
      <trkpt lat="43.67707" lon="4.41553">
        <ele>20</ele>
        <time>2024-04-07T00:30:03Z</time>
      </trkpt>
      <trkpt lat="43.67691" lon="4.41611">
        <ele>19</ele>
        <time>2024-04-07T00:30:11Z</time>
      </trkpt>
      <trkpt lat="43.67686" lon="4.4164">
        <ele>19</ele>
        <time>2024-04-07T00:30:15Z</time>
      </trkpt>
      <trkpt lat="43.67678" lon="4.41677">
        <ele>18</ele>
        <time>2024-04-07T00:30:20Z</time>
      </trkpt>
      <trkpt lat="43.67667" lon="4.41714">
        <ele>17</ele>
        <time>2024-04-07T00:30:25Z</time>
      </trkpt>
      <trkpt lat="43.67663" lon="4.41713">
        <ele>17</ele>
        <time>2024-04-07T00:30:26Z</time>
      </trkpt>
      <trkpt lat="43.67656" lon="4.41715">
        <ele>17</ele>
        <time>2024-04-07T00:30:27Z</time>
      </trkpt>
      <trkpt lat="43.67651" lon="4.41722">
        <ele>17</ele>
        <time>2024-04-07T00:30:29Z</time>
      </trkpt>
      <trkpt lat="43.6765" lon="4.41727">
        <ele>17</ele>
        <time>2024-04-07T00:30:29Z</time>
      </trkpt>
      <trkpt lat="43.67651" lon="4.41741">
        <ele>17</ele>
        <time>2024-04-07T00:30:31Z</time>
      </trkpt>
      <trkpt lat="43.67658" lon="4.4175">
        <ele>17</ele>
        <time>2024-04-07T00:30:33Z</time>
      </trkpt>
      <trkpt lat="43.67656" lon="4.41761">
        <ele>17</ele>
        <time>2024-04-07T00:30:34Z</time>
      </trkpt>
      <trkpt lat="43.67631" lon="4.41866">
        <ele>17</ele>
        <time>2024-04-07T00:30:48Z</time>
      </trkpt>
      <trkpt lat="43.67592" lon="4.42016">
        <ele>16</ele>
        <time>2024-04-07T00:31:09Z</time>
      </trkpt>
      <trkpt lat="43.67574" lon="4.42099">
        <ele>15</ele>
        <time>2024-04-07T00:31:20Z</time>
      </trkpt>
      <trkpt lat="43.67571" lon="4.42101">
        <ele>15</ele>
        <time>2024-04-07T00:31:21Z</time>
      </trkpt>
      <trkpt lat="43.67568" lon="4.42111">
        <ele>16</ele>
        <time>2024-04-07T00:31:22Z</time>
      </trkpt>
      <trkpt lat="43.6756" lon="4.42121">
        <ele>16</ele>
        <time>2024-04-07T00:31:24Z</time>
      </trkpt>
      <trkpt lat="43.67553" lon="4.42126">
        <ele>16</ele>
        <time>2024-04-07T00:31:25Z</time>
      </trkpt>
      <trkpt lat="43.67551" lon="4.42129">
        <ele>16</ele>
        <time>2024-04-07T00:31:26Z</time>
      </trkpt>
      <trkpt lat="43.67549" lon="4.42139">
        <ele>16</ele>
        <time>2024-04-07T00:31:27Z</time>
      </trkpt>
      <trkpt lat="43.67551" lon="4.42149">
        <ele>17</ele>
        <time>2024-04-07T00:31:29Z</time>
      </trkpt>
      <trkpt lat="43.67553" lon="4.42153">
        <ele>17</ele>
        <time>2024-04-07T00:31:29Z</time>
      </trkpt>
      <trkpt lat="43.67556" lon="4.42169">
        <ele>17</ele>
        <time>2024-04-07T00:31:31Z</time>
      </trkpt>
      <trkpt lat="43.67554" lon="4.42194">
        <ele>17</ele>
        <time>2024-04-07T00:31:35Z</time>
      </trkpt>
      <trkpt lat="43.67555" lon="4.422">
        <ele>18</ele>
        <time>2024-04-07T00:31:35Z</time>
      </trkpt>
      <trkpt lat="43.67546" lon="4.42243">
        <ele>18</ele>
        <time>2024-04-07T00:31:41Z</time>
      </trkpt>
      <trkpt lat="43.67531" lon="4.4233">
        <ele>17</ele>
        <time>2024-04-07T00:31:53Z</time>
      </trkpt>
      <trkpt lat="43.67519" lon="4.42498">
        <ele>15</ele>
        <time>2024-04-07T00:32:14Z</time>
      </trkpt>
      <trkpt lat="43.6751" lon="4.42523">
        <ele>14</ele>
        <time>2024-04-07T00:32:18Z</time>
      </trkpt>
      <trkpt lat="43.67532" lon="4.42549">
        <ele>12</ele>
        <time>2024-04-07T00:32:23Z</time>
      </trkpt>
      <trkpt lat="43.67618" lon="4.42695">
        <ele>8</ele>
        <time>2024-04-07T00:32:47Z</time>
      </trkpt>
      <trkpt lat="43.6762" lon="4.42716">
        <ele>8</ele>
        <time>2024-04-07T00:32:50Z</time>
      </trkpt>
      <trkpt lat="43.67664" lon="4.42869">
        <ele>9</ele>
        <time>2024-04-07T00:33:11Z</time>
      </trkpt>
      <trkpt lat="43.67692" lon="4.42974">
        <ele>12</ele>
        <time>2024-04-07T00:33:26Z</time>
      </trkpt>
      <trkpt lat="43.67659" lon="4.42993">
        <ele>11</ele>
        <time>2024-04-07T00:33:32Z</time>
      </trkpt>
      <trkpt lat="43.67644" lon="4.43007">
        <ele>11</ele>
        <time>2024-04-07T00:33:35Z</time>
      </trkpt>
      <trkpt lat="43.67616" lon="4.43041">
        <ele>11</ele>
        <time>2024-04-07T00:33:42Z</time>
      </trkpt>
      <trkpt lat="43.67574" lon="4.4308">
        <ele>9</ele>
        <time>2024-04-07T00:33:51Z</time>
      </trkpt>
      <trkpt lat="43.67436" lon="4.4322">
        <ele>7</ele>
        <time>2024-04-07T00:34:21Z</time>
      </trkpt>
      <trkpt lat="43.67406" lon="4.43252">
        <ele>6</ele>
        <time>2024-04-07T00:34:28Z</time>
      </trkpt>
      <trkpt lat="43.67361" lon="4.43347">
        <ele>6</ele>
        <time>2024-04-07T00:34:43Z</time>
      </trkpt>
      <trkpt lat="43.67348" lon="4.43372">
        <ele>6</ele>
        <time>2024-04-07T00:34:47Z</time>
      </trkpt>
      <trkpt lat="43.67343" lon="4.43373">
        <ele>6</ele>
        <time>2024-04-07T00:34:48Z</time>
      </trkpt>
      <trkpt lat="43.67315" lon="4.4343">
        <ele>4</ele>
        <time>2024-04-07T00:34:56Z</time>
      </trkpt>
      <trkpt lat="43.67312" lon="4.43437">
        <ele>4</ele>
        <time>2024-04-07T00:34:57Z</time>
      </trkpt>
      <trkpt lat="43.67306" lon="4.4345">
        <ele>4</ele>
        <time>2024-04-07T00:34:59Z</time>
      </trkpt>
      <trkpt lat="43.67292" lon="4.43479">
        <ele>3</ele>
        <time>2024-04-07T00:35:04Z</time>
      </trkpt>
      <trkpt lat="43.67263" lon="4.43538">
        <ele>4</ele>
        <time>2024-04-07T00:35:13Z</time>
      </trkpt>
      <trkpt lat="43.67262" lon="4.4355">
        <ele>4</ele>
        <time>2024-04-07T00:35:15Z</time>
      </trkpt>
      <trkpt lat="43.67217" lon="4.43641">
        <ele>4</ele>
        <time>2024-04-07T00:35:29Z</time>
      </trkpt>
      <trkpt lat="43.67209" lon="4.43659">
        <ele>4</ele>
        <time>2024-04-07T00:35:32Z</time>
      </trkpt>
      <trkpt lat="43.67176" lon="4.43715">
        <ele>3</ele>
        <time>2024-04-07T00:35:41Z</time>
      </trkpt>
      <trkpt lat="43.67181" lon="4.4373">
        <ele>3</ele>
        <time>2024-04-07T00:35:43Z</time>
      </trkpt>
      <trkpt lat="43.67191" lon="4.43824">
        <ele>3</ele>
        <time>2024-04-07T00:35:55Z</time>
      </trkpt>
      <trkpt lat="43.67181" lon="4.4373">
        <ele>3</ele>
        <time>2024-04-07T00:36:07Z</time>
      </trkpt>
      <trkpt lat="43.67176" lon="4.43715">
        <ele>3</ele>
        <time>2024-04-07T00:36:10Z</time>
      </trkpt>
      <trkpt lat="43.6717" lon="4.43717">
        <ele>3</ele>
        <time>2024-04-07T00:36:11Z</time>
      </trkpt>
      <trkpt lat="43.67159" lon="4.43723">
        <ele>3</ele>
        <time>2024-04-07T00:36:13Z</time>
      </trkpt>
      <trkpt lat="43.67149" lon="4.4373">
        <ele>3</ele>
        <time>2024-04-07T00:36:15Z</time>
      </trkpt>
      <trkpt lat="43.67143" lon="4.43737">
        <ele>3</ele>
        <time>2024-04-07T00:36:16Z</time>
      </trkpt>
      <trkpt lat="43.67138" lon="4.43749">
        <ele>3</ele>
        <time>2024-04-07T00:36:18Z</time>
      </trkpt>
      <trkpt lat="43.67125" lon="4.43853">
        <ele>3</ele>
        <time>2024-04-07T00:36:32Z</time>
      </trkpt>
      <trkpt lat="43.67126" lon="4.4388">
        <ele>3</ele>
        <time>2024-04-07T00:36:35Z</time>
      </trkpt>
      <trkpt lat="43.67137" lon="4.4397">
        <ele>2</ele>
        <time>2024-04-07T00:36:47Z</time>
      </trkpt>
      <trkpt lat="43.67138" lon="4.44059">
        <ele>2</ele>
        <time>2024-04-07T00:36:58Z</time>
      </trkpt>
      <trkpt lat="43.67136" lon="4.44116">
        <ele>2</ele>
        <time>2024-04-07T00:37:06Z</time>
      </trkpt>
      <trkpt lat="43.67132" lon="4.44135">
        <ele>2</ele>
        <time>2024-04-07T00:37:08Z</time>
      </trkpt>
      <trkpt lat="43.67122" lon="4.44169">
        <ele>2</ele>
        <time>2024-04-07T00:37:13Z</time>
      </trkpt>
      <trkpt lat="43.67109" lon="4.44199">
        <ele>2</ele>
        <time>2024-04-07T00:37:17Z</time>
      </trkpt>
      <trkpt lat="43.67035" lon="4.44304">
        <ele>2</ele>
        <time>2024-04-07T00:37:36Z</time>
      </trkpt>
      <trkpt lat="43.67012" lon="4.44341">
        <ele>3</ele>
        <time>2024-04-07T00:37:42Z</time>
      </trkpt>
      <trkpt lat="43.66988" lon="4.44386">
        <ele>3</ele>
        <time>2024-04-07T00:37:50Z</time>
      </trkpt>
      <trkpt lat="43.66903" lon="4.44595">
        <ele>4</ele>
        <time>2024-04-07T00:38:21Z</time>
      </trkpt>
      <trkpt lat="43.66823" lon="4.44785">
        <ele>3</ele>
        <time>2024-04-07T00:38:49Z</time>
      </trkpt>
      <trkpt lat="43.66778" lon="4.44904">
        <ele>2</ele>
        <time>2024-04-07T00:39:06Z</time>
      </trkpt>
      <trkpt lat="43.66788" lon="4.449">
        <ele>2</ele>
        <time>2024-04-07T00:39:08Z</time>
      </trkpt>
      <trkpt lat="43.66822" lon="4.44901">
        <ele>2</ele>
        <time>2024-04-07T00:39:14Z</time>
      </trkpt>
      <trkpt lat="43.66976" lon="4.45009">
        <ele>2</ele>
        <time>2024-04-07T00:39:45Z</time>
      </trkpt>
      <trkpt lat="43.66996" lon="4.45027">
        <ele>2</ele>
        <time>2024-04-07T00:39:49Z</time>
      </trkpt>
      <trkpt lat="43.67026" lon="4.45061">
        <ele>2</ele>
        <time>2024-04-07T00:39:56Z</time>
      </trkpt>
      <trkpt lat="43.67037" lon="4.45077">
        <ele>2</ele>
        <time>2024-04-07T00:39:59Z</time>
      </trkpt>
      <trkpt lat="43.6705" lon="4.45098">
        <ele>2</ele>
        <time>2024-04-07T00:40:02Z</time>
      </trkpt>
      <trkpt lat="43.67112" lon="4.45213">
        <ele>3</ele>
        <time>2024-04-07T00:40:21Z</time>
      </trkpt>
      <trkpt lat="43.67129" lon="4.45261">
        <ele>3</ele>
        <time>2024-04-07T00:40:28Z</time>
      </trkpt>
      <trkpt lat="43.67145" lon="4.45292">
        <ele>2</ele>
        <time>2024-04-07T00:40:33Z</time>
      </trkpt>
      <trkpt lat="43.67197" lon="4.45365">
        <ele>1</ele>
        <time>2024-04-07T00:40:46Z</time>
      </trkpt>
      <trkpt lat="43.67223" lon="4.45409">
        <ele>1</ele>
        <time>2024-04-07T00:40:53Z</time>
      </trkpt>
      <trkpt lat="43.67258" lon="4.45471">
        <ele>1</ele>
        <time>2024-04-07T00:41:03Z</time>
      </trkpt>
      <trkpt lat="43.67292" lon="4.45522">
        <ele>2</ele>
        <time>2024-04-07T00:41:12Z</time>
      </trkpt>
      <trkpt lat="43.67301" lon="4.45532">
        <ele>2</ele>
        <time>2024-04-07T00:41:14Z</time>
      </trkpt>
      <trkpt lat="43.67371" lon="4.45648">
        <ele>2</ele>
        <time>2024-04-07T00:41:34Z</time>
      </trkpt>
      <trkpt lat="43.67375" lon="4.45651">
        <ele>2</ele>
        <time>2024-04-07T00:41:34Z</time>
      </trkpt>
      <trkpt lat="43.674" lon="4.45657">
        <ele>1</ele>
        <time>2024-04-07T00:41:39Z</time>
      </trkpt>
      <trkpt lat="43.67403" lon="4.45671">
        <ele>1</ele>
        <time>2024-04-07T00:41:41Z</time>
      </trkpt>
      <trkpt lat="43.67407" lon="4.45718">
        <ele>1</ele>
        <time>2024-04-07T00:41:47Z</time>
      </trkpt>
      <trkpt lat="43.6742" lon="4.45752">
        <ele>1</ele>
        <time>2024-04-07T00:41:52Z</time>
      </trkpt>
      <trkpt lat="43.67439" lon="4.4578">
        <ele>1</ele>
        <time>2024-04-07T00:41:57Z</time>
      </trkpt>
      <trkpt lat="43.6747" lon="4.45808">
        <ele>1</ele>
        <time>2024-04-07T00:42:03Z</time>
      </trkpt>
      <trkpt lat="43.67597" lon="4.45854">
        <ele>2</ele>
        <time>2024-04-07T00:42:27Z</time>
      </trkpt>
      <trkpt lat="43.67669" lon="4.45891">
        <ele>2</ele>
        <time>2024-04-07T00:42:40Z</time>
      </trkpt>
      <trkpt lat="43.67715" lon="4.45922">
        <ele>3</ele>
        <time>2024-04-07T00:42:49Z</time>
      </trkpt>
      <trkpt lat="43.67763" lon="4.45958">
        <ele>2</ele>
        <time>2024-04-07T00:42:59Z</time>
      </trkpt>
      <trkpt lat="43.67817" lon="4.45991">
        <ele>1</ele>
        <time>2024-04-07T00:43:10Z</time>
      </trkpt>
      <trkpt lat="43.68311" lon="4.46013">
        <ele>2</ele>
        <time>2024-04-07T00:44:38Z</time>
      </trkpt>
      <trkpt lat="43.68329" lon="4.46012">
        <ele>2</ele>
        <time>2024-04-07T00:44:41Z</time>
      </trkpt>
      <trkpt lat="43.68335" lon="4.46015">
        <ele>2</ele>
        <time>2024-04-07T00:44:42Z</time>
      </trkpt>
      <trkpt lat="43.68672" lon="4.46254">
        <ele>4</ele>
        <time>2024-04-07T00:45:49Z</time>
      </trkpt>
      <trkpt lat="43.68893" lon="4.46606">
        <ele>2</ele>
        <time>2024-04-07T00:46:49Z</time>
      </trkpt>
      <trkpt lat="43.68985" lon="4.46681">
        <ele>4</ele>
        <time>2024-04-07T00:47:08Z</time>
      </trkpt>
      <trkpt lat="43.6903" lon="4.46724">
        <ele>4</ele>
        <time>2024-04-07T00:47:18Z</time>
      </trkpt>
      <trkpt lat="43.69075" lon="4.46777">
        <ele>4</ele>
        <time>2024-04-07T00:47:29Z</time>
      </trkpt>
      <trkpt lat="43.69126" lon="4.46849">
        <ele>3</ele>
        <time>2024-04-07T00:47:42Z</time>
      </trkpt>
      <trkpt lat="43.69182" lon="4.46943">
        <ele>4</ele>
        <time>2024-04-07T00:47:57Z</time>
      </trkpt>
      <trkpt lat="43.69323" lon="4.47233">
        <ele>3</ele>
        <time>2024-04-07T00:48:42Z</time>
      </trkpt>
      <trkpt lat="43.69331" lon="4.47256">
        <ele>3</ele>
        <time>2024-04-07T00:48:45Z</time>
      </trkpt>
      <trkpt lat="43.69333" lon="4.47277">
        <ele>3</ele>
        <time>2024-04-07T00:48:48Z</time>
      </trkpt>
      <trkpt lat="43.6933" lon="4.47302">
        <ele>4</ele>
        <time>2024-04-07T00:48:51Z</time>
      </trkpt>
      <trkpt lat="43.69318" lon="4.47363">
        <ele>4</ele>
        <time>2024-04-07T00:49:00Z</time>
      </trkpt>
      <trkpt lat="43.69319" lon="4.47371">
        <ele>4</ele>
        <time>2024-04-07T00:49:01Z</time>
      </trkpt>
      <trkpt lat="43.69326" lon="4.47384">
        <ele>5</ele>
        <time>2024-04-07T00:49:03Z</time>
      </trkpt>
      <trkpt lat="43.69356" lon="4.47408">
        <ele>4</ele>
        <time>2024-04-07T00:49:09Z</time>
      </trkpt>
      <trkpt lat="43.69373" lon="4.47435">
        <ele>4</ele>
        <time>2024-04-07T00:49:14Z</time>
      </trkpt>
      <trkpt lat="43.69392" lon="4.47471">
        <ele>5</ele>
        <time>2024-04-07T00:49:19Z</time>
      </trkpt>
      <trkpt lat="43.69519" lon="4.47638">
        <ele>6</ele>
        <time>2024-04-07T00:49:50Z</time>
      </trkpt>
      <trkpt lat="43.69564" lon="4.47681">
        <ele>5</ele>
        <time>2024-04-07T00:50:00Z</time>
      </trkpt>
      <trkpt lat="43.69599" lon="4.47719">
        <ele>5</ele>
        <time>2024-04-07T00:50:08Z</time>
      </trkpt>
      <trkpt lat="43.69688" lon="4.47828">
        <ele>3</ele>
        <time>2024-04-07T00:50:29Z</time>
      </trkpt>
      <trkpt lat="43.69831" lon="4.47996">
        <ele>2</ele>
        <time>2024-04-07T00:51:03Z</time>
      </trkpt>
      <trkpt lat="43.69849" lon="4.4802">
        <ele>2</ele>
        <time>2024-04-07T00:51:07Z</time>
      </trkpt>
      <trkpt lat="43.69869" lon="4.48053">
        <ele>3</ele>
        <time>2024-04-07T00:51:13Z</time>
      </trkpt>
      <trkpt lat="43.69887" lon="4.48083">
        <ele>4</ele>
        <time>2024-04-07T00:51:18Z</time>
      </trkpt>
      <trkpt lat="43.69898" lon="4.48106">
        <ele>3</ele>
        <time>2024-04-07T00:51:21Z</time>
      </trkpt>
      <trkpt lat="43.6991" lon="4.48135">
        <ele>3</ele>
        <time>2024-04-07T00:51:25Z</time>
      </trkpt>
      <trkpt lat="43.69922" lon="4.48179">
        <ele>2</ele>
        <time>2024-04-07T00:51:32Z</time>
      </trkpt>
      <trkpt lat="43.6997" lon="4.48394">
        <ele>3</ele>
        <time>2024-04-07T00:52:00Z</time>
      </trkpt>
      <trkpt lat="43.69995" lon="4.48481">
        <ele>4</ele>
        <time>2024-04-07T00:52:12Z</time>
      </trkpt>
      <trkpt lat="43.70029" lon="4.48577">
        <ele>6</ele>
        <time>2024-04-07T00:52:26Z</time>
      </trkpt>
      <trkpt lat="43.70067" lon="4.48708">
        <ele>5</ele>
        <time>2024-04-07T00:52:44Z</time>
      </trkpt>
      <trkpt lat="43.70111" lon="4.48905">
        <ele>3</ele>
        <time>2024-04-07T00:53:11Z</time>
      </trkpt>
      <trkpt lat="43.70138" lon="4.4897">
        <ele>3</ele>
        <time>2024-04-07T00:53:21Z</time>
      </trkpt>
      <trkpt lat="43.70171" lon="4.49116">
        <ele>5</ele>
        <time>2024-04-07T00:53:40Z</time>
      </trkpt>
      <trkpt lat="43.70192" lon="4.49252">
        <ele>7</ele>
        <time>2024-04-07T00:53:58Z</time>
      </trkpt>
      <trkpt lat="43.70204" lon="4.49281">
        <ele>6</ele>
        <time>2024-04-07T00:54:02Z</time>
      </trkpt>
      <trkpt lat="43.70254" lon="4.49327">
        <ele>5</ele>
        <time>2024-04-07T00:54:13Z</time>
      </trkpt>
      <trkpt lat="43.70323" lon="4.49407">
        <ele>2</ele>
        <time>2024-04-07T00:54:29Z</time>
      </trkpt>
      <trkpt lat="43.70411" lon="4.49541">
        <ele>4</ele>
        <time>2024-04-07T00:54:52Z</time>
      </trkpt>
      <trkpt lat="43.70526" lon="4.49798">
        <ele>4</ele>
        <time>2024-04-07T00:55:31Z</time>
      </trkpt>
      <trkpt lat="43.70549" lon="4.49889">
        <ele>4</ele>
        <time>2024-04-07T00:55:44Z</time>
      </trkpt>
      <trkpt lat="43.70581" lon="4.5008">
        <ele>5</ele>
        <time>2024-04-07T00:56:09Z</time>
      </trkpt>
      <trkpt lat="43.7061" lon="4.50348">
        <ele>4</ele>
        <time>2024-04-07T00:56:44Z</time>
      </trkpt>
      <trkpt lat="43.70615" lon="4.50384">
        <ele>3</ele>
        <time>2024-04-07T00:56:48Z</time>
      </trkpt>
      <trkpt lat="43.70661" lon="4.50811">
        <ele>4</ele>
        <time>2024-04-07T00:57:44Z</time>
      </trkpt>
      <trkpt lat="43.70662" lon="4.50891">
        <ele>6</ele>
        <time>2024-04-07T00:57:54Z</time>
      </trkpt>
      <trkpt lat="43.7062" lon="4.51443">
        <ele>5</ele>
        <time>2024-04-07T00:59:06Z</time>
      </trkpt>
      <trkpt lat="43.70602" lon="4.51716">
        <ele>5</ele>
        <time>2024-04-07T00:59:41Z</time>
      </trkpt>
      <trkpt lat="43.70608" lon="4.51767">
        <ele>6</ele>
        <time>2024-04-07T00:59:48Z</time>
      </trkpt>
      <trkpt lat="43.70626" lon="4.51831">
        <ele>5</ele>
        <time>2024-04-07T00:59:56Z</time>
      </trkpt>
      <trkpt lat="43.70633" lon="4.51875">
        <ele>5</ele>
        <time>2024-04-07T01:00:02Z</time>
      </trkpt>
      <trkpt lat="43.70631" lon="4.52093">
        <ele>4</ele>
        <time>2024-04-07T01:00:30Z</time>
      </trkpt>
      <trkpt lat="43.70636" lon="4.5213">
        <ele>4</ele>
        <time>2024-04-07T01:00:35Z</time>
      </trkpt>
      <trkpt lat="43.70662" lon="4.52234">
        <ele>3</ele>
        <time>2024-04-07T01:00:49Z</time>
      </trkpt>
      <trkpt lat="43.70676" lon="4.52271">
        <ele>4</ele>
        <time>2024-04-07T01:00:55Z</time>
      </trkpt>
      <trkpt lat="43.70773" lon="4.52376">
        <ele>4</ele>
        <time>2024-04-07T01:01:17Z</time>
      </trkpt>
      <trkpt lat="43.70823" lon="4.52448">
        <ele>5</ele>
        <time>2024-04-07T01:01:29Z</time>
      </trkpt>
      <trkpt lat="43.70839" lon="4.52472">
        <ele>5</ele>
        <time>2024-04-07T01:01:34Z</time>
      </trkpt>
      <trkpt lat="43.70899" lon="4.52563">
        <ele>6</ele>
        <time>2024-04-07T01:01:49Z</time>
      </trkpt>
      <trkpt lat="43.70919" lon="4.52587">
        <ele>6</ele>
        <time>2024-04-07T01:01:54Z</time>
      </trkpt>
      <trkpt lat="43.70937" lon="4.52602">
        <ele>6</ele>
        <time>2024-04-07T01:01:58Z</time>
      </trkpt>
      <trkpt lat="43.70962" lon="4.52615">
        <ele>5</ele>
        <time>2024-04-07T01:02:03Z</time>
      </trkpt>
      <trkpt lat="43.7098" lon="4.52619">
        <ele>5</ele>
        <time>2024-04-07T01:02:06Z</time>
      </trkpt>
      <trkpt lat="43.71002" lon="4.52617">
        <ele>4</ele>
        <time>2024-04-07T01:02:10Z</time>
      </trkpt>
      <trkpt lat="43.71043" lon="4.52606">
        <ele>3</ele>
        <time>2024-04-07T01:02:17Z</time>
      </trkpt>
      <trkpt lat="43.71063" lon="4.52606">
        <ele>3</ele>
        <time>2024-04-07T01:02:21Z</time>
      </trkpt>
      <trkpt lat="43.71078" lon="4.52618">
        <ele>3</ele>
        <time>2024-04-07T01:02:24Z</time>
      </trkpt>
      <trkpt lat="43.71087" lon="4.52636">
        <ele>3</ele>
        <time>2024-04-07T01:02:27Z</time>
      </trkpt>
      <trkpt lat="43.71092" lon="4.52662">
        <ele>3</ele>
        <time>2024-04-07T01:02:30Z</time>
      </trkpt>
      <trkpt lat="43.71138" lon="4.5325">
        <ele>2</ele>
        <time>2024-04-07T01:03:46Z</time>
      </trkpt>
      <trkpt lat="43.71134" lon="4.53268">
        <ele>2</ele>
        <time>2024-04-07T01:03:49Z</time>
      </trkpt>
      <trkpt lat="43.71127" lon="4.53276">
        <ele>2</ele>
        <time>2024-04-07T01:03:50Z</time>
      </trkpt>
      <trkpt lat="43.71055" lon="4.53276">
        <ele>3</ele>
        <time>2024-04-07T01:04:03Z</time>
      </trkpt>
      <trkpt lat="43.71033" lon="4.53285">
        <ele>3</ele>
        <time>2024-04-07T01:04:07Z</time>
      </trkpt>
      <trkpt lat="43.70889" lon="4.53426">
        <ele>7</ele>
        <time>2024-04-07T01:04:39Z</time>
      </trkpt>
      <trkpt lat="43.70879" lon="4.53439">
        <ele>7</ele>
        <time>2024-04-07T01:04:41Z</time>
      </trkpt>
      <trkpt lat="43.70872" lon="4.5346">
        <ele>7</ele>
        <time>2024-04-07T01:04:44Z</time>
      </trkpt>
      <trkpt lat="43.70871" lon="4.5347">
        <ele>7</ele>
        <time>2024-04-07T01:04:45Z</time>
      </trkpt>
      <trkpt lat="43.70882" lon="4.53529">
        <ele>8</ele>
        <time>2024-04-07T01:04:53Z</time>
      </trkpt>
      <trkpt lat="43.70885" lon="4.53557">
        <ele>7</ele>
        <time>2024-04-07T01:04:57Z</time>
      </trkpt>
      <trkpt lat="43.70883" lon="4.53607">
        <ele>6</ele>
        <time>2024-04-07T01:05:03Z</time>
      </trkpt>
      <trkpt lat="43.70867" lon="4.53816">
        <ele>6</ele>
        <time>2024-04-07T01:05:30Z</time>
      </trkpt>
      <trkpt lat="43.70866" lon="4.53895">
        <ele>7</ele>
        <time>2024-04-07T01:05:40Z</time>
      </trkpt>
      <trkpt lat="43.70863" lon="4.53999">
        <ele>5</ele>
        <time>2024-04-07T01:05:54Z</time>
      </trkpt>
      <trkpt lat="43.70856" lon="4.54048">
        <ele>5</ele>
        <time>2024-04-07T01:06:00Z</time>
      </trkpt>
      <trkpt lat="43.70751" lon="4.54344">
        <ele>4</ele>
        <time>2024-04-07T01:06:43Z</time>
      </trkpt>
      <trkpt lat="43.70745" lon="4.54369">
        <ele>5</ele>
        <time>2024-04-07T01:06:46Z</time>
      </trkpt>
      <trkpt lat="43.70743" lon="4.54394">
        <ele>6</ele>
        <time>2024-04-07T01:06:49Z</time>
      </trkpt>
      <trkpt lat="43.70745" lon="4.54407">
        <ele>6</ele>
        <time>2024-04-07T01:06:51Z</time>
      </trkpt>
      <trkpt lat="43.70771" lon="4.54497">
        <ele>6</ele>
        <time>2024-04-07T01:07:03Z</time>
      </trkpt>
      <trkpt lat="43.70776" lon="4.54521">
        <ele>5</ele>
        <time>2024-04-07T01:07:07Z</time>
      </trkpt>
      <trkpt lat="43.70781" lon="4.54573">
        <ele>5</ele>
        <time>2024-04-07T01:07:13Z</time>
      </trkpt>
      <trkpt lat="43.70818" lon="4.54759">
        <ele>3</ele>
        <time>2024-04-07T01:07:38Z</time>
      </trkpt>
      <trkpt lat="43.7081" lon="4.54833">
        <ele>3</ele>
        <time>2024-04-07T01:07:48Z</time>
      </trkpt>
      <trkpt lat="43.70764" lon="4.5521">
        <ele>4</ele>
        <time>2024-04-07T01:08:37Z</time>
      </trkpt>
      <trkpt lat="43.70767" lon="4.5523">
        <ele>4</ele>
        <time>2024-04-07T01:08:40Z</time>
      </trkpt>
      <trkpt lat="43.70777" lon="4.55262">
        <ele>4</ele>
        <time>2024-04-07T01:08:44Z</time>
      </trkpt>
      <trkpt lat="43.70764" lon="4.55304">
        <ele>3</ele>
        <time>2024-04-07T01:08:50Z</time>
      </trkpt>
      <trkpt lat="43.70735" lon="4.55463">
        <ele>2</ele>
        <time>2024-04-07T01:09:11Z</time>
      </trkpt>
      <trkpt lat="43.70702" lon="4.55682">
        <ele>2</ele>
        <time>2024-04-07T01:09:40Z</time>
      </trkpt>
      <trkpt lat="43.70678" lon="4.55827">
        <ele>1</ele>
        <time>2024-04-07T01:09:59Z</time>
      </trkpt>
      <trkpt lat="43.70613" lon="4.56035">
        <ele>3</ele>
        <time>2024-04-07T01:10:28Z</time>
      </trkpt>
      <trkpt lat="43.70541" lon="4.56241">
        <ele>2</ele>
        <time>2024-04-07T01:10:58Z</time>
      </trkpt>
      <trkpt lat="43.70348" lon="4.5681">
        <ele>4</ele>
        <time>2024-04-07T01:12:18Z</time>
      </trkpt>
      <trkpt lat="43.70169" lon="4.5724">
        <ele>7</ele>
        <time>2024-04-07T01:13:22Z</time>
      </trkpt>
      <trkpt lat="43.70016" lon="4.57602">
        <ele>4</ele>
        <time>2024-04-07T01:14:16Z</time>
      </trkpt>
      <trkpt lat="43.69988" lon="4.57695">
        <ele>4</ele>
        <time>2024-04-07T01:14:29Z</time>
      </trkpt>
      <trkpt lat="43.69958" lon="4.57802">
        <ele>4</ele>
        <time>2024-04-07T01:14:44Z</time>
      </trkpt>
      <trkpt lat="43.69935" lon="4.57908">
        <ele>4</ele>
        <time>2024-04-07T01:14:58Z</time>
      </trkpt>
      <trkpt lat="43.69919" lon="4.58067">
        <ele>3</ele>
        <time>2024-04-07T01:15:19Z</time>
      </trkpt>
      <trkpt lat="43.69914" lon="4.5814">
        <ele>3</ele>
        <time>2024-04-07T01:15:28Z</time>
      </trkpt>
      <trkpt lat="43.69901" lon="4.58236">
        <ele>4</ele>
        <time>2024-04-07T01:15:41Z</time>
      </trkpt>
      <trkpt lat="43.69873" lon="4.58326">
        <ele>4</ele>
        <time>2024-04-07T01:15:53Z</time>
      </trkpt>
      <trkpt lat="43.69856" lon="4.58363">
        <ele>4</ele>
        <time>2024-04-07T01:15:59Z</time>
      </trkpt>
      <trkpt lat="43.69821" lon="4.58424">
        <ele>5</ele>
        <time>2024-04-07T01:16:09Z</time>
      </trkpt>
      <trkpt lat="43.69738" lon="4.58553">
        <ele>6</ele>
        <time>2024-04-07T01:16:31Z</time>
      </trkpt>
      <trkpt lat="43.69599" lon="4.5876">
        <ele>7</ele>
        <time>2024-04-07T01:17:08Z</time>
      </trkpt>
      <trkpt lat="43.69576" lon="4.58799">
        <ele>7</ele>
        <time>2024-04-07T01:17:14Z</time>
      </trkpt>
      <trkpt lat="43.69531" lon="4.58891">
        <ele>6</ele>
        <time>2024-04-07T01:17:28Z</time>
      </trkpt>
      <trkpt lat="43.69504" lon="4.58957">
        <ele>5</ele>
        <time>2024-04-07T01:17:38Z</time>
      </trkpt>
      <trkpt lat="43.69484" lon="4.59032">
        <ele>4</ele>
        <time>2024-04-07T01:17:48Z</time>
      </trkpt>
      <trkpt lat="43.69468" lon="4.59116">
        <ele>3</ele>
        <time>2024-04-07T01:18:00Z</time>
      </trkpt>
      <trkpt lat="43.69442" lon="4.59421">
        <ele>4</ele>
        <time>2024-04-07T01:18:39Z</time>
      </trkpt>
      <trkpt lat="43.69416" lon="4.59753">
        <ele>4</ele>
        <time>2024-04-07T01:19:22Z</time>
      </trkpt>
      <trkpt lat="43.69406" lon="4.59792">
        <ele>4</ele>
        <time>2024-04-07T01:19:27Z</time>
      </trkpt>
      <trkpt lat="43.69399" lon="4.59811">
        <ele>5</ele>
        <time>2024-04-07T01:19:30Z</time>
      </trkpt>
      <trkpt lat="43.69391" lon="4.59819">
        <ele>5</ele>
        <time>2024-04-07T01:19:32Z</time>
      </trkpt>
      <trkpt lat="43.69385" lon="4.5983">
        <ele>5</ele>
        <time>2024-04-07T01:19:34Z</time>
      </trkpt>
      <trkpt lat="43.69382" lon="4.59843">
        <ele>5</ele>
        <time>2024-04-07T01:19:35Z</time>
      </trkpt>
      <trkpt lat="43.69382" lon="4.59857">
        <ele>4</ele>
        <time>2024-04-07T01:19:37Z</time>
      </trkpt>
      <trkpt lat="43.69386" lon="4.5987">
        <ele>4</ele>
        <time>2024-04-07T01:19:39Z</time>
      </trkpt>
      <trkpt lat="43.69392" lon="4.5988">
        <ele>4</ele>
        <time>2024-04-07T01:19:41Z</time>
      </trkpt>
      <trkpt lat="43.69398" lon="4.59897">
        <ele>4</ele>
        <time>2024-04-07T01:19:43Z</time>
      </trkpt>
      <trkpt lat="43.694" lon="4.59911">
        <ele>4</ele>
        <time>2024-04-07T01:19:45Z</time>
      </trkpt>
      <trkpt lat="43.69398" lon="4.5994">
        <ele>4</ele>
        <time>2024-04-07T01:19:49Z</time>
      </trkpt>
      <trkpt lat="43.69385" lon="4.60099">
        <ele>5</ele>
        <time>2024-04-07T01:20:09Z</time>
      </trkpt>
      <trkpt lat="43.69379" lon="4.60139">
        <ele>5</ele>
        <time>2024-04-07T01:20:15Z</time>
      </trkpt>
      <trkpt lat="43.69371" lon="4.60178">
        <ele>5</ele>
        <time>2024-04-07T01:20:20Z</time>
      </trkpt>
      <trkpt lat="43.6936" lon="4.60217">
        <ele>5</ele>
        <time>2024-04-07T01:20:25Z</time>
      </trkpt>
      <trkpt lat="43.69348" lon="4.60253">
        <ele>5</ele>
        <time>2024-04-07T01:20:30Z</time>
      </trkpt>
      <trkpt lat="43.69327" lon="4.603">
        <ele>5</ele>
        <time>2024-04-07T01:20:37Z</time>
      </trkpt>
      <trkpt lat="43.69314" lon="4.60321">
        <ele>5</ele>
        <time>2024-04-07T01:20:41Z</time>
      </trkpt>
      <trkpt lat="43.69297" lon="4.60345">
        <ele>5</ele>
        <time>2024-04-07T01:20:45Z</time>
      </trkpt>
      <trkpt lat="43.69277" lon="4.60368">
        <ele>5</ele>
        <time>2024-04-07T01:20:50Z</time>
      </trkpt>
      <trkpt lat="43.69252" lon="4.60391">
        <ele>5</ele>
        <time>2024-04-07T01:20:55Z</time>
      </trkpt>
      <trkpt lat="43.69212" lon="4.60417">
        <ele>5</ele>
        <time>2024-04-07T01:21:03Z</time>
      </trkpt>
      <trkpt lat="43.69144" lon="4.60445">
        <ele>5</ele>
        <time>2024-04-07T01:21:16Z</time>
      </trkpt>
      <trkpt lat="43.69099" lon="4.60458">
        <ele>4</ele>
        <time>2024-04-07T01:21:24Z</time>
      </trkpt>
      <trkpt lat="43.69064" lon="4.6046">
        <ele>4</ele>
        <time>2024-04-07T01:21:30Z</time>
      </trkpt>
      <trkpt lat="43.69058" lon="4.60453">
        <ele>4</ele>
        <time>2024-04-07T01:21:31Z</time>
      </trkpt>
      <trkpt lat="43.69052" lon="4.60451">
        <ele>4</ele>
        <time>2024-04-07T01:21:33Z</time>
      </trkpt>
      <trkpt lat="43.69046" lon="4.60452">
        <ele>4</ele>
        <time>2024-04-07T01:21:34Z</time>
      </trkpt>
      <trkpt lat="43.6904" lon="4.60457">
        <ele>4</ele>
        <time>2024-04-07T01:21:35Z</time>
      </trkpt>
      <trkpt lat="43.69036" lon="4.60468">
        <ele>4</ele>
        <time>2024-04-07T01:21:36Z</time>
      </trkpt>
      <trkpt lat="43.69037" lon="4.6048">
        <ele>4</ele>
        <time>2024-04-07T01:21:38Z</time>
      </trkpt>
      <trkpt lat="43.69042" lon="4.60488">
        <ele>4</ele>
        <time>2024-04-07T01:21:39Z</time>
      </trkpt>
      <trkpt lat="43.69046" lon="4.60498">
        <ele>4</ele>
        <time>2024-04-07T01:21:41Z</time>
      </trkpt>
      <trkpt lat="43.69048" lon="4.60512">
        <ele>4</ele>
        <time>2024-04-07T01:21:43Z</time>
      </trkpt>
      <trkpt lat="43.69055" lon="4.60579">
        <ele>4</ele>
        <time>2024-04-07T01:21:51Z</time>
      </trkpt>
      <trkpt lat="43.69052" lon="4.6065">
        <ele>3</ele>
        <time>2024-04-07T01:22:01Z</time>
      </trkpt>
      <trkpt lat="43.69055" lon="4.60671">
        <ele>3</ele>
        <time>2024-04-07T01:22:03Z</time>
      </trkpt>
      <trkpt lat="43.69068" lon="4.60714">
        <ele>4</ele>
        <time>2024-04-07T01:22:09Z</time>
      </trkpt>
      <trkpt lat="43.69067" lon="4.60726">
        <ele>4</ele>
        <time>2024-04-07T01:22:11Z</time>
      </trkpt>
      <trkpt lat="43.69068" lon="4.60738">
        <ele>4</ele>
        <time>2024-04-07T01:22:12Z</time>
      </trkpt>
      <trkpt lat="43.69074" lon="4.60745">
        <ele>4</ele>
        <time>2024-04-07T01:22:14Z</time>
      </trkpt>
      <trkpt lat="43.69077" lon="4.60755">
        <ele>4</ele>
        <time>2024-04-07T01:22:15Z</time>
      </trkpt>
      <trkpt lat="43.69085" lon="4.60841">
        <ele>6</ele>
        <time>2024-04-07T01:22:26Z</time>
      </trkpt>
      <trkpt lat="43.69085" lon="4.60855">
        <ele>6</ele>
        <time>2024-04-07T01:22:28Z</time>
      </trkpt>
      <trkpt lat="43.69082" lon="4.60864">
        <ele>6</ele>
        <time>2024-04-07T01:22:29Z</time>
      </trkpt>
      <trkpt lat="43.69079" lon="4.60866">
        <ele>6</ele>
        <time>2024-04-07T01:22:30Z</time>
      </trkpt>
      <trkpt lat="43.69074" lon="4.60884">
        <ele>7</ele>
        <time>2024-04-07T01:22:33Z</time>
      </trkpt>
      <trkpt lat="43.69054" lon="4.60914">
        <ele>7</ele>
        <time>2024-04-07T01:22:38Z</time>
      </trkpt>
      <trkpt lat="43.6905" lon="4.60926">
        <ele>7</ele>
        <time>2024-04-07T01:22:39Z</time>
      </trkpt>
      <trkpt lat="43.69049" lon="4.60939">
        <ele>7</ele>
        <time>2024-04-07T01:22:41Z</time>
      </trkpt>
      <trkpt lat="43.6905" lon="4.6095">
        <ele>7</ele>
        <time>2024-04-07T01:22:43Z</time>
      </trkpt>
      <trkpt lat="43.69054" lon="4.60961">
        <ele>7</ele>
        <time>2024-04-07T01:22:44Z</time>
      </trkpt>
      <trkpt lat="43.69092" lon="4.61041">
        <ele>8</ele>
        <time>2024-04-07T01:22:56Z</time>
      </trkpt>
      <trkpt lat="43.69106" lon="4.61077">
        <ele>8</ele>
        <time>2024-04-07T01:23:02Z</time>
      </trkpt>
      <trkpt lat="43.69131" lon="4.61124">
        <ele>8</ele>
        <time>2024-04-07T01:23:09Z</time>
      </trkpt>
      <trkpt lat="43.69129" lon="4.61136">
        <ele>9</ele>
        <time>2024-04-07T01:23:11Z</time>
      </trkpt>
      <trkpt lat="43.69127" lon="4.61139">
        <ele>9</ele>
        <time>2024-04-07T01:23:11Z</time>
      </trkpt>
      <trkpt lat="43.69002" lon="4.61253">
        <ele>10</ele>
        <time>2024-04-07T01:23:38Z</time>
      </trkpt>
      <trkpt lat="43.69001" lon="4.61256">
        <ele>10</ele>
        <time>2024-04-07T01:23:38Z</time>
      </trkpt>
      <trkpt lat="43.69003" lon="4.61262">
        <ele>10</ele>
        <time>2024-04-07T01:23:39Z</time>
      </trkpt>
      <trkpt lat="43.6896" lon="4.61302">
        <ele>8</ele>
        <time>2024-04-07T01:23:48Z</time>
      </trkpt>
      <trkpt lat="43.68833" lon="4.61416">
        <ele>9</ele>
        <time>2024-04-07T01:24:15Z</time>
      </trkpt>
      <trkpt lat="43.68802" lon="4.61442">
        <ele>8</ele>
        <time>2024-04-07T01:24:22Z</time>
      </trkpt>
      <trkpt lat="43.68734" lon="4.61489">
        <ele>6</ele>
        <time>2024-04-07T01:24:35Z</time>
      </trkpt>
      <trkpt lat="43.68595" lon="4.61586">
        <ele>6</ele>
        <time>2024-04-07T01:25:03Z</time>
      </trkpt>
      <trkpt lat="43.68588" lon="4.61584">
        <ele>6</ele>
        <time>2024-04-07T01:25:04Z</time>
      </trkpt>
      <trkpt lat="43.68584" lon="4.61587">
        <ele>6</ele>
        <time>2024-04-07T01:25:05Z</time>
      </trkpt>
      <trkpt lat="43.6858" lon="4.61596">
        <ele>6</ele>
        <time>2024-04-07T01:25:07Z</time>
      </trkpt>
      <trkpt lat="43.68563" lon="4.61609">
        <ele>6</ele>
        <time>2024-04-07T01:25:10Z</time>
      </trkpt>
      <trkpt lat="43.68448" lon="4.61688">
        <ele>6</ele>
        <time>2024-04-07T01:25:33Z</time>
      </trkpt>
      <trkpt lat="43.68381" lon="4.61739">
        <ele>7</ele>
        <time>2024-04-07T01:25:46Z</time>
      </trkpt>
      <trkpt lat="43.68005" lon="4.62003">
        <ele>10</ele>
        <time>2024-04-07T01:27:01Z</time>
      </trkpt>
      <trkpt lat="43.67996" lon="4.62026">
        <ele>11</ele>
        <time>2024-04-07T01:27:05Z</time>
      </trkpt>
      <trkpt lat="43.68017" lon="4.62032">
        <ele>10</ele>
        <time>2024-04-07T01:27:09Z</time>
      </trkpt>
      <trkpt lat="43.68026" lon="4.62037">
        <ele>10</ele>
        <time>2024-04-07T01:27:10Z</time>
      </trkpt>
      <trkpt lat="43.68033" lon="4.62043">
        <ele>10</ele>
        <time>2024-04-07T01:27:12Z</time>
      </trkpt>
      <trkpt lat="43.68036" lon="4.6205">
        <ele>11</ele>
        <time>2024-04-07T01:27:13Z</time>
      </trkpt>
      <trkpt lat="43.68034" lon="4.62104">
        <ele>12</ele>
        <time>2024-04-07T01:27:20Z</time>
      </trkpt>
      <trkpt lat="43.68028" lon="4.62157">
        <ele>13</ele>
        <time>2024-04-07T01:27:27Z</time>
      </trkpt>
      <trkpt lat="43.68023" lon="4.62178">
        <ele>13</ele>
        <time>2024-04-07T01:27:30Z</time>
      </trkpt>
      <trkpt lat="43.68007" lon="4.62199">
        <ele>13</ele>
        <time>2024-04-07T01:27:34Z</time>
      </trkpt>
      <trkpt lat="43.67966" lon="4.62238">
        <ele>10</ele>
        <time>2024-04-07T01:27:42Z</time>
      </trkpt>
      <trkpt lat="43.67819" lon="4.62378">
        <ele>11</ele>
        <time>2024-04-07T01:28:14Z</time>
      </trkpt>
      <trkpt lat="43.67788" lon="4.62405">
        <ele>14</ele>
        <time>2024-04-07T01:28:21Z</time>
      </trkpt>
      <trkpt lat="43.67744" lon="4.6242">
        <ele>15</ele>
        <time>2024-04-07T01:28:29Z</time>
      </trkpt>
      <trkpt lat="43.67748" lon="4.62425">
        <ele>15</ele>
        <time>2024-04-07T01:28:30Z</time>
      </trkpt>
      <trkpt lat="43.67757" lon="4.62426">
        <ele>15</ele>
        <time>2024-04-07T01:28:31Z</time>
      </trkpt>
      <trkpt lat="43.67788" lon="4.62416">
        <ele>14</ele>
        <time>2024-04-07T01:28:37Z</time>
      </trkpt>
      <trkpt lat="43.67828" lon="4.62385">
        <ele>11</ele>
        <time>2024-04-07T01:28:45Z</time>
      </trkpt>
      <trkpt lat="43.67843" lon="4.62419">
        <ele>12</ele>
        <time>2024-04-07T01:28:50Z</time>
      </trkpt>
      <trkpt lat="43.67848" lon="4.62425">
        <ele>11</ele>
        <time>2024-04-07T01:28:51Z</time>
      </trkpt>
      <trkpt lat="43.6787" lon="4.62477">
        <ele>10</ele>
        <time>2024-04-07T01:28:59Z</time>
      </trkpt>
      <trkpt lat="43.67881" lon="4.6251">
        <ele>9</ele>
        <time>2024-04-07T01:29:04Z</time>
      </trkpt>
      <trkpt lat="43.67898" lon="4.62586">
        <ele>8</ele>
        <time>2024-04-07T01:29:14Z</time>
      </trkpt>
      <trkpt lat="43.67892" lon="4.62623">
        <ele>10</ele>
        <time>2024-04-07T01:29:19Z</time>
      </trkpt>
      <trkpt lat="43.67892" lon="4.62656">
        <ele>11</ele>
        <time>2024-04-07T01:29:23Z</time>
      </trkpt>
      <trkpt lat="43.67895" lon="4.62685">
        <ele>12</ele>
        <time>2024-04-07T01:29:27Z</time>
      </trkpt>
      <trkpt lat="43.67921" lon="4.6272">
        <ele>13</ele>
        <time>2024-04-07T01:29:33Z</time>
      </trkpt>
      <trkpt lat="43.67911" lon="4.62745">
        <ele>16</ele>
        <time>2024-04-07T01:29:37Z</time>
      </trkpt>
      <trkpt lat="43.67911" lon="4.6275">
        <ele>16</ele>
        <time>2024-04-07T01:29:38Z</time>
      </trkpt>
      <trkpt lat="43.67919" lon="4.62863">
        <ele>16</ele>
        <time>2024-04-07T01:29:52Z</time>
      </trkpt>
      <trkpt lat="43.67927" lon="4.62901">
        <ele>17</ele>
        <time>2024-04-07T01:29:57Z</time>
      </trkpt>
      <trkpt lat="43.67968" lon="4.62894">
        <ele>12</ele>
        <time>2024-04-07T01:30:05Z</time>
      </trkpt>
      <trkpt lat="43.67973" lon="4.62897">
        <ele>11</ele>
        <time>2024-04-07T01:30:06Z</time>
      </trkpt>
      <trkpt lat="43.67974" lon="4.62902">
        <ele>11</ele>
        <time>2024-04-07T01:30:06Z</time>
      </trkpt>
      <trkpt lat="43.67981" lon="4.62933">
        <ele>11</ele>
        <time>2024-04-07T01:30:11Z</time>
      </trkpt>
      <trkpt lat="43.67978" lon="4.62939">
        <ele>12</ele>
        <time>2024-04-07T01:30:12Z</time>
      </trkpt>
      <trkpt lat="43.67977" lon="4.62947">
        <ele>12</ele>
        <time>2024-04-07T01:30:13Z</time>
      </trkpt>
      <trkpt lat="43.67971" lon="4.62959">
        <ele>12</ele>
        <time>2024-04-07T01:30:14Z</time>
      </trkpt>
      <trkpt lat="43.67979" lon="4.63027">
        <ele>13</ele>
        <time>2024-04-07T01:30:23Z</time>
      </trkpt>
      <trkpt lat="43.67984" lon="4.63026">
        <ele>12</ele>
        <time>2024-04-07T01:30:24Z</time>
      </trkpt>
      <trkpt lat="43.68013" lon="4.63054">
        <ele>11</ele>
        <time>2024-04-07T01:30:31Z</time>
      </trkpt>
      <trkpt lat="43.68005" lon="4.63075">
        <ele>12</ele>
        <time>2024-04-07T01:30:34Z</time>
      </trkpt>
      <trkpt lat="43.68044" lon="4.63108">
        <ele>11</ele>
        <time>2024-04-07T01:30:42Z</time>
      </trkpt>
      <trkpt lat="43.68051" lon="4.63121">
        <ele>11</ele>
        <time>2024-04-07T01:30:44Z</time>
      </trkpt>
      <trkpt lat="43.68106" lon="4.63132">
        <ele>9</ele>
        <time>2024-04-07T01:30:54Z</time>
      </trkpt>
      <trkpt lat="43.68128" lon="4.63139">
        <ele>8</ele>
        <time>2024-04-07T01:30:58Z</time>
      </trkpt>
      <trkpt lat="43.68143" lon="4.63157">
        <ele>8</ele>
        <time>2024-04-07T01:31:01Z</time>
      </trkpt>
      <trkpt lat="43.68142" lon="4.63168">
        <ele>8</ele>
        <time>2024-04-07T01:31:03Z</time>
      </trkpt>
      <trkpt lat="43.68144" lon="4.63178">
        <ele>8</ele>
        <time>2024-04-07T01:31:04Z</time>
      </trkpt>
      <trkpt lat="43.68148" lon="4.63188">
        <ele>8</ele>
        <time>2024-04-07T01:31:05Z</time>
      </trkpt>
      <trkpt lat="43.68156" lon="4.63197">
        <ele>7</ele>
        <time>2024-04-07T01:31:07Z</time>
      </trkpt>
      <trkpt lat="43.68167" lon="4.63199">
        <ele>7</ele>
        <time>2024-04-07T01:31:09Z</time>
      </trkpt>
      <trkpt lat="43.68172" lon="4.63198">
        <ele>7</ele>
        <time>2024-04-07T01:31:10Z</time>
      </trkpt>
      <trkpt lat="43.68182" lon="4.6319">
        <ele>7</ele>
        <time>2024-04-07T01:31:12Z</time>
      </trkpt>
      <trkpt lat="43.68203" lon="4.63192">
        <ele>7</ele>
        <time>2024-04-07T01:31:16Z</time>
      </trkpt>
      <trkpt lat="43.68283" lon="4.63244">
        <ele>8</ele>
        <time>2024-04-07T01:31:32Z</time>
      </trkpt>
      <trkpt lat="43.6829" lon="4.63248">
        <ele>8</ele>
        <time>2024-04-07T01:31:33Z</time>
      </trkpt>
      <trkpt lat="43.68312" lon="4.63263">
        <ele>8</ele>
        <time>2024-04-07T01:31:37Z</time>
      </trkpt>
      <trkpt lat="43.68344" lon="4.63283">
        <ele>9</ele>
        <time>2024-04-07T01:31:44Z</time>
      </trkpt>
      <trkpt lat="43.69228" lon="4.63865">
        <ele>4</ele>
        <time>2024-04-07T01:34:38Z</time>
      </trkpt>
      <trkpt lat="43.69423" lon="4.63991">
        <ele>6</ele>
        <time>2024-04-07T01:35:16Z</time>
      </trkpt>
      <trkpt lat="43.69524" lon="4.64058">
        <ele>6</ele>
        <time>2024-04-07T01:35:36Z</time>
      </trkpt>
      <trkpt lat="43.69589" lon="4.64099">
        <ele>6</ele>
        <time>2024-04-07T01:35:49Z</time>
      </trkpt>
      <trkpt lat="43.69747" lon="4.64206">
        <ele>7</ele>
        <time>2024-04-07T01:36:20Z</time>
      </trkpt>
      <trkpt lat="43.69798" lon="4.64238">
        <ele>7</ele>
        <time>2024-04-07T01:36:30Z</time>
      </trkpt>
      <trkpt lat="43.69824" lon="4.64266">
        <ele>6</ele>
        <time>2024-04-07T01:36:36Z</time>
      </trkpt>
      <trkpt lat="43.69826" lon="4.64275">
        <ele>6</ele>
        <time>2024-04-07T01:36:37Z</time>
      </trkpt>
      <trkpt lat="43.69829" lon="4.64283">
        <ele>6</ele>
        <time>2024-04-07T01:36:38Z</time>
      </trkpt>
      <trkpt lat="43.69832" lon="4.64301">
        <ele>5</ele>
        <time>2024-04-07T01:36:41Z</time>
      </trkpt>
      <trkpt lat="43.69833" lon="4.64321">
        <ele>5</ele>
        <time>2024-04-07T01:36:43Z</time>
      </trkpt>
      <trkpt lat="43.6983" lon="4.64335">
        <ele>5</ele>
        <time>2024-04-07T01:36:45Z</time>
      </trkpt>
      <trkpt lat="43.69828" lon="4.64358">
        <ele>5</ele>
        <time>2024-04-07T01:36:48Z</time>
      </trkpt>
      <trkpt lat="43.69828" lon="4.64432">
        <ele>6</ele>
        <time>2024-04-07T01:36:58Z</time>
      </trkpt>
      <trkpt lat="43.69828" lon="4.64469">
        <ele>5</ele>
        <time>2024-04-07T01:37:02Z</time>
      </trkpt>
      <trkpt lat="43.69828" lon="4.64508">
        <ele>5</ele>
        <time>2024-04-07T01:37:07Z</time>
      </trkpt>
      <trkpt lat="43.69821" lon="4.64548">
        <ele>6</ele>
        <time>2024-04-07T01:37:13Z</time>
      </trkpt>
      <trkpt lat="43.69813" lon="4.64562">
        <ele>6</ele>
        <time>2024-04-07T01:37:15Z</time>
      </trkpt>
      <trkpt lat="43.69808" lon="4.64565">
        <ele>6</ele>
        <time>2024-04-07T01:37:16Z</time>
      </trkpt>
      <trkpt lat="43.69799" lon="4.64575">
        <ele>6</ele>
        <time>2024-04-07T01:37:18Z</time>
      </trkpt>
      <trkpt lat="43.6979" lon="4.64594">
        <ele>6</ele>
        <time>2024-04-07T01:37:21Z</time>
      </trkpt>
      <trkpt lat="43.69788" lon="4.64607">
        <ele>5</ele>
        <time>2024-04-07T01:37:23Z</time>
      </trkpt>
      <trkpt lat="43.69787" lon="4.64617">
        <ele>5</ele>
        <time>2024-04-07T01:37:24Z</time>
      </trkpt>
      <trkpt lat="43.69789" lon="4.64629">
        <ele>5</ele>
        <time>2024-04-07T01:37:26Z</time>
      </trkpt>
      <trkpt lat="43.69792" lon="4.6464">
        <ele>5</ele>
        <time>2024-04-07T01:37:27Z</time>
      </trkpt>
      <trkpt lat="43.69798" lon="4.64651">
        <ele>5</ele>
        <time>2024-04-07T01:37:29Z</time>
      </trkpt>
      <trkpt lat="43.69812" lon="4.64664">
        <ele>5</ele>
        <time>2024-04-07T01:37:32Z</time>
      </trkpt>
      <trkpt lat="43.6982" lon="4.64675">
        <ele>5</ele>
        <time>2024-04-07T01:37:34Z</time>
      </trkpt>
      <trkpt lat="43.69823" lon="4.64685">
        <ele>5</ele>
        <time>2024-04-07T01:37:35Z</time>
      </trkpt>
      <trkpt lat="43.6983" lon="4.64726">
        <ele>4</ele>
        <time>2024-04-07T01:37:41Z</time>
      </trkpt>
      <trkpt lat="43.69835" lon="4.65039">
        <ele>5</ele>
        <time>2024-04-07T01:38:21Z</time>
      </trkpt>
      <trkpt lat="43.69838" lon="4.65066">
        <ele>4</ele>
        <time>2024-04-07T01:38:24Z</time>
      </trkpt>
      <trkpt lat="43.69843" lon="4.65091">
        <ele>4</ele>
        <time>2024-04-07T01:38:28Z</time>
      </trkpt>
      <trkpt lat="43.69851" lon="4.65112">
        <ele>4</ele>
        <time>2024-04-07T01:38:31Z</time>
      </trkpt>
      <trkpt lat="43.6986" lon="4.65134">
        <ele>4</ele>
        <time>2024-04-07T01:38:34Z</time>
      </trkpt>
      <trkpt lat="43.69924" lon="4.65255">
        <ele>4</ele>
        <time>2024-04-07T01:38:53Z</time>
      </trkpt>
      <trkpt lat="43.69971" lon="4.65336">
        <ele>3</ele>
        <time>2024-04-07T01:39:07Z</time>
      </trkpt>
      <trkpt lat="43.7002" lon="4.65408">
        <ele>4</ele>
        <time>2024-04-07T01:39:19Z</time>
      </trkpt>
      <trkpt lat="43.70031" lon="4.65426">
        <ele>4</ele>
        <time>2024-04-07T01:39:22Z</time>
      </trkpt>
      <trkpt lat="43.7013" lon="4.65624">
        <ele>3</ele>
        <time>2024-04-07T01:39:53Z</time>
      </trkpt>
      <trkpt lat="43.70149" lon="4.65652">
        <ele>3</ele>
        <time>2024-04-07T01:39:58Z</time>
      </trkpt>
      <trkpt lat="43.70167" lon="4.65669">
        <ele>4</ele>
        <time>2024-04-07T01:40:02Z</time>
      </trkpt>
      <trkpt lat="43.70187" lon="4.65682">
        <ele>5</ele>
        <time>2024-04-07T01:40:06Z</time>
      </trkpt>
      <trkpt lat="43.7021" lon="4.65688">
        <ele>5</ele>
        <time>2024-04-07T01:40:10Z</time>
      </trkpt>
      <trkpt lat="43.70244" lon="4.6569">
        <ele>6</ele>
        <time>2024-04-07T01:40:16Z</time>
      </trkpt>
      <trkpt lat="43.70384" lon="4.65666">
        <ele>7</ele>
        <time>2024-04-07T01:40:42Z</time>
      </trkpt>
      <trkpt lat="43.70416" lon="4.65667">
        <ele>8</ele>
        <time>2024-04-07T01:40:47Z</time>
      </trkpt>
      <trkpt lat="43.70447" lon="4.65674">
        <ele>8</ele>
        <time>2024-04-07T01:40:53Z</time>
      </trkpt>
      <trkpt lat="43.70483" lon="4.65686">
        <ele>8</ele>
        <time>2024-04-07T01:40:59Z</time>
      </trkpt>
      <trkpt lat="43.70516" lon="4.65705">
        <ele>8</ele>
        <time>2024-04-07T01:41:06Z</time>
      </trkpt>
      <trkpt lat="43.70544" lon="4.65736">
        <ele>8</ele>
        <time>2024-04-07T01:41:12Z</time>
      </trkpt>
      <trkpt lat="43.70573" lon="4.65773">
        <ele>8</ele>
        <time>2024-04-07T01:41:19Z</time>
      </trkpt>
      <trkpt lat="43.70584" lon="4.65794">
        <ele>8</ele>
        <time>2024-04-07T01:41:23Z</time>
      </trkpt>
      <trkpt lat="43.70592" lon="4.65817">
        <ele>8</ele>
        <time>2024-04-07T01:41:26Z</time>
      </trkpt>
      <trkpt lat="43.70653" lon="4.66042">
        <ele>8</ele>
        <time>2024-04-07T01:41:57Z</time>
      </trkpt>
      <trkpt lat="43.70658" lon="4.66069">
        <ele>8</ele>
        <time>2024-04-07T01:42:00Z</time>
      </trkpt>
      <trkpt lat="43.7066" lon="4.66097">
        <ele>8</ele>
        <time>2024-04-07T01:42:04Z</time>
      </trkpt>
      <trkpt lat="43.70651" lon="4.66252">
        <ele>13</ele>
        <time>2024-04-07T01:42:24Z</time>
      </trkpt>
      <trkpt lat="43.70649" lon="4.66271">
        <ele>14</ele>
        <time>2024-04-07T01:42:26Z</time>
      </trkpt>
      <trkpt lat="43.70643" lon="4.66287">
        <ele>14</ele>
        <time>2024-04-07T01:42:29Z</time>
      </trkpt>
      <trkpt lat="43.70623" lon="4.66327">
        <ele>17</ele>
        <time>2024-04-07T01:42:35Z</time>
      </trkpt>
      <trkpt lat="43.70612" lon="4.66359">
        <ele>17</ele>
        <time>2024-04-07T01:42:39Z</time>
      </trkpt>
      <trkpt lat="43.70604" lon="4.6643">
        <ele>14</ele>
        <time>2024-04-07T01:42:49Z</time>
      </trkpt>
      <trkpt lat="43.70604" lon="4.6645">
        <ele>12</ele>
        <time>2024-04-07T01:42:51Z</time>
      </trkpt>
      <trkpt lat="43.70607" lon="4.66478">
        <ele>11</ele>
        <time>2024-04-07T01:42:55Z</time>
      </trkpt>
      <trkpt lat="43.70637" lon="4.66599">
        <ele>7</ele>
        <time>2024-04-07T01:43:11Z</time>
      </trkpt>
      <trkpt lat="43.70647" lon="4.66657">
        <ele>8</ele>
        <time>2024-04-07T01:43:19Z</time>
      </trkpt>
      <trkpt lat="43.70678" lon="4.66896">
        <ele>4</ele>
        <time>2024-04-07T01:43:50Z</time>
      </trkpt>
      <trkpt lat="43.70681" lon="4.66925">
        <ele>4</ele>
        <time>2024-04-07T01:43:54Z</time>
      </trkpt>
      <trkpt lat="43.70681" lon="4.66939">
        <ele>4</ele>
        <time>2024-04-07T01:43:56Z</time>
      </trkpt>
      <trkpt lat="43.7068" lon="4.66962">
        <ele>5</ele>
        <time>2024-04-07T01:43:59Z</time>
      </trkpt>
      <trkpt lat="43.70657" lon="4.67104">
        <ele>5</ele>
        <time>2024-04-07T01:44:18Z</time>
      </trkpt>
      <trkpt lat="43.70657" lon="4.67157">
        <ele>4</ele>
        <time>2024-04-07T01:44:24Z</time>
      </trkpt>
      <trkpt lat="43.70664" lon="4.672">
        <ele>3</ele>
        <time>2024-04-07T01:44:30Z</time>
      </trkpt>
      <trkpt lat="43.70677" lon="4.67239">
        <ele>2</ele>
        <time>2024-04-07T01:44:36Z</time>
      </trkpt>
      <trkpt lat="43.70692" lon="4.6727">
        <ele>3</ele>
        <time>2024-04-07T01:44:40Z</time>
      </trkpt>
      <trkpt lat="43.70724" lon="4.67315">
        <ele>5</ele>
        <time>2024-04-07T01:44:48Z</time>
      </trkpt>
      <trkpt lat="43.70752" lon="4.6734">
        <ele>6</ele>
        <time>2024-04-07T01:44:54Z</time>
      </trkpt>
      <trkpt lat="43.70826" lon="4.67402">
        <ele>8</ele>
        <time>2024-04-07T01:45:10Z</time>
      </trkpt>
      <trkpt lat="43.70844" lon="4.67423">
        <ele>8</ele>
        <time>2024-04-07T01:45:14Z</time>
      </trkpt>
      <trkpt lat="43.70868" lon="4.67459">
        <ele>7</ele>
        <time>2024-04-07T01:45:20Z</time>
      </trkpt>
      <trkpt lat="43.70881" lon="4.67485">
        <ele>7</ele>
        <time>2024-04-07T01:45:24Z</time>
      </trkpt>
      <trkpt lat="43.70908" lon="4.67591">
        <ele>7</ele>
        <time>2024-04-07T01:45:39Z</time>
      </trkpt>
      <trkpt lat="43.70945" lon="4.67709">
        <ele>10</ele>
        <time>2024-04-07T01:45:55Z</time>
      </trkpt>
      <trkpt lat="43.71022" lon="4.67891">
        <ele>9</ele>
        <time>2024-04-07T01:46:22Z</time>
      </trkpt>
      <trkpt lat="43.71033" lon="4.67935">
        <ele>10</ele>
        <time>2024-04-07T01:46:28Z</time>
      </trkpt>
      <trkpt lat="43.71039" lon="4.67978">
        <ele>11</ele>
        <time>2024-04-07T01:46:34Z</time>
      </trkpt>
      <trkpt lat="43.71049" lon="4.68126">
        <ele>11</ele>
        <time>2024-04-07T01:46:53Z</time>
      </trkpt>
      <trkpt lat="43.7106" lon="4.68183">
        <ele>11</ele>
        <time>2024-04-07T01:47:01Z</time>
      </trkpt>
      <trkpt lat="43.71069" lon="4.68214">
        <ele>11</ele>
        <time>2024-04-07T01:47:05Z</time>
      </trkpt>
      <trkpt lat="43.71082" lon="4.68246">
        <ele>11</ele>
        <time>2024-04-07T01:47:10Z</time>
      </trkpt>
      <trkpt lat="43.71123" lon="4.68318">
        <ele>11</ele>
        <time>2024-04-07T01:47:22Z</time>
      </trkpt>
      <trkpt lat="43.71172" lon="4.68395">
        <ele>10</ele>
        <time>2024-04-07T01:47:35Z</time>
      </trkpt>
      <trkpt lat="43.71193" lon="4.68435">
        <ele>10</ele>
        <time>2024-04-07T01:47:41Z</time>
      </trkpt>
      <trkpt lat="43.7128" lon="4.68656">
        <ele>6</ele>
        <time>2024-04-07T01:48:14Z</time>
      </trkpt>
      <trkpt lat="43.71277" lon="4.68663">
        <ele>6</ele>
        <time>2024-04-07T01:48:15Z</time>
      </trkpt>
      <trkpt lat="43.7127" lon="4.68708">
        <ele>6</ele>
        <time>2024-04-07T01:48:21Z</time>
      </trkpt>
      <trkpt lat="43.71259" lon="4.68796">
        <ele>5</ele>
        <time>2024-04-07T01:48:32Z</time>
      </trkpt>
      <trkpt lat="43.71258" lon="4.69016">
        <ele>7</ele>
        <time>2024-04-07T01:49:00Z</time>
      </trkpt>
      <trkpt lat="43.71255" lon="4.69118">
        <ele>8</ele>
        <time>2024-04-07T01:49:13Z</time>
      </trkpt>
      <trkpt lat="43.71251" lon="4.69127">
        <ele>7</ele>
        <time>2024-04-07T01:49:15Z</time>
      </trkpt>
      <trkpt lat="43.71177" lon="4.69207">
        <ele>8</ele>
        <time>2024-04-07T01:49:31Z</time>
      </trkpt>
      <trkpt lat="43.7114" lon="4.69242">
        <ele>8</ele>
        <time>2024-04-07T01:49:39Z</time>
      </trkpt>
      <trkpt lat="43.71106" lon="4.6928">
        <ele>7</ele>
        <time>2024-04-07T01:49:47Z</time>
      </trkpt>
      <trkpt lat="43.71092" lon="4.69303">
        <ele>8</ele>
        <time>2024-04-07T01:49:51Z</time>
      </trkpt>
      <trkpt lat="43.71068" lon="4.6935">
        <ele>9</ele>
        <time>2024-04-07T01:49:58Z</time>
      </trkpt>
      <trkpt lat="43.70928" lon="4.6956">
        <ele>9</ele>
        <time>2024-04-07T01:50:35Z</time>
      </trkpt>
      <trkpt lat="43.70916" lon="4.69587">
        <ele>9</ele>
        <time>2024-04-07T01:50:39Z</time>
      </trkpt>
      <trkpt lat="43.70802" lon="4.69939">
        <ele>10</ele>
        <time>2024-04-07T01:51:29Z</time>
      </trkpt>
      <trkpt lat="43.70718" lon="4.70316">
        <ele>14</ele>
        <time>2024-04-07T01:52:20Z</time>
      </trkpt>
      <trkpt lat="43.70673" lon="4.70471">
        <ele>17</ele>
        <time>2024-04-07T01:52:41Z</time>
      </trkpt>
      <trkpt lat="43.7067" lon="4.70502">
        <ele>17</ele>
        <time>2024-04-07T01:52:45Z</time>
      </trkpt>
      <trkpt lat="43.70684" lon="4.70683">
        <ele>19</ele>
        <time>2024-04-07T01:53:09Z</time>
      </trkpt>
      <trkpt lat="43.70688" lon="4.70749">
        <ele>20</ele>
        <time>2024-04-07T01:53:17Z</time>
      </trkpt>
      <trkpt lat="43.70687" lon="4.70772">
        <ele>20</ele>
        <time>2024-04-07T01:53:20Z</time>
      </trkpt>
      <trkpt lat="43.70681" lon="4.70809">
        <ele>19</ele>
        <time>2024-04-07T01:53:25Z</time>
      </trkpt>
      <trkpt lat="43.70665" lon="4.70862">
        <ele>18</ele>
        <time>2024-04-07T01:53:32Z</time>
      </trkpt>
      <trkpt lat="43.70659" lon="4.70889">
        <ele>18</ele>
        <time>2024-04-07T01:53:36Z</time>
      </trkpt>
      <trkpt lat="43.70656" lon="4.70929">
        <ele>19</ele>
        <time>2024-04-07T01:53:41Z</time>
      </trkpt>
      <trkpt lat="43.70656" lon="4.70989">
        <ele>20</ele>
        <time>2024-04-07T01:53:49Z</time>
      </trkpt>
      <trkpt lat="43.70653" lon="4.7104">
        <ele>19</ele>
        <time>2024-04-07T01:53:55Z</time>
      </trkpt>
      <trkpt lat="43.70606" lon="4.71341">
        <ele>18</ele>
        <time>2024-04-07T01:54:35Z</time>
      </trkpt>
      <trkpt lat="43.70598" lon="4.71403">
        <ele>18</ele>
        <time>2024-04-07T01:54:43Z</time>
      </trkpt>
      <trkpt lat="43.70597" lon="4.71502">
        <ele>18</ele>
        <time>2024-04-07T01:54:56Z</time>
      </trkpt>
      <trkpt lat="43.70593" lon="4.71547">
        <ele>18</ele>
        <time>2024-04-07T01:55:02Z</time>
      </trkpt>
      <trkpt lat="43.70586" lon="4.71594">
        <ele>17</ele>
        <time>2024-04-07T01:55:08Z</time>
      </trkpt>
      <trkpt lat="43.70554" lon="4.71764">
        <ele>19</ele>
        <time>2024-04-07T01:55:30Z</time>
      </trkpt>
      <trkpt lat="43.70527" lon="4.71965">
        <ele>20</ele>
        <time>2024-04-07T01:55:57Z</time>
      </trkpt>
      <trkpt lat="43.70512" lon="4.72052">
        <ele>19</ele>
        <time>2024-04-07T01:56:08Z</time>
      </trkpt>
      <trkpt lat="43.70496" lon="4.72129">
        <ele>21</ele>
        <time>2024-04-07T01:56:19Z</time>
      </trkpt>
      <trkpt lat="43.70492" lon="4.72167">
        <ele>22</ele>
        <time>2024-04-07T01:56:24Z</time>
      </trkpt>
      <trkpt lat="43.70488" lon="4.72369">
        <ele>22</ele>
        <time>2024-04-07T01:56:50Z</time>
      </trkpt>
      <trkpt lat="43.7049" lon="4.72407">
        <ele>22</ele>
        <time>2024-04-07T01:56:54Z</time>
      </trkpt>
      <trkpt lat="43.70579" lon="4.73633">
        <ele>25</ele>
        <time>2024-04-07T01:59:33Z</time>
      </trkpt>
      <trkpt lat="43.70603" lon="4.73962">
        <ele>26</ele>
        <time>2024-04-07T02:00:15Z</time>
      </trkpt>
      <trkpt lat="43.70623" lon="4.74199">
        <ele>23</ele>
        <time>2024-04-07T02:00:46Z</time>
      </trkpt>
      <trkpt lat="43.7064" lon="4.74344">
        <ele>24</ele>
        <time>2024-04-07T02:01:05Z</time>
      </trkpt>
      <trkpt lat="43.7065" lon="4.7441">
        <ele>24</ele>
        <time>2024-04-07T02:01:14Z</time>
      </trkpt>
      <trkpt lat="43.7067" lon="4.74463">
        <ele>23</ele>
        <time>2024-04-07T02:01:21Z</time>
      </trkpt>
      <trkpt lat="43.70704" lon="4.74587">
        <ele>23</ele>
        <time>2024-04-07T02:01:38Z</time>
      </trkpt>
      <trkpt lat="43.70713" lon="4.7465">
        <ele>24</ele>
        <time>2024-04-07T02:01:47Z</time>
      </trkpt>
      <trkpt lat="43.70717" lon="4.74691">
        <ele>25</ele>
        <time>2024-04-07T02:01:52Z</time>
      </trkpt>
      <trkpt lat="43.70735" lon="4.74782">
        <ele>26</ele>
        <time>2024-04-07T02:02:04Z</time>
      </trkpt>
      <trkpt lat="43.70739" lon="4.7483">
        <ele>24</ele>
        <time>2024-04-07T02:02:10Z</time>
      </trkpt>
      <trkpt lat="43.70744" lon="4.74853">
        <ele>24</ele>
        <time>2024-04-07T02:02:13Z</time>
      </trkpt>
      <trkpt lat="43.70753" lon="4.74875">
        <ele>23</ele>
        <time>2024-04-07T02:02:17Z</time>
      </trkpt>
      <trkpt lat="43.70788" lon="4.74944">
        <ele>24</ele>
        <time>2024-04-07T02:02:28Z</time>
      </trkpt>
      <trkpt lat="43.70806" lon="4.7499">
        <ele>23</ele>
        <time>2024-04-07T02:02:34Z</time>
      </trkpt>
      <trkpt lat="43.70887" lon="4.75226">
        <ele>28</ele>
        <time>2024-04-07T02:03:08Z</time>
      </trkpt>
      <trkpt lat="43.70913" lon="4.75316">
        <ele>27</ele>
        <time>2024-04-07T02:03:20Z</time>
      </trkpt>
      <trkpt lat="43.70932" lon="4.75398">
        <ele>25</ele>
        <time>2024-04-07T02:03:31Z</time>
      </trkpt>
      <trkpt lat="43.70933" lon="4.75414">
        <ele>25</ele>
        <time>2024-04-07T02:03:33Z</time>
      </trkpt>
      <trkpt lat="43.7093" lon="4.75419">
        <ele>24</ele>
        <time>2024-04-07T02:03:34Z</time>
      </trkpt>
      <trkpt lat="43.70922" lon="4.75424">
        <ele>23</ele>
        <time>2024-04-07T02:03:36Z</time>
      </trkpt>
      <trkpt lat="43.70859" lon="4.75457">
        <ele>21</ele>
        <time>2024-04-07T02:03:48Z</time>
      </trkpt>
      <trkpt lat="43.70825" lon="4.7547">
        <ele>20</ele>
        <time>2024-04-07T02:03:54Z</time>
      </trkpt>
      <trkpt lat="43.70788" lon="4.75488">
        <ele>18</ele>
        <time>2024-04-07T02:04:01Z</time>
      </trkpt>
      <trkpt lat="43.70747" lon="4.75518">
        <ele>16</ele>
        <time>2024-04-07T02:04:09Z</time>
      </trkpt>
      <trkpt lat="43.70701" lon="4.75542">
        <ele>13</ele>
        <time>2024-04-07T02:04:18Z</time>
      </trkpt>
      <trkpt lat="43.70694" lon="4.7555">
        <ele>12</ele>
        <time>2024-04-07T02:04:20Z</time>
      </trkpt>
      <trkpt lat="43.70691" lon="4.75561">
        <ele>11</ele>
        <time>2024-04-07T02:04:21Z</time>
      </trkpt>
      <trkpt lat="43.70692" lon="4.75573">
        <ele>11</ele>
        <time>2024-04-07T02:04:23Z</time>
      </trkpt>
      <trkpt lat="43.70727" lon="4.75687">
        <ele>11</ele>
        <time>2024-04-07T02:04:39Z</time>
      </trkpt>
      <trkpt lat="43.70805" lon="4.75891">
        <ele>17</ele>
        <time>2024-04-07T02:05:08Z</time>
      </trkpt>
      <trkpt lat="43.70812" lon="4.7592">
        <ele>17</ele>
        <time>2024-04-07T02:05:12Z</time>
      </trkpt>
      <trkpt lat="43.70827" lon="4.76026">
        <ele>17</ele>
        <time>2024-04-07T02:05:26Z</time>
      </trkpt>
      <trkpt lat="43.70835" lon="4.7606">
        <ele>15</ele>
        <time>2024-04-07T02:05:31Z</time>
      </trkpt>
      <trkpt lat="43.70861" lon="4.76142">
        <ele>14</ele>
        <time>2024-04-07T02:05:42Z</time>
      </trkpt>
      <trkpt lat="43.70866" lon="4.76168">
        <ele>13</ele>
        <time>2024-04-07T02:05:46Z</time>
      </trkpt>
      <trkpt lat="43.70872" lon="4.76213">
        <ele>12</ele>
        <time>2024-04-07T02:05:52Z</time>
      </trkpt>
      <trkpt lat="43.70873" lon="4.76236">
        <ele>12</ele>
        <time>2024-04-07T02:05:55Z</time>
      </trkpt>
      <trkpt lat="43.7087" lon="4.76319">
        <ele>11</ele>
        <time>2024-04-07T02:06:05Z</time>
      </trkpt>
      <trkpt lat="43.70889" lon="4.76477">
        <ele>10</ele>
        <time>2024-04-07T02:06:26Z</time>
      </trkpt>
      <trkpt lat="43.70893" lon="4.76545">
        <ele>9</ele>
        <time>2024-04-07T02:06:35Z</time>
      </trkpt>
      <trkpt lat="43.70897" lon="4.7658">
        <ele>9</ele>
        <time>2024-04-07T02:06:39Z</time>
      </trkpt>
      <trkpt lat="43.70905" lon="4.76627">
        <ele>9</ele>
        <time>2024-04-07T02:06:46Z</time>
      </trkpt>
      <trkpt lat="43.70913" lon="4.76659">
        <ele>9</ele>
        <time>2024-04-07T02:06:50Z</time>
      </trkpt>
      <trkpt lat="43.70948" lon="4.7676">
        <ele>12</ele>
        <time>2024-04-07T02:07:04Z</time>
      </trkpt>
      <trkpt lat="43.70971" lon="4.7685">
        <ele>12</ele>
        <time>2024-04-07T02:07:17Z</time>
      </trkpt>
      <trkpt lat="43.70993" lon="4.76904">
        <ele>13</ele>
        <time>2024-04-07T02:07:25Z</time>
      </trkpt>
      <trkpt lat="43.71007" lon="4.7695">
        <ele>13</ele>
        <time>2024-04-07T02:07:31Z</time>
      </trkpt>
      <trkpt lat="43.71026" lon="4.77089">
        <ele>13</ele>
        <time>2024-04-07T02:07:49Z</time>
      </trkpt>
      <trkpt lat="43.71031" lon="4.77144">
        <ele>13</ele>
        <time>2024-04-07T02:07:56Z</time>
      </trkpt>
      <trkpt lat="43.71036" lon="4.77236">
        <ele>13</ele>
        <time>2024-04-07T02:08:08Z</time>
      </trkpt>
      <trkpt lat="43.71035" lon="4.77324">
        <ele>14</ele>
        <time>2024-04-07T02:08:19Z</time>
      </trkpt>
      <trkpt lat="43.71038" lon="4.77354">
        <ele>14</ele>
        <time>2024-04-07T02:08:23Z</time>
      </trkpt>
      <trkpt lat="43.71043" lon="4.77375">
        <ele>14</ele>
        <time>2024-04-07T02:08:26Z</time>
      </trkpt>
      <trkpt lat="43.71089" lon="4.7749">
        <ele>14</ele>
        <time>2024-04-07T02:08:43Z</time>
      </trkpt>
      <trkpt lat="43.71107" lon="4.77526">
        <ele>15</ele>
        <time>2024-04-07T02:08:49Z</time>
      </trkpt>
      <trkpt lat="43.71128" lon="4.77558">
        <ele>15</ele>
        <time>2024-04-07T02:08:54Z</time>
      </trkpt>
      <trkpt lat="43.71152" lon="4.77585">
        <ele>14</ele>
        <time>2024-04-07T02:09:00Z</time>
      </trkpt>
      <trkpt lat="43.71182" lon="4.77613">
        <ele>15</ele>
        <time>2024-04-07T02:09:06Z</time>
      </trkpt>
      <trkpt lat="43.71204" lon="4.77637">
        <ele>15</ele>
        <time>2024-04-07T02:09:11Z</time>
      </trkpt>
      <trkpt lat="43.71283" lon="4.7774">
        <ele>16</ele>
        <time>2024-04-07T02:09:31Z</time>
      </trkpt>
      <trkpt lat="43.71325" lon="4.77788">
        <ele>17</ele>
        <time>2024-04-07T02:09:40Z</time>
      </trkpt>
      <trkpt lat="43.71342" lon="4.77813">
        <ele>17</ele>
        <time>2024-04-07T02:09:45Z</time>
      </trkpt>
      <trkpt lat="43.71367" lon="4.77867">
        <ele>18</ele>
        <time>2024-04-07T02:09:53Z</time>
      </trkpt>
      <trkpt lat="43.71403" lon="4.7795">
        <ele>19</ele>
        <time>2024-04-07T02:10:05Z</time>
      </trkpt>
      <trkpt lat="43.71409" lon="4.77967">
        <ele>19</ele>
        <time>2024-04-07T02:10:08Z</time>
      </trkpt>
      <trkpt lat="43.71412" lon="4.77991">
        <ele>18</ele>
        <time>2024-04-07T02:10:11Z</time>
      </trkpt>
      <trkpt lat="43.71416" lon="4.78008">
        <ele>18</ele>
        <time>2024-04-07T02:10:13Z</time>
      </trkpt>
      <trkpt lat="43.71441" lon="4.78098">
        <ele>18</ele>
        <time>2024-04-07T02:10:26Z</time>
      </trkpt>
      <trkpt lat="43.71469" lon="4.78167">
        <ele>19</ele>
        <time>2024-04-07T02:10:36Z</time>
      </trkpt>
      <trkpt lat="43.71487" lon="4.78204">
        <ele>19</ele>
        <time>2024-04-07T02:10:42Z</time>
      </trkpt>
      <trkpt lat="43.71502" lon="4.78224">
        <ele>20</ele>
        <time>2024-04-07T02:10:45Z</time>
      </trkpt>
      <trkpt lat="43.71563" lon="4.78267">
        <ele>21</ele>
        <time>2024-04-07T02:10:57Z</time>
      </trkpt>
      <trkpt lat="43.71575" lon="4.78273">
        <ele>21</ele>
        <time>2024-04-07T02:11:00Z</time>
      </trkpt>
      <trkpt lat="43.71598" lon="4.78286">
        <ele>22</ele>
        <time>2024-04-07T02:11:04Z</time>
      </trkpt>
      <trkpt lat="43.71649" lon="4.78309">
        <ele>23</ele>
        <time>2024-04-07T02:11:14Z</time>
      </trkpt>
      <trkpt lat="43.71686" lon="4.78329">
        <ele>22</ele>
        <time>2024-04-07T02:11:21Z</time>
      </trkpt>
      <trkpt lat="43.71742" lon="4.78367">
        <ele>22</ele>
        <time>2024-04-07T02:11:32Z</time>
      </trkpt>
      <trkpt lat="43.71795" lon="4.784">
        <ele>22</ele>
        <time>2024-04-07T02:11:42Z</time>
      </trkpt>
      <trkpt lat="43.71799" lon="4.78406">
        <ele>22</ele>
        <time>2024-04-07T02:11:43Z</time>
      </trkpt>
      <trkpt lat="43.71788" lon="4.78461">
        <ele>21</ele>
        <time>2024-04-07T02:11:51Z</time>
      </trkpt>
      <trkpt lat="43.71785" lon="4.78508">
        <ele>20</ele>
        <time>2024-04-07T02:11:57Z</time>
      </trkpt>
      <trkpt lat="43.71784" lon="4.7859">
        <ele>19</ele>
        <time>2024-04-07T02:12:07Z</time>
      </trkpt>
      <trkpt lat="43.71787" lon="4.78661">
        <ele>18</ele>
        <time>2024-04-07T02:12:16Z</time>
      </trkpt>
      <trkpt lat="43.71783" lon="4.78781">
        <ele>16</ele>
        <time>2024-04-07T02:12:32Z</time>
      </trkpt>
      <trkpt lat="43.71757" lon="4.78883">
        <ele>15</ele>
        <time>2024-04-07T02:12:46Z</time>
      </trkpt>
      <trkpt lat="43.7171" lon="4.79036">
        <ele>13</ele>
        <time>2024-04-07T02:13:07Z</time>
      </trkpt>
      <trkpt lat="43.71667" lon="4.79185">
        <ele>12</ele>
        <time>2024-04-07T02:13:28Z</time>
      </trkpt>
      <trkpt lat="43.7164" lon="4.7929">
        <ele>12</ele>
        <time>2024-04-07T02:13:42Z</time>
      </trkpt>
      <trkpt lat="43.71614" lon="4.79402">
        <ele>12</ele>
        <time>2024-04-07T02:13:57Z</time>
      </trkpt>
      <trkpt lat="43.7161" lon="4.79422">
        <ele>12</ele>
        <time>2024-04-07T02:14:00Z</time>
      </trkpt>
      <trkpt lat="43.7161" lon="4.79444">
        <ele>13</ele>
        <time>2024-04-07T02:14:03Z</time>
      </trkpt>
      <trkpt lat="43.71614" lon="4.79468">
        <ele>13</ele>
        <time>2024-04-07T02:14:06Z</time>
      </trkpt>
      <trkpt lat="43.71622" lon="4.79497">
        <ele>14</ele>
        <time>2024-04-07T02:14:10Z</time>
      </trkpt>
      <trkpt lat="43.71624" lon="4.79505">
        <ele>14</ele>
        <time>2024-04-07T02:14:11Z</time>
      </trkpt>
      <trkpt lat="43.71623" lon="4.79524">
        <ele>15</ele>
        <time>2024-04-07T02:14:13Z</time>
      </trkpt>
      <trkpt lat="43.71607" lon="4.79588">
        <ele>16</ele>
        <time>2024-04-07T02:14:22Z</time>
      </trkpt>
      <trkpt lat="43.71594" lon="4.79627">
        <ele>16</ele>
        <time>2024-04-07T02:14:28Z</time>
      </trkpt>
      <trkpt lat="43.71582" lon="4.79654">
        <ele>16</ele>
        <time>2024-04-07T02:14:32Z</time>
      </trkpt>
      <trkpt lat="43.71522" lon="4.7977">
        <ele>17</ele>
        <time>2024-04-07T02:14:50Z</time>
      </trkpt>
      <trkpt lat="43.71515" lon="4.79791">
        <ele>18</ele>
        <time>2024-04-07T02:14:53Z</time>
      </trkpt>
      <trkpt lat="43.71506" lon="4.79808">
        <ele>18</ele>
        <time>2024-04-07T02:14:56Z</time>
      </trkpt>
      <trkpt lat="43.71464" lon="4.7992">
        <ele>19</ele>
        <time>2024-04-07T02:15:12Z</time>
      </trkpt>
      <trkpt lat="43.71444" lon="4.79987">
        <ele>17</ele>
        <time>2024-04-07T02:15:21Z</time>
      </trkpt>
      <trkpt lat="43.71427" lon="4.80033">
        <ele>18</ele>
        <time>2024-04-07T02:15:28Z</time>
      </trkpt>
      <trkpt lat="43.71421" lon="4.80048">
        <ele>18</ele>
        <time>2024-04-07T02:15:30Z</time>
      </trkpt>
      <trkpt lat="43.71399" lon="4.8008">
        <ele>18</ele>
        <time>2024-04-07T02:15:36Z</time>
      </trkpt>
      <trkpt lat="43.71382" lon="4.80113">
        <ele>18</ele>
        <time>2024-04-07T02:15:41Z</time>
      </trkpt>
      <trkpt lat="43.71357" lon="4.8018">
        <ele>18</ele>
        <time>2024-04-07T02:15:51Z</time>
      </trkpt>
      <trkpt lat="43.71312" lon="4.80316">
        <ele>16</ele>
        <time>2024-04-07T02:16:10Z</time>
      </trkpt>
      <trkpt lat="43.71306" lon="4.8033">
        <ele>16</ele>
        <time>2024-04-07T02:16:12Z</time>
      </trkpt>
      <trkpt lat="43.71302" lon="4.80332">
        <ele>16</ele>
        <time>2024-04-07T02:16:13Z</time>
      </trkpt>
      <trkpt lat="43.71299" lon="4.80336">
        <ele>16</ele>
        <time>2024-04-07T02:16:13Z</time>
      </trkpt>
      <trkpt lat="43.71298" lon="4.80342">
        <ele>16</ele>
        <time>2024-04-07T02:16:14Z</time>
      </trkpt>
      <trkpt lat="43.713" lon="4.80347">
        <ele>16</ele>
        <time>2024-04-07T02:16:15Z</time>
      </trkpt>
      <trkpt lat="43.71299" lon="4.80361">
        <ele>16</ele>
        <time>2024-04-07T02:16:17Z</time>
      </trkpt>
      <trkpt lat="43.71252" lon="4.80533">
        <ele>18</ele>
        <time>2024-04-07T02:16:40Z</time>
      </trkpt>
      <trkpt lat="43.71215" lon="4.80646">
        <ele>18</ele>
        <time>2024-04-07T02:16:56Z</time>
      </trkpt>
      <trkpt lat="43.71074" lon="4.81042">
        <ele>16</ele>
        <time>2024-04-07T02:17:53Z</time>
      </trkpt>
      <trkpt lat="43.71044" lon="4.81141">
        <ele>14</ele>
        <time>2024-04-07T02:18:07Z</time>
      </trkpt>
      <trkpt lat="43.71004" lon="4.81261">
        <ele>12</ele>
        <time>2024-04-07T02:18:24Z</time>
      </trkpt>
      <trkpt lat="43.70997" lon="4.81286">
        <ele>12</ele>
        <time>2024-04-07T02:18:27Z</time>
      </trkpt>
      <trkpt lat="43.70963" lon="4.81468">
        <ele>12</ele>
        <time>2024-04-07T02:18:52Z</time>
      </trkpt>
      <trkpt lat="43.7088" lon="4.81737">
        <ele>10</ele>
        <time>2024-04-07T02:19:29Z</time>
      </trkpt>
      <trkpt lat="43.708" lon="4.82003">
        <ele>11</ele>
        <time>2024-04-07T02:20:06Z</time>
      </trkpt>
      <trkpt lat="43.7079" lon="4.82025">
        <ele>11</ele>
        <time>2024-04-07T02:20:10Z</time>
      </trkpt>
      <trkpt lat="43.70775" lon="4.82043">
        <ele>11</ele>
        <time>2024-04-07T02:20:13Z</time>
      </trkpt>
      <trkpt lat="43.70757" lon="4.82073">
        <ele>11</ele>
        <time>2024-04-07T02:20:18Z</time>
      </trkpt>
      <trkpt lat="43.70726" lon="4.82142">
        <ele>7</ele>
        <time>2024-04-07T02:20:29Z</time>
      </trkpt>
      <trkpt lat="43.70724" lon="4.82153">
        <ele>7</ele>
        <time>2024-04-07T02:20:30Z</time>
      </trkpt>
      <trkpt lat="43.70722" lon="4.82172">
        <ele>7</ele>
        <time>2024-04-07T02:20:33Z</time>
      </trkpt>
      <trkpt lat="43.70724" lon="4.82201">
        <ele>7</ele>
        <time>2024-04-07T02:20:36Z</time>
      </trkpt>
      <trkpt lat="43.7073" lon="4.82219">
        <ele>8</ele>
        <time>2024-04-07T02:20:39Z</time>
      </trkpt>
      <trkpt lat="43.70701" lon="4.8227">
        <ele>8</ele>
        <time>2024-04-07T02:20:47Z</time>
      </trkpt>
      <trkpt lat="43.70677" lon="4.8232">
        <ele>8</ele>
        <time>2024-04-07T02:20:55Z</time>
      </trkpt>
      <trkpt lat="43.70657" lon="4.8237">
        <ele>8</ele>
        <time>2024-04-07T02:21:02Z</time>
      </trkpt>
      <trkpt lat="43.70415" lon="4.83115">
        <ele>8</ele>
        <time>2024-04-07T02:22:47Z</time>
      </trkpt>
      <trkpt lat="43.70401" lon="4.83151">
        <ele>9</ele>
        <time>2024-04-07T02:22:53Z</time>
      </trkpt>
      <trkpt lat="43.70386" lon="4.8318">
        <ele>10</ele>
        <time>2024-04-07T02:22:57Z</time>
      </trkpt>
      <trkpt lat="43.70297" lon="4.83314">
        <ele>9</ele>
        <time>2024-04-07T02:23:21Z</time>
      </trkpt>
      <trkpt lat="43.70267" lon="4.83354">
        <ele>10</ele>
        <time>2024-04-07T02:23:28Z</time>
      </trkpt>
      <trkpt lat="43.70229" lon="4.83396">
        <ele>11</ele>
        <time>2024-04-07T02:23:37Z</time>
      </trkpt>
      <trkpt lat="43.69888" lon="4.83716">
        <ele>12</ele>
        <time>2024-04-07T02:24:50Z</time>
      </trkpt>
      <trkpt lat="43.69853" lon="4.83753">
        <ele>11</ele>
        <time>2024-04-07T02:24:58Z</time>
      </trkpt>
      <trkpt lat="43.69834" lon="4.83777">
        <ele>10</ele>
        <time>2024-04-07T02:25:02Z</time>
      </trkpt>
      <trkpt lat="43.69784" lon="4.8385">
        <ele>8</ele>
        <time>2024-04-07T02:25:15Z</time>
      </trkpt>
      <trkpt lat="43.69744" lon="4.83915">
        <ele>8</ele>
        <time>2024-04-07T02:25:26Z</time>
      </trkpt>
      <trkpt lat="43.69719" lon="4.83963">
        <ele>9</ele>
        <time>2024-04-07T02:25:34Z</time>
      </trkpt>
      <trkpt lat="43.69661" lon="4.84087">
        <ele>10</ele>
        <time>2024-04-07T02:25:53Z</time>
      </trkpt>
      <trkpt lat="43.69642" lon="4.84132">
        <ele>10</ele>
        <time>2024-04-07T02:26:00Z</time>
      </trkpt>
      <trkpt lat="43.69502" lon="4.84565">
        <ele>11</ele>
        <time>2024-04-07T02:27:01Z</time>
      </trkpt>
      <trkpt lat="43.69489" lon="4.84623">
        <ele>11</ele>
        <time>2024-04-07T02:27:08Z</time>
      </trkpt>
      <trkpt lat="43.69482" lon="4.84664">
        <ele>12</ele>
        <time>2024-04-07T02:27:14Z</time>
      </trkpt>
      <trkpt lat="43.69437" lon="4.84955">
        <ele>14</ele>
        <time>2024-04-07T02:27:52Z</time>
      </trkpt>
      <trkpt lat="43.69434" lon="4.84969">
        <ele>14</ele>
        <time>2024-04-07T02:27:54Z</time>
      </trkpt>
      <trkpt lat="43.69366" lon="4.85386">
        <ele>11</ele>
        <time>2024-04-07T02:28:49Z</time>
      </trkpt>
      <trkpt lat="43.69354" lon="4.85436">
        <ele>11</ele>
        <time>2024-04-07T02:28:56Z</time>
      </trkpt>
      <trkpt lat="43.6933" lon="4.85527">
        <ele>10</ele>
        <time>2024-04-07T02:29:08Z</time>
      </trkpt>
      <trkpt lat="43.6926" lon="4.8577">
        <ele>11</ele>
        <time>2024-04-07T02:29:42Z</time>
      </trkpt>
      <trkpt lat="43.69238" lon="4.85851">
        <ele>12</ele>
        <time>2024-04-07T02:29:53Z</time>
      </trkpt>
      <trkpt lat="43.69214" lon="4.85952">
        <ele>12</ele>
        <time>2024-04-07T02:30:07Z</time>
      </trkpt>
      <trkpt lat="43.69131" lon="4.86318">
        <ele>11</ele>
        <time>2024-04-07T02:30:56Z</time>
      </trkpt>
      <trkpt lat="43.6908" lon="4.86517">
        <ele>12</ele>
        <time>2024-04-07T02:31:23Z</time>
      </trkpt>
      <trkpt lat="43.69066" lon="4.86544">
        <ele>11</ele>
        <time>2024-04-07T02:31:27Z</time>
      </trkpt>
      <trkpt lat="43.6906" lon="4.86547">
        <ele>11</ele>
        <time>2024-04-07T02:31:29Z</time>
      </trkpt>
      <trkpt lat="43.69057" lon="4.86555">
        <ele>11</ele>
        <time>2024-04-07T02:31:30Z</time>
      </trkpt>
      <trkpt lat="43.69058" lon="4.86583">
        <ele>11</ele>
        <time>2024-04-07T02:31:33Z</time>
      </trkpt>
      <trkpt lat="43.69056" lon="4.86606">
        <ele>12</ele>
        <time>2024-04-07T02:31:36Z</time>
      </trkpt>
      <trkpt lat="43.69035" lon="4.86682">
        <ele>14</ele>
        <time>2024-04-07T02:31:47Z</time>
      </trkpt>
      <trkpt lat="43.68978" lon="4.86859">
        <ele>15</ele>
        <time>2024-04-07T02:32:12Z</time>
      </trkpt>
      <trkpt lat="43.68964" lon="4.86909">
        <ele>15</ele>
        <time>2024-04-07T02:32:19Z</time>
      </trkpt>
      <trkpt lat="43.68923" lon="4.87023">
        <ele>17</ele>
        <time>2024-04-07T02:32:35Z</time>
      </trkpt>
      <trkpt lat="43.68916" lon="4.87066">
        <ele>18</ele>
        <time>2024-04-07T02:32:41Z</time>
      </trkpt>
      <trkpt lat="43.6891" lon="4.8711">
        <ele>19</ele>
        <time>2024-04-07T02:32:46Z</time>
      </trkpt>
      <trkpt lat="43.68902" lon="4.87154">
        <ele>20</ele>
        <time>2024-04-07T02:32:52Z</time>
      </trkpt>
      <trkpt lat="43.6884" lon="4.87413">
        <ele>20</ele>
        <time>2024-04-07T02:33:27Z</time>
      </trkpt>
      <trkpt lat="43.68782" lon="4.87639">
        <ele>20</ele>
        <time>2024-04-07T02:33:58Z</time>
      </trkpt>
      <trkpt lat="43.6875" lon="4.87771">
        <ele>22</ele>
        <time>2024-04-07T02:34:16Z</time>
      </trkpt>
      <trkpt lat="43.6874" lon="4.87803">
        <ele>23</ele>
        <time>2024-04-07T02:34:21Z</time>
      </trkpt>
      <trkpt lat="43.68734" lon="4.87806">
        <ele>23</ele>
        <time>2024-04-07T02:34:22Z</time>
      </trkpt>
      <trkpt lat="43.6873" lon="4.87814">
        <ele>23</ele>
        <time>2024-04-07T02:34:23Z</time>
      </trkpt>
      <trkpt lat="43.6873" lon="4.87824">
        <ele>23</ele>
        <time>2024-04-07T02:34:24Z</time>
      </trkpt>
      <trkpt lat="43.68732" lon="4.87828">
        <ele>23</ele>
        <time>2024-04-07T02:34:25Z</time>
      </trkpt>
      <trkpt lat="43.68731" lon="4.87843">
        <ele>23</ele>
        <time>2024-04-07T02:34:27Z</time>
      </trkpt>
      <trkpt lat="43.68723" lon="4.87879">
        <ele>23</ele>
        <time>2024-04-07T02:34:32Z</time>
      </trkpt>
      <trkpt lat="43.68718" lon="4.87897">
        <ele>23</ele>
        <time>2024-04-07T02:34:34Z</time>
      </trkpt>
      <trkpt lat="43.68414" lon="4.89042">
        <ele>34</ele>
        <time>2024-04-07T02:37:11Z</time>
      </trkpt>
      <trkpt lat="43.68406" lon="4.89066">
        <ele>35</ele>
        <time>2024-04-07T02:37:15Z</time>
      </trkpt>
      <trkpt lat="43.68401" lon="4.89076">
        <ele>36</ele>
        <time>2024-04-07T02:37:16Z</time>
      </trkpt>
      <trkpt lat="43.68388" lon="4.89089">
        <ele>37</ele>
        <time>2024-04-07T02:37:19Z</time>
      </trkpt>
      <trkpt lat="43.68373" lon="4.89097">
        <ele>38</ele>
        <time>2024-04-07T02:37:22Z</time>
      </trkpt>
      <trkpt lat="43.68351" lon="4.89098">
        <ele>39</ele>
        <time>2024-04-07T02:37:26Z</time>
      </trkpt>
      <trkpt lat="43.6819" lon="4.89081">
        <ele>44</ele>
        <time>2024-04-07T02:37:55Z</time>
      </trkpt>
      <trkpt lat="43.68159" lon="4.89076">
        <ele>45</ele>
        <time>2024-04-07T02:38:00Z</time>
      </trkpt>
      <trkpt lat="43.68155" lon="4.89079">
        <ele>45</ele>
        <time>2024-04-07T02:38:01Z</time>
      </trkpt>
      <trkpt lat="43.68134" lon="4.89087">
        <ele>47</ele>
        <time>2024-04-07T02:38:05Z</time>
      </trkpt>
      <trkpt lat="43.68107" lon="4.89104">
        <ele>50</ele>
        <time>2024-04-07T02:38:10Z</time>
      </trkpt>
      <trkpt lat="43.68103" lon="4.89132">
        <ele>54</ele>
        <time>2024-04-07T02:38:14Z</time>
      </trkpt>
      <trkpt lat="43.68108" lon="4.8915">
        <ele>57</ele>
        <time>2024-04-07T02:38:16Z</time>
      </trkpt>
      <trkpt lat="43.68138" lon="4.89178">
        <ele>59</ele>
        <time>2024-04-07T02:38:23Z</time>
      </trkpt>
      <trkpt lat="43.68253" lon="4.89243">
        <ele>63</ele>
        <time>2024-04-07T02:38:45Z</time>
      </trkpt>
      <trkpt lat="43.68267" lon="4.89255">
        <ele>63</ele>
        <time>2024-04-07T02:38:48Z</time>
      </trkpt>
      <trkpt lat="43.68278" lon="4.89272">
        <ele>63</ele>
        <time>2024-04-07T02:38:51Z</time>
      </trkpt>
      <trkpt lat="43.68287" lon="4.89292">
        <ele>64</ele>
        <time>2024-04-07T02:38:54Z</time>
      </trkpt>
      <trkpt lat="43.68297" lon="4.89338">
        <ele>68</ele>
        <time>2024-04-07T02:39:00Z</time>
      </trkpt>
      <trkpt lat="43.68305" lon="4.89362">
        <ele>69</ele>
        <time>2024-04-07T02:39:03Z</time>
      </trkpt>
      <trkpt lat="43.6831" lon="4.89372">
        <ele>69</ele>
        <time>2024-04-07T02:39:05Z</time>
      </trkpt>
      <trkpt lat="43.68323" lon="4.89388">
        <ele>70</ele>
        <time>2024-04-07T02:39:08Z</time>
      </trkpt>
      <trkpt lat="43.6834" lon="4.89401">
        <ele>71</ele>
        <time>2024-04-07T02:39:11Z</time>
      </trkpt>
      <trkpt lat="43.6837" lon="4.89414">
        <ele>70</ele>
        <time>2024-04-07T02:39:17Z</time>
      </trkpt>
      <trkpt lat="43.68387" lon="4.89425">
        <ele>69</ele>
        <time>2024-04-07T02:39:20Z</time>
      </trkpt>
      <trkpt lat="43.68406" lon="4.89447">
        <ele>70</ele>
        <time>2024-04-07T02:39:25Z</time>
      </trkpt>
      <trkpt lat="43.68435" lon="4.8949">
        <ele>74</ele>
        <time>2024-04-07T02:39:32Z</time>
      </trkpt>
      <trkpt lat="43.68445" lon="4.89501">
        <ele>75</ele>
        <time>2024-04-07T02:39:34Z</time>
      </trkpt>
      <trkpt lat="43.68488" lon="4.89536">
        <ele>76</ele>
        <time>2024-04-07T02:39:43Z</time>
      </trkpt>
      <trkpt lat="43.68495" lon="4.89545">
        <ele>77</ele>
        <time>2024-04-07T02:39:45Z</time>
      </trkpt>
      <trkpt lat="43.68514" lon="4.89583">
        <ele>80</ele>
        <time>2024-04-07T02:39:51Z</time>
      </trkpt>
      <trkpt lat="43.68539" lon="4.89666">
        <ele>81</ele>
        <time>2024-04-07T02:40:03Z</time>
      </trkpt>
      <trkpt lat="43.69583" lon="4.92788">
        <ele>103</ele>
        <time>2024-04-07T02:47:25Z</time>
      </trkpt>
      <trkpt lat="43.69589" lon="4.92806">
        <ele>104</ele>
        <time>2024-04-07T02:47:28Z</time>
      </trkpt>
      <trkpt lat="43.69897" lon="4.93725">
        <ele>114</ele>
        <time>2024-04-07T02:49:38Z</time>
      </trkpt>
      <trkpt lat="43.69913" lon="4.93806">
        <ele>116</ele>
        <time>2024-04-07T02:49:49Z</time>
      </trkpt>
      <trkpt lat="43.69915" lon="4.93825">
        <ele>116</ele>
        <time>2024-04-07T02:49:51Z</time>
      </trkpt>
      <trkpt lat="43.69914" lon="4.93841">
        <ele>116</ele>
        <time>2024-04-07T02:49:53Z</time>
      </trkpt>
      <trkpt lat="43.6991" lon="4.93845">
        <ele>115</ele>
        <time>2024-04-07T02:49:54Z</time>
      </trkpt>
      <trkpt lat="43.69906" lon="4.93854">
        <ele>115</ele>
        <time>2024-04-07T02:49:56Z</time>
      </trkpt>
      <trkpt lat="43.69905" lon="4.93859">
        <ele>115</ele>
        <time>2024-04-07T02:49:56Z</time>
      </trkpt>
      <trkpt lat="43.69907" lon="4.93872">
        <ele>115</ele>
        <time>2024-04-07T02:49:58Z</time>
      </trkpt>
      <trkpt lat="43.6991" lon="4.93877">
        <ele>115</ele>
        <time>2024-04-07T02:49:59Z</time>
      </trkpt>
      <trkpt lat="43.69913" lon="4.93918">
        <ele>114</ele>
        <time>2024-04-07T02:50:04Z</time>
      </trkpt>
      <trkpt lat="43.6987" lon="4.942">
        <ele>113</ele>
        <time>2024-04-07T02:50:41Z</time>
      </trkpt>
      <trkpt lat="43.69795" lon="4.9476">
        <ele>109</ele>
        <time>2024-04-07T02:51:54Z</time>
      </trkpt>
      <trkpt lat="43.69498" lon="4.97025">
        <ele>108</ele>
        <time>2024-04-07T02:56:51Z</time>
      </trkpt>
      <trkpt lat="43.69494" lon="4.97068">
        <ele>109</ele>
        <time>2024-04-07T02:56:56Z</time>
      </trkpt>
      <trkpt lat="43.69489" lon="4.97162">
        <ele>109</ele>
        <time>2024-04-07T02:57:08Z</time>
      </trkpt>
      <trkpt lat="43.6949" lon="4.98356">
        <ele>104</ele>
        <time>2024-04-07T02:59:42Z</time>
      </trkpt>
      <trkpt lat="43.6949" lon="4.98369">
        <ele>104</ele>
        <time>2024-04-07T02:59:44Z</time>
      </trkpt>
      <trkpt lat="43.6949" lon="4.98637">
        <ele>103</ele>
        <time>2024-04-07T03:00:18Z</time>
      </trkpt>
      <trkpt lat="43.6949" lon="4.9866">
        <ele>103</ele>
        <time>2024-04-07T03:00:21Z</time>
      </trkpt>
      <trkpt lat="43.6949" lon="4.98719">
        <ele>104</ele>
        <time>2024-04-07T03:00:29Z</time>
      </trkpt>
      <trkpt lat="43.69486" lon="4.98772">
        <ele>106</ele>
        <time>2024-04-07T03:00:35Z</time>
      </trkpt>
      <trkpt lat="43.69416" lon="4.99152">
        <ele>108</ele>
        <time>2024-04-07T03:01:26Z</time>
      </trkpt>
      <trkpt lat="43.69327" lon="4.9963">
        <ele>109</ele>
        <time>2024-04-07T03:02:29Z</time>
      </trkpt>
      <trkpt lat="43.69312" lon="4.99716">
        <ele>109</ele>
        <time>2024-04-07T03:02:41Z</time>
      </trkpt>
      <trkpt lat="43.69309" lon="4.99749">
        <ele>109</ele>
        <time>2024-04-07T03:02:45Z</time>
      </trkpt>
      <trkpt lat="43.69306" lon="4.99823">
        <ele>109</ele>
        <time>2024-04-07T03:02:55Z</time>
      </trkpt>
      <trkpt lat="43.69274" lon="5.00824">
        <ele>104</ele>
        <time>2024-04-07T03:05:03Z</time>
      </trkpt>
      <trkpt lat="43.69273" lon="5.0084">
        <ele>103</ele>
        <time>2024-04-07T03:05:06Z</time>
      </trkpt>
      <trkpt lat="43.69273" lon="5.00846">
        <ele>103</ele>
        <time>2024-04-07T03:05:06Z</time>
      </trkpt>
      <trkpt lat="43.69273" lon="5.00856">
        <ele>103</ele>
        <time>2024-04-07T03:05:08Z</time>
      </trkpt>
      <trkpt lat="43.69262" lon="5.01147">
        <ele>97</ele>
        <time>2024-04-07T03:05:45Z</time>
      </trkpt>
      <trkpt lat="43.69253" lon="5.01197">
        <ele>97</ele>
        <time>2024-04-07T03:05:52Z</time>
      </trkpt>
      <trkpt lat="43.69246" lon="5.01217">
        <ele>97</ele>
        <time>2024-04-07T03:05:55Z</time>
      </trkpt>
      <trkpt lat="43.69101" lon="5.01504">
        <ele>95</ele>
        <time>2024-04-07T03:06:40Z</time>
      </trkpt>
      <trkpt lat="43.68957" lon="5.01895">
        <ele>92</ele>
        <time>2024-04-07T03:07:36Z</time>
      </trkpt>
      <trkpt lat="43.68953" lon="5.01912">
        <ele>91</ele>
        <time>2024-04-07T03:07:38Z</time>
      </trkpt>
      <trkpt lat="43.68946" lon="5.01949">
        <ele>91</ele>
        <time>2024-04-07T03:07:43Z</time>
      </trkpt>
      <trkpt lat="43.68928" lon="5.02076">
        <ele>91</ele>
        <time>2024-04-07T03:08:00Z</time>
      </trkpt>
      <trkpt lat="43.68923" lon="5.02089">
        <ele>90</ele>
        <time>2024-04-07T03:08:02Z</time>
      </trkpt>
      <trkpt lat="43.68919" lon="5.02095">
        <ele>90</ele>
        <time>2024-04-07T03:08:03Z</time>
      </trkpt>
      <trkpt lat="43.68915" lon="5.02091">
        <ele>90</ele>
        <time>2024-04-07T03:08:04Z</time>
      </trkpt>
      <trkpt lat="43.68909" lon="5.0209">
        <ele>89</ele>
        <time>2024-04-07T03:08:05Z</time>
      </trkpt>
      <trkpt lat="43.68905" lon="5.02095">
        <ele>89</ele>
        <time>2024-04-07T03:08:06Z</time>
      </trkpt>
      <trkpt lat="43.68903" lon="5.02102">
        <ele>88</ele>
        <time>2024-04-07T03:08:07Z</time>
      </trkpt>
      <trkpt lat="43.68907" lon="5.02111">
        <ele>88</ele>
        <time>2024-04-07T03:08:08Z</time>
      </trkpt>
      <trkpt lat="43.68914" lon="5.02113">
        <ele>89</ele>
        <time>2024-04-07T03:08:09Z</time>
      </trkpt>
      <trkpt lat="43.68918" lon="5.02122">
        <ele>89</ele>
        <time>2024-04-07T03:08:11Z</time>
      </trkpt>
      <trkpt lat="43.68925" lon="5.02149">
        <ele>89</ele>
        <time>2024-04-07T03:08:14Z</time>
      </trkpt>
      <trkpt lat="43.68934" lon="5.02197">
        <ele>88</ele>
        <time>2024-04-07T03:08:21Z</time>
      </trkpt>
      <trkpt lat="43.6892" lon="5.02332">
        <ele>87</ele>
        <time>2024-04-07T03:08:38Z</time>
      </trkpt>
      <trkpt lat="43.68919" lon="5.02443">
        <ele>87</ele>
        <time>2024-04-07T03:08:53Z</time>
      </trkpt>
      <trkpt lat="43.68892" lon="5.0251">
        <ele>86</ele>
        <time>2024-04-07T03:09:03Z</time>
      </trkpt>
      <trkpt lat="43.68888" lon="5.02532">
        <ele>86</ele>
        <time>2024-04-07T03:09:05Z</time>
      </trkpt>
      <trkpt lat="43.68881" lon="5.02732">
        <ele>87</ele>
        <time>2024-04-07T03:09:31Z</time>
      </trkpt>
      <trkpt lat="43.68889" lon="5.02887">
        <ele>89</ele>
        <time>2024-04-07T03:09:51Z</time>
      </trkpt>
      <trkpt lat="43.68904" lon="5.03021">
        <ele>91</ele>
        <time>2024-04-07T03:10:09Z</time>
      </trkpt>
      <trkpt lat="43.68904" lon="5.03037">
        <ele>91</ele>
        <time>2024-04-07T03:10:11Z</time>
      </trkpt>
      <trkpt lat="43.689" lon="5.03049">
        <ele>91</ele>
        <time>2024-04-07T03:10:12Z</time>
      </trkpt>
      <trkpt lat="43.68902" lon="5.03059">
        <ele>91</ele>
        <time>2024-04-07T03:10:14Z</time>
      </trkpt>
      <trkpt lat="43.68906" lon="5.03065">
        <ele>90</ele>
        <time>2024-04-07T03:10:15Z</time>
      </trkpt>
      <trkpt lat="43.68908" lon="5.03078">
        <ele>90</ele>
        <time>2024-04-07T03:10:16Z</time>
      </trkpt>
      <trkpt lat="43.689" lon="5.0316">
        <ele>92</ele>
        <time>2024-04-07T03:10:27Z</time>
      </trkpt>
      <trkpt lat="43.68898" lon="5.03257">
        <ele>90</ele>
        <time>2024-04-07T03:10:40Z</time>
      </trkpt>
      <trkpt lat="43.68893" lon="5.0331">
        <ele>89</ele>
        <time>2024-04-07T03:10:46Z</time>
      </trkpt>
      <trkpt lat="43.68843" lon="5.03559">
        <ele>88</ele>
        <time>2024-04-07T03:11:20Z</time>
      </trkpt>
      <trkpt lat="43.68838" lon="5.03599">
        <ele>87</ele>
        <time>2024-04-07T03:11:25Z</time>
      </trkpt>
      <trkpt lat="43.68836" lon="5.03675">
        <ele>88</ele>
        <time>2024-04-07T03:11:35Z</time>
      </trkpt>
      <trkpt lat="43.68829" lon="5.03763">
        <ele>89</ele>
        <time>2024-04-07T03:11:46Z</time>
      </trkpt>
      <trkpt lat="43.6879" lon="5.03974">
        <ele>89</ele>
        <time>2024-04-07T03:12:14Z</time>
      </trkpt>
      <trkpt lat="43.68778" lon="5.04048">
        <ele>89</ele>
        <time>2024-04-07T03:12:24Z</time>
      </trkpt>
      <trkpt lat="43.68774" lon="5.04113">
        <ele>89</ele>
        <time>2024-04-07T03:12:32Z</time>
      </trkpt>
      <trkpt lat="43.6878" lon="5.04247">
        <ele>89</ele>
        <time>2024-04-07T03:12:50Z</time>
      </trkpt>
      <trkpt lat="43.68786" lon="5.04329">
        <ele>89</ele>
        <time>2024-04-07T03:13:00Z</time>
      </trkpt>
      <trkpt lat="43.68808" lon="5.04718">
        <ele>99</ele>
        <time>2024-04-07T03:13:50Z</time>
      </trkpt>
      <trkpt lat="43.68814" lon="5.04768">
        <ele>101</ele>
        <time>2024-04-07T03:13:57Z</time>
      </trkpt>
      <trkpt lat="43.68829" lon="5.0484">
        <ele>106</ele>
        <time>2024-04-07T03:14:07Z</time>
      </trkpt>
      <trkpt lat="43.68833" lon="5.04859">
        <ele>107</ele>
        <time>2024-04-07T03:14:09Z</time>
      </trkpt>
      <trkpt lat="43.68835" lon="5.04885">
        <ele>108</ele>
        <time>2024-04-07T03:14:12Z</time>
      </trkpt>
      <trkpt lat="43.68835" lon="5.04897">
        <ele>108</ele>
        <time>2024-04-07T03:14:14Z</time>
      </trkpt>
      <trkpt lat="43.68833" lon="5.04903">
        <ele>108</ele>
        <time>2024-04-07T03:14:15Z</time>
      </trkpt>
      <trkpt lat="43.68832" lon="5.04915">
        <ele>109</ele>
        <time>2024-04-07T03:14:16Z</time>
      </trkpt>
      <trkpt lat="43.68837" lon="5.04927">
        <ele>110</ele>
        <time>2024-04-07T03:14:18Z</time>
      </trkpt>
      <trkpt lat="43.68845" lon="5.04932">
        <ele>110</ele>
        <time>2024-04-07T03:14:20Z</time>
      </trkpt>
      <trkpt lat="43.68853" lon="5.04946">
        <ele>111</ele>
        <time>2024-04-07T03:14:22Z</time>
      </trkpt>
      <trkpt lat="43.6886" lon="5.04968">
        <ele>112</ele>
        <time>2024-04-07T03:14:25Z</time>
      </trkpt>
      <trkpt lat="43.68864" lon="5.04983">
        <ele>113</ele>
        <time>2024-04-07T03:14:27Z</time>
      </trkpt>
      <trkpt lat="43.68865" lon="5.05001">
        <ele>114</ele>
        <time>2024-04-07T03:14:30Z</time>
      </trkpt>
      <trkpt lat="43.68863" lon="5.05041">
        <ele>118</ele>
        <time>2024-04-07T03:14:35Z</time>
      </trkpt>
      <trkpt lat="43.68856" lon="5.05102">
        <ele>122</ele>
        <time>2024-04-07T03:14:43Z</time>
      </trkpt>
      <trkpt lat="43.68846" lon="5.05157">
        <ele>123</ele>
        <time>2024-04-07T03:14:50Z</time>
      </trkpt>
      <trkpt lat="43.68844" lon="5.05189">
        <ele>123</ele>
        <time>2024-04-07T03:14:54Z</time>
      </trkpt>
      <trkpt lat="43.68844" lon="5.05208">
        <ele>124</ele>
        <time>2024-04-07T03:14:56Z</time>
      </trkpt>
      <trkpt lat="43.68849" lon="5.05244">
        <ele>125</ele>
        <time>2024-04-07T03:15:01Z</time>
      </trkpt>
      <trkpt lat="43.68871" lon="5.05363">
        <ele>128</ele>
        <time>2024-04-07T03:15:17Z</time>
      </trkpt>
      <trkpt lat="43.6888" lon="5.05429">
        <ele>129</ele>
        <time>2024-04-07T03:15:26Z</time>
      </trkpt>
      <trkpt lat="43.68885" lon="5.05507">
        <ele>130</ele>
        <time>2024-04-07T03:15:36Z</time>
      </trkpt>
      <trkpt lat="43.6888" lon="5.05586">
        <ele>130</ele>
        <time>2024-04-07T03:15:46Z</time>
      </trkpt>
      <trkpt lat="43.68882" lon="5.05614">
        <ele>131</ele>
        <time>2024-04-07T03:15:50Z</time>
      </trkpt>
      <trkpt lat="43.68897" lon="5.05687">
        <ele>133</ele>
        <time>2024-04-07T03:15:59Z</time>
      </trkpt>
      <trkpt lat="43.68911" lon="5.05821">
        <ele>135</ele>
        <time>2024-04-07T03:16:17Z</time>
      </trkpt>
      <trkpt lat="43.68941" lon="5.05992">
        <ele>134</ele>
        <time>2024-04-07T03:16:39Z</time>
      </trkpt>
      <trkpt lat="43.68955" lon="5.06108">
        <ele>135</ele>
        <time>2024-04-07T03:16:55Z</time>
      </trkpt>
      <trkpt lat="43.68958" lon="5.06149">
        <ele>135</ele>
        <time>2024-04-07T03:17:00Z</time>
      </trkpt>
      <trkpt lat="43.68957" lon="5.06182">
        <ele>134</ele>
        <time>2024-04-07T03:17:04Z</time>
      </trkpt>
      <trkpt lat="43.68935" lon="5.06292">
        <ele>131</ele>
        <time>2024-04-07T03:17:19Z</time>
      </trkpt>
      <trkpt lat="43.6893" lon="5.06335">
        <ele>130</ele>
        <time>2024-04-07T03:17:24Z</time>
      </trkpt>
      <trkpt lat="43.6893" lon="5.06374">
        <ele>128</ele>
        <time>2024-04-07T03:17:29Z</time>
      </trkpt>
      <trkpt lat="43.68933" lon="5.06407">
        <ele>128</ele>
        <time>2024-04-07T03:17:34Z</time>
      </trkpt>
      <trkpt lat="43.68944" lon="5.06453">
        <ele>127</ele>
        <time>2024-04-07T03:17:40Z</time>
      </trkpt>
      <trkpt lat="43.68989" lon="5.06573">
        <ele>127</ele>
        <time>2024-04-07T03:17:57Z</time>
      </trkpt>
      <trkpt lat="43.69" lon="5.06627">
        <ele>128</ele>
        <time>2024-04-07T03:18:04Z</time>
      </trkpt>
      <trkpt lat="43.69002" lon="5.067">
        <ele>128</ele>
        <time>2024-04-07T03:18:14Z</time>
      </trkpt>
      <trkpt lat="43.69011" lon="5.06745">
        <ele>128</ele>
        <time>2024-04-07T03:18:20Z</time>
      </trkpt>
      <trkpt lat="43.69045" lon="5.06843">
        <ele>132</ele>
        <time>2024-04-07T03:18:34Z</time>
      </trkpt>
      <trkpt lat="43.69089" lon="5.06961">
        <ele>134</ele>
        <time>2024-04-07T03:18:51Z</time>
      </trkpt>
      <trkpt lat="43.69118" lon="5.07096">
        <ele>131</ele>
        <time>2024-04-07T03:19:09Z</time>
      </trkpt>
      <trkpt lat="43.69141" lon="5.0717">
        <ele>131</ele>
        <time>2024-04-07T03:19:19Z</time>
      </trkpt>
      <trkpt lat="43.69217" lon="5.07296">
        <ele>132</ele>
        <time>2024-04-07T03:19:41Z</time>
      </trkpt>
      <trkpt lat="43.69239" lon="5.07337">
        <ele>133</ele>
        <time>2024-04-07T03:19:47Z</time>
      </trkpt>
      <trkpt lat="43.69267" lon="5.07428">
        <ele>129</ele>
        <time>2024-04-07T03:20:00Z</time>
      </trkpt>
      <trkpt lat="43.69277" lon="5.07452">
        <ele>130</ele>
        <time>2024-04-07T03:20:03Z</time>
      </trkpt>
      <trkpt lat="43.69276" lon="5.07457">
        <ele>130</ele>
        <time>2024-04-07T03:20:04Z</time>
      </trkpt>
      <trkpt lat="43.69277" lon="5.07463">
        <ele>130</ele>
        <time>2024-04-07T03:20:05Z</time>
      </trkpt>
      <trkpt lat="43.69283" lon="5.07467">
        <ele>130</ele>
        <time>2024-04-07T03:20:06Z</time>
      </trkpt>
      <trkpt lat="43.69287" lon="5.07465">
        <ele>131</ele>
        <time>2024-04-07T03:20:07Z</time>
      </trkpt>
      <trkpt lat="43.69296" lon="5.07474">
        <ele>131</ele>
        <time>2024-04-07T03:20:09Z</time>
      </trkpt>
      <trkpt lat="43.69327" lon="5.07519">
        <ele>133</ele>
        <time>2024-04-07T03:20:17Z</time>
      </trkpt>
      <trkpt lat="43.69384" lon="5.07587">
        <ele>139</ele>
        <time>2024-04-07T03:20:30Z</time>
      </trkpt>
      <trkpt lat="43.69423" lon="5.07638">
        <ele>140</ele>
        <time>2024-04-07T03:20:40Z</time>
      </trkpt>
      <trkpt lat="43.69455" lon="5.07685">
        <ele>140</ele>
        <time>2024-04-07T03:20:48Z</time>
      </trkpt>
      <trkpt lat="43.69583" lon="5.07835">
        <ele>132</ele>
        <time>2024-04-07T03:21:18Z</time>
      </trkpt>
      <trkpt lat="43.6965" lon="5.07926">
        <ele>130</ele>
        <time>2024-04-07T03:21:35Z</time>
      </trkpt>
      <trkpt lat="43.6966" lon="5.07941">
        <ele>130</ele>
        <time>2024-04-07T03:21:37Z</time>
      </trkpt>
      <trkpt lat="43.69688" lon="5.08007">
        <ele>128</ele>
        <time>2024-04-07T03:21:47Z</time>
      </trkpt>
      <trkpt lat="43.69709" lon="5.08051">
        <ele>127</ele>
        <time>2024-04-07T03:21:54Z</time>
      </trkpt>
      <trkpt lat="43.69755" lon="5.08124">
        <ele>126</ele>
        <time>2024-04-07T03:22:06Z</time>
      </trkpt>
      <trkpt lat="43.69774" lon="5.08147">
        <ele>125</ele>
        <time>2024-04-07T03:22:11Z</time>
      </trkpt>
      <trkpt lat="43.69834" lon="5.08207">
        <ele>121</ele>
        <time>2024-04-07T03:22:24Z</time>
      </trkpt>
      <trkpt lat="43.69872" lon="5.08239">
        <ele>120</ele>
        <time>2024-04-07T03:22:32Z</time>
      </trkpt>
      <trkpt lat="43.69965" lon="5.08275">
        <ele>122</ele>
        <time>2024-04-07T03:22:49Z</time>
      </trkpt>
      <trkpt lat="43.69997" lon="5.08296">
        <ele>124</ele>
        <time>2024-04-07T03:22:55Z</time>
      </trkpt>
      <trkpt lat="43.70027" lon="5.0833">
        <ele>122</ele>
        <time>2024-04-07T03:23:02Z</time>
      </trkpt>
      <trkpt lat="43.7003" lon="5.08348">
        <ele>121</ele>
        <time>2024-04-07T03:23:05Z</time>
      </trkpt>
      <trkpt lat="43.7003" lon="5.08352">
        <ele>121</ele>
        <time>2024-04-07T03:23:05Z</time>
      </trkpt>
      <trkpt lat="43.70027" lon="5.08363">
        <ele>122</ele>
        <time>2024-04-07T03:23:07Z</time>
      </trkpt>
      <trkpt lat="43.69907" lon="5.08553">
        <ele>113</ele>
        <time>2024-04-07T03:23:39Z</time>
      </trkpt>
      <trkpt lat="43.69942" lon="5.08677">
        <ele>111</ele>
        <time>2024-04-07T03:23:56Z</time>
      </trkpt>
      <trkpt lat="43.69954" lon="5.08695">
        <ele>110</ele>
        <time>2024-04-07T03:23:59Z</time>
      </trkpt>
      <trkpt lat="43.6999" lon="5.08836">
        <ele>108</ele>
        <time>2024-04-07T03:24:19Z</time>
      </trkpt>
      <trkpt lat="43.69992" lon="5.08859">
        <ele>108</ele>
        <time>2024-04-07T03:24:22Z</time>
      </trkpt>
      <trkpt lat="43.6999" lon="5.08863">
        <ele>108</ele>
        <time>2024-04-07T03:24:22Z</time>
      </trkpt>
      <trkpt lat="43.69989" lon="5.08871">
        <ele>108</ele>
        <time>2024-04-07T03:24:23Z</time>
      </trkpt>
      <trkpt lat="43.69992" lon="5.08878">
        <ele>108</ele>
        <time>2024-04-07T03:24:24Z</time>
      </trkpt>
      <trkpt lat="43.69997" lon="5.08882">
        <ele>109</ele>
        <time>2024-04-07T03:24:25Z</time>
      </trkpt>
      <trkpt lat="43.70007" lon="5.08904">
        <ele>109</ele>
        <time>2024-04-07T03:24:29Z</time>
      </trkpt>
      <trkpt lat="43.70026" lon="5.08972">
        <ele>109</ele>
        <time>2024-04-07T03:24:38Z</time>
      </trkpt>
      <trkpt lat="43.70048" lon="5.0906">
        <ele>110</ele>
        <time>2024-04-07T03:24:50Z</time>
      </trkpt>
      <trkpt lat="43.70056" lon="5.09093">
        <ele>110</ele>
        <time>2024-04-07T03:24:55Z</time>
      </trkpt>
      <trkpt lat="43.70076" lon="5.09182">
        <ele>113</ele>
        <time>2024-04-07T03:25:07Z</time>
      </trkpt>
      <trkpt lat="43.70146" lon="5.09453">
        <ele>117</ele>
        <time>2024-04-07T03:25:44Z</time>
      </trkpt>
      <trkpt lat="43.70157" lon="5.09505">
        <ele>117</ele>
        <time>2024-04-07T03:25:51Z</time>
      </trkpt>
      <trkpt lat="43.70166" lon="5.09535">
        <ele>117</ele>
        <time>2024-04-07T03:25:55Z</time>
      </trkpt>
      <trkpt lat="43.70165" lon="5.09547">
        <ele>118</ele>
        <time>2024-04-07T03:25:56Z</time>
      </trkpt>
      <trkpt lat="43.70162" lon="5.09555">
        <ele>118</ele>
        <time>2024-04-07T03:25:57Z</time>
      </trkpt>
      <trkpt lat="43.70161" lon="5.09564">
        <ele>118</ele>
        <time>2024-04-07T03:25:59Z</time>
      </trkpt>
      <trkpt lat="43.70163" lon="5.09574">
        <ele>118</ele>
        <time>2024-04-07T03:26:00Z</time>
      </trkpt>
      <trkpt lat="43.70166" lon="5.09582">
        <ele>118</ele>
        <time>2024-04-07T03:26:01Z</time>
      </trkpt>
      <trkpt lat="43.70171" lon="5.09589">
        <ele>118</ele>
        <time>2024-04-07T03:26:02Z</time>
      </trkpt>
      <trkpt lat="43.70178" lon="5.09593">
        <ele>118</ele>
        <time>2024-04-07T03:26:04Z</time>
      </trkpt>
      <trkpt lat="43.70185" lon="5.09594">
        <ele>117</ele>
        <time>2024-04-07T03:26:05Z</time>
      </trkpt>
      <trkpt lat="43.70197" lon="5.09605">
        <ele>117</ele>
        <time>2024-04-07T03:26:07Z</time>
      </trkpt>
      <trkpt lat="43.7025" lon="5.09663">
        <ele>117</ele>
        <time>2024-04-07T03:26:20Z</time>
      </trkpt>
      <trkpt lat="43.70345" lon="5.09832">
        <ele>117</ele>
        <time>2024-04-07T03:26:47Z</time>
      </trkpt>
      <trkpt lat="43.70367" lon="5.09871">
        <ele>117</ele>
        <time>2024-04-07T03:26:53Z</time>
      </trkpt>
      <trkpt lat="43.70388" lon="5.09909">
        <ele>117</ele>
        <time>2024-04-07T03:27:00Z</time>
      </trkpt>
      <trkpt lat="43.70422" lon="5.09965">
        <ele>118</ele>
        <time>2024-04-07T03:27:09Z</time>
      </trkpt>
      <trkpt lat="43.70486" lon="5.10053">
        <ele>119</ele>
        <time>2024-04-07T03:27:25Z</time>
      </trkpt>
      <trkpt lat="43.70678" lon="5.10299">
        <ele>118</ele>
        <time>2024-04-07T03:28:12Z</time>
      </trkpt>
      <trkpt lat="43.70698" lon="5.10336">
        <ele>119</ele>
        <time>2024-04-07T03:28:18Z</time>
      </trkpt>
      <trkpt lat="43.7072" lon="5.10393">
        <ele>118</ele>
        <time>2024-04-07T03:28:26Z</time>
      </trkpt>
      <trkpt lat="43.70737" lon="5.10472">
        <ele>118</ele>
        <time>2024-04-07T03:28:36Z</time>
      </trkpt>
      <trkpt lat="43.70759" lon="5.10743">
        <ele>119</ele>
        <time>2024-04-07T03:29:12Z</time>
      </trkpt>
      <trkpt lat="43.70766" lon="5.1081">
        <ele>119</ele>
        <time>2024-04-07T03:29:20Z</time>
      </trkpt>
      <trkpt lat="43.70853" lon="5.11395">
        <ele>119</ele>
        <time>2024-04-07T03:30:37Z</time>
      </trkpt>
      <trkpt lat="43.70859" lon="5.11452">
        <ele>119</ele>
        <time>2024-04-07T03:30:44Z</time>
      </trkpt>
      <trkpt lat="43.70859" lon="5.11469">
        <ele>119</ele>
        <time>2024-04-07T03:30:47Z</time>
      </trkpt>
      <trkpt lat="43.70864" lon="5.1149">
        <ele>119</ele>
        <time>2024-04-07T03:30:49Z</time>
      </trkpt>
      <trkpt lat="43.70881" lon="5.11542">
        <ele>119</ele>
        <time>2024-04-07T03:30:57Z</time>
      </trkpt>
      <trkpt lat="43.70883" lon="5.11551">
        <ele>119</ele>
        <time>2024-04-07T03:30:58Z</time>
      </trkpt>
      <trkpt lat="43.70881" lon="5.11562">
        <ele>119</ele>
        <time>2024-04-07T03:31:00Z</time>
      </trkpt>
      <trkpt lat="43.70872" lon="5.11574">
        <ele>119</ele>
        <time>2024-04-07T03:31:02Z</time>
      </trkpt>
      <trkpt lat="43.70862" lon="5.11581">
        <ele>120</ele>
        <time>2024-04-07T03:31:04Z</time>
      </trkpt>
      <trkpt lat="43.70808" lon="5.1162">
        <ele>122</ele>
        <time>2024-04-07T03:31:15Z</time>
      </trkpt>
      <trkpt lat="43.70781" lon="5.11647">
        <ele>124</ele>
        <time>2024-04-07T03:31:20Z</time>
      </trkpt>
      <trkpt lat="43.70761" lon="5.11678">
        <ele>125</ele>
        <time>2024-04-07T03:31:26Z</time>
      </trkpt>
      <trkpt lat="43.7075" lon="5.11708">
        <ele>127</ele>
        <time>2024-04-07T03:31:30Z</time>
      </trkpt>
      <trkpt lat="43.70746" lon="5.11728">
        <ele>128</ele>
        <time>2024-04-07T03:31:33Z</time>
      </trkpt>
      <trkpt lat="43.70741" lon="5.11765">
        <ele>129</ele>
        <time>2024-04-07T03:31:38Z</time>
      </trkpt>
      <trkpt lat="43.70693" lon="5.12825">
        <ele>128</ele>
        <time>2024-04-07T03:33:54Z</time>
      </trkpt>
      <trkpt lat="43.70693" lon="5.12875">
        <ele>128</ele>
        <time>2024-04-07T03:34:01Z</time>
      </trkpt>
      <trkpt lat="43.70697" lon="5.12941">
        <ele>129</ele>
        <time>2024-04-07T03:34:09Z</time>
      </trkpt>
      <trkpt lat="43.70695" lon="5.13059">
        <ele>129</ele>
        <time>2024-04-07T03:34:24Z</time>
      </trkpt>
      <trkpt lat="43.70657" lon="5.13324">
        <ele>130</ele>
        <time>2024-04-07T03:34:59Z</time>
      </trkpt>
      <trkpt lat="43.70645" lon="5.1347">
        <ele>131</ele>
        <time>2024-04-07T03:35:18Z</time>
      </trkpt>
      <trkpt lat="43.70591" lon="5.13709">
        <ele>130</ele>
        <time>2024-04-07T03:35:50Z</time>
      </trkpt>
      <trkpt lat="43.70537" lon="5.14104">
        <ele>135</ele>
        <time>2024-04-07T03:36:42Z</time>
      </trkpt>
      <trkpt lat="43.70527" lon="5.14171">
        <ele>136</ele>
        <time>2024-04-07T03:36:51Z</time>
      </trkpt>
      <trkpt lat="43.70515" lon="5.14226">
        <ele>137</ele>
        <time>2024-04-07T03:36:58Z</time>
      </trkpt>
      <trkpt lat="43.70508" lon="5.14268">
        <ele>138</ele>
        <time>2024-04-07T03:37:04Z</time>
      </trkpt>
      <trkpt lat="43.70494" lon="5.14408">
        <ele>141</ele>
        <time>2024-04-07T03:37:22Z</time>
      </trkpt>
      <trkpt lat="43.7048" lon="5.1451">
        <ele>143</ele>
        <time>2024-04-07T03:37:35Z</time>
      </trkpt>
      <trkpt lat="43.70481" lon="5.14533">
        <ele>143</ele>
        <time>2024-04-07T03:37:38Z</time>
      </trkpt>
      <trkpt lat="43.70485" lon="5.14554">
        <ele>142</ele>
        <time>2024-04-07T03:37:41Z</time>
      </trkpt>
      <trkpt lat="43.70507" lon="5.14657">
        <ele>140</ele>
        <time>2024-04-07T03:37:55Z</time>
      </trkpt>
      <trkpt lat="43.70522" lon="5.14776">
        <ele>141</ele>
        <time>2024-04-07T03:38:10Z</time>
      </trkpt>
      <trkpt lat="43.70527" lon="5.14884">
        <ele>140</ele>
        <time>2024-04-07T03:38:24Z</time>
      </trkpt>
      <trkpt lat="43.70525" lon="5.15005">
        <ele>140</ele>
        <time>2024-04-07T03:38:40Z</time>
      </trkpt>
      <trkpt lat="43.70497" lon="5.15175">
        <ele>143</ele>
        <time>2024-04-07T03:39:02Z</time>
      </trkpt>
      <trkpt lat="43.70468" lon="5.15481">
        <ele>144</ele>
        <time>2024-04-07T03:39:42Z</time>
      </trkpt>
      <trkpt lat="43.70453" lon="5.15567">
        <ele>144</ele>
        <time>2024-04-07T03:39:53Z</time>
      </trkpt>
      <trkpt lat="43.70451" lon="5.15585">
        <ele>144</ele>
        <time>2024-04-07T03:39:56Z</time>
      </trkpt>
      <trkpt lat="43.7045" lon="5.1559">
        <ele>144</ele>
        <time>2024-04-07T03:39:56Z</time>
      </trkpt>
      <trkpt lat="43.7045" lon="5.15598">
        <ele>143</ele>
        <time>2024-04-07T03:39:57Z</time>
      </trkpt>
      <trkpt lat="43.70454" lon="5.15607">
        <ele>143</ele>
        <time>2024-04-07T03:39:59Z</time>
      </trkpt>
      <trkpt lat="43.70453" lon="5.15634">
        <ele>143</ele>
        <time>2024-04-07T03:40:02Z</time>
      </trkpt>
      <trkpt lat="43.70469" lon="5.15743">
        <ele>145</ele>
        <time>2024-04-07T03:40:17Z</time>
      </trkpt>
      <trkpt lat="43.70472" lon="5.15791">
        <ele>146</ele>
        <time>2024-04-07T03:40:23Z</time>
      </trkpt>
      <trkpt lat="43.70472" lon="5.1583">
        <ele>148</ele>
        <time>2024-04-07T03:40:28Z</time>
      </trkpt>
      <trkpt lat="43.70459" lon="5.15937">
        <ele>152</ele>
        <time>2024-04-07T03:40:42Z</time>
      </trkpt>
      <trkpt lat="43.70457" lon="5.15976">
        <ele>153</ele>
        <time>2024-04-07T03:40:47Z</time>
      </trkpt>
      <trkpt lat="43.70465" lon="5.16079">
        <ele>157</ele>
        <time>2024-04-07T03:41:00Z</time>
      </trkpt>
      <trkpt lat="43.70461" lon="5.1612">
        <ele>158</ele>
        <time>2024-04-07T03:41:05Z</time>
      </trkpt>
      <trkpt lat="43.70458" lon="5.16127">
        <ele>159</ele>
        <time>2024-04-07T03:41:06Z</time>
      </trkpt>
      <trkpt lat="43.70478" lon="5.162">
        <ele>158</ele>
        <time>2024-04-07T03:41:16Z</time>
      </trkpt>
      <trkpt lat="43.70521" lon="5.1629">
        <ele>155</ele>
        <time>2024-04-07T03:41:30Z</time>
      </trkpt>
      <trkpt lat="43.70532" lon="5.16305">
        <ele>154</ele>
        <time>2024-04-07T03:41:33Z</time>
      </trkpt>
      <trkpt lat="43.7053" lon="5.16327">
        <ele>154</ele>
        <time>2024-04-07T03:41:36Z</time>
      </trkpt>
      <trkpt lat="43.70533" lon="5.16391">
        <ele>154</ele>
        <time>2024-04-07T03:41:44Z</time>
      </trkpt>
      <trkpt lat="43.70536" lon="5.16423">
        <ele>153</ele>
        <time>2024-04-07T03:41:48Z</time>
      </trkpt>
      <trkpt lat="43.70544" lon="5.16454">
        <ele>152</ele>
        <time>2024-04-07T03:41:53Z</time>
      </trkpt>
      <trkpt lat="43.70577" lon="5.16512">
        <ele>151</ele>
        <time>2024-04-07T03:42:02Z</time>
      </trkpt>
      <trkpt lat="43.70583" lon="5.16531">
        <ele>151</ele>
        <time>2024-04-07T03:42:05Z</time>
      </trkpt>
      <trkpt lat="43.70477" lon="5.166">
        <ele>148</ele>
        <time>2024-04-07T03:42:26Z</time>
      </trkpt>
      <trkpt lat="43.70474" lon="5.16604">
        <ele>148</ele>
        <time>2024-04-07T03:42:26Z</time>
      </trkpt>
      <trkpt lat="43.705" lon="5.1674">
        <ele>146</ele>
        <time>2024-04-07T03:42:44Z</time>
      </trkpt>
      <trkpt lat="43.70505" lon="5.16772">
        <ele>146</ele>
        <time>2024-04-07T03:42:49Z</time>
      </trkpt>
      <trkpt lat="43.70522" lon="5.16993">
        <ele>149</ele>
        <time>2024-04-07T03:43:17Z</time>
      </trkpt>
      <trkpt lat="43.70528" lon="5.17018">
        <ele>149</ele>
        <time>2024-04-07T03:43:21Z</time>
      </trkpt>
      <trkpt lat="43.70534" lon="5.17029">
        <ele>149</ele>
        <time>2024-04-07T03:43:22Z</time>
      </trkpt>
      <trkpt lat="43.70533" lon="5.17037">
        <ele>149</ele>
        <time>2024-04-07T03:43:23Z</time>
      </trkpt>
      <trkpt lat="43.70535" lon="5.17044">
        <ele>149</ele>
        <time>2024-04-07T03:43:24Z</time>
      </trkpt>
      <trkpt lat="43.70528" lon="5.17075">
        <ele>150</ele>
        <time>2024-04-07T03:43:29Z</time>
      </trkpt>
      <trkpt lat="43.7053" lon="5.17118">
        <ele>152</ele>
        <time>2024-04-07T03:43:34Z</time>
      </trkpt>
      <trkpt lat="43.70565" lon="5.17552">
        <ele>159</ele>
        <time>2024-04-07T03:44:30Z</time>
      </trkpt>
      <trkpt lat="43.7057" lon="5.17595">
        <ele>158</ele>
        <time>2024-04-07T03:44:36Z</time>
      </trkpt>
      <trkpt lat="43.70575" lon="5.17625">
        <ele>158</ele>
        <time>2024-04-07T03:44:40Z</time>
      </trkpt>
      <trkpt lat="43.70588" lon="5.17665">
        <ele>158</ele>
        <time>2024-04-07T03:44:45Z</time>
      </trkpt>
      <trkpt lat="43.70679" lon="5.1788">
        <ele>157</ele>
        <time>2024-04-07T03:45:18Z</time>
      </trkpt>
      <trkpt lat="43.707" lon="5.17932">
        <ele>156</ele>
        <time>2024-04-07T03:45:25Z</time>
      </trkpt>
      <trkpt lat="43.7073" lon="5.18022">
        <ele>154</ele>
        <time>2024-04-07T03:45:38Z</time>
      </trkpt>
      <trkpt lat="43.70791" lon="5.18167">
        <ele>150</ele>
        <time>2024-04-07T03:45:59Z</time>
      </trkpt>
      <trkpt lat="43.70806" lon="5.18201">
        <ele>149</ele>
        <time>2024-04-07T03:46:05Z</time>
      </trkpt>
      <trkpt lat="43.70819" lon="5.18223">
        <ele>149</ele>
        <time>2024-04-07T03:46:08Z</time>
      </trkpt>
      <trkpt lat="43.70867" lon="5.18291">
        <ele>149</ele>
        <time>2024-04-07T03:46:20Z</time>
      </trkpt>
      <trkpt lat="43.70875" lon="5.18307">
        <ele>149</ele>
        <time>2024-04-07T03:46:23Z</time>
      </trkpt>
      <trkpt lat="43.70886" lon="5.18342">
        <ele>150</ele>
        <time>2024-04-07T03:46:28Z</time>
      </trkpt>
      <trkpt lat="43.70908" lon="5.1844">
        <ele>151</ele>
        <time>2024-04-07T03:46:41Z</time>
      </trkpt>
      <trkpt lat="43.70927" lon="5.18572">
        <ele>149</ele>
        <time>2024-04-07T03:46:58Z</time>
      </trkpt>
      <trkpt lat="43.70964" lon="5.18794">
        <ele>146</ele>
        <time>2024-04-07T03:47:28Z</time>
      </trkpt>
      <trkpt lat="43.70968" lon="5.18825">
        <ele>145</ele>
        <time>2024-04-07T03:47:32Z</time>
      </trkpt>
      <trkpt lat="43.70963" lon="5.18963">
        <ele>145</ele>
        <time>2024-04-07T03:47:50Z</time>
      </trkpt>
      <trkpt lat="43.70963" lon="5.18986">
        <ele>144</ele>
        <time>2024-04-07T03:47:52Z</time>
      </trkpt>
      <trkpt lat="43.70988" lon="5.19116">
        <ele>144</ele>
        <time>2024-04-07T03:48:10Z</time>
      </trkpt>
      <trkpt lat="43.71006" lon="5.19228">
        <ele>144</ele>
        <time>2024-04-07T03:48:25Z</time>
      </trkpt>
      <trkpt lat="43.71015" lon="5.19318">
        <ele>144</ele>
        <time>2024-04-07T03:48:36Z</time>
      </trkpt>
      <trkpt lat="43.71018" lon="5.19375">
        <ele>144</ele>
        <time>2024-04-07T03:48:44Z</time>
      </trkpt>
      <trkpt lat="43.71018" lon="5.19423">
        <ele>145</ele>
        <time>2024-04-07T03:48:50Z</time>
      </trkpt>
      <trkpt lat="43.71019" lon="5.1945">
        <ele>145</ele>
        <time>2024-04-07T03:48:53Z</time>
      </trkpt>
      <trkpt lat="43.71017" lon="5.19463">
        <ele>146</ele>
        <time>2024-04-07T03:48:55Z</time>
      </trkpt>
      <trkpt lat="43.71014" lon="5.19466">
        <ele>146</ele>
        <time>2024-04-07T03:48:56Z</time>
      </trkpt>
      <trkpt lat="43.7101" lon="5.19477">
        <ele>146</ele>
        <time>2024-04-07T03:48:57Z</time>
      </trkpt>
      <trkpt lat="43.71009" lon="5.19489">
        <ele>146</ele>
        <time>2024-04-07T03:48:59Z</time>
      </trkpt>
      <trkpt lat="43.71011" lon="5.19504">
        <ele>147</ele>
        <time>2024-04-07T03:49:01Z</time>
      </trkpt>
      <trkpt lat="43.71016" lon="5.19515">
        <ele>146</ele>
        <time>2024-04-07T03:49:02Z</time>
      </trkpt>
      <trkpt lat="43.71026" lon="5.19524">
        <ele>146</ele>
        <time>2024-04-07T03:49:05Z</time>
      </trkpt>
      <trkpt lat="43.71033" lon="5.19526">
        <ele>146</ele>
        <time>2024-04-07T03:49:06Z</time>
      </trkpt>
      <trkpt lat="43.71042" lon="5.19538">
        <ele>146</ele>
        <time>2024-04-07T03:49:08Z</time>
      </trkpt>
      <trkpt lat="43.71063" lon="5.19626">
        <ele>147</ele>
        <time>2024-04-07T03:49:20Z</time>
      </trkpt>
      <trkpt lat="43.71087" lon="5.19676">
        <ele>148</ele>
        <time>2024-04-07T03:49:28Z</time>
      </trkpt>
      <trkpt lat="43.7112" lon="5.19733">
        <ele>147</ele>
        <time>2024-04-07T03:49:37Z</time>
      </trkpt>
      <trkpt lat="43.71148" lon="5.19772">
        <ele>147</ele>
        <time>2024-04-07T03:49:44Z</time>
      </trkpt>
      <trkpt lat="43.71226" lon="5.19827">
        <ele>146</ele>
        <time>2024-04-07T03:50:00Z</time>
      </trkpt>
      <trkpt lat="43.71258" lon="5.19856">
        <ele>145</ele>
        <time>2024-04-07T03:50:06Z</time>
      </trkpt>
      <trkpt lat="43.71287" lon="5.19899">
        <ele>145</ele>
        <time>2024-04-07T03:50:14Z</time>
      </trkpt>
      <trkpt lat="43.71335" lon="5.1998">
        <ele>143</ele>
        <time>2024-04-07T03:50:28Z</time>
      </trkpt>
      <trkpt lat="43.71385" lon="5.2008">
        <ele>143</ele>
        <time>2024-04-07T03:50:43Z</time>
      </trkpt>
      <trkpt lat="43.71407" lon="5.20152">
        <ele>143</ele>
        <time>2024-04-07T03:50:53Z</time>
      </trkpt>
      <trkpt lat="43.71472" lon="5.20447">
        <ele>139</ele>
        <time>2024-04-07T03:51:33Z</time>
      </trkpt>
      <trkpt lat="43.71492" lon="5.20538">
        <ele>134</ele>
        <time>2024-04-07T03:51:45Z</time>
      </trkpt>
      <trkpt lat="43.71546" lon="5.20795">
        <ele>138</ele>
        <time>2024-04-07T03:52:20Z</time>
      </trkpt>
      <trkpt lat="43.71555" lon="5.20859">
        <ele>138</ele>
        <time>2024-04-07T03:52:28Z</time>
      </trkpt>
      <trkpt lat="43.7156" lon="5.20915">
        <ele>137</ele>
        <time>2024-04-07T03:52:35Z</time>
      </trkpt>
      <trkpt lat="43.71592" lon="5.21554">
        <ele>139</ele>
        <time>2024-04-07T03:53:58Z</time>
      </trkpt>
      <trkpt lat="43.71616" lon="5.21724">
        <ele>139</ele>
        <time>2024-04-07T03:54:20Z</time>
      </trkpt>
      <trkpt lat="43.71639" lon="5.21903">
        <ele>137</ele>
        <time>2024-04-07T03:54:43Z</time>
      </trkpt>
      <trkpt lat="43.71657" lon="5.2208">
        <ele>138</ele>
        <time>2024-04-07T03:55:06Z</time>
      </trkpt>
      <trkpt lat="43.71677" lon="5.22355">
        <ele>136</ele>
        <time>2024-04-07T03:55:42Z</time>
      </trkpt>
      <trkpt lat="43.71672" lon="5.22385">
        <ele>137</ele>
        <time>2024-04-07T03:55:46Z</time>
      </trkpt>
      <trkpt lat="43.71667" lon="5.22408">
        <ele>137</ele>
        <time>2024-04-07T03:55:49Z</time>
      </trkpt>
      <trkpt lat="43.7166" lon="5.22422">
        <ele>137</ele>
        <time>2024-04-07T03:55:51Z</time>
      </trkpt>
      <trkpt lat="43.71658" lon="5.22432">
        <ele>137</ele>
        <time>2024-04-07T03:55:52Z</time>
      </trkpt>
      <trkpt lat="43.71659" lon="5.22442">
        <ele>137</ele>
        <time>2024-04-07T03:55:54Z</time>
      </trkpt>
      <trkpt lat="43.71662" lon="5.22451">
        <ele>137</ele>
        <time>2024-04-07T03:55:55Z</time>
      </trkpt>
      <trkpt lat="43.7167" lon="5.2246">
        <ele>137</ele>
        <time>2024-04-07T03:55:57Z</time>
      </trkpt>
      <trkpt lat="43.71675" lon="5.22472">
        <ele>138</ele>
        <time>2024-04-07T03:55:58Z</time>
      </trkpt>
      <trkpt lat="43.71684" lon="5.22516">
        <ele>138</ele>
        <time>2024-04-07T03:56:04Z</time>
      </trkpt>
      <trkpt lat="43.7169" lon="5.22691">
        <ele>137</ele>
        <time>2024-04-07T03:56:27Z</time>
      </trkpt>
      <trkpt lat="43.71693" lon="5.22753">
        <ele>137</ele>
        <time>2024-04-07T03:56:35Z</time>
      </trkpt>
      <trkpt lat="43.71697" lon="5.22792">
        <ele>138</ele>
        <time>2024-04-07T03:56:40Z</time>
      </trkpt>
      <trkpt lat="43.71796" lon="5.23501">
        <ele>138</ele>
        <time>2024-04-07T03:58:13Z</time>
      </trkpt>
      <trkpt lat="43.71822" lon="5.23678">
        <ele>137</ele>
        <time>2024-04-07T03:58:36Z</time>
      </trkpt>
      <trkpt lat="43.71836" lon="5.23737">
        <ele>137</ele>
        <time>2024-04-07T03:58:44Z</time>
      </trkpt>
      <trkpt lat="43.71906" lon="5.24001">
        <ele>140</ele>
        <time>2024-04-07T03:59:20Z</time>
      </trkpt>
      <trkpt lat="43.71945" lon="5.24163">
        <ele>141</ele>
        <time>2024-04-07T03:59:42Z</time>
      </trkpt>
      <trkpt lat="43.7195" lon="5.24215">
        <ele>141</ele>
        <time>2024-04-07T03:59:49Z</time>
      </trkpt>
      <trkpt lat="43.71953" lon="5.24326">
        <ele>142</ele>
        <time>2024-04-07T04:00:03Z</time>
      </trkpt>
      <trkpt lat="43.71952" lon="5.24395">
        <ele>143</ele>
        <time>2024-04-07T04:00:12Z</time>
      </trkpt>
      <trkpt lat="43.71963" lon="5.2451">
        <ele>144</ele>
        <time>2024-04-07T04:00:27Z</time>
      </trkpt>
      <trkpt lat="43.71974" lon="5.24693">
        <ele>144</ele>
        <time>2024-04-07T04:00:51Z</time>
      </trkpt>
      <trkpt lat="43.72009" lon="5.25597">
        <ele>144</ele>
        <time>2024-04-07T04:02:47Z</time>
      </trkpt>
      <trkpt lat="43.72021" lon="5.25827">
        <ele>141</ele>
        <time>2024-04-07T04:03:17Z</time>
      </trkpt>
      <trkpt lat="43.72024" lon="5.25999">
        <ele>143</ele>
        <time>2024-04-07T04:03:39Z</time>
      </trkpt>
      <trkpt lat="43.72021" lon="5.265">
        <ele>156</ele>
        <time>2024-04-07T04:04:43Z</time>
      </trkpt>
      <trkpt lat="43.72015" lon="5.26555">
        <ele>157</ele>
        <time>2024-04-07T04:04:50Z</time>
      </trkpt>
      <trkpt lat="43.72007" lon="5.26575">
        <ele>157</ele>
        <time>2024-04-07T04:04:53Z</time>
      </trkpt>
      <trkpt lat="43.71988" lon="5.26595">
        <ele>159</ele>
        <time>2024-04-07T04:04:58Z</time>
      </trkpt>
      <trkpt lat="43.71984" lon="5.26601">
        <ele>159</ele>
        <time>2024-04-07T04:04:59Z</time>
      </trkpt>
      <trkpt lat="43.71981" lon="5.26609">
        <ele>159</ele>
        <time>2024-04-07T04:05:00Z</time>
      </trkpt>
      <trkpt lat="43.7207" lon="5.26969">
        <ele>158</ele>
        <time>2024-04-07T04:05:49Z</time>
      </trkpt>
      <trkpt lat="43.72084" lon="5.27013">
        <ele>156</ele>
        <time>2024-04-07T04:05:55Z</time>
      </trkpt>
      <trkpt lat="43.72123" lon="5.27126">
        <ele>153</ele>
        <time>2024-04-07T04:06:11Z</time>
      </trkpt>
      <trkpt lat="43.72153" lon="5.27228">
        <ele>152</ele>
        <time>2024-04-07T04:06:25Z</time>
      </trkpt>
      <trkpt lat="43.72162" lon="5.27274">
        <ele>153</ele>
        <time>2024-04-07T04:06:31Z</time>
      </trkpt>
      <trkpt lat="43.72211" lon="5.27664">
        <ele>155</ele>
        <time>2024-04-07T04:07:22Z</time>
      </trkpt>
      <trkpt lat="43.72225" lon="5.27755">
        <ele>155</ele>
        <time>2024-04-07T04:07:34Z</time>
      </trkpt>
      <trkpt lat="43.72253" lon="5.2797">
        <ele>154</ele>
        <time>2024-04-07T04:08:02Z</time>
      </trkpt>
      <trkpt lat="43.72254" lon="5.27996">
        <ele>155</ele>
        <time>2024-04-07T04:08:06Z</time>
      </trkpt>
      <trkpt lat="43.72252" lon="5.28044">
        <ele>155</ele>
        <time>2024-04-07T04:08:12Z</time>
      </trkpt>
      <trkpt lat="43.72246" lon="5.28086">
        <ele>155</ele>
        <time>2024-04-07T04:08:17Z</time>
      </trkpt>
      <trkpt lat="43.72128" lon="5.28608">
        <ele>153</ele>
        <time>2024-04-07T04:09:28Z</time>
      </trkpt>
      <trkpt lat="43.72098" lon="5.28783">
        <ele>153</ele>
        <time>2024-04-07T04:09:51Z</time>
      </trkpt>
      <trkpt lat="43.72073" lon="5.28943">
        <ele>153</ele>
        <time>2024-04-07T04:10:12Z</time>
      </trkpt>
      <trkpt lat="43.72069" lon="5.28975">
        <ele>153</ele>
        <time>2024-04-07T04:10:16Z</time>
      </trkpt>
      <trkpt lat="43.72068" lon="5.29002">
        <ele>153</ele>
        <time>2024-04-07T04:10:19Z</time>
      </trkpt>
      <trkpt lat="43.72071" lon="5.29054">
        <ele>151</ele>
        <time>2024-04-07T04:10:26Z</time>
      </trkpt>
      <trkpt lat="43.72081" lon="5.29111">
        <ele>149</ele>
        <time>2024-04-07T04:10:34Z</time>
      </trkpt>
      <trkpt lat="43.72236" lon="5.29739">
        <ele>150</ele>
        <time>2024-04-07T04:11:59Z</time>
      </trkpt>
      <trkpt lat="43.72244" lon="5.29791">
        <ele>151</ele>
        <time>2024-04-07T04:12:06Z</time>
      </trkpt>
      <trkpt lat="43.72247" lon="5.29845">
        <ele>153</ele>
        <time>2024-04-07T04:12:13Z</time>
      </trkpt>
      <trkpt lat="43.72246" lon="5.29891">
        <ele>154</ele>
        <time>2024-04-07T04:12:19Z</time>
      </trkpt>
      <trkpt lat="43.72237" lon="5.29949">
        <ele>157</ele>
        <time>2024-04-07T04:12:26Z</time>
      </trkpt>
      <trkpt lat="43.72228" lon="5.29986">
        <ele>159</ele>
        <time>2024-04-07T04:12:31Z</time>
      </trkpt>
      <trkpt lat="43.72203" lon="5.30071">
        <ele>162</ele>
        <time>2024-04-07T04:12:43Z</time>
      </trkpt>
      <trkpt lat="43.72192" lon="5.30108">
        <ele>162</ele>
        <time>2024-04-07T04:12:48Z</time>
      </trkpt>
      <trkpt lat="43.7217" lon="5.30186">
        <ele>161</ele>
        <time>2024-04-07T04:12:59Z</time>
      </trkpt>
      <trkpt lat="43.72161" lon="5.30202">
        <ele>162</ele>
        <time>2024-04-07T04:13:02Z</time>
      </trkpt>
      <trkpt lat="43.72154" lon="5.30205">
        <ele>162</ele>
        <time>2024-04-07T04:13:03Z</time>
      </trkpt>
      <trkpt lat="43.72147" lon="5.30213">
        <ele>162</ele>
        <time>2024-04-07T04:13:05Z</time>
      </trkpt>
      <trkpt lat="43.7214" lon="5.30235">
        <ele>162</ele>
        <time>2024-04-07T04:13:08Z</time>
      </trkpt>
      <trkpt lat="43.72139" lon="5.30245">
        <ele>162</ele>
        <time>2024-04-07T04:13:09Z</time>
      </trkpt>
      <trkpt lat="43.7214" lon="5.30257">
        <ele>161</ele>
        <time>2024-04-07T04:13:11Z</time>
      </trkpt>
      <trkpt lat="43.72144" lon="5.30278">
        <ele>161</ele>
        <time>2024-04-07T04:13:13Z</time>
      </trkpt>
      <trkpt lat="43.72136" lon="5.30293">
        <ele>161</ele>
        <time>2024-04-07T04:13:16Z</time>
      </trkpt>
      <trkpt lat="43.72127" lon="5.30296">
        <ele>161</ele>
        <time>2024-04-07T04:13:17Z</time>
      </trkpt>
      <trkpt lat="43.72108" lon="5.30289">
        <ele>162</ele>
        <time>2024-04-07T04:13:21Z</time>
      </trkpt>
      <trkpt lat="43.72098" lon="5.3029">
        <ele>162</ele>
        <time>2024-04-07T04:13:23Z</time>
      </trkpt>
      <trkpt lat="43.72093" lon="5.30293">
        <ele>162</ele>
        <time>2024-04-07T04:13:24Z</time>
      </trkpt>
      <trkpt lat="43.72078" lon="5.30314">
        <ele>161</ele>
        <time>2024-04-07T04:13:27Z</time>
      </trkpt>
      <trkpt lat="43.71896" lon="5.30574">
        <ele>164</ele>
        <time>2024-04-07T04:14:14Z</time>
      </trkpt>
      <trkpt lat="43.71886" lon="5.30591">
        <ele>164</ele>
        <time>2024-04-07T04:14:17Z</time>
      </trkpt>
      <trkpt lat="43.71868" lon="5.30626">
        <ele>164</ele>
        <time>2024-04-07T04:14:22Z</time>
      </trkpt>
      <trkpt lat="43.71803" lon="5.30811">
        <ele>162</ele>
        <time>2024-04-07T04:14:49Z</time>
      </trkpt>
      <trkpt lat="43.71796" lon="5.30825">
        <ele>162</ele>
        <time>2024-04-07T04:14:51Z</time>
      </trkpt>
      <trkpt lat="43.71726" lon="5.30916">
        <ele>163</ele>
        <time>2024-04-07T04:15:08Z</time>
      </trkpt>
      <trkpt lat="43.71647" lon="5.31023">
        <ele>166</ele>
        <time>2024-04-07T04:15:28Z</time>
      </trkpt>
      <trkpt lat="43.7164" lon="5.31041">
        <ele>168</ele>
        <time>2024-04-07T04:15:30Z</time>
      </trkpt>
      <trkpt lat="43.71637" lon="5.31076">
        <ele>169</ele>
        <time>2024-04-07T04:15:35Z</time>
      </trkpt>
      <trkpt lat="43.71634" lon="5.3109">
        <ele>170</ele>
        <time>2024-04-07T04:15:37Z</time>
      </trkpt>
      <trkpt lat="43.7163" lon="5.31125">
        <ele>170</ele>
        <time>2024-04-07T04:15:41Z</time>
      </trkpt>
      <trkpt lat="43.71636" lon="5.31166">
        <ele>170</ele>
        <time>2024-04-07T04:15:47Z</time>
      </trkpt>
      <trkpt lat="43.71643" lon="5.31175">
        <ele>169</ele>
        <time>2024-04-07T04:15:48Z</time>
      </trkpt>
      <trkpt lat="43.71648" lon="5.31191">
        <ele>167</ele>
        <time>2024-04-07T04:15:51Z</time>
      </trkpt>
      <trkpt lat="43.71648" lon="5.31211">
        <ele>166</ele>
        <time>2024-04-07T04:15:53Z</time>
      </trkpt>
      <trkpt lat="43.71634" lon="5.31337">
        <ele>161</ele>
        <time>2024-04-07T04:16:10Z</time>
      </trkpt>
      <trkpt lat="43.7163" lon="5.3136">
        <ele>161</ele>
        <time>2024-04-07T04:16:13Z</time>
      </trkpt>
      <trkpt lat="43.71621" lon="5.3138">
        <ele>162</ele>
        <time>2024-04-07T04:16:16Z</time>
      </trkpt>
      <trkpt lat="43.71564" lon="5.31484">
        <ele>168</ele>
        <time>2024-04-07T04:16:32Z</time>
      </trkpt>
      <trkpt lat="43.71536" lon="5.31541">
        <ele>169</ele>
        <time>2024-04-07T04:16:41Z</time>
      </trkpt>
      <trkpt lat="43.7153" lon="5.31555">
        <ele>170</ele>
        <time>2024-04-07T04:16:43Z</time>
      </trkpt>
      <trkpt lat="43.7153" lon="5.31579">
        <ele>170</ele>
        <time>2024-04-07T04:16:47Z</time>
      </trkpt>
      <trkpt lat="43.71568" lon="5.31673">
        <ele>168</ele>
        <time>2024-04-07T04:17:00Z</time>
      </trkpt>
      <trkpt lat="43.71579" lon="5.31747">
        <ele>166</ele>
        <time>2024-04-07T04:17:10Z</time>
      </trkpt>
      <trkpt lat="43.71604" lon="5.32039">
        <ele>165</ele>
        <time>2024-04-07T04:17:48Z</time>
      </trkpt>
      <trkpt lat="43.71597" lon="5.32071">
        <ele>167</ele>
        <time>2024-04-07T04:17:52Z</time>
      </trkpt>
      <trkpt lat="43.71528" lon="5.32236">
        <ele>166</ele>
        <time>2024-04-07T04:18:17Z</time>
      </trkpt>
      <trkpt lat="43.71511" lon="5.32285">
        <ele>168</ele>
        <time>2024-04-07T04:18:24Z</time>
      </trkpt>
      <trkpt lat="43.71507" lon="5.32328">
        <ele>168</ele>
        <time>2024-04-07T04:18:29Z</time>
      </trkpt>
      <trkpt lat="43.71543" lon="5.32534">
        <ele>168</ele>
        <time>2024-04-07T04:18:57Z</time>
      </trkpt>
      <trkpt lat="43.71543" lon="5.32551">
        <ele>168</ele>
        <time>2024-04-07T04:18:59Z</time>
      </trkpt>
      <trkpt lat="43.7154" lon="5.32571">
        <ele>168</ele>
        <time>2024-04-07T04:19:01Z</time>
      </trkpt>
      <trkpt lat="43.71532" lon="5.32597">
        <ele>168</ele>
        <time>2024-04-07T04:19:05Z</time>
      </trkpt>
      <trkpt lat="43.71515" lon="5.32638">
        <ele>168</ele>
        <time>2024-04-07T04:19:11Z</time>
      </trkpt>
      <trkpt lat="43.71512" lon="5.32643">
        <ele>168</ele>
        <time>2024-04-07T04:19:12Z</time>
      </trkpt>
      <trkpt lat="43.71509" lon="5.32644">
        <ele>168</ele>
        <time>2024-04-07T04:19:12Z</time>
      </trkpt>
      <trkpt lat="43.71502" lon="5.32642">
        <ele>169</ele>
        <time>2024-04-07T04:19:14Z</time>
      </trkpt>
      <trkpt lat="43.71492" lon="5.32721">
        <ele>167</ele>
        <time>2024-04-07T04:19:24Z</time>
      </trkpt>
      <trkpt lat="43.7149" lon="5.32762">
        <ele>167</ele>
        <time>2024-04-07T04:19:29Z</time>
      </trkpt>
      <trkpt lat="43.7149" lon="5.32877">
        <ele>169</ele>
        <time>2024-04-07T04:19:44Z</time>
      </trkpt>
      <trkpt lat="43.71486" lon="5.32961">
        <ele>173</ele>
        <time>2024-04-07T04:19:55Z</time>
      </trkpt>
      <trkpt lat="43.71478" lon="5.3302">
        <ele>174</ele>
        <time>2024-04-07T04:20:03Z</time>
      </trkpt>
      <trkpt lat="43.71468" lon="5.33076">
        <ele>175</ele>
        <time>2024-04-07T04:20:10Z</time>
      </trkpt>
      <trkpt lat="43.71441" lon="5.33202">
        <ele>178</ele>
        <time>2024-04-07T04:20:27Z</time>
      </trkpt>
      <trkpt lat="43.71431" lon="5.33269">
        <ele>176</ele>
        <time>2024-04-07T04:20:36Z</time>
      </trkpt>
      <trkpt lat="43.71429" lon="5.33296">
        <ele>176</ele>
        <time>2024-04-07T04:20:39Z</time>
      </trkpt>
      <trkpt lat="43.71428" lon="5.33533">
        <ele>171</ele>
        <time>2024-04-07T04:21:10Z</time>
      </trkpt>
      <trkpt lat="43.71429" lon="5.33569">
        <ele>172</ele>
        <time>2024-04-07T04:21:14Z</time>
      </trkpt>
      <trkpt lat="43.71431" lon="5.3359">
        <ele>172</ele>
        <time>2024-04-07T04:21:17Z</time>
      </trkpt>
      <trkpt lat="43.71438" lon="5.33638">
        <ele>172</ele>
        <time>2024-04-07T04:21:23Z</time>
      </trkpt>
      <trkpt lat="43.71462" lon="5.33741">
        <ele>170</ele>
        <time>2024-04-07T04:21:37Z</time>
      </trkpt>
      <trkpt lat="43.71465" lon="5.33768">
        <ele>169</ele>
        <time>2024-04-07T04:21:41Z</time>
      </trkpt>
      <trkpt lat="43.71468" lon="5.33844">
        <ele>169</ele>
        <time>2024-04-07T04:21:51Z</time>
      </trkpt>
      <trkpt lat="43.7147" lon="5.33953">
        <ele>169</ele>
        <time>2024-04-07T04:22:05Z</time>
      </trkpt>
      <trkpt lat="43.71468" lon="5.3398">
        <ele>169</ele>
        <time>2024-04-07T04:22:08Z</time>
      </trkpt>
      <trkpt lat="43.71458" lon="5.34035">
        <ele>170</ele>
        <time>2024-04-07T04:22:15Z</time>
      </trkpt>
      <trkpt lat="43.71436" lon="5.34107">
        <ele>170</ele>
        <time>2024-04-07T04:22:25Z</time>
      </trkpt>
      <trkpt lat="43.71383" lon="5.34266">
        <ele>169</ele>
        <time>2024-04-07T04:22:48Z</time>
      </trkpt>
      <trkpt lat="43.7138" lon="5.34283">
        <ele>169</ele>
        <time>2024-04-07T04:22:50Z</time>
      </trkpt>
      <trkpt lat="43.71381" lon="5.3429">
        <ele>168</ele>
        <time>2024-04-07T04:22:51Z</time>
      </trkpt>
      <trkpt lat="43.7137" lon="5.34312">
        <ele>169</ele>
        <time>2024-04-07T04:22:55Z</time>
      </trkpt>
      <trkpt lat="43.71343" lon="5.34382">
        <ele>169</ele>
        <time>2024-04-07T04:23:05Z</time>
      </trkpt>
      <trkpt lat="43.71322" lon="5.34459">
        <ele>168</ele>
        <time>2024-04-07T04:23:15Z</time>
      </trkpt>
      <trkpt lat="43.71316" lon="5.34496">
        <ele>167</ele>
        <time>2024-04-07T04:23:20Z</time>
      </trkpt>
      <trkpt lat="43.71306" lon="5.34719">
        <ele>170</ele>
        <time>2024-04-07T04:23:49Z</time>
      </trkpt>
      <trkpt lat="43.71302" lon="5.34767">
        <ele>169</ele>
        <time>2024-04-07T04:23:55Z</time>
      </trkpt>
      <trkpt lat="43.71297" lon="5.34801">
        <ele>168</ele>
        <time>2024-04-07T04:24:00Z</time>
      </trkpt>
      <trkpt lat="43.71225" lon="5.35096">
        <ele>176</ele>
        <time>2024-04-07T04:24:40Z</time>
      </trkpt>
      <trkpt lat="43.71198" lon="5.35189">
        <ele>179</ele>
        <time>2024-04-07T04:24:53Z</time>
      </trkpt>
      <trkpt lat="43.71145" lon="5.35485">
        <ele>173</ele>
        <time>2024-04-07T04:25:32Z</time>
      </trkpt>
      <trkpt lat="43.71123" lon="5.3564">
        <ele>174</ele>
        <time>2024-04-07T04:25:52Z</time>
      </trkpt>
      <trkpt lat="43.71109" lon="5.3575">
        <ele>172</ele>
        <time>2024-04-07T04:26:06Z</time>
      </trkpt>
      <trkpt lat="43.71108" lon="5.35809">
        <ele>173</ele>
        <time>2024-04-07T04:26:14Z</time>
      </trkpt>
      <trkpt lat="43.71113" lon="5.35865">
        <ele>174</ele>
        <time>2024-04-07T04:26:21Z</time>
      </trkpt>
      <trkpt lat="43.71113" lon="5.35887">
        <ele>174</ele>
        <time>2024-04-07T04:26:24Z</time>
      </trkpt>
      <trkpt lat="43.71108" lon="5.35938">
        <ele>174</ele>
        <time>2024-04-07T04:26:31Z</time>
      </trkpt>
      <trkpt lat="43.71103" lon="5.35962">
        <ele>173</ele>
        <time>2024-04-07T04:26:34Z</time>
      </trkpt>
      <trkpt lat="43.71092" lon="5.35997">
        <ele>173</ele>
        <time>2024-04-07T04:26:39Z</time>
      </trkpt>
      <trkpt lat="43.71082" lon="5.36021">
        <ele>172</ele>
        <time>2024-04-07T04:26:42Z</time>
      </trkpt>
      <trkpt lat="43.7107" lon="5.36046">
        <ele>170</ele>
        <time>2024-04-07T04:26:46Z</time>
      </trkpt>
      <trkpt lat="43.71033" lon="5.36107">
        <ele>166</ele>
        <time>2024-04-07T04:26:57Z</time>
      </trkpt>
      <trkpt lat="43.71021" lon="5.36124">
        <ele>165</ele>
        <time>2024-04-07T04:27:00Z</time>
      </trkpt>
      <trkpt lat="43.7099" lon="5.36152">
        <ele>163</ele>
        <time>2024-04-07T04:27:06Z</time>
      </trkpt>
      <trkpt lat="43.70977" lon="5.3616">
        <ele>163</ele>
        <time>2024-04-07T04:27:09Z</time>
      </trkpt>
      <trkpt lat="43.70818" lon="5.36264">
        <ele>173</ele>
        <time>2024-04-07T04:27:40Z</time>
      </trkpt>
      <trkpt lat="43.70787" lon="5.36288">
        <ele>177</ele>
        <time>2024-04-07T04:27:46Z</time>
      </trkpt>
      <trkpt lat="43.70768" lon="5.3631">
        <ele>179</ele>
        <time>2024-04-07T04:27:51Z</time>
      </trkpt>
      <trkpt lat="43.70758" lon="5.36328">
        <ele>180</ele>
        <time>2024-04-07T04:27:54Z</time>
      </trkpt>
      <trkpt lat="43.70743" lon="5.36357">
        <ele>179</ele>
        <time>2024-04-07T04:27:58Z</time>
      </trkpt>
      <trkpt lat="43.70717" lon="5.36406">
        <ele>176</ele>
        <time>2024-04-07T04:28:06Z</time>
      </trkpt>
      <trkpt lat="43.70708" lon="5.36428">
        <ele>176</ele>
        <time>2024-04-07T04:28:09Z</time>
      </trkpt>
      <trkpt lat="43.70687" lon="5.36488">
        <ele>177</ele>
        <time>2024-04-07T04:28:18Z</time>
      </trkpt>
      <trkpt lat="43.70655" lon="5.36584">
        <ele>177</ele>
        <time>2024-04-07T04:28:32Z</time>
      </trkpt>
      <trkpt lat="43.70633" lon="5.36632">
        <ele>176</ele>
        <time>2024-04-07T04:28:39Z</time>
      </trkpt>
      <trkpt lat="43.70623" lon="5.36648">
        <ele>176</ele>
        <time>2024-04-07T04:28:42Z</time>
      </trkpt>
      <trkpt lat="43.70604" lon="5.3667">
        <ele>176</ele>
        <time>2024-04-07T04:28:46Z</time>
      </trkpt>
      <trkpt lat="43.70564" lon="5.3671">
        <ele>176</ele>
        <time>2024-04-07T04:28:55Z</time>
      </trkpt>
      <trkpt lat="43.70535" lon="5.36732">
        <ele>176</ele>
        <time>2024-04-07T04:29:01Z</time>
      </trkpt>
      <trkpt lat="43.70505" lon="5.36752">
        <ele>177</ele>
        <time>2024-04-07T04:29:07Z</time>
      </trkpt>
      <trkpt lat="43.70487" lon="5.36769">
        <ele>178</ele>
        <time>2024-04-07T04:29:10Z</time>
      </trkpt>
      <trkpt lat="43.70467" lon="5.36797">
        <ele>179</ele>
        <time>2024-04-07T04:29:15Z</time>
      </trkpt>
      <trkpt lat="43.70421" lon="5.36873">
        <ele>178</ele>
        <time>2024-04-07T04:29:28Z</time>
      </trkpt>
      <trkpt lat="43.70404" lon="5.36911">
        <ele>176</ele>
        <time>2024-04-07T04:29:34Z</time>
      </trkpt>
      <trkpt lat="43.70331" lon="5.37131">
        <ele>172</ele>
        <time>2024-04-07T04:30:05Z</time>
      </trkpt>
      <trkpt lat="43.70321" lon="5.37156">
        <ele>171</ele>
        <time>2024-04-07T04:30:09Z</time>
      </trkpt>
      <trkpt lat="43.70297" lon="5.37212">
        <ele>173</ele>
        <time>2024-04-07T04:30:17Z</time>
      </trkpt>
      <trkpt lat="43.70271" lon="5.37262">
        <ele>176</ele>
        <time>2024-04-07T04:30:25Z</time>
      </trkpt>
      <trkpt lat="43.70253" lon="5.37303">
        <ele>177</ele>
        <time>2024-04-07T04:30:31Z</time>
      </trkpt>
      <trkpt lat="43.7014" lon="5.37581">
        <ele>173</ele>
        <time>2024-04-07T04:31:12Z</time>
      </trkpt>
      <trkpt lat="43.70102" lon="5.37661">
        <ele>173</ele>
        <time>2024-04-07T04:31:25Z</time>
      </trkpt>
      <trkpt lat="43.70083" lon="5.37698">
        <ele>171</ele>
        <time>2024-04-07T04:31:30Z</time>
      </trkpt>
      <trkpt lat="43.70064" lon="5.37729">
        <ele>170</ele>
        <time>2024-04-07T04:31:36Z</time>
      </trkpt>
      <trkpt lat="43.70032" lon="5.37769">
        <ele>170</ele>
        <time>2024-04-07T04:31:43Z</time>
      </trkpt>
      <trkpt lat="43.69865" lon="5.37953">
        <ele>164</ele>
        <time>2024-04-07T04:32:21Z</time>
      </trkpt>
      <trkpt lat="43.69839" lon="5.37982">
        <ele>164</ele>
        <time>2024-04-07T04:32:27Z</time>
      </trkpt>
      <trkpt lat="43.69821" lon="5.38006">
        <ele>164</ele>
        <time>2024-04-07T04:32:32Z</time>
      </trkpt>
      <trkpt lat="43.698" lon="5.3804">
        <ele>164</ele>
        <time>2024-04-07T04:32:37Z</time>
      </trkpt>
      <trkpt lat="43.6978" lon="5.38076">
        <ele>164</ele>
        <time>2024-04-07T04:32:43Z</time>
      </trkpt>
      <trkpt lat="43.69698" lon="5.38232">
        <ele>163</ele>
        <time>2024-04-07T04:33:08Z</time>
      </trkpt>
      <trkpt lat="43.6964" lon="5.38354">
        <ele>162</ele>
        <time>2024-04-07T04:33:27Z</time>
      </trkpt>
      <trkpt lat="43.6958" lon="5.38491">
        <ele>163</ele>
        <time>2024-04-07T04:33:48Z</time>
      </trkpt>
      <trkpt lat="43.69556" lon="5.38531">
        <ele>163</ele>
        <time>2024-04-07T04:33:54Z</time>
      </trkpt>
      <trkpt lat="43.69512" lon="5.38593">
        <ele>164</ele>
        <time>2024-04-07T04:34:05Z</time>
      </trkpt>
      <trkpt lat="43.69463" lon="5.38662">
        <ele>164</ele>
        <time>2024-04-07T04:34:18Z</time>
      </trkpt>
      <trkpt lat="43.69398" lon="5.38754">
        <ele>167</ele>
        <time>2024-04-07T04:34:34Z</time>
      </trkpt>
      <trkpt lat="43.69366" lon="5.38791">
        <ele>166</ele>
        <time>2024-04-07T04:34:42Z</time>
      </trkpt>
      <trkpt lat="43.69194" lon="5.3894">
        <ele>170</ele>
        <time>2024-04-07T04:35:18Z</time>
      </trkpt>
      <trkpt lat="43.6917" lon="5.38968">
        <ele>170</ele>
        <time>2024-04-07T04:35:23Z</time>
      </trkpt>
      <trkpt lat="43.69159" lon="5.38987">
        <ele>170</ele>
        <time>2024-04-07T04:35:27Z</time>
      </trkpt>
      <trkpt lat="43.69148" lon="5.3901">
        <ele>170</ele>
        <time>2024-04-07T04:35:30Z</time>
      </trkpt>
      <trkpt lat="43.69104" lon="5.39137">
        <ele>167</ele>
        <time>2024-04-07T04:35:48Z</time>
      </trkpt>
      <trkpt lat="43.6908" lon="5.39185">
        <ele>167</ele>
        <time>2024-04-07T04:35:56Z</time>
      </trkpt>
      <trkpt lat="43.69054" lon="5.39225">
        <ele>167</ele>
        <time>2024-04-07T04:36:03Z</time>
      </trkpt>
      <trkpt lat="43.68973" lon="5.39333">
        <ele>170</ele>
        <time>2024-04-07T04:36:23Z</time>
      </trkpt>
      <trkpt lat="43.68928" lon="5.39388">
        <ele>172</ele>
        <time>2024-04-07T04:36:33Z</time>
      </trkpt>
      <trkpt lat="43.68898" lon="5.39409">
        <ele>173</ele>
        <time>2024-04-07T04:36:39Z</time>
      </trkpt>
      <trkpt lat="43.68731" lon="5.39477">
        <ele>180</ele>
        <time>2024-04-07T04:37:10Z</time>
      </trkpt>
      <trkpt lat="43.68711" lon="5.39483">
        <ele>182</ele>
        <time>2024-04-07T04:37:14Z</time>
      </trkpt>
      <trkpt lat="43.68682" lon="5.39504">
        <ele>183</ele>
        <time>2024-04-07T04:37:20Z</time>
      </trkpt>
      <trkpt lat="43.68655" lon="5.39537">
        <ele>184</ele>
        <time>2024-04-07T04:37:26Z</time>
      </trkpt>
      <trkpt lat="43.68644" lon="5.39557">
        <ele>183</ele>
        <time>2024-04-07T04:37:29Z</time>
      </trkpt>
      <trkpt lat="43.68638" lon="5.39574">
        <ele>183</ele>
        <time>2024-04-07T04:37:32Z</time>
      </trkpt>
      <trkpt lat="43.68634" lon="5.39591">
        <ele>182</ele>
        <time>2024-04-07T04:37:34Z</time>
      </trkpt>
      <trkpt lat="43.68589" lon="5.39726">
        <ele>183</ele>
        <time>2024-04-07T04:37:53Z</time>
      </trkpt>
      <trkpt lat="43.68571" lon="5.39766">
        <ele>182</ele>
        <time>2024-04-07T04:37:59Z</time>
      </trkpt>
      <trkpt lat="43.68546" lon="5.39808">
        <ele>180</ele>
        <time>2024-04-07T04:38:06Z</time>
      </trkpt>
      <trkpt lat="43.68333" lon="5.40148">
        <ele>175</ele>
        <time>2024-04-07T04:39:04Z</time>
      </trkpt>
      <trkpt lat="43.68163" lon="5.40427">
        <ele>179</ele>
        <time>2024-04-07T04:39:51Z</time>
      </trkpt>
      <trkpt lat="43.68042" lon="5.40606">
        <ele>184</ele>
        <time>2024-04-07T04:40:23Z</time>
      </trkpt>
      <trkpt lat="43.6795" lon="5.40748">
        <ele>186</ele>
        <time>2024-04-07T04:40:47Z</time>
      </trkpt>
      <trkpt lat="43.67865" lon="5.40887">
        <ele>189</ele>
        <time>2024-04-07T04:41:11Z</time>
      </trkpt>
      <trkpt lat="43.67847" lon="5.4091">
        <ele>190</ele>
        <time>2024-04-07T04:41:15Z</time>
      </trkpt>
      <trkpt lat="43.67803" lon="5.40951">
        <ele>191</ele>
        <time>2024-04-07T04:41:25Z</time>
      </trkpt>
      <trkpt lat="43.67786" lon="5.4097">
        <ele>190</ele>
        <time>2024-04-07T04:41:28Z</time>
      </trkpt>
      <trkpt lat="43.67758" lon="5.41004">
        <ele>189</ele>
        <time>2024-04-07T04:41:35Z</time>
      </trkpt>
      <trkpt lat="43.67729" lon="5.41051">
        <ele>187</ele>
        <time>2024-04-07T04:41:43Z</time>
      </trkpt>
      <trkpt lat="43.67718" lon="5.41078">
        <ele>185</ele>
        <time>2024-04-07T04:41:47Z</time>
      </trkpt>
      <trkpt lat="43.67702" lon="5.41122">
        <ele>184</ele>
        <time>2024-04-07T04:41:53Z</time>
      </trkpt>
      <trkpt lat="43.67639" lon="5.4122">
        <ele>184</ele>
        <time>2024-04-07T04:42:10Z</time>
      </trkpt>
      <trkpt lat="43.67602" lon="5.41257">
        <ele>184</ele>
        <time>2024-04-07T04:42:18Z</time>
      </trkpt>
      <trkpt lat="43.67366" lon="5.41483">
        <ele>188</ele>
        <time>2024-04-07T04:43:09Z</time>
      </trkpt>
      <trkpt lat="43.67152" lon="5.41717">
        <ele>192</ele>
        <time>2024-04-07T04:43:58Z</time>
      </trkpt>
      <trkpt lat="43.6713" lon="5.41735">
        <ele>193</ele>
        <time>2024-04-07T04:44:02Z</time>
      </trkpt>
      <trkpt lat="43.67026" lon="5.41796">
        <ele>196</ele>
        <time>2024-04-07T04:44:23Z</time>
      </trkpt>
      <trkpt lat="43.66954" lon="5.41841">
        <ele>197</ele>
        <time>2024-04-07T04:44:37Z</time>
      </trkpt>
      <trkpt lat="43.66939" lon="5.41856">
        <ele>197</ele>
        <time>2024-04-07T04:44:40Z</time>
      </trkpt>
      <trkpt lat="43.66919" lon="5.41878">
        <ele>197</ele>
        <time>2024-04-07T04:44:44Z</time>
      </trkpt>
      <trkpt lat="43.66897" lon="5.41904">
        <ele>198</ele>
        <time>2024-04-07T04:44:50Z</time>
      </trkpt>
      <trkpt lat="43.66885" lon="5.41921">
        <ele>199</ele>
        <time>2024-04-07T04:44:53Z</time>
      </trkpt>
      <trkpt lat="43.66788" lon="5.42156">
        <ele>197</ele>
        <time>2024-04-07T04:45:28Z</time>
      </trkpt>
      <trkpt lat="43.66777" lon="5.42195">
        <ele>197</ele>
        <time>2024-04-07T04:45:33Z</time>
      </trkpt>
      <trkpt lat="43.66752" lon="5.42322">
        <ele>197</ele>
        <time>2024-04-07T04:45:50Z</time>
      </trkpt>
      <trkpt lat="43.66744" lon="5.42352">
        <ele>197</ele>
        <time>2024-04-07T04:45:54Z</time>
      </trkpt>
      <trkpt lat="43.66738" lon="5.42372">
        <ele>197</ele>
        <time>2024-04-07T04:45:57Z</time>
      </trkpt>
      <trkpt lat="43.66672" lon="5.42528">
        <ele>198</ele>
        <time>2024-04-07T04:46:20Z</time>
      </trkpt>
      <trkpt lat="43.66594" lon="5.42707">
        <ele>199</ele>
        <time>2024-04-07T04:46:47Z</time>
      </trkpt>
      <trkpt lat="43.66558" lon="5.42782">
        <ele>199</ele>
        <time>2024-04-07T04:46:58Z</time>
      </trkpt>
      <trkpt lat="43.66523" lon="5.42848">
        <ele>200</ele>
        <time>2024-04-07T04:47:09Z</time>
      </trkpt>
      <trkpt lat="43.66519" lon="5.42848">
        <ele>200</ele>
        <time>2024-04-07T04:47:10Z</time>
      </trkpt>
      <trkpt lat="43.66516" lon="5.42852">
        <ele>201</ele>
        <time>2024-04-07T04:47:10Z</time>
      </trkpt>
      <trkpt lat="43.66518" lon="5.42859">
        <ele>201</ele>
        <time>2024-04-07T04:47:11Z</time>
      </trkpt>
      <trkpt lat="43.66492" lon="5.42911">
        <ele>202</ele>
        <time>2024-04-07T04:47:20Z</time>
      </trkpt>
      <trkpt lat="43.66478" lon="5.4295">
        <ele>202</ele>
        <time>2024-04-07T04:47:25Z</time>
      </trkpt>
      <trkpt lat="43.66454" lon="5.43057">
        <ele>202</ele>
        <time>2024-04-07T04:47:40Z</time>
      </trkpt>
      <trkpt lat="43.66438" lon="5.43116">
        <ele>202</ele>
        <time>2024-04-07T04:47:48Z</time>
      </trkpt>
      <trkpt lat="43.66379" lon="5.43287">
        <ele>204</ele>
        <time>2024-04-07T04:48:12Z</time>
      </trkpt>
      <trkpt lat="43.66322" lon="5.43253">
        <ele>207</ele>
        <time>2024-04-07T04:48:23Z</time>
      </trkpt>
      <trkpt lat="43.66295" lon="5.4342">
        <ele>207</ele>
        <time>2024-04-07T04:48:45Z</time>
      </trkpt>
      <trkpt lat="43.66292" lon="5.43422">
        <ele>207</ele>
        <time>2024-04-07T04:48:46Z</time>
      </trkpt>
      <trkpt lat="43.6627" lon="5.4343">
        <ele>208</ele>
        <time>2024-04-07T04:48:50Z</time>
      </trkpt>
      <trkpt lat="43.66229" lon="5.43442">
        <ele>210</ele>
        <time>2024-04-07T04:48:57Z</time>
      </trkpt>
      <trkpt lat="43.66185" lon="5.43966">
        <ele>200</ele>
        <time>2024-04-07T04:50:05Z</time>
      </trkpt>
      <trkpt lat="43.66183" lon="5.43976">
        <ele>200</ele>
        <time>2024-04-07T04:50:07Z</time>
      </trkpt>
      <trkpt lat="43.66174" lon="5.43992">
        <ele>199</ele>
        <time>2024-04-07T04:50:09Z</time>
      </trkpt>
      <trkpt lat="43.66169" lon="5.43999">
        <ele>199</ele>
        <time>2024-04-07T04:50:10Z</time>
      </trkpt>
      <trkpt lat="43.66167" lon="5.44009">
        <ele>199</ele>
        <time>2024-04-07T04:50:12Z</time>
      </trkpt>
      <trkpt lat="43.66169" lon="5.44042">
        <ele>198</ele>
        <time>2024-04-07T04:50:16Z</time>
      </trkpt>
      <trkpt lat="43.66171" lon="5.44049">
        <ele>198</ele>
        <time>2024-04-07T04:50:17Z</time>
      </trkpt>
      <trkpt lat="43.66178" lon="5.44055">
        <ele>198</ele>
        <time>2024-04-07T04:50:18Z</time>
      </trkpt>
      <trkpt lat="43.66184" lon="5.44069">
        <ele>198</ele>
        <time>2024-04-07T04:50:21Z</time>
      </trkpt>
      <trkpt lat="43.66188" lon="5.44083">
        <ele>197</ele>
        <time>2024-04-07T04:50:22Z</time>
      </trkpt>
      <trkpt lat="43.66195" lon="5.4421">
        <ele>196</ele>
        <time>2024-04-07T04:50:39Z</time>
      </trkpt>
      <trkpt lat="43.66195" lon="5.44299">
        <ele>195</ele>
        <time>2024-04-07T04:50:50Z</time>
      </trkpt>
      <trkpt lat="43.66187" lon="5.44351">
        <ele>195</ele>
        <time>2024-04-07T04:50:57Z</time>
      </trkpt>
      <trkpt lat="43.66159" lon="5.44465">
        <ele>195</ele>
        <time>2024-04-07T04:51:13Z</time>
      </trkpt>
      <trkpt lat="43.66143" lon="5.44511">
        <ele>194</ele>
        <time>2024-04-07T04:51:19Z</time>
      </trkpt>
      <trkpt lat="43.66112" lon="5.44577">
        <ele>194</ele>
        <time>2024-04-07T04:51:29Z</time>
      </trkpt>
      <trkpt lat="43.66093" lon="5.44632">
        <ele>195</ele>
        <time>2024-04-07T04:51:37Z</time>
      </trkpt>
      <trkpt lat="43.66085" lon="5.44674">
        <ele>195</ele>
        <time>2024-04-07T04:51:43Z</time>
      </trkpt>
      <trkpt lat="43.66083" lon="5.44707">
        <ele>195</ele>
        <time>2024-04-07T04:51:47Z</time>
      </trkpt>
      <trkpt lat="43.66087" lon="5.44832">
        <ele>194</ele>
        <time>2024-04-07T04:52:03Z</time>
      </trkpt>
      <trkpt lat="43.66101" lon="5.45016">
        <ele>192</ele>
        <time>2024-04-07T04:52:27Z</time>
      </trkpt>
      <trkpt lat="43.66107" lon="5.45045">
        <ele>192</ele>
        <time>2024-04-07T04:52:31Z</time>
      </trkpt>
      <trkpt lat="43.66106" lon="5.45058">
        <ele>192</ele>
        <time>2024-04-07T04:52:33Z</time>
      </trkpt>
      <trkpt lat="43.66109" lon="5.45069">
        <ele>192</ele>
        <time>2024-04-07T04:52:34Z</time>
      </trkpt>
      <trkpt lat="43.66109" lon="5.45092">
        <ele>193</ele>
        <time>2024-04-07T04:52:37Z</time>
      </trkpt>
      <trkpt lat="43.66119" lon="5.45209">
        <ele>193</ele>
        <time>2024-04-07T04:52:52Z</time>
      </trkpt>
      <trkpt lat="43.66125" lon="5.45291">
        <ele>190</ele>
        <time>2024-04-07T04:53:03Z</time>
      </trkpt>
      <trkpt lat="43.66129" lon="5.45411">
        <ele>186</ele>
        <time>2024-04-07T04:53:18Z</time>
      </trkpt>
      <trkpt lat="43.66128" lon="5.45442">
        <ele>185</ele>
        <time>2024-04-07T04:53:22Z</time>
      </trkpt>
      <trkpt lat="43.66126" lon="5.45453">
        <ele>185</ele>
        <time>2024-04-07T04:53:24Z</time>
      </trkpt>
      <trkpt lat="43.66123" lon="5.45471">
        <ele>185</ele>
        <time>2024-04-07T04:53:26Z</time>
      </trkpt>
      <trkpt lat="43.66107" lon="5.45522">
        <ele>184</ele>
        <time>2024-04-07T04:53:33Z</time>
      </trkpt>
      <trkpt lat="43.66076" lon="5.45602">
        <ele>186</ele>
        <time>2024-04-07T04:53:45Z</time>
      </trkpt>
      <trkpt lat="43.6605" lon="5.45674">
        <ele>187</ele>
        <time>2024-04-07T04:53:55Z</time>
      </trkpt>
      <trkpt lat="43.65296" lon="5.47723">
        <ele>192</ele>
        <time>2024-04-07T04:58:51Z</time>
      </trkpt>
      <trkpt lat="43.65299" lon="5.47725">
        <ele>193</ele>
        <time>2024-04-07T04:58:52Z</time>
      </trkpt>
      <trkpt lat="43.65296" lon="5.47723">
        <ele>192</ele>
        <time>2024-04-07T04:58:52Z</time>
      </trkpt>
      <trkpt lat="43.64842" lon="5.48954">
        <ele>197</ele>
        <time>2024-04-07T05:01:50Z</time>
      </trkpt>
      <trkpt lat="43.64827" lon="5.48989">
        <ele>198</ele>
        <time>2024-04-07T05:01:55Z</time>
      </trkpt>
      <trkpt lat="43.64813" lon="5.49024">
        <ele>198</ele>
        <time>2024-04-07T05:02:01Z</time>
      </trkpt>
      <trkpt lat="43.64772" lon="5.49122">
        <ele>199</ele>
        <time>2024-04-07T05:02:15Z</time>
      </trkpt>
      <trkpt lat="43.64758" lon="5.49142">
        <ele>198</ele>
        <time>2024-04-07T05:02:19Z</time>
      </trkpt>
      <trkpt lat="43.64751" lon="5.49143">
        <ele>198</ele>
        <time>2024-04-07T05:02:20Z</time>
      </trkpt>
      <trkpt lat="43.64745" lon="5.49148">
        <ele>198</ele>
        <time>2024-04-07T05:02:21Z</time>
      </trkpt>
      <trkpt lat="43.6474" lon="5.49156">
        <ele>198</ele>
        <time>2024-04-07T05:02:23Z</time>
      </trkpt>
      <trkpt lat="43.64738" lon="5.49166">
        <ele>198</ele>
        <time>2024-04-07T05:02:24Z</time>
      </trkpt>
      <trkpt lat="43.6474" lon="5.49181">
        <ele>198</ele>
        <time>2024-04-07T05:02:26Z</time>
      </trkpt>
      <trkpt lat="43.64737" lon="5.49196">
        <ele>198</ele>
        <time>2024-04-07T05:02:28Z</time>
      </trkpt>
      <trkpt lat="43.64732" lon="5.4921">
        <ele>198</ele>
        <time>2024-04-07T05:02:30Z</time>
      </trkpt>
      <trkpt lat="43.64534" lon="5.49489">
        <ele>201</ele>
        <time>2024-04-07T05:03:20Z</time>
      </trkpt>
      <trkpt lat="43.64526" lon="5.49503">
        <ele>200</ele>
        <time>2024-04-07T05:03:23Z</time>
      </trkpt>
      <trkpt lat="43.64513" lon="5.49535">
        <ele>200</ele>
        <time>2024-04-07T05:03:27Z</time>
      </trkpt>
      <trkpt lat="43.64488" lon="5.49615">
        <ele>200</ele>
        <time>2024-04-07T05:03:39Z</time>
      </trkpt>
      <trkpt lat="43.64479" lon="5.49659">
        <ele>199</ele>
        <time>2024-04-07T05:03:44Z</time>
      </trkpt>
      <trkpt lat="43.64474" lon="5.49688">
        <ele>198</ele>
        <time>2024-04-07T05:03:48Z</time>
      </trkpt>
      <trkpt lat="43.64428" lon="5.50067">
        <ele>197</ele>
        <time>2024-04-07T05:04:38Z</time>
      </trkpt>
      <trkpt lat="43.64392" lon="5.50544">
        <ele>201</ele>
        <time>2024-04-07T05:05:39Z</time>
      </trkpt>
      <trkpt lat="43.64384" lon="5.50596">
        <ele>200</ele>
        <time>2024-04-07T05:05:46Z</time>
      </trkpt>
      <trkpt lat="43.64341" lon="5.50862">
        <ele>200</ele>
        <time>2024-04-07T05:06:21Z</time>
      </trkpt>
      <trkpt lat="43.64309" lon="5.51204">
        <ele>204</ele>
        <time>2024-04-07T05:07:06Z</time>
      </trkpt>
      <trkpt lat="43.64309" lon="5.51236">
        <ele>205</ele>
        <time>2024-04-07T05:07:10Z</time>
      </trkpt>
      <trkpt lat="43.6432" lon="5.5133">
        <ele>203</ele>
        <time>2024-04-07T05:07:22Z</time>
      </trkpt>
      <trkpt lat="43.64362" lon="5.51632">
        <ele>203</ele>
        <time>2024-04-07T05:08:02Z</time>
      </trkpt>
      <trkpt lat="43.64417" lon="5.5193">
        <ele>202</ele>
        <time>2024-04-07T05:08:41Z</time>
      </trkpt>
      <trkpt lat="43.64423" lon="5.51973">
        <ele>203</ele>
        <time>2024-04-07T05:08:47Z</time>
      </trkpt>
      <trkpt lat="43.64426" lon="5.52015">
        <ele>204</ele>
        <time>2024-04-07T05:08:52Z</time>
      </trkpt>
      <trkpt lat="43.64426" lon="5.52039">
        <ele>204</ele>
        <time>2024-04-07T05:08:56Z</time>
      </trkpt>
      <trkpt lat="43.64422" lon="5.52094">
        <ele>205</ele>
        <time>2024-04-07T05:09:03Z</time>
      </trkpt>
      <trkpt lat="43.64411" lon="5.52149">
        <ele>207</ele>
        <time>2024-04-07T05:09:10Z</time>
      </trkpt>
      <trkpt lat="43.64406" lon="5.52168">
        <ele>207</ele>
        <time>2024-04-07T05:09:13Z</time>
      </trkpt>
      <trkpt lat="43.64393" lon="5.52206">
        <ele>209</ele>
        <time>2024-04-07T05:09:18Z</time>
      </trkpt>
      <trkpt lat="43.64367" lon="5.5226">
        <ele>212</ele>
        <time>2024-04-07T05:09:26Z</time>
      </trkpt>
      <trkpt lat="43.64349" lon="5.5229">
        <ele>214</ele>
        <time>2024-04-07T05:09:31Z</time>
      </trkpt>
      <trkpt lat="43.64326" lon="5.52319">
        <ele>217</ele>
        <time>2024-04-07T05:09:37Z</time>
      </trkpt>
      <trkpt lat="43.64298" lon="5.52346">
        <ele>219</ele>
        <time>2024-04-07T05:09:43Z</time>
      </trkpt>
      <trkpt lat="43.64271" lon="5.52368">
        <ele>221</ele>
        <time>2024-04-07T05:09:49Z</time>
      </trkpt>
      <trkpt lat="43.64256" lon="5.52381">
        <ele>222</ele>
        <time>2024-04-07T05:09:52Z</time>
      </trkpt>
      <trkpt lat="43.64207" lon="5.52423">
        <ele>225</ele>
        <time>2024-04-07T05:10:02Z</time>
      </trkpt>
      <trkpt lat="43.64077" lon="5.52536">
        <ele>229</ele>
        <time>2024-04-07T05:10:29Z</time>
      </trkpt>
      <trkpt lat="43.64068" lon="5.52541">
        <ele>229</ele>
        <time>2024-04-07T05:10:31Z</time>
      </trkpt>
      <trkpt lat="43.64059" lon="5.52542">
        <ele>229</ele>
        <time>2024-04-07T05:10:33Z</time>
      </trkpt>
      <trkpt lat="43.64051" lon="5.52538">
        <ele>229</ele>
        <time>2024-04-07T05:10:34Z</time>
      </trkpt>
      <trkpt lat="43.6404" lon="5.52541">
        <ele>229</ele>
        <time>2024-04-07T05:10:36Z</time>
      </trkpt>
      <trkpt lat="43.64034" lon="5.52549">
        <ele>229</ele>
        <time>2024-04-07T05:10:38Z</time>
      </trkpt>
      <trkpt lat="43.64032" lon="5.5256">
        <ele>229</ele>
        <time>2024-04-07T05:10:39Z</time>
      </trkpt>
      <trkpt lat="43.64033" lon="5.52572">
        <ele>228</ele>
        <time>2024-04-07T05:10:41Z</time>
      </trkpt>
      <trkpt lat="43.6404" lon="5.52582">
        <ele>228</ele>
        <time>2024-04-07T05:10:42Z</time>
      </trkpt>
      <trkpt lat="43.64048" lon="5.52586">
        <ele>228</ele>
        <time>2024-04-07T05:10:44Z</time>
      </trkpt>
      <trkpt lat="43.64055" lon="5.52596">
        <ele>228</ele>
        <time>2024-04-07T05:10:46Z</time>
      </trkpt>
      <trkpt lat="43.6406" lon="5.52605">
        <ele>228</ele>
        <time>2024-04-07T05:10:47Z</time>
      </trkpt>
      <trkpt lat="43.64065" lon="5.52634">
        <ele>229</ele>
        <time>2024-04-07T05:10:51Z</time>
      </trkpt>
      <trkpt lat="43.64096" lon="5.52801">
        <ele>229</ele>
        <time>2024-04-07T05:11:13Z</time>
      </trkpt>
      <trkpt lat="43.64109" lon="5.5287">
        <ele>228</ele>
        <time>2024-04-07T05:11:22Z</time>
      </trkpt>
      <trkpt lat="43.64207" lon="5.5341">
        <ele>210</ele>
        <time>2024-04-07T05:12:34Z</time>
      </trkpt>
      <trkpt lat="43.64209" lon="5.53445">
        <ele>210</ele>
        <time>2024-04-07T05:12:39Z</time>
      </trkpt>
      <trkpt lat="43.64206" lon="5.53451">
        <ele>210</ele>
        <time>2024-04-07T05:12:40Z</time>
      </trkpt>
      <trkpt lat="43.64209" lon="5.53462">
        <ele>210</ele>
        <time>2024-04-07T05:12:41Z</time>
      </trkpt>
      <trkpt lat="43.64213" lon="5.53466">
        <ele>210</ele>
        <time>2024-04-07T05:12:42Z</time>
      </trkpt>
      <trkpt lat="43.64223" lon="5.53494">
        <ele>209</ele>
        <time>2024-04-07T05:12:46Z</time>
      </trkpt>
      <trkpt lat="43.6431" lon="5.53981">
        <ele>213</ele>
        <time>2024-04-07T05:13:51Z</time>
      </trkpt>
      <trkpt lat="43.64313" lon="5.54005">
        <ele>213</ele>
        <time>2024-04-07T05:13:54Z</time>
      </trkpt>
      <trkpt lat="43.64313" lon="5.54026">
        <ele>213</ele>
        <time>2024-04-07T05:13:56Z</time>
      </trkpt>
      <trkpt lat="43.64309" lon="5.54244">
        <ele>209</ele>
        <time>2024-04-07T05:14:25Z</time>
      </trkpt>
      <trkpt lat="43.64309" lon="5.54365">
        <ele>209</ele>
        <time>2024-04-07T05:14:40Z</time>
      </trkpt>
      <trkpt lat="43.64311" lon="5.54384">
        <ele>209</ele>
        <time>2024-04-07T05:14:43Z</time>
      </trkpt>
      <trkpt lat="43.64472" lon="5.55918">
        <ele>209</ele>
        <time>2024-04-07T05:18:02Z</time>
      </trkpt>
      <trkpt lat="43.6459" lon="5.57033">
        <ele>211</ele>
        <time>2024-04-07T05:20:27Z</time>
      </trkpt>
      <trkpt lat="43.64607" lon="5.57183">
        <ele>211</ele>
        <time>2024-04-07T05:20:47Z</time>
      </trkpt>
      <trkpt lat="43.64609" lon="5.57229">
        <ele>209</ele>
        <time>2024-04-07T05:20:53Z</time>
      </trkpt>
      <trkpt lat="43.64608" lon="5.57257">
        <ele>209</ele>
        <time>2024-04-07T05:20:56Z</time>
      </trkpt>
      <trkpt lat="43.64607" lon="5.57286">
        <ele>209</ele>
        <time>2024-04-07T05:21:00Z</time>
      </trkpt>
      <trkpt lat="43.64609" lon="5.57314">
        <ele>210</ele>
        <time>2024-04-07T05:21:04Z</time>
      </trkpt>
      <trkpt lat="43.64607" lon="5.57323">
        <ele>210</ele>
        <time>2024-04-07T05:21:05Z</time>
      </trkpt>
      <trkpt lat="43.64607" lon="5.57332">
        <ele>210</ele>
        <time>2024-04-07T05:21:06Z</time>
      </trkpt>
      <trkpt lat="43.64609" lon="5.57341">
        <ele>210</ele>
        <time>2024-04-07T05:21:07Z</time>
      </trkpt>
      <trkpt lat="43.64611" lon="5.57357">
        <ele>210</ele>
        <time>2024-04-07T05:21:09Z</time>
      </trkpt>
      <trkpt lat="43.64609" lon="5.57379">
        <ele>210</ele>
        <time>2024-04-07T05:21:12Z</time>
      </trkpt>
      <trkpt lat="43.64604" lon="5.57409">
        <ele>211</ele>
        <time>2024-04-07T05:21:16Z</time>
      </trkpt>
      <trkpt lat="43.646" lon="5.57439">
        <ele>211</ele>
        <time>2024-04-07T05:21:20Z</time>
      </trkpt>
      <trkpt lat="43.64584" lon="5.57528">
        <ele>211</ele>
        <time>2024-04-07T05:21:32Z</time>
      </trkpt>
      <trkpt lat="43.64572" lon="5.57648">
        <ele>212</ele>
        <time>2024-04-07T05:21:48Z</time>
      </trkpt>
      <trkpt lat="43.64573" lon="5.57685">
        <ele>212</ele>
        <time>2024-04-07T05:21:52Z</time>
      </trkpt>
      <trkpt lat="43.64579" lon="5.57723">
        <ele>212</ele>
        <time>2024-04-07T05:21:57Z</time>
      </trkpt>
      <trkpt lat="43.64591" lon="5.57788">
        <ele>211</ele>
        <time>2024-04-07T05:22:06Z</time>
      </trkpt>
      <trkpt lat="43.64606" lon="5.57855">
        <ele>210</ele>
        <time>2024-04-07T05:22:15Z</time>
      </trkpt>
      <trkpt lat="43.6464" lon="5.57947">
        <ele>212</ele>
        <time>2024-04-07T05:22:28Z</time>
      </trkpt>
      <trkpt lat="43.64643" lon="5.57959">
        <ele>212</ele>
        <time>2024-04-07T05:22:30Z</time>
      </trkpt>
      <trkpt lat="43.64641" lon="5.58333">
        <ele>218</ele>
        <time>2024-04-07T05:23:18Z</time>
      </trkpt>
      <trkpt lat="43.64644" lon="5.5858">
        <ele>216</ele>
        <time>2024-04-07T05:23:50Z</time>
      </trkpt>
      <trkpt lat="43.64628" lon="5.58802">
        <ele>215</ele>
        <time>2024-04-07T05:24:19Z</time>
      </trkpt>
      <trkpt lat="43.64623" lon="5.58904">
        <ele>214</ele>
        <time>2024-04-07T05:24:32Z</time>
      </trkpt>
      <trkpt lat="43.64618" lon="5.58923">
        <ele>214</ele>
        <time>2024-04-07T05:24:34Z</time>
      </trkpt>
      <trkpt lat="43.64613" lon="5.58956">
        <ele>215</ele>
        <time>2024-04-07T05:24:39Z</time>
      </trkpt>
      <trkpt lat="43.64611" lon="5.59024">
        <ele>215</ele>
        <time>2024-04-07T05:24:47Z</time>
      </trkpt>
      <trkpt lat="43.64609" lon="5.59027">
        <ele>215</ele>
        <time>2024-04-07T05:24:48Z</time>
      </trkpt>
      <trkpt lat="43.64607" lon="5.59037">
        <ele>215</ele>
        <time>2024-04-07T05:24:49Z</time>
      </trkpt>
      <trkpt lat="43.64611" lon="5.59045">
        <ele>215</ele>
        <time>2024-04-07T05:24:51Z</time>
      </trkpt>
      <trkpt lat="43.64608" lon="5.59059">
        <ele>215</ele>
        <time>2024-04-07T05:24:52Z</time>
      </trkpt>
      <trkpt lat="43.64595" lon="5.59175">
        <ele>215</ele>
        <time>2024-04-07T05:25:08Z</time>
      </trkpt>
      <trkpt lat="43.64533" lon="5.59837">
        <ele>222</ele>
        <time>2024-04-07T05:26:33Z</time>
      </trkpt>
      <trkpt lat="43.6452" lon="5.59908">
        <ele>223</ele>
        <time>2024-04-07T05:26:43Z</time>
      </trkpt>
      <trkpt lat="43.64512" lon="5.60047">
        <ele>227</ele>
        <time>2024-04-07T05:27:01Z</time>
      </trkpt>
      <trkpt lat="43.64498" lon="5.60202">
        <ele>231</ele>
        <time>2024-04-07T05:27:21Z</time>
      </trkpt>
      <trkpt lat="43.64471" lon="5.60479">
        <ele>243</ele>
        <time>2024-04-07T05:27:57Z</time>
      </trkpt>
      <trkpt lat="43.64467" lon="5.60501">
        <ele>244</ele>
        <time>2024-04-07T05:28:00Z</time>
      </trkpt>
      <trkpt lat="43.64464" lon="5.60511">
        <ele>244</ele>
        <time>2024-04-07T05:28:01Z</time>
      </trkpt>
      <trkpt lat="43.6445" lon="5.6054">
        <ele>244</ele>
        <time>2024-04-07T05:28:06Z</time>
      </trkpt>
      <trkpt lat="43.64436" lon="5.60559">
        <ele>245</ele>
        <time>2024-04-07T05:28:09Z</time>
      </trkpt>
      <trkpt lat="43.64393" lon="5.60608">
        <ele>244</ele>
        <time>2024-04-07T05:28:19Z</time>
      </trkpt>
      <trkpt lat="43.64376" lon="5.60638">
        <ele>243</ele>
        <time>2024-04-07T05:28:24Z</time>
      </trkpt>
      <trkpt lat="43.64366" lon="5.60664">
        <ele>243</ele>
        <time>2024-04-07T05:28:28Z</time>
      </trkpt>
      <trkpt lat="43.6435" lon="5.60721">
        <ele>244</ele>
        <time>2024-04-07T05:28:36Z</time>
      </trkpt>
      <trkpt lat="43.64336" lon="5.60781">
        <ele>244</ele>
        <time>2024-04-07T05:28:44Z</time>
      </trkpt>
      <trkpt lat="43.64324" lon="5.60817">
        <ele>245</ele>
        <time>2024-04-07T05:28:49Z</time>
      </trkpt>
      <trkpt lat="43.64309" lon="5.60843">
        <ele>246</ele>
        <time>2024-04-07T05:28:53Z</time>
      </trkpt>
      <trkpt lat="43.64255" lon="5.60931">
        <ele>245</ele>
        <time>2024-04-07T05:29:08Z</time>
      </trkpt>
      <trkpt lat="43.64195" lon="5.61048">
        <ele>245</ele>
        <time>2024-04-07T05:29:27Z</time>
      </trkpt>
      <trkpt lat="43.6418" lon="5.61089">
        <ele>245</ele>
        <time>2024-04-07T05:29:32Z</time>
      </trkpt>
      <trkpt lat="43.64161" lon="5.61158">
        <ele>246</ele>
        <time>2024-04-07T05:29:42Z</time>
      </trkpt>
      <trkpt lat="43.64112" lon="5.61313">
        <ele>246</ele>
        <time>2024-04-07T05:30:04Z</time>
      </trkpt>
      <trkpt lat="43.64094" lon="5.61353">
        <ele>247</ele>
        <time>2024-04-07T05:30:10Z</time>
      </trkpt>
      <trkpt lat="43.64099" lon="5.61357">
        <ele>247</ele>
        <time>2024-04-07T05:30:11Z</time>
      </trkpt>
      <trkpt lat="43.64099" lon="5.61367">
        <ele>247</ele>
        <time>2024-04-07T05:30:12Z</time>
      </trkpt>
      <trkpt lat="43.64095" lon="5.61395">
        <ele>247</ele>
        <time>2024-04-07T05:30:16Z</time>
      </trkpt>
      <trkpt lat="43.64082" lon="5.61474">
        <ele>246</ele>
        <time>2024-04-07T05:30:26Z</time>
      </trkpt>
      <trkpt lat="43.64078" lon="5.61523">
        <ele>245</ele>
        <time>2024-04-07T05:30:33Z</time>
      </trkpt>
      <trkpt lat="43.6408" lon="5.61555">
        <ele>246</ele>
        <time>2024-04-07T05:30:37Z</time>
      </trkpt>
      <trkpt lat="43.64083" lon="5.6159">
        <ele>246</ele>
        <time>2024-04-07T05:30:41Z</time>
      </trkpt>
      <trkpt lat="43.64079" lon="5.61665">
        <ele>243</ele>
        <time>2024-04-07T05:30:51Z</time>
      </trkpt>
      <trkpt lat="43.64084" lon="5.61684">
        <ele>242</ele>
        <time>2024-04-07T05:30:54Z</time>
      </trkpt>
      <trkpt lat="43.64091" lon="5.617">
        <ele>242</ele>
        <time>2024-04-07T05:30:56Z</time>
      </trkpt>
      <trkpt lat="43.64091" lon="5.61707">
        <ele>242</ele>
        <time>2024-04-07T05:30:57Z</time>
      </trkpt>
      <trkpt lat="43.64088" lon="5.61717">
        <ele>241</ele>
        <time>2024-04-07T05:30:58Z</time>
      </trkpt>
      <trkpt lat="43.64083" lon="5.61748">
        <ele>240</ele>
        <time>2024-04-07T05:31:02Z</time>
      </trkpt>
      <trkpt lat="43.64082" lon="5.61777">
        <ele>240</ele>
        <time>2024-04-07T05:31:06Z</time>
      </trkpt>
      <trkpt lat="43.64083" lon="5.6181">
        <ele>239</ele>
        <time>2024-04-07T05:31:10Z</time>
      </trkpt>
      <trkpt lat="43.64083" lon="5.61844">
        <ele>240</ele>
        <time>2024-04-07T05:31:15Z</time>
      </trkpt>
      <trkpt lat="43.64082" lon="5.61854">
        <ele>241</ele>
        <time>2024-04-07T05:31:16Z</time>
      </trkpt>
      <trkpt lat="43.64075" lon="5.6187">
        <ele>242</ele>
        <time>2024-04-07T05:31:18Z</time>
      </trkpt>
      <trkpt lat="43.64062" lon="5.61887">
        <ele>243</ele>
        <time>2024-04-07T05:31:22Z</time>
      </trkpt>
      <trkpt lat="43.64057" lon="5.61897">
        <ele>243</ele>
        <time>2024-04-07T05:31:23Z</time>
      </trkpt>
      <trkpt lat="43.64051" lon="5.61917">
        <ele>245</ele>
        <time>2024-04-07T05:31:26Z</time>
      </trkpt>
      <trkpt lat="43.64055" lon="5.6193">
        <ele>245</ele>
        <time>2024-04-07T05:31:28Z</time>
      </trkpt>
      <trkpt lat="43.64048" lon="5.62001">
        <ele>248</ele>
        <time>2024-04-07T05:31:37Z</time>
      </trkpt>
      <trkpt lat="43.6405" lon="5.62021">
        <ele>247</ele>
        <time>2024-04-07T05:31:40Z</time>
      </trkpt>
      <trkpt lat="43.64072" lon="5.62125">
        <ele>245</ele>
        <time>2024-04-07T05:31:54Z</time>
      </trkpt>
      <trkpt lat="43.64074" lon="5.62151">
        <ele>245</ele>
        <time>2024-04-07T05:31:57Z</time>
      </trkpt>
      <trkpt lat="43.64072" lon="5.62166">
        <ele>245</ele>
        <time>2024-04-07T05:31:59Z</time>
      </trkpt>
      <trkpt lat="43.6406" lon="5.6221">
        <ele>246</ele>
        <time>2024-04-07T05:32:05Z</time>
      </trkpt>
      <trkpt lat="43.64047" lon="5.62244">
        <ele>246</ele>
        <time>2024-04-07T05:32:10Z</time>
      </trkpt>
      <trkpt lat="43.64032" lon="5.62272">
        <ele>246</ele>
        <time>2024-04-07T05:32:14Z</time>
      </trkpt>
      <trkpt lat="43.64011" lon="5.62301">
        <ele>246</ele>
        <time>2024-04-07T05:32:20Z</time>
      </trkpt>
      <trkpt lat="43.63985" lon="5.6233">
        <ele>246</ele>
        <time>2024-04-07T05:32:26Z</time>
      </trkpt>
      <trkpt lat="43.63919" lon="5.62392">
        <ele>247</ele>
        <time>2024-04-07T05:32:40Z</time>
      </trkpt>
      <trkpt lat="43.6389" lon="5.62427">
        <ele>248</ele>
        <time>2024-04-07T05:32:47Z</time>
      </trkpt>
      <trkpt lat="43.63849" lon="5.62486">
        <ele>250</ele>
        <time>2024-04-07T05:32:57Z</time>
      </trkpt>
      <trkpt lat="43.63783" lon="5.62573">
        <ele>251</ele>
        <time>2024-04-07T05:33:13Z</time>
      </trkpt>
      <trkpt lat="43.63775" lon="5.62592">
        <ele>250</ele>
        <time>2024-04-07T05:33:16Z</time>
      </trkpt>
      <trkpt lat="43.63773" lon="5.62603">
        <ele>250</ele>
        <time>2024-04-07T05:33:18Z</time>
      </trkpt>
      <trkpt lat="43.63777" lon="5.62635">
        <ele>253</ele>
        <time>2024-04-07T05:33:22Z</time>
      </trkpt>
      <trkpt lat="43.63787" lon="5.62676">
        <ele>257</ele>
        <time>2024-04-07T05:33:27Z</time>
      </trkpt>
      <trkpt lat="43.63788" lon="5.62694">
        <ele>257</ele>
        <time>2024-04-07T05:33:30Z</time>
      </trkpt>
      <trkpt lat="43.63785" lon="5.62735">
        <ele>257</ele>
        <time>2024-04-07T05:33:35Z</time>
      </trkpt>
      <trkpt lat="43.63779" lon="5.6277">
        <ele>257</ele>
        <time>2024-04-07T05:33:40Z</time>
      </trkpt>
      <trkpt lat="43.63758" lon="5.62831">
        <ele>256</ele>
        <time>2024-04-07T05:33:48Z</time>
      </trkpt>
      <trkpt lat="43.63752" lon="5.62841">
        <ele>256</ele>
        <time>2024-04-07T05:33:50Z</time>
      </trkpt>
      <trkpt lat="43.63641" lon="5.62985">
        <ele>259</ele>
        <time>2024-04-07T05:34:17Z</time>
      </trkpt>
      <trkpt lat="43.63629" lon="5.63003">
        <ele>259</ele>
        <time>2024-04-07T05:34:20Z</time>
      </trkpt>
      <trkpt lat="43.63627" lon="5.63016">
        <ele>259</ele>
        <time>2024-04-07T05:34:22Z</time>
      </trkpt>
      <trkpt lat="43.63631" lon="5.63029">
        <ele>259</ele>
        <time>2024-04-07T05:34:24Z</time>
      </trkpt>
      <trkpt lat="43.63639" lon="5.63038">
        <ele>260</ele>
        <time>2024-04-07T05:34:26Z</time>
      </trkpt>
      <trkpt lat="43.63667" lon="5.63048">
        <ele>261</ele>
        <time>2024-04-07T05:34:31Z</time>
      </trkpt>
      <trkpt lat="43.63671" lon="5.63053">
        <ele>261</ele>
        <time>2024-04-07T05:34:32Z</time>
      </trkpt>
      <trkpt lat="43.63697" lon="5.63094">
        <ele>261</ele>
        <time>2024-04-07T05:34:39Z</time>
      </trkpt>
      <trkpt lat="43.6372" lon="5.63135">
        <ele>261</ele>
        <time>2024-04-07T05:34:46Z</time>
      </trkpt>
      <trkpt lat="43.6373" lon="5.63155">
        <ele>260</ele>
        <time>2024-04-07T05:34:49Z</time>
      </trkpt>
      <trkpt lat="43.63735" lon="5.63174">
        <ele>259</ele>
        <time>2024-04-07T05:34:51Z</time>
      </trkpt>
      <trkpt lat="43.6374" lon="5.63227">
        <ele>257</ele>
        <time>2024-04-07T05:34:58Z</time>
      </trkpt>
      <trkpt lat="43.63752" lon="5.63253">
        <ele>255</ele>
        <time>2024-04-07T05:35:02Z</time>
      </trkpt>
      <trkpt lat="43.63759" lon="5.63276">
        <ele>256</ele>
        <time>2024-04-07T05:35:05Z</time>
      </trkpt>
      <trkpt lat="43.63762" lon="5.63294">
        <ele>256</ele>
        <time>2024-04-07T05:35:08Z</time>
      </trkpt>
      <trkpt lat="43.63762" lon="5.63302">
        <ele>256</ele>
        <time>2024-04-07T05:35:09Z</time>
      </trkpt>
      <trkpt lat="43.63757" lon="5.63317">
        <ele>256</ele>
        <time>2024-04-07T05:35:11Z</time>
      </trkpt>
      <trkpt lat="43.63753" lon="5.63323">
        <ele>255</ele>
        <time>2024-04-07T05:35:12Z</time>
      </trkpt>
      <trkpt lat="43.63731" lon="5.63345">
        <ele>257</ele>
        <time>2024-04-07T05:35:17Z</time>
      </trkpt>
      <trkpt lat="43.63722" lon="5.63351">
        <ele>258</ele>
        <time>2024-04-07T05:35:19Z</time>
      </trkpt>
      <trkpt lat="43.63723" lon="5.63364">
        <ele>259</ele>
        <time>2024-04-07T05:35:20Z</time>
      </trkpt>
      <trkpt lat="43.63721" lon="5.63372">
        <ele>260</ele>
        <time>2024-04-07T05:35:21Z</time>
      </trkpt>
      <trkpt lat="43.63681" lon="5.63531">
        <ele>264</ele>
        <time>2024-04-07T05:35:43Z</time>
      </trkpt>
      <trkpt lat="43.63666" lon="5.63521">
        <ele>262</ele>
        <time>2024-04-07T05:35:46Z</time>
      </trkpt>
      <trkpt lat="43.63657" lon="5.63512">
        <ele>261</ele>
        <time>2024-04-07T05:35:48Z</time>
      </trkpt>
      <trkpt lat="43.63655" lon="5.63509">
        <ele>261</ele>
        <time>2024-04-07T05:35:48Z</time>
      </trkpt>
      <trkpt lat="43.63649" lon="5.63509">
        <ele>261</ele>
        <time>2024-04-07T05:35:50Z</time>
      </trkpt>
      <trkpt lat="43.63642" lon="5.63514">
        <ele>261</ele>
        <time>2024-04-07T05:35:51Z</time>
      </trkpt>
      <trkpt lat="43.63635" lon="5.63524">
        <ele>262</ele>
        <time>2024-04-07T05:35:53Z</time>
      </trkpt>
      <trkpt lat="43.63627" lon="5.63544">
        <ele>263</ele>
        <time>2024-04-07T05:35:56Z</time>
      </trkpt>
      <trkpt lat="43.636" lon="5.63631">
        <ele>264</ele>
        <time>2024-04-07T05:36:08Z</time>
      </trkpt>
      <trkpt lat="43.63593" lon="5.63663">
        <ele>263</ele>
        <time>2024-04-07T05:36:12Z</time>
      </trkpt>
      <trkpt lat="43.63576" lon="5.63942">
        <ele>266</ele>
        <time>2024-04-07T05:36:48Z</time>
      </trkpt>
      <trkpt lat="43.63568" lon="5.6401">
        <ele>267</ele>
        <time>2024-04-07T05:36:57Z</time>
      </trkpt>
      <trkpt lat="43.63553" lon="5.64007">
        <ele>268</ele>
        <time>2024-04-07T05:37:00Z</time>
      </trkpt>
      <trkpt lat="43.63533" lon="5.64075">
        <ele>268</ele>
        <time>2024-04-07T05:37:09Z</time>
      </trkpt>
      <trkpt lat="43.63518" lon="5.64102">
        <ele>268</ele>
        <time>2024-04-07T05:37:14Z</time>
      </trkpt>
      <trkpt lat="43.63502" lon="5.64122">
        <ele>268</ele>
        <time>2024-04-07T05:37:17Z</time>
      </trkpt>
      <trkpt lat="43.63489" lon="5.64137">
        <ele>268</ele>
        <time>2024-04-07T05:37:20Z</time>
      </trkpt>
      <trkpt lat="43.63473" lon="5.64149">
        <ele>267</ele>
        <time>2024-04-07T05:37:24Z</time>
      </trkpt>
      <trkpt lat="43.634" lon="5.64196">
        <ele>267</ele>
        <time>2024-04-07T05:37:38Z</time>
      </trkpt>
      <trkpt lat="43.6336" lon="5.64223">
        <ele>267</ele>
        <time>2024-04-07T05:37:46Z</time>
      </trkpt>
      <trkpt lat="43.63341" lon="5.64241">
        <ele>266</ele>
        <time>2024-04-07T05:37:50Z</time>
      </trkpt>
      <trkpt lat="43.63323" lon="5.64267">
        <ele>266</ele>
        <time>2024-04-07T05:37:55Z</time>
      </trkpt>
      <trkpt lat="43.63308" lon="5.64292">
        <ele>267</ele>
        <time>2024-04-07T05:37:59Z</time>
      </trkpt>
      <trkpt lat="43.63285" lon="5.6434">
        <ele>268</ele>
        <time>2024-04-07T05:38:06Z</time>
      </trkpt>
      <trkpt lat="43.63088" lon="5.64932">
        <ele>269</ele>
        <time>2024-04-07T05:39:30Z</time>
      </trkpt>
      <trkpt lat="43.62972" lon="5.65229">
        <ele>277</ele>
        <time>2024-04-07T05:40:14Z</time>
      </trkpt>
      <trkpt lat="43.62877" lon="5.65425">
        <ele>274</ele>
        <time>2024-04-07T05:40:44Z</time>
      </trkpt>
      <trkpt lat="43.62851" lon="5.65501">
        <ele>273</ele>
        <time>2024-04-07T05:40:55Z</time>
      </trkpt>
      <trkpt lat="43.62775" lon="5.65782">
        <ele>277</ele>
        <time>2024-04-07T05:41:33Z</time>
      </trkpt>
      <trkpt lat="43.62694" lon="5.65985">
        <ele>277</ele>
        <time>2024-04-07T05:42:03Z</time>
      </trkpt>
      <trkpt lat="43.62667" lon="5.66067">
        <ele>277</ele>
        <time>2024-04-07T05:42:15Z</time>
      </trkpt>
      <trkpt lat="43.62608" lon="5.66201">
        <ele>282</ele>
        <time>2024-04-07T05:42:35Z</time>
      </trkpt>
      <trkpt lat="43.62557" lon="5.66294">
        <ele>283</ele>
        <time>2024-04-07T05:42:50Z</time>
      </trkpt>
      <trkpt lat="43.62372" lon="5.66566">
        <ele>287</ele>
        <time>2024-04-07T05:43:38Z</time>
      </trkpt>
      <trkpt lat="43.62317" lon="5.66637">
        <ele>286</ele>
        <time>2024-04-07T05:43:52Z</time>
      </trkpt>
      <trkpt lat="43.62152" lon="5.66825">
        <ele>283</ele>
        <time>2024-04-07T05:44:30Z</time>
      </trkpt>
      <trkpt lat="43.62192" lon="5.66914">
        <ele>283</ele>
        <time>2024-04-07T05:44:43Z</time>
      </trkpt>
      <trkpt lat="43.62205" lon="5.66946">
        <ele>284</ele>
        <time>2024-04-07T05:44:48Z</time>
      </trkpt>
      <trkpt lat="43.62198" lon="5.66962">
        <ele>284</ele>
        <time>2024-04-07T05:44:50Z</time>
      </trkpt>
      <trkpt lat="43.62195" lon="5.66974">
        <ele>284</ele>
        <time>2024-04-07T05:44:52Z</time>
      </trkpt>
      <trkpt lat="43.62192" lon="5.67001">
        <ele>285</ele>
        <time>2024-04-07T05:44:55Z</time>
      </trkpt>
      <trkpt lat="43.62193" lon="5.67101">
        <ele>286</ele>
        <time>2024-04-07T05:45:08Z</time>
      </trkpt>
      <trkpt lat="43.62191" lon="5.67146">
        <ele>285</ele>
        <time>2024-04-07T05:45:14Z</time>
      </trkpt>
      <trkpt lat="43.62192" lon="5.6717">
        <ele>285</ele>
        <time>2024-04-07T05:45:17Z</time>
      </trkpt>
      <trkpt lat="43.62205" lon="5.67229">
        <ele>285</ele>
        <time>2024-04-07T05:45:25Z</time>
      </trkpt>
      <trkpt lat="43.62208" lon="5.67261">
        <ele>285</ele>
        <time>2024-04-07T05:45:29Z</time>
      </trkpt>
      <trkpt lat="43.6221" lon="5.67448">
        <ele>289</ele>
        <time>2024-04-07T05:45:53Z</time>
      </trkpt>
      <trkpt lat="43.62208" lon="5.67479">
        <ele>289</ele>
        <time>2024-04-07T05:45:57Z</time>
      </trkpt>
      <trkpt lat="43.62205" lon="5.67499">
        <ele>290</ele>
        <time>2024-04-07T05:46:00Z</time>
      </trkpt>
      <trkpt lat="43.622" lon="5.67522">
        <ele>290</ele>
        <time>2024-04-07T05:46:03Z</time>
      </trkpt>
      <trkpt lat="43.62192" lon="5.67542">
        <ele>290</ele>
        <time>2024-04-07T05:46:06Z</time>
      </trkpt>
      <trkpt lat="43.62188" lon="5.67551">
        <ele>290</ele>
        <time>2024-04-07T05:46:07Z</time>
      </trkpt>
      <trkpt lat="43.62175" lon="5.67566">
        <ele>289</ele>
        <time>2024-04-07T05:46:11Z</time>
      </trkpt>
      <trkpt lat="43.61974" lon="5.67739">
        <ele>285</ele>
        <time>2024-04-07T05:46:53Z</time>
      </trkpt>
      <trkpt lat="43.61963" lon="5.67748">
        <ele>285</ele>
        <time>2024-04-07T05:46:55Z</time>
      </trkpt>
      <trkpt lat="43.61946" lon="5.6777">
        <ele>285</ele>
        <time>2024-04-07T05:46:59Z</time>
      </trkpt>
      <trkpt lat="43.61936" lon="5.67787">
        <ele>285</ele>
        <time>2024-04-07T05:47:02Z</time>
      </trkpt>
      <trkpt lat="43.61923" lon="5.67827">
        <ele>285</ele>
        <time>2024-04-07T05:47:08Z</time>
      </trkpt>
      <trkpt lat="43.61891" lon="5.67961">
        <ele>291</ele>
        <time>2024-04-07T05:47:26Z</time>
      </trkpt>
      <trkpt lat="43.61874" lon="5.68021">
        <ele>292</ele>
        <time>2024-04-07T05:47:34Z</time>
      </trkpt>
      <trkpt lat="43.61842" lon="5.68113">
        <ele>296</ele>
        <time>2024-04-07T05:47:47Z</time>
      </trkpt>
      <trkpt lat="43.61832" lon="5.68131">
        <ele>296</ele>
        <time>2024-04-07T05:47:50Z</time>
      </trkpt>
      <trkpt lat="43.61816" lon="5.68151">
        <ele>297</ele>
        <time>2024-04-07T05:47:54Z</time>
      </trkpt>
      <trkpt lat="43.61682" lon="5.68244">
        <ele>300</ele>
        <time>2024-04-07T05:48:21Z</time>
      </trkpt>
      <trkpt lat="43.61495" lon="5.68394">
        <ele>302</ele>
        <time>2024-04-07T05:48:59Z</time>
      </trkpt>
      <trkpt lat="43.61475" lon="5.68414">
        <ele>303</ele>
        <time>2024-04-07T05:49:03Z</time>
      </trkpt>
      <trkpt lat="43.61427" lon="5.68474">
        <ele>305</ele>
        <time>2024-04-07T05:49:15Z</time>
      </trkpt>
      <trkpt lat="43.61416" lon="5.68497">
        <ele>305</ele>
        <time>2024-04-07T05:49:19Z</time>
      </trkpt>
      <trkpt lat="43.61413" lon="5.68507">
        <ele>306</ele>
        <time>2024-04-07T05:49:20Z</time>
      </trkpt>
      <trkpt lat="43.61412" lon="5.68538">
        <ele>308</ele>
        <time>2024-04-07T05:49:24Z</time>
      </trkpt>
      <trkpt lat="43.61414" lon="5.6856">
        <ele>308</ele>
        <time>2024-04-07T05:49:27Z</time>
      </trkpt>
      <trkpt lat="43.61427" lon="5.68604">
        <ele>310</ele>
        <time>2024-04-07T05:49:33Z</time>
      </trkpt>
      <trkpt lat="43.61432" lon="5.68635">
        <ele>311</ele>
        <time>2024-04-07T05:49:37Z</time>
      </trkpt>
      <trkpt lat="43.61431" lon="5.68655">
        <ele>311</ele>
        <time>2024-04-07T05:49:40Z</time>
      </trkpt>
      <trkpt lat="43.61427" lon="5.68684">
        <ele>313</ele>
        <time>2024-04-07T05:49:43Z</time>
      </trkpt>
      <trkpt lat="43.61423" lon="5.687">
        <ele>314</ele>
        <time>2024-04-07T05:49:46Z</time>
      </trkpt>
      <trkpt lat="43.61415" lon="5.68721">
        <ele>315</ele>
        <time>2024-04-07T05:49:49Z</time>
      </trkpt>
      <trkpt lat="43.61405" lon="5.68739">
        <ele>318</ele>
        <time>2024-04-07T05:49:52Z</time>
      </trkpt>
      <trkpt lat="43.61364" lon="5.68797">
        <ele>317</ele>
        <time>2024-04-07T05:50:02Z</time>
      </trkpt>
      <trkpt lat="43.61359" lon="5.6881">
        <ele>317</ele>
        <time>2024-04-07T05:50:04Z</time>
      </trkpt>
      <trkpt lat="43.61356" lon="5.68823">
        <ele>316</ele>
        <time>2024-04-07T05:50:06Z</time>
      </trkpt>
      <trkpt lat="43.61357" lon="5.68845">
        <ele>316</ele>
        <time>2024-04-07T05:50:08Z</time>
      </trkpt>
      <trkpt lat="43.61363" lon="5.6887">
        <ele>318</ele>
        <time>2024-04-07T05:50:12Z</time>
      </trkpt>
      <trkpt lat="43.61389" lon="5.68918">
        <ele>320</ele>
        <time>2024-04-07T05:50:20Z</time>
      </trkpt>
      <trkpt lat="43.61398" lon="5.68932">
        <ele>320</ele>
        <time>2024-04-07T05:50:22Z</time>
      </trkpt>
      <trkpt lat="43.61408" lon="5.68956">
        <ele>319</ele>
        <time>2024-04-07T05:50:26Z</time>
      </trkpt>
      <trkpt lat="43.6141" lon="5.6897">
        <ele>318</ele>
        <time>2024-04-07T05:50:27Z</time>
      </trkpt>
      <trkpt lat="43.61417" lon="5.69036">
        <ele>314</ele>
        <time>2024-04-07T05:50:36Z</time>
      </trkpt>
      <trkpt lat="43.61422" lon="5.69065">
        <ele>314</ele>
        <time>2024-04-07T05:50:40Z</time>
      </trkpt>
      <trkpt lat="43.61436" lon="5.69121">
        <ele>314</ele>
        <time>2024-04-07T05:50:47Z</time>
      </trkpt>
      <trkpt lat="43.61473" lon="5.69194">
        <ele>316</ele>
        <time>2024-04-07T05:50:59Z</time>
      </trkpt>
      <trkpt lat="43.61485" lon="5.6922">
        <ele>316</ele>
        <time>2024-04-07T05:51:03Z</time>
      </trkpt>
      <trkpt lat="43.61488" lon="5.69238">
        <ele>315</ele>
        <time>2024-04-07T05:51:05Z</time>
      </trkpt>
      <trkpt lat="43.61491" lon="5.69348">
        <ele>313</ele>
        <time>2024-04-07T05:51:19Z</time>
      </trkpt>
      <trkpt lat="43.61523" lon="5.69507">
        <ele>313</ele>
        <time>2024-04-07T05:51:41Z</time>
      </trkpt>
      <trkpt lat="43.61531" lon="5.69571">
        <ele>312</ele>
        <time>2024-04-07T05:51:49Z</time>
      </trkpt>
      <trkpt lat="43.61536" lon="5.69573">
        <ele>312</ele>
        <time>2024-04-07T05:51:50Z</time>
      </trkpt>
      <trkpt lat="43.6154" lon="5.69578">
        <ele>313</ele>
        <time>2024-04-07T05:51:51Z</time>
      </trkpt>
      <trkpt lat="43.61549" lon="5.6959">
        <ele>313</ele>
        <time>2024-04-07T05:51:53Z</time>
      </trkpt>
      <trkpt lat="43.61556" lon="5.69603">
        <ele>313</ele>
        <time>2024-04-07T05:51:55Z</time>
      </trkpt>
      <trkpt lat="43.61571" lon="5.69637">
        <ele>312</ele>
        <time>2024-04-07T05:52:00Z</time>
      </trkpt>
      <trkpt lat="43.61578" lon="5.69665">
        <ele>312</ele>
        <time>2024-04-07T05:52:04Z</time>
      </trkpt>
      <trkpt lat="43.61581" lon="5.69697">
        <ele>311</ele>
        <time>2024-04-07T05:52:08Z</time>
      </trkpt>
      <trkpt lat="43.61578" lon="5.6978">
        <ele>310</ele>
        <time>2024-04-07T05:52:19Z</time>
      </trkpt>
      <trkpt lat="43.61576" lon="5.69865">
        <ele>311</ele>
        <time>2024-04-07T05:52:30Z</time>
      </trkpt>
      <trkpt lat="43.6158" lon="5.69892">
        <ele>312</ele>
        <time>2024-04-07T05:52:34Z</time>
      </trkpt>
      <trkpt lat="43.61588" lon="5.69918">
        <ele>312</ele>
        <time>2024-04-07T05:52:37Z</time>
      </trkpt>
      <trkpt lat="43.61601" lon="5.69956">
        <ele>311</ele>
        <time>2024-04-07T05:52:43Z</time>
      </trkpt>
      <trkpt lat="43.61641" lon="5.70037">
        <ele>308</ele>
        <time>2024-04-07T05:52:55Z</time>
      </trkpt>
      <trkpt lat="43.61652" lon="5.70061">
        <ele>308</ele>
        <time>2024-04-07T05:52:59Z</time>
      </trkpt>
      <trkpt lat="43.6166" lon="5.70088">
        <ele>307</ele>
        <time>2024-04-07T05:53:03Z</time>
      </trkpt>
      <trkpt lat="43.61666" lon="5.70117">
        <ele>307</ele>
        <time>2024-04-07T05:53:07Z</time>
      </trkpt>
      <trkpt lat="43.61685" lon="5.703">
        <ele>310</ele>
        <time>2024-04-07T05:53:30Z</time>
      </trkpt>
      <trkpt lat="43.61688" lon="5.7032">
        <ele>310</ele>
        <time>2024-04-07T05:53:33Z</time>
      </trkpt>
      <trkpt lat="43.617" lon="5.70361">
        <ele>311</ele>
        <time>2024-04-07T05:53:39Z</time>
      </trkpt>
      <trkpt lat="43.61731" lon="5.70581">
        <ele>315</ele>
        <time>2024-04-07T05:54:08Z</time>
      </trkpt>
      <trkpt lat="43.61733" lon="5.70658">
        <ele>317</ele>
        <time>2024-04-07T05:54:18Z</time>
      </trkpt>
      <trkpt lat="43.61735" lon="5.707">
        <ele>318</ele>
        <time>2024-04-07T05:54:23Z</time>
      </trkpt>
      <trkpt lat="43.61743" lon="5.70769">
        <ele>321</ele>
        <time>2024-04-07T05:54:32Z</time>
      </trkpt>
      <trkpt lat="43.61755" lon="5.70834">
        <ele>325</ele>
        <time>2024-04-07T05:54:41Z</time>
      </trkpt>
      <trkpt lat="43.61755" lon="5.70862">
        <ele>325</ele>
        <time>2024-04-07T05:54:44Z</time>
      </trkpt>
      <trkpt lat="43.61754" lon="5.70875">
        <ele>325</ele>
        <time>2024-04-07T05:54:46Z</time>
      </trkpt>
      <trkpt lat="43.61741" lon="5.70934">
        <ele>324</ele>
        <time>2024-04-07T05:54:54Z</time>
      </trkpt>
      <trkpt lat="43.61732" lon="5.70991">
        <ele>326</ele>
        <time>2024-04-07T05:55:01Z</time>
      </trkpt>
      <trkpt lat="43.6172" lon="5.71091">
        <ele>326</ele>
        <time>2024-04-07T05:55:14Z</time>
      </trkpt>
      <trkpt lat="43.61702" lon="5.71162">
        <ele>323</ele>
        <time>2024-04-07T05:55:24Z</time>
      </trkpt>
      <trkpt lat="43.61639" lon="5.71701">
        <ele>327</ele>
        <time>2024-04-07T05:56:34Z</time>
      </trkpt>
      <trkpt lat="43.61638" lon="5.71811">
        <ele>324</ele>
        <time>2024-04-07T05:56:49Z</time>
      </trkpt>
      <trkpt lat="43.61642" lon="5.71985">
        <ele>327</ele>
        <time>2024-04-07T05:57:11Z</time>
      </trkpt>
      <trkpt lat="43.6164" lon="5.72126">
        <ele>336</ele>
        <time>2024-04-07T05:57:29Z</time>
      </trkpt>
      <trkpt lat="43.61632" lon="5.72208">
        <ele>337</ele>
        <time>2024-04-07T05:57:40Z</time>
      </trkpt>
      <trkpt lat="43.6162" lon="5.72299">
        <ele>335</ele>
        <time>2024-04-07T05:57:52Z</time>
      </trkpt>
      <trkpt lat="43.61584" lon="5.725">
        <ele>328</ele>
        <time>2024-04-07T05:58:18Z</time>
      </trkpt>
      <trkpt lat="43.61578" lon="5.72568">
        <ele>328</ele>
        <time>2024-04-07T05:58:27Z</time>
      </trkpt>
      <trkpt lat="43.61576" lon="5.72637">
        <ele>329</ele>
        <time>2024-04-07T05:58:36Z</time>
      </trkpt>
      <trkpt lat="43.61582" lon="5.7273">
        <ele>331</ele>
        <time>2024-04-07T05:58:48Z</time>
      </trkpt>
      <trkpt lat="43.61597" lon="5.7285">
        <ele>333</ele>
        <time>2024-04-07T05:59:04Z</time>
      </trkpt>
      <trkpt lat="43.61638" lon="5.73031">
        <ele>336</ele>
        <time>2024-04-07T05:59:28Z</time>
      </trkpt>
      <trkpt lat="43.6165" lon="5.73109">
        <ele>340</ele>
        <time>2024-04-07T05:59:39Z</time>
      </trkpt>
      <trkpt lat="43.6165" lon="5.7322">
        <ele>340</ele>
        <time>2024-04-07T05:59:53Z</time>
      </trkpt>
      <trkpt lat="43.61626" lon="5.73949">
        <ele>342</ele>
        <time>2024-04-07T06:01:27Z</time>
      </trkpt>
      <trkpt lat="43.61602" lon="5.74263">
        <ele>344</ele>
        <time>2024-04-07T06:02:08Z</time>
      </trkpt>
      <trkpt lat="43.61608" lon="5.74309">
        <ele>346</ele>
        <time>2024-04-07T06:02:14Z</time>
      </trkpt>
      <trkpt lat="43.61606" lon="5.74456">
        <ele>349</ele>
        <time>2024-04-07T06:02:33Z</time>
      </trkpt>
      <trkpt lat="43.61601" lon="5.74482">
        <ele>349</ele>
        <time>2024-04-07T06:02:36Z</time>
      </trkpt>
      <trkpt lat="43.61593" lon="5.74511">
        <ele>349</ele>
        <time>2024-04-07T06:02:40Z</time>
      </trkpt>
      <trkpt lat="43.61584" lon="5.74537">
        <ele>348</ele>
        <time>2024-04-07T06:02:44Z</time>
      </trkpt>
      <trkpt lat="43.61576" lon="5.7456">
        <ele>348</ele>
        <time>2024-04-07T06:02:47Z</time>
      </trkpt>
      <trkpt lat="43.61548" lon="5.74681">
        <ele>349</ele>
        <time>2024-04-07T06:03:03Z</time>
      </trkpt>
      <trkpt lat="43.61523" lon="5.74772">
        <ele>349</ele>
        <time>2024-04-07T06:03:16Z</time>
      </trkpt>
      <trkpt lat="43.61517" lon="5.74788">
        <ele>348</ele>
        <time>2024-04-07T06:03:18Z</time>
      </trkpt>
      <trkpt lat="43.61509" lon="5.74794">
        <ele>348</ele>
        <time>2024-04-07T06:03:20Z</time>
      </trkpt>
      <trkpt lat="43.61468" lon="5.74908">
        <ele>350</ele>
        <time>2024-04-07T06:03:36Z</time>
      </trkpt>
      <trkpt lat="43.61437" lon="5.74976">
        <ele>350</ele>
        <time>2024-04-07T06:03:47Z</time>
      </trkpt>
      <trkpt lat="43.61342" lon="5.75145">
        <ele>352</ele>
        <time>2024-04-07T06:04:14Z</time>
      </trkpt>
      <trkpt lat="43.61327" lon="5.75144">
        <ele>352</ele>
        <time>2024-04-07T06:04:17Z</time>
      </trkpt>
      <trkpt lat="43.6127" lon="5.75091">
        <ele>354</ele>
        <time>2024-04-07T06:04:29Z</time>
      </trkpt>
      <trkpt lat="43.6106" lon="5.7532">
        <ele>356</ele>
        <time>2024-04-07T06:05:17Z</time>
      </trkpt>
      <trkpt lat="43.61047" lon="5.75336">
        <ele>356</ele>
        <time>2024-04-07T06:05:20Z</time>
      </trkpt>
      <trkpt lat="43.61033" lon="5.75346">
        <ele>357</ele>
        <time>2024-04-07T06:05:23Z</time>
      </trkpt>
      <trkpt lat="43.61022" lon="5.7535">
        <ele>358</ele>
        <time>2024-04-07T06:05:25Z</time>
      </trkpt>
      <trkpt lat="43.61015" lon="5.75347">
        <ele>358</ele>
        <time>2024-04-07T06:05:26Z</time>
      </trkpt>
      <trkpt lat="43.61009" lon="5.75347">
        <ele>359</ele>
        <time>2024-04-07T06:05:27Z</time>
      </trkpt>
      <trkpt lat="43.60999" lon="5.75355">
        <ele>359</ele>
        <time>2024-04-07T06:05:29Z</time>
      </trkpt>
      <trkpt lat="43.60995" lon="5.75365">
        <ele>360</ele>
        <time>2024-04-07T06:05:30Z</time>
      </trkpt>
      <trkpt lat="43.60995" lon="5.7538">
        <ele>360</ele>
        <time>2024-04-07T06:05:32Z</time>
      </trkpt>
      <trkpt lat="43.60998" lon="5.75389">
        <ele>360</ele>
        <time>2024-04-07T06:05:34Z</time>
      </trkpt>
      <trkpt lat="43.61003" lon="5.75395">
        <ele>360</ele>
        <time>2024-04-07T06:05:35Z</time>
      </trkpt>
      <trkpt lat="43.61014" lon="5.754">
        <ele>359</ele>
        <time>2024-04-07T06:05:37Z</time>
      </trkpt>
      <trkpt lat="43.61026" lon="5.75409">
        <ele>358</ele>
        <time>2024-04-07T06:05:39Z</time>
      </trkpt>
      <trkpt lat="43.61036" lon="5.75423">
        <ele>358</ele>
        <time>2024-04-07T06:05:42Z</time>
      </trkpt>
      <trkpt lat="43.61057" lon="5.75488">
        <ele>357</ele>
        <time>2024-04-07T06:05:51Z</time>
      </trkpt>
      <trkpt lat="43.6107" lon="5.75543">
        <ele>357</ele>
        <time>2024-04-07T06:05:59Z</time>
      </trkpt>
      <trkpt lat="43.61078" lon="5.75582">
        <ele>357</ele>
        <time>2024-04-07T06:06:04Z</time>
      </trkpt>
      <trkpt lat="43.61082" lon="5.75621">
        <ele>358</ele>
        <time>2024-04-07T06:06:09Z</time>
      </trkpt>
      <trkpt lat="43.61085" lon="5.75667">
        <ele>358</ele>
        <time>2024-04-07T06:06:15Z</time>
      </trkpt>
      <trkpt lat="43.61085" lon="5.75723">
        <ele>360</ele>
        <time>2024-04-07T06:06:22Z</time>
      </trkpt>
      <trkpt lat="43.61067" lon="5.76025">
        <ele>363</ele>
        <time>2024-04-07T06:07:01Z</time>
      </trkpt>
      <trkpt lat="43.61063" lon="5.76049">
        <ele>362</ele>
        <time>2024-04-07T06:07:04Z</time>
      </trkpt>
      <trkpt lat="43.61059" lon="5.76061">
        <ele>362</ele>
        <time>2024-04-07T06:07:06Z</time>
      </trkpt>
      <trkpt lat="43.61056" lon="5.76065">
        <ele>362</ele>
        <time>2024-04-07T06:07:07Z</time>
      </trkpt>
      <trkpt lat="43.61053" lon="5.76074">
        <ele>362</ele>
        <time>2024-04-07T06:07:08Z</time>
      </trkpt>
      <trkpt lat="43.6104" lon="5.76101">
        <ele>361</ele>
        <time>2024-04-07T06:07:12Z</time>
      </trkpt>
      <trkpt lat="43.61014" lon="5.76143">
        <ele>359</ele>
        <time>2024-04-07T06:07:19Z</time>
      </trkpt>
      <trkpt lat="43.60979" lon="5.76191">
        <ele>358</ele>
        <time>2024-04-07T06:07:28Z</time>
      </trkpt>
      <trkpt lat="43.60941" lon="5.76235">
        <ele>357</ele>
        <time>2024-04-07T06:07:37Z</time>
      </trkpt>
      <trkpt lat="43.6093" lon="5.76246">
        <ele>356</ele>
        <time>2024-04-07T06:07:39Z</time>
      </trkpt>
      <trkpt lat="43.60776" lon="5.764">
        <ele>360</ele>
        <time>2024-04-07T06:08:13Z</time>
      </trkpt>
      <trkpt lat="43.60768" lon="5.76411">
        <ele>360</ele>
        <time>2024-04-07T06:08:15Z</time>
      </trkpt>
      <trkpt lat="43.60753" lon="5.76422">
        <ele>360</ele>
        <time>2024-04-07T06:08:18Z</time>
      </trkpt>
      <trkpt lat="43.60714" lon="5.76464">
        <ele>360</ele>
        <time>2024-04-07T06:08:27Z</time>
      </trkpt>
      <trkpt lat="43.60704" lon="5.76472">
        <ele>360</ele>
        <time>2024-04-07T06:08:29Z</time>
      </trkpt>
      <trkpt lat="43.60694" lon="5.76484">
        <ele>360</ele>
        <time>2024-04-07T06:08:31Z</time>
      </trkpt>
      <trkpt lat="43.60569" lon="5.7661">
        <ele>368</ele>
        <time>2024-04-07T06:08:59Z</time>
      </trkpt>
      <trkpt lat="43.60541" lon="5.76646">
        <ele>369</ele>
        <time>2024-04-07T06:09:06Z</time>
      </trkpt>
      <trkpt lat="43.60525" lon="5.76675">
        <ele>370</ele>
        <time>2024-04-07T06:09:10Z</time>
      </trkpt>
      <trkpt lat="43.60512" lon="5.76706">
        <ele>371</ele>
        <time>2024-04-07T06:09:15Z</time>
      </trkpt>
      <trkpt lat="43.60501" lon="5.76737">
        <ele>371</ele>
        <time>2024-04-07T06:09:19Z</time>
      </trkpt>
      <trkpt lat="43.60492" lon="5.76767">
        <ele>371</ele>
        <time>2024-04-07T06:09:24Z</time>
      </trkpt>
      <trkpt lat="43.60485" lon="5.76803">
        <ele>372</ele>
        <time>2024-04-07T06:09:28Z</time>
      </trkpt>
      <trkpt lat="43.60482" lon="5.76838">
        <ele>374</ele>
        <time>2024-04-07T06:09:33Z</time>
      </trkpt>
      <trkpt lat="43.60485" lon="5.76893">
        <ele>375</ele>
        <time>2024-04-07T06:09:40Z</time>
      </trkpt>
      <trkpt lat="43.60508" lon="5.76995">
        <ele>376</ele>
        <time>2024-04-07T06:09:54Z</time>
      </trkpt>
      <trkpt lat="43.60516" lon="5.77045">
        <ele>377</ele>
        <time>2024-04-07T06:10:00Z</time>
      </trkpt>
      <trkpt lat="43.60521" lon="5.77068">
        <ele>378</ele>
        <time>2024-04-07T06:10:03Z</time>
      </trkpt>
      <trkpt lat="43.6053" lon="5.77088">
        <ele>377</ele>
        <time>2024-04-07T06:10:07Z</time>
      </trkpt>
      <trkpt lat="43.60552" lon="5.77126">
        <ele>374</ele>
        <time>2024-04-07T06:10:13Z</time>
      </trkpt>
      <trkpt lat="43.60558" lon="5.7714">
        <ele>372</ele>
        <time>2024-04-07T06:10:15Z</time>
      </trkpt>
      <trkpt lat="43.60561" lon="5.77157">
        <ele>371</ele>
        <time>2024-04-07T06:10:17Z</time>
      </trkpt>
      <trkpt lat="43.60563" lon="5.77175">
        <ele>370</ele>
        <time>2024-04-07T06:10:19Z</time>
      </trkpt>
      <trkpt lat="43.60565" lon="5.77337">
        <ele>368</ele>
        <time>2024-04-07T06:10:40Z</time>
      </trkpt>
      <trkpt lat="43.60566" lon="5.77357">
        <ele>367</ele>
        <time>2024-04-07T06:10:43Z</time>
      </trkpt>
      <trkpt lat="43.6057" lon="5.77376">
        <ele>367</ele>
        <time>2024-04-07T06:10:45Z</time>
      </trkpt>
      <trkpt lat="43.60576" lon="5.77394">
        <ele>366</ele>
        <time>2024-04-07T06:10:48Z</time>
      </trkpt>
      <trkpt lat="43.606" lon="5.77445">
        <ele>362</ele>
        <time>2024-04-07T06:10:56Z</time>
      </trkpt>
      <trkpt lat="43.60608" lon="5.77464">
        <ele>361</ele>
        <time>2024-04-07T06:10:59Z</time>
      </trkpt>
      <trkpt lat="43.60619" lon="5.77505">
        <ele>360</ele>
        <time>2024-04-07T06:11:04Z</time>
      </trkpt>
      <trkpt lat="43.60624" lon="5.77526">
        <ele>359</ele>
        <time>2024-04-07T06:11:07Z</time>
      </trkpt>
      <trkpt lat="43.60626" lon="5.77557">
        <ele>358</ele>
        <time>2024-04-07T06:11:11Z</time>
      </trkpt>
      <trkpt lat="43.60626" lon="5.7757">
        <ele>358</ele>
        <time>2024-04-07T06:11:13Z</time>
      </trkpt>
      <trkpt lat="43.60623" lon="5.77591">
        <ele>358</ele>
        <time>2024-04-07T06:11:16Z</time>
      </trkpt>
      <trkpt lat="43.60565" lon="5.77945">
        <ele>355</ele>
        <time>2024-04-07T06:12:02Z</time>
      </trkpt>
      <trkpt lat="43.6054" lon="5.78108">
        <ele>356</ele>
        <time>2024-04-07T06:12:24Z</time>
      </trkpt>
      <trkpt lat="43.60534" lon="5.78179">
        <ele>354</ele>
        <time>2024-04-07T06:12:33Z</time>
      </trkpt>
      <trkpt lat="43.60519" lon="5.78405">
        <ele>355</ele>
        <time>2024-04-07T06:13:02Z</time>
      </trkpt>
      <trkpt lat="43.60518" lon="5.78457">
        <ele>356</ele>
        <time>2024-04-07T06:13:09Z</time>
      </trkpt>
      <trkpt lat="43.60529" lon="5.78634">
        <ele>356</ele>
        <time>2024-04-07T06:13:32Z</time>
      </trkpt>
      <trkpt lat="43.60531" lon="5.78686">
        <ele>355</ele>
        <time>2024-04-07T06:13:39Z</time>
      </trkpt>
      <trkpt lat="43.60531" lon="5.78894">
        <ele>354</ele>
        <time>2024-04-07T06:14:05Z</time>
      </trkpt>
      <trkpt lat="43.60527" lon="5.78945">
        <ele>354</ele>
        <time>2024-04-07T06:14:12Z</time>
      </trkpt>
      <trkpt lat="43.60497" lon="5.79145">
        <ele>355</ele>
        <time>2024-04-07T06:14:38Z</time>
      </trkpt>
      <trkpt lat="43.60492" lon="5.79168">
        <ele>356</ele>
        <time>2024-04-07T06:14:41Z</time>
      </trkpt>
      <trkpt lat="43.60486" lon="5.7919">
        <ele>355</ele>
        <time>2024-04-07T06:14:44Z</time>
      </trkpt>
      <trkpt lat="43.60466" lon="5.79227">
        <ele>354</ele>
        <time>2024-04-07T06:14:50Z</time>
      </trkpt>
      <trkpt lat="43.60424" lon="5.79292">
        <ele>353</ele>
        <time>2024-04-07T06:15:02Z</time>
      </trkpt>
      <trkpt lat="43.60398" lon="5.79339">
        <ele>354</ele>
        <time>2024-04-07T06:15:09Z</time>
      </trkpt>
      <trkpt lat="43.60305" lon="5.79537">
        <ele>358</ele>
        <time>2024-04-07T06:15:40Z</time>
      </trkpt>
      <trkpt lat="43.60265" lon="5.79639">
        <ele>359</ele>
        <time>2024-04-07T06:15:55Z</time>
      </trkpt>
      <trkpt lat="43.60237" lon="5.79733">
        <ele>360</ele>
        <time>2024-04-07T06:16:08Z</time>
      </trkpt>
      <trkpt lat="43.60231" lon="5.79759">
        <ele>360</ele>
        <time>2024-04-07T06:16:11Z</time>
      </trkpt>
      <trkpt lat="43.60223" lon="5.79813">
        <ele>361</ele>
        <time>2024-04-07T06:16:18Z</time>
      </trkpt>
      <trkpt lat="43.60216" lon="5.79918">
        <ele>360</ele>
        <time>2024-04-07T06:16:32Z</time>
      </trkpt>
      <trkpt lat="43.60212" lon="5.79942">
        <ele>360</ele>
        <time>2024-04-07T06:16:35Z</time>
      </trkpt>
      <trkpt lat="43.60205" lon="5.7997">
        <ele>360</ele>
        <time>2024-04-07T06:16:39Z</time>
      </trkpt>
      <trkpt lat="43.60198" lon="5.7999">
        <ele>361</ele>
        <time>2024-04-07T06:16:42Z</time>
      </trkpt>
      <trkpt lat="43.60188" lon="5.80009">
        <ele>361</ele>
        <time>2024-04-07T06:16:45Z</time>
      </trkpt>
      <trkpt lat="43.60146" lon="5.8008">
        <ele>365</ele>
        <time>2024-04-07T06:16:57Z</time>
      </trkpt>
      <trkpt lat="43.60121" lon="5.80159">
        <ele>365</ele>
        <time>2024-04-07T06:17:08Z</time>
      </trkpt>
      <trkpt lat="43.60109" lon="5.80205">
        <ele>366</ele>
        <time>2024-04-07T06:17:14Z</time>
      </trkpt>
      <trkpt lat="43.60106" lon="5.8022">
        <ele>366</ele>
        <time>2024-04-07T06:17:16Z</time>
      </trkpt>
      <trkpt lat="43.60102" lon="5.8025">
        <ele>366</ele>
        <time>2024-04-07T06:17:20Z</time>
      </trkpt>
      <trkpt lat="43.60094" lon="5.80384">
        <ele>368</ele>
        <time>2024-04-07T06:17:37Z</time>
      </trkpt>
      <trkpt lat="43.60094" lon="5.80453">
        <ele>368</ele>
        <time>2024-04-07T06:17:46Z</time>
      </trkpt>
      <trkpt lat="43.60087" lon="5.80559">
        <ele>368</ele>
        <time>2024-04-07T06:18:00Z</time>
      </trkpt>
      <trkpt lat="43.60072" lon="5.80654">
        <ele>370</ele>
        <time>2024-04-07T06:18:12Z</time>
      </trkpt>
      <trkpt lat="43.60067" lon="5.80698">
        <ele>370</ele>
        <time>2024-04-07T06:18:18Z</time>
      </trkpt>
      <trkpt lat="43.60057" lon="5.80879">
        <ele>368</ele>
        <time>2024-04-07T06:18:42Z</time>
      </trkpt>
      <trkpt lat="43.60053" lon="5.80917">
        <ele>367</ele>
        <time>2024-04-07T06:18:46Z</time>
      </trkpt>
      <trkpt lat="43.60049" lon="5.80941">
        <ele>367</ele>
        <time>2024-04-07T06:18:50Z</time>
      </trkpt>
      <trkpt lat="43.59956" lon="5.81395">
        <ele>374</ele>
        <time>2024-04-07T06:19:50Z</time>
      </trkpt>
      <trkpt lat="43.59935" lon="5.81499">
        <ele>376</ele>
        <time>2024-04-07T06:20:04Z</time>
      </trkpt>
      <trkpt lat="43.59928" lon="5.81545">
        <ele>376</ele>
        <time>2024-04-07T06:20:10Z</time>
      </trkpt>
      <trkpt lat="43.59921" lon="5.81622">
        <ele>378</ele>
        <time>2024-04-07T06:20:20Z</time>
      </trkpt>
      <trkpt lat="43.59915" lon="5.81751">
        <ele>382</ele>
        <time>2024-04-07T06:20:37Z</time>
      </trkpt>
      <trkpt lat="43.59916" lon="5.81792">
        <ele>382</ele>
        <time>2024-04-07T06:20:42Z</time>
      </trkpt>
      <trkpt lat="43.59919" lon="5.81826">
        <ele>381</ele>
        <time>2024-04-07T06:20:47Z</time>
      </trkpt>
      <trkpt lat="43.59932" lon="5.81939">
        <ele>378</ele>
        <time>2024-04-07T06:21:01Z</time>
      </trkpt>
      <trkpt lat="43.59936" lon="5.82">
        <ele>379</ele>
        <time>2024-04-07T06:21:09Z</time>
      </trkpt>
      <trkpt lat="43.59937" lon="5.82062">
        <ele>379</ele>
        <time>2024-04-07T06:21:17Z</time>
      </trkpt>
      <trkpt lat="43.59923" lon="5.82437">
        <ele>381</ele>
        <time>2024-04-07T06:22:06Z</time>
      </trkpt>
      <trkpt lat="43.59902" lon="5.82719">
        <ele>381</ele>
        <time>2024-04-07T06:22:42Z</time>
      </trkpt>
      <trkpt lat="43.59873" lon="5.82987">
        <ele>383</ele>
        <time>2024-04-07T06:23:17Z</time>
      </trkpt>
      <trkpt lat="43.59862" lon="5.83043">
        <ele>384</ele>
        <time>2024-04-07T06:23:25Z</time>
      </trkpt>
      <trkpt lat="43.59852" lon="5.83082">
        <ele>385</ele>
        <time>2024-04-07T06:23:30Z</time>
      </trkpt>
      <trkpt lat="43.59839" lon="5.83123">
        <ele>386</ele>
        <time>2024-04-07T06:23:36Z</time>
      </trkpt>
      <trkpt lat="43.59822" lon="5.83167">
        <ele>387</ele>
        <time>2024-04-07T06:23:42Z</time>
      </trkpt>
      <trkpt lat="43.59797" lon="5.83214">
        <ele>389</ele>
        <time>2024-04-07T06:23:50Z</time>
      </trkpt>
      <trkpt lat="43.59756" lon="5.83272">
        <ele>392</ele>
        <time>2024-04-07T06:24:00Z</time>
      </trkpt>
      <trkpt lat="43.59698" lon="5.8331">
        <ele>398</ele>
        <time>2024-04-07T06:24:12Z</time>
      </trkpt>
      <trkpt lat="43.59674" lon="5.83344">
        <ele>401</ele>
        <time>2024-04-07T06:24:18Z</time>
      </trkpt>
      <trkpt lat="43.59651" lon="5.83379">
        <ele>403</ele>
        <time>2024-04-07T06:24:24Z</time>
      </trkpt>
      <trkpt lat="43.59589" lon="5.83505">
        <ele>407</ele>
        <time>2024-04-07T06:24:43Z</time>
      </trkpt>
      <trkpt lat="43.59501" lon="5.83657">
        <ele>413</ele>
        <time>2024-04-07T06:25:08Z</time>
      </trkpt>
      <trkpt lat="43.59455" lon="5.83759">
        <ele>418</ele>
        <time>2024-04-07T06:25:24Z</time>
      </trkpt>
      <trkpt lat="43.59433" lon="5.83832">
        <ele>420</ele>
        <time>2024-04-07T06:25:34Z</time>
      </trkpt>
      <trkpt lat="43.59395" lon="5.83974">
        <ele>422</ele>
        <time>2024-04-07T06:25:54Z</time>
      </trkpt>
      <trkpt lat="43.59392" lon="5.8399">
        <ele>422</ele>
        <time>2024-04-07T06:25:56Z</time>
      </trkpt>
      <trkpt lat="43.59387" lon="5.84056">
        <ele>423</ele>
        <time>2024-04-07T06:26:04Z</time>
      </trkpt>
      <trkpt lat="43.59384" lon="5.84071">
        <ele>423</ele>
        <time>2024-04-07T06:26:06Z</time>
      </trkpt>
      <trkpt lat="43.59378" lon="5.84081">
        <ele>424</ele>
        <time>2024-04-07T06:26:08Z</time>
      </trkpt>
      <trkpt lat="43.59316" lon="5.84149">
        <ele>423</ele>
        <time>2024-04-07T06:26:22Z</time>
      </trkpt>
      <trkpt lat="43.59299" lon="5.84172">
        <ele>423</ele>
        <time>2024-04-07T06:26:26Z</time>
      </trkpt>
      <trkpt lat="43.59286" lon="5.84197">
        <ele>423</ele>
        <time>2024-04-07T06:26:30Z</time>
      </trkpt>
      <trkpt lat="43.59274" lon="5.8423">
        <ele>422</ele>
        <time>2024-04-07T06:26:35Z</time>
      </trkpt>
      <trkpt lat="43.59232" lon="5.84385">
        <ele>423</ele>
        <time>2024-04-07T06:26:56Z</time>
      </trkpt>
      <trkpt lat="43.59185" lon="5.8457">
        <ele>432</ele>
        <time>2024-04-07T06:27:22Z</time>
      </trkpt>
      <trkpt lat="43.59185" lon="5.84591">
        <ele>433</ele>
        <time>2024-04-07T06:27:24Z</time>
      </trkpt>
      <trkpt lat="43.59189" lon="5.84611">
        <ele>433</ele>
        <time>2024-04-07T06:27:27Z</time>
      </trkpt>
      <trkpt lat="43.59196" lon="5.84631">
        <ele>434</ele>
        <time>2024-04-07T06:27:30Z</time>
      </trkpt>
      <trkpt lat="43.59252" lon="5.84738">
        <ele>436</ele>
        <time>2024-04-07T06:27:47Z</time>
      </trkpt>
      <trkpt lat="43.59271" lon="5.8478">
        <ele>434</ele>
        <time>2024-04-07T06:27:53Z</time>
      </trkpt>
      <trkpt lat="43.59279" lon="5.84813">
        <ele>433</ele>
        <time>2024-04-07T06:27:58Z</time>
      </trkpt>
      <trkpt lat="43.59285" lon="5.84856">
        <ele>433</ele>
        <time>2024-04-07T06:28:03Z</time>
      </trkpt>
      <trkpt lat="43.5929" lon="5.8492">
        <ele>433</ele>
        <time>2024-04-07T06:28:12Z</time>
      </trkpt>
      <trkpt lat="43.5929" lon="5.84962">
        <ele>435</ele>
        <time>2024-04-07T06:28:17Z</time>
      </trkpt>
      <trkpt lat="43.59286" lon="5.85007">
        <ele>439</ele>
        <time>2024-04-07T06:28:23Z</time>
      </trkpt>
      <trkpt lat="43.59285" lon="5.85043">
        <ele>441</ele>
        <time>2024-04-07T06:28:28Z</time>
      </trkpt>
      <trkpt lat="43.59287" lon="5.85059">
        <ele>441</ele>
        <time>2024-04-07T06:28:30Z</time>
      </trkpt>
      <trkpt lat="43.59292" lon="5.8508">
        <ele>440</ele>
        <time>2024-04-07T06:28:33Z</time>
      </trkpt>
      <trkpt lat="43.59318" lon="5.8516">
        <ele>436</ele>
        <time>2024-04-07T06:28:44Z</time>
      </trkpt>
      <trkpt lat="43.59326" lon="5.85194">
        <ele>435</ele>
        <time>2024-04-07T06:28:48Z</time>
      </trkpt>
      <trkpt lat="43.59327" lon="5.85204">
        <ele>435</ele>
        <time>2024-04-07T06:28:50Z</time>
      </trkpt>
      <trkpt lat="43.59327" lon="5.85243">
        <ele>436</ele>
        <time>2024-04-07T06:28:55Z</time>
      </trkpt>
      <trkpt lat="43.59323" lon="5.85282">
        <ele>434</ele>
        <time>2024-04-07T06:29:00Z</time>
      </trkpt>
      <trkpt lat="43.5932" lon="5.85302">
        <ele>433</ele>
        <time>2024-04-07T06:29:03Z</time>
      </trkpt>
      <trkpt lat="43.59294" lon="5.85389">
        <ele>433</ele>
        <time>2024-04-07T06:29:15Z</time>
      </trkpt>
      <trkpt lat="43.59291" lon="5.85416">
        <ele>431</ele>
        <time>2024-04-07T06:29:18Z</time>
      </trkpt>
      <trkpt lat="43.59291" lon="5.85442">
        <ele>432</ele>
        <time>2024-04-07T06:29:22Z</time>
      </trkpt>
      <trkpt lat="43.59301" lon="5.85495">
        <ele>434</ele>
        <time>2024-04-07T06:29:29Z</time>
      </trkpt>
      <trkpt lat="43.59325" lon="5.85588">
        <ele>433</ele>
        <time>2024-04-07T06:29:41Z</time>
      </trkpt>
      <trkpt lat="43.59348" lon="5.85762">
        <ele>430</ele>
        <time>2024-04-07T06:30:04Z</time>
      </trkpt>
      <trkpt lat="43.59342" lon="5.85841">
        <ele>433</ele>
        <time>2024-04-07T06:30:14Z</time>
      </trkpt>
      <trkpt lat="43.59342" lon="5.85867">
        <ele>433</ele>
        <time>2024-04-07T06:30:18Z</time>
      </trkpt>
      <trkpt lat="43.59363" lon="5.8601">
        <ele>434</ele>
        <time>2024-04-07T06:30:36Z</time>
      </trkpt>
      <trkpt lat="43.59365" lon="5.86068">
        <ele>434</ele>
        <time>2024-04-07T06:30:44Z</time>
      </trkpt>
      <trkpt lat="43.59356" lon="5.86181">
        <ele>433</ele>
        <time>2024-04-07T06:30:59Z</time>
      </trkpt>
      <trkpt lat="43.59356" lon="5.86217">
        <ele>433</ele>
        <time>2024-04-07T06:31:03Z</time>
      </trkpt>
      <trkpt lat="43.59361" lon="5.86248">
        <ele>432</ele>
        <time>2024-04-07T06:31:07Z</time>
      </trkpt>
      <trkpt lat="43.59372" lon="5.86277">
        <ele>430</ele>
        <time>2024-04-07T06:31:12Z</time>
      </trkpt>
      <trkpt lat="43.59385" lon="5.86303">
        <ele>428</ele>
        <time>2024-04-07T06:31:16Z</time>
      </trkpt>
      <trkpt lat="43.59399" lon="5.86321">
        <ele>427</ele>
        <time>2024-04-07T06:31:19Z</time>
      </trkpt>
      <trkpt lat="43.59454" lon="5.86374">
        <ele>424</ele>
        <time>2024-04-07T06:31:31Z</time>
      </trkpt>
      <trkpt lat="43.59481" lon="5.86406">
        <ele>424</ele>
        <time>2024-04-07T06:31:37Z</time>
      </trkpt>
      <trkpt lat="43.59518" lon="5.86462">
        <ele>421</ele>
        <time>2024-04-07T06:31:47Z</time>
      </trkpt>
      <trkpt lat="43.59578" lon="5.8656">
        <ele>418</ele>
        <time>2024-04-07T06:32:04Z</time>
      </trkpt>
      <trkpt lat="43.59591" lon="5.86587">
        <ele>417</ele>
        <time>2024-04-07T06:32:08Z</time>
      </trkpt>
      <trkpt lat="43.59596" lon="5.86609">
        <ele>417</ele>
        <time>2024-04-07T06:32:11Z</time>
      </trkpt>
      <trkpt lat="43.59594" lon="5.8664">
        <ele>416</ele>
        <time>2024-04-07T06:32:15Z</time>
      </trkpt>
      <trkpt lat="43.59589" lon="5.86658">
        <ele>416</ele>
        <time>2024-04-07T06:32:17Z</time>
      </trkpt>
      <trkpt lat="43.59557" lon="5.86742">
        <ele>414</ele>
        <time>2024-04-07T06:32:29Z</time>
      </trkpt>
      <trkpt lat="43.59537" lon="5.86815">
        <ele>409</ele>
        <time>2024-04-07T06:32:40Z</time>
      </trkpt>
      <trkpt lat="43.59519" lon="5.86924">
        <ele>404</ele>
        <time>2024-04-07T06:32:54Z</time>
      </trkpt>
      <trkpt lat="43.59514" lon="5.87001">
        <ele>401</ele>
        <time>2024-04-07T06:33:04Z</time>
      </trkpt>
      <trkpt lat="43.59518" lon="5.8724">
        <ele>405</ele>
        <time>2024-04-07T06:33:35Z</time>
      </trkpt>
      <trkpt lat="43.59515" lon="5.87258">
        <ele>405</ele>
        <time>2024-04-07T06:33:37Z</time>
      </trkpt>
      <trkpt lat="43.59506" lon="5.8728">
        <ele>406</ele>
        <time>2024-04-07T06:33:40Z</time>
      </trkpt>
      <trkpt lat="43.59484" lon="5.87317">
        <ele>406</ele>
        <time>2024-04-07T06:33:47Z</time>
      </trkpt>
      <trkpt lat="43.59424" lon="5.87439">
        <ele>407</ele>
        <time>2024-04-07T06:34:06Z</time>
      </trkpt>
      <trkpt lat="43.59417" lon="5.87458">
        <ele>407</ele>
        <time>2024-04-07T06:34:08Z</time>
      </trkpt>
      <trkpt lat="43.59411" lon="5.87485">
        <ele>408</ele>
        <time>2024-04-07T06:34:12Z</time>
      </trkpt>
      <trkpt lat="43.5941" lon="5.87506">
        <ele>408</ele>
        <time>2024-04-07T06:34:15Z</time>
      </trkpt>
      <trkpt lat="43.59418" lon="5.87611">
        <ele>412</ele>
        <time>2024-04-07T06:34:28Z</time>
      </trkpt>
      <trkpt lat="43.59417" lon="5.87628">
        <ele>412</ele>
        <time>2024-04-07T06:34:30Z</time>
      </trkpt>
      <trkpt lat="43.59413" lon="5.87652">
        <ele>412</ele>
        <time>2024-04-07T06:34:34Z</time>
      </trkpt>
      <trkpt lat="43.59393" lon="5.87744">
        <ele>411</ele>
        <time>2024-04-07T06:34:46Z</time>
      </trkpt>
      <trkpt lat="43.59367" lon="5.87852">
        <ele>412</ele>
        <time>2024-04-07T06:35:01Z</time>
      </trkpt>
      <trkpt lat="43.59325" lon="5.87963">
        <ele>411</ele>
        <time>2024-04-07T06:35:17Z</time>
      </trkpt>
      <trkpt lat="43.59317" lon="5.87989">
        <ele>410</ele>
        <time>2024-04-07T06:35:20Z</time>
      </trkpt>
      <trkpt lat="43.593" lon="5.88071">
        <ele>410</ele>
        <time>2024-04-07T06:35:31Z</time>
      </trkpt>
      <trkpt lat="43.5927" lon="5.88241">
        <ele>413</ele>
        <time>2024-04-07T06:35:54Z</time>
      </trkpt>
      <trkpt lat="43.59268" lon="5.88271">
        <ele>413</ele>
        <time>2024-04-07T06:35:58Z</time>
      </trkpt>
      <trkpt lat="43.59271" lon="5.88416">
        <ele>411</ele>
        <time>2024-04-07T06:36:17Z</time>
      </trkpt>
      <trkpt lat="43.59288" lon="5.88774">
        <ele>402</ele>
        <time>2024-04-07T06:37:03Z</time>
      </trkpt>
      <trkpt lat="43.59285" lon="5.88811">
        <ele>402</ele>
        <time>2024-04-07T06:37:08Z</time>
      </trkpt>
      <trkpt lat="43.59272" lon="5.88862">
        <ele>402</ele>
        <time>2024-04-07T06:37:15Z</time>
      </trkpt>
      <trkpt lat="43.59234" lon="5.88986">
        <ele>401</ele>
        <time>2024-04-07T06:37:32Z</time>
      </trkpt>
      <trkpt lat="43.59231" lon="5.89002">
        <ele>401</ele>
        <time>2024-04-07T06:37:34Z</time>
      </trkpt>
      <trkpt lat="43.5923" lon="5.89018">
        <ele>402</ele>
        <time>2024-04-07T06:37:36Z</time>
      </trkpt>
      <trkpt lat="43.59231" lon="5.89034">
        <ele>402</ele>
        <time>2024-04-07T06:37:38Z</time>
      </trkpt>
      <trkpt lat="43.59235" lon="5.89049">
        <ele>402</ele>
        <time>2024-04-07T06:37:40Z</time>
      </trkpt>
      <trkpt lat="43.59244" lon="5.89073">
        <ele>402</ele>
        <time>2024-04-07T06:37:44Z</time>
      </trkpt>
      <trkpt lat="43.59271" lon="5.89137">
        <ele>399</ele>
        <time>2024-04-07T06:37:53Z</time>
      </trkpt>
      <trkpt lat="43.59282" lon="5.89158">
        <ele>398</ele>
        <time>2024-04-07T06:37:57Z</time>
      </trkpt>
      <trkpt lat="43.59337" lon="5.89236">
        <ele>391</ele>
        <time>2024-04-07T06:38:11Z</time>
      </trkpt>
      <trkpt lat="43.59343" lon="5.89248">
        <ele>390</ele>
        <time>2024-04-07T06:38:12Z</time>
      </trkpt>
      <trkpt lat="43.59346" lon="5.89263">
        <ele>389</ele>
        <time>2024-04-07T06:38:14Z</time>
      </trkpt>
      <trkpt lat="43.59354" lon="5.89318">
        <ele>386</ele>
        <time>2024-04-07T06:38:22Z</time>
      </trkpt>
      <trkpt lat="43.59359" lon="5.89339">
        <ele>384</ele>
        <time>2024-04-07T06:38:25Z</time>
      </trkpt>
      <trkpt lat="43.59367" lon="5.89355">
        <ele>383</ele>
        <time>2024-04-07T06:38:27Z</time>
      </trkpt>
      <trkpt lat="43.59389" lon="5.89381">
        <ele>382</ele>
        <time>2024-04-07T06:38:32Z</time>
      </trkpt>
      <trkpt lat="43.59397" lon="5.89396">
        <ele>381</ele>
        <time>2024-04-07T06:38:35Z</time>
      </trkpt>
      <trkpt lat="43.59402" lon="5.89412">
        <ele>381</ele>
        <time>2024-04-07T06:38:37Z</time>
      </trkpt>
      <trkpt lat="43.59406" lon="5.8943">
        <ele>380</ele>
        <time>2024-04-07T06:38:39Z</time>
      </trkpt>
      <trkpt lat="43.5941" lon="5.89472">
        <ele>380</ele>
        <time>2024-04-07T06:38:45Z</time>
      </trkpt>
      <trkpt lat="43.59413" lon="5.89491">
        <ele>380</ele>
        <time>2024-04-07T06:38:47Z</time>
      </trkpt>
      <trkpt lat="43.59419" lon="5.89509">
        <ele>380</ele>
        <time>2024-04-07T06:38:50Z</time>
      </trkpt>
      <trkpt lat="43.59446" lon="5.8955">
        <ele>379</ele>
        <time>2024-04-07T06:38:57Z</time>
      </trkpt>
      <trkpt lat="43.59461" lon="5.89587">
        <ele>378</ele>
        <time>2024-04-07T06:39:02Z</time>
      </trkpt>
      <trkpt lat="43.59496" lon="5.89738">
        <ele>377</ele>
        <time>2024-04-07T06:39:23Z</time>
      </trkpt>
      <trkpt lat="43.59505" lon="5.89783">
        <ele>376</ele>
        <time>2024-04-07T06:39:29Z</time>
      </trkpt>
      <trkpt lat="43.59512" lon="5.89831">
        <ele>374</ele>
        <time>2024-04-07T06:39:35Z</time>
      </trkpt>
      <trkpt lat="43.59514" lon="5.89856">
        <ele>373</ele>
        <time>2024-04-07T06:39:38Z</time>
      </trkpt>
      <trkpt lat="43.59516" lon="5.89905">
        <ele>372</ele>
        <time>2024-04-07T06:39:45Z</time>
      </trkpt>
      <trkpt lat="43.59513" lon="5.90027">
        <ele>369</ele>
        <time>2024-04-07T06:40:00Z</time>
      </trkpt>
      <trkpt lat="43.59514" lon="5.90051">
        <ele>369</ele>
        <time>2024-04-07T06:40:04Z</time>
      </trkpt>
      <trkpt lat="43.59518" lon="5.90074">
        <ele>369</ele>
        <time>2024-04-07T06:40:07Z</time>
      </trkpt>
      <trkpt lat="43.59525" lon="5.90095">
        <ele>369</ele>
        <time>2024-04-07T06:40:10Z</time>
      </trkpt>
      <trkpt lat="43.59573" lon="5.90216">
        <ele>367</ele>
        <time>2024-04-07T06:40:27Z</time>
      </trkpt>
      <trkpt lat="43.59583" lon="5.90234">
        <ele>366</ele>
        <time>2024-04-07T06:40:30Z</time>
      </trkpt>
      <trkpt lat="43.59594" lon="5.9025">
        <ele>366</ele>
        <time>2024-04-07T06:40:33Z</time>
      </trkpt>
      <trkpt lat="43.59644" lon="5.90295">
        <ele>365</ele>
        <time>2024-04-07T06:40:44Z</time>
      </trkpt>
      <trkpt lat="43.59654" lon="5.90307">
        <ele>365</ele>
        <time>2024-04-07T06:40:46Z</time>
      </trkpt>
      <trkpt lat="43.59662" lon="5.90321">
        <ele>364</ele>
        <time>2024-04-07T06:40:48Z</time>
      </trkpt>
      <trkpt lat="43.59669" lon="5.90337">
        <ele>364</ele>
        <time>2024-04-07T06:40:51Z</time>
      </trkpt>
      <trkpt lat="43.59685" lon="5.90387">
        <ele>366</ele>
        <time>2024-04-07T06:40:58Z</time>
      </trkpt>
      <trkpt lat="43.59691" lon="5.90423">
        <ele>367</ele>
        <time>2024-04-07T06:41:03Z</time>
      </trkpt>
      <trkpt lat="43.59691" lon="5.90512">
        <ele>368</ele>
        <time>2024-04-07T06:41:14Z</time>
      </trkpt>
      <trkpt lat="43.59692" lon="5.90565">
        <ele>369</ele>
        <time>2024-04-07T06:41:21Z</time>
      </trkpt>
      <trkpt lat="43.59691" lon="5.906">
        <ele>369</ele>
        <time>2024-04-07T06:41:25Z</time>
      </trkpt>
      <trkpt lat="43.5968" lon="5.90669">
        <ele>369</ele>
        <time>2024-04-07T06:41:35Z</time>
      </trkpt>
      <trkpt lat="43.59681" lon="5.90705">
        <ele>368</ele>
        <time>2024-04-07T06:41:39Z</time>
      </trkpt>
      <trkpt lat="43.59689" lon="5.90759">
        <ele>367</ele>
        <time>2024-04-07T06:41:46Z</time>
      </trkpt>
      <trkpt lat="43.59699" lon="5.90813">
        <ele>364</ele>
        <time>2024-04-07T06:41:53Z</time>
      </trkpt>
      <trkpt lat="43.59768" lon="5.91009">
        <ele>357</ele>
        <time>2024-04-07T06:42:22Z</time>
      </trkpt>
      <trkpt lat="43.59783" lon="5.91038">
        <ele>356</ele>
        <time>2024-04-07T06:42:26Z</time>
      </trkpt>
      <trkpt lat="43.59792" lon="5.91051">
        <ele>355</ele>
        <time>2024-04-07T06:42:28Z</time>
      </trkpt>
      <trkpt lat="43.59803" lon="5.91062">
        <ele>355</ele>
        <time>2024-04-07T06:42:31Z</time>
      </trkpt>
      <trkpt lat="43.59823" lon="5.91076">
        <ele>354</ele>
        <time>2024-04-07T06:42:35Z</time>
      </trkpt>
      <trkpt lat="43.5983" lon="5.91081">
        <ele>353</ele>
        <time>2024-04-07T06:42:36Z</time>
      </trkpt>
      <trkpt lat="43.5984" lon="5.91086">
        <ele>354</ele>
        <time>2024-04-07T06:42:38Z</time>
      </trkpt>
      <trkpt lat="43.59848" lon="5.91101">
        <ele>355</ele>
        <time>2024-04-07T06:42:41Z</time>
      </trkpt>
      <trkpt lat="43.59851" lon="5.91114">
        <ele>355</ele>
        <time>2024-04-07T06:42:42Z</time>
      </trkpt>
      <trkpt lat="43.59852" lon="5.91128">
        <ele>355</ele>
        <time>2024-04-07T06:42:44Z</time>
      </trkpt>
      <trkpt lat="43.59844" lon="5.91179">
        <ele>354</ele>
        <time>2024-04-07T06:42:51Z</time>
      </trkpt>
      <trkpt lat="43.59841" lon="5.91221">
        <ele>352</ele>
        <time>2024-04-07T06:42:56Z</time>
      </trkpt>
      <trkpt lat="43.59831" lon="5.91485">
        <ele>349</ele>
        <time>2024-04-07T06:43:30Z</time>
      </trkpt>
      <trkpt lat="43.59832" lon="5.91534">
        <ele>349</ele>
        <time>2024-04-07T06:43:37Z</time>
      </trkpt>
      <trkpt lat="43.59839" lon="5.91678">
        <ele>347</ele>
        <time>2024-04-07T06:43:55Z</time>
      </trkpt>
      <trkpt lat="43.59845" lon="5.91722">
        <ele>349</ele>
        <time>2024-04-07T06:44:01Z</time>
      </trkpt>
      <trkpt lat="43.5985" lon="5.91743">
        <ele>350</ele>
        <time>2024-04-07T06:44:04Z</time>
      </trkpt>
      <trkpt lat="43.59874" lon="5.91804">
        <ele>352</ele>
        <time>2024-04-07T06:44:13Z</time>
      </trkpt>
      <trkpt lat="43.59881" lon="5.91825">
        <ele>352</ele>
        <time>2024-04-07T06:44:16Z</time>
      </trkpt>
      <trkpt lat="43.59886" lon="5.91848">
        <ele>352</ele>
        <time>2024-04-07T06:44:19Z</time>
      </trkpt>
      <trkpt lat="43.59914" lon="5.91993">
        <ele>347</ele>
        <time>2024-04-07T06:44:38Z</time>
      </trkpt>
      <trkpt lat="43.59917" lon="5.92018">
        <ele>346</ele>
        <time>2024-04-07T06:44:42Z</time>
      </trkpt>
      <trkpt lat="43.59918" lon="5.92043">
        <ele>346</ele>
        <time>2024-04-07T06:44:45Z</time>
      </trkpt>
      <trkpt lat="43.59917" lon="5.92094">
        <ele>345</ele>
        <time>2024-04-07T06:44:51Z</time>
      </trkpt>
      <trkpt lat="43.59894" lon="5.92359">
        <ele>343</ele>
        <time>2024-04-07T06:45:26Z</time>
      </trkpt>
      <trkpt lat="43.59893" lon="5.92381">
        <ele>341</ele>
        <time>2024-04-07T06:45:29Z</time>
      </trkpt>
      <trkpt lat="43.59894" lon="5.92401">
        <ele>340</ele>
        <time>2024-04-07T06:45:31Z</time>
      </trkpt>
      <trkpt lat="43.59898" lon="5.92418">
        <ele>339</ele>
        <time>2024-04-07T06:45:33Z</time>
      </trkpt>
      <trkpt lat="43.59907" lon="5.92437">
        <ele>339</ele>
        <time>2024-04-07T06:45:36Z</time>
      </trkpt>
      <trkpt lat="43.59947" lon="5.92512">
        <ele>340</ele>
        <time>2024-04-07T06:45:48Z</time>
      </trkpt>
      <trkpt lat="43.59978" lon="5.92591">
        <ele>340</ele>
        <time>2024-04-07T06:46:00Z</time>
      </trkpt>
      <trkpt lat="43.59987" lon="5.92609">
        <ele>341</ele>
        <time>2024-04-07T06:46:03Z</time>
      </trkpt>
      <trkpt lat="43.60008" lon="5.92643">
        <ele>342</ele>
        <time>2024-04-07T06:46:09Z</time>
      </trkpt>
      <trkpt lat="43.6002" lon="5.92658">
        <ele>343</ele>
        <time>2024-04-07T06:46:11Z</time>
      </trkpt>
      <trkpt lat="43.60033" lon="5.92669">
        <ele>344</ele>
        <time>2024-04-07T06:46:14Z</time>
      </trkpt>
      <trkpt lat="43.60071" lon="5.92696">
        <ele>345</ele>
        <time>2024-04-07T06:46:22Z</time>
      </trkpt>
      <trkpt lat="43.6008" lon="5.92706">
        <ele>344</ele>
        <time>2024-04-07T06:46:24Z</time>
      </trkpt>
      <trkpt lat="43.60087" lon="5.92719">
        <ele>344</ele>
        <time>2024-04-07T06:46:26Z</time>
      </trkpt>
      <trkpt lat="43.6009" lon="5.92733">
        <ele>344</ele>
        <time>2024-04-07T06:46:28Z</time>
      </trkpt>
      <trkpt lat="43.60091" lon="5.9278">
        <ele>343</ele>
        <time>2024-04-07T06:46:34Z</time>
      </trkpt>
      <trkpt lat="43.60091" lon="5.92796">
        <ele>342</ele>
        <time>2024-04-07T06:46:36Z</time>
      </trkpt>
      <trkpt lat="43.60094" lon="5.92812">
        <ele>342</ele>
        <time>2024-04-07T06:46:38Z</time>
      </trkpt>
      <trkpt lat="43.601" lon="5.92826">
        <ele>343</ele>
        <time>2024-04-07T06:46:40Z</time>
      </trkpt>
      <trkpt lat="43.60115" lon="5.92851">
        <ele>344</ele>
        <time>2024-04-07T06:46:44Z</time>
      </trkpt>
      <trkpt lat="43.60125" lon="5.9286">
        <ele>345</ele>
        <time>2024-04-07T06:46:46Z</time>
      </trkpt>
      <trkpt lat="43.60136" lon="5.92867">
        <ele>345</ele>
        <time>2024-04-07T06:46:49Z</time>
      </trkpt>
      <trkpt lat="43.60147" lon="5.92871">
        <ele>345</ele>
        <time>2024-04-07T06:46:51Z</time>
      </trkpt>
      <trkpt lat="43.60158" lon="5.92871">
        <ele>345</ele>
        <time>2024-04-07T06:46:53Z</time>
      </trkpt>
      <trkpt lat="43.60168" lon="5.92866">
        <ele>345</ele>
        <time>2024-04-07T06:46:54Z</time>
      </trkpt>
      <trkpt lat="43.60187" lon="5.92853">
        <ele>346</ele>
        <time>2024-04-07T06:46:58Z</time>
      </trkpt>
      <trkpt lat="43.60196" lon="5.92849">
        <ele>347</ele>
        <time>2024-04-07T06:47:00Z</time>
      </trkpt>
      <trkpt lat="43.60205" lon="5.9285">
        <ele>348</ele>
        <time>2024-04-07T06:47:01Z</time>
      </trkpt>
      <trkpt lat="43.60214" lon="5.92857">
        <ele>347</ele>
        <time>2024-04-07T06:47:03Z</time>
      </trkpt>
      <trkpt lat="43.60325" lon="5.92979">
        <ele>338</ele>
        <time>2024-04-07T06:47:29Z</time>
      </trkpt>
      <trkpt lat="43.60335" lon="5.92993">
        <ele>336</ele>
        <time>2024-04-07T06:47:31Z</time>
      </trkpt>
      <trkpt lat="43.60343" lon="5.93008">
        <ele>337</ele>
        <time>2024-04-07T06:47:33Z</time>
      </trkpt>
      <trkpt lat="43.6035" lon="5.93025">
        <ele>339</ele>
        <time>2024-04-07T06:47:36Z</time>
      </trkpt>
      <trkpt lat="43.60354" lon="5.93043">
        <ele>340</ele>
        <time>2024-04-07T06:47:38Z</time>
      </trkpt>
      <trkpt lat="43.60355" lon="5.93063">
        <ele>340</ele>
        <time>2024-04-07T06:47:41Z</time>
      </trkpt>
      <trkpt lat="43.60354" lon="5.93102">
        <ele>340</ele>
        <time>2024-04-07T06:47:46Z</time>
      </trkpt>
      <trkpt lat="43.6035" lon="5.93144">
        <ele>338</ele>
        <time>2024-04-07T06:47:52Z</time>
      </trkpt>
      <trkpt lat="43.60342" lon="5.93187">
        <ele>336</ele>
        <time>2024-04-07T06:47:57Z</time>
      </trkpt>
      <trkpt lat="43.60332" lon="5.93228">
        <ele>333</ele>
        <time>2024-04-07T06:48:03Z</time>
      </trkpt>
      <trkpt lat="43.60304" lon="5.93323">
        <ele>329</ele>
        <time>2024-04-07T06:48:16Z</time>
      </trkpt>
      <trkpt lat="43.603" lon="5.93341">
        <ele>329</ele>
        <time>2024-04-07T06:48:18Z</time>
      </trkpt>
      <trkpt lat="43.60298" lon="5.93358">
        <ele>329</ele>
        <time>2024-04-07T06:48:21Z</time>
      </trkpt>
      <trkpt lat="43.60299" lon="5.93376">
        <ele>329</ele>
        <time>2024-04-07T06:48:23Z</time>
      </trkpt>
      <trkpt lat="43.60304" lon="5.93392">
        <ele>329</ele>
        <time>2024-04-07T06:48:25Z</time>
      </trkpt>
      <trkpt lat="43.60317" lon="5.9342">
        <ele>329</ele>
        <time>2024-04-07T06:48:30Z</time>
      </trkpt>
      <trkpt lat="43.60323" lon="5.93436">
        <ele>330</ele>
        <time>2024-04-07T06:48:32Z</time>
      </trkpt>
      <trkpt lat="43.60327" lon="5.93454">
        <ele>331</ele>
        <time>2024-04-07T06:48:34Z</time>
      </trkpt>
      <trkpt lat="43.60329" lon="5.93472">
        <ele>332</ele>
        <time>2024-04-07T06:48:37Z</time>
      </trkpt>
      <trkpt lat="43.60331" lon="5.93554">
        <ele>331</ele>
        <time>2024-04-07T06:48:47Z</time>
      </trkpt>
      <trkpt lat="43.60336" lon="5.93597">
        <ele>329</ele>
        <time>2024-04-07T06:48:53Z</time>
      </trkpt>
      <trkpt lat="43.60344" lon="5.93662">
        <ele>327</ele>
        <time>2024-04-07T06:49:01Z</time>
      </trkpt>
      <trkpt lat="43.6036" lon="5.93749">
        <ele>326</ele>
        <time>2024-04-07T06:49:13Z</time>
      </trkpt>
      <trkpt lat="43.60371" lon="5.93788">
        <ele>325</ele>
        <time>2024-04-07T06:49:18Z</time>
      </trkpt>
      <trkpt lat="43.60379" lon="5.93806">
        <ele>325</ele>
        <time>2024-04-07T06:49:21Z</time>
      </trkpt>
      <trkpt lat="43.60414" lon="5.93869">
        <ele>324</ele>
        <time>2024-04-07T06:49:31Z</time>
      </trkpt>
      <trkpt lat="43.6042" lon="5.93886">
        <ele>324</ele>
        <time>2024-04-07T06:49:34Z</time>
      </trkpt>
      <trkpt lat="43.60425" lon="5.93904">
        <ele>325</ele>
        <time>2024-04-07T06:49:36Z</time>
      </trkpt>
      <trkpt lat="43.60427" lon="5.93924">
        <ele>325</ele>
        <time>2024-04-07T06:49:39Z</time>
      </trkpt>
      <trkpt lat="43.60426" lon="5.93966">
        <ele>324</ele>
        <time>2024-04-07T06:49:44Z</time>
      </trkpt>
      <trkpt lat="43.60421" lon="5.94006">
        <ele>322</ele>
        <time>2024-04-07T06:49:49Z</time>
      </trkpt>
      <trkpt lat="43.60408" lon="5.94065">
        <ele>323</ele>
        <time>2024-04-07T06:49:57Z</time>
      </trkpt>
      <trkpt lat="43.60406" lon="5.94084">
        <ele>323</ele>
        <time>2024-04-07T06:50:00Z</time>
      </trkpt>
      <trkpt lat="43.60407" lon="5.94103">
        <ele>323</ele>
        <time>2024-04-07T06:50:02Z</time>
      </trkpt>
      <trkpt lat="43.60411" lon="5.94121">
        <ele>324</ele>
        <time>2024-04-07T06:50:05Z</time>
      </trkpt>
      <trkpt lat="43.60429" lon="5.94172">
        <ele>325</ele>
        <time>2024-04-07T06:50:12Z</time>
      </trkpt>
      <trkpt lat="43.60434" lon="5.9419">
        <ele>325</ele>
        <time>2024-04-07T06:50:14Z</time>
      </trkpt>
      <trkpt lat="43.60436" lon="5.94208">
        <ele>325</ele>
        <time>2024-04-07T06:50:17Z</time>
      </trkpt>
      <trkpt lat="43.60435" lon="5.94226">
        <ele>324</ele>
        <time>2024-04-07T06:50:19Z</time>
      </trkpt>
      <trkpt lat="43.60431" lon="5.94243">
        <ele>323</ele>
        <time>2024-04-07T06:50:21Z</time>
      </trkpt>
      <trkpt lat="43.60417" lon="5.94276">
        <ele>325</ele>
        <time>2024-04-07T06:50:26Z</time>
      </trkpt>
      <trkpt lat="43.60408" lon="5.94291">
        <ele>326</ele>
        <time>2024-04-07T06:50:29Z</time>
      </trkpt>
      <trkpt lat="43.60398" lon="5.94304">
        <ele>326</ele>
        <time>2024-04-07T06:50:31Z</time>
      </trkpt>
      <trkpt lat="43.60387" lon="5.94314">
        <ele>326</ele>
        <time>2024-04-07T06:50:34Z</time>
      </trkpt>
      <trkpt lat="43.60375" lon="5.94319">
        <ele>326</ele>
        <time>2024-04-07T06:50:36Z</time>
      </trkpt>
      <trkpt lat="43.60349" lon="5.94326">
        <ele>323</ele>
        <time>2024-04-07T06:50:41Z</time>
      </trkpt>
      <trkpt lat="43.60338" lon="5.94331">
        <ele>322</ele>
        <time>2024-04-07T06:50:43Z</time>
      </trkpt>
      <trkpt lat="43.60329" lon="5.94339">
        <ele>322</ele>
        <time>2024-04-07T06:50:45Z</time>
      </trkpt>
      <trkpt lat="43.60322" lon="5.9435">
        <ele>322</ele>
        <time>2024-04-07T06:50:46Z</time>
      </trkpt>
      <trkpt lat="43.60293" lon="5.94431">
        <ele>324</ele>
        <time>2024-04-07T06:50:58Z</time>
      </trkpt>
      <trkpt lat="43.60251" lon="5.94516">
        <ele>322</ele>
        <time>2024-04-07T06:51:11Z</time>
      </trkpt>
      <trkpt lat="43.6023" lon="5.94571">
        <ele>322</ele>
        <time>2024-04-07T06:51:19Z</time>
      </trkpt>
      <trkpt lat="43.60219" lon="5.94609">
        <ele>322</ele>
        <time>2024-04-07T06:51:25Z</time>
      </trkpt>
      <trkpt lat="43.60214" lon="5.94629">
        <ele>321</ele>
        <time>2024-04-07T06:51:27Z</time>
      </trkpt>
      <trkpt lat="43.60207" lon="5.94668">
        <ele>321</ele>
        <time>2024-04-07T06:51:33Z</time>
      </trkpt>
      <trkpt lat="43.60206" lon="5.94687">
        <ele>319</ele>
        <time>2024-04-07T06:51:35Z</time>
      </trkpt>
      <trkpt lat="43.60207" lon="5.94706">
        <ele>318</ele>
        <time>2024-04-07T06:51:37Z</time>
      </trkpt>
      <trkpt lat="43.6021" lon="5.94725">
        <ele>317</ele>
        <time>2024-04-07T06:51:40Z</time>
      </trkpt>
      <trkpt lat="43.60235" lon="5.94828">
        <ele>317</ele>
        <time>2024-04-07T06:51:54Z</time>
      </trkpt>
      <trkpt lat="43.60235" lon="5.94844">
        <ele>318</ele>
        <time>2024-04-07T06:51:56Z</time>
      </trkpt>
      <trkpt lat="43.60232" lon="5.94859">
        <ele>319</ele>
        <time>2024-04-07T06:51:58Z</time>
      </trkpt>
      <trkpt lat="43.60225" lon="5.94872">
        <ele>320</ele>
        <time>2024-04-07T06:52:00Z</time>
      </trkpt>
      <trkpt lat="43.60216" lon="5.94883">
        <ele>320</ele>
        <time>2024-04-07T06:52:02Z</time>
      </trkpt>
      <trkpt lat="43.60136" lon="5.94957">
        <ele>319</ele>
        <time>2024-04-07T06:52:19Z</time>
      </trkpt>
      <trkpt lat="43.60056" lon="5.95035">
        <ele>318</ele>
        <time>2024-04-07T06:52:37Z</time>
      </trkpt>
      <trkpt lat="43.60046" lon="5.95049">
        <ele>317</ele>
        <time>2024-04-07T06:52:39Z</time>
      </trkpt>
      <trkpt lat="43.59978" lon="5.95173">
        <ele>327</ele>
        <time>2024-04-07T06:52:59Z</time>
      </trkpt>
      <trkpt lat="43.59935" lon="5.95219">
        <ele>325</ele>
        <time>2024-04-07T06:53:09Z</time>
      </trkpt>
      <trkpt lat="43.59933" lon="5.95224">
        <ele>325</ele>
        <time>2024-04-07T06:53:10Z</time>
      </trkpt>
      <trkpt lat="43.5993" lon="5.95238">
        <ele>325</ele>
        <time>2024-04-07T06:53:12Z</time>
      </trkpt>
      <trkpt lat="43.5993" lon="5.95246">
        <ele>326</ele>
        <time>2024-04-07T06:53:13Z</time>
      </trkpt>
      <trkpt lat="43.59942" lon="5.95298">
        <ele>331</ele>
        <time>2024-04-07T06:53:20Z</time>
      </trkpt>
      <trkpt lat="43.59943" lon="5.95327">
        <ele>332</ele>
        <time>2024-04-07T06:53:23Z</time>
      </trkpt>
      <trkpt lat="43.59942" lon="5.95347">
        <ele>333</ele>
        <time>2024-04-07T06:53:26Z</time>
      </trkpt>
      <trkpt lat="43.59933" lon="5.95391">
        <ele>334</ele>
        <time>2024-04-07T06:53:32Z</time>
      </trkpt>
      <trkpt lat="43.59928" lon="5.95404">
        <ele>333</ele>
        <time>2024-04-07T06:53:34Z</time>
      </trkpt>
      <trkpt lat="43.59914" lon="5.95428">
        <ele>332</ele>
        <time>2024-04-07T06:53:38Z</time>
      </trkpt>
      <trkpt lat="43.599" lon="5.95445">
        <ele>334</ele>
        <time>2024-04-07T06:53:41Z</time>
      </trkpt>
      <trkpt lat="43.59875" lon="5.95457">
        <ele>332</ele>
        <time>2024-04-07T06:53:46Z</time>
      </trkpt>
      <trkpt lat="43.59847" lon="5.95468">
        <ele>329</ele>
        <time>2024-04-07T06:53:51Z</time>
      </trkpt>
      <trkpt lat="43.59833" lon="5.9548">
        <ele>328</ele>
        <time>2024-04-07T06:53:54Z</time>
      </trkpt>
      <trkpt lat="43.59826" lon="5.95496">
        <ele>329</ele>
        <time>2024-04-07T06:53:56Z</time>
      </trkpt>
      <trkpt lat="43.59813" lon="5.95532">
        <ele>330</ele>
        <time>2024-04-07T06:54:02Z</time>
      </trkpt>
      <trkpt lat="43.59778" lon="5.95615">
        <ele>332</ele>
        <time>2024-04-07T06:54:14Z</time>
      </trkpt>
      <trkpt lat="43.59755" lon="5.95665">
        <ele>339</ele>
        <time>2024-04-07T06:54:22Z</time>
      </trkpt>
      <trkpt lat="43.59749" lon="5.95685">
        <ele>341</ele>
        <time>2024-04-07T06:54:24Z</time>
      </trkpt>
      <trkpt lat="43.5975" lon="5.95728">
        <ele>346</ele>
        <time>2024-04-07T06:54:30Z</time>
      </trkpt>
      <trkpt lat="43.59758" lon="5.95752">
        <ele>348</ele>
        <time>2024-04-07T06:54:33Z</time>
      </trkpt>
      <trkpt lat="43.59789" lon="5.95804">
        <ele>351</ele>
        <time>2024-04-07T06:54:42Z</time>
      </trkpt>
      <trkpt lat="43.5979" lon="5.95818">
        <ele>352</ele>
        <time>2024-04-07T06:54:44Z</time>
      </trkpt>
      <trkpt lat="43.5977" lon="5.9596">
        <ele>354</ele>
        <time>2024-04-07T06:55:02Z</time>
      </trkpt>
      <trkpt lat="43.59764" lon="5.95976">
        <ele>354</ele>
        <time>2024-04-07T06:55:05Z</time>
      </trkpt>
      <trkpt lat="43.59753" lon="5.95998">
        <ele>355</ele>
        <time>2024-04-07T06:55:08Z</time>
      </trkpt>
      <trkpt lat="43.59737" lon="5.96039">
        <ele>355</ele>
        <time>2024-04-07T06:55:14Z</time>
      </trkpt>
      <trkpt lat="43.59736" lon="5.96055">
        <ele>356</ele>
        <time>2024-04-07T06:55:16Z</time>
      </trkpt>
      <trkpt lat="43.59747" lon="5.96109">
        <ele>357</ele>
        <time>2024-04-07T06:55:23Z</time>
      </trkpt>
      <trkpt lat="43.59747" lon="5.96121">
        <ele>357</ele>
        <time>2024-04-07T06:55:25Z</time>
      </trkpt>
      <trkpt lat="43.59744" lon="5.96134">
        <ele>357</ele>
        <time>2024-04-07T06:55:27Z</time>
      </trkpt>
      <trkpt lat="43.59738" lon="5.96148">
        <ele>357</ele>
        <time>2024-04-07T06:55:29Z</time>
      </trkpt>
      <trkpt lat="43.59434" lon="5.96558">
        <ele>369</ele>
        <time>2024-04-07T06:56:45Z</time>
      </trkpt>
      <trkpt lat="43.59317" lon="5.96721">
        <ele>371</ele>
        <time>2024-04-07T06:57:14Z</time>
      </trkpt>
      <trkpt lat="43.5931" lon="5.96732">
        <ele>371</ele>
        <time>2024-04-07T06:57:16Z</time>
      </trkpt>
      <trkpt lat="43.59303" lon="5.96749">
        <ele>371</ele>
        <time>2024-04-07T06:57:18Z</time>
      </trkpt>
      <trkpt lat="43.59285" lon="5.96815">
        <ele>370</ele>
        <time>2024-04-07T06:57:28Z</time>
      </trkpt>
      <trkpt lat="43.59243" lon="5.9692">
        <ele>363</ele>
        <time>2024-04-07T06:57:43Z</time>
      </trkpt>
      <trkpt lat="43.59238" lon="5.96937">
        <ele>364</ele>
        <time>2024-04-07T06:57:45Z</time>
      </trkpt>
      <trkpt lat="43.59236" lon="5.96952">
        <ele>365</ele>
        <time>2024-04-07T06:57:47Z</time>
      </trkpt>
      <trkpt lat="43.59238" lon="5.96965">
        <ele>366</ele>
        <time>2024-04-07T06:57:49Z</time>
      </trkpt>
      <trkpt lat="43.59258" lon="5.97034">
        <ele>374</ele>
        <time>2024-04-07T06:57:59Z</time>
      </trkpt>
      <trkpt lat="43.59262" lon="5.97052">
        <ele>375</ele>
        <time>2024-04-07T06:58:01Z</time>
      </trkpt>
      <trkpt lat="43.59266" lon="5.97088">
        <ele>376</ele>
        <time>2024-04-07T06:58:06Z</time>
      </trkpt>
      <trkpt lat="43.59266" lon="5.97105">
        <ele>375</ele>
        <time>2024-04-07T06:58:08Z</time>
      </trkpt>
      <trkpt lat="43.59264" lon="5.97121">
        <ele>374</ele>
        <time>2024-04-07T06:58:10Z</time>
      </trkpt>
      <trkpt lat="43.59259" lon="5.97136">
        <ele>372</ele>
        <time>2024-04-07T06:58:12Z</time>
      </trkpt>
      <trkpt lat="43.59227" lon="5.97192">
        <ele>369</ele>
        <time>2024-04-07T06:58:21Z</time>
      </trkpt>
      <trkpt lat="43.59204" lon="5.97238">
        <ele>370</ele>
        <time>2024-04-07T06:58:29Z</time>
      </trkpt>
      <trkpt lat="43.59199" lon="5.97253">
        <ele>371</ele>
        <time>2024-04-07T06:58:31Z</time>
      </trkpt>
      <trkpt lat="43.59192" lon="5.97278">
        <ele>372</ele>
        <time>2024-04-07T06:58:34Z</time>
      </trkpt>
      <trkpt lat="43.5919" lon="5.97301">
        <ele>374</ele>
        <time>2024-04-07T06:58:37Z</time>
      </trkpt>
      <trkpt lat="43.59184" lon="5.97417">
        <ele>379</ele>
        <time>2024-04-07T06:58:52Z</time>
      </trkpt>
      <trkpt lat="43.59185" lon="5.97433">
        <ele>380</ele>
        <time>2024-04-07T06:58:54Z</time>
      </trkpt>
      <trkpt lat="43.592" lon="5.97469">
        <ele>384</ele>
        <time>2024-04-07T06:59:00Z</time>
      </trkpt>
      <trkpt lat="43.59203" lon="5.97483">
        <ele>385</ele>
        <time>2024-04-07T06:59:01Z</time>
      </trkpt>
      <trkpt lat="43.59202" lon="5.97497">
        <ele>385</ele>
        <time>2024-04-07T06:59:03Z</time>
      </trkpt>
      <trkpt lat="43.59198" lon="5.97516">
        <ele>385</ele>
        <time>2024-04-07T06:59:06Z</time>
      </trkpt>
      <trkpt lat="43.59179" lon="5.9754">
        <ele>382</ele>
        <time>2024-04-07T06:59:10Z</time>
      </trkpt>
      <trkpt lat="43.59174" lon="5.97551">
        <ele>381</ele>
        <time>2024-04-07T06:59:12Z</time>
      </trkpt>
      <trkpt lat="43.59172" lon="5.97563">
        <ele>381</ele>
        <time>2024-04-07T06:59:14Z</time>
      </trkpt>
      <trkpt lat="43.59174" lon="5.97576">
        <ele>382</ele>
        <time>2024-04-07T06:59:15Z</time>
      </trkpt>
      <trkpt lat="43.59179" lon="5.97588">
        <ele>384</ele>
        <time>2024-04-07T06:59:17Z</time>
      </trkpt>
      <trkpt lat="43.59236" lon="5.97687">
        <ele>390</ele>
        <time>2024-04-07T06:59:33Z</time>
      </trkpt>
      <trkpt lat="43.59244" lon="5.97699">
        <ele>391</ele>
        <time>2024-04-07T06:59:36Z</time>
      </trkpt>
      <trkpt lat="43.59262" lon="5.97715">
        <ele>392</ele>
        <time>2024-04-07T06:59:39Z</time>
      </trkpt>
      <trkpt lat="43.59312" lon="5.97729">
        <ele>398</ele>
        <time>2024-04-07T06:59:48Z</time>
      </trkpt>
      <trkpt lat="43.59325" lon="5.97734">
        <ele>399</ele>
        <time>2024-04-07T06:59:51Z</time>
      </trkpt>
      <trkpt lat="43.59348" lon="5.97749">
        <ele>401</ele>
        <time>2024-04-07T06:59:55Z</time>
      </trkpt>
      <trkpt lat="43.59369" lon="5.97772">
        <ele>402</ele>
        <time>2024-04-07T07:00:00Z</time>
      </trkpt>
      <trkpt lat="43.59412" lon="5.97846">
        <ele>402</ele>
        <time>2024-04-07T07:00:12Z</time>
      </trkpt>
      <trkpt lat="43.59427" lon="5.97876">
        <ele>402</ele>
        <time>2024-04-07T07:00:17Z</time>
      </trkpt>
      <trkpt lat="43.59443" lon="5.97926">
        <ele>401</ele>
        <time>2024-04-07T07:00:24Z</time>
      </trkpt>
      <trkpt lat="43.59453" lon="5.97977">
        <ele>400</ele>
        <time>2024-04-07T07:00:31Z</time>
      </trkpt>
      <trkpt lat="43.59463" lon="5.98011">
        <ele>399</ele>
        <time>2024-04-07T07:00:36Z</time>
      </trkpt>
      <trkpt lat="43.59471" lon="5.98026">
        <ele>399</ele>
        <time>2024-04-07T07:00:38Z</time>
      </trkpt>
      <trkpt lat="43.5948" lon="5.9804">
        <ele>399</ele>
        <time>2024-04-07T07:00:40Z</time>
      </trkpt>
      <trkpt lat="43.59497" lon="5.98059">
        <ele>398</ele>
        <time>2024-04-07T07:00:44Z</time>
      </trkpt>
      <trkpt lat="43.59516" lon="5.98073">
        <ele>398</ele>
        <time>2024-04-07T07:00:48Z</time>
      </trkpt>
      <trkpt lat="43.59606" lon="5.98106">
        <ele>403</ele>
        <time>2024-04-07T07:01:05Z</time>
      </trkpt>
      <trkpt lat="43.5962" lon="5.98113">
        <ele>404</ele>
        <time>2024-04-07T07:01:07Z</time>
      </trkpt>
      <trkpt lat="43.59632" lon="5.98123">
        <ele>404</ele>
        <time>2024-04-07T07:01:10Z</time>
      </trkpt>
      <trkpt lat="43.59642" lon="5.98136">
        <ele>405</ele>
        <time>2024-04-07T07:01:12Z</time>
      </trkpt>
      <trkpt lat="43.5965" lon="5.98152">
        <ele>405</ele>
        <time>2024-04-07T07:01:15Z</time>
      </trkpt>
      <trkpt lat="43.59656" lon="5.9817">
        <ele>405</ele>
        <time>2024-04-07T07:01:17Z</time>
      </trkpt>
      <trkpt lat="43.59721" lon="5.98505">
        <ele>394</ele>
        <time>2024-04-07T07:02:02Z</time>
      </trkpt>
      <trkpt lat="43.59724" lon="5.98527">
        <ele>393</ele>
        <time>2024-04-07T07:02:05Z</time>
      </trkpt>
      <trkpt lat="43.59723" lon="5.98548">
        <ele>392</ele>
        <time>2024-04-07T07:02:08Z</time>
      </trkpt>
      <trkpt lat="43.59718" lon="5.98568">
        <ele>392</ele>
        <time>2024-04-07T07:02:10Z</time>
      </trkpt>
      <trkpt lat="43.5971" lon="5.98587">
        <ele>391</ele>
        <time>2024-04-07T07:02:13Z</time>
      </trkpt>
      <trkpt lat="43.59701" lon="5.98605">
        <ele>390</ele>
        <time>2024-04-07T07:02:16Z</time>
      </trkpt>
      <trkpt lat="43.59544" lon="5.98853">
        <ele>384</ele>
        <time>2024-04-07T07:02:58Z</time>
      </trkpt>
      <trkpt lat="43.5954" lon="5.98865">
        <ele>383</ele>
        <time>2024-04-07T07:03:00Z</time>
      </trkpt>
      <trkpt lat="43.59539" lon="5.98878">
        <ele>383</ele>
        <time>2024-04-07T07:03:02Z</time>
      </trkpt>
      <trkpt lat="43.59542" lon="5.9889">
        <ele>382</ele>
        <time>2024-04-07T07:03:04Z</time>
      </trkpt>
      <trkpt lat="43.59548" lon="5.98901">
        <ele>381</ele>
        <time>2024-04-07T07:03:05Z</time>
      </trkpt>
      <trkpt lat="43.59557" lon="5.98911">
        <ele>381</ele>
        <time>2024-04-07T07:03:07Z</time>
      </trkpt>
      <trkpt lat="43.5964" lon="5.98984">
        <ele>376</ele>
        <time>2024-04-07T07:03:25Z</time>
      </trkpt>
      <trkpt lat="43.5965" lon="5.98995">
        <ele>376</ele>
        <time>2024-04-07T07:03:27Z</time>
      </trkpt>
      <trkpt lat="43.59659" lon="5.99008">
        <ele>375</ele>
        <time>2024-04-07T07:03:29Z</time>
      </trkpt>
      <trkpt lat="43.59664" lon="5.99023">
        <ele>375</ele>
        <time>2024-04-07T07:03:32Z</time>
      </trkpt>
      <trkpt lat="43.59668" lon="5.99041">
        <ele>376</ele>
        <time>2024-04-07T07:03:34Z</time>
      </trkpt>
      <trkpt lat="43.59668" lon="5.99107">
        <ele>375</ele>
        <time>2024-04-07T07:03:42Z</time>
      </trkpt>
      <trkpt lat="43.59665" lon="5.99129">
        <ele>373</ele>
        <time>2024-04-07T07:03:45Z</time>
      </trkpt>
      <trkpt lat="43.59562" lon="5.99592">
        <ele>367</ele>
        <time>2024-04-07T07:04:48Z</time>
      </trkpt>
      <trkpt lat="43.5953" lon="5.99675">
        <ele>366</ele>
        <time>2024-04-07T07:05:00Z</time>
      </trkpt>
      <trkpt lat="43.59442" lon="5.9987">
        <ele>362</ele>
        <time>2024-04-07T07:05:30Z</time>
      </trkpt>
      <trkpt lat="43.59393" lon="5.99974">
        <ele>360</ele>
        <time>2024-04-07T07:05:46Z</time>
      </trkpt>
      <trkpt lat="43.59385" lon="5.99995">
        <ele>360</ele>
        <time>2024-04-07T07:05:49Z</time>
      </trkpt>
      <trkpt lat="43.5938" lon="6.00017">
        <ele>359</ele>
        <time>2024-04-07T07:05:52Z</time>
      </trkpt>
      <trkpt lat="43.59378" lon="6.00063">
        <ele>358</ele>
        <time>2024-04-07T07:05:57Z</time>
      </trkpt>
      <trkpt lat="43.59382" lon="6.00135">
        <ele>356</ele>
        <time>2024-04-07T07:06:07Z</time>
      </trkpt>
      <trkpt lat="43.5939" lon="6.00181">
        <ele>356</ele>
        <time>2024-04-07T07:06:13Z</time>
      </trkpt>
      <trkpt lat="43.59396" lon="6.00203">
        <ele>355</ele>
        <time>2024-04-07T07:06:16Z</time>
      </trkpt>
      <trkpt lat="43.59431" lon="6.00311">
        <ele>353</ele>
        <time>2024-04-07T07:06:31Z</time>
      </trkpt>
      <trkpt lat="43.59435" lon="6.00333">
        <ele>353</ele>
        <time>2024-04-07T07:06:34Z</time>
      </trkpt>
      <trkpt lat="43.59442" lon="6.00382">
        <ele>352</ele>
        <time>2024-04-07T07:06:41Z</time>
      </trkpt>
      <trkpt lat="43.59444" lon="6.00431">
        <ele>351</ele>
        <time>2024-04-07T07:06:47Z</time>
      </trkpt>
      <trkpt lat="43.59442" lon="6.00457">
        <ele>351</ele>
        <time>2024-04-07T07:06:50Z</time>
      </trkpt>
      <trkpt lat="43.59434" lon="6.00507">
        <ele>350</ele>
        <time>2024-04-07T07:06:57Z</time>
      </trkpt>
      <trkpt lat="43.59348" lon="6.0098">
        <ele>352</ele>
        <time>2024-04-07T07:08:00Z</time>
      </trkpt>
      <trkpt lat="43.59347" lon="6.01021">
        <ele>354</ele>
        <time>2024-04-07T07:08:05Z</time>
      </trkpt>
      <trkpt lat="43.59351" lon="6.01081">
        <ele>356</ele>
        <time>2024-04-07T07:08:13Z</time>
      </trkpt>
      <trkpt lat="43.59352" lon="6.01177">
        <ele>361</ele>
        <time>2024-04-07T07:08:25Z</time>
      </trkpt>
      <trkpt lat="43.59344" lon="6.01384">
        <ele>365</ele>
        <time>2024-04-07T07:08:52Z</time>
      </trkpt>
      <trkpt lat="43.59343" lon="6.01398">
        <ele>365</ele>
        <time>2024-04-07T07:08:54Z</time>
      </trkpt>
      <trkpt lat="43.59338" lon="6.01415">
        <ele>366</ele>
        <time>2024-04-07T07:08:56Z</time>
      </trkpt>
      <trkpt lat="43.59333" lon="6.01423">
        <ele>366</ele>
        <time>2024-04-07T07:08:57Z</time>
      </trkpt>
      <trkpt lat="43.59322" lon="6.01429">
        <ele>366</ele>
        <time>2024-04-07T07:08:59Z</time>
      </trkpt>
      <trkpt lat="43.59331" lon="6.01449">
        <ele>368</ele>
        <time>2024-04-07T07:09:02Z</time>
      </trkpt>
      <trkpt lat="43.59329" lon="6.01468">
        <ele>369</ele>
        <time>2024-04-07T07:09:05Z</time>
      </trkpt>
      <trkpt lat="43.59333" lon="6.01541">
        <ele>372</ele>
        <time>2024-04-07T07:09:14Z</time>
      </trkpt>
      <trkpt lat="43.59332" lon="6.01558">
        <ele>373</ele>
        <time>2024-04-07T07:09:17Z</time>
      </trkpt>
      <trkpt lat="43.59325" lon="6.01613">
        <ele>373</ele>
        <time>2024-04-07T07:09:24Z</time>
      </trkpt>
      <trkpt lat="43.59327" lon="6.01649">
        <ele>373</ele>
        <time>2024-04-07T07:09:28Z</time>
      </trkpt>
      <trkpt lat="43.59326" lon="6.01704">
        <ele>373</ele>
        <time>2024-04-07T07:09:36Z</time>
      </trkpt>
      <trkpt lat="43.59315" lon="6.0178">
        <ele>372</ele>
        <time>2024-04-07T07:09:45Z</time>
      </trkpt>
      <trkpt lat="43.59311" lon="6.01833">
        <ele>370</ele>
        <time>2024-04-07T07:09:52Z</time>
      </trkpt>
      <trkpt lat="43.59311" lon="6.01864">
        <ele>370</ele>
        <time>2024-04-07T07:09:56Z</time>
      </trkpt>
      <trkpt lat="43.59313" lon="6.01888">
        <ele>370</ele>
        <time>2024-04-07T07:09:59Z</time>
      </trkpt>
      <trkpt lat="43.59309" lon="6.01894">
        <ele>370</ele>
        <time>2024-04-07T07:10:01Z</time>
      </trkpt>
      <trkpt lat="43.593" lon="6.02045">
        <ele>369</ele>
        <time>2024-04-07T07:10:20Z</time>
      </trkpt>
      <trkpt lat="43.59296" lon="6.02076">
        <ele>368</ele>
        <time>2024-04-07T07:10:24Z</time>
      </trkpt>
      <trkpt lat="43.59298" lon="6.02179">
        <ele>365</ele>
        <time>2024-04-07T07:10:37Z</time>
      </trkpt>
      <trkpt lat="43.59294" lon="6.02229">
        <ele>365</ele>
        <time>2024-04-07T07:10:44Z</time>
      </trkpt>
      <trkpt lat="43.59281" lon="6.0237">
        <ele>369</ele>
        <time>2024-04-07T07:11:02Z</time>
      </trkpt>
      <trkpt lat="43.59276" lon="6.02391">
        <ele>369</ele>
        <time>2024-04-07T07:11:05Z</time>
      </trkpt>
      <trkpt lat="43.59264" lon="6.02408">
        <ele>370</ele>
        <time>2024-04-07T07:11:08Z</time>
      </trkpt>
      <trkpt lat="43.59257" lon="6.02429">
        <ele>370</ele>
        <time>2024-04-07T07:11:11Z</time>
      </trkpt>
      <trkpt lat="43.59248" lon="6.0251">
        <ele>373</ele>
        <time>2024-04-07T07:11:22Z</time>
      </trkpt>
      <trkpt lat="43.59249" lon="6.02579">
        <ele>375</ele>
        <time>2024-04-07T07:11:31Z</time>
      </trkpt>
      <trkpt lat="43.59284" lon="6.0269">
        <ele>378</ele>
        <time>2024-04-07T07:11:46Z</time>
      </trkpt>
      <trkpt lat="43.59304" lon="6.02746">
        <ele>380</ele>
        <time>2024-04-07T07:11:54Z</time>
      </trkpt>
      <trkpt lat="43.59303" lon="6.02807">
        <ele>384</ele>
        <time>2024-04-07T07:12:02Z</time>
      </trkpt>
      <trkpt lat="43.59284" lon="6.02808">
        <ele>384</ele>
        <time>2024-04-07T07:12:05Z</time>
      </trkpt>
      <trkpt lat="43.59278" lon="6.03066">
        <ele>411</ele>
        <time>2024-04-07T07:12:39Z</time>
      </trkpt>
      <trkpt lat="43.59292" lon="6.03181">
        <ele>419</ele>
        <time>2024-04-07T07:12:54Z</time>
      </trkpt>
      <trkpt lat="43.59299" lon="6.03257">
        <ele>423</ele>
        <time>2024-04-07T07:13:04Z</time>
      </trkpt>
      <trkpt lat="43.59299" lon="6.03278">
        <ele>424</ele>
        <time>2024-04-07T07:13:06Z</time>
      </trkpt>
      <trkpt lat="43.59271" lon="6.03404">
        <ele>432</ele>
        <time>2024-04-07T07:13:23Z</time>
      </trkpt>
      <trkpt lat="43.59268" lon="6.03442">
        <ele>434</ele>
        <time>2024-04-07T07:13:28Z</time>
      </trkpt>
      <trkpt lat="43.59267" lon="6.03472">
        <ele>436</ele>
        <time>2024-04-07T07:13:32Z</time>
      </trkpt>
      <trkpt lat="43.5927" lon="6.03507">
        <ele>438</ele>
        <time>2024-04-07T07:13:37Z</time>
      </trkpt>
      <trkpt lat="43.59269" lon="6.03578">
        <ele>440</ele>
        <time>2024-04-07T07:13:46Z</time>
      </trkpt>
      <trkpt lat="43.59273" lon="6.03665">
        <ele>438</ele>
        <time>2024-04-07T07:13:57Z</time>
      </trkpt>
      <trkpt lat="43.59276" lon="6.03694">
        <ele>438</ele>
        <time>2024-04-07T07:14:01Z</time>
      </trkpt>
      <trkpt lat="43.59282" lon="6.0373">
        <ele>440</ele>
        <time>2024-04-07T07:14:06Z</time>
      </trkpt>
      <trkpt lat="43.5929" lon="6.03765">
        <ele>441</ele>
        <time>2024-04-07T07:14:10Z</time>
      </trkpt>
      <trkpt lat="43.59293" lon="6.03783">
        <ele>442</ele>
        <time>2024-04-07T07:14:13Z</time>
      </trkpt>
      <trkpt lat="43.59294" lon="6.03802">
        <ele>443</ele>
        <time>2024-04-07T07:14:15Z</time>
      </trkpt>
      <trkpt lat="43.59292" lon="6.03821">
        <ele>444</ele>
        <time>2024-04-07T07:14:18Z</time>
      </trkpt>
      <trkpt lat="43.59289" lon="6.0384">
        <ele>444</ele>
        <time>2024-04-07T07:14:20Z</time>
      </trkpt>
      <trkpt lat="43.59274" lon="6.03893">
        <ele>444</ele>
        <time>2024-04-07T07:14:27Z</time>
      </trkpt>
      <trkpt lat="43.59271" lon="6.03911">
        <ele>444</ele>
        <time>2024-04-07T07:14:30Z</time>
      </trkpt>
      <trkpt lat="43.5927" lon="6.03929">
        <ele>444</ele>
        <time>2024-04-07T07:14:32Z</time>
      </trkpt>
      <trkpt lat="43.59274" lon="6.04007">
        <ele>446</ele>
        <time>2024-04-07T07:14:42Z</time>
      </trkpt>
      <trkpt lat="43.59268" lon="6.04122">
        <ele>448</ele>
        <time>2024-04-07T07:14:57Z</time>
      </trkpt>
      <trkpt lat="43.59274" lon="6.04265">
        <ele>449</ele>
        <time>2024-04-07T07:15:16Z</time>
      </trkpt>
      <trkpt lat="43.5928" lon="6.04687">
        <ele>452</ele>
        <time>2024-04-07T07:16:10Z</time>
      </trkpt>
      <trkpt lat="43.59282" lon="6.04709">
        <ele>452</ele>
        <time>2024-04-07T07:16:13Z</time>
      </trkpt>
      <trkpt lat="43.59287" lon="6.04731">
        <ele>452</ele>
        <time>2024-04-07T07:16:16Z</time>
      </trkpt>
      <trkpt lat="43.59316" lon="6.04815">
        <ele>453</ele>
        <time>2024-04-07T07:16:28Z</time>
      </trkpt>
      <trkpt lat="43.59329" lon="6.04858">
        <ele>454</ele>
        <time>2024-04-07T07:16:34Z</time>
      </trkpt>
      <trkpt lat="43.59333" lon="6.04878">
        <ele>454</ele>
        <time>2024-04-07T07:16:36Z</time>
      </trkpt>
      <trkpt lat="43.59333" lon="6.04899">
        <ele>455</ele>
        <time>2024-04-07T07:16:39Z</time>
      </trkpt>
      <trkpt lat="43.5933" lon="6.04919">
        <ele>455</ele>
        <time>2024-04-07T07:16:42Z</time>
      </trkpt>
      <trkpt lat="43.59302" lon="6.04998">
        <ele>459</ele>
        <time>2024-04-07T07:16:53Z</time>
      </trkpt>
      <trkpt lat="43.59297" lon="6.0502">
        <ele>460</ele>
        <time>2024-04-07T07:16:56Z</time>
      </trkpt>
      <trkpt lat="43.59283" lon="6.05112">
        <ele>463</ele>
        <time>2024-04-07T07:17:08Z</time>
      </trkpt>
      <trkpt lat="43.59281" lon="6.05134">
        <ele>464</ele>
        <time>2024-04-07T07:17:11Z</time>
      </trkpt>
      <trkpt lat="43.59282" lon="6.05157">
        <ele>464</ele>
        <time>2024-04-07T07:17:14Z</time>
      </trkpt>
      <trkpt lat="43.59285" lon="6.05181">
        <ele>465</ele>
        <time>2024-04-07T07:17:17Z</time>
      </trkpt>
      <trkpt lat="43.59303" lon="6.05274">
        <ele>469</ele>
        <time>2024-04-07T07:17:30Z</time>
      </trkpt>
      <trkpt lat="43.59305" lon="6.05297">
        <ele>469</ele>
        <time>2024-04-07T07:17:33Z</time>
      </trkpt>
      <trkpt lat="43.59305" lon="6.05319">
        <ele>470</ele>
        <time>2024-04-07T07:17:35Z</time>
      </trkpt>
      <trkpt lat="43.59301" lon="6.0534">
        <ele>470</ele>
        <time>2024-04-07T07:17:38Z</time>
      </trkpt>
      <trkpt lat="43.59284" lon="6.05396">
        <ele>471</ele>
        <time>2024-04-07T07:17:46Z</time>
      </trkpt>
      <trkpt lat="43.59281" lon="6.05415">
        <ele>471</ele>
        <time>2024-04-07T07:17:48Z</time>
      </trkpt>
      <trkpt lat="43.59282" lon="6.05494">
        <ele>471</ele>
        <time>2024-04-07T07:17:59Z</time>
      </trkpt>
      <trkpt lat="43.59285" lon="6.05512">
        <ele>472</ele>
        <time>2024-04-07T07:18:01Z</time>
      </trkpt>
      <trkpt lat="43.59291" lon="6.05529">
        <ele>473</ele>
        <time>2024-04-07T07:18:03Z</time>
      </trkpt>
      <trkpt lat="43.59327" lon="6.05599">
        <ele>473</ele>
        <time>2024-04-07T07:18:15Z</time>
      </trkpt>
      <trkpt lat="43.59343" lon="6.0564">
        <ele>473</ele>
        <time>2024-04-07T07:18:21Z</time>
      </trkpt>
      <trkpt lat="43.59349" lon="6.05663">
        <ele>473</ele>
        <time>2024-04-07T07:18:24Z</time>
      </trkpt>
      <trkpt lat="43.59419" lon="6.05999">
        <ele>474</ele>
        <time>2024-04-07T07:19:09Z</time>
      </trkpt>
      <trkpt lat="43.59423" lon="6.06022">
        <ele>476</ele>
        <time>2024-04-07T07:19:12Z</time>
      </trkpt>
      <trkpt lat="43.59425" lon="6.06045">
        <ele>476</ele>
        <time>2024-04-07T07:19:15Z</time>
      </trkpt>
      <trkpt lat="43.59424" lon="6.06068">
        <ele>477</ele>
        <time>2024-04-07T07:19:18Z</time>
      </trkpt>
      <trkpt lat="43.5942" lon="6.06091">
        <ele>477</ele>
        <time>2024-04-07T07:19:21Z</time>
      </trkpt>
      <trkpt lat="43.59414" lon="6.06113">
        <ele>476</ele>
        <time>2024-04-07T07:19:24Z</time>
      </trkpt>
      <trkpt lat="43.59366" lon="6.06255">
        <ele>476</ele>
        <time>2024-04-07T07:19:44Z</time>
      </trkpt>
      <trkpt lat="43.593" lon="6.06484">
        <ele>482</ele>
        <time>2024-04-07T07:20:16Z</time>
      </trkpt>
      <trkpt lat="43.59251" lon="6.06664">
        <ele>481</ele>
        <time>2024-04-07T07:20:41Z</time>
      </trkpt>
      <trkpt lat="43.59227" lon="6.06733">
        <ele>480</ele>
        <time>2024-04-07T07:20:50Z</time>
      </trkpt>
      <trkpt lat="43.59207" lon="6.06802">
        <ele>477</ele>
        <time>2024-04-07T07:21:00Z</time>
      </trkpt>
      <trkpt lat="43.59202" lon="6.06826">
        <ele>475</ele>
        <time>2024-04-07T07:21:03Z</time>
      </trkpt>
      <trkpt lat="43.592" lon="6.06849">
        <ele>474</ele>
        <time>2024-04-07T07:21:06Z</time>
      </trkpt>
      <trkpt lat="43.592" lon="6.06895">
        <ele>474</ele>
        <time>2024-04-07T07:21:12Z</time>
      </trkpt>
      <trkpt lat="43.59203" lon="6.06919">
        <ele>474</ele>
        <time>2024-04-07T07:21:15Z</time>
      </trkpt>
      <trkpt lat="43.59275" lon="6.07183">
        <ele>465</ele>
        <time>2024-04-07T07:21:52Z</time>
      </trkpt>
      <trkpt lat="43.59292" lon="6.07232">
        <ele>464</ele>
        <time>2024-04-07T07:21:59Z</time>
      </trkpt>
      <trkpt lat="43.59323" lon="6.07297">
        <ele>464</ele>
        <time>2024-04-07T07:22:09Z</time>
      </trkpt>
      <trkpt lat="43.59331" lon="6.0732">
        <ele>463</ele>
        <time>2024-04-07T07:22:12Z</time>
      </trkpt>
      <trkpt lat="43.59337" lon="6.07344">
        <ele>462</ele>
        <time>2024-04-07T07:22:15Z</time>
      </trkpt>
      <trkpt lat="43.59341" lon="6.07369">
        <ele>462</ele>
        <time>2024-04-07T07:22:19Z</time>
      </trkpt>
      <trkpt lat="43.59346" lon="6.07443">
        <ele>460</ele>
        <time>2024-04-07T07:22:28Z</time>
      </trkpt>
      <trkpt lat="43.59345" lon="6.07465">
        <ele>459</ele>
        <time>2024-04-07T07:22:31Z</time>
      </trkpt>
      <trkpt lat="43.59341" lon="6.07485">
        <ele>458</ele>
        <time>2024-04-07T07:22:34Z</time>
      </trkpt>
      <trkpt lat="43.59334" lon="6.07504">
        <ele>456</ele>
        <time>2024-04-07T07:22:36Z</time>
      </trkpt>
      <trkpt lat="43.59324" lon="6.07521">
        <ele>454</ele>
        <time>2024-04-07T07:22:39Z</time>
      </trkpt>
      <trkpt lat="43.593" lon="6.07551">
        <ele>449</ele>
        <time>2024-04-07T07:22:45Z</time>
      </trkpt>
      <trkpt lat="43.59259" lon="6.07595">
        <ele>443</ele>
        <time>2024-04-07T07:22:54Z</time>
      </trkpt>
      <trkpt lat="43.59232" lon="6.07629">
        <ele>442</ele>
        <time>2024-04-07T07:23:01Z</time>
      </trkpt>
      <trkpt lat="43.59207" lon="6.07666">
        <ele>443</ele>
        <time>2024-04-07T07:23:07Z</time>
      </trkpt>
      <trkpt lat="43.59198" lon="6.07683">
        <ele>444</ele>
        <time>2024-04-07T07:23:10Z</time>
      </trkpt>
      <trkpt lat="43.59196" lon="6.07693">
        <ele>444</ele>
        <time>2024-04-07T07:23:11Z</time>
      </trkpt>
      <trkpt lat="43.59193" lon="6.07705">
        <ele>444</ele>
        <time>2024-04-07T07:23:13Z</time>
      </trkpt>
      <trkpt lat="43.59191" lon="6.07722">
        <ele>444</ele>
        <time>2024-04-07T07:23:15Z</time>
      </trkpt>
      <trkpt lat="43.59212" lon="6.08097">
        <ele>434</ele>
        <time>2024-04-07T07:24:04Z</time>
      </trkpt>
      <trkpt lat="43.59219" lon="6.08158">
        <ele>435</ele>
        <time>2024-04-07T07:24:12Z</time>
      </trkpt>
      <trkpt lat="43.59234" lon="6.08258">
        <ele>433</ele>
        <time>2024-04-07T07:24:25Z</time>
      </trkpt>
      <trkpt lat="43.5924" lon="6.08336">
        <ele>431</ele>
        <time>2024-04-07T07:24:35Z</time>
      </trkpt>
      <trkpt lat="43.59248" lon="6.08881">
        <ele>423</ele>
        <time>2024-04-07T07:25:45Z</time>
      </trkpt>
      <trkpt lat="43.59253" lon="6.09036">
        <ele>424</ele>
        <time>2024-04-07T07:26:05Z</time>
      </trkpt>
      <trkpt lat="43.59249" lon="6.09068">
        <ele>425</ele>
        <time>2024-04-07T07:26:09Z</time>
      </trkpt>
      <trkpt lat="43.59242" lon="6.09091">
        <ele>425</ele>
        <time>2024-04-07T07:26:12Z</time>
      </trkpt>
      <trkpt lat="43.59223" lon="6.09115">
        <ele>424</ele>
        <time>2024-04-07T07:26:17Z</time>
      </trkpt>
      <trkpt lat="43.59151" lon="6.09151">
        <ele>421</ele>
        <time>2024-04-07T07:26:31Z</time>
      </trkpt>
      <trkpt lat="43.59126" lon="6.09165">
        <ele>421</ele>
        <time>2024-04-07T07:26:35Z</time>
      </trkpt>
      <trkpt lat="43.59107" lon="6.09179">
        <ele>422</ele>
        <time>2024-04-07T07:26:39Z</time>
      </trkpt>
      <trkpt lat="43.58812" lon="6.09421">
        <ele>430</ele>
        <time>2024-04-07T07:27:40Z</time>
      </trkpt>
      <trkpt lat="43.58765" lon="6.09449">
        <ele>431</ele>
        <time>2024-04-07T07:27:49Z</time>
      </trkpt>
      <trkpt lat="43.58671" lon="6.09497">
        <ele>435</ele>
        <time>2024-04-07T07:28:07Z</time>
      </trkpt>
      <trkpt lat="43.58645" lon="6.09515">
        <ele>435</ele>
        <time>2024-04-07T07:28:12Z</time>
      </trkpt>
      <trkpt lat="43.58584" lon="6.0957">
        <ele>437</ele>
        <time>2024-04-07T07:28:25Z</time>
      </trkpt>
      <trkpt lat="43.5856" lon="6.09597">
        <ele>438</ele>
        <time>2024-04-07T07:28:31Z</time>
      </trkpt>
      <trkpt lat="43.58514" lon="6.09642">
        <ele>441</ele>
        <time>2024-04-07T07:28:41Z</time>
      </trkpt>
      <trkpt lat="43.58502" lon="6.09651">
        <ele>442</ele>
        <time>2024-04-07T07:28:43Z</time>
      </trkpt>
      <trkpt lat="43.58429" lon="6.09683">
        <ele>446</ele>
        <time>2024-04-07T07:28:57Z</time>
      </trkpt>
      <trkpt lat="43.58416" lon="6.09692">
        <ele>448</ele>
        <time>2024-04-07T07:29:00Z</time>
      </trkpt>
      <trkpt lat="43.584" lon="6.09708">
        <ele>450</ele>
        <time>2024-04-07T07:29:03Z</time>
      </trkpt>
      <trkpt lat="43.58389" lon="6.09722">
        <ele>451</ele>
        <time>2024-04-07T07:29:06Z</time>
      </trkpt>
      <trkpt lat="43.58381" lon="6.09736">
        <ele>451</ele>
        <time>2024-04-07T07:29:08Z</time>
      </trkpt>
      <trkpt lat="43.58366" lon="6.09772">
        <ele>452</ele>
        <time>2024-04-07T07:29:13Z</time>
      </trkpt>
      <trkpt lat="43.58362" lon="6.09794">
        <ele>453</ele>
        <time>2024-04-07T07:29:16Z</time>
      </trkpt>
      <trkpt lat="43.58359" lon="6.09817">
        <ele>454</ele>
        <time>2024-04-07T07:29:19Z</time>
      </trkpt>
      <trkpt lat="43.58362" lon="6.09863">
        <ele>456</ele>
        <time>2024-04-07T07:29:25Z</time>
      </trkpt>
      <trkpt lat="43.58376" lon="6.09947">
        <ele>460</ele>
        <time>2024-04-07T07:29:36Z</time>
      </trkpt>
      <trkpt lat="43.58376" lon="6.09967">
        <ele>461</ele>
        <time>2024-04-07T07:29:39Z</time>
      </trkpt>
      <trkpt lat="43.58374" lon="6.09997">
        <ele>462</ele>
        <time>2024-04-07T07:29:43Z</time>
      </trkpt>
      <trkpt lat="43.58365" lon="6.10035">
        <ele>463</ele>
        <time>2024-04-07T07:29:48Z</time>
      </trkpt>
      <trkpt lat="43.58358" lon="6.10052">
        <ele>463</ele>
        <time>2024-04-07T07:29:51Z</time>
      </trkpt>
      <trkpt lat="43.58323" lon="6.1011">
        <ele>463</ele>
        <time>2024-04-07T07:30:00Z</time>
      </trkpt>
      <trkpt lat="43.58277" lon="6.10173">
        <ele>464</ele>
        <time>2024-04-07T07:30:12Z</time>
      </trkpt>
      <trkpt lat="43.58269" lon="6.1019">
        <ele>464</ele>
        <time>2024-04-07T07:30:14Z</time>
      </trkpt>
      <trkpt lat="43.58229" lon="6.10308">
        <ele>470</ele>
        <time>2024-04-07T07:30:31Z</time>
      </trkpt>
      <trkpt lat="43.58217" lon="6.10334">
        <ele>471</ele>
        <time>2024-04-07T07:30:35Z</time>
      </trkpt>
      <trkpt lat="43.58199" lon="6.10368">
        <ele>473</ele>
        <time>2024-04-07T07:30:41Z</time>
      </trkpt>
      <trkpt lat="43.58132" lon="6.10469">
        <ele>476</ele>
        <time>2024-04-07T07:30:58Z</time>
      </trkpt>
      <trkpt lat="43.58094" lon="6.1054">
        <ele>476</ele>
        <time>2024-04-07T07:31:10Z</time>
      </trkpt>
      <trkpt lat="43.58074" lon="6.10573">
        <ele>475</ele>
        <time>2024-04-07T07:31:15Z</time>
      </trkpt>
      <trkpt lat="43.58003" lon="6.10658">
        <ele>474</ele>
        <time>2024-04-07T07:31:32Z</time>
      </trkpt>
      <trkpt lat="43.57928" lon="6.10755">
        <ele>471</ele>
        <time>2024-04-07T07:31:50Z</time>
      </trkpt>
      <trkpt lat="43.57907" lon="6.10793">
        <ele>469</ele>
        <time>2024-04-07T07:31:56Z</time>
      </trkpt>
      <trkpt lat="43.57865" lon="6.10892">
        <ele>466</ele>
        <time>2024-04-07T07:32:11Z</time>
      </trkpt>
      <trkpt lat="43.57852" lon="6.10932">
        <ele>465</ele>
        <time>2024-04-07T07:32:17Z</time>
      </trkpt>
      <trkpt lat="43.57843" lon="6.10973">
        <ele>464</ele>
        <time>2024-04-07T07:32:22Z</time>
      </trkpt>
      <trkpt lat="43.57826" lon="6.11076">
        <ele>462</ele>
        <time>2024-04-07T07:32:36Z</time>
      </trkpt>
      <trkpt lat="43.57817" lon="6.11123">
        <ele>463</ele>
        <time>2024-04-07T07:32:42Z</time>
      </trkpt>
      <trkpt lat="43.57801" lon="6.11161">
        <ele>463</ele>
        <time>2024-04-07T07:32:48Z</time>
      </trkpt>
      <trkpt lat="43.57739" lon="6.11253">
        <ele>462</ele>
        <time>2024-04-07T07:33:04Z</time>
      </trkpt>
      <trkpt lat="43.57708" lon="6.11313">
        <ele>459</ele>
        <time>2024-04-07T07:33:14Z</time>
      </trkpt>
      <trkpt lat="43.57604" lon="6.1157">
        <ele>457</ele>
        <time>2024-04-07T07:33:52Z</time>
      </trkpt>
      <trkpt lat="43.57467" lon="6.11971">
        <ele>453</ele>
        <time>2024-04-07T07:34:49Z</time>
      </trkpt>
      <trkpt lat="43.5745" lon="6.12032">
        <ele>455</ele>
        <time>2024-04-07T07:34:57Z</time>
      </trkpt>
      <trkpt lat="43.57443" lon="6.12083">
        <ele>457</ele>
        <time>2024-04-07T07:35:04Z</time>
      </trkpt>
      <trkpt lat="43.57444" lon="6.12224">
        <ele>460</ele>
        <time>2024-04-07T07:35:22Z</time>
      </trkpt>
      <trkpt lat="43.57442" lon="6.1227">
        <ele>460</ele>
        <time>2024-04-07T07:35:28Z</time>
      </trkpt>
      <trkpt lat="43.57433" lon="6.12356">
        <ele>461</ele>
        <time>2024-04-07T07:35:39Z</time>
      </trkpt>
      <trkpt lat="43.57429" lon="6.12375">
        <ele>462</ele>
        <time>2024-04-07T07:35:42Z</time>
      </trkpt>
      <trkpt lat="43.57417" lon="6.12409">
        <ele>462</ele>
        <time>2024-04-07T07:35:47Z</time>
      </trkpt>
      <trkpt lat="43.57399" lon="6.12437">
        <ele>461</ele>
        <time>2024-04-07T07:35:51Z</time>
      </trkpt>
      <trkpt lat="43.57389" lon="6.12449">
        <ele>461</ele>
        <time>2024-04-07T07:35:54Z</time>
      </trkpt>
      <trkpt lat="43.57378" lon="6.12458">
        <ele>461</ele>
        <time>2024-04-07T07:35:56Z</time>
      </trkpt>
      <trkpt lat="43.57366" lon="6.12466">
        <ele>460</ele>
        <time>2024-04-07T07:35:58Z</time>
      </trkpt>
      <trkpt lat="43.5734" lon="6.12477">
        <ele>460</ele>
        <time>2024-04-07T07:36:03Z</time>
      </trkpt>
      <trkpt lat="43.57326" lon="6.1248">
        <ele>460</ele>
        <time>2024-04-07T07:36:06Z</time>
      </trkpt>
      <trkpt lat="43.57167" lon="6.12441">
        <ele>451</ele>
        <time>2024-04-07T07:36:34Z</time>
      </trkpt>
      <trkpt lat="43.57142" lon="6.12437">
        <ele>450</ele>
        <time>2024-04-07T07:36:39Z</time>
      </trkpt>
      <trkpt lat="43.57113" lon="6.12444">
        <ele>449</ele>
        <time>2024-04-07T07:36:44Z</time>
      </trkpt>
      <trkpt lat="43.57087" lon="6.12458">
        <ele>447</ele>
        <time>2024-04-07T07:36:49Z</time>
      </trkpt>
      <trkpt lat="43.57075" lon="6.12469">
        <ele>447</ele>
        <time>2024-04-07T07:36:52Z</time>
      </trkpt>
      <trkpt lat="43.57065" lon="6.1248">
        <ele>447</ele>
        <time>2024-04-07T07:36:54Z</time>
      </trkpt>
      <trkpt lat="43.57046" lon="6.12511">
        <ele>447</ele>
        <time>2024-04-07T07:36:59Z</time>
      </trkpt>
      <trkpt lat="43.57039" lon="6.12529">
        <ele>447</ele>
        <time>2024-04-07T07:37:02Z</time>
      </trkpt>
      <trkpt lat="43.57033" lon="6.12553">
        <ele>447</ele>
        <time>2024-04-07T07:37:05Z</time>
      </trkpt>
      <trkpt lat="43.57029" lon="6.12579">
        <ele>446</ele>
        <time>2024-04-07T07:37:09Z</time>
      </trkpt>
      <trkpt lat="43.57016" lon="6.12753">
        <ele>443</ele>
        <time>2024-04-07T07:37:31Z</time>
      </trkpt>
      <trkpt lat="43.57013" lon="6.12828">
        <ele>440</ele>
        <time>2024-04-07T07:37:41Z</time>
      </trkpt>
      <trkpt lat="43.57015" lon="6.12864">
        <ele>440</ele>
        <time>2024-04-07T07:37:45Z</time>
      </trkpt>
      <trkpt lat="43.57022" lon="6.12918">
        <ele>439</ele>
        <time>2024-04-07T07:37:52Z</time>
      </trkpt>
      <trkpt lat="43.57023" lon="6.12952">
        <ele>438</ele>
        <time>2024-04-07T07:37:57Z</time>
      </trkpt>
      <trkpt lat="43.57022" lon="6.12969">
        <ele>438</ele>
        <time>2024-04-07T07:37:59Z</time>
      </trkpt>
      <trkpt lat="43.57016" lon="6.13002">
        <ele>437</ele>
        <time>2024-04-07T07:38:03Z</time>
      </trkpt>
      <trkpt lat="43.56999" lon="6.13047">
        <ele>434</ele>
        <time>2024-04-07T07:38:10Z</time>
      </trkpt>
      <trkpt lat="43.56956" lon="6.13114">
        <ele>432</ele>
        <time>2024-04-07T07:38:22Z</time>
      </trkpt>
      <trkpt lat="43.56943" lon="6.13149">
        <ele>428</ele>
        <time>2024-04-07T07:38:27Z</time>
      </trkpt>
      <trkpt lat="43.56928" lon="6.13203">
        <ele>422</ele>
        <time>2024-04-07T07:38:34Z</time>
      </trkpt>
      <trkpt lat="43.56881" lon="6.13294">
        <ele>414</ele>
        <time>2024-04-07T07:38:48Z</time>
      </trkpt>
      <trkpt lat="43.56858" lon="6.13347">
        <ele>413</ele>
        <time>2024-04-07T07:38:56Z</time>
      </trkpt>
      <trkpt lat="43.56832" lon="6.13425">
        <ele>412</ele>
        <time>2024-04-07T07:39:08Z</time>
      </trkpt>
      <trkpt lat="43.56833" lon="6.13434">
        <ele>413</ele>
        <time>2024-04-07T07:39:09Z</time>
      </trkpt>
      <trkpt lat="43.56846" lon="6.13443">
        <ele>413</ele>
        <time>2024-04-07T07:39:11Z</time>
      </trkpt>
      <trkpt lat="43.56861" lon="6.13462">
        <ele>414</ele>
        <time>2024-04-07T07:39:15Z</time>
      </trkpt>
      <trkpt lat="43.56873" lon="6.13484">
        <ele>414</ele>
        <time>2024-04-07T07:39:18Z</time>
      </trkpt>
      <trkpt lat="43.56905" lon="6.13628">
        <ele>413</ele>
        <time>2024-04-07T07:39:38Z</time>
      </trkpt>
      <trkpt lat="43.5691" lon="6.13664">
        <ele>412</ele>
        <time>2024-04-07T07:39:43Z</time>
      </trkpt>
      <trkpt lat="43.56911" lon="6.13725">
        <ele>411</ele>
        <time>2024-04-07T07:39:50Z</time>
      </trkpt>
      <trkpt lat="43.56908" lon="6.13773">
        <ele>411</ele>
        <time>2024-04-07T07:39:57Z</time>
      </trkpt>
      <trkpt lat="43.56855" lon="6.14066">
        <ele>400</ele>
        <time>2024-04-07T07:40:36Z</time>
      </trkpt>
      <trkpt lat="43.56843" lon="6.14104">
        <ele>398</ele>
        <time>2024-04-07T07:40:41Z</time>
      </trkpt>
      <trkpt lat="43.56827" lon="6.14143">
        <ele>398</ele>
        <time>2024-04-07T07:40:47Z</time>
      </trkpt>
      <trkpt lat="43.56728" lon="6.14362">
        <ele>400</ele>
        <time>2024-04-07T07:41:20Z</time>
      </trkpt>
      <trkpt lat="43.56719" lon="6.1441">
        <ele>402</ele>
        <time>2024-04-07T07:41:26Z</time>
      </trkpt>
      <trkpt lat="43.56718" lon="6.14443">
        <ele>403</ele>
        <time>2024-04-07T07:41:31Z</time>
      </trkpt>
      <trkpt lat="43.56721" lon="6.14478">
        <ele>404</ele>
        <time>2024-04-07T07:41:35Z</time>
      </trkpt>
      <trkpt lat="43.56726" lon="6.14502">
        <ele>405</ele>
        <time>2024-04-07T07:41:38Z</time>
      </trkpt>
      <trkpt lat="43.56745" lon="6.14573">
        <ele>407</ele>
        <time>2024-04-07T07:41:48Z</time>
      </trkpt>
      <trkpt lat="43.5675" lon="6.14606">
        <ele>406</ele>
        <time>2024-04-07T07:41:53Z</time>
      </trkpt>
      <trkpt lat="43.5675" lon="6.14623">
        <ele>406</ele>
        <time>2024-04-07T07:41:55Z</time>
      </trkpt>
      <trkpt lat="43.56742" lon="6.15013">
        <ele>405</ele>
        <time>2024-04-07T07:42:45Z</time>
      </trkpt>
      <trkpt lat="43.56746" lon="6.15123">
        <ele>401</ele>
        <time>2024-04-07T07:42:59Z</time>
      </trkpt>
      <trkpt lat="43.5674" lon="6.1561">
        <ele>399</ele>
        <time>2024-04-07T07:44:02Z</time>
      </trkpt>
      <trkpt lat="43.56734" lon="6.1585">
        <ele>401</ele>
        <time>2024-04-07T07:44:33Z</time>
      </trkpt>
      <trkpt lat="43.56727" lon="6.15972">
        <ele>398</ele>
        <time>2024-04-07T07:44:49Z</time>
      </trkpt>
      <trkpt lat="43.56732" lon="6.1603">
        <ele>395</ele>
        <time>2024-04-07T07:44:56Z</time>
      </trkpt>
      <trkpt lat="43.56741" lon="6.16083">
        <ele>393</ele>
        <time>2024-04-07T07:45:03Z</time>
      </trkpt>
      <trkpt lat="43.56825" lon="6.16367">
        <ele>379</ele>
        <time>2024-04-07T07:45:43Z</time>
      </trkpt>
      <trkpt lat="43.56834" lon="6.16411">
        <ele>378</ele>
        <time>2024-04-07T07:45:49Z</time>
      </trkpt>
      <trkpt lat="43.56843" lon="6.16463">
        <ele>381</ele>
        <time>2024-04-07T07:45:56Z</time>
      </trkpt>
      <trkpt lat="43.56851" lon="6.16549">
        <ele>385</ele>
        <time>2024-04-07T07:46:07Z</time>
      </trkpt>
      <trkpt lat="43.5685" lon="6.16584">
        <ele>386</ele>
        <time>2024-04-07T07:46:11Z</time>
      </trkpt>
      <trkpt lat="43.56847" lon="6.16598">
        <ele>385</ele>
        <time>2024-04-07T07:46:13Z</time>
      </trkpt>
      <trkpt lat="43.56839" lon="6.16622">
        <ele>383</ele>
        <time>2024-04-07T07:46:17Z</time>
      </trkpt>
      <trkpt lat="43.56793" lon="6.16701">
        <ele>382</ele>
        <time>2024-04-07T07:46:30Z</time>
      </trkpt>
      <trkpt lat="43.56783" lon="6.16724">
        <ele>381</ele>
        <time>2024-04-07T07:46:33Z</time>
      </trkpt>
      <trkpt lat="43.56776" lon="6.16748">
        <ele>381</ele>
        <time>2024-04-07T07:46:36Z</time>
      </trkpt>
      <trkpt lat="43.5677" lon="6.16774">
        <ele>382</ele>
        <time>2024-04-07T07:46:40Z</time>
      </trkpt>
      <trkpt lat="43.56767" lon="6.16802">
        <ele>383</ele>
        <time>2024-04-07T07:46:44Z</time>
      </trkpt>
      <trkpt lat="43.56772" lon="6.1686">
        <ele>384</ele>
        <time>2024-04-07T07:46:51Z</time>
      </trkpt>
      <trkpt lat="43.56783" lon="6.16914">
        <ele>386</ele>
        <time>2024-04-07T07:46:58Z</time>
      </trkpt>
      <trkpt lat="43.56864" lon="6.17184">
        <ele>382</ele>
        <time>2024-04-07T07:47:36Z</time>
      </trkpt>
      <trkpt lat="43.56877" lon="6.1723">
        <ele>381</ele>
        <time>2024-04-07T07:47:42Z</time>
      </trkpt>
      <trkpt lat="43.56883" lon="6.17262">
        <ele>380</ele>
        <time>2024-04-07T07:47:47Z</time>
      </trkpt>
      <trkpt lat="43.56883" lon="6.17275">
        <ele>381</ele>
        <time>2024-04-07T07:47:48Z</time>
      </trkpt>
      <trkpt lat="43.56881" lon="6.17288">
        <ele>381</ele>
        <time>2024-04-07T07:47:50Z</time>
      </trkpt>
      <trkpt lat="43.5686" lon="6.17379">
        <ele>383</ele>
        <time>2024-04-07T07:48:02Z</time>
      </trkpt>
      <trkpt lat="43.56848" lon="6.17406">
        <ele>383</ele>
        <time>2024-04-07T07:48:06Z</time>
      </trkpt>
      <trkpt lat="43.56828" lon="6.1744">
        <ele>384</ele>
        <time>2024-04-07T07:48:12Z</time>
      </trkpt>
      <trkpt lat="43.56822" lon="6.17458">
        <ele>385</ele>
        <time>2024-04-07T07:48:15Z</time>
      </trkpt>
      <trkpt lat="43.56817" lon="6.17481">
        <ele>385</ele>
        <time>2024-04-07T07:48:18Z</time>
      </trkpt>
      <trkpt lat="43.56814" lon="6.17505">
        <ele>385</ele>
        <time>2024-04-07T07:48:21Z</time>
      </trkpt>
      <trkpt lat="43.56812" lon="6.17578">
        <ele>385</ele>
        <time>2024-04-07T07:48:30Z</time>
      </trkpt>
      <trkpt lat="43.5681" lon="6.17602">
        <ele>384</ele>
        <time>2024-04-07T07:48:33Z</time>
      </trkpt>
      <trkpt lat="43.56806" lon="6.17623">
        <ele>384</ele>
        <time>2024-04-07T07:48:36Z</time>
      </trkpt>
      <trkpt lat="43.56798" lon="6.17647">
        <ele>384</ele>
        <time>2024-04-07T07:48:40Z</time>
      </trkpt>
      <trkpt lat="43.56781" lon="6.17686">
        <ele>385</ele>
        <time>2024-04-07T07:48:46Z</time>
      </trkpt>
      <trkpt lat="43.56767" lon="6.1771">
        <ele>386</ele>
        <time>2024-04-07T07:48:49Z</time>
      </trkpt>
      <trkpt lat="43.56738" lon="6.17749">
        <ele>387</ele>
        <time>2024-04-07T07:48:57Z</time>
      </trkpt>
      <trkpt lat="43.56721" lon="6.17775">
        <ele>388</ele>
        <time>2024-04-07T07:49:01Z</time>
      </trkpt>
      <trkpt lat="43.56712" lon="6.17794">
        <ele>387</ele>
        <time>2024-04-07T07:49:04Z</time>
      </trkpt>
      <trkpt lat="43.56707" lon="6.1781">
        <ele>386</ele>
        <time>2024-04-07T07:49:06Z</time>
      </trkpt>
      <trkpt lat="43.56701" lon="6.17844">
        <ele>384</ele>
        <time>2024-04-07T07:49:11Z</time>
      </trkpt>
      <trkpt lat="43.56688" lon="6.17969">
        <ele>378</ele>
        <time>2024-04-07T07:49:27Z</time>
      </trkpt>
      <trkpt lat="43.56687" lon="6.18017">
        <ele>376</ele>
        <time>2024-04-07T07:49:33Z</time>
      </trkpt>
      <trkpt lat="43.56691" lon="6.18029">
        <ele>375</ele>
        <time>2024-04-07T07:49:35Z</time>
      </trkpt>
      <trkpt lat="43.56699" lon="6.18045">
        <ele>374</ele>
        <time>2024-04-07T07:49:38Z</time>
      </trkpt>
      <trkpt lat="43.5671" lon="6.18049">
        <ele>374</ele>
        <time>2024-04-07T07:49:40Z</time>
      </trkpt>
      <trkpt lat="43.56814" lon="6.18059">
        <ele>370</ele>
        <time>2024-04-07T07:49:58Z</time>
      </trkpt>
      <trkpt lat="43.56821" lon="6.18062">
        <ele>370</ele>
        <time>2024-04-07T07:49:59Z</time>
      </trkpt>
      <trkpt lat="43.56826" lon="6.18067">
        <ele>369</ele>
        <time>2024-04-07T07:50:01Z</time>
      </trkpt>
      <trkpt lat="43.56829" lon="6.18075">
        <ele>369</ele>
        <time>2024-04-07T07:50:02Z</time>
      </trkpt>
      <trkpt lat="43.56836" lon="6.18121">
        <ele>369</ele>
        <time>2024-04-07T07:50:08Z</time>
      </trkpt>
      <trkpt lat="43.56841" lon="6.18169">
        <ele>370</ele>
        <time>2024-04-07T07:50:14Z</time>
      </trkpt>
      <trkpt lat="43.56841" lon="6.18182">
        <ele>371</ele>
        <time>2024-04-07T07:50:16Z</time>
      </trkpt>
      <trkpt lat="43.56837" lon="6.18191">
        <ele>372</ele>
        <time>2024-04-07T07:50:17Z</time>
      </trkpt>
      <trkpt lat="43.56826" lon="6.18205">
        <ele>373</ele>
        <time>2024-04-07T07:50:20Z</time>
      </trkpt>
      <trkpt lat="43.5679" lon="6.18232">
        <ele>373</ele>
        <time>2024-04-07T07:50:27Z</time>
      </trkpt>
      <trkpt lat="43.5658" lon="6.18324">
        <ele>366</ele>
        <time>2024-04-07T07:51:06Z</time>
      </trkpt>
      <trkpt lat="43.56566" lon="6.18335">
        <ele>366</ele>
        <time>2024-04-07T07:51:09Z</time>
      </trkpt>
      <trkpt lat="43.5655" lon="6.18355">
        <ele>367</ele>
        <time>2024-04-07T07:51:13Z</time>
      </trkpt>
      <trkpt lat="43.56528" lon="6.18395">
        <ele>368</ele>
        <time>2024-04-07T07:51:19Z</time>
      </trkpt>
      <trkpt lat="43.56511" lon="6.18439">
        <ele>366</ele>
        <time>2024-04-07T07:51:26Z</time>
      </trkpt>
      <trkpt lat="43.5651" lon="6.18456">
        <ele>367</ele>
        <time>2024-04-07T07:51:28Z</time>
      </trkpt>
      <trkpt lat="43.56512" lon="6.18472">
        <ele>367</ele>
        <time>2024-04-07T07:51:30Z</time>
      </trkpt>
      <trkpt lat="43.56518" lon="6.18486">
        <ele>367</ele>
        <time>2024-04-07T07:51:32Z</time>
      </trkpt>
      <trkpt lat="43.56533" lon="6.18507">
        <ele>368</ele>
        <time>2024-04-07T07:51:36Z</time>
      </trkpt>
      <trkpt lat="43.56563" lon="6.18543">
        <ele>366</ele>
        <time>2024-04-07T07:51:43Z</time>
      </trkpt>
      <trkpt lat="43.56588" lon="6.18578">
        <ele>362</ele>
        <time>2024-04-07T07:51:49Z</time>
      </trkpt>
      <trkpt lat="43.56601" lon="6.18609">
        <ele>363</ele>
        <time>2024-04-07T07:51:54Z</time>
      </trkpt>
      <trkpt lat="43.56607" lon="6.18645">
        <ele>362</ele>
        <time>2024-04-07T07:51:59Z</time>
      </trkpt>
      <trkpt lat="43.56606" lon="6.18679">
        <ele>361</ele>
        <time>2024-04-07T07:52:03Z</time>
      </trkpt>
      <trkpt lat="43.56596" lon="6.18735">
        <ele>360</ele>
        <time>2024-04-07T07:52:11Z</time>
      </trkpt>
      <trkpt lat="43.56595" lon="6.18759">
        <ele>360</ele>
        <time>2024-04-07T07:52:14Z</time>
      </trkpt>
      <trkpt lat="43.56596" lon="6.18791">
        <ele>359</ele>
        <time>2024-04-07T07:52:18Z</time>
      </trkpt>
      <trkpt lat="43.56603" lon="6.18818">
        <ele>359</ele>
        <time>2024-04-07T07:52:22Z</time>
      </trkpt>
      <trkpt lat="43.5661" lon="6.18838">
        <ele>359</ele>
        <time>2024-04-07T07:52:24Z</time>
      </trkpt>
      <trkpt lat="43.56617" lon="6.1885">
        <ele>359</ele>
        <time>2024-04-07T07:52:26Z</time>
      </trkpt>
      <trkpt lat="43.56673" lon="6.18904">
        <ele>363</ele>
        <time>2024-04-07T07:52:39Z</time>
      </trkpt>
      <trkpt lat="43.56687" lon="6.18919">
        <ele>364</ele>
        <time>2024-04-07T07:52:42Z</time>
      </trkpt>
      <trkpt lat="43.567" lon="6.18939">
        <ele>363</ele>
        <time>2024-04-07T07:52:45Z</time>
      </trkpt>
      <trkpt lat="43.56707" lon="6.18957">
        <ele>362</ele>
        <time>2024-04-07T07:52:48Z</time>
      </trkpt>
      <trkpt lat="43.5672" lon="6.1901">
        <ele>358</ele>
        <time>2024-04-07T07:52:55Z</time>
      </trkpt>
      <trkpt lat="43.56726" lon="6.19022">
        <ele>357</ele>
        <time>2024-04-07T07:52:57Z</time>
      </trkpt>
      <trkpt lat="43.56737" lon="6.19036">
        <ele>357</ele>
        <time>2024-04-07T07:53:00Z</time>
      </trkpt>
      <trkpt lat="43.56756" lon="6.19048">
        <ele>358</ele>
        <time>2024-04-07T07:53:03Z</time>
      </trkpt>
      <trkpt lat="43.56807" lon="6.19061">
        <ele>363</ele>
        <time>2024-04-07T07:53:13Z</time>
      </trkpt>
      <trkpt lat="43.56831" lon="6.19073">
        <ele>364</ele>
        <time>2024-04-07T07:53:17Z</time>
      </trkpt>
      <trkpt lat="43.56844" lon="6.19088">
        <ele>363</ele>
        <time>2024-04-07T07:53:20Z</time>
      </trkpt>
      <trkpt lat="43.56882" lon="6.19143">
        <ele>361</ele>
        <time>2024-04-07T07:53:30Z</time>
      </trkpt>
      <trkpt lat="43.56893" lon="6.19153">
        <ele>361</ele>
        <time>2024-04-07T07:53:32Z</time>
      </trkpt>
      <trkpt lat="43.56908" lon="6.19161">
        <ele>362</ele>
        <time>2024-04-07T07:53:35Z</time>
      </trkpt>
      <trkpt lat="43.56925" lon="6.19164">
        <ele>363</ele>
        <time>2024-04-07T07:53:38Z</time>
      </trkpt>
      <trkpt lat="43.56992" lon="6.19166">
        <ele>359</ele>
        <time>2024-04-07T07:53:50Z</time>
      </trkpt>
      <trkpt lat="43.57008" lon="6.1917">
        <ele>358</ele>
        <time>2024-04-07T07:53:53Z</time>
      </trkpt>
      <trkpt lat="43.57033" lon="6.19187">
        <ele>355</ele>
        <time>2024-04-07T07:53:58Z</time>
      </trkpt>
      <trkpt lat="43.5716" lon="6.19298">
        <ele>349</ele>
        <time>2024-04-07T07:54:25Z</time>
      </trkpt>
      <trkpt lat="43.57185" lon="6.19316">
        <ele>347</ele>
        <time>2024-04-07T07:54:30Z</time>
      </trkpt>
      <trkpt lat="43.57211" lon="6.19328">
        <ele>345</ele>
        <time>2024-04-07T07:54:35Z</time>
      </trkpt>
      <trkpt lat="43.57242" lon="6.1933">
        <ele>345</ele>
        <time>2024-04-07T07:54:40Z</time>
      </trkpt>
      <trkpt lat="43.57266" lon="6.19326">
        <ele>345</ele>
        <time>2024-04-07T07:54:44Z</time>
      </trkpt>
      <trkpt lat="43.57288" lon="6.19314">
        <ele>346</ele>
        <time>2024-04-07T07:54:49Z</time>
      </trkpt>
      <trkpt lat="43.57324" lon="6.19278">
        <ele>350</ele>
        <time>2024-04-07T07:54:56Z</time>
      </trkpt>
      <trkpt lat="43.57341" lon="6.19266">
        <ele>351</ele>
        <time>2024-04-07T07:55:00Z</time>
      </trkpt>
      <trkpt lat="43.57354" lon="6.19259">
        <ele>351</ele>
        <time>2024-04-07T07:55:02Z</time>
      </trkpt>
      <trkpt lat="43.57375" lon="6.19256">
        <ele>349</ele>
        <time>2024-04-07T07:55:06Z</time>
      </trkpt>
      <trkpt lat="43.57394" lon="6.19257">
        <ele>347</ele>
        <time>2024-04-07T07:55:09Z</time>
      </trkpt>
      <trkpt lat="43.57407" lon="6.19262">
        <ele>346</ele>
        <time>2024-04-07T07:55:12Z</time>
      </trkpt>
      <trkpt lat="43.57418" lon="6.19276">
        <ele>344</ele>
        <time>2024-04-07T07:55:15Z</time>
      </trkpt>
      <trkpt lat="43.57421" lon="6.19296">
        <ele>343</ele>
        <time>2024-04-07T07:55:17Z</time>
      </trkpt>
      <trkpt lat="43.5742" lon="6.19319">
        <ele>341</ele>
        <time>2024-04-07T07:55:20Z</time>
      </trkpt>
      <trkpt lat="43.57416" lon="6.19343">
        <ele>339</ele>
        <time>2024-04-07T07:55:23Z</time>
      </trkpt>
      <trkpt lat="43.57371" lon="6.19478">
        <ele>335</ele>
        <time>2024-04-07T07:55:42Z</time>
      </trkpt>
      <trkpt lat="43.5733" lon="6.1959">
        <ele>328</ele>
        <time>2024-04-07T07:55:59Z</time>
      </trkpt>
      <trkpt lat="43.57251" lon="6.1984">
        <ele>319</ele>
        <time>2024-04-07T07:56:34Z</time>
      </trkpt>
      <trkpt lat="43.57213" lon="6.19953">
        <ele>319</ele>
        <time>2024-04-07T07:56:50Z</time>
      </trkpt>
      <trkpt lat="43.57206" lon="6.19983">
        <ele>319</ele>
        <time>2024-04-07T07:56:54Z</time>
      </trkpt>
      <trkpt lat="43.57205" lon="6.20003">
        <ele>320</ele>
        <time>2024-04-07T07:56:57Z</time>
      </trkpt>
      <trkpt lat="43.57208" lon="6.20027">
        <ele>320</ele>
        <time>2024-04-07T07:57:00Z</time>
      </trkpt>
      <trkpt lat="43.57214" lon="6.2005">
        <ele>321</ele>
        <time>2024-04-07T07:57:03Z</time>
      </trkpt>
      <trkpt lat="43.57238" lon="6.20105">
        <ele>324</ele>
        <time>2024-04-07T07:57:11Z</time>
      </trkpt>
      <trkpt lat="43.57247" lon="6.20133">
        <ele>325</ele>
        <time>2024-04-07T07:57:15Z</time>
      </trkpt>
      <trkpt lat="43.57252" lon="6.20169">
        <ele>325</ele>
        <time>2024-04-07T07:57:20Z</time>
      </trkpt>
      <trkpt lat="43.57261" lon="6.20328">
        <ele>324</ele>
        <time>2024-04-07T07:57:40Z</time>
      </trkpt>
      <trkpt lat="43.57257" lon="6.20363">
        <ele>325</ele>
        <time>2024-04-07T07:57:45Z</time>
      </trkpt>
      <trkpt lat="43.5725" lon="6.20385">
        <ele>325</ele>
        <time>2024-04-07T07:57:48Z</time>
      </trkpt>
      <trkpt lat="43.57242" lon="6.20396">
        <ele>326</ele>
        <time>2024-04-07T07:57:50Z</time>
      </trkpt>
      <trkpt lat="43.57232" lon="6.20402">
        <ele>326</ele>
        <time>2024-04-07T07:57:52Z</time>
      </trkpt>
      <trkpt lat="43.57219" lon="6.20403">
        <ele>326</ele>
        <time>2024-04-07T07:57:54Z</time>
      </trkpt>
      <trkpt lat="43.57166" lon="6.20394">
        <ele>324</ele>
        <time>2024-04-07T07:58:04Z</time>
      </trkpt>
      <trkpt lat="43.57111" lon="6.20382">
        <ele>321</ele>
        <time>2024-04-07T07:58:14Z</time>
      </trkpt>
      <trkpt lat="43.57099" lon="6.20382">
        <ele>321</ele>
        <time>2024-04-07T07:58:16Z</time>
      </trkpt>
      <trkpt lat="43.57084" lon="6.20387">
        <ele>321</ele>
        <time>2024-04-07T07:58:19Z</time>
      </trkpt>
      <trkpt lat="43.57068" lon="6.204">
        <ele>322</ele>
        <time>2024-04-07T07:58:22Z</time>
      </trkpt>
      <trkpt lat="43.5705" lon="6.20425">
        <ele>322</ele>
        <time>2024-04-07T07:58:26Z</time>
      </trkpt>
      <trkpt lat="43.5704" lon="6.20451">
        <ele>321</ele>
        <time>2024-04-07T07:58:30Z</time>
      </trkpt>
      <trkpt lat="43.57038" lon="6.20469">
        <ele>321</ele>
        <time>2024-04-07T07:58:33Z</time>
      </trkpt>
      <trkpt lat="43.57037" lon="6.20491">
        <ele>321</ele>
        <time>2024-04-07T07:58:35Z</time>
      </trkpt>
      <trkpt lat="43.57041" lon="6.20511">
        <ele>320</ele>
        <time>2024-04-07T07:58:38Z</time>
      </trkpt>
      <trkpt lat="43.5705" lon="6.20523">
        <ele>320</ele>
        <time>2024-04-07T07:58:40Z</time>
      </trkpt>
      <trkpt lat="43.57108" lon="6.20567">
        <ele>318</ele>
        <time>2024-04-07T07:58:52Z</time>
      </trkpt>
      <trkpt lat="43.5713" lon="6.20587">
        <ele>317</ele>
        <time>2024-04-07T07:58:57Z</time>
      </trkpt>
      <trkpt lat="43.5716" lon="6.20632">
        <ele>312</ele>
        <time>2024-04-07T07:59:05Z</time>
      </trkpt>
      <trkpt lat="43.57189" lon="6.20669">
        <ele>309</ele>
        <time>2024-04-07T07:59:12Z</time>
      </trkpt>
      <trkpt lat="43.57221" lon="6.20706">
        <ele>307</ele>
        <time>2024-04-07T07:59:19Z</time>
      </trkpt>
      <trkpt lat="43.57257" lon="6.20772">
        <ele>306</ele>
        <time>2024-04-07T07:59:30Z</time>
      </trkpt>
      <trkpt lat="43.57264" lon="6.20798">
        <ele>307</ele>
        <time>2024-04-07T07:59:33Z</time>
      </trkpt>
      <trkpt lat="43.5727" lon="6.20871">
        <ele>306</ele>
        <time>2024-04-07T07:59:43Z</time>
      </trkpt>
      <trkpt lat="43.5727" lon="6.20902">
        <ele>306</ele>
        <time>2024-04-07T07:59:47Z</time>
      </trkpt>
      <trkpt lat="43.57266" lon="6.20925">
        <ele>304</ele>
        <time>2024-04-07T07:59:50Z</time>
      </trkpt>
      <trkpt lat="43.57251" lon="6.20982">
        <ele>299</ele>
        <time>2024-04-07T07:59:58Z</time>
      </trkpt>
      <trkpt lat="43.57249" lon="6.21">
        <ele>299</ele>
        <time>2024-04-07T08:00:00Z</time>
      </trkpt>
      <trkpt lat="43.57262" lon="6.21066">
        <ele>298</ele>
        <time>2024-04-07T08:00:09Z</time>
      </trkpt>
      <trkpt lat="43.57266" lon="6.21102">
        <ele>297</ele>
        <time>2024-04-07T08:00:14Z</time>
      </trkpt>
      <trkpt lat="43.57265" lon="6.21309">
        <ele>287</ele>
        <time>2024-04-07T08:00:40Z</time>
      </trkpt>
      <trkpt lat="43.57261" lon="6.21339">
        <ele>286</ele>
        <time>2024-04-07T08:00:44Z</time>
      </trkpt>
      <trkpt lat="43.57252" lon="6.21376">
        <ele>283</ele>
        <time>2024-04-07T08:00:49Z</time>
      </trkpt>
      <trkpt lat="43.57235" lon="6.21435">
        <ele>280</ele>
        <time>2024-04-07T08:00:57Z</time>
      </trkpt>
      <trkpt lat="43.57227" lon="6.21502">
        <ele>281</ele>
        <time>2024-04-07T08:01:06Z</time>
      </trkpt>
      <trkpt lat="43.57217" lon="6.21528">
        <ele>281</ele>
        <time>2024-04-07T08:01:10Z</time>
      </trkpt>
      <trkpt lat="43.57191" lon="6.21578">
        <ele>279</ele>
        <time>2024-04-07T08:01:18Z</time>
      </trkpt>
      <trkpt lat="43.57174" lon="6.21619">
        <ele>275</ele>
        <time>2024-04-07T08:01:24Z</time>
      </trkpt>
      <trkpt lat="43.57153" lon="6.21679">
        <ele>271</ele>
        <time>2024-04-07T08:01:33Z</time>
      </trkpt>
      <trkpt lat="43.57144" lon="6.21716">
        <ele>270</ele>
        <time>2024-04-07T08:01:38Z</time>
      </trkpt>
      <trkpt lat="43.57137" lon="6.21754">
        <ele>268</ele>
        <time>2024-04-07T08:01:43Z</time>
      </trkpt>
      <trkpt lat="43.57136" lon="6.21784">
        <ele>268</ele>
        <time>2024-04-07T08:01:46Z</time>
      </trkpt>
      <trkpt lat="43.57139" lon="6.21869">
        <ele>267</ele>
        <time>2024-04-07T08:01:57Z</time>
      </trkpt>
      <trkpt lat="43.57159" lon="6.21978">
        <ele>265</ele>
        <time>2024-04-07T08:02:12Z</time>
      </trkpt>
      <trkpt lat="43.5716" lon="6.21995">
        <ele>264</ele>
        <time>2024-04-07T08:02:14Z</time>
      </trkpt>
      <trkpt lat="43.57158" lon="6.22015">
        <ele>263</ele>
        <time>2024-04-07T08:02:17Z</time>
      </trkpt>
      <trkpt lat="43.57153" lon="6.22039">
        <ele>262</ele>
        <time>2024-04-07T08:02:20Z</time>
      </trkpt>
      <trkpt lat="43.57145" lon="6.22064">
        <ele>261</ele>
        <time>2024-04-07T08:02:23Z</time>
      </trkpt>
      <trkpt lat="43.57127" lon="6.22102">
        <ele>260</ele>
        <time>2024-04-07T08:02:29Z</time>
      </trkpt>
      <trkpt lat="43.57119" lon="6.22132">
        <ele>260</ele>
        <time>2024-04-07T08:02:33Z</time>
      </trkpt>
      <trkpt lat="43.57115" lon="6.22161">
        <ele>260</ele>
        <time>2024-04-07T08:02:37Z</time>
      </trkpt>
      <trkpt lat="43.57115" lon="6.22194">
        <ele>261</ele>
        <time>2024-04-07T08:02:42Z</time>
      </trkpt>
      <trkpt lat="43.57118" lon="6.22257">
        <ele>263</ele>
        <time>2024-04-07T08:02:50Z</time>
      </trkpt>
      <trkpt lat="43.57117" lon="6.22278">
        <ele>263</ele>
        <time>2024-04-07T08:02:52Z</time>
      </trkpt>
      <trkpt lat="43.57112" lon="6.22303">
        <ele>263</ele>
        <time>2024-04-07T08:02:56Z</time>
      </trkpt>
      <trkpt lat="43.57103" lon="6.22328">
        <ele>263</ele>
        <time>2024-04-07T08:02:59Z</time>
      </trkpt>
      <trkpt lat="43.57071" lon="6.22396">
        <ele>266</ele>
        <time>2024-04-07T08:03:10Z</time>
      </trkpt>
      <trkpt lat="43.57005" lon="6.22522">
        <ele>268</ele>
        <time>2024-04-07T08:03:30Z</time>
      </trkpt>
      <trkpt lat="43.5697" lon="6.22584">
        <ele>258</ele>
        <time>2024-04-07T08:03:40Z</time>
      </trkpt>
      <trkpt lat="43.56952" lon="6.22608">
        <ele>255</ele>
        <time>2024-04-07T08:03:44Z</time>
      </trkpt>
      <trkpt lat="43.5694" lon="6.22616">
        <ele>254</ele>
        <time>2024-04-07T08:03:47Z</time>
      </trkpt>
      <trkpt lat="43.56928" lon="6.2262">
        <ele>253</ele>
        <time>2024-04-07T08:03:49Z</time>
      </trkpt>
      <trkpt lat="43.56914" lon="6.22619">
        <ele>253</ele>
        <time>2024-04-07T08:03:51Z</time>
      </trkpt>
      <trkpt lat="43.56859" lon="6.22602">
        <ele>252</ele>
        <time>2024-04-07T08:04:01Z</time>
      </trkpt>
      <trkpt lat="43.56797" lon="6.22654">
        <ele>241</ele>
        <time>2024-04-07T08:04:14Z</time>
      </trkpt>
      <trkpt lat="43.56756" lon="6.22658">
        <ele>239</ele>
        <time>2024-04-07T08:04:22Z</time>
      </trkpt>
      <trkpt lat="43.56729" lon="6.22665">
        <ele>236</ele>
        <time>2024-04-07T08:04:27Z</time>
      </trkpt>
      <trkpt lat="43.56718" lon="6.22676">
        <ele>234</ele>
        <time>2024-04-07T08:04:29Z</time>
      </trkpt>
      <trkpt lat="43.56712" lon="6.22687">
        <ele>232</ele>
        <time>2024-04-07T08:04:31Z</time>
      </trkpt>
      <trkpt lat="43.56692" lon="6.22695">
        <ele>230</ele>
        <time>2024-04-07T08:04:34Z</time>
      </trkpt>
      <trkpt lat="43.56663" lon="6.22688">
        <ele>228</ele>
        <time>2024-04-07T08:04:40Z</time>
      </trkpt>
      <trkpt lat="43.56617" lon="6.22801">
        <ele>224</ele>
        <time>2024-04-07T08:04:56Z</time>
      </trkpt>
      <trkpt lat="43.56604" lon="6.22813">
        <ele>223</ele>
        <time>2024-04-07T08:04:59Z</time>
      </trkpt>
      <trkpt lat="43.56596" lon="6.22821">
        <ele>223</ele>
        <time>2024-04-07T08:05:01Z</time>
      </trkpt>
      <trkpt lat="43.56593" lon="6.22834">
        <ele>223</ele>
        <time>2024-04-07T08:05:03Z</time>
      </trkpt>
      <trkpt lat="43.56596" lon="6.22843">
        <ele>223</ele>
        <time>2024-04-07T08:05:04Z</time>
      </trkpt>
      <trkpt lat="43.56591" lon="6.22866">
        <ele>223</ele>
        <time>2024-04-07T08:05:07Z</time>
      </trkpt>
      <trkpt lat="43.56557" lon="6.22936">
        <ele>222</ele>
        <time>2024-04-07T08:05:18Z</time>
      </trkpt>
      <trkpt lat="43.56554" lon="6.22989">
        <ele>226</ele>
        <time>2024-04-07T08:05:25Z</time>
      </trkpt>
      <trkpt lat="43.56541" lon="6.23022">
        <ele>230</ele>
        <time>2024-04-07T08:05:30Z</time>
      </trkpt>
      <trkpt lat="43.56538" lon="6.23078">
        <ele>240</ele>
        <time>2024-04-07T08:05:37Z</time>
      </trkpt>
      <trkpt lat="43.56528" lon="6.23104">
        <ele>241</ele>
        <time>2024-04-07T08:05:41Z</time>
      </trkpt>
      <trkpt lat="43.56518" lon="6.23101">
        <ele>239</ele>
        <time>2024-04-07T08:05:43Z</time>
      </trkpt>
      <trkpt lat="43.56512" lon="6.23103">
        <ele>238</ele>
        <time>2024-04-07T08:05:44Z</time>
      </trkpt>
      <trkpt lat="43.56504" lon="6.23129">
        <ele>238</ele>
        <time>2024-04-07T08:05:47Z</time>
      </trkpt>
      <trkpt lat="43.56501" lon="6.23145">
        <ele>239</ele>
        <time>2024-04-07T08:05:49Z</time>
      </trkpt>
      <trkpt lat="43.56503" lon="6.23195">
        <ele>239</ele>
        <time>2024-04-07T08:05:56Z</time>
      </trkpt>
      <trkpt lat="43.56499" lon="6.2323">
        <ele>235</ele>
        <time>2024-04-07T08:06:00Z</time>
      </trkpt>
      <trkpt lat="43.56505" lon="6.23244">
        <ele>235</ele>
        <time>2024-04-07T08:06:03Z</time>
      </trkpt>
      <trkpt lat="43.5652" lon="6.23264">
        <ele>236</ele>
        <time>2024-04-07T08:06:06Z</time>
      </trkpt>
      <trkpt lat="43.56496" lon="6.23299">
        <ele>232</ele>
        <time>2024-04-07T08:06:12Z</time>
      </trkpt>
      <trkpt lat="43.56364" lon="6.23384">
        <ele>226</ele>
        <time>2024-04-07T08:06:38Z</time>
      </trkpt>
      <trkpt lat="43.56314" lon="6.2342">
        <ele>225</ele>
        <time>2024-04-07T08:06:48Z</time>
      </trkpt>
      <trkpt lat="43.563" lon="6.23442">
        <ele>225</ele>
        <time>2024-04-07T08:06:52Z</time>
      </trkpt>
      <trkpt lat="43.5627" lon="6.2353">
        <ele>228</ele>
        <time>2024-04-07T08:07:05Z</time>
      </trkpt>
      <trkpt lat="43.56254" lon="6.23563">
        <ele>228</ele>
        <time>2024-04-07T08:07:10Z</time>
      </trkpt>
      <trkpt lat="43.56216" lon="6.23616">
        <ele>228</ele>
        <time>2024-04-07T08:07:19Z</time>
      </trkpt>
      <trkpt lat="43.56159" lon="6.23784">
        <ele>234</ele>
        <time>2024-04-07T08:07:43Z</time>
      </trkpt>
      <trkpt lat="43.56155" lon="6.23792">
        <ele>235</ele>
        <time>2024-04-07T08:07:45Z</time>
      </trkpt>
      <trkpt lat="43.56148" lon="6.23798">
        <ele>236</ele>
        <time>2024-04-07T08:07:46Z</time>
      </trkpt>
      <trkpt lat="43.56134" lon="6.23802">
        <ele>238</ele>
        <time>2024-04-07T08:07:49Z</time>
      </trkpt>
      <trkpt lat="43.56127" lon="6.23803">
        <ele>238</ele>
        <time>2024-04-07T08:07:50Z</time>
      </trkpt>
      <trkpt lat="43.56123" lon="6.23807">
        <ele>239</ele>
        <time>2024-04-07T08:07:51Z</time>
      </trkpt>
      <trkpt lat="43.5612" lon="6.23816">
        <ele>239</ele>
        <time>2024-04-07T08:07:52Z</time>
      </trkpt>
      <trkpt lat="43.56122" lon="6.23825">
        <ele>239</ele>
        <time>2024-04-07T08:07:53Z</time>
      </trkpt>
      <trkpt lat="43.56124" lon="6.23829">
        <ele>239</ele>
        <time>2024-04-07T08:07:54Z</time>
      </trkpt>
      <trkpt lat="43.56128" lon="6.23838">
        <ele>238</ele>
        <time>2024-04-07T08:07:55Z</time>
      </trkpt>
      <trkpt lat="43.5613" lon="6.23862">
        <ele>238</ele>
        <time>2024-04-07T08:07:58Z</time>
      </trkpt>
      <trkpt lat="43.56128" lon="6.23874">
        <ele>238</ele>
        <time>2024-04-07T08:08:00Z</time>
      </trkpt>
      <trkpt lat="43.56103" lon="6.2396">
        <ele>239</ele>
        <time>2024-04-07T08:08:12Z</time>
      </trkpt>
      <trkpt lat="43.56087" lon="6.24022">
        <ele>240</ele>
        <time>2024-04-07T08:08:20Z</time>
      </trkpt>
      <trkpt lat="43.56055" lon="6.24233">
        <ele>247</ele>
        <time>2024-04-07T08:08:48Z</time>
      </trkpt>
      <trkpt lat="43.56049" lon="6.24255">
        <ele>247</ele>
        <time>2024-04-07T08:08:51Z</time>
      </trkpt>
      <trkpt lat="43.5604" lon="6.2427">
        <ele>247</ele>
        <time>2024-04-07T08:08:54Z</time>
      </trkpt>
      <trkpt lat="43.56037" lon="6.24272">
        <ele>247</ele>
        <time>2024-04-07T08:08:54Z</time>
      </trkpt>
      <trkpt lat="43.56034" lon="6.2428">
        <ele>247</ele>
        <time>2024-04-07T08:08:55Z</time>
      </trkpt>
      <trkpt lat="43.56034" lon="6.24287">
        <ele>247</ele>
        <time>2024-04-07T08:08:56Z</time>
      </trkpt>
      <trkpt lat="43.56017" lon="6.2432">
        <ele>248</ele>
        <time>2024-04-07T08:09:02Z</time>
      </trkpt>
      <trkpt lat="43.56011" lon="6.24336">
        <ele>248</ele>
        <time>2024-04-07T08:09:04Z</time>
      </trkpt>
      <trkpt lat="43.56003" lon="6.24377">
        <ele>248</ele>
        <time>2024-04-07T08:09:09Z</time>
      </trkpt>
      <trkpt lat="43.5599" lon="6.24462">
        <ele>247</ele>
        <time>2024-04-07T08:09:21Z</time>
      </trkpt>
      <trkpt lat="43.55944" lon="6.24826">
        <ele>238</ele>
        <time>2024-04-07T08:10:08Z</time>
      </trkpt>
      <trkpt lat="43.55943" lon="6.2491">
        <ele>241</ele>
        <time>2024-04-07T08:10:19Z</time>
      </trkpt>
      <trkpt lat="43.55963" lon="6.25094">
        <ele>244</ele>
        <time>2024-04-07T08:10:43Z</time>
      </trkpt>
      <trkpt lat="43.55968" lon="6.25146">
        <ele>244</ele>
        <time>2024-04-07T08:10:50Z</time>
      </trkpt>
      <trkpt lat="43.55964" lon="6.25158">
        <ele>244</ele>
        <time>2024-04-07T08:10:51Z</time>
      </trkpt>
      <trkpt lat="43.55965" lon="6.25164">
        <ele>244</ele>
        <time>2024-04-07T08:10:52Z</time>
      </trkpt>
      <trkpt lat="43.55964" lon="6.25183">
        <ele>244</ele>
        <time>2024-04-07T08:10:55Z</time>
      </trkpt>
      <trkpt lat="43.5596" lon="6.25219">
        <ele>244</ele>
        <time>2024-04-07T08:10:59Z</time>
      </trkpt>
      <trkpt lat="43.55944" lon="6.25313">
        <ele>241</ele>
        <time>2024-04-07T08:11:12Z</time>
      </trkpt>
      <trkpt lat="43.55936" lon="6.25396">
        <ele>239</ele>
        <time>2024-04-07T08:11:23Z</time>
      </trkpt>
      <trkpt lat="43.55871" lon="6.25853">
        <ele>231</ele>
        <time>2024-04-07T08:12:23Z</time>
      </trkpt>
      <trkpt lat="43.55866" lon="6.25905">
        <ele>229</ele>
        <time>2024-04-07T08:12:30Z</time>
      </trkpt>
      <trkpt lat="43.55859" lon="6.26068">
        <ele>226</ele>
        <time>2024-04-07T08:12:51Z</time>
      </trkpt>
      <trkpt lat="43.55859" lon="6.26079">
        <ele>226</ele>
        <time>2024-04-07T08:12:52Z</time>
      </trkpt>
      <trkpt lat="43.55856" lon="6.26224">
        <ele>224</ele>
        <time>2024-04-07T08:13:11Z</time>
      </trkpt>
      <trkpt lat="43.55856" lon="6.26347">
        <ele>228</ele>
        <time>2024-04-07T08:13:27Z</time>
      </trkpt>
      <trkpt lat="43.55861" lon="6.26416">
        <ele>230</ele>
        <time>2024-04-07T08:13:35Z</time>
      </trkpt>
      <trkpt lat="43.55882" lon="6.2659">
        <ele>232</ele>
        <time>2024-04-07T08:13:58Z</time>
      </trkpt>
      <trkpt lat="43.55917" lon="6.26852">
        <ele>236</ele>
        <time>2024-04-07T08:14:33Z</time>
      </trkpt>
      <trkpt lat="43.55919" lon="6.26905">
        <ele>238</ele>
        <time>2024-04-07T08:14:39Z</time>
      </trkpt>
      <trkpt lat="43.55913" lon="6.27007">
        <ele>238</ele>
        <time>2024-04-07T08:14:53Z</time>
      </trkpt>
      <trkpt lat="43.5591" lon="6.27038">
        <ele>239</ele>
        <time>2024-04-07T08:14:57Z</time>
      </trkpt>
      <trkpt lat="43.55877" lon="6.27216">
        <ele>241</ele>
        <time>2024-04-07T08:15:20Z</time>
      </trkpt>
      <trkpt lat="43.55857" lon="6.27351">
        <ele>245</ele>
        <time>2024-04-07T08:15:38Z</time>
      </trkpt>
      <trkpt lat="43.55837" lon="6.27442">
        <ele>247</ele>
        <time>2024-04-07T08:15:50Z</time>
      </trkpt>
      <trkpt lat="43.55811" lon="6.27627">
        <ele>247</ele>
        <time>2024-04-07T08:16:15Z</time>
      </trkpt>
      <trkpt lat="43.55793" lon="6.27781">
        <ele>247</ele>
        <time>2024-04-07T08:16:35Z</time>
      </trkpt>
      <trkpt lat="43.55791" lon="6.27803">
        <ele>247</ele>
        <time>2024-04-07T08:16:38Z</time>
      </trkpt>
      <trkpt lat="43.55776" lon="6.27967">
        <ele>251</ele>
        <time>2024-04-07T08:16:59Z</time>
      </trkpt>
      <trkpt lat="43.5575" lon="6.28113">
        <ele>256</ele>
        <time>2024-04-07T08:17:18Z</time>
      </trkpt>
      <trkpt lat="43.55749" lon="6.28162">
        <ele>257</ele>
        <time>2024-04-07T08:17:25Z</time>
      </trkpt>
      <trkpt lat="43.55752" lon="6.28343">
        <ele>258</ele>
        <time>2024-04-07T08:17:48Z</time>
      </trkpt>
      <trkpt lat="43.55746" lon="6.2843">
        <ele>262</ele>
        <time>2024-04-07T08:17:59Z</time>
      </trkpt>
      <trkpt lat="43.55725" lon="6.28657">
        <ele>269</ele>
        <time>2024-04-07T08:18:29Z</time>
      </trkpt>
      <trkpt lat="43.55702" lon="6.2899">
        <ele>268</ele>
        <time>2024-04-07T08:19:12Z</time>
      </trkpt>
      <trkpt lat="43.55694" lon="6.29078">
        <ele>269</ele>
        <time>2024-04-07T08:19:23Z</time>
      </trkpt>
      <trkpt lat="43.5569" lon="6.29102">
        <ele>270</ele>
        <time>2024-04-07T08:19:27Z</time>
      </trkpt>
      <trkpt lat="43.55677" lon="6.29149">
        <ele>271</ele>
        <time>2024-04-07T08:19:33Z</time>
      </trkpt>
      <trkpt lat="43.55667" lon="6.29175">
        <ele>271</ele>
        <time>2024-04-07T08:19:37Z</time>
      </trkpt>
      <trkpt lat="43.55634" lon="6.29235">
        <ele>272</ele>
        <time>2024-04-07T08:19:47Z</time>
      </trkpt>
      <trkpt lat="43.55572" lon="6.29324">
        <ele>274</ele>
        <time>2024-04-07T08:20:02Z</time>
      </trkpt>
      <trkpt lat="43.55479" lon="6.29448">
        <ele>279</ele>
        <time>2024-04-07T08:20:25Z</time>
      </trkpt>
      <trkpt lat="43.55447" lon="6.29503">
        <ele>281</ele>
        <time>2024-04-07T08:20:35Z</time>
      </trkpt>
      <trkpt lat="43.55429" lon="6.29542">
        <ele>281</ele>
        <time>2024-04-07T08:20:41Z</time>
      </trkpt>
      <trkpt lat="43.55418" lon="6.29572">
        <ele>282</ele>
        <time>2024-04-07T08:20:45Z</time>
      </trkpt>
      <trkpt lat="43.55404" lon="6.29619">
        <ele>283</ele>
        <time>2024-04-07T08:20:51Z</time>
      </trkpt>
      <trkpt lat="43.55382" lon="6.29712">
        <ele>283</ele>
        <time>2024-04-07T08:21:04Z</time>
      </trkpt>
      <trkpt lat="43.55277" lon="6.30119">
        <ele>289</ele>
        <time>2024-04-07T08:22:00Z</time>
      </trkpt>
      <trkpt lat="43.55269" lon="6.30152">
        <ele>290</ele>
        <time>2024-04-07T08:22:04Z</time>
      </trkpt>
      <trkpt lat="43.55268" lon="6.30178">
        <ele>290</ele>
        <time>2024-04-07T08:22:08Z</time>
      </trkpt>
      <trkpt lat="43.55264" lon="6.30184">
        <ele>290</ele>
        <time>2024-04-07T08:22:09Z</time>
      </trkpt>
      <trkpt lat="43.55262" lon="6.30196">
        <ele>290</ele>
        <time>2024-04-07T08:22:10Z</time>
      </trkpt>
      <trkpt lat="43.55259" lon="6.30206">
        <ele>290</ele>
        <time>2024-04-07T08:22:12Z</time>
      </trkpt>
      <trkpt lat="43.5525" lon="6.30222">
        <ele>290</ele>
        <time>2024-04-07T08:22:14Z</time>
      </trkpt>
      <trkpt lat="43.55248" lon="6.30232">
        <ele>290</ele>
        <time>2024-04-07T08:22:16Z</time>
      </trkpt>
      <trkpt lat="43.55221" lon="6.30329">
        <ele>292</ele>
        <time>2024-04-07T08:22:29Z</time>
      </trkpt>
      <trkpt lat="43.552" lon="6.30387">
        <ele>293</ele>
        <time>2024-04-07T08:22:37Z</time>
      </trkpt>
      <trkpt lat="43.55195" lon="6.304">
        <ele>294</ele>
        <time>2024-04-07T08:22:39Z</time>
      </trkpt>
      <trkpt lat="43.55171" lon="6.30451">
        <ele>295</ele>
        <time>2024-04-07T08:22:47Z</time>
      </trkpt>
      <trkpt lat="43.55136" lon="6.30507">
        <ele>300</ele>
        <time>2024-04-07T08:22:57Z</time>
      </trkpt>
      <trkpt lat="43.55041" lon="6.30638">
        <ele>307</ele>
        <time>2024-04-07T08:23:20Z</time>
      </trkpt>
      <trkpt lat="43.54925" lon="6.30811">
        <ele>313</ele>
        <time>2024-04-07T08:23:51Z</time>
      </trkpt>
      <trkpt lat="43.54894" lon="6.30853">
        <ele>317</ele>
        <time>2024-04-07T08:23:59Z</time>
      </trkpt>
      <trkpt lat="43.54878" lon="6.3087">
        <ele>318</ele>
        <time>2024-04-07T08:24:02Z</time>
      </trkpt>
      <trkpt lat="43.54841" lon="6.30899">
        <ele>322</ele>
        <time>2024-04-07T08:24:10Z</time>
      </trkpt>
      <trkpt lat="43.54802" lon="6.3092">
        <ele>325</ele>
        <time>2024-04-07T08:24:17Z</time>
      </trkpt>
      <trkpt lat="43.5476" lon="6.30933">
        <ele>329</ele>
        <time>2024-04-07T08:24:25Z</time>
      </trkpt>
      <trkpt lat="43.54717" lon="6.30939">
        <ele>332</ele>
        <time>2024-04-07T08:24:33Z</time>
      </trkpt>
      <trkpt lat="43.54671" lon="6.30938">
        <ele>335</ele>
        <time>2024-04-07T08:24:41Z</time>
      </trkpt>
      <trkpt lat="43.54624" lon="6.30941">
        <ele>339</ele>
        <time>2024-04-07T08:24:49Z</time>
      </trkpt>
      <trkpt lat="43.54544" lon="6.30958">
        <ele>345</ele>
        <time>2024-04-07T08:25:04Z</time>
      </trkpt>
      <trkpt lat="43.54523" lon="6.30966">
        <ele>346</ele>
        <time>2024-04-07T08:25:07Z</time>
      </trkpt>
      <trkpt lat="43.545" lon="6.30982">
        <ele>348</ele>
        <time>2024-04-07T08:25:12Z</time>
      </trkpt>
      <trkpt lat="43.54483" lon="6.30998">
        <ele>350</ele>
        <time>2024-04-07T08:25:16Z</time>
      </trkpt>
      <trkpt lat="43.54468" lon="6.31015">
        <ele>353</ele>
        <time>2024-04-07T08:25:19Z</time>
      </trkpt>
      <trkpt lat="43.54453" lon="6.31041">
        <ele>356</ele>
        <time>2024-04-07T08:25:23Z</time>
      </trkpt>
      <trkpt lat="43.54439" lon="6.31068">
        <ele>359</ele>
        <time>2024-04-07T08:25:28Z</time>
      </trkpt>
      <trkpt lat="43.54433" lon="6.31082">
        <ele>360</ele>
        <time>2024-04-07T08:25:30Z</time>
      </trkpt>
      <trkpt lat="43.5442" lon="6.31127">
        <ele>361</ele>
        <time>2024-04-07T08:25:36Z</time>
      </trkpt>
      <trkpt lat="43.54416" lon="6.31146">
        <ele>361</ele>
        <time>2024-04-07T08:25:39Z</time>
      </trkpt>
      <trkpt lat="43.54415" lon="6.31163">
        <ele>361</ele>
        <time>2024-04-07T08:25:41Z</time>
      </trkpt>
      <trkpt lat="43.54418" lon="6.31207">
        <ele>362</ele>
        <time>2024-04-07T08:25:46Z</time>
      </trkpt>
      <trkpt lat="43.54433" lon="6.31285">
        <ele>366</ele>
        <time>2024-04-07T08:25:57Z</time>
      </trkpt>
      <trkpt lat="43.54465" lon="6.31406">
        <ele>375</ele>
        <time>2024-04-07T08:26:13Z</time>
      </trkpt>
      <trkpt lat="43.54478" lon="6.31494">
        <ele>377</ele>
        <time>2024-04-07T08:26:25Z</time>
      </trkpt>
      <trkpt lat="43.54486" lon="6.31589">
        <ele>375</ele>
        <time>2024-04-07T08:26:37Z</time>
      </trkpt>
      <trkpt lat="43.54488" lon="6.31632">
        <ele>376</ele>
        <time>2024-04-07T08:26:43Z</time>
      </trkpt>
      <trkpt lat="43.54491" lon="6.31816">
        <ele>380</ele>
        <time>2024-04-07T08:27:07Z</time>
      </trkpt>
      <trkpt lat="43.54488" lon="6.32343">
        <ele>384</ele>
        <time>2024-04-07T08:28:15Z</time>
      </trkpt>
      <trkpt lat="43.54489" lon="6.32382">
        <ele>385</ele>
        <time>2024-04-07T08:28:20Z</time>
      </trkpt>
      <trkpt lat="43.54492" lon="6.32423">
        <ele>386</ele>
        <time>2024-04-07T08:28:25Z</time>
      </trkpt>
      <trkpt lat="43.54551" lon="6.32787">
        <ele>381</ele>
        <time>2024-04-07T08:29:13Z</time>
      </trkpt>
      <trkpt lat="43.54556" lon="6.32845">
        <ele>378</ele>
        <time>2024-04-07T08:29:21Z</time>
      </trkpt>
      <trkpt lat="43.54562" lon="6.33067">
        <ele>370</ele>
        <time>2024-04-07T08:29:49Z</time>
      </trkpt>
      <trkpt lat="43.54564" lon="6.33225">
        <ele>369</ele>
        <time>2024-04-07T08:30:10Z</time>
      </trkpt>
      <trkpt lat="43.54572" lon="6.33453">
        <ele>367</ele>
        <time>2024-04-07T08:30:39Z</time>
      </trkpt>
      <trkpt lat="43.5458" lon="6.33625">
        <ele>365</ele>
        <time>2024-04-07T08:31:01Z</time>
      </trkpt>
      <trkpt lat="43.5458" lon="6.33684">
        <ele>365</ele>
        <time>2024-04-07T08:31:09Z</time>
      </trkpt>
      <trkpt lat="43.54575" lon="6.33749">
        <ele>365</ele>
        <time>2024-04-07T08:31:17Z</time>
      </trkpt>
      <trkpt lat="43.5457" lon="6.33789">
        <ele>365</ele>
        <time>2024-04-07T08:31:23Z</time>
      </trkpt>
      <trkpt lat="43.54548" lon="6.33905">
        <ele>364</ele>
        <time>2024-04-07T08:31:38Z</time>
      </trkpt>
      <trkpt lat="43.54479" lon="6.34309">
        <ele>348</ele>
        <time>2024-04-07T08:32:32Z</time>
      </trkpt>
      <trkpt lat="43.5447" lon="6.34348">
        <ele>345</ele>
        <time>2024-04-07T08:32:37Z</time>
      </trkpt>
      <trkpt lat="43.54431" lon="6.34479">
        <ele>334</ele>
        <time>2024-04-07T08:32:55Z</time>
      </trkpt>
      <trkpt lat="43.54385" lon="6.34652">
        <ele>327</ele>
        <time>2024-04-07T08:33:19Z</time>
      </trkpt>
      <trkpt lat="43.54281" lon="6.35096">
        <ele>315</ele>
        <time>2024-04-07T08:34:19Z</time>
      </trkpt>
      <trkpt lat="43.54248" lon="6.35244">
        <ele>313</ele>
        <time>2024-04-07T08:34:39Z</time>
      </trkpt>
      <trkpt lat="43.54245" lon="6.35265">
        <ele>313</ele>
        <time>2024-04-07T08:34:42Z</time>
      </trkpt>
      <trkpt lat="43.54244" lon="6.35288">
        <ele>313</ele>
        <time>2024-04-07T08:34:45Z</time>
      </trkpt>
      <trkpt lat="43.54247" lon="6.35314">
        <ele>312</ele>
        <time>2024-04-07T08:34:48Z</time>
      </trkpt>
      <trkpt lat="43.54253" lon="6.35343">
        <ele>312</ele>
        <time>2024-04-07T08:34:52Z</time>
      </trkpt>
      <trkpt lat="43.5429" lon="6.35502">
        <ele>306</ele>
        <time>2024-04-07T08:35:14Z</time>
      </trkpt>
      <trkpt lat="43.54297" lon="6.35549">
        <ele>307</ele>
        <time>2024-04-07T08:35:20Z</time>
      </trkpt>
      <trkpt lat="43.54298" lon="6.35568">
        <ele>307</ele>
        <time>2024-04-07T08:35:22Z</time>
      </trkpt>
      <trkpt lat="43.54297" lon="6.35606">
        <ele>309</ele>
        <time>2024-04-07T08:35:27Z</time>
      </trkpt>
      <trkpt lat="43.54291" lon="6.35644">
        <ele>311</ele>
        <time>2024-04-07T08:35:32Z</time>
      </trkpt>
      <trkpt lat="43.54282" lon="6.35678">
        <ele>313</ele>
        <time>2024-04-07T08:35:37Z</time>
      </trkpt>
      <trkpt lat="43.54249" lon="6.35774">
        <ele>320</ele>
        <time>2024-04-07T08:35:51Z</time>
      </trkpt>
      <trkpt lat="43.54246" lon="6.35788">
        <ele>320</ele>
        <time>2024-04-07T08:35:52Z</time>
      </trkpt>
      <trkpt lat="43.54245" lon="6.35812">
        <ele>322</ele>
        <time>2024-04-07T08:35:56Z</time>
      </trkpt>
      <trkpt lat="43.54247" lon="6.35828">
        <ele>323</ele>
        <time>2024-04-07T08:35:58Z</time>
      </trkpt>
      <trkpt lat="43.54255" lon="6.35855">
        <ele>323</ele>
        <time>2024-04-07T08:36:01Z</time>
      </trkpt>
      <trkpt lat="43.54268" lon="6.35887">
        <ele>322</ele>
        <time>2024-04-07T08:36:06Z</time>
      </trkpt>
      <trkpt lat="43.54278" lon="6.35907">
        <ele>322</ele>
        <time>2024-04-07T08:36:09Z</time>
      </trkpt>
      <trkpt lat="43.54302" lon="6.35935">
        <ele>320</ele>
        <time>2024-04-07T08:36:15Z</time>
      </trkpt>
      <trkpt lat="43.54344" lon="6.35973">
        <ele>319</ele>
        <time>2024-04-07T08:36:24Z</time>
      </trkpt>
      <trkpt lat="43.54351" lon="6.35998">
        <ele>317</ele>
        <time>2024-04-07T08:36:27Z</time>
      </trkpt>
      <trkpt lat="43.54351" lon="6.36017">
        <ele>317</ele>
        <time>2024-04-07T08:36:30Z</time>
      </trkpt>
      <trkpt lat="43.54344" lon="6.36053">
        <ele>318</ele>
        <time>2024-04-07T08:36:35Z</time>
      </trkpt>
      <trkpt lat="43.54335" lon="6.36094">
        <ele>319</ele>
        <time>2024-04-07T08:36:40Z</time>
      </trkpt>
      <trkpt lat="43.54327" lon="6.36118">
        <ele>320</ele>
        <time>2024-04-07T08:36:43Z</time>
      </trkpt>
      <trkpt lat="43.54309" lon="6.3614">
        <ele>321</ele>
        <time>2024-04-07T08:36:48Z</time>
      </trkpt>
      <trkpt lat="43.543" lon="6.36145">
        <ele>321</ele>
        <time>2024-04-07T08:36:49Z</time>
      </trkpt>
      <trkpt lat="43.54238" lon="6.36159">
        <ele>322</ele>
        <time>2024-04-07T08:37:01Z</time>
      </trkpt>
      <trkpt lat="43.54218" lon="6.3617">
        <ele>321</ele>
        <time>2024-04-07T08:37:04Z</time>
      </trkpt>
      <trkpt lat="43.54194" lon="6.36188">
        <ele>321</ele>
        <time>2024-04-07T08:37:09Z</time>
      </trkpt>
      <trkpt lat="43.54174" lon="6.36218">
        <ele>322</ele>
        <time>2024-04-07T08:37:15Z</time>
      </trkpt>
      <trkpt lat="43.54159" lon="6.36247">
        <ele>322</ele>
        <time>2024-04-07T08:37:19Z</time>
      </trkpt>
      <trkpt lat="43.54147" lon="6.36283">
        <ele>324</ele>
        <time>2024-04-07T08:37:24Z</time>
      </trkpt>
      <trkpt lat="43.54141" lon="6.36315">
        <ele>327</ele>
        <time>2024-04-07T08:37:29Z</time>
      </trkpt>
      <trkpt lat="43.5414" lon="6.36349">
        <ele>330</ele>
        <time>2024-04-07T08:37:33Z</time>
      </trkpt>
      <trkpt lat="43.54143" lon="6.36398">
        <ele>333</ele>
        <time>2024-04-07T08:37:39Z</time>
      </trkpt>
      <trkpt lat="43.54161" lon="6.36513">
        <ele>340</ele>
        <time>2024-04-07T08:37:54Z</time>
      </trkpt>
      <trkpt lat="43.54179" lon="6.36684">
        <ele>351</ele>
        <time>2024-04-07T08:38:17Z</time>
      </trkpt>
      <trkpt lat="43.54188" lon="6.36812">
        <ele>354</ele>
        <time>2024-04-07T08:38:33Z</time>
      </trkpt>
      <trkpt lat="43.54189" lon="6.36882">
        <ele>352</ele>
        <time>2024-04-07T08:38:42Z</time>
      </trkpt>
      <trkpt lat="43.54183" lon="6.36946">
        <ele>349</ele>
        <time>2024-04-07T08:38:51Z</time>
      </trkpt>
      <trkpt lat="43.54176" lon="6.36995">
        <ele>347</ele>
        <time>2024-04-07T08:38:57Z</time>
      </trkpt>
      <trkpt lat="43.5412" lon="6.37296">
        <ele>329</ele>
        <time>2024-04-07T08:39:37Z</time>
      </trkpt>
      <trkpt lat="43.54088" lon="6.3745">
        <ele>324</ele>
        <time>2024-04-07T08:39:58Z</time>
      </trkpt>
      <trkpt lat="43.54047" lon="6.37618">
        <ele>324</ele>
        <time>2024-04-07T08:40:21Z</time>
      </trkpt>
      <trkpt lat="43.54006" lon="6.37766">
        <ele>323</ele>
        <time>2024-04-07T08:40:41Z</time>
      </trkpt>
      <trkpt lat="43.53874" lon="6.38212">
        <ele>330</ele>
        <time>2024-04-07T08:41:43Z</time>
      </trkpt>
      <trkpt lat="43.53856" lon="6.3828">
        <ele>330</ele>
        <time>2024-04-07T08:41:53Z</time>
      </trkpt>
      <trkpt lat="43.53849" lon="6.38312">
        <ele>331</ele>
        <time>2024-04-07T08:41:57Z</time>
      </trkpt>
      <trkpt lat="43.53843" lon="6.38356">
        <ele>332</ele>
        <time>2024-04-07T08:42:03Z</time>
      </trkpt>
      <trkpt lat="43.53836" lon="6.38418">
        <ele>332</ele>
        <time>2024-04-07T08:42:11Z</time>
      </trkpt>
      <trkpt lat="43.53829" lon="6.38578">
        <ele>332</ele>
        <time>2024-04-07T08:42:31Z</time>
      </trkpt>
      <trkpt lat="43.53824" lon="6.38639">
        <ele>328</ele>
        <time>2024-04-07T08:42:39Z</time>
      </trkpt>
      <trkpt lat="43.53817" lon="6.3869">
        <ele>326</ele>
        <time>2024-04-07T08:42:46Z</time>
      </trkpt>
      <trkpt lat="43.53812" lon="6.38711">
        <ele>326</ele>
        <time>2024-04-07T08:42:49Z</time>
      </trkpt>
      <trkpt lat="43.53789" lon="6.3878">
        <ele>326</ele>
        <time>2024-04-07T08:42:59Z</time>
      </trkpt>
      <trkpt lat="43.53779" lon="6.38804">
        <ele>326</ele>
        <time>2024-04-07T08:43:02Z</time>
      </trkpt>
      <trkpt lat="43.5375" lon="6.38857">
        <ele>327</ele>
        <time>2024-04-07T08:43:11Z</time>
      </trkpt>
      <trkpt lat="43.5374" lon="6.38873">
        <ele>327</ele>
        <time>2024-04-07T08:43:14Z</time>
      </trkpt>
      <trkpt lat="43.53663" lon="6.38964">
        <ele>327</ele>
        <time>2024-04-07T08:43:32Z</time>
      </trkpt>
      <trkpt lat="43.53656" lon="6.38974">
        <ele>327</ele>
        <time>2024-04-07T08:43:33Z</time>
      </trkpt>
      <trkpt lat="43.53617" lon="6.39037">
        <ele>326</ele>
        <time>2024-04-07T08:43:44Z</time>
      </trkpt>
      <trkpt lat="43.53589" lon="6.39093">
        <ele>326</ele>
        <time>2024-04-07T08:43:53Z</time>
      </trkpt>
      <trkpt lat="43.53582" lon="6.39112">
        <ele>325</ele>
        <time>2024-04-07T08:43:56Z</time>
      </trkpt>
      <trkpt lat="43.53575" lon="6.3914">
        <ele>323</ele>
        <time>2024-04-07T08:43:59Z</time>
      </trkpt>
      <trkpt lat="43.53568" lon="6.39182">
        <ele>321</ele>
        <time>2024-04-07T08:44:05Z</time>
      </trkpt>
      <trkpt lat="43.53561" lon="6.39316">
        <ele>313</ele>
        <time>2024-04-07T08:44:22Z</time>
      </trkpt>
      <trkpt lat="43.53558" lon="6.39346">
        <ele>312</ele>
        <time>2024-04-07T08:44:26Z</time>
      </trkpt>
      <trkpt lat="43.53541" lon="6.39468">
        <ele>309</ele>
        <time>2024-04-07T08:44:42Z</time>
      </trkpt>
      <trkpt lat="43.5351" lon="6.39656">
        <ele>302</ele>
        <time>2024-04-07T08:45:07Z</time>
      </trkpt>
      <trkpt lat="43.53502" lon="6.39721">
        <ele>300</ele>
        <time>2024-04-07T08:45:16Z</time>
      </trkpt>
      <trkpt lat="43.53498" lon="6.39794">
        <ele>298</ele>
        <time>2024-04-07T08:45:25Z</time>
      </trkpt>
      <trkpt lat="43.535" lon="6.39838">
        <ele>297</ele>
        <time>2024-04-07T08:45:31Z</time>
      </trkpt>
      <trkpt lat="43.53504" lon="6.39875">
        <ele>295</ele>
        <time>2024-04-07T08:45:36Z</time>
      </trkpt>
      <trkpt lat="43.53511" lon="6.39909">
        <ele>294</ele>
        <time>2024-04-07T08:45:40Z</time>
      </trkpt>
      <trkpt lat="43.53509" lon="6.39918">
        <ele>293</ele>
        <time>2024-04-07T08:45:41Z</time>
      </trkpt>
      <trkpt lat="43.53495" lon="6.39935">
        <ele>293</ele>
        <time>2024-04-07T08:45:45Z</time>
      </trkpt>
      <trkpt lat="43.53474" lon="6.39943">
        <ele>294</ele>
        <time>2024-04-07T08:45:49Z</time>
      </trkpt>
      <trkpt lat="43.53399" lon="6.39939">
        <ele>298</ele>
        <time>2024-04-07T08:46:02Z</time>
      </trkpt>
      <trkpt lat="43.53412" lon="6.39964">
        <ele>294</ele>
        <time>2024-04-07T08:46:06Z</time>
      </trkpt>
      <trkpt lat="43.53392" lon="6.39955">
        <ele>296</ele>
        <time>2024-04-07T08:46:10Z</time>
      </trkpt>
      <trkpt lat="43.53359" lon="6.39959">
        <ele>296</ele>
        <time>2024-04-07T08:46:16Z</time>
      </trkpt>
      <trkpt lat="43.53331" lon="6.40008">
        <ele>286</ele>
        <time>2024-04-07T08:46:24Z</time>
      </trkpt>
      <trkpt lat="43.53332" lon="6.40018">
        <ele>285</ele>
        <time>2024-04-07T08:46:25Z</time>
      </trkpt>
      <trkpt lat="43.53342" lon="6.4004">
        <ele>282</ele>
        <time>2024-04-07T08:46:28Z</time>
      </trkpt>
      <trkpt lat="43.53343" lon="6.40055">
        <ele>280</ele>
        <time>2024-04-07T08:46:30Z</time>
      </trkpt>
      <trkpt lat="43.53339" lon="6.40104">
        <ele>275</ele>
        <time>2024-04-07T08:46:37Z</time>
      </trkpt>
      <trkpt lat="43.5333" lon="6.4012">
        <ele>274</ele>
        <time>2024-04-07T08:46:39Z</time>
      </trkpt>
      <trkpt lat="43.53345" lon="6.40135">
        <ele>272</ele>
        <time>2024-04-07T08:46:42Z</time>
      </trkpt>
      <trkpt lat="43.5339" lon="6.40171">
        <ele>268</ele>
        <time>2024-04-07T08:46:52Z</time>
      </trkpt>
      <trkpt lat="43.53394" lon="6.40178">
        <ele>267</ele>
        <time>2024-04-07T08:46:53Z</time>
      </trkpt>
      <trkpt lat="43.53395" lon="6.4019">
        <ele>265</ele>
        <time>2024-04-07T08:46:54Z</time>
      </trkpt>
      <trkpt lat="43.53395" lon="6.40202">
        <ele>264</ele>
        <time>2024-04-07T08:46:56Z</time>
      </trkpt>
      <trkpt lat="43.53349" lon="6.40403">
        <ele>250</ele>
        <time>2024-04-07T08:47:23Z</time>
      </trkpt>
      <trkpt lat="43.53334" lon="6.40438">
        <ele>247</ele>
        <time>2024-04-07T08:47:28Z</time>
      </trkpt>
      <trkpt lat="43.53332" lon="6.40453">
        <ele>246</ele>
        <time>2024-04-07T08:47:30Z</time>
      </trkpt>
      <trkpt lat="43.53333" lon="6.40461">
        <ele>246</ele>
        <time>2024-04-07T08:47:31Z</time>
      </trkpt>
      <trkpt lat="43.53337" lon="6.40468">
        <ele>245</ele>
        <time>2024-04-07T08:47:33Z</time>
      </trkpt>
      <trkpt lat="43.53356" lon="6.40495">
        <ele>244</ele>
        <time>2024-04-07T08:47:37Z</time>
      </trkpt>
      <trkpt lat="43.5336" lon="6.40506">
        <ele>243</ele>
        <time>2024-04-07T08:47:39Z</time>
      </trkpt>
      <trkpt lat="43.53362" lon="6.40562">
        <ele>241</ele>
        <time>2024-04-07T08:47:46Z</time>
      </trkpt>
      <trkpt lat="43.53439" lon="6.40838">
        <ele>233</ele>
        <time>2024-04-07T08:48:24Z</time>
      </trkpt>
      <trkpt lat="43.53441" lon="6.40848">
        <ele>233</ele>
        <time>2024-04-07T08:48:26Z</time>
      </trkpt>
      <trkpt lat="43.53438" lon="6.40873">
        <ele>233</ele>
        <time>2024-04-07T08:48:29Z</time>
      </trkpt>
      <trkpt lat="43.5343" lon="6.40895">
        <ele>233</ele>
        <time>2024-04-07T08:48:32Z</time>
      </trkpt>
      <trkpt lat="43.5326" lon="6.41202">
        <ele>235</ele>
        <time>2024-04-07T08:49:22Z</time>
      </trkpt>
      <trkpt lat="43.53111" lon="6.41481">
        <ele>246</ele>
        <time>2024-04-07T08:50:07Z</time>
      </trkpt>
      <trkpt lat="43.53031" lon="6.41633">
        <ele>251</ele>
        <time>2024-04-07T08:50:31Z</time>
      </trkpt>
      <trkpt lat="43.52981" lon="6.4175">
        <ele>251</ele>
        <time>2024-04-07T08:50:48Z</time>
      </trkpt>
      <trkpt lat="43.52953" lon="6.41819">
        <ele>252</ele>
        <time>2024-04-07T08:50:59Z</time>
      </trkpt>
      <trkpt lat="43.52936" lon="6.41874">
        <ele>252</ele>
        <time>2024-04-07T08:51:06Z</time>
      </trkpt>
      <trkpt lat="43.52907" lon="6.42019">
        <ele>254</ele>
        <time>2024-04-07T08:51:26Z</time>
      </trkpt>
      <trkpt lat="43.52901" lon="6.42068">
        <ele>255</ele>
        <time>2024-04-07T08:51:32Z</time>
      </trkpt>
      <trkpt lat="43.52899" lon="6.42142">
        <ele>254</ele>
        <time>2024-04-07T08:51:42Z</time>
      </trkpt>
      <trkpt lat="43.52893" lon="6.42365">
        <ele>255</ele>
        <time>2024-04-07T08:52:11Z</time>
      </trkpt>
      <trkpt lat="43.52886" lon="6.42532">
        <ele>252</ele>
        <time>2024-04-07T08:52:32Z</time>
      </trkpt>
      <trkpt lat="43.52883" lon="6.42577">
        <ele>250</ele>
        <time>2024-04-07T08:52:38Z</time>
      </trkpt>
      <trkpt lat="43.52873" lon="6.42784">
        <ele>247</ele>
        <time>2024-04-07T08:53:05Z</time>
      </trkpt>
      <trkpt lat="43.52863" lon="6.4284">
        <ele>246</ele>
        <time>2024-04-07T08:53:12Z</time>
      </trkpt>
      <trkpt lat="43.52813" lon="6.43017">
        <ele>243</ele>
        <time>2024-04-07T08:53:37Z</time>
      </trkpt>
      <trkpt lat="43.52805" lon="6.4304">
        <ele>242</ele>
        <time>2024-04-07T08:53:40Z</time>
      </trkpt>
      <trkpt lat="43.52793" lon="6.43084">
        <ele>242</ele>
        <time>2024-04-07T08:53:46Z</time>
      </trkpt>
      <trkpt lat="43.52789" lon="6.43108">
        <ele>241</ele>
        <time>2024-04-07T08:53:49Z</time>
      </trkpt>
      <trkpt lat="43.52787" lon="6.4312">
        <ele>241</ele>
        <time>2024-04-07T08:53:51Z</time>
      </trkpt>
      <trkpt lat="43.52784" lon="6.43186">
        <ele>241</ele>
        <time>2024-04-07T08:53:59Z</time>
      </trkpt>
      <trkpt lat="43.52766" lon="6.43424">
        <ele>238</ele>
        <time>2024-04-07T08:54:30Z</time>
      </trkpt>
      <trkpt lat="43.52762" lon="6.43468">
        <ele>237</ele>
        <time>2024-04-07T08:54:36Z</time>
      </trkpt>
      <trkpt lat="43.52754" lon="6.43517">
        <ele>236</ele>
        <time>2024-04-07T08:54:42Z</time>
      </trkpt>
      <trkpt lat="43.52747" lon="6.4354">
        <ele>237</ele>
        <time>2024-04-07T08:54:46Z</time>
      </trkpt>
      <trkpt lat="43.52739" lon="6.43559">
        <ele>238</ele>
        <time>2024-04-07T08:54:48Z</time>
      </trkpt>
      <trkpt lat="43.52688" lon="6.43653">
        <ele>241</ele>
        <time>2024-04-07T08:55:04Z</time>
      </trkpt>
      <trkpt lat="43.52678" lon="6.43674">
        <ele>242</ele>
        <time>2024-04-07T08:55:07Z</time>
      </trkpt>
      <trkpt lat="43.52669" lon="6.43686">
        <ele>242</ele>
        <time>2024-04-07T08:55:09Z</time>
      </trkpt>
      <trkpt lat="43.52636" lon="6.43694">
        <ele>241</ele>
        <time>2024-04-07T08:55:15Z</time>
      </trkpt>
      <trkpt lat="43.52633" lon="6.43699">
        <ele>241</ele>
        <time>2024-04-07T08:55:16Z</time>
      </trkpt>
      <trkpt lat="43.52624" lon="6.43704">
        <ele>241</ele>
        <time>2024-04-07T08:55:18Z</time>
      </trkpt>
      <trkpt lat="43.52623" lon="6.43709">
        <ele>242</ele>
        <time>2024-04-07T08:55:18Z</time>
      </trkpt>
      <trkpt lat="43.52625" lon="6.43724">
        <ele>243</ele>
        <time>2024-04-07T08:55:20Z</time>
      </trkpt>
      <trkpt lat="43.52633" lon="6.43729">
        <ele>243</ele>
        <time>2024-04-07T08:55:22Z</time>
      </trkpt>
      <trkpt lat="43.52633" lon="6.43732">
        <ele>243</ele>
        <time>2024-04-07T08:55:22Z</time>
      </trkpt>
      <trkpt lat="43.52642" lon="6.43739">
        <ele>244</ele>
        <time>2024-04-07T08:55:24Z</time>
      </trkpt>
      <trkpt lat="43.52645" lon="6.43744">
        <ele>244</ele>
        <time>2024-04-07T08:55:25Z</time>
      </trkpt>
      <trkpt lat="43.5265" lon="6.43823">
        <ele>245</ele>
        <time>2024-04-07T08:55:35Z</time>
      </trkpt>
      <trkpt lat="43.52665" lon="6.43853">
        <ele>243</ele>
        <time>2024-04-07T08:55:40Z</time>
      </trkpt>
      <trkpt lat="43.52679" lon="6.43862">
        <ele>243</ele>
        <time>2024-04-07T08:55:42Z</time>
      </trkpt>
      <trkpt lat="43.52706" lon="6.43937">
        <ele>239</ele>
        <time>2024-04-07T08:55:53Z</time>
      </trkpt>
      <trkpt lat="43.52721" lon="6.4397">
        <ele>236</ele>
        <time>2024-04-07T08:55:58Z</time>
      </trkpt>
      <trkpt lat="43.528" lon="6.44108">
        <ele>219</ele>
        <time>2024-04-07T08:56:21Z</time>
      </trkpt>
      <trkpt lat="43.52817" lon="6.44141">
        <ele>215</ele>
        <time>2024-04-07T08:56:26Z</time>
      </trkpt>
      <trkpt lat="43.52832" lon="6.44156">
        <ele>212</ele>
        <time>2024-04-07T08:56:30Z</time>
      </trkpt>
      <trkpt lat="43.52867" lon="6.44269">
        <ele>207</ele>
        <time>2024-04-07T08:56:45Z</time>
      </trkpt>
      <trkpt lat="43.52874" lon="6.44281">
        <ele>207</ele>
        <time>2024-04-07T08:56:47Z</time>
      </trkpt>
      <trkpt lat="43.52883" lon="6.44291">
        <ele>206</ele>
        <time>2024-04-07T08:56:49Z</time>
      </trkpt>
      <trkpt lat="43.52892" lon="6.44296">
        <ele>206</ele>
        <time>2024-04-07T08:56:51Z</time>
      </trkpt>
      <trkpt lat="43.52899" lon="6.44297">
        <ele>206</ele>
        <time>2024-04-07T08:56:52Z</time>
      </trkpt>
      <trkpt lat="43.52911" lon="6.44295">
        <ele>205</ele>
        <time>2024-04-07T08:56:55Z</time>
      </trkpt>
      <trkpt lat="43.52949" lon="6.44274">
        <ele>204</ele>
        <time>2024-04-07T08:57:02Z</time>
      </trkpt>
      <trkpt lat="43.53103" lon="6.44176">
        <ele>195</ele>
        <time>2024-04-07T08:57:32Z</time>
      </trkpt>
      <trkpt lat="43.53117" lon="6.4417">
        <ele>194</ele>
        <time>2024-04-07T08:57:35Z</time>
      </trkpt>
      <trkpt lat="43.53132" lon="6.44169">
        <ele>194</ele>
        <time>2024-04-07T08:57:37Z</time>
      </trkpt>
      <trkpt lat="43.53143" lon="6.44173">
        <ele>193</ele>
        <time>2024-04-07T08:57:39Z</time>
      </trkpt>
      <trkpt lat="43.5316" lon="6.44188">
        <ele>192</ele>
        <time>2024-04-07T08:57:43Z</time>
      </trkpt>
      <trkpt lat="43.53168" lon="6.44201">
        <ele>192</ele>
        <time>2024-04-07T08:57:45Z</time>
      </trkpt>
      <trkpt lat="43.53173" lon="6.44213">
        <ele>191</ele>
        <time>2024-04-07T08:57:47Z</time>
      </trkpt>
      <trkpt lat="43.53175" lon="6.44232">
        <ele>191</ele>
        <time>2024-04-07T08:57:49Z</time>
      </trkpt>
      <trkpt lat="43.53173" lon="6.44249">
        <ele>191</ele>
        <time>2024-04-07T08:57:52Z</time>
      </trkpt>
      <trkpt lat="43.53153" lon="6.4432">
        <ele>188</ele>
        <time>2024-04-07T08:58:01Z</time>
      </trkpt>
      <trkpt lat="43.5314" lon="6.44354">
        <ele>187</ele>
        <time>2024-04-07T08:58:06Z</time>
      </trkpt>
      <trkpt lat="43.53119" lon="6.4439">
        <ele>186</ele>
        <time>2024-04-07T08:58:12Z</time>
      </trkpt>
      <trkpt lat="43.53105" lon="6.44408">
        <ele>185</ele>
        <time>2024-04-07T08:58:16Z</time>
      </trkpt>
      <trkpt lat="43.53088" lon="6.44424">
        <ele>184</ele>
        <time>2024-04-07T08:58:19Z</time>
      </trkpt>
      <trkpt lat="43.53054" lon="6.44451">
        <ele>185</ele>
        <time>2024-04-07T08:58:26Z</time>
      </trkpt>
      <trkpt lat="43.53044" lon="6.44466">
        <ele>185</ele>
        <time>2024-04-07T08:58:29Z</time>
      </trkpt>
      <trkpt lat="43.53037" lon="6.44493">
        <ele>182</ele>
        <time>2024-04-07T08:58:33Z</time>
      </trkpt>
      <trkpt lat="43.53037" lon="6.44513">
        <ele>180</ele>
        <time>2024-04-07T08:58:35Z</time>
      </trkpt>
      <trkpt lat="43.53039" lon="6.44527">
        <ele>179</ele>
        <time>2024-04-07T08:58:37Z</time>
      </trkpt>
      <trkpt lat="43.53047" lon="6.44573">
        <ele>176</ele>
        <time>2024-04-07T08:58:43Z</time>
      </trkpt>
      <trkpt lat="43.53052" lon="6.44598">
        <ele>175</ele>
        <time>2024-04-07T08:58:47Z</time>
      </trkpt>
      <trkpt lat="43.53061" lon="6.44627">
        <ele>175</ele>
        <time>2024-04-07T08:58:51Z</time>
      </trkpt>
      <trkpt lat="43.53082" lon="6.44687">
        <ele>175</ele>
        <time>2024-04-07T08:58:59Z</time>
      </trkpt>
      <trkpt lat="43.53176" lon="6.44912">
        <ele>175</ele>
        <time>2024-04-07T08:59:33Z</time>
      </trkpt>
      <trkpt lat="43.53178" lon="6.44924">
        <ele>175</ele>
        <time>2024-04-07T08:59:34Z</time>
      </trkpt>
      <trkpt lat="43.53172" lon="6.44933">
        <ele>175</ele>
        <time>2024-04-07T08:59:36Z</time>
      </trkpt>
      <trkpt lat="43.53171" lon="6.44943">
        <ele>175</ele>
        <time>2024-04-07T08:59:37Z</time>
      </trkpt>
      <trkpt lat="43.53172" lon="6.44948">
        <ele>175</ele>
        <time>2024-04-07T08:59:38Z</time>
      </trkpt>
      <trkpt lat="43.53177" lon="6.44955">
        <ele>175</ele>
        <time>2024-04-07T08:59:39Z</time>
      </trkpt>
      <trkpt lat="43.53185" lon="6.44958">
        <ele>175</ele>
        <time>2024-04-07T08:59:41Z</time>
      </trkpt>
      <trkpt lat="43.53192" lon="6.44969">
        <ele>175</ele>
        <time>2024-04-07T08:59:42Z</time>
      </trkpt>
      <trkpt lat="43.53208" lon="6.44992">
        <ele>175</ele>
        <time>2024-04-07T08:59:47Z</time>
      </trkpt>
      <trkpt lat="43.53221" lon="6.45021">
        <ele>175</ele>
        <time>2024-04-07T08:59:51Z</time>
      </trkpt>
      <trkpt lat="43.53436" lon="6.45542">
        <ele>178</ele>
        <time>2024-04-07T09:01:08Z</time>
      </trkpt>
      <trkpt lat="43.53447" lon="6.45575">
        <ele>177</ele>
        <time>2024-04-07T09:01:13Z</time>
      </trkpt>
      <trkpt lat="43.53452" lon="6.45595">
        <ele>177</ele>
        <time>2024-04-07T09:01:16Z</time>
      </trkpt>
      <trkpt lat="43.53454" lon="6.45609">
        <ele>177</ele>
        <time>2024-04-07T09:01:18Z</time>
      </trkpt>
      <trkpt lat="43.53459" lon="6.45616">
        <ele>178</ele>
        <time>2024-04-07T09:01:19Z</time>
      </trkpt>
      <trkpt lat="43.53465" lon="6.45618">
        <ele>178</ele>
        <time>2024-04-07T09:01:20Z</time>
      </trkpt>
      <trkpt lat="43.5347" lon="6.45617">
        <ele>178</ele>
        <time>2024-04-07T09:01:21Z</time>
      </trkpt>
      <trkpt lat="43.53475" lon="6.4562">
        <ele>178</ele>
        <time>2024-04-07T09:01:22Z</time>
      </trkpt>
      <trkpt lat="43.53477" lon="6.45625">
        <ele>178</ele>
        <time>2024-04-07T09:01:23Z</time>
      </trkpt>
      <trkpt lat="43.53493" lon="6.45667">
        <ele>178</ele>
        <time>2024-04-07T09:01:29Z</time>
      </trkpt>
      <trkpt lat="43.53603" lon="6.45935">
        <ele>180</ele>
        <time>2024-04-07T09:02:08Z</time>
      </trkpt>
      <trkpt lat="43.5364" lon="6.46028">
        <ele>180</ele>
        <time>2024-04-07T09:02:22Z</time>
      </trkpt>
      <trkpt lat="43.53659" lon="6.46069">
        <ele>180</ele>
        <time>2024-04-07T09:02:28Z</time>
      </trkpt>
      <trkpt lat="43.53778" lon="6.46174">
        <ele>183</ele>
        <time>2024-04-07T09:02:54Z</time>
      </trkpt>
      <trkpt lat="43.53777" lon="6.46181">
        <ele>183</ele>
        <time>2024-04-07T09:02:54Z</time>
      </trkpt>
      <trkpt lat="43.5378" lon="6.46187">
        <ele>183</ele>
        <time>2024-04-07T09:02:55Z</time>
      </trkpt>
      <trkpt lat="43.53784" lon="6.46189">
        <ele>183</ele>
        <time>2024-04-07T09:02:56Z</time>
      </trkpt>
      <trkpt lat="43.5379" lon="6.46186">
        <ele>183</ele>
        <time>2024-04-07T09:02:57Z</time>
      </trkpt>
      <trkpt lat="43.53941" lon="6.46323">
        <ele>187</ele>
        <time>2024-04-07T09:03:29Z</time>
      </trkpt>
      <trkpt lat="43.54036" lon="6.46418">
        <ele>196</ele>
        <time>2024-04-07T09:03:50Z</time>
      </trkpt>
      <trkpt lat="43.54158" lon="6.46506">
        <ele>203</ele>
        <time>2024-04-07T09:04:15Z</time>
      </trkpt>
      <trkpt lat="43.54169" lon="6.46516">
        <ele>203</ele>
        <time>2024-04-07T09:04:17Z</time>
      </trkpt>
      <trkpt lat="43.54165" lon="6.4653">
        <ele>203</ele>
        <time>2024-04-07T09:04:19Z</time>
      </trkpt>
      <trkpt lat="43.5416" lon="6.46558">
        <ele>202</ele>
        <time>2024-04-07T09:04:23Z</time>
      </trkpt>
      <trkpt lat="43.54151" lon="6.46635">
        <ele>203</ele>
        <time>2024-04-07T09:04:33Z</time>
      </trkpt>
      <trkpt lat="43.54148" lon="6.46649">
        <ele>204</ele>
        <time>2024-04-07T09:04:35Z</time>
      </trkpt>
      <trkpt lat="43.54096" lon="6.46768">
        <ele>208</ele>
        <time>2024-04-07T09:04:53Z</time>
      </trkpt>
      <trkpt lat="43.54085" lon="6.46802">
        <ele>208</ele>
        <time>2024-04-07T09:04:57Z</time>
      </trkpt>
      <trkpt lat="43.54083" lon="6.46826">
        <ele>209</ele>
        <time>2024-04-07T09:05:01Z</time>
      </trkpt>
      <trkpt lat="43.54083" lon="6.46844">
        <ele>210</ele>
        <time>2024-04-07T09:05:03Z</time>
      </trkpt>
      <trkpt lat="43.54087" lon="6.46893">
        <ele>214</ele>
        <time>2024-04-07T09:05:09Z</time>
      </trkpt>
      <trkpt lat="43.54086" lon="6.46901">
        <ele>215</ele>
        <time>2024-04-07T09:05:10Z</time>
      </trkpt>
      <trkpt lat="43.54083" lon="6.46907">
        <ele>214</ele>
        <time>2024-04-07T09:05:11Z</time>
      </trkpt>
      <trkpt lat="43.54078" lon="6.46912">
        <ele>214</ele>
        <time>2024-04-07T09:05:12Z</time>
      </trkpt>
      <trkpt lat="43.54057" lon="6.46921">
        <ele>214</ele>
        <time>2024-04-07T09:05:16Z</time>
      </trkpt>
      <trkpt lat="43.53977" lon="6.46945">
        <ele>212</ele>
        <time>2024-04-07T09:05:31Z</time>
      </trkpt>
      <trkpt lat="43.53961" lon="6.46953">
        <ele>212</ele>
        <time>2024-04-07T09:05:34Z</time>
      </trkpt>
      <trkpt lat="43.53954" lon="6.4696">
        <ele>212</ele>
        <time>2024-04-07T09:05:35Z</time>
      </trkpt>
      <trkpt lat="43.53949" lon="6.46969">
        <ele>213</ele>
        <time>2024-04-07T09:05:37Z</time>
      </trkpt>
      <trkpt lat="43.53932" lon="6.47016">
        <ele>217</ele>
        <time>2024-04-07T09:05:44Z</time>
      </trkpt>
      <trkpt lat="43.53926" lon="6.47027">
        <ele>217</ele>
        <time>2024-04-07T09:05:45Z</time>
      </trkpt>
      <trkpt lat="43.5391" lon="6.47044">
        <ele>216</ele>
        <time>2024-04-07T09:05:49Z</time>
      </trkpt>
      <trkpt lat="43.53876" lon="6.47074">
        <ele>214</ele>
        <time>2024-04-07T09:05:56Z</time>
      </trkpt>
      <trkpt lat="43.53864" lon="6.47091">
        <ele>214</ele>
        <time>2024-04-07T09:05:59Z</time>
      </trkpt>
      <trkpt lat="43.53861" lon="6.47106">
        <ele>214</ele>
        <time>2024-04-07T09:06:01Z</time>
      </trkpt>
      <trkpt lat="43.53861" lon="6.47121">
        <ele>215</ele>
        <time>2024-04-07T09:06:03Z</time>
      </trkpt>
      <trkpt lat="43.53867" lon="6.47193">
        <ele>220</ele>
        <time>2024-04-07T09:06:13Z</time>
      </trkpt>
      <trkpt lat="43.53866" lon="6.47217">
        <ele>221</ele>
        <time>2024-04-07T09:06:16Z</time>
      </trkpt>
      <trkpt lat="43.53863" lon="6.47228">
        <ele>221</ele>
        <time>2024-04-07T09:06:17Z</time>
      </trkpt>
      <trkpt lat="43.53847" lon="6.47259">
        <ele>220</ele>
        <time>2024-04-07T09:06:22Z</time>
      </trkpt>
      <trkpt lat="43.53833" lon="6.47295">
        <ele>221</ele>
        <time>2024-04-07T09:06:27Z</time>
      </trkpt>
      <trkpt lat="43.53816" lon="6.47357">
        <ele>222</ele>
        <time>2024-04-07T09:06:36Z</time>
      </trkpt>
      <trkpt lat="43.53811" lon="6.4738">
        <ele>222</ele>
        <time>2024-04-07T09:06:39Z</time>
      </trkpt>
      <trkpt lat="43.53808" lon="6.47403">
        <ele>222</ele>
        <time>2024-04-07T09:06:42Z</time>
      </trkpt>
      <trkpt lat="43.53807" lon="6.4742">
        <ele>223</ele>
        <time>2024-04-07T09:06:44Z</time>
      </trkpt>
      <trkpt lat="43.53811" lon="6.47444">
        <ele>223</ele>
        <time>2024-04-07T09:06:47Z</time>
      </trkpt>
      <trkpt lat="43.5382" lon="6.47469">
        <ele>225</ele>
        <time>2024-04-07T09:06:51Z</time>
      </trkpt>
      <trkpt lat="43.53879" lon="6.476">
        <ele>240</ele>
        <time>2024-04-07T09:07:11Z</time>
      </trkpt>
      <trkpt lat="43.53881" lon="6.47611">
        <ele>241</ele>
        <time>2024-04-07T09:07:12Z</time>
      </trkpt>
      <trkpt lat="43.53882" lon="6.47621">
        <ele>242</ele>
        <time>2024-04-07T09:07:14Z</time>
      </trkpt>
      <trkpt lat="43.53879" lon="6.47629">
        <ele>242</ele>
        <time>2024-04-07T09:07:15Z</time>
      </trkpt>
      <trkpt lat="43.53875" lon="6.47636">
        <ele>241</ele>
        <time>2024-04-07T09:07:16Z</time>
      </trkpt>
      <trkpt lat="43.5387" lon="6.47639">
        <ele>240</ele>
        <time>2024-04-07T09:07:17Z</time>
      </trkpt>
      <trkpt lat="43.53861" lon="6.47641">
        <ele>238</ele>
        <time>2024-04-07T09:07:19Z</time>
      </trkpt>
      <trkpt lat="43.53847" lon="6.47639">
        <ele>234</ele>
        <time>2024-04-07T09:07:21Z</time>
      </trkpt>
      <trkpt lat="43.53838" lon="6.4764">
        <ele>232</ele>
        <time>2024-04-07T09:07:23Z</time>
      </trkpt>
      <trkpt lat="43.53821" lon="6.47648">
        <ele>230</ele>
        <time>2024-04-07T09:07:26Z</time>
      </trkpt>
      <trkpt lat="43.53816" lon="6.47654">
        <ele>229</ele>
        <time>2024-04-07T09:07:27Z</time>
      </trkpt>
      <trkpt lat="43.53808" lon="6.47676">
        <ele>230</ele>
        <time>2024-04-07T09:07:30Z</time>
      </trkpt>
      <trkpt lat="43.53799" lon="6.4774">
        <ele>233</ele>
        <time>2024-04-07T09:07:39Z</time>
      </trkpt>
      <trkpt lat="43.53786" lon="6.47786">
        <ele>235</ele>
        <time>2024-04-07T09:07:45Z</time>
      </trkpt>
      <trkpt lat="43.53783" lon="6.47803">
        <ele>236</ele>
        <time>2024-04-07T09:07:47Z</time>
      </trkpt>
      <trkpt lat="43.5378" lon="6.47847">
        <ele>239</ele>
        <time>2024-04-07T09:07:53Z</time>
      </trkpt>
      <trkpt lat="43.53777" lon="6.47866">
        <ele>239</ele>
        <time>2024-04-07T09:07:55Z</time>
      </trkpt>
      <trkpt lat="43.53768" lon="6.47899">
        <ele>239</ele>
        <time>2024-04-07T09:08:00Z</time>
      </trkpt>
      <trkpt lat="43.53749" lon="6.47956">
        <ele>237</ele>
        <time>2024-04-07T09:08:08Z</time>
      </trkpt>
      <trkpt lat="43.53747" lon="6.47972">
        <ele>237</ele>
        <time>2024-04-07T09:08:10Z</time>
      </trkpt>
      <trkpt lat="43.53744" lon="6.4804">
        <ele>241</ele>
        <time>2024-04-07T09:08:19Z</time>
      </trkpt>
      <trkpt lat="43.53725" lon="6.48153">
        <ele>243</ele>
        <time>2024-04-07T09:08:34Z</time>
      </trkpt>
      <trkpt lat="43.53724" lon="6.48173">
        <ele>243</ele>
        <time>2024-04-07T09:08:36Z</time>
      </trkpt>
      <trkpt lat="43.53726" lon="6.48201">
        <ele>243</ele>
        <time>2024-04-07T09:08:40Z</time>
      </trkpt>
      <trkpt lat="43.53732" lon="6.48255">
        <ele>244</ele>
        <time>2024-04-07T09:08:47Z</time>
      </trkpt>
      <trkpt lat="43.53737" lon="6.48277">
        <ele>244</ele>
        <time>2024-04-07T09:08:50Z</time>
      </trkpt>
      <trkpt lat="43.53746" lon="6.48302">
        <ele>245</ele>
        <time>2024-04-07T09:08:54Z</time>
      </trkpt>
      <trkpt lat="43.53775" lon="6.48358">
        <ele>250</ele>
        <time>2024-04-07T09:09:03Z</time>
      </trkpt>
      <trkpt lat="43.53802" lon="6.48373">
        <ele>255</ele>
        <time>2024-04-07T09:09:08Z</time>
      </trkpt>
      <trkpt lat="43.53814" lon="6.48377">
        <ele>257</ele>
        <time>2024-04-07T09:09:10Z</time>
      </trkpt>
      <trkpt lat="43.53822" lon="6.48383">
        <ele>258</ele>
        <time>2024-04-07T09:09:12Z</time>
      </trkpt>
      <trkpt lat="43.53827" lon="6.48396">
        <ele>258</ele>
        <time>2024-04-07T09:09:14Z</time>
      </trkpt>
      <trkpt lat="43.53826" lon="6.48407">
        <ele>257</ele>
        <time>2024-04-07T09:09:15Z</time>
      </trkpt>
      <trkpt lat="43.53813" lon="6.48432">
        <ele>257</ele>
        <time>2024-04-07T09:09:19Z</time>
      </trkpt>
      <trkpt lat="43.53798" lon="6.48446">
        <ele>257</ele>
        <time>2024-04-07T09:09:22Z</time>
      </trkpt>
      <trkpt lat="43.5375" lon="6.48485">
        <ele>256</ele>
        <time>2024-04-07T09:09:32Z</time>
      </trkpt>
      <trkpt lat="43.53719" lon="6.48502">
        <ele>253</ele>
        <time>2024-04-07T09:09:38Z</time>
      </trkpt>
      <trkpt lat="43.53711" lon="6.48511">
        <ele>253</ele>
        <time>2024-04-07T09:09:40Z</time>
      </trkpt>
      <trkpt lat="43.53702" lon="6.48527">
        <ele>254</ele>
        <time>2024-04-07T09:09:42Z</time>
      </trkpt>
      <trkpt lat="43.53679" lon="6.48579">
        <ele>256</ele>
        <time>2024-04-07T09:09:50Z</time>
      </trkpt>
      <trkpt lat="43.53665" lon="6.48637">
        <ele>262</ele>
        <time>2024-04-07T09:09:58Z</time>
      </trkpt>
      <trkpt lat="43.53662" lon="6.48646">
        <ele>263</ele>
        <time>2024-04-07T09:09:59Z</time>
      </trkpt>
      <trkpt lat="43.53658" lon="6.48653">
        <ele>264</ele>
        <time>2024-04-07T09:10:01Z</time>
      </trkpt>
      <trkpt lat="43.53651" lon="6.48659">
        <ele>265</ele>
        <time>2024-04-07T09:10:02Z</time>
      </trkpt>
      <trkpt lat="43.53624" lon="6.48652">
        <ele>262</ele>
        <time>2024-04-07T09:10:07Z</time>
      </trkpt>
      <trkpt lat="43.53609" lon="6.48653">
        <ele>261</ele>
        <time>2024-04-07T09:10:10Z</time>
      </trkpt>
      <trkpt lat="43.53577" lon="6.48665">
        <ele>261</ele>
        <time>2024-04-07T09:10:16Z</time>
      </trkpt>
      <trkpt lat="43.5356" lon="6.48674">
        <ele>260</ele>
        <time>2024-04-07T09:10:19Z</time>
      </trkpt>
      <trkpt lat="43.53551" lon="6.48682">
        <ele>260</ele>
        <time>2024-04-07T09:10:21Z</time>
      </trkpt>
      <trkpt lat="43.53529" lon="6.48718">
        <ele>261</ele>
        <time>2024-04-07T09:10:27Z</time>
      </trkpt>
      <trkpt lat="43.53522" lon="6.48735">
        <ele>261</ele>
        <time>2024-04-07T09:10:29Z</time>
      </trkpt>
      <trkpt lat="43.53519" lon="6.4875">
        <ele>262</ele>
        <time>2024-04-07T09:10:31Z</time>
      </trkpt>
      <trkpt lat="43.53519" lon="6.48758">
        <ele>263</ele>
        <time>2024-04-07T09:10:32Z</time>
      </trkpt>
      <trkpt lat="43.53528" lon="6.48793">
        <ele>268</ele>
        <time>2024-04-07T09:10:37Z</time>
      </trkpt>
      <trkpt lat="43.53528" lon="6.48807">
        <ele>269</ele>
        <time>2024-04-07T09:10:39Z</time>
      </trkpt>
      <trkpt lat="43.53525" lon="6.4882">
        <ele>270</ele>
        <time>2024-04-07T09:10:41Z</time>
      </trkpt>
      <trkpt lat="43.53519" lon="6.48831">
        <ele>270</ele>
        <time>2024-04-07T09:10:42Z</time>
      </trkpt>
      <trkpt lat="43.53509" lon="6.4884">
        <ele>269</ele>
        <time>2024-04-07T09:10:45Z</time>
      </trkpt>
      <trkpt lat="43.53489" lon="6.48849">
        <ele>266</ele>
        <time>2024-04-07T09:10:48Z</time>
      </trkpt>
      <trkpt lat="43.53477" lon="6.48861">
        <ele>265</ele>
        <time>2024-04-07T09:10:51Z</time>
      </trkpt>
      <trkpt lat="43.53466" lon="6.48876">
        <ele>264</ele>
        <time>2024-04-07T09:10:54Z</time>
      </trkpt>
      <trkpt lat="43.53461" lon="6.4889">
        <ele>264</ele>
        <time>2024-04-07T09:10:56Z</time>
      </trkpt>
      <trkpt lat="43.53457" lon="6.4891">
        <ele>265</ele>
        <time>2024-04-07T09:10:58Z</time>
      </trkpt>
      <trkpt lat="43.53456" lon="6.48933">
        <ele>266</ele>
        <time>2024-04-07T09:11:01Z</time>
      </trkpt>
      <trkpt lat="43.53457" lon="6.48955">
        <ele>267</ele>
        <time>2024-04-07T09:11:04Z</time>
      </trkpt>
      <trkpt lat="43.53463" lon="6.48977">
        <ele>268</ele>
        <time>2024-04-07T09:11:07Z</time>
      </trkpt>
      <trkpt lat="43.53487" lon="6.49028">
        <ele>273</ele>
        <time>2024-04-07T09:11:15Z</time>
      </trkpt>
      <trkpt lat="43.53505" lon="6.49061">
        <ele>275</ele>
        <time>2024-04-07T09:11:20Z</time>
      </trkpt>
      <trkpt lat="43.53515" lon="6.49084">
        <ele>277</ele>
        <time>2024-04-07T09:11:24Z</time>
      </trkpt>
      <trkpt lat="43.53517" lon="6.49103">
        <ele>279</ele>
        <time>2024-04-07T09:11:26Z</time>
      </trkpt>
      <trkpt lat="43.53517" lon="6.49115">
        <ele>279</ele>
        <time>2024-04-07T09:11:28Z</time>
      </trkpt>
      <trkpt lat="43.53496" lon="6.49211">
        <ele>276</ele>
        <time>2024-04-07T09:11:41Z</time>
      </trkpt>
      <trkpt lat="43.53496" lon="6.49225">
        <ele>276</ele>
        <time>2024-04-07T09:11:43Z</time>
      </trkpt>
      <trkpt lat="43.53512" lon="6.49281">
        <ele>279</ele>
        <time>2024-04-07T09:11:50Z</time>
      </trkpt>
      <trkpt lat="43.5352" lon="6.49347">
        <ele>279</ele>
        <time>2024-04-07T09:11:59Z</time>
      </trkpt>
      <trkpt lat="43.53523" lon="6.49362">
        <ele>278</ele>
        <time>2024-04-07T09:12:01Z</time>
      </trkpt>
      <trkpt lat="43.53527" lon="6.49373">
        <ele>279</ele>
        <time>2024-04-07T09:12:03Z</time>
      </trkpt>
      <trkpt lat="43.53559" lon="6.49421">
        <ele>282</ele>
        <time>2024-04-07T09:12:11Z</time>
      </trkpt>
      <trkpt lat="43.53577" lon="6.49451">
        <ele>287</ele>
        <time>2024-04-07T09:12:16Z</time>
      </trkpt>
      <trkpt lat="43.53583" lon="6.49464">
        <ele>288</ele>
        <time>2024-04-07T09:12:18Z</time>
      </trkpt>
      <trkpt lat="43.53587" lon="6.49482">
        <ele>289</ele>
        <time>2024-04-07T09:12:20Z</time>
      </trkpt>
      <trkpt lat="43.53586" lon="6.49492">
        <ele>289</ele>
        <time>2024-04-07T09:12:22Z</time>
      </trkpt>
      <trkpt lat="43.53557" lon="6.49548">
        <ele>290</ele>
        <time>2024-04-07T09:12:31Z</time>
      </trkpt>
      <trkpt lat="43.53539" lon="6.49571">
        <ele>288</ele>
        <time>2024-04-07T09:12:35Z</time>
      </trkpt>
      <trkpt lat="43.53524" lon="6.49602">
        <ele>287</ele>
        <time>2024-04-07T09:12:40Z</time>
      </trkpt>
      <trkpt lat="43.53522" lon="6.49615">
        <ele>287</ele>
        <time>2024-04-07T09:12:42Z</time>
      </trkpt>
      <trkpt lat="43.53523" lon="6.49635">
        <ele>289</ele>
        <time>2024-04-07T09:12:44Z</time>
      </trkpt>
      <trkpt lat="43.53526" lon="6.49651">
        <ele>292</ele>
        <time>2024-04-07T09:12:46Z</time>
      </trkpt>
      <trkpt lat="43.53526" lon="6.49666">
        <ele>293</ele>
        <time>2024-04-07T09:12:48Z</time>
      </trkpt>
      <trkpt lat="43.53524" lon="6.49677">
        <ele>294</ele>
        <time>2024-04-07T09:12:50Z</time>
      </trkpt>
      <trkpt lat="43.53492" lon="6.49745">
        <ele>291</ele>
        <time>2024-04-07T09:13:00Z</time>
      </trkpt>
      <trkpt lat="43.53477" lon="6.49804">
        <ele>292</ele>
        <time>2024-04-07T09:13:08Z</time>
      </trkpt>
      <trkpt lat="43.53461" lon="6.49853">
        <ele>289</ele>
        <time>2024-04-07T09:13:15Z</time>
      </trkpt>
      <trkpt lat="43.53461" lon="6.49867">
        <ele>289</ele>
        <time>2024-04-07T09:13:17Z</time>
      </trkpt>
      <trkpt lat="43.53463" lon="6.4988">
        <ele>289</ele>
        <time>2024-04-07T09:13:19Z</time>
      </trkpt>
      <trkpt lat="43.53469" lon="6.49899">
        <ele>291</ele>
        <time>2024-04-07T09:13:21Z</time>
      </trkpt>
      <trkpt lat="43.53505" lon="6.49983">
        <ele>296</ele>
        <time>2024-04-07T09:13:34Z</time>
      </trkpt>
      <trkpt lat="43.5351" lon="6.49998">
        <ele>296</ele>
        <time>2024-04-07T09:13:36Z</time>
      </trkpt>
      <trkpt lat="43.53511" lon="6.5004">
        <ele>296</ele>
        <time>2024-04-07T09:13:41Z</time>
      </trkpt>
      <trkpt lat="43.53508" lon="6.50061">
        <ele>296</ele>
        <time>2024-04-07T09:13:44Z</time>
      </trkpt>
      <trkpt lat="43.53504" lon="6.50077">
        <ele>295</ele>
        <time>2024-04-07T09:13:46Z</time>
      </trkpt>
      <trkpt lat="43.53492" lon="6.50096">
        <ele>294</ele>
        <time>2024-04-07T09:13:50Z</time>
      </trkpt>
      <trkpt lat="43.53472" lon="6.50123">
        <ele>294</ele>
        <time>2024-04-07T09:13:55Z</time>
      </trkpt>
      <trkpt lat="43.53447" lon="6.50178">
        <ele>294</ele>
        <time>2024-04-07T09:14:03Z</time>
      </trkpt>
      <trkpt lat="43.5344" lon="6.50215">
        <ele>294</ele>
        <time>2024-04-07T09:14:08Z</time>
      </trkpt>
      <trkpt lat="43.53431" lon="6.50288">
        <ele>293</ele>
        <time>2024-04-07T09:14:17Z</time>
      </trkpt>
      <trkpt lat="43.53431" lon="6.50301">
        <ele>292</ele>
        <time>2024-04-07T09:14:19Z</time>
      </trkpt>
      <trkpt lat="43.53434" lon="6.50316">
        <ele>292</ele>
        <time>2024-04-07T09:14:21Z</time>
      </trkpt>
      <trkpt lat="43.53442" lon="6.50333">
        <ele>293</ele>
        <time>2024-04-07T09:14:24Z</time>
      </trkpt>
      <trkpt lat="43.53452" lon="6.50342">
        <ele>293</ele>
        <time>2024-04-07T09:14:26Z</time>
      </trkpt>
      <trkpt lat="43.53466" lon="6.50343">
        <ele>295</ele>
        <time>2024-04-07T09:14:28Z</time>
      </trkpt>
      <trkpt lat="43.53473" lon="6.50341">
        <ele>296</ele>
        <time>2024-04-07T09:14:30Z</time>
      </trkpt>
      <trkpt lat="43.53515" lon="6.50304">
        <ele>305</ele>
        <time>2024-04-07T09:14:39Z</time>
      </trkpt>
      <trkpt lat="43.53536" lon="6.50292">
        <ele>307</ele>
        <time>2024-04-07T09:14:43Z</time>
      </trkpt>
      <trkpt lat="43.53577" lon="6.50276">
        <ele>309</ele>
        <time>2024-04-07T09:14:50Z</time>
      </trkpt>
      <trkpt lat="43.53655" lon="6.50233">
        <ele>313</ele>
        <time>2024-04-07T09:15:05Z</time>
      </trkpt>
      <trkpt lat="43.53662" lon="6.50231">
        <ele>313</ele>
        <time>2024-04-07T09:15:06Z</time>
      </trkpt>
      <trkpt lat="43.53675" lon="6.50231">
        <ele>315</ele>
        <time>2024-04-07T09:15:09Z</time>
      </trkpt>
      <trkpt lat="43.53683" lon="6.50236">
        <ele>316</ele>
        <time>2024-04-07T09:15:10Z</time>
      </trkpt>
      <trkpt lat="43.53688" lon="6.50243">
        <ele>316</ele>
        <time>2024-04-07T09:15:12Z</time>
      </trkpt>
      <trkpt lat="43.53692" lon="6.50254">
        <ele>317</ele>
        <time>2024-04-07T09:15:13Z</time>
      </trkpt>
      <trkpt lat="43.53693" lon="6.50265">
        <ele>317</ele>
        <time>2024-04-07T09:15:15Z</time>
      </trkpt>
      <trkpt lat="43.53685" lon="6.50339">
        <ele>318</ele>
        <time>2024-04-07T09:15:24Z</time>
      </trkpt>
      <trkpt lat="43.53678" lon="6.50353">
        <ele>318</ele>
        <time>2024-04-07T09:15:26Z</time>
      </trkpt>
      <trkpt lat="43.53667" lon="6.50364">
        <ele>318</ele>
        <time>2024-04-07T09:15:29Z</time>
      </trkpt>
      <trkpt lat="43.53634" lon="6.50378">
        <ele>315</ele>
        <time>2024-04-07T09:15:35Z</time>
      </trkpt>
      <trkpt lat="43.53619" lon="6.5039">
        <ele>313</ele>
        <time>2024-04-07T09:15:38Z</time>
      </trkpt>
      <trkpt lat="43.53595" lon="6.50418">
        <ele>311</ele>
        <time>2024-04-07T09:15:44Z</time>
      </trkpt>
      <trkpt lat="43.53583" lon="6.50433">
        <ele>311</ele>
        <time>2024-04-07T09:15:46Z</time>
      </trkpt>
      <trkpt lat="43.53554" lon="6.50497">
        <ele>313</ele>
        <time>2024-04-07T09:15:56Z</time>
      </trkpt>
      <trkpt lat="43.53546" lon="6.50519">
        <ele>313</ele>
        <time>2024-04-07T09:15:59Z</time>
      </trkpt>
      <trkpt lat="43.53542" lon="6.50535">
        <ele>314</ele>
        <time>2024-04-07T09:16:02Z</time>
      </trkpt>
      <trkpt lat="43.53531" lon="6.50651">
        <ele>318</ele>
        <time>2024-04-07T09:16:17Z</time>
      </trkpt>
      <trkpt lat="43.53527" lon="6.50681">
        <ele>319</ele>
        <time>2024-04-07T09:16:21Z</time>
      </trkpt>
      <trkpt lat="43.53522" lon="6.50708">
        <ele>319</ele>
        <time>2024-04-07T09:16:24Z</time>
      </trkpt>
      <trkpt lat="43.53513" lon="6.50737">
        <ele>319</ele>
        <time>2024-04-07T09:16:28Z</time>
      </trkpt>
      <trkpt lat="43.53506" lon="6.5078">
        <ele>319</ele>
        <time>2024-04-07T09:16:34Z</time>
      </trkpt>
      <trkpt lat="43.53512" lon="6.50836">
        <ele>323</ele>
        <time>2024-04-07T09:16:41Z</time>
      </trkpt>
      <trkpt lat="43.53534" lon="6.50989">
        <ele>326</ele>
        <time>2024-04-07T09:17:01Z</time>
      </trkpt>
      <trkpt lat="43.53549" lon="6.51042">
        <ele>329</ele>
        <time>2024-04-07T09:17:09Z</time>
      </trkpt>
      <trkpt lat="43.53551" lon="6.51056">
        <ele>329</ele>
        <time>2024-04-07T09:17:11Z</time>
      </trkpt>
      <trkpt lat="43.53542" lon="6.51221">
        <ele>332</ele>
        <time>2024-04-07T09:17:32Z</time>
      </trkpt>
      <trkpt lat="43.5354" lon="6.51235">
        <ele>333</ele>
        <time>2024-04-07T09:17:34Z</time>
      </trkpt>
      <trkpt lat="43.53515" lon="6.51297">
        <ele>331</ele>
        <time>2024-04-07T09:17:43Z</time>
      </trkpt>
      <trkpt lat="43.5351" lon="6.51318">
        <ele>332</ele>
        <time>2024-04-07T09:17:46Z</time>
      </trkpt>
      <trkpt lat="43.53516" lon="6.51348">
        <ele>334</ele>
        <time>2024-04-07T09:17:50Z</time>
      </trkpt>
      <trkpt lat="43.53531" lon="6.5137">
        <ele>335</ele>
        <time>2024-04-07T09:17:54Z</time>
      </trkpt>
      <trkpt lat="43.53568" lon="6.51411">
        <ele>335</ele>
        <time>2024-04-07T09:18:02Z</time>
      </trkpt>
      <trkpt lat="43.5359" lon="6.5144">
        <ele>334</ele>
        <time>2024-04-07T09:18:08Z</time>
      </trkpt>
      <trkpt lat="43.536" lon="6.51472">
        <ele>333</ele>
        <time>2024-04-07T09:18:12Z</time>
      </trkpt>
      <trkpt lat="43.5361" lon="6.51536">
        <ele>330</ele>
        <time>2024-04-07T09:18:20Z</time>
      </trkpt>
      <trkpt lat="43.53616" lon="6.51552">
        <ele>330</ele>
        <time>2024-04-07T09:18:23Z</time>
      </trkpt>
      <trkpt lat="43.53626" lon="6.51567">
        <ele>330</ele>
        <time>2024-04-07T09:18:25Z</time>
      </trkpt>
      <trkpt lat="43.53644" lon="6.51577">
        <ele>331</ele>
        <time>2024-04-07T09:18:29Z</time>
      </trkpt>
      <trkpt lat="43.53659" lon="6.5159">
        <ele>331</ele>
        <time>2024-04-07T09:18:32Z</time>
      </trkpt>
      <trkpt lat="43.5367" lon="6.51605">
        <ele>331</ele>
        <time>2024-04-07T09:18:35Z</time>
      </trkpt>
      <trkpt lat="43.5378" lon="6.51784">
        <ele>327</ele>
        <time>2024-04-07T09:19:05Z</time>
      </trkpt>
      <trkpt lat="43.53788" lon="6.518">
        <ele>327</ele>
        <time>2024-04-07T09:19:08Z</time>
      </trkpt>
      <trkpt lat="43.53798" lon="6.51868">
        <ele>322</ele>
        <time>2024-04-07T09:19:16Z</time>
      </trkpt>
      <trkpt lat="43.53803" lon="6.51881">
        <ele>322</ele>
        <time>2024-04-07T09:19:18Z</time>
      </trkpt>
      <trkpt lat="43.53811" lon="6.51894">
        <ele>321</ele>
        <time>2024-04-07T09:19:21Z</time>
      </trkpt>
      <trkpt lat="43.53827" lon="6.51907">
        <ele>321</ele>
        <time>2024-04-07T09:19:24Z</time>
      </trkpt>
      <trkpt lat="43.53937" lon="6.51969">
        <ele>321</ele>
        <time>2024-04-07T09:19:45Z</time>
      </trkpt>
      <trkpt lat="43.53953" lon="6.51976">
        <ele>320</ele>
        <time>2024-04-07T09:19:48Z</time>
      </trkpt>
      <trkpt lat="43.53968" lon="6.51976">
        <ele>320</ele>
        <time>2024-04-07T09:19:51Z</time>
      </trkpt>
      <trkpt lat="43.53983" lon="6.5197">
        <ele>321</ele>
        <time>2024-04-07T09:19:53Z</time>
      </trkpt>
      <trkpt lat="43.54046" lon="6.51938">
        <ele>324</ele>
        <time>2024-04-07T09:20:05Z</time>
      </trkpt>
      <trkpt lat="43.54059" lon="6.51937">
        <ele>324</ele>
        <time>2024-04-07T09:20:08Z</time>
      </trkpt>
      <trkpt lat="43.54071" lon="6.51939">
        <ele>323</ele>
        <time>2024-04-07T09:20:10Z</time>
      </trkpt>
      <trkpt lat="43.54088" lon="6.51949">
        <ele>321</ele>
        <time>2024-04-07T09:20:13Z</time>
      </trkpt>
      <trkpt lat="43.54099" lon="6.51962">
        <ele>320</ele>
        <time>2024-04-07T09:20:16Z</time>
      </trkpt>
      <trkpt lat="43.54131" lon="6.52017">
        <ele>316</ele>
        <time>2024-04-07T09:20:25Z</time>
      </trkpt>
      <trkpt lat="43.54142" lon="6.5203">
        <ele>316</ele>
        <time>2024-04-07T09:20:27Z</time>
      </trkpt>
      <trkpt lat="43.5416" lon="6.52044">
        <ele>315</ele>
        <time>2024-04-07T09:20:31Z</time>
      </trkpt>
      <trkpt lat="43.54172" lon="6.5205">
        <ele>315</ele>
        <time>2024-04-07T09:20:33Z</time>
      </trkpt>
      <trkpt lat="43.54188" lon="6.52054">
        <ele>315</ele>
        <time>2024-04-07T09:20:36Z</time>
      </trkpt>
      <trkpt lat="43.54201" lon="6.52052">
        <ele>316</ele>
        <time>2024-04-07T09:20:39Z</time>
      </trkpt>
      <trkpt lat="43.54219" lon="6.52043">
        <ele>317</ele>
        <time>2024-04-07T09:20:42Z</time>
      </trkpt>
      <trkpt lat="43.54242" lon="6.52039">
        <ele>318</ele>
        <time>2024-04-07T09:20:46Z</time>
      </trkpt>
      <trkpt lat="43.5425" lon="6.52039">
        <ele>318</ele>
        <time>2024-04-07T09:20:48Z</time>
      </trkpt>
      <trkpt lat="43.54265" lon="6.52047">
        <ele>318</ele>
        <time>2024-04-07T09:20:50Z</time>
      </trkpt>
      <trkpt lat="43.54277" lon="6.52059">
        <ele>318</ele>
        <time>2024-04-07T09:20:53Z</time>
      </trkpt>
      <trkpt lat="43.54309" lon="6.5211">
        <ele>317</ele>
        <time>2024-04-07T09:21:02Z</time>
      </trkpt>
      <trkpt lat="43.54322" lon="6.52129">
        <ele>316</ele>
        <time>2024-04-07T09:21:05Z</time>
      </trkpt>
      <trkpt lat="43.54331" lon="6.52135">
        <ele>316</ele>
        <time>2024-04-07T09:21:07Z</time>
      </trkpt>
      <trkpt lat="43.54352" lon="6.52142">
        <ele>317</ele>
        <time>2024-04-07T09:21:11Z</time>
      </trkpt>
      <trkpt lat="43.5436" lon="6.52149">
        <ele>318</ele>
        <time>2024-04-07T09:21:12Z</time>
      </trkpt>
      <trkpt lat="43.54372" lon="6.52166">
        <ele>318</ele>
        <time>2024-04-07T09:21:15Z</time>
      </trkpt>
      <trkpt lat="43.54425" lon="6.52247">
        <ele>320</ele>
        <time>2024-04-07T09:21:30Z</time>
      </trkpt>
      <trkpt lat="43.54433" lon="6.52255">
        <ele>320</ele>
        <time>2024-04-07T09:21:31Z</time>
      </trkpt>
      <trkpt lat="43.5444" lon="6.52259">
        <ele>320</ele>
        <time>2024-04-07T09:21:33Z</time>
      </trkpt>
      <trkpt lat="43.5446" lon="6.52265">
        <ele>320</ele>
        <time>2024-04-07T09:21:36Z</time>
      </trkpt>
      <trkpt lat="43.54546" lon="6.52288">
        <ele>320</ele>
        <time>2024-04-07T09:21:52Z</time>
      </trkpt>
      <trkpt lat="43.54559" lon="6.52298">
        <ele>319</ele>
        <time>2024-04-07T09:21:55Z</time>
      </trkpt>
      <trkpt lat="43.54568" lon="6.5231">
        <ele>318</ele>
        <time>2024-04-07T09:21:57Z</time>
      </trkpt>
      <trkpt lat="43.54587" lon="6.5235">
        <ele>315</ele>
        <time>2024-04-07T09:22:03Z</time>
      </trkpt>
      <trkpt lat="43.546" lon="6.52384">
        <ele>315</ele>
        <time>2024-04-07T09:22:08Z</time>
      </trkpt>
      <trkpt lat="43.54601" lon="6.52415">
        <ele>314</ele>
        <time>2024-04-07T09:22:12Z</time>
      </trkpt>
      <trkpt lat="43.54559" lon="6.52516">
        <ele>308</ele>
        <time>2024-04-07T09:22:27Z</time>
      </trkpt>
      <trkpt lat="43.54553" lon="6.52537">
        <ele>306</ele>
        <time>2024-04-07T09:22:30Z</time>
      </trkpt>
      <trkpt lat="43.54552" lon="6.52591">
        <ele>305</ele>
        <time>2024-04-07T09:22:37Z</time>
      </trkpt>
      <trkpt lat="43.54553" lon="6.52649">
        <ele>303</ele>
        <time>2024-04-07T09:22:44Z</time>
      </trkpt>
      <trkpt lat="43.54557" lon="6.52683">
        <ele>302</ele>
        <time>2024-04-07T09:22:49Z</time>
      </trkpt>
      <trkpt lat="43.5457" lon="6.5275">
        <ele>300</ele>
        <time>2024-04-07T09:22:58Z</time>
      </trkpt>
      <trkpt lat="43.54572" lon="6.52787">
        <ele>297</ele>
        <time>2024-04-07T09:23:02Z</time>
      </trkpt>
      <trkpt lat="43.54577" lon="6.52818">
        <ele>295</ele>
        <time>2024-04-07T09:23:07Z</time>
      </trkpt>
      <trkpt lat="43.54583" lon="6.52841">
        <ele>294</ele>
        <time>2024-04-07T09:23:10Z</time>
      </trkpt>
      <trkpt lat="43.54599" lon="6.5288">
        <ele>292</ele>
        <time>2024-04-07T09:23:15Z</time>
      </trkpt>
      <trkpt lat="43.54612" lon="6.52906">
        <ele>290</ele>
        <time>2024-04-07T09:23:20Z</time>
      </trkpt>
      <trkpt lat="43.5462" lon="6.52915">
        <ele>289</ele>
        <time>2024-04-07T09:23:21Z</time>
      </trkpt>
      <trkpt lat="43.5467" lon="6.52925">
        <ele>289</ele>
        <time>2024-04-07T09:23:30Z</time>
      </trkpt>
      <trkpt lat="43.54688" lon="6.52926">
        <ele>288</ele>
        <time>2024-04-07T09:23:34Z</time>
      </trkpt>
      <trkpt lat="43.54726" lon="6.52917">
        <ele>289</ele>
        <time>2024-04-07T09:23:40Z</time>
      </trkpt>
      <trkpt lat="43.54744" lon="6.52919">
        <ele>288</ele>
        <time>2024-04-07T09:23:44Z</time>
      </trkpt>
      <trkpt lat="43.54798" lon="6.52934">
        <ele>282</ele>
        <time>2024-04-07T09:23:53Z</time>
      </trkpt>
      <trkpt lat="43.54811" lon="6.52934">
        <ele>281</ele>
        <time>2024-04-07T09:23:56Z</time>
      </trkpt>
      <trkpt lat="43.54823" lon="6.52929">
        <ele>281</ele>
        <time>2024-04-07T09:23:58Z</time>
      </trkpt>
      <trkpt lat="43.54859" lon="6.52902">
        <ele>281</ele>
        <time>2024-04-07T09:24:05Z</time>
      </trkpt>
      <trkpt lat="43.54881" lon="6.52882">
        <ele>282</ele>
        <time>2024-04-07T09:24:10Z</time>
      </trkpt>
      <trkpt lat="43.54905" lon="6.52855">
        <ele>283</ele>
        <time>2024-04-07T09:24:15Z</time>
      </trkpt>
      <trkpt lat="43.54916" lon="6.52851">
        <ele>282</ele>
        <time>2024-04-07T09:24:17Z</time>
      </trkpt>
      <trkpt lat="43.54932" lon="6.52851">
        <ele>280</ele>
        <time>2024-04-07T09:24:20Z</time>
      </trkpt>
      <trkpt lat="43.54976" lon="6.52862">
        <ele>275</ele>
        <time>2024-04-07T09:24:28Z</time>
      </trkpt>
      <trkpt lat="43.54987" lon="6.52863">
        <ele>274</ele>
        <time>2024-04-07T09:24:30Z</time>
      </trkpt>
      <trkpt lat="43.54999" lon="6.52858">
        <ele>274</ele>
        <time>2024-04-07T09:24:32Z</time>
      </trkpt>
      <trkpt lat="43.55005" lon="6.5285">
        <ele>274</ele>
        <time>2024-04-07T09:24:34Z</time>
      </trkpt>
      <trkpt lat="43.55024" lon="6.52815">
        <ele>274</ele>
        <time>2024-04-07T09:24:40Z</time>
      </trkpt>
      <trkpt lat="43.55032" lon="6.52794">
        <ele>274</ele>
        <time>2024-04-07T09:24:43Z</time>
      </trkpt>
      <trkpt lat="43.55047" lon="6.52717">
        <ele>274</ele>
        <time>2024-04-07T09:24:53Z</time>
      </trkpt>
      <trkpt lat="43.55055" lon="6.52685">
        <ele>273</ele>
        <time>2024-04-07T09:24:57Z</time>
      </trkpt>
      <trkpt lat="43.55064" lon="6.52664">
        <ele>272</ele>
        <time>2024-04-07T09:25:00Z</time>
      </trkpt>
      <trkpt lat="43.55111" lon="6.5258">
        <ele>268</ele>
        <time>2024-04-07T09:25:14Z</time>
      </trkpt>
      <trkpt lat="43.5517" lon="6.52487">
        <ele>264</ele>
        <time>2024-04-07T09:25:30Z</time>
      </trkpt>
      <trkpt lat="43.55189" lon="6.52452">
        <ele>262</ele>
        <time>2024-04-07T09:25:36Z</time>
      </trkpt>
      <trkpt lat="43.55224" lon="6.52377">
        <ele>257</ele>
        <time>2024-04-07T09:25:47Z</time>
      </trkpt>
      <trkpt lat="43.55235" lon="6.52357">
        <ele>255</ele>
        <time>2024-04-07T09:25:50Z</time>
      </trkpt>
      <trkpt lat="43.55241" lon="6.5235">
        <ele>254</ele>
        <time>2024-04-07T09:25:52Z</time>
      </trkpt>
      <trkpt lat="43.55248" lon="6.52346">
        <ele>254</ele>
        <time>2024-04-07T09:25:53Z</time>
      </trkpt>
      <trkpt lat="43.55262" lon="6.52342">
        <ele>253</ele>
        <time>2024-04-07T09:25:56Z</time>
      </trkpt>
      <trkpt lat="43.55278" lon="6.52347">
        <ele>252</ele>
        <time>2024-04-07T09:25:59Z</time>
      </trkpt>
      <trkpt lat="43.55309" lon="6.52365">
        <ele>251</ele>
        <time>2024-04-07T09:26:05Z</time>
      </trkpt>
      <trkpt lat="43.55324" lon="6.52382">
        <ele>251</ele>
        <time>2024-04-07T09:26:08Z</time>
      </trkpt>
      <trkpt lat="43.55327" lon="6.52389">
        <ele>251</ele>
        <time>2024-04-07T09:26:09Z</time>
      </trkpt>
      <trkpt lat="43.55331" lon="6.52401">
        <ele>251</ele>
        <time>2024-04-07T09:26:11Z</time>
      </trkpt>
      <trkpt lat="43.55338" lon="6.52406">
        <ele>251</ele>
        <time>2024-04-07T09:26:12Z</time>
      </trkpt>
      <trkpt lat="43.55341" lon="6.52406">
        <ele>251</ele>
        <time>2024-04-07T09:26:13Z</time>
      </trkpt>
      <trkpt lat="43.5535" lon="6.52402">
        <ele>251</ele>
        <time>2024-04-07T09:26:14Z</time>
      </trkpt>
      <trkpt lat="43.55366" lon="6.52405">
        <ele>250</ele>
        <time>2024-04-07T09:26:17Z</time>
      </trkpt>
      <trkpt lat="43.55376" lon="6.5241">
        <ele>250</ele>
        <time>2024-04-07T09:26:19Z</time>
      </trkpt>
      <trkpt lat="43.55411" lon="6.52434">
        <ele>249</ele>
        <time>2024-04-07T09:26:26Z</time>
      </trkpt>
      <trkpt lat="43.55436" lon="6.5245">
        <ele>247</ele>
        <time>2024-04-07T09:26:31Z</time>
      </trkpt>
      <trkpt lat="43.55483" lon="6.52477">
        <ele>244</ele>
        <time>2024-04-07T09:26:40Z</time>
      </trkpt>
      <trkpt lat="43.55523" lon="6.52495">
        <ele>244</ele>
        <time>2024-04-07T09:26:48Z</time>
      </trkpt>
      <trkpt lat="43.56557" lon="6.52809">
        <ele>280</ele>
        <time>2024-04-07T09:29:56Z</time>
      </trkpt>
      <trkpt lat="43.56571" lon="6.5281">
        <ele>281</ele>
        <time>2024-04-07T09:29:59Z</time>
      </trkpt>
      <trkpt lat="43.56584" lon="6.52806">
        <ele>282</ele>
        <time>2024-04-07T09:30:01Z</time>
      </trkpt>
      <trkpt lat="43.56632" lon="6.52779">
        <ele>288</ele>
        <time>2024-04-07T09:30:10Z</time>
      </trkpt>
      <trkpt lat="43.56645" lon="6.52774">
        <ele>290</ele>
        <time>2024-04-07T09:30:13Z</time>
      </trkpt>
      <trkpt lat="43.56665" lon="6.52772">
        <ele>293</ele>
        <time>2024-04-07T09:30:16Z</time>
      </trkpt>
      <trkpt lat="43.56729" lon="6.52772">
        <ele>295</ele>
        <time>2024-04-07T09:30:27Z</time>
      </trkpt>
      <trkpt lat="43.56754" lon="6.52769">
        <ele>297</ele>
        <time>2024-04-07T09:30:32Z</time>
      </trkpt>
      <trkpt lat="43.56802" lon="6.52756">
        <ele>299</ele>
        <time>2024-04-07T09:30:41Z</time>
      </trkpt>
      <trkpt lat="43.569" lon="6.52735">
        <ele>301</ele>
        <time>2024-04-07T09:30:58Z</time>
      </trkpt>
      <trkpt lat="43.56921" lon="6.52733">
        <ele>302</ele>
        <time>2024-04-07T09:31:02Z</time>
      </trkpt>
      <trkpt lat="43.56941" lon="6.52741">
        <ele>302</ele>
        <time>2024-04-07T09:31:06Z</time>
      </trkpt>
      <trkpt lat="43.56955" lon="6.52752">
        <ele>302</ele>
        <time>2024-04-07T09:31:09Z</time>
      </trkpt>
      <trkpt lat="43.56964" lon="6.52766">
        <ele>305</ele>
        <time>2024-04-07T09:31:11Z</time>
      </trkpt>
      <trkpt lat="43.56984" lon="6.52804">
        <ele>310</ele>
        <time>2024-04-07T09:31:17Z</time>
      </trkpt>
      <trkpt lat="43.57" lon="6.52824">
        <ele>311</ele>
        <time>2024-04-07T09:31:21Z</time>
      </trkpt>
      <trkpt lat="43.57014" lon="6.5283">
        <ele>311</ele>
        <time>2024-04-07T09:31:24Z</time>
      </trkpt>
      <trkpt lat="43.57037" lon="6.52824">
        <ele>311</ele>
        <time>2024-04-07T09:31:28Z</time>
      </trkpt>
      <trkpt lat="43.57081" lon="6.52804">
        <ele>310</ele>
        <time>2024-04-07T09:31:36Z</time>
      </trkpt>
      <trkpt lat="43.57104" lon="6.52802">
        <ele>310</ele>
        <time>2024-04-07T09:31:40Z</time>
      </trkpt>
      <trkpt lat="43.57135" lon="6.52805">
        <ele>311</ele>
        <time>2024-04-07T09:31:46Z</time>
      </trkpt>
      <trkpt lat="43.57165" lon="6.5281">
        <ele>311</ele>
        <time>2024-04-07T09:31:51Z</time>
      </trkpt>
      <trkpt lat="43.5718" lon="6.52816">
        <ele>311</ele>
        <time>2024-04-07T09:31:54Z</time>
      </trkpt>
      <trkpt lat="43.57193" lon="6.52827">
        <ele>310</ele>
        <time>2024-04-07T09:31:56Z</time>
      </trkpt>
      <trkpt lat="43.57209" lon="6.52858">
        <ele>310</ele>
        <time>2024-04-07T09:32:01Z</time>
      </trkpt>
      <trkpt lat="43.57273" lon="6.53026">
        <ele>310</ele>
        <time>2024-04-07T09:32:26Z</time>
      </trkpt>
      <trkpt lat="43.57275" lon="6.53043">
        <ele>309</ele>
        <time>2024-04-07T09:32:28Z</time>
      </trkpt>
      <trkpt lat="43.57274" lon="6.53057">
        <ele>309</ele>
        <time>2024-04-07T09:32:30Z</time>
      </trkpt>
      <trkpt lat="43.5727" lon="6.53077">
        <ele>308</ele>
        <time>2024-04-07T09:32:33Z</time>
      </trkpt>
      <trkpt lat="43.57248" lon="6.53131">
        <ele>306</ele>
        <time>2024-04-07T09:32:40Z</time>
      </trkpt>
      <trkpt lat="43.57236" lon="6.53166">
        <ele>304</ele>
        <time>2024-04-07T09:32:45Z</time>
      </trkpt>
      <trkpt lat="43.57229" lon="6.53211">
        <ele>303</ele>
        <time>2024-04-07T09:32:51Z</time>
      </trkpt>
      <trkpt lat="43.57204" lon="6.53755">
        <ele>285</ele>
        <time>2024-04-07T09:34:02Z</time>
      </trkpt>
      <trkpt lat="43.57201" lon="6.53785">
        <ele>283</ele>
        <time>2024-04-07T09:34:06Z</time>
      </trkpt>
      <trkpt lat="43.57194" lon="6.53832">
        <ele>280</ele>
        <time>2024-04-07T09:34:12Z</time>
      </trkpt>
      <trkpt lat="43.57186" lon="6.53896">
        <ele>278</ele>
        <time>2024-04-07T09:34:20Z</time>
      </trkpt>
      <trkpt lat="43.57184" lon="6.53928">
        <ele>277</ele>
        <time>2024-04-07T09:34:24Z</time>
      </trkpt>
      <trkpt lat="43.57185" lon="6.54001">
        <ele>274</ele>
        <time>2024-04-07T09:34:34Z</time>
      </trkpt>
      <trkpt lat="43.5719" lon="6.54058">
        <ele>274</ele>
        <time>2024-04-07T09:34:41Z</time>
      </trkpt>
      <trkpt lat="43.57225" lon="6.54378">
        <ele>267</ele>
        <time>2024-04-07T09:35:23Z</time>
      </trkpt>
      <trkpt lat="43.57226" lon="6.54443">
        <ele>268</ele>
        <time>2024-04-07T09:35:31Z</time>
      </trkpt>
      <trkpt lat="43.57223" lon="6.54607">
        <ele>270</ele>
        <time>2024-04-07T09:35:52Z</time>
      </trkpt>
      <trkpt lat="43.57224" lon="6.54632">
        <ele>270</ele>
        <time>2024-04-07T09:35:56Z</time>
      </trkpt>
      <trkpt lat="43.57231" lon="6.54682">
        <ele>270</ele>
        <time>2024-04-07T09:36:02Z</time>
      </trkpt>
      <trkpt lat="43.57271" lon="6.54916">
        <ele>273</ele>
        <time>2024-04-07T09:36:33Z</time>
      </trkpt>
      <trkpt lat="43.57279" lon="6.55018">
        <ele>274</ele>
        <time>2024-04-07T09:36:46Z</time>
      </trkpt>
      <trkpt lat="43.57281" lon="6.55067">
        <ele>275</ele>
        <time>2024-04-07T09:36:53Z</time>
      </trkpt>
      <trkpt lat="43.5728" lon="6.55104">
        <ele>276</ele>
        <time>2024-04-07T09:36:57Z</time>
      </trkpt>
      <trkpt lat="43.57249" lon="6.55295">
        <ele>276</ele>
        <time>2024-04-07T09:37:23Z</time>
      </trkpt>
      <trkpt lat="43.57213" lon="6.55486">
        <ele>271</ele>
        <time>2024-04-07T09:37:48Z</time>
      </trkpt>
      <trkpt lat="43.57207" lon="6.55524">
        <ele>271</ele>
        <time>2024-04-07T09:37:53Z</time>
      </trkpt>
      <trkpt lat="43.57198" lon="6.55602">
        <ele>270</ele>
        <time>2024-04-07T09:38:03Z</time>
      </trkpt>
      <trkpt lat="43.57196" lon="6.55656">
        <ele>269</ele>
        <time>2024-04-07T09:38:10Z</time>
      </trkpt>
      <trkpt lat="43.57197" lon="6.55728">
        <ele>269</ele>
        <time>2024-04-07T09:38:20Z</time>
      </trkpt>
      <trkpt lat="43.57207" lon="6.55867">
        <ele>272</ele>
        <time>2024-04-07T09:38:38Z</time>
      </trkpt>
      <trkpt lat="43.57218" lon="6.5596">
        <ele>272</ele>
        <time>2024-04-07T09:38:50Z</time>
      </trkpt>
      <trkpt lat="43.57231" lon="6.5601">
        <ele>272</ele>
        <time>2024-04-07T09:38:57Z</time>
      </trkpt>
      <trkpt lat="43.57247" lon="6.56048">
        <ele>272</ele>
        <time>2024-04-07T09:39:02Z</time>
      </trkpt>
      <trkpt lat="43.57295" lon="6.56145">
        <ele>274</ele>
        <time>2024-04-07T09:39:17Z</time>
      </trkpt>
      <trkpt lat="43.57373" lon="6.56287">
        <ele>287</ele>
        <time>2024-04-07T09:39:40Z</time>
      </trkpt>
      <trkpt lat="43.57389" lon="6.56323">
        <ele>291</ele>
        <time>2024-04-07T09:39:46Z</time>
      </trkpt>
      <trkpt lat="43.57397" lon="6.5635">
        <ele>292</ele>
        <time>2024-04-07T09:39:50Z</time>
      </trkpt>
      <trkpt lat="43.57427" lon="6.56496">
        <ele>293</ele>
        <time>2024-04-07T09:40:09Z</time>
      </trkpt>
      <trkpt lat="43.57461" lon="6.5662">
        <ele>298</ele>
        <time>2024-04-07T09:40:26Z</time>
      </trkpt>
      <trkpt lat="43.57471" lon="6.56668">
        <ele>298</ele>
        <time>2024-04-07T09:40:33Z</time>
      </trkpt>
      <trkpt lat="43.5747" lon="6.567">
        <ele>297</ele>
        <time>2024-04-07T09:40:37Z</time>
      </trkpt>
      <trkpt lat="43.57456" lon="6.56787">
        <ele>296</ele>
        <time>2024-04-07T09:40:48Z</time>
      </trkpt>
      <trkpt lat="43.57455" lon="6.56812">
        <ele>297</ele>
        <time>2024-04-07T09:40:52Z</time>
      </trkpt>
      <trkpt lat="43.5746" lon="6.56848">
        <ele>298</ele>
        <time>2024-04-07T09:40:56Z</time>
      </trkpt>
      <trkpt lat="43.57476" lon="6.56889">
        <ele>298</ele>
        <time>2024-04-07T09:41:02Z</time>
      </trkpt>
      <trkpt lat="43.5755" lon="6.57048">
        <ele>304</ele>
        <time>2024-04-07T09:41:27Z</time>
      </trkpt>
      <trkpt lat="43.57577" lon="6.57111">
        <ele>306</ele>
        <time>2024-04-07T09:41:36Z</time>
      </trkpt>
      <trkpt lat="43.57587" lon="6.5715">
        <ele>307</ele>
        <time>2024-04-07T09:41:41Z</time>
      </trkpt>
      <trkpt lat="43.57601" lon="6.57223">
        <ele>313</ele>
        <time>2024-04-07T09:41:51Z</time>
      </trkpt>
      <trkpt lat="43.57605" lon="6.57295">
        <ele>321</ele>
        <time>2024-04-07T09:42:00Z</time>
      </trkpt>
      <trkpt lat="43.57615" lon="6.57581">
        <ele>332</ele>
        <time>2024-04-07T09:42:37Z</time>
      </trkpt>
      <trkpt lat="43.57613" lon="6.57645">
        <ele>330</ele>
        <time>2024-04-07T09:42:46Z</time>
      </trkpt>
      <trkpt lat="43.57608" lon="6.57679">
        <ele>330</ele>
        <time>2024-04-07T09:42:50Z</time>
      </trkpt>
      <trkpt lat="43.57579" lon="6.57801">
        <ele>327</ele>
        <time>2024-04-07T09:43:07Z</time>
      </trkpt>
      <trkpt lat="43.57576" lon="6.57829">
        <ele>327</ele>
        <time>2024-04-07T09:43:10Z</time>
      </trkpt>
      <trkpt lat="43.57578" lon="6.5794">
        <ele>324</ele>
        <time>2024-04-07T09:43:25Z</time>
      </trkpt>
      <trkpt lat="43.57612" lon="6.58239">
        <ele>315</ele>
        <time>2024-04-07T09:44:04Z</time>
      </trkpt>
      <trkpt lat="43.57666" lon="6.5851">
        <ele>303</ele>
        <time>2024-04-07T09:44:40Z</time>
      </trkpt>
      <trkpt lat="43.57702" lon="6.58638">
        <ele>298</ele>
        <time>2024-04-07T09:44:58Z</time>
      </trkpt>
      <trkpt lat="43.57707" lon="6.5867">
        <ele>297</ele>
        <time>2024-04-07T09:45:02Z</time>
      </trkpt>
      <trkpt lat="43.57708" lon="6.58691">
        <ele>298</ele>
        <time>2024-04-07T09:45:04Z</time>
      </trkpt>
      <trkpt lat="43.57708" lon="6.58722">
        <ele>299</ele>
        <time>2024-04-07T09:45:08Z</time>
      </trkpt>
      <trkpt lat="43.57695" lon="6.58829">
        <ele>303</ele>
        <time>2024-04-07T09:45:22Z</time>
      </trkpt>
      <trkpt lat="43.57679" lon="6.58984">
        <ele>304</ele>
        <time>2024-04-07T09:45:43Z</time>
      </trkpt>
      <trkpt lat="43.57652" lon="6.59119">
        <ele>302</ele>
        <time>2024-04-07T09:46:01Z</time>
      </trkpt>
      <trkpt lat="43.57637" lon="6.59221">
        <ele>301</ele>
        <time>2024-04-07T09:46:14Z</time>
      </trkpt>
      <trkpt lat="43.57635" lon="6.5928">
        <ele>300</ele>
        <time>2024-04-07T09:46:22Z</time>
      </trkpt>
      <trkpt lat="43.57644" lon="6.5942">
        <ele>299</ele>
        <time>2024-04-07T09:46:40Z</time>
      </trkpt>
      <trkpt lat="43.57642" lon="6.59506">
        <ele>299</ele>
        <time>2024-04-07T09:46:51Z</time>
      </trkpt>
      <trkpt lat="43.57644" lon="6.59539">
        <ele>298</ele>
        <time>2024-04-07T09:46:55Z</time>
      </trkpt>
      <trkpt lat="43.57649" lon="6.59568">
        <ele>299</ele>
        <time>2024-04-07T09:46:59Z</time>
      </trkpt>
      <trkpt lat="43.57664" lon="6.59629">
        <ele>302</ele>
        <time>2024-04-07T09:47:07Z</time>
      </trkpt>
      <trkpt lat="43.57664" lon="6.59643">
        <ele>302</ele>
        <time>2024-04-07T09:47:09Z</time>
      </trkpt>
      <trkpt lat="43.57663" lon="6.59658">
        <ele>301</ele>
        <time>2024-04-07T09:47:11Z</time>
      </trkpt>
      <trkpt lat="43.57659" lon="6.59671">
        <ele>300</ele>
        <time>2024-04-07T09:47:13Z</time>
      </trkpt>
      <trkpt lat="43.5764" lon="6.59703">
        <ele>295</ele>
        <time>2024-04-07T09:47:18Z</time>
      </trkpt>
      <trkpt lat="43.57635" lon="6.59721">
        <ele>293</ele>
        <time>2024-04-07T09:47:21Z</time>
      </trkpt>
      <trkpt lat="43.57633" lon="6.59739">
        <ele>292</ele>
        <time>2024-04-07T09:47:23Z</time>
      </trkpt>
      <trkpt lat="43.57635" lon="6.59758">
        <ele>292</ele>
        <time>2024-04-07T09:47:26Z</time>
      </trkpt>
      <trkpt lat="43.57642" lon="6.5978">
        <ele>292</ele>
        <time>2024-04-07T09:47:29Z</time>
      </trkpt>
      <trkpt lat="43.57652" lon="6.59795">
        <ele>292</ele>
        <time>2024-04-07T09:47:31Z</time>
      </trkpt>
      <trkpt lat="43.57661" lon="6.59804">
        <ele>292</ele>
        <time>2024-04-07T09:47:33Z</time>
      </trkpt>
      <trkpt lat="43.57673" lon="6.59809">
        <ele>293</ele>
        <time>2024-04-07T09:47:35Z</time>
      </trkpt>
      <trkpt lat="43.57683" lon="6.59811">
        <ele>293</ele>
        <time>2024-04-07T09:47:37Z</time>
      </trkpt>
      <trkpt lat="43.57693" lon="6.5981">
        <ele>294</ele>
        <time>2024-04-07T09:47:39Z</time>
      </trkpt>
      <trkpt lat="43.57719" lon="6.59796">
        <ele>297</ele>
        <time>2024-04-07T09:47:44Z</time>
      </trkpt>
      <trkpt lat="43.57728" lon="6.59793">
        <ele>298</ele>
        <time>2024-04-07T09:47:46Z</time>
      </trkpt>
      <trkpt lat="43.57735" lon="6.59794">
        <ele>298</ele>
        <time>2024-04-07T09:47:47Z</time>
      </trkpt>
      <trkpt lat="43.57744" lon="6.59798">
        <ele>298</ele>
        <time>2024-04-07T09:47:49Z</time>
      </trkpt>
      <trkpt lat="43.57754" lon="6.59813">
        <ele>297</ele>
        <time>2024-04-07T09:47:51Z</time>
      </trkpt>
      <trkpt lat="43.57762" lon="6.59846">
        <ele>296</ele>
        <time>2024-04-07T09:47:56Z</time>
      </trkpt>
      <trkpt lat="43.57763" lon="6.59874">
        <ele>296</ele>
        <time>2024-04-07T09:47:59Z</time>
      </trkpt>
      <trkpt lat="43.57761" lon="6.59884">
        <ele>296</ele>
        <time>2024-04-07T09:48:01Z</time>
      </trkpt>
      <trkpt lat="43.57754" lon="6.59902">
        <ele>293</ele>
        <time>2024-04-07T09:48:03Z</time>
      </trkpt>
      <trkpt lat="43.57715" lon="6.59954">
        <ele>289</ele>
        <time>2024-04-07T09:48:13Z</time>
      </trkpt>
      <trkpt lat="43.57687" lon="6.60026">
        <ele>285</ele>
        <time>2024-04-07T09:48:23Z</time>
      </trkpt>
      <trkpt lat="43.57673" lon="6.60056">
        <ele>282</ele>
        <time>2024-04-07T09:48:28Z</time>
      </trkpt>
      <trkpt lat="43.57666" lon="6.60077">
        <ele>281</ele>
        <time>2024-04-07T09:48:31Z</time>
      </trkpt>
      <trkpt lat="43.57662" lon="6.60105">
        <ele>280</ele>
        <time>2024-04-07T09:48:35Z</time>
      </trkpt>
      <trkpt lat="43.5766" lon="6.60135">
        <ele>279</ele>
        <time>2024-04-07T09:48:39Z</time>
      </trkpt>
      <trkpt lat="43.57662" lon="6.60189">
        <ele>276</ele>
        <time>2024-04-07T09:48:46Z</time>
      </trkpt>
      <trkpt lat="43.57668" lon="6.6021">
        <ele>274</ele>
        <time>2024-04-07T09:48:48Z</time>
      </trkpt>
      <trkpt lat="43.577" lon="6.60251">
        <ele>276</ele>
        <time>2024-04-07T09:48:56Z</time>
      </trkpt>
      <trkpt lat="43.57711" lon="6.60268">
        <ele>277</ele>
        <time>2024-04-07T09:48:59Z</time>
      </trkpt>
      <trkpt lat="43.57723" lon="6.60322">
        <ele>273</ele>
        <time>2024-04-07T09:49:06Z</time>
      </trkpt>
      <trkpt lat="43.57733" lon="6.60344">
        <ele>272</ele>
        <time>2024-04-07T09:49:10Z</time>
      </trkpt>
      <trkpt lat="43.57752" lon="6.60362">
        <ele>272</ele>
        <time>2024-04-07T09:49:14Z</time>
      </trkpt>
      <trkpt lat="43.57773" lon="6.6041">
        <ele>269</ele>
        <time>2024-04-07T09:49:21Z</time>
      </trkpt>
      <trkpt lat="43.5778" lon="6.60419">
        <ele>268</ele>
        <time>2024-04-07T09:49:23Z</time>
      </trkpt>
      <trkpt lat="43.5781" lon="6.60442">
        <ele>272</ele>
        <time>2024-04-07T09:49:29Z</time>
      </trkpt>
      <trkpt lat="43.57816" lon="6.60448">
        <ele>272</ele>
        <time>2024-04-07T09:49:30Z</time>
      </trkpt>
      <trkpt lat="43.57819" lon="6.60456">
        <ele>272</ele>
        <time>2024-04-07T09:49:31Z</time>
      </trkpt>
      <trkpt lat="43.57823" lon="6.60474">
        <ele>272</ele>
        <time>2024-04-07T09:49:34Z</time>
      </trkpt>
      <trkpt lat="43.57821" lon="6.60495">
        <ele>270</ele>
        <time>2024-04-07T09:49:37Z</time>
      </trkpt>
      <trkpt lat="43.57814" lon="6.60511">
        <ele>269</ele>
        <time>2024-04-07T09:49:39Z</time>
      </trkpt>
      <trkpt lat="43.57742" lon="6.60582">
        <ele>260</ele>
        <time>2024-04-07T09:49:55Z</time>
      </trkpt>
      <trkpt lat="43.57733" lon="6.60594">
        <ele>259</ele>
        <time>2024-04-07T09:49:57Z</time>
      </trkpt>
      <trkpt lat="43.57722" lon="6.60615">
        <ele>257</ele>
        <time>2024-04-07T09:50:00Z</time>
      </trkpt>
      <trkpt lat="43.57717" lon="6.60639">
        <ele>257</ele>
        <time>2024-04-07T09:50:04Z</time>
      </trkpt>
      <trkpt lat="43.57712" lon="6.60695">
        <ele>257</ele>
        <time>2024-04-07T09:50:11Z</time>
      </trkpt>
      <trkpt lat="43.57707" lon="6.60716">
        <ele>256</ele>
        <time>2024-04-07T09:50:14Z</time>
      </trkpt>
      <trkpt lat="43.57699" lon="6.6074">
        <ele>254</ele>
        <time>2024-04-07T09:50:17Z</time>
      </trkpt>
      <trkpt lat="43.57673" lon="6.60803">
        <ele>250</ele>
        <time>2024-04-07T09:50:26Z</time>
      </trkpt>
      <trkpt lat="43.57666" lon="6.60835">
        <ele>249</ele>
        <time>2024-04-07T09:50:31Z</time>
      </trkpt>
      <trkpt lat="43.5766" lon="6.60872">
        <ele>248</ele>
        <time>2024-04-07T09:50:36Z</time>
      </trkpt>
      <trkpt lat="43.57647" lon="6.60988">
        <ele>243</ele>
        <time>2024-04-07T09:50:51Z</time>
      </trkpt>
      <trkpt lat="43.57638" lon="6.6103">
        <ele>244</ele>
        <time>2024-04-07T09:50:56Z</time>
      </trkpt>
      <trkpt lat="43.57614" lon="6.61059">
        <ele>242</ele>
        <time>2024-04-07T09:51:02Z</time>
      </trkpt>
      <trkpt lat="43.57541" lon="6.61115">
        <ele>235</ele>
        <time>2024-04-07T09:51:17Z</time>
      </trkpt>
      <trkpt lat="43.57525" lon="6.61136">
        <ele>233</ele>
        <time>2024-04-07T09:51:21Z</time>
      </trkpt>
      <trkpt lat="43.57507" lon="6.61181">
        <ele>231</ele>
        <time>2024-04-07T09:51:27Z</time>
      </trkpt>
      <trkpt lat="43.57501" lon="6.61208">
        <ele>231</ele>
        <time>2024-04-07T09:51:31Z</time>
      </trkpt>
      <trkpt lat="43.57498" lon="6.61247">
        <ele>232</ele>
        <time>2024-04-07T09:51:36Z</time>
      </trkpt>
      <trkpt lat="43.57478" lon="6.61292">
        <ele>231</ele>
        <time>2024-04-07T09:51:43Z</time>
      </trkpt>
      <trkpt lat="43.57468" lon="6.61304">
        <ele>230</ele>
        <time>2024-04-07T09:51:45Z</time>
      </trkpt>
      <trkpt lat="43.57428" lon="6.61334">
        <ele>228</ele>
        <time>2024-04-07T09:51:53Z</time>
      </trkpt>
      <trkpt lat="43.5742" lon="6.61345">
        <ele>227</ele>
        <time>2024-04-07T09:51:55Z</time>
      </trkpt>
      <trkpt lat="43.57413" lon="6.6136">
        <ele>226</ele>
        <time>2024-04-07T09:51:58Z</time>
      </trkpt>
      <trkpt lat="43.57409" lon="6.61382">
        <ele>226</ele>
        <time>2024-04-07T09:52:01Z</time>
      </trkpt>
      <trkpt lat="43.57409" lon="6.61407">
        <ele>225</ele>
        <time>2024-04-07T09:52:04Z</time>
      </trkpt>
      <trkpt lat="43.57413" lon="6.61427">
        <ele>224</ele>
        <time>2024-04-07T09:52:07Z</time>
      </trkpt>
      <trkpt lat="43.57421" lon="6.61445">
        <ele>221</ele>
        <time>2024-04-07T09:52:09Z</time>
      </trkpt>
      <trkpt lat="43.57429" lon="6.61456">
        <ele>220</ele>
        <time>2024-04-07T09:52:11Z</time>
      </trkpt>
      <trkpt lat="43.57445" lon="6.61472">
        <ele>216</ele>
        <time>2024-04-07T09:52:15Z</time>
      </trkpt>
      <trkpt lat="43.57456" lon="6.61477">
        <ele>215</ele>
        <time>2024-04-07T09:52:17Z</time>
      </trkpt>
      <trkpt lat="43.57472" lon="6.61477">
        <ele>213</ele>
        <time>2024-04-07T09:52:20Z</time>
      </trkpt>
      <trkpt lat="43.57489" lon="6.61472">
        <ele>213</ele>
        <time>2024-04-07T09:52:23Z</time>
      </trkpt>
      <trkpt lat="43.57533" lon="6.61453">
        <ele>215</ele>
        <time>2024-04-07T09:52:31Z</time>
      </trkpt>
      <trkpt lat="43.57614" lon="6.61448">
        <ele>212</ele>
        <time>2024-04-07T09:52:45Z</time>
      </trkpt>
      <trkpt lat="43.5763" lon="6.61444">
        <ele>212</ele>
        <time>2024-04-07T09:52:48Z</time>
      </trkpt>
      <trkpt lat="43.57649" lon="6.61431">
        <ele>214</ele>
        <time>2024-04-07T09:52:52Z</time>
      </trkpt>
      <trkpt lat="43.57677" lon="6.61421">
        <ele>213</ele>
        <time>2024-04-07T09:52:57Z</time>
      </trkpt>
      <trkpt lat="43.57705" lon="6.61417">
        <ele>208</ele>
        <time>2024-04-07T09:53:02Z</time>
      </trkpt>
      <trkpt lat="43.57714" lon="6.6141">
        <ele>207</ele>
        <time>2024-04-07T09:53:04Z</time>
      </trkpt>
      <trkpt lat="43.57773" lon="6.61339">
        <ele>210</ele>
        <time>2024-04-07T09:53:18Z</time>
      </trkpt>
      <trkpt lat="43.57796" lon="6.61305">
        <ele>211</ele>
        <time>2024-04-07T09:53:24Z</time>
      </trkpt>
      <trkpt lat="43.57814" lon="6.61275">
        <ele>212</ele>
        <time>2024-04-07T09:53:29Z</time>
      </trkpt>
      <trkpt lat="43.57846" lon="6.61244">
        <ele>210</ele>
        <time>2024-04-07T09:53:36Z</time>
      </trkpt>
      <trkpt lat="43.57874" lon="6.61228">
        <ele>208</ele>
        <time>2024-04-07T09:53:41Z</time>
      </trkpt>
      <trkpt lat="43.57893" lon="6.61219">
        <ele>207</ele>
        <time>2024-04-07T09:53:45Z</time>
      </trkpt>
      <trkpt lat="43.57922" lon="6.61211">
        <ele>203</ele>
        <time>2024-04-07T09:53:50Z</time>
      </trkpt>
      <trkpt lat="43.57931" lon="6.61212">
        <ele>202</ele>
        <time>2024-04-07T09:53:52Z</time>
      </trkpt>
      <trkpt lat="43.57939" lon="6.61216">
        <ele>201</ele>
        <time>2024-04-07T09:53:53Z</time>
      </trkpt>
      <trkpt lat="43.57947" lon="6.61225">
        <ele>199</ele>
        <time>2024-04-07T09:53:55Z</time>
      </trkpt>
      <trkpt lat="43.57954" lon="6.61238">
        <ele>196</ele>
        <time>2024-04-07T09:53:57Z</time>
      </trkpt>
      <trkpt lat="43.57966" lon="6.6127">
        <ele>194</ele>
        <time>2024-04-07T09:54:02Z</time>
      </trkpt>
      <trkpt lat="43.57975" lon="6.61294">
        <ele>194</ele>
        <time>2024-04-07T09:54:05Z</time>
      </trkpt>
      <trkpt lat="43.57979" lon="6.61313">
        <ele>194</ele>
        <time>2024-04-07T09:54:08Z</time>
      </trkpt>
      <trkpt lat="43.5798" lon="6.61332">
        <ele>194</ele>
        <time>2024-04-07T09:54:10Z</time>
      </trkpt>
      <trkpt lat="43.57978" lon="6.61351">
        <ele>195</ele>
        <time>2024-04-07T09:54:13Z</time>
      </trkpt>
      <trkpt lat="43.57974" lon="6.61366">
        <ele>196</ele>
        <time>2024-04-07T09:54:15Z</time>
      </trkpt>
      <trkpt lat="43.57963" lon="6.61388">
        <ele>198</ele>
        <time>2024-04-07T09:54:18Z</time>
      </trkpt>
      <trkpt lat="43.5792" lon="6.61466">
        <ele>202</ele>
        <time>2024-04-07T09:54:31Z</time>
      </trkpt>
      <trkpt lat="43.57904" lon="6.6151">
        <ele>203</ele>
        <time>2024-04-07T09:54:37Z</time>
      </trkpt>
      <trkpt lat="43.57871" lon="6.61626">
        <ele>207</ele>
        <time>2024-04-07T09:54:53Z</time>
      </trkpt>
      <trkpt lat="43.57864" lon="6.61661">
        <ele>209</ele>
        <time>2024-04-07T09:54:58Z</time>
      </trkpt>
      <trkpt lat="43.57862" lon="6.61699">
        <ele>212</ele>
        <time>2024-04-07T09:55:03Z</time>
      </trkpt>
      <trkpt lat="43.57864" lon="6.61723">
        <ele>214</ele>
        <time>2024-04-07T09:55:06Z</time>
      </trkpt>
      <trkpt lat="43.57864" lon="6.61736">
        <ele>215</ele>
        <time>2024-04-07T09:55:08Z</time>
      </trkpt>
      <trkpt lat="43.57861" lon="6.61746">
        <ele>215</ele>
        <time>2024-04-07T09:55:09Z</time>
      </trkpt>
      <trkpt lat="43.57856" lon="6.61755">
        <ele>216</ele>
        <time>2024-04-07T09:55:11Z</time>
      </trkpt>
      <trkpt lat="43.5785" lon="6.61762">
        <ele>217</ele>
        <time>2024-04-07T09:55:12Z</time>
      </trkpt>
      <trkpt lat="43.57843" lon="6.61765">
        <ele>217</ele>
        <time>2024-04-07T09:55:13Z</time>
      </trkpt>
      <trkpt lat="43.57837" lon="6.61765">
        <ele>217</ele>
        <time>2024-04-07T09:55:14Z</time>
      </trkpt>
      <trkpt lat="43.57806" lon="6.61758">
        <ele>217</ele>
        <time>2024-04-07T09:55:20Z</time>
      </trkpt>
      <trkpt lat="43.57781" lon="6.61764">
        <ele>218</ele>
        <time>2024-04-07T09:55:25Z</time>
      </trkpt>
      <trkpt lat="43.57715" lon="6.61807">
        <ele>221</ele>
        <time>2024-04-07T09:55:38Z</time>
      </trkpt>
      <trkpt lat="43.577" lon="6.61822">
        <ele>222</ele>
        <time>2024-04-07T09:55:41Z</time>
      </trkpt>
      <trkpt lat="43.57695" lon="6.61829">
        <ele>222</ele>
        <time>2024-04-07T09:55:42Z</time>
      </trkpt>
      <trkpt lat="43.57643" lon="6.61943">
        <ele>228</ele>
        <time>2024-04-07T09:55:59Z</time>
      </trkpt>
      <trkpt lat="43.57617" lon="6.62021">
        <ele>234</ele>
        <time>2024-04-07T09:56:11Z</time>
      </trkpt>
      <trkpt lat="43.57599" lon="6.62052">
        <ele>235</ele>
        <time>2024-04-07T09:56:16Z</time>
      </trkpt>
      <trkpt lat="43.57579" lon="6.62076">
        <ele>236</ele>
        <time>2024-04-07T09:56:20Z</time>
      </trkpt>
      <trkpt lat="43.57562" lon="6.62087">
        <ele>235</ele>
        <time>2024-04-07T09:56:24Z</time>
      </trkpt>
      <trkpt lat="43.57524" lon="6.62104">
        <ele>234</ele>
        <time>2024-04-07T09:56:31Z</time>
      </trkpt>
      <trkpt lat="43.57496" lon="6.62128">
        <ele>235</ele>
        <time>2024-04-07T09:56:37Z</time>
      </trkpt>
      <trkpt lat="43.57485" lon="6.62145">
        <ele>238</ele>
        <time>2024-04-07T09:56:40Z</time>
      </trkpt>
      <trkpt lat="43.57484" lon="6.62162">
        <ele>240</ele>
        <time>2024-04-07T09:56:42Z</time>
      </trkpt>
      <trkpt lat="43.57488" lon="6.62171">
        <ele>241</ele>
        <time>2024-04-07T09:56:43Z</time>
      </trkpt>
      <trkpt lat="43.57492" lon="6.62176">
        <ele>241</ele>
        <time>2024-04-07T09:56:44Z</time>
      </trkpt>
      <trkpt lat="43.57502" lon="6.62178">
        <ele>241</ele>
        <time>2024-04-07T09:56:46Z</time>
      </trkpt>
      <trkpt lat="43.57508" lon="6.62176">
        <ele>241</ele>
        <time>2024-04-07T09:56:47Z</time>
      </trkpt>
      <trkpt lat="43.57528" lon="6.62163">
        <ele>241</ele>
        <time>2024-04-07T09:56:51Z</time>
      </trkpt>
      <trkpt lat="43.57552" lon="6.62159">
        <ele>243</ele>
        <time>2024-04-07T09:56:55Z</time>
      </trkpt>
      <trkpt lat="43.57583" lon="6.6216">
        <ele>246</ele>
        <time>2024-04-07T09:57:01Z</time>
      </trkpt>
      <trkpt lat="43.57667" lon="6.62158">
        <ele>251</ele>
        <time>2024-04-07T09:57:16Z</time>
      </trkpt>
      <trkpt lat="43.57762" lon="6.62141">
        <ele>259</ele>
        <time>2024-04-07T09:57:33Z</time>
      </trkpt>
      <trkpt lat="43.57862" lon="6.62114">
        <ele>263</ele>
        <time>2024-04-07T09:57:51Z</time>
      </trkpt>
      <trkpt lat="43.57897" lon="6.62102">
        <ele>263</ele>
        <time>2024-04-07T09:57:57Z</time>
      </trkpt>
      <trkpt lat="43.57942" lon="6.62082">
        <ele>262</ele>
        <time>2024-04-07T09:58:06Z</time>
      </trkpt>
      <trkpt lat="43.57955" lon="6.62081">
        <ele>263</ele>
        <time>2024-04-07T09:58:08Z</time>
      </trkpt>
      <trkpt lat="43.57976" lon="6.62085">
        <ele>264</ele>
        <time>2024-04-07T09:58:12Z</time>
      </trkpt>
      <trkpt lat="43.57994" lon="6.62099">
        <ele>266</ele>
        <time>2024-04-07T09:58:15Z</time>
      </trkpt>
      <trkpt lat="43.58014" lon="6.62131">
        <ele>271</ele>
        <time>2024-04-07T09:58:21Z</time>
      </trkpt>
      <trkpt lat="43.58022" lon="6.62148">
        <ele>274</ele>
        <time>2024-04-07T09:58:24Z</time>
      </trkpt>
      <trkpt lat="43.58032" lon="6.62174">
        <ele>278</ele>
        <time>2024-04-07T09:58:27Z</time>
      </trkpt>
      <trkpt lat="43.58045" lon="6.62215">
        <ele>280</ele>
        <time>2024-04-07T09:58:33Z</time>
      </trkpt>
      <trkpt lat="43.58049" lon="6.6224">
        <ele>280</ele>
        <time>2024-04-07T09:58:36Z</time>
      </trkpt>
      <trkpt lat="43.58058" lon="6.62317">
        <ele>277</ele>
        <time>2024-04-07T09:58:46Z</time>
      </trkpt>
      <trkpt lat="43.58066" lon="6.62352">
        <ele>274</ele>
        <time>2024-04-07T09:58:51Z</time>
      </trkpt>
      <trkpt lat="43.58075" lon="6.62371">
        <ele>273</ele>
        <time>2024-04-07T09:58:54Z</time>
      </trkpt>
      <trkpt lat="43.58088" lon="6.62391">
        <ele>272</ele>
        <time>2024-04-07T09:58:58Z</time>
      </trkpt>
      <trkpt lat="43.58103" lon="6.62419">
        <ele>271</ele>
        <time>2024-04-07T09:59:02Z</time>
      </trkpt>
      <trkpt lat="43.58117" lon="6.62469">
        <ele>269</ele>
        <time>2024-04-07T09:59:09Z</time>
      </trkpt>
      <trkpt lat="43.58122" lon="6.625">
        <ele>269</ele>
        <time>2024-04-07T09:59:13Z</time>
      </trkpt>
      <trkpt lat="43.58128" lon="6.62568">
        <ele>267</ele>
        <time>2024-04-07T09:59:22Z</time>
      </trkpt>
      <trkpt lat="43.58133" lon="6.62593">
        <ele>267</ele>
        <time>2024-04-07T09:59:25Z</time>
      </trkpt>
      <trkpt lat="43.58141" lon="6.62623">
        <ele>267</ele>
        <time>2024-04-07T09:59:29Z</time>
      </trkpt>
      <trkpt lat="43.58145" lon="6.6266">
        <ele>267</ele>
        <time>2024-04-07T09:59:34Z</time>
      </trkpt>
      <trkpt lat="43.5814" lon="6.62685">
        <ele>267</ele>
        <time>2024-04-07T09:59:38Z</time>
      </trkpt>
      <trkpt lat="43.58136" lon="6.62698">
        <ele>267</ele>
        <time>2024-04-07T09:59:39Z</time>
      </trkpt>
      <trkpt lat="43.58127" lon="6.62716">
        <ele>268</ele>
        <time>2024-04-07T09:59:42Z</time>
      </trkpt>
      <trkpt lat="43.58091" lon="6.62773">
        <ele>267</ele>
        <time>2024-04-07T09:59:52Z</time>
      </trkpt>
      <trkpt lat="43.58071" lon="6.6283">
        <ele>270</ele>
        <time>2024-04-07T10:00:00Z</time>
      </trkpt>
      <trkpt lat="43.58061" lon="6.62869">
        <ele>270</ele>
        <time>2024-04-07T10:00:05Z</time>
      </trkpt>
      <trkpt lat="43.58052" lon="6.6291">
        <ele>270</ele>
        <time>2024-04-07T10:00:11Z</time>
      </trkpt>
      <trkpt lat="43.58047" lon="6.62952">
        <ele>269</ele>
        <time>2024-04-07T10:00:16Z</time>
      </trkpt>
      <trkpt lat="43.58024" lon="6.63227">
        <ele>271</ele>
        <time>2024-04-07T10:00:52Z</time>
      </trkpt>
      <trkpt lat="43.58011" lon="6.6336">
        <ele>269</ele>
        <time>2024-04-07T10:01:09Z</time>
      </trkpt>
      <trkpt lat="43.58011" lon="6.63399">
        <ele>268</ele>
        <time>2024-04-07T10:01:14Z</time>
      </trkpt>
      <trkpt lat="43.58017" lon="6.63423">
        <ele>268</ele>
        <time>2024-04-07T10:01:18Z</time>
      </trkpt>
      <trkpt lat="43.58037" lon="6.63483">
        <ele>265</ele>
        <time>2024-04-07T10:01:26Z</time>
      </trkpt>
      <trkpt lat="43.58045" lon="6.63502">
        <ele>264</ele>
        <time>2024-04-07T10:01:29Z</time>
      </trkpt>
      <trkpt lat="43.58056" lon="6.63523">
        <ele>263</ele>
        <time>2024-04-07T10:01:32Z</time>
      </trkpt>
      <trkpt lat="43.58065" lon="6.63532">
        <ele>263</ele>
        <time>2024-04-07T10:01:34Z</time>
      </trkpt>
      <trkpt lat="43.58077" lon="6.63537">
        <ele>265</ele>
        <time>2024-04-07T10:01:37Z</time>
      </trkpt>
      <trkpt lat="43.58097" lon="6.63542">
        <ele>266</ele>
        <time>2024-04-07T10:01:40Z</time>
      </trkpt>
      <trkpt lat="43.58117" lon="6.63542">
        <ele>267</ele>
        <time>2024-04-07T10:01:44Z</time>
      </trkpt>
      <trkpt lat="43.58152" lon="6.63544">
        <ele>268</ele>
        <time>2024-04-07T10:01:50Z</time>
      </trkpt>
      <trkpt lat="43.58166" lon="6.63547">
        <ele>268</ele>
        <time>2024-04-07T10:01:53Z</time>
      </trkpt>
      <trkpt lat="43.58219" lon="6.63582">
        <ele>263</ele>
        <time>2024-04-07T10:02:03Z</time>
      </trkpt>
      <trkpt lat="43.58257" lon="6.63595">
        <ele>262</ele>
        <time>2024-04-07T10:02:10Z</time>
      </trkpt>
      <trkpt lat="43.5829" lon="6.63616">
        <ele>256</ele>
        <time>2024-04-07T10:02:16Z</time>
      </trkpt>
      <trkpt lat="43.58312" lon="6.63628">
        <ele>253</ele>
        <time>2024-04-07T10:02:21Z</time>
      </trkpt>
      <trkpt lat="43.58347" lon="6.63624">
        <ele>252</ele>
        <time>2024-04-07T10:02:27Z</time>
      </trkpt>
      <trkpt lat="43.58371" lon="6.63613">
        <ele>251</ele>
        <time>2024-04-07T10:02:31Z</time>
      </trkpt>
      <trkpt lat="43.58427" lon="6.63567">
        <ele>252</ele>
        <time>2024-04-07T10:02:43Z</time>
      </trkpt>
      <trkpt lat="43.58588" lon="6.63408">
        <ele>247</ele>
        <time>2024-04-07T10:03:18Z</time>
      </trkpt>
      <trkpt lat="43.5861" lon="6.63393">
        <ele>248</ele>
        <time>2024-04-07T10:03:23Z</time>
      </trkpt>
      <trkpt lat="43.58641" lon="6.63385">
        <ele>246</ele>
        <time>2024-04-07T10:03:28Z</time>
      </trkpt>
      <trkpt lat="43.58658" lon="6.63386">
        <ele>244</ele>
        <time>2024-04-07T10:03:31Z</time>
      </trkpt>
      <trkpt lat="43.58673" lon="6.63391">
        <ele>242</ele>
        <time>2024-04-07T10:03:34Z</time>
      </trkpt>
      <trkpt lat="43.58686" lon="6.63397">
        <ele>241</ele>
        <time>2024-04-07T10:03:36Z</time>
      </trkpt>
      <trkpt lat="43.587" lon="6.63407">
        <ele>240</ele>
        <time>2024-04-07T10:03:39Z</time>
      </trkpt>
      <trkpt lat="43.5871" lon="6.63421">
        <ele>239</ele>
        <time>2024-04-07T10:03:42Z</time>
      </trkpt>
      <trkpt lat="43.58731" lon="6.63455">
        <ele>240</ele>
        <time>2024-04-07T10:03:47Z</time>
      </trkpt>
      <trkpt lat="43.58736" lon="6.63472">
        <ele>242</ele>
        <time>2024-04-07T10:03:50Z</time>
      </trkpt>
      <trkpt lat="43.58736" lon="6.63483">
        <ele>243</ele>
        <time>2024-04-07T10:03:51Z</time>
      </trkpt>
      <trkpt lat="43.58733" lon="6.63504">
        <ele>244</ele>
        <time>2024-04-07T10:03:54Z</time>
      </trkpt>
      <trkpt lat="43.58695" lon="6.63593">
        <ele>244</ele>
        <time>2024-04-07T10:04:07Z</time>
      </trkpt>
      <trkpt lat="43.58667" lon="6.63656">
        <ele>243</ele>
        <time>2024-04-07T10:04:17Z</time>
      </trkpt>
      <trkpt lat="43.58658" lon="6.63686">
        <ele>245</ele>
        <time>2024-04-07T10:04:21Z</time>
      </trkpt>
      <trkpt lat="43.58653" lon="6.63721">
        <ele>247</ele>
        <time>2024-04-07T10:04:26Z</time>
      </trkpt>
      <trkpt lat="43.58652" lon="6.63742">
        <ele>248</ele>
        <time>2024-04-07T10:04:28Z</time>
      </trkpt>
      <trkpt lat="43.58657" lon="6.63779">
        <ele>249</ele>
        <time>2024-04-07T10:04:33Z</time>
      </trkpt>
      <trkpt lat="43.58661" lon="6.63795">
        <ele>249</ele>
        <time>2024-04-07T10:04:35Z</time>
      </trkpt>
      <trkpt lat="43.58668" lon="6.63809">
        <ele>249</ele>
        <time>2024-04-07T10:04:38Z</time>
      </trkpt>
      <trkpt lat="43.58677" lon="6.63824">
        <ele>250</ele>
        <time>2024-04-07T10:04:40Z</time>
      </trkpt>
      <trkpt lat="43.58689" lon="6.63836">
        <ele>251</ele>
        <time>2024-04-07T10:04:43Z</time>
      </trkpt>
      <trkpt lat="43.58707" lon="6.63846">
        <ele>253</ele>
        <time>2024-04-07T10:04:46Z</time>
      </trkpt>
      <trkpt lat="43.58718" lon="6.63849">
        <ele>254</ele>
        <time>2024-04-07T10:04:48Z</time>
      </trkpt>
      <trkpt lat="43.58741" lon="6.63849">
        <ele>257</ele>
        <time>2024-04-07T10:04:52Z</time>
      </trkpt>
      <trkpt lat="43.58756" lon="6.63857">
        <ele>258</ele>
        <time>2024-04-07T10:04:55Z</time>
      </trkpt>
      <trkpt lat="43.58767" lon="6.63875">
        <ele>258</ele>
        <time>2024-04-07T10:04:58Z</time>
      </trkpt>
      <trkpt lat="43.58771" lon="6.63888">
        <ele>259</ele>
        <time>2024-04-07T10:05:00Z</time>
      </trkpt>
      <trkpt lat="43.58772" lon="6.639">
        <ele>259</ele>
        <time>2024-04-07T10:05:02Z</time>
      </trkpt>
      <trkpt lat="43.58771" lon="6.63914">
        <ele>258</ele>
        <time>2024-04-07T10:05:03Z</time>
      </trkpt>
      <trkpt lat="43.58749" lon="6.63977">
        <ele>259</ele>
        <time>2024-04-07T10:05:12Z</time>
      </trkpt>
      <trkpt lat="43.5874" lon="6.64023">
        <ele>260</ele>
        <time>2024-04-07T10:05:18Z</time>
      </trkpt>
      <trkpt lat="43.58732" lon="6.64091">
        <ele>263</ele>
        <time>2024-04-07T10:05:27Z</time>
      </trkpt>
      <trkpt lat="43.58724" lon="6.64117">
        <ele>264</ele>
        <time>2024-04-07T10:05:31Z</time>
      </trkpt>
      <trkpt lat="43.58718" lon="6.64132">
        <ele>265</ele>
        <time>2024-04-07T10:05:33Z</time>
      </trkpt>
      <trkpt lat="43.58699" lon="6.64163">
        <ele>265</ele>
        <time>2024-04-07T10:05:38Z</time>
      </trkpt>
      <trkpt lat="43.58657" lon="6.64213">
        <ele>265</ele>
        <time>2024-04-07T10:05:48Z</time>
      </trkpt>
      <trkpt lat="43.58636" lon="6.6425">
        <ele>267</ele>
        <time>2024-04-07T10:05:54Z</time>
      </trkpt>
      <trkpt lat="43.5858" lon="6.64364">
        <ele>264</ele>
        <time>2024-04-07T10:06:12Z</time>
      </trkpt>
      <trkpt lat="43.58505" lon="6.64523">
        <ele>261</ele>
        <time>2024-04-07T10:06:37Z</time>
      </trkpt>
      <trkpt lat="43.58498" lon="6.64545">
        <ele>260</ele>
        <time>2024-04-07T10:06:40Z</time>
      </trkpt>
      <trkpt lat="43.58489" lon="6.64582">
        <ele>260</ele>
        <time>2024-04-07T10:06:45Z</time>
      </trkpt>
      <trkpt lat="43.58478" lon="6.64728">
        <ele>253</ele>
        <time>2024-04-07T10:07:04Z</time>
      </trkpt>
      <trkpt lat="43.58478" lon="6.64748">
        <ele>253</ele>
        <time>2024-04-07T10:07:06Z</time>
      </trkpt>
      <trkpt lat="43.58482" lon="6.64768">
        <ele>252</ele>
        <time>2024-04-07T10:07:09Z</time>
      </trkpt>
      <trkpt lat="43.585" lon="6.6481">
        <ele>251</ele>
        <time>2024-04-07T10:07:15Z</time>
      </trkpt>
      <trkpt lat="43.58508" lon="6.64841">
        <ele>249</ele>
        <time>2024-04-07T10:07:19Z</time>
      </trkpt>
      <trkpt lat="43.58509" lon="6.64855">
        <ele>249</ele>
        <time>2024-04-07T10:07:21Z</time>
      </trkpt>
      <trkpt lat="43.58505" lon="6.64894">
        <ele>249</ele>
        <time>2024-04-07T10:07:26Z</time>
      </trkpt>
      <trkpt lat="43.58487" lon="6.65004">
        <ele>243</ele>
        <time>2024-04-07T10:07:41Z</time>
      </trkpt>
      <trkpt lat="43.58484" lon="6.6503">
        <ele>242</ele>
        <time>2024-04-07T10:07:44Z</time>
      </trkpt>
      <trkpt lat="43.58484" lon="6.65055">
        <ele>241</ele>
        <time>2024-04-07T10:07:47Z</time>
      </trkpt>
      <trkpt lat="43.58487" lon="6.65087">
        <ele>239</ele>
        <time>2024-04-07T10:07:52Z</time>
      </trkpt>
      <trkpt lat="43.58495" lon="6.65114">
        <ele>238</ele>
        <time>2024-04-07T10:07:55Z</time>
      </trkpt>
      <trkpt lat="43.58531" lon="6.65194">
        <ele>238</ele>
        <time>2024-04-07T10:08:08Z</time>
      </trkpt>
      <trkpt lat="43.58539" lon="6.65221">
        <ele>238</ele>
        <time>2024-04-07T10:08:11Z</time>
      </trkpt>
      <trkpt lat="43.58535" lon="6.65456">
        <ele>239</ele>
        <time>2024-04-07T10:08:42Z</time>
      </trkpt>
      <trkpt lat="43.58535" lon="6.65712">
        <ele>242</ele>
        <time>2024-04-07T10:09:15Z</time>
      </trkpt>
      <trkpt lat="43.58528" lon="6.65754">
        <ele>242</ele>
        <time>2024-04-07T10:09:20Z</time>
      </trkpt>
      <trkpt lat="43.58516" lon="6.65789">
        <ele>244</ele>
        <time>2024-04-07T10:09:25Z</time>
      </trkpt>
      <trkpt lat="43.58491" lon="6.65838">
        <ele>246</ele>
        <time>2024-04-07T10:09:33Z</time>
      </trkpt>
      <trkpt lat="43.58471" lon="6.65858">
        <ele>246</ele>
        <time>2024-04-07T10:09:37Z</time>
      </trkpt>
      <trkpt lat="43.58458" lon="6.65878">
        <ele>246</ele>
        <time>2024-04-07T10:09:41Z</time>
      </trkpt>
      <trkpt lat="43.58453" lon="6.65894">
        <ele>247</ele>
        <time>2024-04-07T10:09:43Z</time>
      </trkpt>
      <trkpt lat="43.58451" lon="6.65915">
        <ele>249</ele>
        <time>2024-04-07T10:09:46Z</time>
      </trkpt>
      <trkpt lat="43.58455" lon="6.65955">
        <ele>250</ele>
        <time>2024-04-07T10:09:51Z</time>
      </trkpt>
      <trkpt lat="43.58462" lon="6.65972">
        <ele>251</ele>
        <time>2024-04-07T10:09:53Z</time>
      </trkpt>
      <trkpt lat="43.58474" lon="6.65987">
        <ele>253</ele>
        <time>2024-04-07T10:09:56Z</time>
      </trkpt>
      <trkpt lat="43.58521" lon="6.66021">
        <ele>258</ele>
        <time>2024-04-07T10:10:06Z</time>
      </trkpt>
      <trkpt lat="43.58531" lon="6.66034">
        <ele>259</ele>
        <time>2024-04-07T10:10:08Z</time>
      </trkpt>
      <trkpt lat="43.58536" lon="6.66051">
        <ele>259</ele>
        <time>2024-04-07T10:10:11Z</time>
      </trkpt>
      <trkpt lat="43.58535" lon="6.66063">
        <ele>260</ele>
        <time>2024-04-07T10:10:12Z</time>
      </trkpt>
      <trkpt lat="43.58527" lon="6.66075">
        <ele>259</ele>
        <time>2024-04-07T10:10:14Z</time>
      </trkpt>
      <trkpt lat="43.58507" lon="6.66098">
        <ele>260</ele>
        <time>2024-04-07T10:10:19Z</time>
      </trkpt>
      <trkpt lat="43.58489" lon="6.66124">
        <ele>261</ele>
        <time>2024-04-07T10:10:23Z</time>
      </trkpt>
      <trkpt lat="43.58473" lon="6.66154">
        <ele>261</ele>
        <time>2024-04-07T10:10:28Z</time>
      </trkpt>
      <trkpt lat="43.58464" lon="6.66199">
        <ele>264</ele>
        <time>2024-04-07T10:10:34Z</time>
      </trkpt>
      <trkpt lat="43.58458" lon="6.66281">
        <ele>269</ele>
        <time>2024-04-07T10:10:45Z</time>
      </trkpt>
      <trkpt lat="43.58457" lon="6.66311">
        <ele>272</ele>
        <time>2024-04-07T10:10:49Z</time>
      </trkpt>
      <trkpt lat="43.5845" lon="6.66378">
        <ele>275</ele>
        <time>2024-04-07T10:10:57Z</time>
      </trkpt>
      <trkpt lat="43.58441" lon="6.6641">
        <ele>276</ele>
        <time>2024-04-07T10:11:02Z</time>
      </trkpt>
      <trkpt lat="43.5843" lon="6.66427">
        <ele>276</ele>
        <time>2024-04-07T10:11:05Z</time>
      </trkpt>
      <trkpt lat="43.58417" lon="6.66442">
        <ele>276</ele>
        <time>2024-04-07T10:11:08Z</time>
      </trkpt>
      <trkpt lat="43.58363" lon="6.66494">
        <ele>276</ele>
        <time>2024-04-07T10:11:20Z</time>
      </trkpt>
      <trkpt lat="43.58343" lon="6.6652">
        <ele>276</ele>
        <time>2024-04-07T10:11:24Z</time>
      </trkpt>
      <trkpt lat="43.58332" lon="6.66538">
        <ele>276</ele>
        <time>2024-04-07T10:11:27Z</time>
      </trkpt>
      <trkpt lat="43.58319" lon="6.66582">
        <ele>278</ele>
        <time>2024-04-07T10:11:34Z</time>
      </trkpt>
      <trkpt lat="43.58317" lon="6.66636">
        <ele>278</ele>
        <time>2024-04-07T10:11:41Z</time>
      </trkpt>
      <trkpt lat="43.58332" lon="6.66737">
        <ele>277</ele>
        <time>2024-04-07T10:11:54Z</time>
      </trkpt>
      <trkpt lat="43.58355" lon="6.66855">
        <ele>280</ele>
        <time>2024-04-07T10:12:10Z</time>
      </trkpt>
      <trkpt lat="43.58365" lon="6.66885">
        <ele>280</ele>
        <time>2024-04-07T10:12:14Z</time>
      </trkpt>
      <trkpt lat="43.58372" lon="6.66895">
        <ele>280</ele>
        <time>2024-04-07T10:12:16Z</time>
      </trkpt>
      <trkpt lat="43.58383" lon="6.66906">
        <ele>281</ele>
        <time>2024-04-07T10:12:18Z</time>
      </trkpt>
      <trkpt lat="43.58421" lon="6.66927">
        <ele>282</ele>
        <time>2024-04-07T10:12:25Z</time>
      </trkpt>
      <trkpt lat="43.58479" lon="6.66946">
        <ele>283</ele>
        <time>2024-04-07T10:12:36Z</time>
      </trkpt>
      <trkpt lat="43.58493" lon="6.66953">
        <ele>283</ele>
        <time>2024-04-07T10:12:39Z</time>
      </trkpt>
      <trkpt lat="43.58513" lon="6.66966">
        <ele>282</ele>
        <time>2024-04-07T10:12:43Z</time>
      </trkpt>
      <trkpt lat="43.58561" lon="6.67006">
        <ele>282</ele>
        <time>2024-04-07T10:12:53Z</time>
      </trkpt>
      <trkpt lat="43.58583" lon="6.67019">
        <ele>282</ele>
        <time>2024-04-07T10:12:57Z</time>
      </trkpt>
      <trkpt lat="43.58599" lon="6.67025">
        <ele>281</ele>
        <time>2024-04-07T10:13:00Z</time>
      </trkpt>
      <trkpt lat="43.58613" lon="6.67027">
        <ele>281</ele>
        <time>2024-04-07T10:13:02Z</time>
      </trkpt>
      <trkpt lat="43.58627" lon="6.67025">
        <ele>281</ele>
        <time>2024-04-07T10:13:05Z</time>
      </trkpt>
      <trkpt lat="43.5864" lon="6.6702">
        <ele>282</ele>
        <time>2024-04-07T10:13:07Z</time>
      </trkpt>
      <trkpt lat="43.58655" lon="6.67006">
        <ele>283</ele>
        <time>2024-04-07T10:13:10Z</time>
      </trkpt>
      <trkpt lat="43.58688" lon="6.66968">
        <ele>284</ele>
        <time>2024-04-07T10:13:18Z</time>
      </trkpt>
      <trkpt lat="43.58705" lon="6.66951">
        <ele>284</ele>
        <time>2024-04-07T10:13:22Z</time>
      </trkpt>
      <trkpt lat="43.58722" lon="6.66942">
        <ele>283</ele>
        <time>2024-04-07T10:13:25Z</time>
      </trkpt>
      <trkpt lat="43.5874" lon="6.66939">
        <ele>281</ele>
        <time>2024-04-07T10:13:28Z</time>
      </trkpt>
      <trkpt lat="43.58753" lon="6.66945">
        <ele>280</ele>
        <time>2024-04-07T10:13:31Z</time>
      </trkpt>
      <trkpt lat="43.58763" lon="6.66956">
        <ele>280</ele>
        <time>2024-04-07T10:13:33Z</time>
      </trkpt>
      <trkpt lat="43.58771" lon="6.66974">
        <ele>280</ele>
        <time>2024-04-07T10:13:36Z</time>
      </trkpt>
      <trkpt lat="43.58774" lon="6.66999">
        <ele>280</ele>
        <time>2024-04-07T10:13:39Z</time>
      </trkpt>
      <trkpt lat="43.58771" lon="6.67029">
        <ele>281</ele>
        <time>2024-04-07T10:13:43Z</time>
      </trkpt>
      <trkpt lat="43.58762" lon="6.67058">
        <ele>282</ele>
        <time>2024-04-07T10:13:47Z</time>
      </trkpt>
      <trkpt lat="43.58724" lon="6.6714">
        <ele>285</ele>
        <time>2024-04-07T10:13:59Z</time>
      </trkpt>
      <trkpt lat="43.5869" lon="6.67225">
        <ele>289</ele>
        <time>2024-04-07T10:14:12Z</time>
      </trkpt>
      <trkpt lat="43.58679" lon="6.67267">
        <ele>289</ele>
        <time>2024-04-07T10:14:18Z</time>
      </trkpt>
      <trkpt lat="43.58677" lon="6.67288">
        <ele>289</ele>
        <time>2024-04-07T10:14:20Z</time>
      </trkpt>
      <trkpt lat="43.58679" lon="6.67325">
        <ele>289</ele>
        <time>2024-04-07T10:14:25Z</time>
      </trkpt>
      <trkpt lat="43.58732" lon="6.67551">
        <ele>289</ele>
        <time>2024-04-07T10:14:56Z</time>
      </trkpt>
      <trkpt lat="43.58744" lon="6.67576">
        <ele>290</ele>
        <time>2024-04-07T10:15:00Z</time>
      </trkpt>
      <trkpt lat="43.58765" lon="6.67593">
        <ele>291</ele>
        <time>2024-04-07T10:15:04Z</time>
      </trkpt>
      <trkpt lat="43.58784" lon="6.67601">
        <ele>291</ele>
        <time>2024-04-07T10:15:08Z</time>
      </trkpt>
      <trkpt lat="43.58872" lon="6.67619">
        <ele>294</ele>
        <time>2024-04-07T10:15:23Z</time>
      </trkpt>
      <trkpt lat="43.58987" lon="6.67653">
        <ele>295</ele>
        <time>2024-04-07T10:15:44Z</time>
      </trkpt>
      <trkpt lat="43.58997" lon="6.6766">
        <ele>295</ele>
        <time>2024-04-07T10:15:46Z</time>
      </trkpt>
      <trkpt lat="43.59009" lon="6.67673">
        <ele>295</ele>
        <time>2024-04-07T10:15:49Z</time>
      </trkpt>
      <trkpt lat="43.59019" lon="6.67694">
        <ele>296</ele>
        <time>2024-04-07T10:15:52Z</time>
      </trkpt>
      <trkpt lat="43.59036" lon="6.6768">
        <ele>297</ele>
        <time>2024-04-07T10:15:56Z</time>
      </trkpt>
      <trkpt lat="43.59043" lon="6.67671">
        <ele>298</ele>
        <time>2024-04-07T10:15:57Z</time>
      </trkpt>
      <trkpt lat="43.59052" lon="6.67678">
        <ele>298</ele>
        <time>2024-04-07T10:15:59Z</time>
      </trkpt>
      <trkpt lat="43.5908" lon="6.6775">
        <ele>302</ele>
        <time>2024-04-07T10:16:10Z</time>
      </trkpt>
      <trkpt lat="43.59091" lon="6.67796">
        <ele>304</ele>
        <time>2024-04-07T10:16:16Z</time>
      </trkpt>
      <trkpt lat="43.59109" lon="6.67888">
        <ele>308</ele>
        <time>2024-04-07T10:16:28Z</time>
      </trkpt>
      <trkpt lat="43.59114" lon="6.67904">
        <ele>308</ele>
        <time>2024-04-07T10:16:31Z</time>
      </trkpt>
      <trkpt lat="43.59119" lon="6.67912">
        <ele>308</ele>
        <time>2024-04-07T10:16:32Z</time>
      </trkpt>
      <trkpt lat="43.5919" lon="6.6799">
        <ele>306</ele>
        <time>2024-04-07T10:16:48Z</time>
      </trkpt>
      <trkpt lat="43.59224" lon="6.67997">
        <ele>303</ele>
        <time>2024-04-07T10:16:54Z</time>
      </trkpt>
      <trkpt lat="43.59296" lon="6.68007">
        <ele>299</ele>
        <time>2024-04-07T10:17:07Z</time>
      </trkpt>
      <trkpt lat="43.59325" lon="6.68021">
        <ele>298</ele>
        <time>2024-04-07T10:17:13Z</time>
      </trkpt>
      <trkpt lat="43.59385" lon="6.68075">
        <ele>289</ele>
        <time>2024-04-07T10:17:25Z</time>
      </trkpt>
      <trkpt lat="43.59404" lon="6.6811">
        <ele>284</ele>
        <time>2024-04-07T10:17:31Z</time>
      </trkpt>
      <trkpt lat="43.59476" lon="6.68221">
        <ele>277</ele>
        <time>2024-04-07T10:17:50Z</time>
      </trkpt>
      <trkpt lat="43.59539" lon="6.68291">
        <ele>271</ele>
        <time>2024-04-07T10:18:05Z</time>
      </trkpt>
      <trkpt lat="43.59616" lon="6.68436">
        <ele>260</ele>
        <time>2024-04-07T10:18:28Z</time>
      </trkpt>
      <trkpt lat="43.5966" lon="6.68542">
        <ele>254</ele>
        <time>2024-04-07T10:18:43Z</time>
      </trkpt>
      <trkpt lat="43.59698" lon="6.68667">
        <ele>254</ele>
        <time>2024-04-07T10:19:01Z</time>
      </trkpt>
      <trkpt lat="43.59746" lon="6.68788">
        <ele>251</ele>
        <time>2024-04-07T10:19:19Z</time>
      </trkpt>
      <trkpt lat="43.59785" lon="6.689">
        <ele>250</ele>
        <time>2024-04-07T10:19:35Z</time>
      </trkpt>
      <trkpt lat="43.59801" lon="6.68941">
        <ele>249</ele>
        <time>2024-04-07T10:19:41Z</time>
      </trkpt>
      <trkpt lat="43.59819" lon="6.68974">
        <ele>248</ele>
        <time>2024-04-07T10:19:46Z</time>
      </trkpt>
      <trkpt lat="43.59823" lon="6.68993">
        <ele>247</ele>
        <time>2024-04-07T10:19:49Z</time>
      </trkpt>
      <trkpt lat="43.59839" lon="6.68987">
        <ele>248</ele>
        <time>2024-04-07T10:19:52Z</time>
      </trkpt>
      <trkpt lat="43.59846" lon="6.69023">
        <ele>247</ele>
        <time>2024-04-07T10:19:56Z</time>
      </trkpt>
      <trkpt lat="43.59856" lon="6.69048">
        <ele>248</ele>
        <time>2024-04-07T10:20:00Z</time>
      </trkpt>
      <trkpt lat="43.59858" lon="6.69061">
        <ele>248</ele>
        <time>2024-04-07T10:20:02Z</time>
      </trkpt>
      <trkpt lat="43.59857" lon="6.69136">
        <ele>249</ele>
        <time>2024-04-07T10:20:11Z</time>
      </trkpt>
      <trkpt lat="43.59861" lon="6.69164">
        <ele>250</ele>
        <time>2024-04-07T10:20:15Z</time>
      </trkpt>
      <trkpt lat="43.59882" lon="6.69239">
        <ele>252</ele>
        <time>2024-04-07T10:20:25Z</time>
      </trkpt>
      <trkpt lat="43.59898" lon="6.69282">
        <ele>253</ele>
        <time>2024-04-07T10:20:32Z</time>
      </trkpt>
      <trkpt lat="43.59907" lon="6.69298">
        <ele>253</ele>
        <time>2024-04-07T10:20:34Z</time>
      </trkpt>
      <trkpt lat="43.59942" lon="6.69324">
        <ele>254</ele>
        <time>2024-04-07T10:20:41Z</time>
      </trkpt>
      <trkpt lat="43.59966" lon="6.69344">
        <ele>254</ele>
        <time>2024-04-07T10:20:46Z</time>
      </trkpt>
      <trkpt lat="43.60094" lon="6.69465">
        <ele>241</ele>
        <time>2024-04-07T10:21:14Z</time>
      </trkpt>
      <trkpt lat="43.60136" lon="6.695">
        <ele>237</ele>
        <time>2024-04-07T10:21:23Z</time>
      </trkpt>
      <trkpt lat="43.60196" lon="6.69557">
        <ele>231</ele>
        <time>2024-04-07T10:21:36Z</time>
      </trkpt>
      <trkpt lat="43.60258" lon="6.69626">
        <ele>225</ele>
        <time>2024-04-07T10:21:50Z</time>
      </trkpt>
      <trkpt lat="43.60308" lon="6.69672">
        <ele>221</ele>
        <time>2024-04-07T10:22:00Z</time>
      </trkpt>
      <trkpt lat="43.60355" lon="6.69723">
        <ele>219</ele>
        <time>2024-04-07T10:22:11Z</time>
      </trkpt>
      <trkpt lat="43.60376" lon="6.69752">
        <ele>219</ele>
        <time>2024-04-07T10:22:16Z</time>
      </trkpt>
      <trkpt lat="43.60417" lon="6.69802">
        <ele>218</ele>
        <time>2024-04-07T10:22:26Z</time>
      </trkpt>
      <trkpt lat="43.60475" lon="6.6986">
        <ele>218</ele>
        <time>2024-04-07T10:22:39Z</time>
      </trkpt>
      <trkpt lat="43.60505" lon="6.69924">
        <ele>219</ele>
        <time>2024-04-07T10:22:49Z</time>
      </trkpt>
      <trkpt lat="43.60553" lon="6.69988">
        <ele>218</ele>
        <time>2024-04-07T10:23:01Z</time>
      </trkpt>
      <trkpt lat="43.60582" lon="6.7003">
        <ele>217</ele>
        <time>2024-04-07T10:23:08Z</time>
      </trkpt>
      <trkpt lat="43.60588" lon="6.70045">
        <ele>216</ele>
        <time>2024-04-07T10:23:10Z</time>
      </trkpt>
      <trkpt lat="43.60633" lon="6.70124">
        <ele>217</ele>
        <time>2024-04-07T10:23:23Z</time>
      </trkpt>
      <trkpt lat="43.60633" lon="6.70137">
        <ele>217</ele>
        <time>2024-04-07T10:23:25Z</time>
      </trkpt>
      <trkpt lat="43.60646" lon="6.70152">
        <ele>217</ele>
        <time>2024-04-07T10:23:28Z</time>
      </trkpt>
      <trkpt lat="43.6066" lon="6.7017">
        <ele>217</ele>
        <time>2024-04-07T10:23:31Z</time>
      </trkpt>
      <trkpt lat="43.60677" lon="6.70206">
        <ele>216</ele>
        <time>2024-04-07T10:23:37Z</time>
      </trkpt>
      <trkpt lat="43.60684" lon="6.70229">
        <ele>216</ele>
        <time>2024-04-07T10:23:40Z</time>
      </trkpt>
      <trkpt lat="43.60694" lon="6.70282">
        <ele>215</ele>
        <time>2024-04-07T10:23:47Z</time>
      </trkpt>
      <trkpt lat="43.60733" lon="6.70575">
        <ele>213</ele>
        <time>2024-04-07T10:24:26Z</time>
      </trkpt>
      <trkpt lat="43.60757" lon="6.70726">
        <ele>213</ele>
        <time>2024-04-07T10:24:45Z</time>
      </trkpt>
      <trkpt lat="43.60784" lon="6.70957">
        <ele>214</ele>
        <time>2024-04-07T10:25:16Z</time>
      </trkpt>
      <trkpt lat="43.60801" lon="6.71084">
        <ele>213</ele>
        <time>2024-04-07T10:25:32Z</time>
      </trkpt>
      <trkpt lat="43.60799" lon="6.71123">
        <ele>213</ele>
        <time>2024-04-07T10:25:37Z</time>
      </trkpt>
      <trkpt lat="43.60794" lon="6.71132">
        <ele>213</ele>
        <time>2024-04-07T10:25:39Z</time>
      </trkpt>
      <trkpt lat="43.60794" lon="6.71143">
        <ele>213</ele>
        <time>2024-04-07T10:25:40Z</time>
      </trkpt>
      <trkpt lat="43.60798" lon="6.71154">
        <ele>213</ele>
        <time>2024-04-07T10:25:42Z</time>
      </trkpt>
      <trkpt lat="43.60806" lon="6.7116">
        <ele>214</ele>
        <time>2024-04-07T10:25:43Z</time>
      </trkpt>
      <trkpt lat="43.60816" lon="6.71196">
        <ele>214</ele>
        <time>2024-04-07T10:25:48Z</time>
      </trkpt>
      <trkpt lat="43.60845" lon="6.71415">
        <ele>211</ele>
        <time>2024-04-07T10:26:17Z</time>
      </trkpt>
      <trkpt lat="43.6085" lon="6.71437">
        <ele>211</ele>
        <time>2024-04-07T10:26:20Z</time>
      </trkpt>
      <trkpt lat="43.60864" lon="6.71483">
        <ele>211</ele>
        <time>2024-04-07T10:26:26Z</time>
      </trkpt>
      <trkpt lat="43.60946" lon="6.71708">
        <ele>212</ele>
        <time>2024-04-07T10:26:59Z</time>
      </trkpt>
      <trkpt lat="43.60965" lon="6.71764">
        <ele>211</ele>
        <time>2024-04-07T10:27:07Z</time>
      </trkpt>
      <trkpt lat="43.60975" lon="6.71807">
        <ele>212</ele>
        <time>2024-04-07T10:27:13Z</time>
      </trkpt>
      <trkpt lat="43.60982" lon="6.7186">
        <ele>212</ele>
        <time>2024-04-07T10:27:20Z</time>
      </trkpt>
      <trkpt lat="43.61" lon="6.72039">
        <ele>212</ele>
        <time>2024-04-07T10:27:43Z</time>
      </trkpt>
      <trkpt lat="43.61015" lon="6.72174">
        <ele>216</ele>
        <time>2024-04-07T10:28:00Z</time>
      </trkpt>
      <trkpt lat="43.61027" lon="6.72261">
        <ele>216</ele>
        <time>2024-04-07T10:28:12Z</time>
      </trkpt>
      <trkpt lat="43.61034" lon="6.72364">
        <ele>217</ele>
        <time>2024-04-07T10:28:25Z</time>
      </trkpt>
      <trkpt lat="43.61042" lon="6.72466">
        <ele>218</ele>
        <time>2024-04-07T10:28:38Z</time>
      </trkpt>
      <trkpt lat="43.6106" lon="6.72556">
        <ele>220</ele>
        <time>2024-04-07T10:28:50Z</time>
      </trkpt>
      <trkpt lat="43.61063" lon="6.72587">
        <ele>221</ele>
        <time>2024-04-07T10:28:54Z</time>
      </trkpt>
      <trkpt lat="43.61063" lon="6.72617">
        <ele>223</ele>
        <time>2024-04-07T10:28:58Z</time>
      </trkpt>
      <trkpt lat="43.61061" lon="6.72669">
        <ele>225</ele>
        <time>2024-04-07T10:29:05Z</time>
      </trkpt>
      <trkpt lat="43.61057" lon="6.72716">
        <ele>227</ele>
        <time>2024-04-07T10:29:11Z</time>
      </trkpt>
      <trkpt lat="43.61027" lon="6.73019">
        <ele>217</ele>
        <time>2024-04-07T10:29:51Z</time>
      </trkpt>
      <trkpt lat="43.61009" lon="6.73123">
        <ele>216</ele>
        <time>2024-04-07T10:30:04Z</time>
      </trkpt>
      <trkpt lat="43.61009" lon="6.73171">
        <ele>216</ele>
        <time>2024-04-07T10:30:10Z</time>
      </trkpt>
      <trkpt lat="43.61004" lon="6.73181">
        <ele>216</ele>
        <time>2024-04-07T10:30:12Z</time>
      </trkpt>
      <trkpt lat="43.61003" lon="6.73192">
        <ele>216</ele>
        <time>2024-04-07T10:30:13Z</time>
      </trkpt>
      <trkpt lat="43.61005" lon="6.73203">
        <ele>216</ele>
        <time>2024-04-07T10:30:15Z</time>
      </trkpt>
      <trkpt lat="43.61011" lon="6.73213">
        <ele>216</ele>
        <time>2024-04-07T10:30:17Z</time>
      </trkpt>
      <trkpt lat="43.61013" lon="6.7323">
        <ele>216</ele>
        <time>2024-04-07T10:30:19Z</time>
      </trkpt>
      <trkpt lat="43.61013" lon="6.73255">
        <ele>216</ele>
        <time>2024-04-07T10:30:22Z</time>
      </trkpt>
      <trkpt lat="43.61004" lon="6.73333">
        <ele>217</ele>
        <time>2024-04-07T10:30:32Z</time>
      </trkpt>
      <trkpt lat="43.60833" lon="6.74073">
        <ele>198</ele>
        <time>2024-04-07T10:32:12Z</time>
      </trkpt>
      <trkpt lat="43.60807" lon="6.74166">
        <ele>197</ele>
        <time>2024-04-07T10:32:25Z</time>
      </trkpt>
      <trkpt lat="43.60796" lon="6.7423">
        <ele>195</ele>
        <time>2024-04-07T10:32:34Z</time>
      </trkpt>
      <trkpt lat="43.60793" lon="6.74238">
        <ele>194</ele>
        <time>2024-04-07T10:32:35Z</time>
      </trkpt>
      <trkpt lat="43.60788" lon="6.74244">
        <ele>194</ele>
        <time>2024-04-07T10:32:36Z</time>
      </trkpt>
      <trkpt lat="43.60784" lon="6.74255">
        <ele>194</ele>
        <time>2024-04-07T10:32:38Z</time>
      </trkpt>
      <trkpt lat="43.60783" lon="6.74267">
        <ele>194</ele>
        <time>2024-04-07T10:32:39Z</time>
      </trkpt>
      <trkpt lat="43.60788" lon="6.74279">
        <ele>194</ele>
        <time>2024-04-07T10:32:41Z</time>
      </trkpt>
      <trkpt lat="43.60791" lon="6.743">
        <ele>194</ele>
        <time>2024-04-07T10:32:44Z</time>
      </trkpt>
      <trkpt lat="43.60785" lon="6.74381">
        <ele>194</ele>
        <time>2024-04-07T10:32:54Z</time>
      </trkpt>
      <trkpt lat="43.60773" lon="6.74543">
        <ele>191</ele>
        <time>2024-04-07T10:33:15Z</time>
      </trkpt>
      <trkpt lat="43.60765" lon="6.7461">
        <ele>191</ele>
        <time>2024-04-07T10:33:24Z</time>
      </trkpt>
      <trkpt lat="43.60755" lon="6.74667">
        <ele>192</ele>
        <time>2024-04-07T10:33:31Z</time>
      </trkpt>
      <trkpt lat="43.60701" lon="6.74871">
        <ele>191</ele>
        <time>2024-04-07T10:33:59Z</time>
      </trkpt>
      <trkpt lat="43.60665" lon="6.74992">
        <ele>189</ele>
        <time>2024-04-07T10:34:16Z</time>
      </trkpt>
      <trkpt lat="43.60651" lon="6.75057">
        <ele>188</ele>
        <time>2024-04-07T10:34:25Z</time>
      </trkpt>
      <trkpt lat="43.60624" lon="6.75205">
        <ele>186</ele>
        <time>2024-04-07T10:34:45Z</time>
      </trkpt>
      <trkpt lat="43.60607" lon="6.75287">
        <ele>185</ele>
        <time>2024-04-07T10:34:56Z</time>
      </trkpt>
      <trkpt lat="43.60587" lon="6.75446">
        <ele>184</ele>
        <time>2024-04-07T10:35:16Z</time>
      </trkpt>
      <trkpt lat="43.60582" lon="6.75468">
        <ele>184</ele>
        <time>2024-04-07T10:35:19Z</time>
      </trkpt>
      <trkpt lat="43.60572" lon="6.75495">
        <ele>184</ele>
        <time>2024-04-07T10:35:23Z</time>
      </trkpt>
      <trkpt lat="43.60567" lon="6.75501">
        <ele>184</ele>
        <time>2024-04-07T10:35:24Z</time>
      </trkpt>
      <trkpt lat="43.60562" lon="6.75506">
        <ele>183</ele>
        <time>2024-04-07T10:35:26Z</time>
      </trkpt>
      <trkpt lat="43.60558" lon="6.75514">
        <ele>183</ele>
        <time>2024-04-07T10:35:27Z</time>
      </trkpt>
      <trkpt lat="43.60557" lon="6.75523">
        <ele>183</ele>
        <time>2024-04-07T10:35:28Z</time>
      </trkpt>
      <trkpt lat="43.60559" lon="6.75534">
        <ele>183</ele>
        <time>2024-04-07T10:35:29Z</time>
      </trkpt>
      <trkpt lat="43.60565" lon="6.75541">
        <ele>183</ele>
        <time>2024-04-07T10:35:31Z</time>
      </trkpt>
      <trkpt lat="43.60571" lon="6.7558">
        <ele>183</ele>
        <time>2024-04-07T10:35:36Z</time>
      </trkpt>
      <trkpt lat="43.60569" lon="6.75665">
        <ele>184</ele>
        <time>2024-04-07T10:35:47Z</time>
      </trkpt>
      <trkpt lat="43.6055" lon="6.7579">
        <ele>182</ele>
        <time>2024-04-07T10:36:03Z</time>
      </trkpt>
      <trkpt lat="43.6055" lon="6.75919">
        <ele>181</ele>
        <time>2024-04-07T10:36:20Z</time>
      </trkpt>
      <trkpt lat="43.60554" lon="6.75974">
        <ele>181</ele>
        <time>2024-04-07T10:36:27Z</time>
      </trkpt>
      <trkpt lat="43.60555" lon="6.75994">
        <ele>181</ele>
        <time>2024-04-07T10:36:30Z</time>
      </trkpt>
      <trkpt lat="43.60562" lon="6.76081">
        <ele>181</ele>
        <time>2024-04-07T10:36:41Z</time>
      </trkpt>
      <trkpt lat="43.6057" lon="6.76151">
        <ele>180</ele>
        <time>2024-04-07T10:36:50Z</time>
      </trkpt>
      <trkpt lat="43.6057" lon="6.76189">
        <ele>180</ele>
        <time>2024-04-07T10:36:55Z</time>
      </trkpt>
      <trkpt lat="43.60569" lon="6.76204">
        <ele>180</ele>
        <time>2024-04-07T10:36:57Z</time>
      </trkpt>
      <trkpt lat="43.60566" lon="6.76208">
        <ele>180</ele>
        <time>2024-04-07T10:36:58Z</time>
      </trkpt>
      <trkpt lat="43.60567" lon="6.76218">
        <ele>180</ele>
        <time>2024-04-07T10:36:59Z</time>
      </trkpt>
      <trkpt lat="43.6057" lon="6.76223">
        <ele>180</ele>
        <time>2024-04-07T10:37:00Z</time>
      </trkpt>
      <trkpt lat="43.60569" lon="6.76319">
        <ele>181</ele>
        <time>2024-04-07T10:37:12Z</time>
      </trkpt>
      <trkpt lat="43.6057" lon="6.7637">
        <ele>181</ele>
        <time>2024-04-07T10:37:19Z</time>
      </trkpt>
      <trkpt lat="43.60571" lon="6.76412">
        <ele>181</ele>
        <time>2024-04-07T10:37:24Z</time>
      </trkpt>
      <trkpt lat="43.60577" lon="6.76493">
        <ele>181</ele>
        <time>2024-04-07T10:37:35Z</time>
      </trkpt>
      <trkpt lat="43.60577" lon="6.76649">
        <ele>179</ele>
        <time>2024-04-07T10:37:55Z</time>
      </trkpt>
      <trkpt lat="43.60574" lon="6.76707">
        <ele>179</ele>
        <time>2024-04-07T10:38:02Z</time>
      </trkpt>
      <trkpt lat="43.60568" lon="6.76749">
        <ele>179</ele>
        <time>2024-04-07T10:38:08Z</time>
      </trkpt>
      <trkpt lat="43.60555" lon="6.76805">
        <ele>179</ele>
        <time>2024-04-07T10:38:15Z</time>
      </trkpt>
      <trkpt lat="43.60509" lon="6.76947">
        <ele>177</ele>
        <time>2024-04-07T10:38:35Z</time>
      </trkpt>
      <trkpt lat="43.60506" lon="6.76964">
        <ele>177</ele>
        <time>2024-04-07T10:38:38Z</time>
      </trkpt>
      <trkpt lat="43.60502" lon="6.76981">
        <ele>177</ele>
        <time>2024-04-07T10:38:40Z</time>
      </trkpt>
      <trkpt lat="43.605" lon="6.76984">
        <ele>177</ele>
        <time>2024-04-07T10:38:41Z</time>
      </trkpt>
      <trkpt lat="43.60497" lon="6.76993">
        <ele>177</ele>
        <time>2024-04-07T10:38:42Z</time>
      </trkpt>
      <trkpt lat="43.605" lon="6.77003">
        <ele>177</ele>
        <time>2024-04-07T10:38:43Z</time>
      </trkpt>
      <trkpt lat="43.60494" lon="6.77025">
        <ele>178</ele>
        <time>2024-04-07T10:38:46Z</time>
      </trkpt>
      <trkpt lat="43.60491" lon="6.77031">
        <ele>178</ele>
        <time>2024-04-07T10:38:47Z</time>
      </trkpt>
      <trkpt lat="43.60479" lon="6.77042">
        <ele>178</ele>
        <time>2024-04-07T10:38:50Z</time>
      </trkpt>
      <trkpt lat="43.60378" lon="6.77332">
        <ele>182</ele>
        <time>2024-04-07T10:39:31Z</time>
      </trkpt>
      <trkpt lat="43.60215" lon="6.77792">
        <ele>182</ele>
        <time>2024-04-07T10:40:37Z</time>
      </trkpt>
      <trkpt lat="43.60204" lon="6.77814">
        <ele>182</ele>
        <time>2024-04-07T10:40:41Z</time>
      </trkpt>
      <trkpt lat="43.60194" lon="6.77826">
        <ele>182</ele>
        <time>2024-04-07T10:40:43Z</time>
      </trkpt>
      <trkpt lat="43.60185" lon="6.77831">
        <ele>182</ele>
        <time>2024-04-07T10:40:45Z</time>
      </trkpt>
      <trkpt lat="43.60182" lon="6.77835">
        <ele>182</ele>
        <time>2024-04-07T10:40:45Z</time>
      </trkpt>
      <trkpt lat="43.60178" lon="6.77848">
        <ele>183</ele>
        <time>2024-04-07T10:40:47Z</time>
      </trkpt>
      <trkpt lat="43.60181" lon="6.77864">
        <ele>183</ele>
        <time>2024-04-07T10:40:49Z</time>
      </trkpt>
      <trkpt lat="43.6018" lon="6.77882">
        <ele>184</ele>
        <time>2024-04-07T10:40:52Z</time>
      </trkpt>
      <trkpt lat="43.60176" lon="6.77901">
        <ele>184</ele>
        <time>2024-04-07T10:40:54Z</time>
      </trkpt>
      <trkpt lat="43.60018" lon="6.78321">
        <ele>193</ele>
        <time>2024-04-07T10:41:55Z</time>
      </trkpt>
      <trkpt lat="43.59949" lon="6.78505">
        <ele>196</ele>
        <time>2024-04-07T10:42:22Z</time>
      </trkpt>
      <trkpt lat="43.59925" lon="6.78551">
        <ele>198</ele>
        <time>2024-04-07T10:42:29Z</time>
      </trkpt>
      <trkpt lat="43.59918" lon="6.78562">
        <ele>199</ele>
        <time>2024-04-07T10:42:31Z</time>
      </trkpt>
      <trkpt lat="43.59907" lon="6.78562">
        <ele>199</ele>
        <time>2024-04-07T10:42:33Z</time>
      </trkpt>
      <trkpt lat="43.59898" lon="6.78568">
        <ele>199</ele>
        <time>2024-04-07T10:42:35Z</time>
      </trkpt>
      <trkpt lat="43.59891" lon="6.78579">
        <ele>200</ele>
        <time>2024-04-07T10:42:37Z</time>
      </trkpt>
      <trkpt lat="43.59889" lon="6.78587">
        <ele>200</ele>
        <time>2024-04-07T10:42:38Z</time>
      </trkpt>
      <trkpt lat="43.59888" lon="6.78599">
        <ele>202</ele>
        <time>2024-04-07T10:42:39Z</time>
      </trkpt>
      <trkpt lat="43.5989" lon="6.78612">
        <ele>203</ele>
        <time>2024-04-07T10:42:41Z</time>
      </trkpt>
      <trkpt lat="43.59893" lon="6.7862">
        <ele>204</ele>
        <time>2024-04-07T10:42:42Z</time>
      </trkpt>
      <trkpt lat="43.59893" lon="6.78641">
        <ele>206</ele>
        <time>2024-04-07T10:42:45Z</time>
      </trkpt>
      <trkpt lat="43.5989" lon="6.78655">
        <ele>207</ele>
        <time>2024-04-07T10:42:47Z</time>
      </trkpt>
      <trkpt lat="43.5986" lon="6.78758">
        <ele>219</ele>
        <time>2024-04-07T10:43:01Z</time>
      </trkpt>
      <trkpt lat="43.59839" lon="6.78818">
        <ele>225</ele>
        <time>2024-04-07T10:43:10Z</time>
      </trkpt>
      <trkpt lat="43.59821" lon="6.78859">
        <ele>227</ele>
        <time>2024-04-07T10:43:16Z</time>
      </trkpt>
      <trkpt lat="43.59781" lon="6.78932">
        <ele>230</ele>
        <time>2024-04-07T10:43:28Z</time>
      </trkpt>
      <trkpt lat="43.59771" lon="6.78955">
        <ele>230</ele>
        <time>2024-04-07T10:43:31Z</time>
      </trkpt>
      <trkpt lat="43.59754" lon="6.79002">
        <ele>230</ele>
        <time>2024-04-07T10:43:38Z</time>
      </trkpt>
      <trkpt lat="43.59717" lon="6.79128">
        <ele>234</ele>
        <time>2024-04-07T10:43:55Z</time>
      </trkpt>
      <trkpt lat="43.59714" lon="6.79155">
        <ele>235</ele>
        <time>2024-04-07T10:43:59Z</time>
      </trkpt>
      <trkpt lat="43.59716" lon="6.79353">
        <ele>245</ele>
        <time>2024-04-07T10:44:25Z</time>
      </trkpt>
      <trkpt lat="43.59708" lon="6.79406">
        <ele>249</ele>
        <time>2024-04-07T10:44:31Z</time>
      </trkpt>
      <trkpt lat="43.59698" lon="6.79442">
        <ele>252</ele>
        <time>2024-04-07T10:44:36Z</time>
      </trkpt>
      <trkpt lat="43.59674" lon="6.79495">
        <ele>254</ele>
        <time>2024-04-07T10:44:45Z</time>
      </trkpt>
      <trkpt lat="43.59662" lon="6.79528">
        <ele>254</ele>
        <time>2024-04-07T10:44:49Z</time>
      </trkpt>
      <trkpt lat="43.59658" lon="6.79546">
        <ele>255</ele>
        <time>2024-04-07T10:44:52Z</time>
      </trkpt>
      <trkpt lat="43.5965" lon="6.79601">
        <ele>257</ele>
        <time>2024-04-07T10:44:59Z</time>
      </trkpt>
      <trkpt lat="43.59649" lon="6.79624">
        <ele>257</ele>
        <time>2024-04-07T10:45:02Z</time>
      </trkpt>
      <trkpt lat="43.59652" lon="6.79658">
        <ele>257</ele>
        <time>2024-04-07T10:45:06Z</time>
      </trkpt>
      <trkpt lat="43.59656" lon="6.79673">
        <ele>257</ele>
        <time>2024-04-07T10:45:08Z</time>
      </trkpt>
      <trkpt lat="43.59768" lon="6.79996">
        <ele>258</ele>
        <time>2024-04-07T10:45:55Z</time>
      </trkpt>
      <trkpt lat="43.59779" lon="6.80017">
        <ele>257</ele>
        <time>2024-04-07T10:45:58Z</time>
      </trkpt>
      <trkpt lat="43.5986" lon="6.80151">
        <ele>257</ele>
        <time>2024-04-07T10:46:20Z</time>
      </trkpt>
      <trkpt lat="43.59881" lon="6.80182">
        <ele>258</ele>
        <time>2024-04-07T10:46:26Z</time>
      </trkpt>
      <trkpt lat="43.59971" lon="6.80269">
        <ele>258</ele>
        <time>2024-04-07T10:46:45Z</time>
      </trkpt>
      <trkpt lat="43.59993" lon="6.80297">
        <ele>257</ele>
        <time>2024-04-07T10:46:51Z</time>
      </trkpt>
      <trkpt lat="43.60042" lon="6.80384">
        <ele>255</ele>
        <time>2024-04-07T10:47:05Z</time>
      </trkpt>
      <trkpt lat="43.60065" lon="6.80418">
        <ele>254</ele>
        <time>2024-04-07T10:47:11Z</time>
      </trkpt>
      <trkpt lat="43.60088" lon="6.8045">
        <ele>253</ele>
        <time>2024-04-07T10:47:17Z</time>
      </trkpt>
      <trkpt lat="43.60169" lon="6.80533">
        <ele>250</ele>
        <time>2024-04-07T10:47:35Z</time>
      </trkpt>
      <trkpt lat="43.60186" lon="6.80546">
        <ele>250</ele>
        <time>2024-04-07T10:47:38Z</time>
      </trkpt>
      <trkpt lat="43.60233" lon="6.80573">
        <ele>249</ele>
        <time>2024-04-07T10:47:47Z</time>
      </trkpt>
      <trkpt lat="43.6025" lon="6.80585">
        <ele>248</ele>
        <time>2024-04-07T10:47:51Z</time>
      </trkpt>
      <trkpt lat="43.60264" lon="6.80596">
        <ele>247</ele>
        <time>2024-04-07T10:47:53Z</time>
      </trkpt>
      <trkpt lat="43.60277" lon="6.8061">
        <ele>247</ele>
        <time>2024-04-07T10:47:56Z</time>
      </trkpt>
      <trkpt lat="43.60315" lon="6.80655">
        <ele>244</ele>
        <time>2024-04-07T10:48:05Z</time>
      </trkpt>
      <trkpt lat="43.60345" lon="6.80675">
        <ele>243</ele>
        <time>2024-04-07T10:48:11Z</time>
      </trkpt>
      <trkpt lat="43.60522" lon="6.80744">
        <ele>243</ele>
        <time>2024-04-07T10:48:44Z</time>
      </trkpt>
      <trkpt lat="43.60543" lon="6.80756">
        <ele>243</ele>
        <time>2024-04-07T10:48:48Z</time>
      </trkpt>
      <trkpt lat="43.60575" lon="6.80786">
        <ele>242</ele>
        <time>2024-04-07T10:48:55Z</time>
      </trkpt>
      <trkpt lat="43.60589" lon="6.80802">
        <ele>241</ele>
        <time>2024-04-07T10:48:58Z</time>
      </trkpt>
      <trkpt lat="43.60602" lon="6.8082">
        <ele>240</ele>
        <time>2024-04-07T10:49:01Z</time>
      </trkpt>
      <trkpt lat="43.6063" lon="6.80871">
        <ele>237</ele>
        <time>2024-04-07T10:49:10Z</time>
      </trkpt>
      <trkpt lat="43.60651" lon="6.80897">
        <ele>236</ele>
        <time>2024-04-07T10:49:15Z</time>
      </trkpt>
      <trkpt lat="43.60701" lon="6.80944">
        <ele>232</ele>
        <time>2024-04-07T10:49:25Z</time>
      </trkpt>
      <trkpt lat="43.60727" lon="6.80963">
        <ele>230</ele>
        <time>2024-04-07T10:49:31Z</time>
      </trkpt>
      <trkpt lat="43.60756" lon="6.8098">
        <ele>228</ele>
        <time>2024-04-07T10:49:36Z</time>
      </trkpt>
      <trkpt lat="43.60848" lon="6.81019">
        <ele>228</ele>
        <time>2024-04-07T10:49:53Z</time>
      </trkpt>
      <trkpt lat="43.60879" lon="6.81042">
        <ele>228</ele>
        <time>2024-04-07T10:50:00Z</time>
      </trkpt>
      <trkpt lat="43.60891" lon="6.81057">
        <ele>227</ele>
        <time>2024-04-07T10:50:02Z</time>
      </trkpt>
      <trkpt lat="43.60902" lon="6.81077">
        <ele>224</ele>
        <time>2024-04-07T10:50:06Z</time>
      </trkpt>
      <trkpt lat="43.60908" lon="6.81095">
        <ele>223</ele>
        <time>2024-04-07T10:50:08Z</time>
      </trkpt>
      <trkpt lat="43.60914" lon="6.81117">
        <ele>221</ele>
        <time>2024-04-07T10:50:11Z</time>
      </trkpt>
      <trkpt lat="43.60919" lon="6.81143">
        <ele>219</ele>
        <time>2024-04-07T10:50:15Z</time>
      </trkpt>
      <trkpt lat="43.6092" lon="6.81165">
        <ele>217</ele>
        <time>2024-04-07T10:50:18Z</time>
      </trkpt>
      <trkpt lat="43.60919" lon="6.81187">
        <ele>216</ele>
        <time>2024-04-07T10:50:20Z</time>
      </trkpt>
      <trkpt lat="43.60912" lon="6.81239">
        <ele>213</ele>
        <time>2024-04-07T10:50:27Z</time>
      </trkpt>
      <trkpt lat="43.60913" lon="6.81261">
        <ele>212</ele>
        <time>2024-04-07T10:50:30Z</time>
      </trkpt>
      <trkpt lat="43.60917" lon="6.81281">
        <ele>211</ele>
        <time>2024-04-07T10:50:33Z</time>
      </trkpt>
      <trkpt lat="43.60922" lon="6.81296">
        <ele>210</ele>
        <time>2024-04-07T10:50:35Z</time>
      </trkpt>
      <trkpt lat="43.60942" lon="6.81331">
        <ele>210</ele>
        <time>2024-04-07T10:50:41Z</time>
      </trkpt>
      <trkpt lat="43.60967" lon="6.81364">
        <ele>209</ele>
        <time>2024-04-07T10:50:47Z</time>
      </trkpt>
      <trkpt lat="43.60986" lon="6.81383">
        <ele>209</ele>
        <time>2024-04-07T10:50:51Z</time>
      </trkpt>
      <trkpt lat="43.61101" lon="6.81492">
        <ele>198</ele>
        <time>2024-04-07T10:51:16Z</time>
      </trkpt>
      <trkpt lat="43.61137" lon="6.8153">
        <ele>196</ele>
        <time>2024-04-07T10:51:24Z</time>
      </trkpt>
      <trkpt lat="43.61148" lon="6.81546">
        <ele>196</ele>
        <time>2024-04-07T10:51:27Z</time>
      </trkpt>
      <trkpt lat="43.61164" lon="6.81572">
        <ele>195</ele>
        <time>2024-04-07T10:51:31Z</time>
      </trkpt>
      <trkpt lat="43.61181" lon="6.81611">
        <ele>194</ele>
        <time>2024-04-07T10:51:37Z</time>
      </trkpt>
      <trkpt lat="43.61193" lon="6.81657">
        <ele>193</ele>
        <time>2024-04-07T10:51:43Z</time>
      </trkpt>
      <trkpt lat="43.61208" lon="6.81754">
        <ele>185</ele>
        <time>2024-04-07T10:51:56Z</time>
      </trkpt>
      <trkpt lat="43.61216" lon="6.81799">
        <ele>184</ele>
        <time>2024-04-07T10:52:02Z</time>
      </trkpt>
      <trkpt lat="43.61232" lon="6.81851">
        <ele>184</ele>
        <time>2024-04-07T10:52:09Z</time>
      </trkpt>
      <trkpt lat="43.61243" lon="6.81877">
        <ele>184</ele>
        <time>2024-04-07T10:52:13Z</time>
      </trkpt>
      <trkpt lat="43.61274" lon="6.81931">
        <ele>182</ele>
        <time>2024-04-07T10:52:22Z</time>
      </trkpt>
      <trkpt lat="43.61287" lon="6.81948">
        <ele>181</ele>
        <time>2024-04-07T10:52:25Z</time>
      </trkpt>
      <trkpt lat="43.61367" lon="6.82028">
        <ele>177</ele>
        <time>2024-04-07T10:52:43Z</time>
      </trkpt>
      <trkpt lat="43.61404" lon="6.82076">
        <ele>175</ele>
        <time>2024-04-07T10:52:52Z</time>
      </trkpt>
      <trkpt lat="43.61415" lon="6.82085">
        <ele>174</ele>
        <time>2024-04-07T10:52:54Z</time>
      </trkpt>
      <trkpt lat="43.6143" lon="6.82091">
        <ele>175</ele>
        <time>2024-04-07T10:52:57Z</time>
      </trkpt>
      <trkpt lat="43.61471" lon="6.82103">
        <ele>174</ele>
        <time>2024-04-07T10:53:04Z</time>
      </trkpt>
      <trkpt lat="43.61611" lon="6.82155">
        <ele>170</ele>
        <time>2024-04-07T10:53:30Z</time>
      </trkpt>
      <trkpt lat="43.61683" lon="6.82226">
        <ele>165</ele>
        <time>2024-04-07T10:53:46Z</time>
      </trkpt>
      <trkpt lat="43.61712" lon="6.82238">
        <ele>164</ele>
        <time>2024-04-07T10:53:51Z</time>
      </trkpt>
      <trkpt lat="43.61746" lon="6.82245">
        <ele>163</ele>
        <time>2024-04-07T10:53:57Z</time>
      </trkpt>
      <trkpt lat="43.61759" lon="6.82252">
        <ele>163</ele>
        <time>2024-04-07T10:54:00Z</time>
      </trkpt>
      <trkpt lat="43.61818" lon="6.82314">
        <ele>158</ele>
        <time>2024-04-07T10:54:13Z</time>
      </trkpt>
      <trkpt lat="43.61841" lon="6.82333">
        <ele>156</ele>
        <time>2024-04-07T10:54:18Z</time>
      </trkpt>
      <trkpt lat="43.61907" lon="6.82376">
        <ele>150</ele>
        <time>2024-04-07T10:54:31Z</time>
      </trkpt>
      <trkpt lat="43.6193" lon="6.82382">
        <ele>150</ele>
        <time>2024-04-07T10:54:35Z</time>
      </trkpt>
      <trkpt lat="43.61969" lon="6.82384">
        <ele>152</ele>
        <time>2024-04-07T10:54:42Z</time>
      </trkpt>
      <trkpt lat="43.61982" lon="6.82387">
        <ele>153</ele>
        <time>2024-04-07T10:54:44Z</time>
      </trkpt>
      <trkpt lat="43.62025" lon="6.82412">
        <ele>148</ele>
        <time>2024-04-07T10:54:53Z</time>
      </trkpt>
      <trkpt lat="43.62043" lon="6.82417">
        <ele>146</ele>
        <time>2024-04-07T10:54:56Z</time>
      </trkpt>
      <trkpt lat="43.62082" lon="6.82418">
        <ele>146</ele>
        <time>2024-04-07T10:55:03Z</time>
      </trkpt>
      <trkpt lat="43.62118" lon="6.82412">
        <ele>143</ele>
        <time>2024-04-07T10:55:09Z</time>
      </trkpt>
      <trkpt lat="43.62135" lon="6.82406">
        <ele>142</ele>
        <time>2024-04-07T10:55:12Z</time>
      </trkpt>
      <trkpt lat="43.62158" lon="6.82395">
        <ele>141</ele>
        <time>2024-04-07T10:55:17Z</time>
      </trkpt>
      <trkpt lat="43.62193" lon="6.82375">
        <ele>139</ele>
        <time>2024-04-07T10:55:23Z</time>
      </trkpt>
      <trkpt lat="43.62205" lon="6.82365">
        <ele>139</ele>
        <time>2024-04-07T10:55:26Z</time>
      </trkpt>
      <trkpt lat="43.62232" lon="6.82337">
        <ele>140</ele>
        <time>2024-04-07T10:55:32Z</time>
      </trkpt>
      <trkpt lat="43.62248" lon="6.82323">
        <ele>142</ele>
        <time>2024-04-07T10:55:35Z</time>
      </trkpt>
      <trkpt lat="43.62316" lon="6.82278">
        <ele>136</ele>
        <time>2024-04-07T10:55:49Z</time>
      </trkpt>
      <trkpt lat="43.62332" lon="6.82265">
        <ele>135</ele>
        <time>2024-04-07T10:55:52Z</time>
      </trkpt>
      <trkpt lat="43.62346" lon="6.82252">
        <ele>135</ele>
        <time>2024-04-07T10:55:55Z</time>
      </trkpt>
      <trkpt lat="43.62377" lon="6.82216">
        <ele>139</ele>
        <time>2024-04-07T10:56:02Z</time>
      </trkpt>
      <trkpt lat="43.62389" lon="6.82209">
        <ele>138</ele>
        <time>2024-04-07T10:56:05Z</time>
      </trkpt>
      <trkpt lat="43.62417" lon="6.82211">
        <ele>131</ele>
        <time>2024-04-07T10:56:09Z</time>
      </trkpt>
      <trkpt lat="43.62433" lon="6.82206">
        <ele>128</ele>
        <time>2024-04-07T10:56:12Z</time>
      </trkpt>
      <trkpt lat="43.62439" lon="6.82199">
        <ele>127</ele>
        <time>2024-04-07T10:56:14Z</time>
      </trkpt>
      <trkpt lat="43.62446" lon="6.82185">
        <ele>128</ele>
        <time>2024-04-07T10:56:16Z</time>
      </trkpt>
      <trkpt lat="43.62453" lon="6.82164">
        <ele>129</ele>
        <time>2024-04-07T10:56:19Z</time>
      </trkpt>
      <trkpt lat="43.62475" lon="6.82116">
        <ele>132</ele>
        <time>2024-04-07T10:56:26Z</time>
      </trkpt>
      <trkpt lat="43.62486" lon="6.82095">
        <ele>132</ele>
        <time>2024-04-07T10:56:30Z</time>
      </trkpt>
      <trkpt lat="43.62498" lon="6.82081">
        <ele>130</ele>
        <time>2024-04-07T10:56:32Z</time>
      </trkpt>
      <trkpt lat="43.62513" lon="6.82068">
        <ele>129</ele>
        <time>2024-04-07T10:56:36Z</time>
      </trkpt>
      <trkpt lat="43.62548" lon="6.82046">
        <ele>123</ele>
        <time>2024-04-07T10:56:42Z</time>
      </trkpt>
      <trkpt lat="43.62564" lon="6.82027">
        <ele>121</ele>
        <time>2024-04-07T10:56:46Z</time>
      </trkpt>
      <trkpt lat="43.6257" lon="6.82011">
        <ele>121</ele>
        <time>2024-04-07T10:56:48Z</time>
      </trkpt>
      <trkpt lat="43.62594" lon="6.81936">
        <ele>127</ele>
        <time>2024-04-07T10:56:59Z</time>
      </trkpt>
      <trkpt lat="43.62602" lon="6.8192">
        <ele>127</ele>
        <time>2024-04-07T10:57:02Z</time>
      </trkpt>
      <trkpt lat="43.62612" lon="6.81905">
        <ele>126</ele>
        <time>2024-04-07T10:57:04Z</time>
      </trkpt>
      <trkpt lat="43.62623" lon="6.81893">
        <ele>123</ele>
        <time>2024-04-07T10:57:07Z</time>
      </trkpt>
      <trkpt lat="43.62654" lon="6.81869">
        <ele>115</ele>
        <time>2024-04-07T10:57:13Z</time>
      </trkpt>
      <trkpt lat="43.62698" lon="6.8182">
        <ele>112</ele>
        <time>2024-04-07T10:57:23Z</time>
      </trkpt>
      <trkpt lat="43.62704" lon="6.81812">
        <ele>112</ele>
        <time>2024-04-07T10:57:25Z</time>
      </trkpt>
      <trkpt lat="43.62741" lon="6.8176">
        <ele>111</ele>
        <time>2024-04-07T10:57:34Z</time>
      </trkpt>
      <trkpt lat="43.62762" lon="6.81734">
        <ele>111</ele>
        <time>2024-04-07T10:57:39Z</time>
      </trkpt>
      <trkpt lat="43.62774" lon="6.81727">
        <ele>110</ele>
        <time>2024-04-07T10:57:41Z</time>
      </trkpt>
      <trkpt lat="43.62779" lon="6.81727">
        <ele>110</ele>
        <time>2024-04-07T10:57:42Z</time>
      </trkpt>
      <trkpt lat="43.62789" lon="6.81733">
        <ele>107</ele>
        <time>2024-04-07T10:57:44Z</time>
      </trkpt>
      <trkpt lat="43.62822" lon="6.81789">
        <ele>105</ele>
        <time>2024-04-07T10:57:53Z</time>
      </trkpt>
      <trkpt lat="43.62826" lon="6.81806">
        <ele>106</ele>
        <time>2024-04-07T10:57:56Z</time>
      </trkpt>
      <trkpt lat="43.62825" lon="6.81815">
        <ele>107</ele>
        <time>2024-04-07T10:57:57Z</time>
      </trkpt>
      <trkpt lat="43.62824" lon="6.81823">
        <ele>108</ele>
        <time>2024-04-07T10:57:58Z</time>
      </trkpt>
      <trkpt lat="43.62818" lon="6.81839">
        <ele>110</ele>
        <time>2024-04-07T10:58:00Z</time>
      </trkpt>
      <trkpt lat="43.62761" lon="6.81903">
        <ele>110</ele>
        <time>2024-04-07T10:58:13Z</time>
      </trkpt>
      <trkpt lat="43.62747" lon="6.81925">
        <ele>110</ele>
        <time>2024-04-07T10:58:17Z</time>
      </trkpt>
      <trkpt lat="43.62734" lon="6.8195">
        <ele>114</ele>
        <time>2024-04-07T10:58:21Z</time>
      </trkpt>
      <trkpt lat="43.62724" lon="6.81979">
        <ele>117</ele>
        <time>2024-04-07T10:58:25Z</time>
      </trkpt>
      <trkpt lat="43.62714" lon="6.82016">
        <ele>121</ele>
        <time>2024-04-07T10:58:30Z</time>
      </trkpt>
      <trkpt lat="43.62707" lon="6.82028">
        <ele>121</ele>
        <time>2024-04-07T10:58:32Z</time>
      </trkpt>
      <trkpt lat="43.62689" lon="6.82053">
        <ele>120</ele>
        <time>2024-04-07T10:58:37Z</time>
      </trkpt>
      <trkpt lat="43.62668" lon="6.82074">
        <ele>117</ele>
        <time>2024-04-07T10:58:41Z</time>
      </trkpt>
      <trkpt lat="43.62663" lon="6.82083">
        <ele>117</ele>
        <time>2024-04-07T10:58:43Z</time>
      </trkpt>
      <trkpt lat="43.62659" lon="6.82094">
        <ele>119</ele>
        <time>2024-04-07T10:58:44Z</time>
      </trkpt>
      <trkpt lat="43.62653" lon="6.82123">
        <ele>123</ele>
        <time>2024-04-07T10:58:48Z</time>
      </trkpt>
      <trkpt lat="43.62645" lon="6.82146">
        <ele>125</ele>
        <time>2024-04-07T10:58:52Z</time>
      </trkpt>
      <trkpt lat="43.62618" lon="6.82188">
        <ele>123</ele>
        <time>2024-04-07T10:58:59Z</time>
      </trkpt>
      <trkpt lat="43.62611" lon="6.82202">
        <ele>123</ele>
        <time>2024-04-07T10:59:01Z</time>
      </trkpt>
      <trkpt lat="43.6257" lon="6.82322">
        <ele>129</ele>
        <time>2024-04-07T10:59:18Z</time>
      </trkpt>
      <trkpt lat="43.62524" lon="6.82476">
        <ele>134</ele>
        <time>2024-04-07T10:59:40Z</time>
      </trkpt>
      <trkpt lat="43.62521" lon="6.82493">
        <ele>136</ele>
        <time>2024-04-07T10:59:42Z</time>
      </trkpt>
      <trkpt lat="43.62517" lon="6.82563">
        <ele>141</ele>
        <time>2024-04-07T10:59:51Z</time>
      </trkpt>
      <trkpt lat="43.62513" lon="6.82585">
        <ele>142</ele>
        <time>2024-04-07T10:59:54Z</time>
      </trkpt>
      <trkpt lat="43.62487" lon="6.82672">
        <ele>148</ele>
        <time>2024-04-07T11:00:06Z</time>
      </trkpt>
      <trkpt lat="43.62484" lon="6.82693">
        <ele>148</ele>
        <time>2024-04-07T11:00:09Z</time>
      </trkpt>
      <trkpt lat="43.62483" lon="6.82744">
        <ele>151</ele>
        <time>2024-04-07T11:00:15Z</time>
      </trkpt>
      <trkpt lat="43.62487" lon="6.8282">
        <ele>153</ele>
        <time>2024-04-07T11:00:25Z</time>
      </trkpt>
      <trkpt lat="43.62518" lon="6.83156">
        <ele>164</ele>
        <time>2024-04-07T11:01:09Z</time>
      </trkpt>
      <trkpt lat="43.62524" lon="6.83195">
        <ele>165</ele>
        <time>2024-04-07T11:01:14Z</time>
      </trkpt>
      <trkpt lat="43.62529" lon="6.83212">
        <ele>166</ele>
        <time>2024-04-07T11:01:16Z</time>
      </trkpt>
      <trkpt lat="43.62544" lon="6.83243">
        <ele>169</ele>
        <time>2024-04-07T11:01:21Z</time>
      </trkpt>
      <trkpt lat="43.62548" lon="6.83257">
        <ele>169</ele>
        <time>2024-04-07T11:01:23Z</time>
      </trkpt>
      <trkpt lat="43.62562" lon="6.83326">
        <ele>170</ele>
        <time>2024-04-07T11:01:32Z</time>
      </trkpt>
      <trkpt lat="43.62565" lon="6.83336">
        <ele>170</ele>
        <time>2024-04-07T11:01:34Z</time>
      </trkpt>
      <trkpt lat="43.62569" lon="6.83347">
        <ele>170</ele>
        <time>2024-04-07T11:01:35Z</time>
      </trkpt>
      <trkpt lat="43.62583" lon="6.83371">
        <ele>171</ele>
        <time>2024-04-07T11:01:39Z</time>
      </trkpt>
      <trkpt lat="43.62667" lon="6.83505">
        <ele>179</ele>
        <time>2024-04-07T11:02:02Z</time>
      </trkpt>
      <trkpt lat="43.62715" lon="6.83564">
        <ele>182</ele>
        <time>2024-04-07T11:02:13Z</time>
      </trkpt>
      <trkpt lat="43.62754" lon="6.83608">
        <ele>184</ele>
        <time>2024-04-07T11:02:22Z</time>
      </trkpt>
      <trkpt lat="43.62772" lon="6.83627">
        <ele>186</ele>
        <time>2024-04-07T11:02:26Z</time>
      </trkpt>
      <trkpt lat="43.6278" lon="6.83634">
        <ele>187</ele>
        <time>2024-04-07T11:02:28Z</time>
      </trkpt>
      <trkpt lat="43.62778" lon="6.83644">
        <ele>185</ele>
        <time>2024-04-07T11:02:29Z</time>
      </trkpt>
      <trkpt lat="43.62794" lon="6.83657">
        <ele>186</ele>
        <time>2024-04-07T11:02:33Z</time>
      </trkpt>
      <trkpt lat="43.62826" lon="6.8367">
        <ele>190</ele>
        <time>2024-04-07T11:02:39Z</time>
      </trkpt>
      <trkpt lat="43.62832" lon="6.83676">
        <ele>191</ele>
        <time>2024-04-07T11:02:40Z</time>
      </trkpt>
      <trkpt lat="43.62853" lon="6.83706">
        <ele>191</ele>
        <time>2024-04-07T11:02:45Z</time>
      </trkpt>
      <trkpt lat="43.62865" lon="6.83731">
        <ele>190</ele>
        <time>2024-04-07T11:02:49Z</time>
      </trkpt>
      <trkpt lat="43.62899" lon="6.83814">
        <ele>192</ele>
        <time>2024-04-07T11:03:01Z</time>
      </trkpt>
      <trkpt lat="43.62932" lon="6.83862">
        <ele>194</ele>
        <time>2024-04-07T11:03:10Z</time>
      </trkpt>
      <trkpt lat="43.62952" lon="6.83883">
        <ele>195</ele>
        <time>2024-04-07T11:03:14Z</time>
      </trkpt>
      <trkpt lat="43.63013" lon="6.83921">
        <ele>199</ele>
        <time>2024-04-07T11:03:26Z</time>
      </trkpt>
      <trkpt lat="43.63052" lon="6.83943">
        <ele>200</ele>
        <time>2024-04-07T11:03:34Z</time>
      </trkpt>
      <trkpt lat="43.63087" lon="6.83957">
        <ele>202</ele>
        <time>2024-04-07T11:03:40Z</time>
      </trkpt>
      <trkpt lat="43.63099" lon="6.83965">
        <ele>203</ele>
        <time>2024-04-07T11:03:43Z</time>
      </trkpt>
      <trkpt lat="43.63122" lon="6.8399">
        <ele>204</ele>
        <time>2024-04-07T11:03:48Z</time>
      </trkpt>
      <trkpt lat="43.63156" lon="6.84083">
        <ele>212</ele>
        <time>2024-04-07T11:04:01Z</time>
      </trkpt>
      <trkpt lat="43.63156" lon="6.84089">
        <ele>213</ele>
        <time>2024-04-07T11:04:02Z</time>
      </trkpt>
      <trkpt lat="43.63153" lon="6.84094">
        <ele>214</ele>
        <time>2024-04-07T11:04:03Z</time>
      </trkpt>
      <trkpt lat="43.6312" lon="6.84107">
        <ele>215</ele>
        <time>2024-04-07T11:04:09Z</time>
      </trkpt>
      <trkpt lat="43.63114" lon="6.84108">
        <ele>215</ele>
        <time>2024-04-07T11:04:10Z</time>
      </trkpt>
      <trkpt lat="43.63068" lon="6.84092">
        <ele>209</ele>
        <time>2024-04-07T11:04:19Z</time>
      </trkpt>
      <trkpt lat="43.63046" lon="6.84093">
        <ele>209</ele>
        <time>2024-04-07T11:04:23Z</time>
      </trkpt>
      <trkpt lat="43.63038" lon="6.84097">
        <ele>209</ele>
        <time>2024-04-07T11:04:24Z</time>
      </trkpt>
      <trkpt lat="43.63034" lon="6.84102">
        <ele>210</ele>
        <time>2024-04-07T11:04:25Z</time>
      </trkpt>
      <trkpt lat="43.63019" lon="6.84135">
        <ele>217</ele>
        <time>2024-04-07T11:04:30Z</time>
      </trkpt>
      <trkpt lat="43.63007" lon="6.84147">
        <ele>220</ele>
        <time>2024-04-07T11:04:33Z</time>
      </trkpt>
      <trkpt lat="43.63" lon="6.84148">
        <ele>220</ele>
        <time>2024-04-07T11:04:34Z</time>
      </trkpt>
      <trkpt lat="43.6297" lon="6.84144">
        <ele>222</ele>
        <time>2024-04-07T11:04:39Z</time>
      </trkpt>
      <trkpt lat="43.62967" lon="6.84145">
        <ele>222</ele>
        <time>2024-04-07T11:04:40Z</time>
      </trkpt>
      <trkpt lat="43.62967" lon="6.84148">
        <ele>223</ele>
        <time>2024-04-07T11:04:40Z</time>
      </trkpt>
      <trkpt lat="43.62969" lon="6.84151">
        <ele>224</ele>
        <time>2024-04-07T11:04:41Z</time>
      </trkpt>
      <trkpt lat="43.63" lon="6.84172">
        <ele>225</ele>
        <time>2024-04-07T11:04:47Z</time>
      </trkpt>
      <trkpt lat="43.6301" lon="6.84182">
        <ele>227</ele>
        <time>2024-04-07T11:04:49Z</time>
      </trkpt>
      <trkpt lat="43.63022" lon="6.84182">
        <ele>228</ele>
        <time>2024-04-07T11:04:51Z</time>
      </trkpt>
      <trkpt lat="43.63028" lon="6.84179">
        <ele>227</ele>
        <time>2024-04-07T11:04:52Z</time>
      </trkpt>
      <trkpt lat="43.63045" lon="6.84164">
        <ele>225</ele>
        <time>2024-04-07T11:04:56Z</time>
      </trkpt>
      <trkpt lat="43.63052" lon="6.84161">
        <ele>225</ele>
        <time>2024-04-07T11:04:57Z</time>
      </trkpt>
      <trkpt lat="43.63059" lon="6.84161">
        <ele>225</ele>
        <time>2024-04-07T11:04:58Z</time>
      </trkpt>
      <trkpt lat="43.63069" lon="6.84169">
        <ele>227</ele>
        <time>2024-04-07T11:05:01Z</time>
      </trkpt>
      <trkpt lat="43.63092" lon="6.84206">
        <ele>234</ele>
        <time>2024-04-07T11:05:07Z</time>
      </trkpt>
      <trkpt lat="43.63143" lon="6.8426">
        <ele>244</ele>
        <time>2024-04-07T11:05:18Z</time>
      </trkpt>
      <trkpt lat="43.63144" lon="6.8428">
        <ele>244</ele>
        <time>2024-04-07T11:05:21Z</time>
      </trkpt>
      <trkpt lat="43.63151" lon="6.84317">
        <ele>246</ele>
        <time>2024-04-07T11:05:26Z</time>
      </trkpt>
      <trkpt lat="43.63151" lon="6.84326">
        <ele>246</ele>
        <time>2024-04-07T11:05:27Z</time>
      </trkpt>
      <trkpt lat="43.63149" lon="6.84331">
        <ele>246</ele>
        <time>2024-04-07T11:05:28Z</time>
      </trkpt>
      <trkpt lat="43.63143" lon="6.8434">
        <ele>246</ele>
        <time>2024-04-07T11:05:29Z</time>
      </trkpt>
      <trkpt lat="43.63144" lon="6.84354">
        <ele>245</ele>
        <time>2024-04-07T11:05:31Z</time>
      </trkpt>
      <trkpt lat="43.63151" lon="6.84362">
        <ele>245</ele>
        <time>2024-04-07T11:05:33Z</time>
      </trkpt>
      <trkpt lat="43.63156" lon="6.84379">
        <ele>244</ele>
        <time>2024-04-07T11:05:35Z</time>
      </trkpt>
      <trkpt lat="43.63163" lon="6.84417">
        <ele>243</ele>
        <time>2024-04-07T11:05:40Z</time>
      </trkpt>
      <trkpt lat="43.63178" lon="6.84442">
        <ele>242</ele>
        <time>2024-04-07T11:05:44Z</time>
      </trkpt>
      <trkpt lat="43.63188" lon="6.84455">
        <ele>242</ele>
        <time>2024-04-07T11:05:47Z</time>
      </trkpt>
      <trkpt lat="43.63197" lon="6.84471">
        <ele>241</ele>
        <time>2024-04-07T11:05:49Z</time>
      </trkpt>
      <trkpt lat="43.6325" lon="6.8451">
        <ele>241</ele>
        <time>2024-04-07T11:06:00Z</time>
      </trkpt>
      <trkpt lat="43.63266" lon="6.84524">
        <ele>242</ele>
        <time>2024-04-07T11:06:03Z</time>
      </trkpt>
      <trkpt lat="43.63279" lon="6.84545">
        <ele>242</ele>
        <time>2024-04-07T11:06:07Z</time>
      </trkpt>
      <trkpt lat="43.63288" lon="6.84567">
        <ele>242</ele>
        <time>2024-04-07T11:06:10Z</time>
      </trkpt>
      <trkpt lat="43.63292" lon="6.8458">
        <ele>242</ele>
        <time>2024-04-07T11:06:12Z</time>
      </trkpt>
      <trkpt lat="43.63296" lon="6.84605">
        <ele>243</ele>
        <time>2024-04-07T11:06:15Z</time>
      </trkpt>
      <trkpt lat="43.63288" lon="6.84759">
        <ele>246</ele>
        <time>2024-04-07T11:06:35Z</time>
      </trkpt>
      <trkpt lat="43.6329" lon="6.84789">
        <ele>245</ele>
        <time>2024-04-07T11:06:39Z</time>
      </trkpt>
      <trkpt lat="43.63293" lon="6.84803">
        <ele>245</ele>
        <time>2024-04-07T11:06:41Z</time>
      </trkpt>
      <trkpt lat="43.6331" lon="6.8485">
        <ele>245</ele>
        <time>2024-04-07T11:06:48Z</time>
      </trkpt>
      <trkpt lat="43.63386" lon="6.85035">
        <ele>241</ele>
        <time>2024-04-07T11:07:15Z</time>
      </trkpt>
      <trkpt lat="43.63423" lon="6.85108">
        <ele>241</ele>
        <time>2024-04-07T11:07:27Z</time>
      </trkpt>
      <trkpt lat="43.63435" lon="6.85142">
        <ele>242</ele>
        <time>2024-04-07T11:07:31Z</time>
      </trkpt>
      <trkpt lat="43.63439" lon="6.85161">
        <ele>242</ele>
        <time>2024-04-07T11:07:34Z</time>
      </trkpt>
      <trkpt lat="43.63455" lon="6.85311">
        <ele>244</ele>
        <time>2024-04-07T11:07:53Z</time>
      </trkpt>
      <trkpt lat="43.63503" lon="6.8554">
        <ele>241</ele>
        <time>2024-04-07T11:08:24Z</time>
      </trkpt>
      <trkpt lat="43.63506" lon="6.85539">
        <ele>241</ele>
        <time>2024-04-07T11:08:25Z</time>
      </trkpt>
      <trkpt lat="43.63536" lon="6.85667">
        <ele>241</ele>
        <time>2024-04-07T11:08:42Z</time>
      </trkpt>
      <trkpt lat="43.63547" lon="6.85692">
        <ele>242</ele>
        <time>2024-04-07T11:08:46Z</time>
      </trkpt>
      <trkpt lat="43.63569" lon="6.85757">
        <ele>241</ele>
        <time>2024-04-07T11:08:55Z</time>
      </trkpt>
      <trkpt lat="43.63573" lon="6.85776">
        <ele>240</ele>
        <time>2024-04-07T11:08:58Z</time>
      </trkpt>
      <trkpt lat="43.63585" lon="6.85814">
        <ele>239</ele>
        <time>2024-04-07T11:09:03Z</time>
      </trkpt>
      <trkpt lat="43.63582" lon="6.85819">
        <ele>239</ele>
        <time>2024-04-07T11:09:04Z</time>
      </trkpt>
      <trkpt lat="43.63582" lon="6.85832">
        <ele>238</ele>
        <time>2024-04-07T11:09:05Z</time>
      </trkpt>
      <trkpt lat="43.63587" lon="6.85838">
        <ele>238</ele>
        <time>2024-04-07T11:09:07Z</time>
      </trkpt>
      <trkpt lat="43.63592" lon="6.8584">
        <ele>238</ele>
        <time>2024-04-07T11:09:08Z</time>
      </trkpt>
      <trkpt lat="43.63609" lon="6.85878">
        <ele>238</ele>
        <time>2024-04-07T11:09:13Z</time>
      </trkpt>
      <trkpt lat="43.63618" lon="6.85891">
        <ele>238</ele>
        <time>2024-04-07T11:09:16Z</time>
      </trkpt>
      <trkpt lat="43.63738" lon="6.86156">
        <ele>226</ele>
        <time>2024-04-07T11:09:56Z</time>
      </trkpt>
      <trkpt lat="43.63743" lon="6.86169">
        <ele>225</ele>
        <time>2024-04-07T11:09:58Z</time>
      </trkpt>
      <trkpt lat="43.63745" lon="6.86182">
        <ele>224</ele>
        <time>2024-04-07T11:10:00Z</time>
      </trkpt>
      <trkpt lat="43.63746" lon="6.86195">
        <ele>223</ele>
        <time>2024-04-07T11:10:01Z</time>
      </trkpt>
      <trkpt lat="43.6374" lon="6.86224">
        <ele>221</ele>
        <time>2024-04-07T11:10:05Z</time>
      </trkpt>
      <trkpt lat="43.63747" lon="6.86227">
        <ele>221</ele>
        <time>2024-04-07T11:10:06Z</time>
      </trkpt>
      <trkpt lat="43.63763" lon="6.86226">
        <ele>221</ele>
        <time>2024-04-07T11:10:09Z</time>
      </trkpt>
      <trkpt lat="43.63766" lon="6.86239">
        <ele>220</ele>
        <time>2024-04-07T11:10:11Z</time>
      </trkpt>
      <trkpt lat="43.63816" lon="6.86349">
        <ele>213</ele>
        <time>2024-04-07T11:10:28Z</time>
      </trkpt>
      <trkpt lat="43.63835" lon="6.86419">
        <ele>205</ele>
        <time>2024-04-07T11:10:37Z</time>
      </trkpt>
      <trkpt lat="43.63816" lon="6.86437">
        <ele>204</ele>
        <time>2024-04-07T11:10:41Z</time>
      </trkpt>
      <trkpt lat="43.63795" lon="6.86451">
        <ele>204</ele>
        <time>2024-04-07T11:10:46Z</time>
      </trkpt>
      <trkpt lat="43.63764" lon="6.86461">
        <ele>204</ele>
        <time>2024-04-07T11:10:51Z</time>
      </trkpt>
      <trkpt lat="43.63748" lon="6.86473">
        <ele>204</ele>
        <time>2024-04-07T11:10:54Z</time>
      </trkpt>
      <trkpt lat="43.63744" lon="6.86482">
        <ele>203</ele>
        <time>2024-04-07T11:10:56Z</time>
      </trkpt>
      <trkpt lat="43.6381" lon="6.86486">
        <ele>199</ele>
        <time>2024-04-07T11:11:08Z</time>
      </trkpt>
      <trkpt lat="43.63823" lon="6.86492">
        <ele>198</ele>
        <time>2024-04-07T11:11:10Z</time>
      </trkpt>
      <trkpt lat="43.63832" lon="6.86499">
        <ele>197</ele>
        <time>2024-04-07T11:11:12Z</time>
      </trkpt>
      <trkpt lat="43.63839" lon="6.86508">
        <ele>197</ele>
        <time>2024-04-07T11:11:14Z</time>
      </trkpt>
      <trkpt lat="43.63845" lon="6.8652">
        <ele>196</ele>
        <time>2024-04-07T11:11:15Z</time>
      </trkpt>
      <trkpt lat="43.6385" lon="6.86538">
        <ele>195</ele>
        <time>2024-04-07T11:11:18Z</time>
      </trkpt>
      <trkpt lat="43.63881" lon="6.86696">
        <ele>187</ele>
        <time>2024-04-07T11:11:39Z</time>
      </trkpt>
      <trkpt lat="43.63889" lon="6.86758">
        <ele>187</ele>
        <time>2024-04-07T11:11:47Z</time>
      </trkpt>
      <trkpt lat="43.63904" lon="6.86921">
        <ele>188</ele>
        <time>2024-04-07T11:12:08Z</time>
      </trkpt>
      <trkpt lat="43.63904" lon="6.86936">
        <ele>188</ele>
        <time>2024-04-07T11:12:10Z</time>
      </trkpt>
      <trkpt lat="43.63898" lon="6.86996">
        <ele>190</ele>
        <time>2024-04-07T11:12:18Z</time>
      </trkpt>
      <trkpt lat="43.63886" lon="6.87078">
        <ele>189</ele>
        <time>2024-04-07T11:12:29Z</time>
      </trkpt>
      <trkpt lat="43.63883" lon="6.87131">
        <ele>187</ele>
        <time>2024-04-07T11:12:36Z</time>
      </trkpt>
      <trkpt lat="43.63879" lon="6.87144">
        <ele>187</ele>
        <time>2024-04-07T11:12:37Z</time>
      </trkpt>
      <trkpt lat="43.63876" lon="6.87154">
        <ele>186</ele>
        <time>2024-04-07T11:12:39Z</time>
      </trkpt>
      <trkpt lat="43.63879" lon="6.8716">
        <ele>186</ele>
        <time>2024-04-07T11:12:40Z</time>
      </trkpt>
      <trkpt lat="43.63885" lon="6.87164">
        <ele>187</ele>
        <time>2024-04-07T11:12:41Z</time>
      </trkpt>
      <trkpt lat="43.6389" lon="6.87178">
        <ele>187</ele>
        <time>2024-04-07T11:12:43Z</time>
      </trkpt>
      <trkpt lat="43.63898" lon="6.87244">
        <ele>189</ele>
        <time>2024-04-07T11:12:52Z</time>
      </trkpt>
      <trkpt lat="43.63901" lon="6.87256">
        <ele>189</ele>
        <time>2024-04-07T11:12:53Z</time>
      </trkpt>
      <trkpt lat="43.639" lon="6.87299">
        <ele>192</ele>
        <time>2024-04-07T11:12:59Z</time>
      </trkpt>
      <trkpt lat="43.6389" lon="6.87493">
        <ele>194</ele>
        <time>2024-04-07T11:13:24Z</time>
      </trkpt>
      <trkpt lat="43.63893" lon="6.87544">
        <ele>194</ele>
        <time>2024-04-07T11:13:30Z</time>
      </trkpt>
      <trkpt lat="43.63898" lon="6.87568">
        <ele>195</ele>
        <time>2024-04-07T11:13:34Z</time>
      </trkpt>
      <trkpt lat="43.63905" lon="6.87591">
        <ele>195</ele>
        <time>2024-04-07T11:13:37Z</time>
      </trkpt>
      <trkpt lat="43.63917" lon="6.8762">
        <ele>196</ele>
        <time>2024-04-07T11:13:41Z</time>
      </trkpt>
      <trkpt lat="43.63924" lon="6.87634">
        <ele>196</ele>
        <time>2024-04-07T11:13:43Z</time>
      </trkpt>
      <trkpt lat="43.63943" lon="6.87661">
        <ele>195</ele>
        <time>2024-04-07T11:13:48Z</time>
      </trkpt>
      <trkpt lat="43.63954" lon="6.87673">
        <ele>194</ele>
        <time>2024-04-07T11:13:51Z</time>
      </trkpt>
      <trkpt lat="43.63969" lon="6.87685">
        <ele>194</ele>
        <time>2024-04-07T11:13:54Z</time>
      </trkpt>
      <trkpt lat="43.6403" lon="6.87727">
        <ele>193</ele>
        <time>2024-04-07T11:14:06Z</time>
      </trkpt>
      <trkpt lat="43.64041" lon="6.87736">
        <ele>193</ele>
        <time>2024-04-07T11:14:08Z</time>
      </trkpt>
      <trkpt lat="43.64254" lon="6.88039">
        <ele>183</ele>
        <time>2024-04-07T11:15:03Z</time>
      </trkpt>
      <trkpt lat="43.64253" lon="6.88049">
        <ele>183</ele>
        <time>2024-04-07T11:15:04Z</time>
      </trkpt>
      <trkpt lat="43.64265" lon="6.88082">
        <ele>183</ele>
        <time>2024-04-07T11:15:09Z</time>
      </trkpt>
      <trkpt lat="43.64269" lon="6.8811">
        <ele>183</ele>
        <time>2024-04-07T11:15:12Z</time>
      </trkpt>
      <trkpt lat="43.64273" lon="6.88164">
        <ele>182</ele>
        <time>2024-04-07T11:15:19Z</time>
      </trkpt>
      <trkpt lat="43.64271" lon="6.88259">
        <ele>181</ele>
        <time>2024-04-07T11:15:32Z</time>
      </trkpt>
      <trkpt lat="43.64272" lon="6.88292">
        <ele>181</ele>
        <time>2024-04-07T11:15:36Z</time>
      </trkpt>
      <trkpt lat="43.64277" lon="6.88317">
        <ele>181</ele>
        <time>2024-04-07T11:15:39Z</time>
      </trkpt>
      <trkpt lat="43.64283" lon="6.88318">
        <ele>182</ele>
        <time>2024-04-07T11:15:40Z</time>
      </trkpt>
      <trkpt lat="43.64301" lon="6.88406">
        <ele>183</ele>
        <time>2024-04-07T11:15:52Z</time>
      </trkpt>
      <trkpt lat="43.6437" lon="6.88572">
        <ele>189</ele>
        <time>2024-04-07T11:16:17Z</time>
      </trkpt>
      <trkpt lat="43.64403" lon="6.88707">
        <ele>192</ele>
        <time>2024-04-07T11:16:35Z</time>
      </trkpt>
      <trkpt lat="43.6445" lon="6.88972">
        <ele>208</ele>
        <time>2024-04-07T11:17:10Z</time>
      </trkpt>
      <trkpt lat="43.64453" lon="6.89029">
        <ele>211</ele>
        <time>2024-04-07T11:17:17Z</time>
      </trkpt>
      <trkpt lat="43.64458" lon="6.89111">
        <ele>213</ele>
        <time>2024-04-07T11:17:28Z</time>
      </trkpt>
      <trkpt lat="43.64457" lon="6.89151">
        <ele>215</ele>
        <time>2024-04-07T11:17:33Z</time>
      </trkpt>
      <trkpt lat="43.64457" lon="6.89174">
        <ele>216</ele>
        <time>2024-04-07T11:17:36Z</time>
      </trkpt>
      <trkpt lat="43.64465" lon="6.89231">
        <ele>217</ele>
        <time>2024-04-07T11:17:44Z</time>
      </trkpt>
      <trkpt lat="43.64462" lon="6.89241">
        <ele>218</ele>
        <time>2024-04-07T11:17:45Z</time>
      </trkpt>
      <trkpt lat="43.64462" lon="6.89252">
        <ele>218</ele>
        <time>2024-04-07T11:17:46Z</time>
      </trkpt>
      <trkpt lat="43.64464" lon="6.89261">
        <ele>218</ele>
        <time>2024-04-07T11:17:48Z</time>
      </trkpt>
      <trkpt lat="43.64467" lon="6.89268">
        <ele>218</ele>
        <time>2024-04-07T11:17:49Z</time>
      </trkpt>
      <trkpt lat="43.64473" lon="6.89315">
        <ele>217</ele>
        <time>2024-04-07T11:17:55Z</time>
      </trkpt>
      <trkpt lat="43.64477" lon="6.89331">
        <ele>216</ele>
        <time>2024-04-07T11:17:57Z</time>
      </trkpt>
      <trkpt lat="43.6449" lon="6.89367">
        <ele>215</ele>
        <time>2024-04-07T11:18:02Z</time>
      </trkpt>
      <trkpt lat="43.64502" lon="6.89422">
        <ele>212</ele>
        <time>2024-04-07T11:18:10Z</time>
      </trkpt>
      <trkpt lat="43.64507" lon="6.89434">
        <ele>212</ele>
        <time>2024-04-07T11:18:11Z</time>
      </trkpt>
      <trkpt lat="43.64524" lon="6.89464">
        <ele>214</ele>
        <time>2024-04-07T11:18:16Z</time>
      </trkpt>
      <trkpt lat="43.64526" lon="6.89473">
        <ele>214</ele>
        <time>2024-04-07T11:18:17Z</time>
      </trkpt>
      <trkpt lat="43.64526" lon="6.89491">
        <ele>213</ele>
        <time>2024-04-07T11:18:20Z</time>
      </trkpt>
      <trkpt lat="43.64511" lon="6.89547">
        <ele>208</ele>
        <time>2024-04-07T11:18:27Z</time>
      </trkpt>
      <trkpt lat="43.64497" lon="6.89613">
        <ele>205</ele>
        <time>2024-04-07T11:18:36Z</time>
      </trkpt>
      <trkpt lat="43.64491" lon="6.8963">
        <ele>204</ele>
        <time>2024-04-07T11:18:39Z</time>
      </trkpt>
      <trkpt lat="43.64448" lon="6.8973">
        <ele>198</ele>
        <time>2024-04-07T11:18:54Z</time>
      </trkpt>
      <trkpt lat="43.64427" lon="6.89785">
        <ele>193</ele>
        <time>2024-04-07T11:19:02Z</time>
      </trkpt>
      <trkpt lat="43.64425" lon="6.89798">
        <ele>192</ele>
        <time>2024-04-07T11:19:03Z</time>
      </trkpt>
      <trkpt lat="43.6442" lon="6.89828">
        <ele>192</ele>
        <time>2024-04-07T11:19:07Z</time>
      </trkpt>
      <trkpt lat="43.64423" lon="6.89916">
        <ele>189</ele>
        <time>2024-04-07T11:19:19Z</time>
      </trkpt>
      <trkpt lat="43.64418" lon="6.89986">
        <ele>188</ele>
        <time>2024-04-07T11:19:28Z</time>
      </trkpt>
      <trkpt lat="43.6442" lon="6.90002">
        <ele>188</ele>
        <time>2024-04-07T11:19:30Z</time>
      </trkpt>
      <trkpt lat="43.64424" lon="6.90014">
        <ele>187</ele>
        <time>2024-04-07T11:19:32Z</time>
      </trkpt>
      <trkpt lat="43.6444" lon="6.90039">
        <ele>186</ele>
        <time>2024-04-07T11:19:36Z</time>
      </trkpt>
      <trkpt lat="43.64441" lon="6.90049">
        <ele>185</ele>
        <time>2024-04-07T11:19:37Z</time>
      </trkpt>
      <trkpt lat="43.64475" lon="6.90095">
        <ele>183</ele>
        <time>2024-04-07T11:19:46Z</time>
      </trkpt>
      <trkpt lat="43.64497" lon="6.90142">
        <ele>180</ele>
        <time>2024-04-07T11:19:53Z</time>
      </trkpt>
      <trkpt lat="43.64539" lon="6.90267">
        <ele>180</ele>
        <time>2024-04-07T11:20:11Z</time>
      </trkpt>
      <trkpt lat="43.64535" lon="6.90274">
        <ele>181</ele>
        <time>2024-04-07T11:20:12Z</time>
      </trkpt>
      <trkpt lat="43.64525" lon="6.90287">
        <ele>183</ele>
        <time>2024-04-07T11:20:14Z</time>
      </trkpt>
      <trkpt lat="43.64518" lon="6.90292">
        <ele>183</ele>
        <time>2024-04-07T11:20:16Z</time>
      </trkpt>
      <trkpt lat="43.64503" lon="6.90295">
        <ele>184</ele>
        <time>2024-04-07T11:20:18Z</time>
      </trkpt>
      <trkpt lat="43.64472" lon="6.90282">
        <ele>183</ele>
        <time>2024-04-07T11:20:24Z</time>
      </trkpt>
      <trkpt lat="43.64459" lon="6.90281">
        <ele>183</ele>
        <time>2024-04-07T11:20:26Z</time>
      </trkpt>
      <trkpt lat="43.6445" lon="6.90282">
        <ele>184</ele>
        <time>2024-04-07T11:20:28Z</time>
      </trkpt>
      <trkpt lat="43.64428" lon="6.90291">
        <ele>186</ele>
        <time>2024-04-07T11:20:32Z</time>
      </trkpt>
      <trkpt lat="43.64417" lon="6.90293">
        <ele>187</ele>
        <time>2024-04-07T11:20:34Z</time>
      </trkpt>
      <trkpt lat="43.64367" lon="6.90285">
        <ele>184</ele>
        <time>2024-04-07T11:20:43Z</time>
      </trkpt>
      <trkpt lat="43.64359" lon="6.90286">
        <ele>184</ele>
        <time>2024-04-07T11:20:44Z</time>
      </trkpt>
      <trkpt lat="43.64342" lon="6.90296">
        <ele>185</ele>
        <time>2024-04-07T11:20:48Z</time>
      </trkpt>
      <trkpt lat="43.64332" lon="6.90306">
        <ele>186</ele>
        <time>2024-04-07T11:20:50Z</time>
      </trkpt>
      <trkpt lat="43.64326" lon="6.90316">
        <ele>187</ele>
        <time>2024-04-07T11:20:52Z</time>
      </trkpt>
      <trkpt lat="43.64321" lon="6.90327">
        <ele>188</ele>
        <time>2024-04-07T11:20:53Z</time>
      </trkpt>
      <trkpt lat="43.64318" lon="6.90343">
        <ele>190</ele>
        <time>2024-04-07T11:20:55Z</time>
      </trkpt>
      <trkpt lat="43.64316" lon="6.90377">
        <ele>193</ele>
        <time>2024-04-07T11:21:00Z</time>
      </trkpt>
      <trkpt lat="43.64318" lon="6.90435">
        <ele>198</ele>
        <time>2024-04-07T11:21:07Z</time>
      </trkpt>
      <trkpt lat="43.64327" lon="6.90497">
        <ele>203</ele>
        <time>2024-04-07T11:21:15Z</time>
      </trkpt>
      <trkpt lat="43.64328" lon="6.90511">
        <ele>204</ele>
        <time>2024-04-07T11:21:17Z</time>
      </trkpt>
      <trkpt lat="43.64327" lon="6.90524">
        <ele>205</ele>
        <time>2024-04-07T11:21:19Z</time>
      </trkpt>
      <trkpt lat="43.64316" lon="6.90548">
        <ele>206</ele>
        <time>2024-04-07T11:21:23Z</time>
      </trkpt>
      <trkpt lat="43.64306" lon="6.90564">
        <ele>207</ele>
        <time>2024-04-07T11:21:25Z</time>
      </trkpt>
      <trkpt lat="43.64294" lon="6.90591">
        <ele>208</ele>
        <time>2024-04-07T11:21:29Z</time>
      </trkpt>
      <trkpt lat="43.64258" lon="6.90711">
        <ele>213</ele>
        <time>2024-04-07T11:21:46Z</time>
      </trkpt>
      <trkpt lat="43.64255" lon="6.90729">
        <ele>214</ele>
        <time>2024-04-07T11:21:48Z</time>
      </trkpt>
      <trkpt lat="43.64256" lon="6.90744">
        <ele>215</ele>
        <time>2024-04-07T11:21:50Z</time>
      </trkpt>
      <trkpt lat="43.64261" lon="6.9077">
        <ele>217</ele>
        <time>2024-04-07T11:21:54Z</time>
      </trkpt>
      <trkpt lat="43.64296" lon="6.90836">
        <ele>223</ele>
        <time>2024-04-07T11:22:04Z</time>
      </trkpt>
      <trkpt lat="43.64297" lon="6.90852">
        <ele>224</ele>
        <time>2024-04-07T11:22:07Z</time>
      </trkpt>
      <trkpt lat="43.6429" lon="6.90865">
        <ele>225</ele>
        <time>2024-04-07T11:22:09Z</time>
      </trkpt>
      <trkpt lat="43.64284" lon="6.90868">
        <ele>224</ele>
        <time>2024-04-07T11:22:10Z</time>
      </trkpt>
      <trkpt lat="43.64277" lon="6.90867">
        <ele>224</ele>
        <time>2024-04-07T11:22:11Z</time>
      </trkpt>
      <trkpt lat="43.6427" lon="6.90863">
        <ele>223</ele>
        <time>2024-04-07T11:22:12Z</time>
      </trkpt>
      <trkpt lat="43.6423" lon="6.90827">
        <ele>220</ele>
        <time>2024-04-07T11:22:21Z</time>
      </trkpt>
      <trkpt lat="43.64209" lon="6.90804">
        <ele>220</ele>
        <time>2024-04-07T11:22:26Z</time>
      </trkpt>
      <trkpt lat="43.64201" lon="6.90797">
        <ele>220</ele>
        <time>2024-04-07T11:22:27Z</time>
      </trkpt>
      <trkpt lat="43.64192" lon="6.90791">
        <ele>221</ele>
        <time>2024-04-07T11:22:29Z</time>
      </trkpt>
      <trkpt lat="43.6416" lon="6.90788">
        <ele>222</ele>
        <time>2024-04-07T11:22:35Z</time>
      </trkpt>
      <trkpt lat="43.64143" lon="6.90794">
        <ele>223</ele>
        <time>2024-04-07T11:22:38Z</time>
      </trkpt>
      <trkpt lat="43.64134" lon="6.908">
        <ele>223</ele>
        <time>2024-04-07T11:22:40Z</time>
      </trkpt>
      <trkpt lat="43.64124" lon="6.90809">
        <ele>224</ele>
        <time>2024-04-07T11:22:42Z</time>
      </trkpt>
      <trkpt lat="43.64117" lon="6.9082">
        <ele>224</ele>
        <time>2024-04-07T11:22:44Z</time>
      </trkpt>
      <trkpt lat="43.64088" lon="6.90875">
        <ele>226</ele>
        <time>2024-04-07T11:22:52Z</time>
      </trkpt>
      <trkpt lat="43.64077" lon="6.90903">
        <ele>226</ele>
        <time>2024-04-07T11:22:57Z</time>
      </trkpt>
      <trkpt lat="43.64075" lon="6.90914">
        <ele>227</ele>
        <time>2024-04-07T11:22:58Z</time>
      </trkpt>
      <trkpt lat="43.6407" lon="6.90955">
        <ele>227</ele>
        <time>2024-04-07T11:23:03Z</time>
      </trkpt>
      <trkpt lat="43.64069" lon="6.90986">
        <ele>228</ele>
        <time>2024-04-07T11:23:07Z</time>
      </trkpt>
      <trkpt lat="43.64067" lon="6.9099">
        <ele>228</ele>
        <time>2024-04-07T11:23:08Z</time>
      </trkpt>
      <trkpt lat="43.64065" lon="6.90997">
        <ele>228</ele>
        <time>2024-04-07T11:23:09Z</time>
      </trkpt>
      <trkpt lat="43.64068" lon="6.91004">
        <ele>228</ele>
        <time>2024-04-07T11:23:10Z</time>
      </trkpt>
      <trkpt lat="43.64075" lon="6.91008">
        <ele>229</ele>
        <time>2024-04-07T11:23:11Z</time>
      </trkpt>
      <trkpt lat="43.64085" lon="6.91033">
        <ele>230</ele>
        <time>2024-04-07T11:23:15Z</time>
      </trkpt>
      <trkpt lat="43.64094" lon="6.9105">
        <ele>230</ele>
        <time>2024-04-07T11:23:18Z</time>
      </trkpt>
      <trkpt lat="43.64106" lon="6.9107">
        <ele>232</ele>
        <time>2024-04-07T11:23:21Z</time>
      </trkpt>
      <trkpt lat="43.64141" lon="6.91116">
        <ele>234</ele>
        <time>2024-04-07T11:23:30Z</time>
      </trkpt>
      <trkpt lat="43.64146" lon="6.91131">
        <ele>234</ele>
        <time>2024-04-07T11:23:32Z</time>
      </trkpt>
      <trkpt lat="43.64145" lon="6.91138">
        <ele>234</ele>
        <time>2024-04-07T11:23:33Z</time>
      </trkpt>
      <trkpt lat="43.64146" lon="6.91148">
        <ele>234</ele>
        <time>2024-04-07T11:23:34Z</time>
      </trkpt>
      <trkpt lat="43.64149" lon="6.91158">
        <ele>234</ele>
        <time>2024-04-07T11:23:35Z</time>
      </trkpt>
      <trkpt lat="43.64152" lon="6.91164">
        <ele>235</ele>
        <time>2024-04-07T11:23:36Z</time>
      </trkpt>
      <trkpt lat="43.64156" lon="6.91167">
        <ele>235</ele>
        <time>2024-04-07T11:23:37Z</time>
      </trkpt>
      <trkpt lat="43.64166" lon="6.91171">
        <ele>236</ele>
        <time>2024-04-07T11:23:39Z</time>
      </trkpt>
      <trkpt lat="43.64176" lon="6.91167">
        <ele>237</ele>
        <time>2024-04-07T11:23:41Z</time>
      </trkpt>
      <trkpt lat="43.64183" lon="6.91169">
        <ele>238</ele>
        <time>2024-04-07T11:23:42Z</time>
      </trkpt>
      <trkpt lat="43.64201" lon="6.91181">
        <ele>240</ele>
        <time>2024-04-07T11:23:46Z</time>
      </trkpt>
      <trkpt lat="43.64245" lon="6.91231">
        <ele>244</ele>
        <time>2024-04-07T11:23:56Z</time>
      </trkpt>
      <trkpt lat="43.64258" lon="6.91243">
        <ele>245</ele>
        <time>2024-04-07T11:23:59Z</time>
      </trkpt>
      <trkpt lat="43.64245" lon="6.91231">
        <ele>244</ele>
        <time>2024-04-07T11:24:01Z</time>
      </trkpt>
      <trkpt lat="43.64201" lon="6.91181">
        <ele>240</ele>
        <time>2024-04-07T11:24:12Z</time>
      </trkpt>
      <trkpt lat="43.64191" lon="6.91167">
        <ele>239</ele>
        <time>2024-04-07T11:24:14Z</time>
      </trkpt>
      <trkpt lat="43.64186" lon="6.91151">
        <ele>238</ele>
        <time>2024-04-07T11:24:16Z</time>
      </trkpt>
      <trkpt lat="43.64187" lon="6.91137">
        <ele>238</ele>
        <time>2024-04-07T11:24:18Z</time>
      </trkpt>
      <trkpt lat="43.64186" lon="6.91131">
        <ele>238</ele>
        <time>2024-04-07T11:24:19Z</time>
      </trkpt>
      <trkpt lat="43.6418" lon="6.91119">
        <ele>237</ele>
        <time>2024-04-07T11:24:21Z</time>
      </trkpt>
      <trkpt lat="43.64174" lon="6.91114">
        <ele>237</ele>
        <time>2024-04-07T11:24:22Z</time>
      </trkpt>
      <trkpt lat="43.64167" lon="6.91112">
        <ele>236</ele>
        <time>2024-04-07T11:24:23Z</time>
      </trkpt>
      <trkpt lat="43.64157" lon="6.91115">
        <ele>235</ele>
        <time>2024-04-07T11:24:25Z</time>
      </trkpt>
      <trkpt lat="43.64152" lon="6.9112">
        <ele>235</ele>
        <time>2024-04-07T11:24:26Z</time>
      </trkpt>
      <trkpt lat="43.64146" lon="6.91131">
        <ele>234</ele>
        <time>2024-04-07T11:24:28Z</time>
      </trkpt>
      <trkpt lat="43.64145" lon="6.91138">
        <ele>234</ele>
        <time>2024-04-07T11:24:29Z</time>
      </trkpt>
      <trkpt lat="43.64136" lon="6.91157">
        <ele>233</ele>
        <time>2024-04-07T11:24:32Z</time>
      </trkpt>
      <trkpt lat="43.64132" lon="6.91163">
        <ele>233</ele>
        <time>2024-04-07T11:24:33Z</time>
      </trkpt>
      <trkpt lat="43.64125" lon="6.91167">
        <ele>232</ele>
        <time>2024-04-07T11:24:34Z</time>
      </trkpt>
      <trkpt lat="43.64113" lon="6.91168">
        <ele>231</ele>
        <time>2024-04-07T11:24:36Z</time>
      </trkpt>
      <trkpt lat="43.64098" lon="6.91167">
        <ele>229</ele>
        <time>2024-04-07T11:24:39Z</time>
      </trkpt>
      <trkpt lat="43.64088" lon="6.91163">
        <ele>229</ele>
        <time>2024-04-07T11:24:41Z</time>
      </trkpt>
      <trkpt lat="43.64087" lon="6.91153">
        <ele>229</ele>
        <time>2024-04-07T11:24:42Z</time>
      </trkpt>
      <trkpt lat="43.64081" lon="6.91148">
        <ele>228</ele>
        <time>2024-04-07T11:24:43Z</time>
      </trkpt>
      <trkpt lat="43.64074" lon="6.91152">
        <ele>228</ele>
        <time>2024-04-07T11:24:45Z</time>
      </trkpt>
      <trkpt lat="43.64072" lon="6.91159">
        <ele>227</ele>
        <time>2024-04-07T11:24:46Z</time>
      </trkpt>
      <trkpt lat="43.64074" lon="6.91165">
        <ele>227</ele>
        <time>2024-04-07T11:24:47Z</time>
      </trkpt>
      <trkpt lat="43.6408" lon="6.9117">
        <ele>228</ele>
        <time>2024-04-07T11:24:48Z</time>
      </trkpt>
      <trkpt lat="43.64084" lon="6.91192">
        <ele>228</ele>
        <time>2024-04-07T11:24:51Z</time>
      </trkpt>
      <trkpt lat="43.64075" lon="6.91359">
        <ele>228</ele>
        <time>2024-04-07T11:25:12Z</time>
      </trkpt>
      <trkpt lat="43.64087" lon="6.91415">
        <ele>226</ele>
        <time>2024-04-07T11:25:20Z</time>
      </trkpt>
      <trkpt lat="43.64113" lon="6.91492">
        <ele>224</ele>
        <time>2024-04-07T11:25:31Z</time>
      </trkpt>
      <trkpt lat="43.64115" lon="6.91507">
        <ele>223</ele>
        <time>2024-04-07T11:25:33Z</time>
      </trkpt>
      <trkpt lat="43.64114" lon="6.91528">
        <ele>222</ele>
        <time>2024-04-07T11:25:35Z</time>
      </trkpt>
      <trkpt lat="43.64091" lon="6.91644">
        <ele>217</ele>
        <time>2024-04-07T11:25:51Z</time>
      </trkpt>
      <trkpt lat="43.64081" lon="6.91718">
        <ele>215</ele>
        <time>2024-04-07T11:26:01Z</time>
      </trkpt>
      <trkpt lat="43.64076" lon="6.91738">
        <ele>215</ele>
        <time>2024-04-07T11:26:03Z</time>
      </trkpt>
      <trkpt lat="43.64065" lon="6.91776">
        <ele>213</ele>
        <time>2024-04-07T11:26:09Z</time>
      </trkpt>
      <trkpt lat="43.64018" lon="6.91883">
        <ele>205</ele>
        <time>2024-04-07T11:26:25Z</time>
      </trkpt>
      <trkpt lat="43.63996" lon="6.91958">
        <ele>198</ele>
        <time>2024-04-07T11:26:35Z</time>
      </trkpt>
      <trkpt lat="43.63948" lon="6.91947">
        <ele>195</ele>
        <time>2024-04-07T11:26:44Z</time>
      </trkpt>
      <trkpt lat="43.63933" lon="6.9195">
        <ele>194</ele>
        <time>2024-04-07T11:26:47Z</time>
      </trkpt>
      <trkpt lat="43.63896" lon="6.91943">
        <ele>190</ele>
        <time>2024-04-07T11:26:53Z</time>
      </trkpt>
      <trkpt lat="43.63879" lon="6.9193">
        <ele>189</ele>
        <time>2024-04-07T11:26:57Z</time>
      </trkpt>
      <trkpt lat="43.63857" lon="6.91908">
        <ele>188</ele>
        <time>2024-04-07T11:27:01Z</time>
      </trkpt>
      <trkpt lat="43.63842" lon="6.91901">
        <ele>186</ele>
        <time>2024-04-07T11:27:04Z</time>
      </trkpt>
      <trkpt lat="43.63857" lon="6.91908">
        <ele>188</ele>
        <time>2024-04-07T11:27:07Z</time>
      </trkpt>
      <trkpt lat="43.63879" lon="6.9193">
        <ele>189</ele>
        <time>2024-04-07T11:27:12Z</time>
      </trkpt>
      <trkpt lat="43.63896" lon="6.91943">
        <ele>190</ele>
        <time>2024-04-07T11:27:15Z</time>
      </trkpt>
      <trkpt lat="43.63933" lon="6.9195">
        <ele>194</ele>
        <time>2024-04-07T11:27:22Z</time>
      </trkpt>
      <trkpt lat="43.63948" lon="6.91947">
        <ele>195</ele>
        <time>2024-04-07T11:27:25Z</time>
      </trkpt>
      <trkpt lat="43.63996" lon="6.91958">
        <ele>198</ele>
        <time>2024-04-07T11:27:33Z</time>
      </trkpt>
      <trkpt lat="43.63988" lon="6.9198">
        <ele>195</ele>
        <time>2024-04-07T11:27:37Z</time>
      </trkpt>
      <trkpt lat="43.63969" lon="6.92018">
        <ele>190</ele>
        <time>2024-04-07T11:27:43Z</time>
      </trkpt>
      <trkpt lat="43.63871" lon="6.92199">
        <ele>179</ele>
        <time>2024-04-07T11:28:12Z</time>
      </trkpt>
      <trkpt lat="43.63803" lon="6.92334">
        <ele>166</ele>
        <time>2024-04-07T11:28:33Z</time>
      </trkpt>
      <trkpt lat="43.63794" lon="6.92344">
        <ele>165</ele>
        <time>2024-04-07T11:28:35Z</time>
      </trkpt>
      <trkpt lat="43.63729" lon="6.92396">
        <ele>160</ele>
        <time>2024-04-07T11:28:48Z</time>
      </trkpt>
      <trkpt lat="43.63727" lon="6.92403">
        <ele>159</ele>
        <time>2024-04-07T11:28:49Z</time>
      </trkpt>
      <trkpt lat="43.63726" lon="6.92416">
        <ele>159</ele>
        <time>2024-04-07T11:28:51Z</time>
      </trkpt>
      <trkpt lat="43.6374" lon="6.92494">
        <ele>153</ele>
        <time>2024-04-07T11:29:01Z</time>
      </trkpt>
      <trkpt lat="43.63742" lon="6.92496">
        <ele>153</ele>
        <time>2024-04-07T11:29:02Z</time>
      </trkpt>
      <trkpt lat="43.63745" lon="6.92552">
        <ele>153</ele>
        <time>2024-04-07T11:29:09Z</time>
      </trkpt>
      <trkpt lat="43.63743" lon="6.9257">
        <ele>153</ele>
        <time>2024-04-07T11:29:11Z</time>
      </trkpt>
      <trkpt lat="43.63728" lon="6.92624">
        <ele>151</ele>
        <time>2024-04-07T11:29:19Z</time>
      </trkpt>
      <trkpt lat="43.63715" lon="6.92682">
        <ele>149</ele>
        <time>2024-04-07T11:29:27Z</time>
      </trkpt>
      <trkpt lat="43.63704" lon="6.92741">
        <ele>149</ele>
        <time>2024-04-07T11:29:34Z</time>
      </trkpt>
      <trkpt lat="43.637" lon="6.92772">
        <ele>148</ele>
        <time>2024-04-07T11:29:38Z</time>
      </trkpt>
      <trkpt lat="43.63702" lon="6.92814">
        <ele>145</ele>
        <time>2024-04-07T11:29:44Z</time>
      </trkpt>
      <trkpt lat="43.63712" lon="6.92871">
        <ele>142</ele>
        <time>2024-04-07T11:29:51Z</time>
      </trkpt>
      <trkpt lat="43.63729" lon="6.92948">
        <ele>139</ele>
        <time>2024-04-07T11:30:02Z</time>
      </trkpt>
      <trkpt lat="43.6373" lon="6.92957">
        <ele>139</ele>
        <time>2024-04-07T11:30:03Z</time>
      </trkpt>
      <trkpt lat="43.63738" lon="6.92972">
        <ele>138</ele>
        <time>2024-04-07T11:30:05Z</time>
      </trkpt>
      <trkpt lat="43.63772" lon="6.93023">
        <ele>137</ele>
        <time>2024-04-07T11:30:14Z</time>
      </trkpt>
      <trkpt lat="43.6378" lon="6.93032">
        <ele>137</ele>
        <time>2024-04-07T11:30:16Z</time>
      </trkpt>
      <trkpt lat="43.63785" lon="6.93052">
        <ele>137</ele>
        <time>2024-04-07T11:30:19Z</time>
      </trkpt>
      <trkpt lat="43.6379" lon="6.93085">
        <ele>137</ele>
        <time>2024-04-07T11:30:23Z</time>
      </trkpt>
      <trkpt lat="43.63791" lon="6.93121">
        <ele>137</ele>
        <time>2024-04-07T11:30:28Z</time>
      </trkpt>
      <trkpt lat="43.63784" lon="6.93141">
        <ele>137</ele>
        <time>2024-04-07T11:30:31Z</time>
      </trkpt>
      <trkpt lat="43.63745" lon="6.93221">
        <ele>136</ele>
        <time>2024-04-07T11:30:43Z</time>
      </trkpt>
      <trkpt lat="43.63741" lon="6.93235">
        <ele>135</ele>
        <time>2024-04-07T11:30:45Z</time>
      </trkpt>
      <trkpt lat="43.6373" lon="6.93294">
        <ele>136</ele>
        <time>2024-04-07T11:30:53Z</time>
      </trkpt>
      <trkpt lat="43.63725" lon="6.93312">
        <ele>137</ele>
        <time>2024-04-07T11:30:55Z</time>
      </trkpt>
      <trkpt lat="43.6372" lon="6.9332">
        <ele>138</ele>
        <time>2024-04-07T11:30:57Z</time>
      </trkpt>
      <trkpt lat="43.6372" lon="6.93333">
        <ele>138</ele>
        <time>2024-04-07T11:30:58Z</time>
      </trkpt>
      <trkpt lat="43.63724" lon="6.93342">
        <ele>138</ele>
        <time>2024-04-07T11:31:00Z</time>
      </trkpt>
      <trkpt lat="43.6373" lon="6.93347">
        <ele>138</ele>
        <time>2024-04-07T11:31:01Z</time>
      </trkpt>
      <trkpt lat="43.63738" lon="6.93346">
        <ele>138</ele>
        <time>2024-04-07T11:31:02Z</time>
      </trkpt>
      <trkpt lat="43.63744" lon="6.93341">
        <ele>138</ele>
        <time>2024-04-07T11:31:04Z</time>
      </trkpt>
      <trkpt lat="43.63755" lon="6.93341">
        <ele>137</ele>
        <time>2024-04-07T11:31:06Z</time>
      </trkpt>
      <trkpt lat="43.63808" lon="6.93355">
        <ele>137</ele>
        <time>2024-04-07T11:31:15Z</time>
      </trkpt>
      <trkpt lat="43.63821" lon="6.93357">
        <ele>137</ele>
        <time>2024-04-07T11:31:18Z</time>
      </trkpt>
      <trkpt lat="43.63995" lon="6.93424">
        <ele>140</ele>
        <time>2024-04-07T11:31:50Z</time>
      </trkpt>
      <trkpt lat="43.64027" lon="6.93443">
        <ele>143</ele>
        <time>2024-04-07T11:31:56Z</time>
      </trkpt>
      <trkpt lat="43.64042" lon="6.93456">
        <ele>145</ele>
        <time>2024-04-07T11:31:59Z</time>
      </trkpt>
      <trkpt lat="43.64071" lon="6.93487">
        <ele>148</ele>
        <time>2024-04-07T11:32:06Z</time>
      </trkpt>
      <trkpt lat="43.64084" lon="6.93504">
        <ele>149</ele>
        <time>2024-04-07T11:32:09Z</time>
      </trkpt>
      <trkpt lat="43.64105" lon="6.93537">
        <ele>151</ele>
        <time>2024-04-07T11:32:14Z</time>
      </trkpt>
      <trkpt lat="43.64124" lon="6.9358">
        <ele>153</ele>
        <time>2024-04-07T11:32:21Z</time>
      </trkpt>
      <trkpt lat="43.64127" lon="6.93604">
        <ele>156</ele>
        <time>2024-04-07T11:32:24Z</time>
      </trkpt>
      <trkpt lat="43.64126" lon="6.93626">
        <ele>160</ele>
        <time>2024-04-07T11:32:27Z</time>
      </trkpt>
      <trkpt lat="43.6412" lon="6.93638">
        <ele>162</ele>
        <time>2024-04-07T11:32:29Z</time>
      </trkpt>
      <trkpt lat="43.64119" lon="6.93645">
        <ele>163</ele>
        <time>2024-04-07T11:32:30Z</time>
      </trkpt>
      <trkpt lat="43.64122" lon="6.9366">
        <ele>165</ele>
        <time>2024-04-07T11:32:32Z</time>
      </trkpt>
      <trkpt lat="43.64139" lon="6.93684">
        <ele>166</ele>
        <time>2024-04-07T11:32:36Z</time>
      </trkpt>
      <trkpt lat="43.64156" lon="6.93719">
        <ele>167</ele>
        <time>2024-04-07T11:32:41Z</time>
      </trkpt>
      <trkpt lat="43.64166" lon="6.93742">
        <ele>168</ele>
        <time>2024-04-07T11:32:45Z</time>
      </trkpt>
      <trkpt lat="43.64179" lon="6.93763">
        <ele>170</ele>
        <time>2024-04-07T11:32:48Z</time>
      </trkpt>
      <trkpt lat="43.64191" lon="6.93775">
        <ele>171</ele>
        <time>2024-04-07T11:32:51Z</time>
      </trkpt>
      <trkpt lat="43.64203" lon="6.93781">
        <ele>170</ele>
        <time>2024-04-07T11:32:53Z</time>
      </trkpt>
      <trkpt lat="43.6433" lon="6.93816">
        <ele>171</ele>
        <time>2024-04-07T11:33:16Z</time>
      </trkpt>
      <trkpt lat="43.64353" lon="6.93824">
        <ele>171</ele>
        <time>2024-04-07T11:33:21Z</time>
      </trkpt>
      <trkpt lat="43.64376" lon="6.93837">
        <ele>172</ele>
        <time>2024-04-07T11:33:25Z</time>
      </trkpt>
      <trkpt lat="43.64402" lon="6.93861">
        <ele>174</ele>
        <time>2024-04-07T11:33:31Z</time>
      </trkpt>
      <trkpt lat="43.64453" lon="6.9392">
        <ele>180</ele>
        <time>2024-04-07T11:33:42Z</time>
      </trkpt>
      <trkpt lat="43.64468" lon="6.93946">
        <ele>181</ele>
        <time>2024-04-07T11:33:47Z</time>
      </trkpt>
      <trkpt lat="43.64482" lon="6.93983">
        <ele>183</ele>
        <time>2024-04-07T11:33:52Z</time>
      </trkpt>
      <trkpt lat="43.64493" lon="6.94005">
        <ele>183</ele>
        <time>2024-04-07T11:33:56Z</time>
      </trkpt>
      <trkpt lat="43.64494" lon="6.94022">
        <ele>182</ele>
        <time>2024-04-07T11:33:58Z</time>
      </trkpt>
      <trkpt lat="43.6449" lon="6.9403">
        <ele>183</ele>
        <time>2024-04-07T11:33:59Z</time>
      </trkpt>
      <trkpt lat="43.64488" lon="6.94037">
        <ele>183</ele>
        <time>2024-04-07T11:34:00Z</time>
      </trkpt>
      <trkpt lat="43.6449" lon="6.94052">
        <ele>182</ele>
        <time>2024-04-07T11:34:02Z</time>
      </trkpt>
      <trkpt lat="43.64498" lon="6.94063">
        <ele>181</ele>
        <time>2024-04-07T11:34:04Z</time>
      </trkpt>
      <trkpt lat="43.64506" lon="6.94067">
        <ele>181</ele>
        <time>2024-04-07T11:34:05Z</time>
      </trkpt>
      <trkpt lat="43.64514" lon="6.94065">
        <ele>181</ele>
        <time>2024-04-07T11:34:07Z</time>
      </trkpt>
      <trkpt lat="43.64524" lon="6.94072">
        <ele>182</ele>
        <time>2024-04-07T11:34:09Z</time>
      </trkpt>
      <trkpt lat="43.64528" lon="6.9409">
        <ele>181</ele>
        <time>2024-04-07T11:34:11Z</time>
      </trkpt>
      <trkpt lat="43.64527" lon="6.94103">
        <ele>180</ele>
        <time>2024-04-07T11:34:13Z</time>
      </trkpt>
      <trkpt lat="43.64521" lon="6.94137">
        <ele>177</ele>
        <time>2024-04-07T11:34:17Z</time>
      </trkpt>
      <trkpt lat="43.64517" lon="6.94166">
        <ele>175</ele>
        <time>2024-04-07T11:34:21Z</time>
      </trkpt>
      <trkpt lat="43.64519" lon="6.94211">
        <ele>172</ele>
        <time>2024-04-07T11:34:27Z</time>
      </trkpt>
      <trkpt lat="43.64536" lon="6.94436">
        <ele>156</ele>
        <time>2024-04-07T11:34:56Z</time>
      </trkpt>
      <trkpt lat="43.6453" lon="6.94457">
        <ele>154</ele>
        <time>2024-04-07T11:34:59Z</time>
      </trkpt>
      <trkpt lat="43.64526" lon="6.94466">
        <ele>154</ele>
        <time>2024-04-07T11:35:00Z</time>
      </trkpt>
      <trkpt lat="43.64524" lon="6.9447">
        <ele>154</ele>
        <time>2024-04-07T11:35:01Z</time>
      </trkpt>
      <trkpt lat="43.64524" lon="6.94481">
        <ele>153</ele>
        <time>2024-04-07T11:35:03Z</time>
      </trkpt>
      <trkpt lat="43.64524" lon="6.94517">
        <ele>151</ele>
        <time>2024-04-07T11:35:07Z</time>
      </trkpt>
      <trkpt lat="43.64493" lon="6.94601">
        <ele>148</ele>
        <time>2024-04-07T11:35:19Z</time>
      </trkpt>
      <trkpt lat="43.64479" lon="6.9463">
        <ele>147</ele>
        <time>2024-04-07T11:35:24Z</time>
      </trkpt>
      <trkpt lat="43.64469" lon="6.94648">
        <ele>147</ele>
        <time>2024-04-07T11:35:27Z</time>
      </trkpt>
      <trkpt lat="43.64428" lon="6.94709">
        <ele>145</ele>
        <time>2024-04-07T11:35:37Z</time>
      </trkpt>
      <trkpt lat="43.64419" lon="6.94718">
        <ele>145</ele>
        <time>2024-04-07T11:35:39Z</time>
      </trkpt>
      <trkpt lat="43.64402" lon="6.94718">
        <ele>145</ele>
        <time>2024-04-07T11:35:42Z</time>
      </trkpt>
      <trkpt lat="43.64396" lon="6.94714">
        <ele>145</ele>
        <time>2024-04-07T11:35:44Z</time>
      </trkpt>
      <trkpt lat="43.64389" lon="6.94715">
        <ele>145</ele>
        <time>2024-04-07T11:35:45Z</time>
      </trkpt>
      <trkpt lat="43.64385" lon="6.94723">
        <ele>145</ele>
        <time>2024-04-07T11:35:46Z</time>
      </trkpt>
      <trkpt lat="43.64384" lon="6.94729">
        <ele>144</ele>
        <time>2024-04-07T11:35:47Z</time>
      </trkpt>
      <trkpt lat="43.6438" lon="6.94738">
        <ele>144</ele>
        <time>2024-04-07T11:35:48Z</time>
      </trkpt>
      <trkpt lat="43.64364" lon="6.94753">
        <ele>143</ele>
        <time>2024-04-07T11:35:52Z</time>
      </trkpt>
      <trkpt lat="43.64314" lon="6.94772">
        <ele>142</ele>
        <time>2024-04-07T11:36:01Z</time>
      </trkpt>
      <trkpt lat="43.6429" lon="6.94779">
        <ele>141</ele>
        <time>2024-04-07T11:36:05Z</time>
      </trkpt>
      <trkpt lat="43.64283" lon="6.94778">
        <ele>141</ele>
        <time>2024-04-07T11:36:07Z</time>
      </trkpt>
      <trkpt lat="43.64277" lon="6.94782">
        <ele>141</ele>
        <time>2024-04-07T11:36:08Z</time>
      </trkpt>
      <trkpt lat="43.64274" lon="6.9479">
        <ele>141</ele>
        <time>2024-04-07T11:36:09Z</time>
      </trkpt>
      <trkpt lat="43.64275" lon="6.94799">
        <ele>140</ele>
        <time>2024-04-07T11:36:10Z</time>
      </trkpt>
      <trkpt lat="43.64294" lon="6.94834">
        <ele>138</ele>
        <time>2024-04-07T11:36:16Z</time>
      </trkpt>
      <trkpt lat="43.64313" lon="6.94958">
        <ele>134</ele>
        <time>2024-04-07T11:36:32Z</time>
      </trkpt>
      <trkpt lat="43.64346" lon="6.95131">
        <ele>131</ele>
        <time>2024-04-07T11:36:55Z</time>
      </trkpt>
      <trkpt lat="43.64383" lon="6.95266">
        <ele>132</ele>
        <time>2024-04-07T11:37:14Z</time>
      </trkpt>
      <trkpt lat="43.64418" lon="6.95359">
        <ele>132</ele>
        <time>2024-04-07T11:37:27Z</time>
      </trkpt>
      <trkpt lat="43.64437" lon="6.95406">
        <ele>131</ele>
        <time>2024-04-07T11:37:34Z</time>
      </trkpt>
      <trkpt lat="43.64441" lon="6.95421">
        <ele>131</ele>
        <time>2024-04-07T11:37:36Z</time>
      </trkpt>
      <trkpt lat="43.6444" lon="6.95427">
        <ele>131</ele>
        <time>2024-04-07T11:37:37Z</time>
      </trkpt>
      <trkpt lat="43.64428" lon="6.95445">
        <ele>131</ele>
        <time>2024-04-07T11:37:40Z</time>
      </trkpt>
      <trkpt lat="43.64419" lon="6.95456">
        <ele>131</ele>
        <time>2024-04-07T11:37:42Z</time>
      </trkpt>
      <trkpt lat="43.64411" lon="6.95473">
        <ele>130</ele>
        <time>2024-04-07T11:37:45Z</time>
      </trkpt>
      <trkpt lat="43.64324" lon="6.95596">
        <ele>128</ele>
        <time>2024-04-07T11:38:07Z</time>
      </trkpt>
      <trkpt lat="43.64313" lon="6.95623">
        <ele>127</ele>
        <time>2024-04-07T11:38:11Z</time>
      </trkpt>
      <trkpt lat="43.64303" lon="6.95675">
        <ele>127</ele>
        <time>2024-04-07T11:38:18Z</time>
      </trkpt>
      <trkpt lat="43.64299" lon="6.95701">
        <ele>127</ele>
        <time>2024-04-07T11:38:21Z</time>
      </trkpt>
      <trkpt lat="43.64289" lon="6.95737">
        <ele>128</ele>
        <time>2024-04-07T11:38:26Z</time>
      </trkpt>
      <trkpt lat="43.64273" lon="6.95749">
        <ele>128</ele>
        <time>2024-04-07T11:38:29Z</time>
      </trkpt>
      <trkpt lat="43.64269" lon="6.95749">
        <ele>128</ele>
        <time>2024-04-07T11:38:30Z</time>
      </trkpt>
      <trkpt lat="43.64265" lon="6.95754">
        <ele>128</ele>
        <time>2024-04-07T11:38:31Z</time>
      </trkpt>
      <trkpt lat="43.64264" lon="6.95759">
        <ele>128</ele>
        <time>2024-04-07T11:38:32Z</time>
      </trkpt>
      <trkpt lat="43.64267" lon="6.95766">
        <ele>128</ele>
        <time>2024-04-07T11:38:33Z</time>
      </trkpt>
      <trkpt lat="43.64266" lon="6.95775">
        <ele>129</ele>
        <time>2024-04-07T11:38:34Z</time>
      </trkpt>
      <trkpt lat="43.64218" lon="6.95887">
        <ele>130</ele>
        <time>2024-04-07T11:38:51Z</time>
      </trkpt>
      <trkpt lat="43.64203" lon="6.95905">
        <ele>130</ele>
        <time>2024-04-07T11:38:54Z</time>
      </trkpt>
      <trkpt lat="43.64182" lon="6.95919">
        <ele>130</ele>
        <time>2024-04-07T11:38:59Z</time>
      </trkpt>
      <trkpt lat="43.64169" lon="6.9593">
        <ele>130</ele>
        <time>2024-04-07T11:39:01Z</time>
      </trkpt>
      <trkpt lat="43.64162" lon="6.9595">
        <ele>131</ele>
        <time>2024-04-07T11:39:04Z</time>
      </trkpt>
      <trkpt lat="43.64163" lon="6.95956">
        <ele>131</ele>
        <time>2024-04-07T11:39:05Z</time>
      </trkpt>
      <trkpt lat="43.6417" lon="6.95966">
        <ele>131</ele>
        <time>2024-04-07T11:39:07Z</time>
      </trkpt>
      <trkpt lat="43.64143" lon="6.96004">
        <ele>131</ele>
        <time>2024-04-07T11:39:14Z</time>
      </trkpt>
      <trkpt lat="43.64125" lon="6.96023">
        <ele>132</ele>
        <time>2024-04-07T11:39:18Z</time>
      </trkpt>
      <trkpt lat="43.64089" lon="6.96105">
        <ele>136</ele>
        <time>2024-04-07T11:39:30Z</time>
      </trkpt>
      <trkpt lat="43.64082" lon="6.96135">
        <ele>139</ele>
        <time>2024-04-07T11:39:34Z</time>
      </trkpt>
      <trkpt lat="43.64068" lon="6.96209">
        <ele>145</ele>
        <time>2024-04-07T11:39:44Z</time>
      </trkpt>
      <trkpt lat="43.64055" lon="6.963">
        <ele>155</ele>
        <time>2024-04-07T11:39:56Z</time>
      </trkpt>
      <trkpt lat="43.64049" lon="6.96354">
        <ele>162</ele>
        <time>2024-04-07T11:40:03Z</time>
      </trkpt>
      <trkpt lat="43.64038" lon="6.964">
        <ele>166</ele>
        <time>2024-04-07T11:40:09Z</time>
      </trkpt>
      <trkpt lat="43.64029" lon="6.96448">
        <ele>168</ele>
        <time>2024-04-07T11:40:15Z</time>
      </trkpt>
      <trkpt lat="43.64033" lon="6.96458">
        <ele>170</ele>
        <time>2024-04-07T11:40:17Z</time>
      </trkpt>
      <trkpt lat="43.64024" lon="6.96555">
        <ele>172</ele>
        <time>2024-04-07T11:40:29Z</time>
      </trkpt>
      <trkpt lat="43.64031" lon="6.96595">
        <ele>175</ele>
        <time>2024-04-07T11:40:35Z</time>
      </trkpt>
      <trkpt lat="43.64045" lon="6.96641">
        <ele>178</ele>
        <time>2024-04-07T11:40:41Z</time>
      </trkpt>
      <trkpt lat="43.64068" lon="6.96691">
        <ele>182</ele>
        <time>2024-04-07T11:40:49Z</time>
      </trkpt>
      <trkpt lat="43.6408" lon="6.96705">
        <ele>184</ele>
        <time>2024-04-07T11:40:52Z</time>
      </trkpt>
      <trkpt lat="43.6408" lon="6.9671">
        <ele>184</ele>
        <time>2024-04-07T11:40:52Z</time>
      </trkpt>
      <trkpt lat="43.64076" lon="6.96725">
        <ele>184</ele>
        <time>2024-04-07T11:40:54Z</time>
      </trkpt>
      <trkpt lat="43.64076" lon="6.96751">
        <ele>184</ele>
        <time>2024-04-07T11:40:58Z</time>
      </trkpt>
      <trkpt lat="43.64076" lon="6.96756">
        <ele>185</ele>
        <time>2024-04-07T11:40:58Z</time>
      </trkpt>
      <trkpt lat="43.6405" lon="6.96844">
        <ele>195</ele>
        <time>2024-04-07T11:41:11Z</time>
      </trkpt>
      <trkpt lat="43.64032" lon="6.96865">
        <ele>197</ele>
        <time>2024-04-07T11:41:15Z</time>
      </trkpt>
      <trkpt lat="43.64016" lon="6.96964">
        <ele>208</ele>
        <time>2024-04-07T11:41:28Z</time>
      </trkpt>
      <trkpt lat="43.63968" lon="6.97048">
        <ele>212</ele>
        <time>2024-04-07T11:41:42Z</time>
      </trkpt>
      <trkpt lat="43.63879" lon="6.9717">
        <ele>219</ele>
        <time>2024-04-07T11:42:04Z</time>
      </trkpt>
      <trkpt lat="43.63861" lon="6.97207">
        <ele>220</ele>
        <time>2024-04-07T11:42:10Z</time>
      </trkpt>
      <trkpt lat="43.63855" lon="6.97227">
        <ele>222</ele>
        <time>2024-04-07T11:42:12Z</time>
      </trkpt>
      <trkpt lat="43.63854" lon="6.97253">
        <ele>224</ele>
        <time>2024-04-07T11:42:16Z</time>
      </trkpt>
      <trkpt lat="43.63856" lon="6.97288">
        <ele>226</ele>
        <time>2024-04-07T11:42:20Z</time>
      </trkpt>
      <trkpt lat="43.6386" lon="6.97324">
        <ele>229</ele>
        <time>2024-04-07T11:42:25Z</time>
      </trkpt>
      <trkpt lat="43.63874" lon="6.97375">
        <ele>233</ele>
        <time>2024-04-07T11:42:32Z</time>
      </trkpt>
      <trkpt lat="43.63888" lon="6.97441">
        <ele>236</ele>
        <time>2024-04-07T11:42:41Z</time>
      </trkpt>
      <trkpt lat="43.63892" lon="6.97448">
        <ele>237</ele>
        <time>2024-04-07T11:42:42Z</time>
      </trkpt>
      <trkpt lat="43.63906" lon="6.97505">
        <ele>237</ele>
        <time>2024-04-07T11:42:50Z</time>
      </trkpt>
      <trkpt lat="43.63915" lon="6.97526">
        <ele>237</ele>
        <time>2024-04-07T11:42:53Z</time>
      </trkpt>
      <trkpt lat="43.63922" lon="6.97537">
        <ele>238</ele>
        <time>2024-04-07T11:42:55Z</time>
      </trkpt>
      <trkpt lat="43.63923" lon="6.97552">
        <ele>238</ele>
        <time>2024-04-07T11:42:57Z</time>
      </trkpt>
      <trkpt lat="43.6392" lon="6.97563">
        <ele>238</ele>
        <time>2024-04-07T11:42:58Z</time>
      </trkpt>
      <trkpt lat="43.63913" lon="6.9757">
        <ele>238</ele>
        <time>2024-04-07T11:43:00Z</time>
      </trkpt>
      <trkpt lat="43.6391" lon="6.9758">
        <ele>238</ele>
        <time>2024-04-07T11:43:01Z</time>
      </trkpt>
      <trkpt lat="43.63911" lon="6.97594">
        <ele>238</ele>
        <time>2024-04-07T11:43:03Z</time>
      </trkpt>
      <trkpt lat="43.63917" lon="6.97604">
        <ele>238</ele>
        <time>2024-04-07T11:43:05Z</time>
      </trkpt>
      <trkpt lat="43.63925" lon="6.97608">
        <ele>238</ele>
        <time>2024-04-07T11:43:06Z</time>
      </trkpt>
      <trkpt lat="43.63937" lon="6.97622">
        <ele>239</ele>
        <time>2024-04-07T11:43:09Z</time>
      </trkpt>
      <trkpt lat="43.63956" lon="6.97667">
        <ele>239</ele>
        <time>2024-04-07T11:43:16Z</time>
      </trkpt>
      <trkpt lat="43.63977" lon="6.97747">
        <ele>239</ele>
        <time>2024-04-07T11:43:27Z</time>
      </trkpt>
      <trkpt lat="43.6398" lon="6.9777">
        <ele>239</ele>
        <time>2024-04-07T11:43:30Z</time>
      </trkpt>
      <trkpt lat="43.6398" lon="6.97839">
        <ele>239</ele>
        <time>2024-04-07T11:43:39Z</time>
      </trkpt>
      <trkpt lat="43.63985" lon="6.97895">
        <ele>237</ele>
        <time>2024-04-07T11:43:46Z</time>
      </trkpt>
      <trkpt lat="43.63979" lon="6.97905">
        <ele>237</ele>
        <time>2024-04-07T11:43:47Z</time>
      </trkpt>
      <trkpt lat="43.63978" lon="6.97917">
        <ele>237</ele>
        <time>2024-04-07T11:43:49Z</time>
      </trkpt>
      <trkpt lat="43.63979" lon="6.97924">
        <ele>237</ele>
        <time>2024-04-07T11:43:50Z</time>
      </trkpt>
      <trkpt lat="43.63984" lon="6.97934">
        <ele>236</ele>
        <time>2024-04-07T11:43:52Z</time>
      </trkpt>
      <trkpt lat="43.63991" lon="6.9794">
        <ele>236</ele>
        <time>2024-04-07T11:43:53Z</time>
      </trkpt>
      <trkpt lat="43.63998" lon="6.97953">
        <ele>236</ele>
        <time>2024-04-07T11:43:55Z</time>
      </trkpt>
      <trkpt lat="43.64002" lon="6.97967">
        <ele>235</ele>
        <time>2024-04-07T11:43:57Z</time>
      </trkpt>
      <trkpt lat="43.64007" lon="6.98005">
        <ele>235</ele>
        <time>2024-04-07T11:44:02Z</time>
      </trkpt>
      <trkpt lat="43.64007" lon="6.9804">
        <ele>235</ele>
        <time>2024-04-07T11:44:06Z</time>
      </trkpt>
      <trkpt lat="43.63996" lon="6.98118">
        <ele>233</ele>
        <time>2024-04-07T11:44:17Z</time>
      </trkpt>
      <trkpt lat="43.63997" lon="6.98138">
        <ele>233</ele>
        <time>2024-04-07T11:44:19Z</time>
      </trkpt>
      <trkpt lat="43.64006" lon="6.98169">
        <ele>232</ele>
        <time>2024-04-07T11:44:24Z</time>
      </trkpt>
      <trkpt lat="43.6402" lon="6.98205">
        <ele>231</ele>
        <time>2024-04-07T11:44:29Z</time>
      </trkpt>
      <trkpt lat="43.64023" lon="6.98219">
        <ele>231</ele>
        <time>2024-04-07T11:44:31Z</time>
      </trkpt>
      <trkpt lat="43.64025" lon="6.98262">
        <ele>230</ele>
        <time>2024-04-07T11:44:36Z</time>
      </trkpt>
      <trkpt lat="43.64031" lon="6.98282">
        <ele>230</ele>
        <time>2024-04-07T11:44:39Z</time>
      </trkpt>
      <trkpt lat="43.6405" lon="6.98314">
        <ele>229</ele>
        <time>2024-04-07T11:44:44Z</time>
      </trkpt>
      <trkpt lat="43.64084" lon="6.98362">
        <ele>227</ele>
        <time>2024-04-07T11:44:53Z</time>
      </trkpt>
      <trkpt lat="43.64092" lon="6.98378">
        <ele>227</ele>
        <time>2024-04-07T11:44:56Z</time>
      </trkpt>
      <trkpt lat="43.64098" lon="6.98394">
        <ele>228</ele>
        <time>2024-04-07T11:44:58Z</time>
      </trkpt>
      <trkpt lat="43.64107" lon="6.98444">
        <ele>229</ele>
        <time>2024-04-07T11:45:05Z</time>
      </trkpt>
      <trkpt lat="43.64111" lon="6.98477">
        <ele>230</ele>
        <time>2024-04-07T11:45:09Z</time>
      </trkpt>
      <trkpt lat="43.64108" lon="6.98553">
        <ele>228</ele>
        <time>2024-04-07T11:45:19Z</time>
      </trkpt>
      <trkpt lat="43.64109" lon="6.98591">
        <ele>227</ele>
        <time>2024-04-07T11:45:24Z</time>
      </trkpt>
      <trkpt lat="43.64114" lon="6.98645">
        <ele>227</ele>
        <time>2024-04-07T11:45:31Z</time>
      </trkpt>
      <trkpt lat="43.64114" lon="6.98674">
        <ele>226</ele>
        <time>2024-04-07T11:45:34Z</time>
      </trkpt>
      <trkpt lat="43.64111" lon="6.98705">
        <ele>226</ele>
        <time>2024-04-07T11:45:38Z</time>
      </trkpt>
      <trkpt lat="43.64113" lon="6.98742">
        <ele>226</ele>
        <time>2024-04-07T11:45:43Z</time>
      </trkpt>
      <trkpt lat="43.64116" lon="6.98768">
        <ele>225</ele>
        <time>2024-04-07T11:45:46Z</time>
      </trkpt>
      <trkpt lat="43.64124" lon="6.98798">
        <ele>224</ele>
        <time>2024-04-07T11:45:51Z</time>
      </trkpt>
      <trkpt lat="43.64131" lon="6.98808">
        <ele>223</ele>
        <time>2024-04-07T11:45:52Z</time>
      </trkpt>
      <trkpt lat="43.6416" lon="6.98839">
        <ele>221</ele>
        <time>2024-04-07T11:45:59Z</time>
      </trkpt>
      <trkpt lat="43.64164" lon="6.98855">
        <ele>221</ele>
        <time>2024-04-07T11:46:01Z</time>
      </trkpt>
      <trkpt lat="43.64162" lon="6.98868">
        <ele>222</ele>
        <time>2024-04-07T11:46:03Z</time>
      </trkpt>
      <trkpt lat="43.64127" lon="6.98959">
        <ele>225</ele>
        <time>2024-04-07T11:46:16Z</time>
      </trkpt>
      <trkpt lat="43.64109" lon="6.98996">
        <ele>224</ele>
        <time>2024-04-07T11:46:22Z</time>
      </trkpt>
      <trkpt lat="43.64097" lon="6.99011">
        <ele>223</ele>
        <time>2024-04-07T11:46:25Z</time>
      </trkpt>
      <trkpt lat="43.6407" lon="6.99037">
        <ele>221</ele>
        <time>2024-04-07T11:46:31Z</time>
      </trkpt>
      <trkpt lat="43.64053" lon="6.99063">
        <ele>221</ele>
        <time>2024-04-07T11:46:35Z</time>
      </trkpt>
      <trkpt lat="43.64042" lon="6.99087">
        <ele>221</ele>
        <time>2024-04-07T11:46:39Z</time>
      </trkpt>
      <trkpt lat="43.6401" lon="6.99222">
        <ele>216</ele>
        <time>2024-04-07T11:46:57Z</time>
      </trkpt>
      <trkpt lat="43.64007" lon="6.99263">
        <ele>216</ele>
        <time>2024-04-07T11:47:02Z</time>
      </trkpt>
      <trkpt lat="43.6401" lon="6.99298">
        <ele>218</ele>
        <time>2024-04-07T11:47:07Z</time>
      </trkpt>
      <trkpt lat="43.64039" lon="6.99518">
        <ele>218</ele>
        <time>2024-04-07T11:47:36Z</time>
      </trkpt>
      <trkpt lat="43.64047" lon="6.99547">
        <ele>217</ele>
        <time>2024-04-07T11:47:40Z</time>
      </trkpt>
      <trkpt lat="43.64087" lon="6.9966">
        <ele>215</ele>
        <time>2024-04-07T11:47:56Z</time>
      </trkpt>
      <trkpt lat="43.64091" lon="6.99677">
        <ele>216</ele>
        <time>2024-04-07T11:47:58Z</time>
      </trkpt>
      <trkpt lat="43.64098" lon="6.99716">
        <ele>215</ele>
        <time>2024-04-07T11:48:03Z</time>
      </trkpt>
      <trkpt lat="43.64103" lon="6.9973">
        <ele>215</ele>
        <time>2024-04-07T11:48:05Z</time>
      </trkpt>
      <trkpt lat="43.64109" lon="6.99741">
        <ele>215</ele>
        <time>2024-04-07T11:48:07Z</time>
      </trkpt>
      <trkpt lat="43.64126" lon="6.99762">
        <ele>215</ele>
        <time>2024-04-07T11:48:11Z</time>
      </trkpt>
      <trkpt lat="43.64136" lon="6.99771">
        <ele>215</ele>
        <time>2024-04-07T11:48:13Z</time>
      </trkpt>
      <trkpt lat="43.64148" lon="6.9979">
        <ele>214</ele>
        <time>2024-04-07T11:48:17Z</time>
      </trkpt>
      <trkpt lat="43.64185" lon="6.99882">
        <ele>209</ele>
        <time>2024-04-07T11:48:30Z</time>
      </trkpt>
      <trkpt lat="43.6419" lon="6.99899">
        <ele>209</ele>
        <time>2024-04-07T11:48:32Z</time>
      </trkpt>
      <trkpt lat="43.64224" lon="7.00015">
        <ele>207</ele>
        <time>2024-04-07T11:48:49Z</time>
      </trkpt>
      <trkpt lat="43.6423" lon="7.00034">
        <ele>207</ele>
        <time>2024-04-07T11:48:51Z</time>
      </trkpt>
      <trkpt lat="43.64239" lon="7.00066">
        <ele>208</ele>
        <time>2024-04-07T11:48:56Z</time>
      </trkpt>
      <trkpt lat="43.64243" lon="7.00096">
        <ele>209</ele>
        <time>2024-04-07T11:49:00Z</time>
      </trkpt>
      <trkpt lat="43.64243" lon="7.00112">
        <ele>209</ele>
        <time>2024-04-07T11:49:02Z</time>
      </trkpt>
      <trkpt lat="43.6423" lon="7.00159">
        <ele>208</ele>
        <time>2024-04-07T11:49:08Z</time>
      </trkpt>
      <trkpt lat="43.64225" lon="7.00185">
        <ele>207</ele>
        <time>2024-04-07T11:49:12Z</time>
      </trkpt>
      <trkpt lat="43.64226" lon="7.00207">
        <ele>207</ele>
        <time>2024-04-07T11:49:14Z</time>
      </trkpt>
      <trkpt lat="43.64238" lon="7.00282">
        <ele>207</ele>
        <time>2024-04-07T11:49:24Z</time>
      </trkpt>
      <trkpt lat="43.64247" lon="7.00388">
        <ele>202</ele>
        <time>2024-04-07T11:49:38Z</time>
      </trkpt>
      <trkpt lat="43.64248" lon="7.00405">
        <ele>201</ele>
        <time>2024-04-07T11:49:40Z</time>
      </trkpt>
      <trkpt lat="43.64248" lon="7.00555">
        <ele>204</ele>
        <time>2024-04-07T11:50:00Z</time>
      </trkpt>
      <trkpt lat="43.64236" lon="7.00662">
        <ele>206</ele>
        <time>2024-04-07T11:50:13Z</time>
      </trkpt>
      <trkpt lat="43.64237" lon="7.00675">
        <ele>206</ele>
        <time>2024-04-07T11:50:15Z</time>
      </trkpt>
      <trkpt lat="43.64247" lon="7.00734">
        <ele>208</ele>
        <time>2024-04-07T11:50:23Z</time>
      </trkpt>
      <trkpt lat="43.6425" lon="7.0077">
        <ele>209</ele>
        <time>2024-04-07T11:50:28Z</time>
      </trkpt>
      <trkpt lat="43.64251" lon="7.00811">
        <ele>212</ele>
        <time>2024-04-07T11:50:33Z</time>
      </trkpt>
      <trkpt lat="43.64239" lon="7.00902">
        <ele>215</ele>
        <time>2024-04-07T11:50:45Z</time>
      </trkpt>
      <trkpt lat="43.64241" lon="7.00915">
        <ele>215</ele>
        <time>2024-04-07T11:50:47Z</time>
      </trkpt>
      <trkpt lat="43.64239" lon="7.00985">
        <ele>215</ele>
        <time>2024-04-07T11:50:56Z</time>
      </trkpt>
      <trkpt lat="43.64243" lon="7.01">
        <ele>215</ele>
        <time>2024-04-07T11:50:58Z</time>
      </trkpt>
      <trkpt lat="43.64255" lon="7.01025">
        <ele>218</ele>
        <time>2024-04-07T11:51:01Z</time>
      </trkpt>
      <trkpt lat="43.64257" lon="7.01035">
        <ele>219</ele>
        <time>2024-04-07T11:51:03Z</time>
      </trkpt>
      <trkpt lat="43.64263" lon="7.01043">
        <ele>221</ele>
        <time>2024-04-07T11:51:04Z</time>
      </trkpt>
      <trkpt lat="43.6428" lon="7.01087">
        <ele>225</ele>
        <time>2024-04-07T11:51:11Z</time>
      </trkpt>
      <trkpt lat="43.64298" lon="7.01154">
        <ele>230</ele>
        <time>2024-04-07T11:51:20Z</time>
      </trkpt>
      <trkpt lat="43.64302" lon="7.01162">
        <ele>230</ele>
        <time>2024-04-07T11:51:21Z</time>
      </trkpt>
      <trkpt lat="43.64298" lon="7.01165">
        <ele>230</ele>
        <time>2024-04-07T11:51:22Z</time>
      </trkpt>
      <trkpt lat="43.64313" lon="7.0119">
        <ele>231</ele>
        <time>2024-04-07T11:51:26Z</time>
      </trkpt>
      <trkpt lat="43.64359" lon="7.01342">
        <ele>228</ele>
        <time>2024-04-07T11:51:47Z</time>
      </trkpt>
      <trkpt lat="43.64369" lon="7.01382">
        <ele>225</ele>
        <time>2024-04-07T11:51:53Z</time>
      </trkpt>
      <trkpt lat="43.64412" lon="7.01606">
        <ele>216</ele>
        <time>2024-04-07T11:52:23Z</time>
      </trkpt>
      <trkpt lat="43.64415" lon="7.01639">
        <ele>215</ele>
        <time>2024-04-07T11:52:27Z</time>
      </trkpt>
      <trkpt lat="43.64411" lon="7.01699">
        <ele>215</ele>
        <time>2024-04-07T11:52:35Z</time>
      </trkpt>
      <trkpt lat="43.64412" lon="7.01758">
        <ele>215</ele>
        <time>2024-04-07T11:52:42Z</time>
      </trkpt>
      <trkpt lat="43.64418" lon="7.01834">
        <ele>217</ele>
        <time>2024-04-07T11:52:52Z</time>
      </trkpt>
      <trkpt lat="43.64424" lon="7.01948">
        <ele>219</ele>
        <time>2024-04-07T11:53:07Z</time>
      </trkpt>
      <trkpt lat="43.64421" lon="7.01991">
        <ele>218</ele>
        <time>2024-04-07T11:53:12Z</time>
      </trkpt>
      <trkpt lat="43.64417" lon="7.02003">
        <ele>218</ele>
        <time>2024-04-07T11:53:14Z</time>
      </trkpt>
      <trkpt lat="43.64413" lon="7.02006">
        <ele>218</ele>
        <time>2024-04-07T11:53:15Z</time>
      </trkpt>
      <trkpt lat="43.64408" lon="7.02021">
        <ele>218</ele>
        <time>2024-04-07T11:53:17Z</time>
      </trkpt>
      <trkpt lat="43.64408" lon="7.02031">
        <ele>218</ele>
        <time>2024-04-07T11:53:18Z</time>
      </trkpt>
      <trkpt lat="43.64411" lon="7.02042">
        <ele>217</ele>
        <time>2024-04-07T11:53:20Z</time>
      </trkpt>
      <trkpt lat="43.64418" lon="7.0205">
        <ele>217</ele>
        <time>2024-04-07T11:53:21Z</time>
      </trkpt>
      <trkpt lat="43.64428" lon="7.02048">
        <ele>216</ele>
        <time>2024-04-07T11:53:23Z</time>
      </trkpt>
      <trkpt lat="43.64444" lon="7.02057">
        <ele>215</ele>
        <time>2024-04-07T11:53:26Z</time>
      </trkpt>
      <trkpt lat="43.64458" lon="7.02072">
        <ele>214</ele>
        <time>2024-04-07T11:53:29Z</time>
      </trkpt>
      <trkpt lat="43.64531" lon="7.021">
        <ele>209</ele>
        <time>2024-04-07T11:53:43Z</time>
      </trkpt>
      <trkpt lat="43.64588" lon="7.02147">
        <ele>205</ele>
        <time>2024-04-07T11:53:55Z</time>
      </trkpt>
      <trkpt lat="43.64677" lon="7.02193">
        <ele>201</ele>
        <time>2024-04-07T11:54:12Z</time>
      </trkpt>
      <trkpt lat="43.64772" lon="7.02247">
        <ele>197</ele>
        <time>2024-04-07T11:54:30Z</time>
      </trkpt>
      <trkpt lat="43.64838" lon="7.02303">
        <ele>198</ele>
        <time>2024-04-07T11:54:44Z</time>
      </trkpt>
      <trkpt lat="43.64868" lon="7.02323">
        <ele>197</ele>
        <time>2024-04-07T11:54:50Z</time>
      </trkpt>
      <trkpt lat="43.64896" lon="7.02339">
        <ele>196</ele>
        <time>2024-04-07T11:54:55Z</time>
      </trkpt>
      <trkpt lat="43.64929" lon="7.02353">
        <ele>196</ele>
        <time>2024-04-07T11:55:01Z</time>
      </trkpt>
      <trkpt lat="43.6496" lon="7.02379">
        <ele>196</ele>
        <time>2024-04-07T11:55:08Z</time>
      </trkpt>
      <trkpt lat="43.64976" lon="7.02397">
        <ele>196</ele>
        <time>2024-04-07T11:55:11Z</time>
      </trkpt>
      <trkpt lat="43.64987" lon="7.02414">
        <ele>196</ele>
        <time>2024-04-07T11:55:14Z</time>
      </trkpt>
      <trkpt lat="43.65022" lon="7.02487">
        <ele>194</ele>
        <time>2024-04-07T11:55:26Z</time>
      </trkpt>
      <trkpt lat="43.65058" lon="7.02537">
        <ele>189</ele>
        <time>2024-04-07T11:55:35Z</time>
      </trkpt>
      <trkpt lat="43.65064" lon="7.02551">
        <ele>188</ele>
        <time>2024-04-07T11:55:37Z</time>
      </trkpt>
      <trkpt lat="43.65069" lon="7.02569">
        <ele>187</ele>
        <time>2024-04-07T11:55:39Z</time>
      </trkpt>
      <trkpt lat="43.65073" lon="7.02592">
        <ele>186</ele>
        <time>2024-04-07T11:55:42Z</time>
      </trkpt>
      <trkpt lat="43.65082" lon="7.02668">
        <ele>184</ele>
        <time>2024-04-07T11:55:52Z</time>
      </trkpt>
      <trkpt lat="43.65088" lon="7.02688">
        <ele>184</ele>
        <time>2024-04-07T11:55:55Z</time>
      </trkpt>
      <trkpt lat="43.65095" lon="7.02699">
        <ele>184</ele>
        <time>2024-04-07T11:55:57Z</time>
      </trkpt>
      <trkpt lat="43.65098" lon="7.02703">
        <ele>184</ele>
        <time>2024-04-07T11:55:58Z</time>
      </trkpt>
      <trkpt lat="43.65109" lon="7.02709">
        <ele>184</ele>
        <time>2024-04-07T11:56:00Z</time>
      </trkpt>
      <trkpt lat="43.65164" lon="7.02729">
        <ele>184</ele>
        <time>2024-04-07T11:56:10Z</time>
      </trkpt>
      <trkpt lat="43.6518" lon="7.02739">
        <ele>186</ele>
        <time>2024-04-07T11:56:13Z</time>
      </trkpt>
      <trkpt lat="43.65194" lon="7.02753">
        <ele>187</ele>
        <time>2024-04-07T11:56:16Z</time>
      </trkpt>
      <trkpt lat="43.65206" lon="7.02773">
        <ele>187</ele>
        <time>2024-04-07T11:56:19Z</time>
      </trkpt>
      <trkpt lat="43.65239" lon="7.02843">
        <ele>189</ele>
        <time>2024-04-07T11:56:30Z</time>
      </trkpt>
      <trkpt lat="43.65252" lon="7.02856">
        <ele>189</ele>
        <time>2024-04-07T11:56:33Z</time>
      </trkpt>
      <trkpt lat="43.65264" lon="7.02861">
        <ele>189</ele>
        <time>2024-04-07T11:56:35Z</time>
      </trkpt>
      <trkpt lat="43.65277" lon="7.02861">
        <ele>189</ele>
        <time>2024-04-07T11:56:38Z</time>
      </trkpt>
      <trkpt lat="43.65289" lon="7.02857">
        <ele>189</ele>
        <time>2024-04-07T11:56:40Z</time>
      </trkpt>
      <trkpt lat="43.65329" lon="7.02836">
        <ele>190</ele>
        <time>2024-04-07T11:56:47Z</time>
      </trkpt>
      <trkpt lat="43.65374" lon="7.02808">
        <ele>192</ele>
        <time>2024-04-07T11:56:56Z</time>
      </trkpt>
      <trkpt lat="43.6539" lon="7.02797">
        <ele>193</ele>
        <time>2024-04-07T11:56:59Z</time>
      </trkpt>
      <trkpt lat="43.65403" lon="7.02778">
        <ele>193</ele>
        <time>2024-04-07T11:57:03Z</time>
      </trkpt>
      <trkpt lat="43.65484" lon="7.02605">
        <ele>192</ele>
        <time>2024-04-07T11:57:29Z</time>
      </trkpt>
      <trkpt lat="43.65495" lon="7.02586">
        <ele>191</ele>
        <time>2024-04-07T11:57:32Z</time>
      </trkpt>
      <trkpt lat="43.65507" lon="7.02578">
        <ele>192</ele>
        <time>2024-04-07T11:57:35Z</time>
      </trkpt>
      <trkpt lat="43.65518" lon="7.02579">
        <ele>193</ele>
        <time>2024-04-07T11:57:37Z</time>
      </trkpt>
      <trkpt lat="43.6553" lon="7.02585">
        <ele>193</ele>
        <time>2024-04-07T11:57:39Z</time>
      </trkpt>
      <trkpt lat="43.65566" lon="7.02614">
        <ele>194</ele>
        <time>2024-04-07T11:57:46Z</time>
      </trkpt>
      <trkpt lat="43.65608" lon="7.02635">
        <ele>195</ele>
        <time>2024-04-07T11:57:54Z</time>
      </trkpt>
      <trkpt lat="43.65693" lon="7.02672">
        <ele>198</ele>
        <time>2024-04-07T11:58:10Z</time>
      </trkpt>
      <trkpt lat="43.65733" lon="7.02698">
        <ele>198</ele>
        <time>2024-04-07T11:58:18Z</time>
      </trkpt>
      <trkpt lat="43.65764" lon="7.02728">
        <ele>198</ele>
        <time>2024-04-07T11:58:25Z</time>
      </trkpt>
      <trkpt lat="43.65825" lon="7.02811">
        <ele>201</ele>
        <time>2024-04-07T11:58:40Z</time>
      </trkpt>
      <trkpt lat="43.65959" lon="7.03006">
        <ele>204</ele>
        <time>2024-04-07T11:59:15Z</time>
      </trkpt>
      <trkpt lat="43.65971" lon="7.03021">
        <ele>203</ele>
        <time>2024-04-07T11:59:17Z</time>
      </trkpt>
      <trkpt lat="43.66026" lon="7.03064">
        <ele>198</ele>
        <time>2024-04-07T11:59:29Z</time>
      </trkpt>
      <trkpt lat="43.66042" lon="7.03087">
        <ele>197</ele>
        <time>2024-04-07T11:59:33Z</time>
      </trkpt>
      <trkpt lat="43.66053" lon="7.03106">
        <ele>196</ele>
        <time>2024-04-07T11:59:36Z</time>
      </trkpt>
      <trkpt lat="43.6606" lon="7.03122">
        <ele>196</ele>
        <time>2024-04-07T11:59:38Z</time>
      </trkpt>
      <trkpt lat="43.66066" lon="7.03141">
        <ele>195</ele>
        <time>2024-04-07T11:59:41Z</time>
      </trkpt>
      <trkpt lat="43.66079" lon="7.0321">
        <ele>192</ele>
        <time>2024-04-07T11:59:50Z</time>
      </trkpt>
      <trkpt lat="43.66109" lon="7.03342">
        <ele>189</ele>
        <time>2024-04-07T12:00:08Z</time>
      </trkpt>
      <trkpt lat="43.66133" lon="7.03444">
        <ele>184</ele>
        <time>2024-04-07T12:00:22Z</time>
      </trkpt>
      <trkpt lat="43.6614" lon="7.03483">
        <ele>184</ele>
        <time>2024-04-07T12:00:27Z</time>
      </trkpt>
      <trkpt lat="43.66165" lon="7.03639">
        <ele>182</ele>
        <time>2024-04-07T12:00:48Z</time>
      </trkpt>
      <trkpt lat="43.66175" lon="7.03675">
        <ele>183</ele>
        <time>2024-04-07T12:00:52Z</time>
      </trkpt>
      <trkpt lat="43.66183" lon="7.03695">
        <ele>184</ele>
        <time>2024-04-07T12:00:55Z</time>
      </trkpt>
      <trkpt lat="43.6619" lon="7.03724">
        <ele>184</ele>
        <time>2024-04-07T12:00:59Z</time>
      </trkpt>
      <trkpt lat="43.66191" lon="7.03738">
        <ele>184</ele>
        <time>2024-04-07T12:01:01Z</time>
      </trkpt>
      <trkpt lat="43.6619" lon="7.03744">
        <ele>184</ele>
        <time>2024-04-07T12:01:02Z</time>
      </trkpt>
      <trkpt lat="43.66192" lon="7.03754">
        <ele>184</ele>
        <time>2024-04-07T12:01:03Z</time>
      </trkpt>
      <trkpt lat="43.66195" lon="7.03759">
        <ele>185</ele>
        <time>2024-04-07T12:01:04Z</time>
      </trkpt>
      <trkpt lat="43.66202" lon="7.03762">
        <ele>185</ele>
        <time>2024-04-07T12:01:05Z</time>
      </trkpt>
      <trkpt lat="43.6622" lon="7.03792">
        <ele>185</ele>
        <time>2024-04-07T12:01:10Z</time>
      </trkpt>
      <trkpt lat="43.66235" lon="7.03812">
        <ele>185</ele>
        <time>2024-04-07T12:01:14Z</time>
      </trkpt>
      <trkpt lat="43.6629" lon="7.03859">
        <ele>181</ele>
        <time>2024-04-07T12:01:26Z</time>
      </trkpt>
      <trkpt lat="43.66301" lon="7.03877">
        <ele>180</ele>
        <time>2024-04-07T12:01:29Z</time>
      </trkpt>
      <trkpt lat="43.6631" lon="7.03896">
        <ele>179</ele>
        <time>2024-04-07T12:01:32Z</time>
      </trkpt>
      <trkpt lat="43.66313" lon="7.03901">
        <ele>179</ele>
        <time>2024-04-07T12:01:32Z</time>
      </trkpt>
      <trkpt lat="43.6632" lon="7.03907">
        <ele>179</ele>
        <time>2024-04-07T12:01:34Z</time>
      </trkpt>
      <trkpt lat="43.66328" lon="7.03918">
        <ele>180</ele>
        <time>2024-04-07T12:01:36Z</time>
      </trkpt>
      <trkpt lat="43.66334" lon="7.03934">
        <ele>180</ele>
        <time>2024-04-07T12:01:38Z</time>
      </trkpt>
      <trkpt lat="43.6639" lon="7.04048">
        <ele>180</ele>
        <time>2024-04-07T12:01:56Z</time>
      </trkpt>
      <trkpt lat="43.66444" lon="7.04169">
        <ele>181</ele>
        <time>2024-04-07T12:02:14Z</time>
      </trkpt>
      <trkpt lat="43.6645" lon="7.04186">
        <ele>182</ele>
        <time>2024-04-07T12:02:17Z</time>
      </trkpt>
      <trkpt lat="43.6645" lon="7.04187">
        <ele>182</ele>
        <time>2024-04-07T12:02:17Z</time>
      </trkpt>
      <trkpt lat="43.66483" lon="7.04296">
        <ele>187</ele>
        <time>2024-04-07T12:02:32Z</time>
      </trkpt>
      <trkpt lat="43.66502" lon="7.04363">
        <ele>188</ele>
        <time>2024-04-07T12:02:41Z</time>
      </trkpt>
      <trkpt lat="43.66505" lon="7.04378">
        <ele>189</ele>
        <time>2024-04-07T12:02:43Z</time>
      </trkpt>
      <trkpt lat="43.66509" lon="7.04413">
        <ele>189</ele>
        <time>2024-04-07T12:02:48Z</time>
      </trkpt>
      <trkpt lat="43.66506" lon="7.04455">
        <ele>190</ele>
        <time>2024-04-07T12:02:53Z</time>
      </trkpt>
      <trkpt lat="43.66494" lon="7.04508">
        <ele>190</ele>
        <time>2024-04-07T12:03:00Z</time>
      </trkpt>
      <trkpt lat="43.66484" lon="7.04523">
        <ele>190</ele>
        <time>2024-04-07T12:03:03Z</time>
      </trkpt>
      <trkpt lat="43.66476" lon="7.04528">
        <ele>190</ele>
        <time>2024-04-07T12:03:05Z</time>
      </trkpt>
      <trkpt lat="43.66471" lon="7.0453">
        <ele>190</ele>
        <time>2024-04-07T12:03:06Z</time>
      </trkpt>
      <trkpt lat="43.66467" lon="7.04534">
        <ele>190</ele>
        <time>2024-04-07T12:03:06Z</time>
      </trkpt>
      <trkpt lat="43.66464" lon="7.04541">
        <ele>190</ele>
        <time>2024-04-07T12:03:08Z</time>
      </trkpt>
      <trkpt lat="43.66465" lon="7.0455">
        <ele>189</ele>
        <time>2024-04-07T12:03:09Z</time>
      </trkpt>
      <trkpt lat="43.66468" lon="7.04558">
        <ele>189</ele>
        <time>2024-04-07T12:03:10Z</time>
      </trkpt>
      <trkpt lat="43.66474" lon="7.04562">
        <ele>189</ele>
        <time>2024-04-07T12:03:11Z</time>
      </trkpt>
      <trkpt lat="43.6648" lon="7.04571">
        <ele>189</ele>
        <time>2024-04-07T12:03:13Z</time>
      </trkpt>
      <trkpt lat="43.66485" lon="7.04586">
        <ele>188</ele>
        <time>2024-04-07T12:03:15Z</time>
      </trkpt>
      <trkpt lat="43.665" lon="7.04652">
        <ele>187</ele>
        <time>2024-04-07T12:03:24Z</time>
      </trkpt>
      <trkpt lat="43.66508" lon="7.04682">
        <ele>187</ele>
        <time>2024-04-07T12:03:28Z</time>
      </trkpt>
      <trkpt lat="43.66529" lon="7.04743">
        <ele>187</ele>
        <time>2024-04-07T12:03:36Z</time>
      </trkpt>
      <trkpt lat="43.66542" lon="7.04798">
        <ele>187</ele>
        <time>2024-04-07T12:03:44Z</time>
      </trkpt>
      <trkpt lat="43.66539" lon="7.04801">
        <ele>187</ele>
        <time>2024-04-07T12:03:45Z</time>
      </trkpt>
      <trkpt lat="43.66539" lon="7.04806">
        <ele>187</ele>
        <time>2024-04-07T12:03:45Z</time>
      </trkpt>
      <trkpt lat="43.66542" lon="7.04811">
        <ele>187</ele>
        <time>2024-04-07T12:03:46Z</time>
      </trkpt>
      <trkpt lat="43.66545" lon="7.04812">
        <ele>187</ele>
        <time>2024-04-07T12:03:47Z</time>
      </trkpt>
      <trkpt lat="43.66551" lon="7.04844">
        <ele>186</ele>
        <time>2024-04-07T12:03:51Z</time>
      </trkpt>
      <trkpt lat="43.66554" lon="7.04889">
        <ele>188</ele>
        <time>2024-04-07T12:03:57Z</time>
      </trkpt>
      <trkpt lat="43.66558" lon="7.04987">
        <ele>188</ele>
        <time>2024-04-07T12:04:09Z</time>
      </trkpt>
      <trkpt lat="43.66557" lon="7.0503">
        <ele>187</ele>
        <time>2024-04-07T12:04:15Z</time>
      </trkpt>
      <trkpt lat="43.66553" lon="7.05059">
        <ele>187</ele>
        <time>2024-04-07T12:04:19Z</time>
      </trkpt>
      <trkpt lat="43.6654" lon="7.05114">
        <ele>186</ele>
        <time>2024-04-07T12:04:26Z</time>
      </trkpt>
      <trkpt lat="43.66511" lon="7.05211">
        <ele>186</ele>
        <time>2024-04-07T12:04:40Z</time>
      </trkpt>
      <trkpt lat="43.66506" lon="7.05214">
        <ele>186</ele>
        <time>2024-04-07T12:04:41Z</time>
      </trkpt>
      <trkpt lat="43.66489" lon="7.05242">
        <ele>185</ele>
        <time>2024-04-07T12:04:45Z</time>
      </trkpt>
      <trkpt lat="43.66448" lon="7.05313">
        <ele>187</ele>
        <time>2024-04-07T12:04:57Z</time>
      </trkpt>
      <trkpt lat="43.66438" lon="7.05322">
        <ele>187</ele>
        <time>2024-04-07T12:04:59Z</time>
      </trkpt>
      <trkpt lat="43.66415" lon="7.05354">
        <ele>188</ele>
        <time>2024-04-07T12:05:05Z</time>
      </trkpt>
      <trkpt lat="43.66405" lon="7.0538">
        <ele>189</ele>
        <time>2024-04-07T12:05:09Z</time>
      </trkpt>
      <trkpt lat="43.66389" lon="7.05414">
        <ele>190</ele>
        <time>2024-04-07T12:05:14Z</time>
      </trkpt>
      <trkpt lat="43.66364" lon="7.05447">
        <ele>191</ele>
        <time>2024-04-07T12:05:20Z</time>
      </trkpt>
      <trkpt lat="43.66353" lon="7.05468">
        <ele>192</ele>
        <time>2024-04-07T12:05:23Z</time>
      </trkpt>
      <trkpt lat="43.66361" lon="7.05479">
        <ele>193</ele>
        <time>2024-04-07T12:05:25Z</time>
      </trkpt>
      <trkpt lat="43.66223" lon="7.05713">
        <ele>202</ele>
        <time>2024-04-07T12:06:04Z</time>
      </trkpt>
      <trkpt lat="43.66208" lon="7.05745">
        <ele>203</ele>
        <time>2024-04-07T12:06:09Z</time>
      </trkpt>
      <trkpt lat="43.66188" lon="7.05798">
        <ele>203</ele>
        <time>2024-04-07T12:06:17Z</time>
      </trkpt>
      <trkpt lat="43.66152" lon="7.05916">
        <ele>203</ele>
        <time>2024-04-07T12:06:33Z</time>
      </trkpt>
      <trkpt lat="43.66139" lon="7.05952">
        <ele>206</ele>
        <time>2024-04-07T12:06:39Z</time>
      </trkpt>
      <trkpt lat="43.66127" lon="7.05992">
        <ele>209</ele>
        <time>2024-04-07T12:06:44Z</time>
      </trkpt>
      <trkpt lat="43.66119" lon="7.06003">
        <ele>209</ele>
        <time>2024-04-07T12:06:46Z</time>
      </trkpt>
      <trkpt lat="43.66114" lon="7.06006">
        <ele>209</ele>
        <time>2024-04-07T12:06:47Z</time>
      </trkpt>
      <trkpt lat="43.66113" lon="7.06014">
        <ele>209</ele>
        <time>2024-04-07T12:06:48Z</time>
      </trkpt>
      <trkpt lat="43.66115" lon="7.06019">
        <ele>210</ele>
        <time>2024-04-07T12:06:49Z</time>
      </trkpt>
      <trkpt lat="43.66115" lon="7.06029">
        <ele>210</ele>
        <time>2024-04-07T12:06:50Z</time>
      </trkpt>
      <trkpt lat="43.66113" lon="7.06056">
        <ele>211</ele>
        <time>2024-04-07T12:06:54Z</time>
      </trkpt>
      <trkpt lat="43.66114" lon="7.06091">
        <ele>212</ele>
        <time>2024-04-07T12:06:58Z</time>
      </trkpt>
      <trkpt lat="43.66122" lon="7.06121">
        <ele>212</ele>
        <time>2024-04-07T12:07:02Z</time>
      </trkpt>
      <trkpt lat="43.66129" lon="7.06137">
        <ele>212</ele>
        <time>2024-04-07T12:07:05Z</time>
      </trkpt>
      <trkpt lat="43.66209" lon="7.06268">
        <ele>213</ele>
        <time>2024-04-07T12:07:27Z</time>
      </trkpt>
      <trkpt lat="43.66269" lon="7.06326">
        <ele>212</ele>
        <time>2024-04-07T12:07:40Z</time>
      </trkpt>
      <trkpt lat="43.66287" lon="7.06338">
        <ele>210</ele>
        <time>2024-04-07T12:07:43Z</time>
      </trkpt>
      <trkpt lat="43.663" lon="7.06342">
        <ele>210</ele>
        <time>2024-04-07T12:07:46Z</time>
      </trkpt>
      <trkpt lat="43.66357" lon="7.06335">
        <ele>209</ele>
        <time>2024-04-07T12:07:56Z</time>
      </trkpt>
      <trkpt lat="43.66378" lon="7.06338">
        <ele>209</ele>
        <time>2024-04-07T12:08:00Z</time>
      </trkpt>
      <trkpt lat="43.66391" lon="7.06349">
        <ele>207</ele>
        <time>2024-04-07T12:08:02Z</time>
      </trkpt>
      <trkpt lat="43.66419" lon="7.0639">
        <ele>202</ele>
        <time>2024-04-07T12:08:10Z</time>
      </trkpt>
      <trkpt lat="43.66434" lon="7.06408">
        <ele>200</ele>
        <time>2024-04-07T12:08:13Z</time>
      </trkpt>
      <trkpt lat="43.66449" lon="7.06417">
        <ele>200</ele>
        <time>2024-04-07T12:08:16Z</time>
      </trkpt>
      <trkpt lat="43.66486" lon="7.06425">
        <ele>202</ele>
        <time>2024-04-07T12:08:23Z</time>
      </trkpt>
      <trkpt lat="43.66495" lon="7.06429">
        <ele>202</ele>
        <time>2024-04-07T12:08:24Z</time>
      </trkpt>
      <trkpt lat="43.66501" lon="7.06434">
        <ele>202</ele>
        <time>2024-04-07T12:08:26Z</time>
      </trkpt>
      <trkpt lat="43.6651" lon="7.06446">
        <ele>202</ele>
        <time>2024-04-07T12:08:28Z</time>
      </trkpt>
      <trkpt lat="43.66517" lon="7.06464">
        <ele>203</ele>
        <time>2024-04-07T12:08:30Z</time>
      </trkpt>
      <trkpt lat="43.6652" lon="7.06479">
        <ele>203</ele>
        <time>2024-04-07T12:08:32Z</time>
      </trkpt>
      <trkpt lat="43.6652" lon="7.0649">
        <ele>202</ele>
        <time>2024-04-07T12:08:34Z</time>
      </trkpt>
      <trkpt lat="43.66515" lon="7.06512">
        <ele>201</ele>
        <time>2024-04-07T12:08:37Z</time>
      </trkpt>
      <trkpt lat="43.66505" lon="7.06531">
        <ele>200</ele>
        <time>2024-04-07T12:08:40Z</time>
      </trkpt>
      <trkpt lat="43.66454" lon="7.06606">
        <ele>194</ele>
        <time>2024-04-07T12:08:53Z</time>
      </trkpt>
      <trkpt lat="43.66392" lon="7.06679">
        <ele>191</ele>
        <time>2024-04-07T12:09:08Z</time>
      </trkpt>
      <trkpt lat="43.66335" lon="7.06732">
        <ele>189</ele>
        <time>2024-04-07T12:09:20Z</time>
      </trkpt>
      <trkpt lat="43.66204" lon="7.06848">
        <ele>179</ele>
        <time>2024-04-07T12:09:48Z</time>
      </trkpt>
      <trkpt lat="43.66177" lon="7.06885">
        <ele>174</ele>
        <time>2024-04-07T12:09:54Z</time>
      </trkpt>
      <trkpt lat="43.66164" lon="7.06918">
        <ele>173</ele>
        <time>2024-04-07T12:09:59Z</time>
      </trkpt>
      <trkpt lat="43.66156" lon="7.06953">
        <ele>174</ele>
        <time>2024-04-07T12:10:04Z</time>
      </trkpt>
      <trkpt lat="43.66154" lon="7.06979">
        <ele>174</ele>
        <time>2024-04-07T12:10:07Z</time>
      </trkpt>
      <trkpt lat="43.66155" lon="7.07006">
        <ele>174</ele>
        <time>2024-04-07T12:10:11Z</time>
      </trkpt>
      <trkpt lat="43.66165" lon="7.07072">
        <ele>174</ele>
        <time>2024-04-07T12:10:19Z</time>
      </trkpt>
      <trkpt lat="43.66168" lon="7.0711">
        <ele>172</ele>
        <time>2024-04-07T12:10:24Z</time>
      </trkpt>
      <trkpt lat="43.66167" lon="7.07158">
        <ele>168</ele>
        <time>2024-04-07T12:10:30Z</time>
      </trkpt>
      <trkpt lat="43.6617" lon="7.07178">
        <ele>166</ele>
        <time>2024-04-07T12:10:33Z</time>
      </trkpt>
      <trkpt lat="43.66176" lon="7.07193">
        <ele>165</ele>
        <time>2024-04-07T12:10:35Z</time>
      </trkpt>
      <trkpt lat="43.66185" lon="7.07206">
        <ele>164</ele>
        <time>2024-04-07T12:10:38Z</time>
      </trkpt>
      <trkpt lat="43.66194" lon="7.07213">
        <ele>164</ele>
        <time>2024-04-07T12:10:39Z</time>
      </trkpt>
      <trkpt lat="43.66208" lon="7.07218">
        <ele>164</ele>
        <time>2024-04-07T12:10:42Z</time>
      </trkpt>
      <trkpt lat="43.6624" lon="7.07219">
        <ele>166</ele>
        <time>2024-04-07T12:10:48Z</time>
      </trkpt>
      <trkpt lat="43.66263" lon="7.07216">
        <ele>167</ele>
        <time>2024-04-07T12:10:52Z</time>
      </trkpt>
      <trkpt lat="43.66318" lon="7.07204">
        <ele>166</ele>
        <time>2024-04-07T12:11:02Z</time>
      </trkpt>
      <trkpt lat="43.66333" lon="7.07208">
        <ele>165</ele>
        <time>2024-04-07T12:11:04Z</time>
      </trkpt>
      <trkpt lat="43.66343" lon="7.07213">
        <ele>165</ele>
        <time>2024-04-07T12:11:06Z</time>
      </trkpt>
      <trkpt lat="43.66357" lon="7.07232">
        <ele>163</ele>
        <time>2024-04-07T12:11:10Z</time>
      </trkpt>
      <trkpt lat="43.66361" lon="7.0724">
        <ele>163</ele>
        <time>2024-04-07T12:11:11Z</time>
      </trkpt>
      <trkpt lat="43.66366" lon="7.07262">
        <ele>162</ele>
        <time>2024-04-07T12:11:14Z</time>
      </trkpt>
      <trkpt lat="43.66365" lon="7.07283">
        <ele>163</ele>
        <time>2024-04-07T12:11:17Z</time>
      </trkpt>
      <trkpt lat="43.6636" lon="7.07304">
        <ele>162</ele>
        <time>2024-04-07T12:11:20Z</time>
      </trkpt>
      <trkpt lat="43.66351" lon="7.07319">
        <ele>162</ele>
        <time>2024-04-07T12:11:22Z</time>
      </trkpt>
      <trkpt lat="43.66336" lon="7.07332">
        <ele>160</ele>
        <time>2024-04-07T12:11:25Z</time>
      </trkpt>
      <trkpt lat="43.66311" lon="7.07337">
        <ele>161</ele>
        <time>2024-04-07T12:11:30Z</time>
      </trkpt>
      <trkpt lat="43.66272" lon="7.07337">
        <ele>160</ele>
        <time>2024-04-07T12:11:37Z</time>
      </trkpt>
      <trkpt lat="43.66208" lon="7.07343">
        <ele>159</ele>
        <time>2024-04-07T12:11:48Z</time>
      </trkpt>
      <trkpt lat="43.66164" lon="7.0735">
        <ele>158</ele>
        <time>2024-04-07T12:11:56Z</time>
      </trkpt>
      <trkpt lat="43.66131" lon="7.07358">
        <ele>155</ele>
        <time>2024-04-07T12:12:02Z</time>
      </trkpt>
      <trkpt lat="43.66051" lon="7.07388">
        <ele>153</ele>
        <time>2024-04-07T12:12:17Z</time>
      </trkpt>
      <trkpt lat="43.66006" lon="7.07399">
        <ele>150</ele>
        <time>2024-04-07T12:12:25Z</time>
      </trkpt>
      <trkpt lat="43.65951" lon="7.07404">
        <ele>148</ele>
        <time>2024-04-07T12:12:35Z</time>
      </trkpt>
      <trkpt lat="43.65889" lon="7.07403">
        <ele>145</ele>
        <time>2024-04-07T12:12:46Z</time>
      </trkpt>
      <trkpt lat="43.65865" lon="7.07406">
        <ele>144</ele>
        <time>2024-04-07T12:12:50Z</time>
      </trkpt>
      <trkpt lat="43.65626" lon="7.07467">
        <ele>135</ele>
        <time>2024-04-07T12:13:33Z</time>
      </trkpt>
      <trkpt lat="43.6559" lon="7.07479">
        <ele>132</ele>
        <time>2024-04-07T12:13:40Z</time>
      </trkpt>
      <trkpt lat="43.65414" lon="7.07556">
        <ele>126</ele>
        <time>2024-04-07T12:14:13Z</time>
      </trkpt>
      <trkpt lat="43.65399" lon="7.07566">
        <ele>125</ele>
        <time>2024-04-07T12:14:16Z</time>
      </trkpt>
      <trkpt lat="43.65371" lon="7.07593">
        <ele>122</ele>
        <time>2024-04-07T12:14:22Z</time>
      </trkpt>
      <trkpt lat="43.6535" lon="7.0762">
        <ele>119</ele>
        <time>2024-04-07T12:14:27Z</time>
      </trkpt>
      <trkpt lat="43.65341" lon="7.07635">
        <ele>118</ele>
        <time>2024-04-07T12:14:29Z</time>
      </trkpt>
      <trkpt lat="43.65324" lon="7.07671">
        <ele>117</ele>
        <time>2024-04-07T12:14:35Z</time>
      </trkpt>
      <trkpt lat="43.65292" lon="7.07757">
        <ele>113</ele>
        <time>2024-04-07T12:14:47Z</time>
      </trkpt>
      <trkpt lat="43.65266" lon="7.07834">
        <ele>107</ele>
        <time>2024-04-07T12:14:58Z</time>
      </trkpt>
      <trkpt lat="43.65252" lon="7.07878">
        <ele>104</ele>
        <time>2024-04-07T12:15:04Z</time>
      </trkpt>
      <trkpt lat="43.65247" lon="7.07897">
        <ele>104</ele>
        <time>2024-04-07T12:15:07Z</time>
      </trkpt>
      <trkpt lat="43.65241" lon="7.07931">
        <ele>103</ele>
        <time>2024-04-07T12:15:12Z</time>
      </trkpt>
      <trkpt lat="43.65238" lon="7.07957">
        <ele>102</ele>
        <time>2024-04-07T12:15:15Z</time>
      </trkpt>
      <trkpt lat="43.65238" lon="7.07982">
        <ele>101</ele>
        <time>2024-04-07T12:15:18Z</time>
      </trkpt>
      <trkpt lat="43.6524" lon="7.08007">
        <ele>100</ele>
        <time>2024-04-07T12:15:21Z</time>
      </trkpt>
      <trkpt lat="43.65245" lon="7.08042">
        <ele>99</ele>
        <time>2024-04-07T12:15:26Z</time>
      </trkpt>
      <trkpt lat="43.65264" lon="7.08095">
        <ele>97</ele>
        <time>2024-04-07T12:15:34Z</time>
      </trkpt>
      <trkpt lat="43.65279" lon="7.08119">
        <ele>96</ele>
        <time>2024-04-07T12:15:38Z</time>
      </trkpt>
      <trkpt lat="43.65305" lon="7.08153">
        <ele>95</ele>
        <time>2024-04-07T12:15:44Z</time>
      </trkpt>
      <trkpt lat="43.65378" lon="7.08233">
        <ele>90</ele>
        <time>2024-04-07T12:16:01Z</time>
      </trkpt>
      <trkpt lat="43.65407" lon="7.08252">
        <ele>89</ele>
        <time>2024-04-07T12:16:06Z</time>
      </trkpt>
      <trkpt lat="43.65465" lon="7.08272">
        <ele>86</ele>
        <time>2024-04-07T12:16:17Z</time>
      </trkpt>
      <trkpt lat="43.65482" lon="7.08281">
        <ele>85</ele>
        <time>2024-04-07T12:16:20Z</time>
      </trkpt>
      <trkpt lat="43.65503" lon="7.083">
        <ele>83</ele>
        <time>2024-04-07T12:16:25Z</time>
      </trkpt>
      <trkpt lat="43.65548" lon="7.08355">
        <ele>82</ele>
        <time>2024-04-07T12:16:35Z</time>
      </trkpt>
      <trkpt lat="43.6556" lon="7.08367">
        <ele>81</ele>
        <time>2024-04-07T12:16:38Z</time>
      </trkpt>
      <trkpt lat="43.65643" lon="7.08417">
        <ele>79</ele>
        <time>2024-04-07T12:16:54Z</time>
      </trkpt>
      <trkpt lat="43.65667" lon="7.08436">
        <ele>78</ele>
        <time>2024-04-07T12:16:59Z</time>
      </trkpt>
      <trkpt lat="43.65686" lon="7.0846">
        <ele>76</ele>
        <time>2024-04-07T12:17:04Z</time>
      </trkpt>
      <trkpt lat="43.65693" lon="7.08475">
        <ele>74</ele>
        <time>2024-04-07T12:17:06Z</time>
      </trkpt>
      <trkpt lat="43.65699" lon="7.08491">
        <ele>73</ele>
        <time>2024-04-07T12:17:08Z</time>
      </trkpt>
      <trkpt lat="43.65703" lon="7.08513">
        <ele>72</ele>
        <time>2024-04-07T12:17:11Z</time>
      </trkpt>
      <trkpt lat="43.65705" lon="7.08533">
        <ele>71</ele>
        <time>2024-04-07T12:17:14Z</time>
      </trkpt>
      <trkpt lat="43.65702" lon="7.08584">
        <ele>70</ele>
        <time>2024-04-07T12:17:20Z</time>
      </trkpt>
      <trkpt lat="43.65664" lon="7.08688">
        <ele>59</ele>
        <time>2024-04-07T12:17:35Z</time>
      </trkpt>
      <trkpt lat="43.65623" lon="7.0881">
        <ele>55</ele>
        <time>2024-04-07T12:17:53Z</time>
      </trkpt>
      <trkpt lat="43.65617" lon="7.08838">
        <ele>54</ele>
        <time>2024-04-07T12:17:56Z</time>
      </trkpt>
      <trkpt lat="43.65616" lon="7.08864">
        <ele>53</ele>
        <time>2024-04-07T12:18:00Z</time>
      </trkpt>
      <trkpt lat="43.65617" lon="7.08893">
        <ele>51</ele>
        <time>2024-04-07T12:18:04Z</time>
      </trkpt>
      <trkpt lat="43.65621" lon="7.08914">
        <ele>51</ele>
        <time>2024-04-07T12:18:06Z</time>
      </trkpt>
      <trkpt lat="43.65635" lon="7.08952">
        <ele>48</ele>
        <time>2024-04-07T12:18:12Z</time>
      </trkpt>
      <trkpt lat="43.65646" lon="7.08972">
        <ele>47</ele>
        <time>2024-04-07T12:18:15Z</time>
      </trkpt>
      <trkpt lat="43.6566" lon="7.08987">
        <ele>46</ele>
        <time>2024-04-07T12:18:18Z</time>
      </trkpt>
      <trkpt lat="43.65687" lon="7.09007">
        <ele>45</ele>
        <time>2024-04-07T12:18:24Z</time>
      </trkpt>
      <trkpt lat="43.65772" lon="7.09051">
        <ele>42</ele>
        <time>2024-04-07T12:18:40Z</time>
      </trkpt>
      <trkpt lat="43.65797" lon="7.09078">
        <ele>40</ele>
        <time>2024-04-07T12:18:45Z</time>
      </trkpt>
      <trkpt lat="43.65808" lon="7.09095">
        <ele>39</ele>
        <time>2024-04-07T12:18:48Z</time>
      </trkpt>
      <trkpt lat="43.65817" lon="7.09115">
        <ele>38</ele>
        <time>2024-04-07T12:18:51Z</time>
      </trkpt>
      <trkpt lat="43.65826" lon="7.09138">
        <ele>37</ele>
        <time>2024-04-07T12:18:55Z</time>
      </trkpt>
      <trkpt lat="43.65862" lon="7.09274">
        <ele>38</ele>
        <time>2024-04-07T12:19:13Z</time>
      </trkpt>
      <trkpt lat="43.66058" lon="7.1004">
        <ele>28</ele>
        <time>2024-04-07T12:20:58Z</time>
      </trkpt>
      <trkpt lat="43.66063" lon="7.10064">
        <ele>29</ele>
        <time>2024-04-07T12:21:01Z</time>
      </trkpt>
      <trkpt lat="43.66066" lon="7.1009">
        <ele>30</ele>
        <time>2024-04-07T12:21:05Z</time>
      </trkpt>
      <trkpt lat="43.66066" lon="7.10116">
        <ele>30</ele>
        <time>2024-04-07T12:21:08Z</time>
      </trkpt>
      <trkpt lat="43.66064" lon="7.10136">
        <ele>30</ele>
        <time>2024-04-07T12:21:11Z</time>
      </trkpt>
      <trkpt lat="43.66056" lon="7.10176">
        <ele>30</ele>
        <time>2024-04-07T12:21:16Z</time>
      </trkpt>
      <trkpt lat="43.66041" lon="7.1022">
        <ele>30</ele>
        <time>2024-04-07T12:21:22Z</time>
      </trkpt>
      <trkpt lat="43.66019" lon="7.10266">
        <ele>29</ele>
        <time>2024-04-07T12:21:29Z</time>
      </trkpt>
      <trkpt lat="43.65986" lon="7.10331">
        <ele>29</ele>
        <time>2024-04-07T12:21:39Z</time>
      </trkpt>
      <trkpt lat="43.65972" lon="7.10359">
        <ele>31</ele>
        <time>2024-04-07T12:21:44Z</time>
      </trkpt>
      <trkpt lat="43.65967" lon="7.10374">
        <ele>32</ele>
        <time>2024-04-07T12:21:46Z</time>
      </trkpt>
      <trkpt lat="43.65946" lon="7.10404">
        <ele>31</ele>
        <time>2024-04-07T12:21:51Z</time>
      </trkpt>
      <trkpt lat="43.65933" lon="7.10421">
        <ele>30</ele>
        <time>2024-04-07T12:21:55Z</time>
      </trkpt>
      <trkpt lat="43.659" lon="7.1045">
        <ele>32</ele>
        <time>2024-04-07T12:22:01Z</time>
      </trkpt>
      <trkpt lat="43.65793" lon="7.10523">
        <ele>31</ele>
        <time>2024-04-07T12:22:23Z</time>
      </trkpt>
      <trkpt lat="43.6572" lon="7.10576">
        <ele>28</ele>
        <time>2024-04-07T12:22:37Z</time>
      </trkpt>
      <trkpt lat="43.65689" lon="7.10603">
        <ele>26</ele>
        <time>2024-04-07T12:22:44Z</time>
      </trkpt>
      <trkpt lat="43.65679" lon="7.10617">
        <ele>26</ele>
        <time>2024-04-07T12:22:46Z</time>
      </trkpt>
      <trkpt lat="43.65672" lon="7.10631">
        <ele>26</ele>
        <time>2024-04-07T12:22:49Z</time>
      </trkpt>
      <trkpt lat="43.65667" lon="7.1065">
        <ele>26</ele>
        <time>2024-04-07T12:22:51Z</time>
      </trkpt>
      <trkpt lat="43.65665" lon="7.10669">
        <ele>27</ele>
        <time>2024-04-07T12:22:54Z</time>
      </trkpt>
      <trkpt lat="43.65666" lon="7.10691">
        <ele>27</ele>
        <time>2024-04-07T12:22:57Z</time>
      </trkpt>
      <trkpt lat="43.6567" lon="7.1071">
        <ele>27</ele>
        <time>2024-04-07T12:22:59Z</time>
      </trkpt>
      <trkpt lat="43.65676" lon="7.10727">
        <ele>28</ele>
        <time>2024-04-07T12:23:02Z</time>
      </trkpt>
      <trkpt lat="43.65702" lon="7.10768">
        <ele>31</ele>
        <time>2024-04-07T12:23:09Z</time>
      </trkpt>
      <trkpt lat="43.65742" lon="7.10843">
        <ele>28</ele>
        <time>2024-04-07T12:23:21Z</time>
      </trkpt>
      <trkpt lat="43.65752" lon="7.10865">
        <ele>27</ele>
        <time>2024-04-07T12:23:24Z</time>
      </trkpt>
      <trkpt lat="43.65767" lon="7.10926">
        <ele>26</ele>
        <time>2024-04-07T12:23:32Z</time>
      </trkpt>
      <trkpt lat="43.6577" lon="7.10995">
        <ele>25</ele>
        <time>2024-04-07T12:23:41Z</time>
      </trkpt>
      <trkpt lat="43.65767" lon="7.11062">
        <ele>24</ele>
        <time>2024-04-07T12:23:50Z</time>
      </trkpt>
      <trkpt lat="43.65759" lon="7.11147">
        <ele>22</ele>
        <time>2024-04-07T12:24:01Z</time>
      </trkpt>
      <trkpt lat="43.65758" lon="7.11179">
        <ele>22</ele>
        <time>2024-04-07T12:24:05Z</time>
      </trkpt>
      <trkpt lat="43.65759" lon="7.11237">
        <ele>22</ele>
        <time>2024-04-07T12:24:12Z</time>
      </trkpt>
      <trkpt lat="43.65765" lon="7.11278">
        <ele>22</ele>
        <time>2024-04-07T12:24:18Z</time>
      </trkpt>
      <trkpt lat="43.65788" lon="7.11339">
        <ele>24</ele>
        <time>2024-04-07T12:24:27Z</time>
      </trkpt>
      <trkpt lat="43.65792" lon="7.11354">
        <ele>24</ele>
        <time>2024-04-07T12:24:29Z</time>
      </trkpt>
      <trkpt lat="43.65797" lon="7.11389">
        <ele>24</ele>
        <time>2024-04-07T12:24:33Z</time>
      </trkpt>
      <trkpt lat="43.65797" lon="7.11425">
        <ele>24</ele>
        <time>2024-04-07T12:24:38Z</time>
      </trkpt>
      <trkpt lat="43.65786" lon="7.11538">
        <ele>23</ele>
        <time>2024-04-07T12:24:53Z</time>
      </trkpt>
      <trkpt lat="43.65778" lon="7.1159">
        <ele>23</ele>
        <time>2024-04-07T12:24:59Z</time>
      </trkpt>
      <trkpt lat="43.6575" lon="7.11632">
        <ele>19</ele>
        <time>2024-04-07T12:25:07Z</time>
      </trkpt>
      <trkpt lat="43.65738" lon="7.11657">
        <ele>20</ele>
        <time>2024-04-07T12:25:11Z</time>
      </trkpt>
      <trkpt lat="43.65724" lon="7.11692">
        <ele>21</ele>
        <time>2024-04-07T12:25:16Z</time>
      </trkpt>
      <trkpt lat="43.65715" lon="7.11733">
        <ele>23</ele>
        <time>2024-04-07T12:25:21Z</time>
      </trkpt>
      <trkpt lat="43.657" lon="7.11872">
        <ele>19</ele>
        <time>2024-04-07T12:25:39Z</time>
      </trkpt>
      <trkpt lat="43.65692" lon="7.11898">
        <ele>17</ele>
        <time>2024-04-07T12:25:43Z</time>
      </trkpt>
      <trkpt lat="43.65675" lon="7.11971">
        <ele>16</ele>
        <time>2024-04-07T12:25:53Z</time>
      </trkpt>
      <trkpt lat="43.65671" lon="7.11982">
        <ele>15</ele>
        <time>2024-04-07T12:25:54Z</time>
      </trkpt>
      <trkpt lat="43.65662" lon="7.11986">
        <ele>16</ele>
        <time>2024-04-07T12:25:56Z</time>
      </trkpt>
      <trkpt lat="43.65658" lon="7.11991">
        <ele>16</ele>
        <time>2024-04-07T12:25:57Z</time>
      </trkpt>
      <trkpt lat="43.65656" lon="7.11998">
        <ele>16</ele>
        <time>2024-04-07T12:25:58Z</time>
      </trkpt>
      <trkpt lat="43.65655" lon="7.12006">
        <ele>16</ele>
        <time>2024-04-07T12:25:59Z</time>
      </trkpt>
      <trkpt lat="43.65658" lon="7.12017">
        <ele>15</ele>
        <time>2024-04-07T12:26:01Z</time>
      </trkpt>
      <trkpt lat="43.65663" lon="7.12024">
        <ele>15</ele>
        <time>2024-04-07T12:26:02Z</time>
      </trkpt>
      <trkpt lat="43.65671" lon="7.12027">
        <ele>15</ele>
        <time>2024-04-07T12:26:03Z</time>
      </trkpt>
      <trkpt lat="43.65677" lon="7.12025">
        <ele>15</ele>
        <time>2024-04-07T12:26:04Z</time>
      </trkpt>
      <trkpt lat="43.65685" lon="7.12033">
        <ele>15</ele>
        <time>2024-04-07T12:26:06Z</time>
      </trkpt>
      <trkpt lat="43.65693" lon="7.12046">
        <ele>16</ele>
        <time>2024-04-07T12:26:08Z</time>
      </trkpt>
      <trkpt lat="43.65731" lon="7.12164">
        <ele>15</ele>
        <time>2024-04-07T12:26:25Z</time>
      </trkpt>
      <trkpt lat="43.65742" lon="7.12191">
        <ele>15</ele>
        <time>2024-04-07T12:26:29Z</time>
      </trkpt>
      <trkpt lat="43.65801" lon="7.12381">
        <ele>23</ele>
        <time>2024-04-07T12:26:56Z</time>
      </trkpt>
      <trkpt lat="43.65869" lon="7.12586">
        <ele>29</ele>
        <time>2024-04-07T12:27:25Z</time>
      </trkpt>
      <trkpt lat="43.65908" lon="7.12713">
        <ele>32</ele>
        <time>2024-04-07T12:27:42Z</time>
      </trkpt>
      <trkpt lat="43.65911" lon="7.12737">
        <ele>32</ele>
        <time>2024-04-07T12:27:46Z</time>
      </trkpt>
      <trkpt lat="43.6591" lon="7.12755">
        <ele>32</ele>
        <time>2024-04-07T12:27:48Z</time>
      </trkpt>
      <trkpt lat="43.65899" lon="7.12841">
        <ele>31</ele>
        <time>2024-04-07T12:27:59Z</time>
      </trkpt>
      <trkpt lat="43.659" lon="7.12856">
        <ele>32</ele>
        <time>2024-04-07T12:28:01Z</time>
      </trkpt>
      <trkpt lat="43.65903" lon="7.12869">
        <ele>33</ele>
        <time>2024-04-07T12:28:03Z</time>
      </trkpt>
      <trkpt lat="43.65909" lon="7.12886">
        <ele>36</ele>
        <time>2024-04-07T12:28:05Z</time>
      </trkpt>
      <trkpt lat="43.65918" lon="7.12899">
        <ele>38</ele>
        <time>2024-04-07T12:28:08Z</time>
      </trkpt>
      <trkpt lat="43.65928" lon="7.12908">
        <ele>40</ele>
        <time>2024-04-07T12:28:10Z</time>
      </trkpt>
      <trkpt lat="43.66005" lon="7.12975">
        <ele>39</ele>
        <time>2024-04-07T12:28:26Z</time>
      </trkpt>
      <trkpt lat="43.66011" lon="7.1298">
        <ele>38</ele>
        <time>2024-04-07T12:28:27Z</time>
      </trkpt>
      <trkpt lat="43.66015" lon="7.12986">
        <ele>37</ele>
        <time>2024-04-07T12:28:28Z</time>
      </trkpt>
      <trkpt lat="43.66019" lon="7.13008">
        <ele>35</ele>
        <time>2024-04-07T12:28:31Z</time>
      </trkpt>
      <trkpt lat="43.66019" lon="7.13039">
        <ele>32</ele>
        <time>2024-04-07T12:28:35Z</time>
      </trkpt>
      <trkpt lat="43.65988" lon="7.13198">
        <ele>26</ele>
        <time>2024-04-07T12:28:56Z</time>
      </trkpt>
      <trkpt lat="43.65892" lon="7.13706">
        <ele>27</ele>
        <time>2024-04-07T12:30:04Z</time>
      </trkpt>
      <trkpt lat="43.65887" lon="7.13706">
        <ele>28</ele>
        <time>2024-04-07T12:30:05Z</time>
      </trkpt>
      <trkpt lat="43.65884" lon="7.13709">
        <ele>30</ele>
        <time>2024-04-07T12:30:05Z</time>
      </trkpt>
      <trkpt lat="43.65882" lon="7.13716">
        <ele>30</ele>
        <time>2024-04-07T12:30:06Z</time>
      </trkpt>
      <trkpt lat="43.65885" lon="7.13724">
        <ele>30</ele>
        <time>2024-04-07T12:30:08Z</time>
      </trkpt>
      <trkpt lat="43.65888" lon="7.13756">
        <ele>29</ele>
        <time>2024-04-07T12:30:12Z</time>
      </trkpt>
      <trkpt lat="43.65887" lon="7.13771">
        <ele>29</ele>
        <time>2024-04-07T12:30:14Z</time>
      </trkpt>
      <trkpt lat="43.65988" lon="7.13782">
        <ele>17</ele>
        <time>2024-04-07T12:30:32Z</time>
      </trkpt>
      <trkpt lat="43.65985" lon="7.1382">
        <ele>16</ele>
        <time>2024-04-07T12:30:37Z</time>
      </trkpt>
      <trkpt lat="43.65985" lon="7.13901">
        <ele>16</ele>
        <time>2024-04-07T12:30:47Z</time>
      </trkpt>
      <trkpt lat="43.65989" lon="7.13966">
        <ele>15</ele>
        <time>2024-04-07T12:30:55Z</time>
      </trkpt>
      <trkpt lat="43.66023" lon="7.14267">
        <ele>15</ele>
        <time>2024-04-07T12:31:35Z</time>
      </trkpt>
      <trkpt lat="43.66024" lon="7.14309">
        <ele>15</ele>
        <time>2024-04-07T12:31:40Z</time>
      </trkpt>
      <trkpt lat="43.66024" lon="7.14349">
        <ele>15</ele>
        <time>2024-04-07T12:31:45Z</time>
      </trkpt>
      <trkpt lat="43.66047" lon="7.14355">
        <ele>16</ele>
        <time>2024-04-07T12:31:49Z</time>
      </trkpt>
      <trkpt lat="43.66048" lon="7.14365">
        <ele>16</ele>
        <time>2024-04-07T12:31:51Z</time>
      </trkpt>
      <trkpt lat="43.66059" lon="7.14395">
        <ele>17</ele>
        <time>2024-04-07T12:31:55Z</time>
      </trkpt>
      <trkpt lat="43.66056" lon="7.14405">
        <ele>17</ele>
        <time>2024-04-07T12:31:56Z</time>
      </trkpt>
      <trkpt lat="43.66057" lon="7.14411">
        <ele>17</ele>
        <time>2024-04-07T12:31:57Z</time>
      </trkpt>
      <trkpt lat="43.66072" lon="7.14413">
        <ele>18</ele>
        <time>2024-04-07T12:32:00Z</time>
      </trkpt>
      <trkpt lat="43.66107" lon="7.14433">
        <ele>22</ele>
        <time>2024-04-07T12:32:07Z</time>
      </trkpt>
      <trkpt lat="43.66109" lon="7.14441">
        <ele>23</ele>
        <time>2024-04-07T12:32:08Z</time>
      </trkpt>
      <trkpt lat="43.66103" lon="7.14525">
        <ele>23</ele>
        <time>2024-04-07T12:32:19Z</time>
      </trkpt>
      <trkpt lat="43.6608" lon="7.14696">
        <ele>22</ele>
        <time>2024-04-07T12:32:41Z</time>
      </trkpt>
      <trkpt lat="43.66077" lon="7.14792">
        <ele>21</ele>
        <time>2024-04-07T12:32:53Z</time>
      </trkpt>
      <trkpt lat="43.66068" lon="7.14825">
        <ele>19</ele>
        <time>2024-04-07T12:32:58Z</time>
      </trkpt>
      <trkpt lat="43.66059" lon="7.14849">
        <ele>17</ele>
        <time>2024-04-07T12:33:01Z</time>
      </trkpt>
      <trkpt lat="43.66049" lon="7.1486">
        <ele>17</ele>
        <time>2024-04-07T12:33:04Z</time>
      </trkpt>
      <trkpt lat="43.66041" lon="7.14875">
        <ele>16</ele>
        <time>2024-04-07T12:33:06Z</time>
      </trkpt>
      <trkpt lat="43.66034" lon="7.14894">
        <ele>15</ele>
        <time>2024-04-07T12:33:09Z</time>
      </trkpt>
      <trkpt lat="43.66005" lon="7.14997">
        <ele>15</ele>
        <time>2024-04-07T12:33:23Z</time>
      </trkpt>
      <trkpt lat="43.66004" lon="7.15003">
        <ele>15</ele>
        <time>2024-04-07T12:33:24Z</time>
      </trkpt>
      <trkpt lat="43.66008" lon="7.15019">
        <ele>14</ele>
        <time>2024-04-07T12:33:26Z</time>
      </trkpt>
      <trkpt lat="43.66013" lon="7.15037">
        <ele>14</ele>
        <time>2024-04-07T12:33:28Z</time>
      </trkpt>
      <trkpt lat="43.66012" lon="7.15048">
        <ele>13</ele>
        <time>2024-04-07T12:33:30Z</time>
      </trkpt>
      <trkpt lat="43.6601" lon="7.15053">
        <ele>13</ele>
        <time>2024-04-07T12:33:31Z</time>
      </trkpt>
      <trkpt lat="43.66005" lon="7.15059">
        <ele>13</ele>
        <time>2024-04-07T12:33:32Z</time>
      </trkpt>
      <trkpt lat="43.65995" lon="7.15063">
        <ele>13</ele>
        <time>2024-04-07T12:33:34Z</time>
      </trkpt>
      <trkpt lat="43.65763" lon="7.15097">
        <ele>13</ele>
        <time>2024-04-07T12:34:15Z</time>
      </trkpt>
      <trkpt lat="43.65757" lon="7.15114">
        <ele>12</ele>
        <time>2024-04-07T12:34:18Z</time>
      </trkpt>
      <trkpt lat="43.65739" lon="7.15146">
        <ele>12</ele>
        <time>2024-04-07T12:34:23Z</time>
      </trkpt>
      <trkpt lat="43.65732" lon="7.15163">
        <ele>11</ele>
        <time>2024-04-07T12:34:25Z</time>
      </trkpt>
      <trkpt lat="43.65686" lon="7.15304">
        <ele>8</ele>
        <time>2024-04-07T12:34:45Z</time>
      </trkpt>
      <trkpt lat="43.65675" lon="7.15334">
        <ele>8</ele>
        <time>2024-04-07T12:34:50Z</time>
      </trkpt>
      <trkpt lat="43.6562" lon="7.15366">
        <ele>9</ele>
        <time>2024-04-07T12:35:00Z</time>
      </trkpt>
      <trkpt lat="43.65584" lon="7.15383">
        <ele>9</ele>
        <time>2024-04-07T12:35:07Z</time>
      </trkpt>
      <trkpt lat="43.65587" lon="7.15394">
        <ele>9</ele>
        <time>2024-04-07T12:35:08Z</time>
      </trkpt>
      <trkpt lat="43.65595" lon="7.15424">
        <ele>8</ele>
        <time>2024-04-07T12:35:13Z</time>
      </trkpt>
      <trkpt lat="43.6562" lon="7.15502">
        <ele>12</ele>
        <time>2024-04-07T12:35:24Z</time>
      </trkpt>
      <trkpt lat="43.65643" lon="7.15557">
        <ele>12</ele>
        <time>2024-04-07T12:35:32Z</time>
      </trkpt>
      <trkpt lat="43.65633" lon="7.15569">
        <ele>11</ele>
        <time>2024-04-07T12:35:34Z</time>
      </trkpt>
      <trkpt lat="43.65631" lon="7.15577">
        <ele>11</ele>
        <time>2024-04-07T12:35:35Z</time>
      </trkpt>
      <trkpt lat="43.65644" lon="7.1564">
        <ele>9</ele>
        <time>2024-04-07T12:35:44Z</time>
      </trkpt>
      <trkpt lat="43.65644" lon="7.15653">
        <ele>8</ele>
        <time>2024-04-07T12:35:45Z</time>
      </trkpt>
      <trkpt lat="43.65648" lon="7.15658">
        <ele>8</ele>
        <time>2024-04-07T12:35:46Z</time>
      </trkpt>
      <trkpt lat="43.65651" lon="7.15666">
        <ele>8</ele>
        <time>2024-04-07T12:35:47Z</time>
      </trkpt>
      <trkpt lat="43.65671" lon="7.15752">
        <ele>8</ele>
        <time>2024-04-07T12:35:59Z</time>
      </trkpt>
      <trkpt lat="43.65665" lon="7.15754">
        <ele>8</ele>
        <time>2024-04-07T12:36:00Z</time>
      </trkpt>
      <trkpt lat="43.65663" lon="7.1576">
        <ele>8</ele>
        <time>2024-04-07T12:36:01Z</time>
      </trkpt>
      <trkpt lat="43.65675" lon="7.15841">
        <ele>6</ele>
        <time>2024-04-07T12:36:12Z</time>
      </trkpt>
      <trkpt lat="43.65712" lon="7.15959">
        <ele>8</ele>
        <time>2024-04-07T12:36:28Z</time>
      </trkpt>
      <trkpt lat="43.65712" lon="7.15968">
        <ele>8</ele>
        <time>2024-04-07T12:36:29Z</time>
      </trkpt>
      <trkpt lat="43.65716" lon="7.1598">
        <ele>8</ele>
        <time>2024-04-07T12:36:31Z</time>
      </trkpt>
      <trkpt lat="43.65723" lon="7.15993">
        <ele>9</ele>
        <time>2024-04-07T12:36:33Z</time>
      </trkpt>
      <trkpt lat="43.65795" lon="7.16232">
        <ele>8</ele>
        <time>2024-04-07T12:37:06Z</time>
      </trkpt>
      <trkpt lat="43.65836" lon="7.16347">
        <ele>9</ele>
        <time>2024-04-07T12:37:23Z</time>
      </trkpt>
      <trkpt lat="43.65778" lon="7.16413">
        <ele>6</ele>
        <time>2024-04-07T12:37:36Z</time>
      </trkpt>
      <trkpt lat="43.65759" lon="7.16432">
        <ele>6</ele>
        <time>2024-04-07T12:37:40Z</time>
      </trkpt>
      <trkpt lat="43.65721" lon="7.16464">
        <ele>6</ele>
        <time>2024-04-07T12:37:48Z</time>
      </trkpt>
      <trkpt lat="43.6569" lon="7.16486">
        <ele>5</ele>
        <time>2024-04-07T12:37:55Z</time>
      </trkpt>
      <trkpt lat="43.65723" lon="7.16584">
        <ele>5</ele>
        <time>2024-04-07T12:38:08Z</time>
      </trkpt>
      <trkpt lat="43.65737" lon="7.16631">
        <ele>5</ele>
        <time>2024-04-07T12:38:15Z</time>
      </trkpt>
      <trkpt lat="43.65755" lon="7.16707">
        <ele>6</ele>
        <time>2024-04-07T12:38:25Z</time>
      </trkpt>
      <trkpt lat="43.65767" lon="7.16777">
        <ele>7</ele>
        <time>2024-04-07T12:38:35Z</time>
      </trkpt>
      <trkpt lat="43.65777" lon="7.16863">
        <ele>7</ele>
        <time>2024-04-07T12:38:46Z</time>
      </trkpt>
      <trkpt lat="43.65777" lon="7.16942">
        <ele>5</ele>
        <time>2024-04-07T12:38:56Z</time>
      </trkpt>
      <trkpt lat="43.65772" lon="7.1704">
        <ele>4</ele>
        <time>2024-04-07T12:39:09Z</time>
      </trkpt>
      <trkpt lat="43.65761" lon="7.17126">
        <ele>5</ele>
        <time>2024-04-07T12:39:20Z</time>
      </trkpt>
      <trkpt lat="43.65758" lon="7.17144">
        <ele>5</ele>
        <time>2024-04-07T12:39:22Z</time>
      </trkpt>
      <trkpt lat="43.65746" lon="7.17184">
        <ele>6</ele>
        <time>2024-04-07T12:39:28Z</time>
      </trkpt>
      <trkpt lat="43.65694" lon="7.17331">
        <ele>7</ele>
        <time>2024-04-07T12:39:49Z</time>
      </trkpt>
      <trkpt lat="43.65671" lon="7.17403">
        <ele>7</ele>
        <time>2024-04-07T12:39:59Z</time>
      </trkpt>
      <trkpt lat="43.65662" lon="7.17439">
        <ele>6</ele>
        <time>2024-04-07T12:40:04Z</time>
      </trkpt>
      <trkpt lat="43.65649" lon="7.17512">
        <ele>4</ele>
        <time>2024-04-07T12:40:14Z</time>
      </trkpt>
      <trkpt lat="43.65645" lon="7.17544">
        <ele>4</ele>
        <time>2024-04-07T12:40:18Z</time>
      </trkpt>
      <trkpt lat="43.65641" lon="7.17609">
        <ele>4</ele>
        <time>2024-04-07T12:40:26Z</time>
      </trkpt>
      <trkpt lat="43.65641" lon="7.17669">
        <ele>4</ele>
        <time>2024-04-07T12:40:34Z</time>
      </trkpt>
      <trkpt lat="43.65656" lon="7.17861">
        <ele>4</ele>
        <time>2024-04-07T12:40:59Z</time>
      </trkpt>
      <trkpt lat="43.6566" lon="7.17909">
        <ele>4</ele>
        <time>2024-04-07T12:41:05Z</time>
      </trkpt>
      <trkpt lat="43.65659" lon="7.17967">
        <ele>4</ele>
        <time>2024-04-07T12:41:12Z</time>
      </trkpt>
      <trkpt lat="43.65664" lon="7.17972">
        <ele>4</ele>
        <time>2024-04-07T12:41:14Z</time>
      </trkpt>
      <trkpt lat="43.65672" lon="7.18033">
        <ele>4</ele>
        <time>2024-04-07T12:41:22Z</time>
      </trkpt>
      <trkpt lat="43.65681" lon="7.18079">
        <ele>5</ele>
        <time>2024-04-07T12:41:28Z</time>
      </trkpt>
      <trkpt lat="43.6578" lon="7.18481">
        <ele>5</ele>
        <time>2024-04-07T12:42:22Z</time>
      </trkpt>
      <trkpt lat="43.65791" lon="7.18529">
        <ele>5</ele>
        <time>2024-04-07T12:42:29Z</time>
      </trkpt>
      <trkpt lat="43.6579" lon="7.18537">
        <ele>5</ele>
        <time>2024-04-07T12:42:30Z</time>
      </trkpt>
      <trkpt lat="43.6579" lon="7.18542">
        <ele>5</ele>
        <time>2024-04-07T12:42:30Z</time>
      </trkpt>
      <trkpt lat="43.65807" lon="7.18592">
        <ele>6</ele>
        <time>2024-04-07T12:42:38Z</time>
      </trkpt>
      <trkpt lat="43.6589" lon="7.18934">
        <ele>8</ele>
        <time>2024-04-07T12:43:24Z</time>
      </trkpt>
      <trkpt lat="43.65913" lon="7.19015">
        <ele>6</ele>
        <time>2024-04-07T12:43:35Z</time>
      </trkpt>
      <trkpt lat="43.65951" lon="7.19107">
        <ele>8</ele>
        <time>2024-04-07T12:43:49Z</time>
      </trkpt>
      <trkpt lat="43.65963" lon="7.19131">
        <ele>8</ele>
        <time>2024-04-07T12:43:53Z</time>
      </trkpt>
      <trkpt lat="43.65964" lon="7.1914">
        <ele>8</ele>
        <time>2024-04-07T12:43:54Z</time>
      </trkpt>
      <trkpt lat="43.65984" lon="7.19174">
        <ele>9</ele>
        <time>2024-04-07T12:43:59Z</time>
      </trkpt>
      <trkpt lat="43.66096" lon="7.19351">
        <ele>11</ele>
        <time>2024-04-07T12:44:30Z</time>
      </trkpt>
      <trkpt lat="43.66099" lon="7.19362">
        <ele>11</ele>
        <time>2024-04-07T12:44:31Z</time>
      </trkpt>
      <trkpt lat="43.66103" lon="7.19373">
        <ele>11</ele>
        <time>2024-04-07T12:44:33Z</time>
      </trkpt>
      <trkpt lat="43.66121" lon="7.19398">
        <ele>11</ele>
        <time>2024-04-07T12:44:37Z</time>
      </trkpt>
      <trkpt lat="43.66143" lon="7.19434">
        <ele>12</ele>
        <time>2024-04-07T12:44:43Z</time>
      </trkpt>
      <trkpt lat="43.66222" lon="7.19558">
        <ele>10</ele>
        <time>2024-04-07T12:45:05Z</time>
      </trkpt>
      <trkpt lat="43.66253" lon="7.19614">
        <ele>10</ele>
        <time>2024-04-07T12:45:14Z</time>
      </trkpt>
      <trkpt lat="43.66259" lon="7.19627">
        <ele>10</ele>
        <time>2024-04-07T12:45:16Z</time>
      </trkpt>
      <trkpt lat="43.66266" lon="7.19633">
        <ele>11</ele>
        <time>2024-04-07T12:45:17Z</time>
      </trkpt>
      <trkpt lat="43.6629" lon="7.19681">
        <ele>12</ele>
        <time>2024-04-07T12:45:25Z</time>
      </trkpt>
      <trkpt lat="43.66288" lon="7.19696">
        <ele>11</ele>
        <time>2024-04-07T12:45:27Z</time>
      </trkpt>
      <trkpt lat="43.663" lon="7.19713">
        <ele>12</ele>
        <time>2024-04-07T12:45:30Z</time>
      </trkpt>
      <trkpt lat="43.66313" lon="7.19744">
        <ele>11</ele>
        <time>2024-04-07T12:45:34Z</time>
      </trkpt>
      <trkpt lat="43.66466" lon="7.20145">
        <ele>11</ele>
        <time>2024-04-07T12:46:33Z</time>
      </trkpt>
      <trkpt lat="43.66489" lon="7.20215">
        <ele>11</ele>
        <time>2024-04-07T12:46:43Z</time>
      </trkpt>
      <trkpt lat="43.66498" lon="7.20249">
        <ele>11</ele>
        <time>2024-04-07T12:46:47Z</time>
      </trkpt>
      <trkpt lat="43.66504" lon="7.20246">
        <ele>11</ele>
        <time>2024-04-07T12:46:48Z</time>
      </trkpt>
      <trkpt lat="43.66517" lon="7.20298">
        <ele>11</ele>
        <time>2024-04-07T12:46:55Z</time>
      </trkpt>
      <trkpt lat="43.66527" lon="7.20352">
        <ele>11</ele>
        <time>2024-04-07T12:47:03Z</time>
      </trkpt>
      <trkpt lat="43.66526" lon="7.20358">
        <ele>10</ele>
        <time>2024-04-07T12:47:03Z</time>
      </trkpt>
      <trkpt lat="43.66522" lon="7.20362">
        <ele>10</ele>
        <time>2024-04-07T12:47:04Z</time>
      </trkpt>
      <trkpt lat="43.66526" lon="7.20374">
        <ele>10</ele>
        <time>2024-04-07T12:47:06Z</time>
      </trkpt>
      <trkpt lat="43.66539" lon="7.20466">
        <ele>10</ele>
        <time>2024-04-07T12:47:18Z</time>
      </trkpt>
      <trkpt lat="43.6654" lon="7.20484">
        <ele>9</ele>
        <time>2024-04-07T12:47:20Z</time>
      </trkpt>
      <trkpt lat="43.66537" lon="7.20693">
        <ele>7</ele>
        <time>2024-04-07T12:47:47Z</time>
      </trkpt>
      <trkpt lat="43.66539" lon="7.2071">
        <ele>7</ele>
        <time>2024-04-07T12:47:50Z</time>
      </trkpt>
      <trkpt lat="43.66544" lon="7.20737">
        <ele>8</ele>
        <time>2024-04-07T12:47:53Z</time>
      </trkpt>
      <trkpt lat="43.66582" lon="7.20855">
        <ele>8</ele>
        <time>2024-04-07T12:48:10Z</time>
      </trkpt>
      <trkpt lat="43.66588" lon="7.20885">
        <ele>8</ele>
        <time>2024-04-07T12:48:14Z</time>
      </trkpt>
      <trkpt lat="43.66621" lon="7.21156">
        <ele>6</ele>
        <time>2024-04-07T12:48:49Z</time>
      </trkpt>
      <trkpt lat="43.66664" lon="7.21519">
        <ele>10</ele>
        <time>2024-04-07T12:49:36Z</time>
      </trkpt>
      <trkpt lat="43.66664" lon="7.21529">
        <ele>9</ele>
        <time>2024-04-07T12:49:38Z</time>
      </trkpt>
      <trkpt lat="43.66657" lon="7.21537">
        <ele>9</ele>
        <time>2024-04-07T12:49:39Z</time>
      </trkpt>
      <trkpt lat="43.66658" lon="7.21543">
        <ele>9</ele>
        <time>2024-04-07T12:49:40Z</time>
      </trkpt>
      <trkpt lat="43.66658" lon="7.21556">
        <ele>9</ele>
        <time>2024-04-07T12:49:42Z</time>
      </trkpt>
      <trkpt lat="43.66679" lon="7.21689">
        <ele>6</ele>
        <time>2024-04-07T12:49:59Z</time>
      </trkpt>
      <trkpt lat="43.6669" lon="7.21739">
        <ele>4</ele>
        <time>2024-04-07T12:50:06Z</time>
      </trkpt>
      <trkpt lat="43.66704" lon="7.21795">
        <ele>4</ele>
        <time>2024-04-07T12:50:14Z</time>
      </trkpt>
      <trkpt lat="43.66723" lon="7.21852">
        <ele>4</ele>
        <time>2024-04-07T12:50:22Z</time>
      </trkpt>
      <trkpt lat="43.66736" lon="7.21889">
        <ele>4</ele>
        <time>2024-04-07T12:50:27Z</time>
      </trkpt>
      <trkpt lat="43.66771" lon="7.21974">
        <ele>5</ele>
        <time>2024-04-07T12:50:40Z</time>
      </trkpt>
      <trkpt lat="43.66781" lon="7.21993">
        <ele>5</ele>
        <time>2024-04-07T12:50:43Z</time>
      </trkpt>
      <trkpt lat="43.66819" lon="7.22058">
        <ele>6</ele>
        <time>2024-04-07T12:50:53Z</time>
      </trkpt>
      <trkpt lat="43.67038" lon="7.2236">
        <ele>11</ele>
        <time>2024-04-07T12:51:48Z</time>
      </trkpt>
      <trkpt lat="43.6717" lon="7.22539">
        <ele>6</ele>
        <time>2024-04-07T12:52:21Z</time>
      </trkpt>
      <trkpt lat="43.67229" lon="7.22602">
        <ele>8</ele>
        <time>2024-04-07T12:52:35Z</time>
      </trkpt>
      <trkpt lat="43.67299" lon="7.22663">
        <ele>9</ele>
        <time>2024-04-07T12:52:49Z</time>
      </trkpt>
      <trkpt lat="43.67347" lon="7.227">
        <ele>8</ele>
        <time>2024-04-07T12:52:59Z</time>
      </trkpt>
      <trkpt lat="43.67397" lon="7.22732">
        <ele>7</ele>
        <time>2024-04-07T12:53:09Z</time>
      </trkpt>
      <trkpt lat="43.674" lon="7.22739">
        <ele>6</ele>
        <time>2024-04-07T12:53:10Z</time>
      </trkpt>
      <trkpt lat="43.67399" lon="7.2275">
        <ele>6</ele>
        <time>2024-04-07T12:53:11Z</time>
      </trkpt>
      <trkpt lat="43.67401" lon="7.22754">
        <ele>6</ele>
        <time>2024-04-07T12:53:12Z</time>
      </trkpt>
      <trkpt lat="43.67468" lon="7.22797">
        <ele>5</ele>
        <time>2024-04-07T12:53:25Z</time>
      </trkpt>
      <trkpt lat="43.67537" lon="7.22833">
        <ele>5</ele>
        <time>2024-04-07T12:53:38Z</time>
      </trkpt>
      <trkpt lat="43.67545" lon="7.22842">
        <ele>5</ele>
        <time>2024-04-07T12:53:40Z</time>
      </trkpt>
      <trkpt lat="43.67551" lon="7.22844">
        <ele>5</ele>
        <time>2024-04-07T12:53:41Z</time>
      </trkpt>
      <trkpt lat="43.67614" lon="7.2288">
        <ele>6</ele>
        <time>2024-04-07T12:53:53Z</time>
      </trkpt>
      <trkpt lat="43.67622" lon="7.22896">
        <ele>6</ele>
        <time>2024-04-07T12:53:56Z</time>
      </trkpt>
      <trkpt lat="43.67692" lon="7.22933">
        <ele>6</ele>
        <time>2024-04-07T12:54:09Z</time>
      </trkpt>
      <trkpt lat="43.67704" lon="7.22919">
        <ele>7</ele>
        <time>2024-04-07T12:54:12Z</time>
      </trkpt>
      <trkpt lat="43.67714" lon="7.22911">
        <ele>7</ele>
        <time>2024-04-07T12:54:14Z</time>
      </trkpt>
      <trkpt lat="43.6773" lon="7.22909">
        <ele>8</ele>
        <time>2024-04-07T12:54:17Z</time>
      </trkpt>
      <trkpt lat="43.67739" lon="7.22912">
        <ele>8</ele>
        <time>2024-04-07T12:54:19Z</time>
      </trkpt>
      <trkpt lat="43.67857" lon="7.22991">
        <ele>10</ele>
        <time>2024-04-07T12:54:42Z</time>
      </trkpt>
      <trkpt lat="43.68054" lon="7.23143">
        <ele>8</ele>
        <time>2024-04-07T12:55:22Z</time>
      </trkpt>
      <trkpt lat="43.68101" lon="7.23186">
        <ele>7</ele>
        <time>2024-04-07T12:55:32Z</time>
      </trkpt>
      <trkpt lat="43.68184" lon="7.23275">
        <ele>7</ele>
        <time>2024-04-07T12:55:51Z</time>
      </trkpt>
      <trkpt lat="43.68566" lon="7.23698">
        <ele>6</ele>
        <time>2024-04-07T12:57:18Z</time>
      </trkpt>
      <trkpt lat="43.68656" lon="7.23809">
        <ele>13</ele>
        <time>2024-04-07T12:57:39Z</time>
      </trkpt>
      <trkpt lat="43.68709" lon="7.23885">
        <ele>11</ele>
        <time>2024-04-07T12:57:53Z</time>
      </trkpt>
      <trkpt lat="43.68758" lon="7.23966">
        <ele>10</ele>
        <time>2024-04-07T12:58:06Z</time>
      </trkpt>
      <trkpt lat="43.68811" lon="7.24057">
        <ele>11</ele>
        <time>2024-04-07T12:58:22Z</time>
      </trkpt>
      <trkpt lat="43.68959" lon="7.24332">
        <ele>12</ele>
        <time>2024-04-07T12:59:06Z</time>
      </trkpt>
      <trkpt lat="43.69001" lon="7.24429">
        <ele>11</ele>
        <time>2024-04-07T12:59:20Z</time>
      </trkpt>
      <trkpt lat="43.69066" lon="7.24605">
        <ele>8</ele>
        <time>2024-04-07T12:59:46Z</time>
      </trkpt>
      <trkpt lat="43.69157" lon="7.24867">
        <ele>8</ele>
        <time>2024-04-07T13:00:23Z</time>
      </trkpt>
      <trkpt lat="43.69186" lon="7.2496">
        <ele>8</ele>
        <time>2024-04-07T13:00:36Z</time>
      </trkpt>
      <trkpt lat="43.69264" lon="7.25182">
        <ele>8</ele>
        <time>2024-04-07T13:01:08Z</time>
      </trkpt>
      <trkpt lat="43.69335" lon="7.25492">
        <ele>9</ele>
        <time>2024-04-07T13:01:50Z</time>
      </trkpt>
      <trkpt lat="43.69418" lon="7.25871">
        <ele>7</ele>
        <time>2024-04-07T13:02:41Z</time>
      </trkpt>
      <trkpt lat="43.69426" lon="7.25923">
        <ele>5</ele>
        <time>2024-04-07T13:02:47Z</time>
      </trkpt>
      <trkpt lat="43.69454" lon="7.26126">
        <ele>7</ele>
        <time>2024-04-07T13:03:14Z</time>
      </trkpt>
      <trkpt lat="43.69472" lon="7.26368">
        <ele>9</ele>
        <time>2024-04-07T13:03:45Z</time>
      </trkpt>
      <trkpt lat="43.69474" lon="7.26421">
        <ele>8</ele>
        <time>2024-04-07T13:03:52Z</time>
      </trkpt>
      <trkpt lat="43.69492" lon="7.26892">
        <ele>5</ele>
        <time>2024-04-07T13:04:53Z</time>
      </trkpt>
      <trkpt lat="43.69502" lon="7.26928">
        <ele>7</ele>
        <time>2024-04-07T13:04:58Z</time>
      </trkpt>
      <trkpt lat="43.69503" lon="7.27093">
        <ele>10</ele>
        <time>2024-04-07T13:05:19Z</time>
      </trkpt>
      <trkpt lat="43.69502" lon="7.27114">
        <ele>11</ele>
        <time>2024-04-07T13:05:22Z</time>
      </trkpt>
      <trkpt lat="43.69504" lon="7.27132">
        <ele>11</ele>
        <time>2024-04-07T13:05:24Z</time>
      </trkpt>
      <trkpt lat="43.69507" lon="7.27341">
        <ele>8</ele>
        <time>2024-04-07T13:05:51Z</time>
      </trkpt>
      <trkpt lat="43.69507" lon="7.27348">
        <ele>8</ele>
        <time>2024-04-07T13:05:52Z</time>
      </trkpt>
      <trkpt lat="43.69513" lon="7.27362">
        <ele>8</ele>
        <time>2024-04-07T13:05:54Z</time>
      </trkpt>
      <trkpt lat="43.69513" lon="7.27401">
        <ele>7</ele>
        <time>2024-04-07T13:05:59Z</time>
      </trkpt>
      <trkpt lat="43.69508" lon="7.27483">
        <ele>6</ele>
        <time>2024-04-07T13:06:09Z</time>
      </trkpt>
      <trkpt lat="43.695" lon="7.27589">
        <ele>5</ele>
        <time>2024-04-07T13:06:23Z</time>
      </trkpt>
      <trkpt lat="43.69489" lon="7.27693">
        <ele>9</ele>
        <time>2024-04-07T13:06:37Z</time>
      </trkpt>
      <trkpt lat="43.69478" lon="7.27779">
        <ele>12</ele>
        <time>2024-04-07T13:06:48Z</time>
      </trkpt>
      <trkpt lat="43.69472" lon="7.2781">
        <ele>13</ele>
        <time>2024-04-07T13:06:52Z</time>
      </trkpt>
      <trkpt lat="43.69464" lon="7.27834">
        <ele>13</ele>
        <time>2024-04-07T13:06:55Z</time>
      </trkpt>
      <trkpt lat="43.69452" lon="7.27857">
        <ele>15</ele>
        <time>2024-04-07T13:06:59Z</time>
      </trkpt>
      <trkpt lat="43.69422" lon="7.27898">
        <ele>19</ele>
        <time>2024-04-07T13:07:07Z</time>
      </trkpt>
      <trkpt lat="43.69414" lon="7.27903">
        <ele>19</ele>
        <time>2024-04-07T13:07:08Z</time>
      </trkpt>
      <trkpt lat="43.69403" lon="7.27907">
        <ele>18</ele>
        <time>2024-04-07T13:07:10Z</time>
      </trkpt>
      <trkpt lat="43.69375" lon="7.2791">
        <ele>14</ele>
        <time>2024-04-07T13:07:15Z</time>
      </trkpt>
      <trkpt lat="43.69366" lon="7.27916">
        <ele>13</ele>
        <time>2024-04-07T13:07:17Z</time>
      </trkpt>
      <trkpt lat="43.6936" lon="7.27928">
        <ele>13</ele>
        <time>2024-04-07T13:07:19Z</time>
      </trkpt>
      <trkpt lat="43.69354" lon="7.27952">
        <ele>15</ele>
        <time>2024-04-07T13:07:22Z</time>
      </trkpt>
      <trkpt lat="43.69312" lon="7.28075">
        <ele>13</ele>
        <time>2024-04-07T13:07:40Z</time>
      </trkpt>
      <trkpt lat="43.6931" lon="7.28085">
        <ele>13</ele>
        <time>2024-04-07T13:07:41Z</time>
      </trkpt>
      <trkpt lat="43.69309" lon="7.28106">
        <ele>12</ele>
        <time>2024-04-07T13:07:44Z</time>
      </trkpt>
      <trkpt lat="43.69313" lon="7.28128">
        <ele>12</ele>
        <time>2024-04-07T13:07:47Z</time>
      </trkpt>
      <trkpt lat="43.69331" lon="7.28174">
        <ele>12</ele>
        <time>2024-04-07T13:07:53Z</time>
      </trkpt>
      <trkpt lat="43.69394" lon="7.28266">
        <ele>16</ele>
        <time>2024-04-07T13:08:10Z</time>
      </trkpt>
      <trkpt lat="43.69408" lon="7.28283">
        <ele>14</ele>
        <time>2024-04-07T13:08:13Z</time>
      </trkpt>
      <trkpt lat="43.69421" lon="7.28292">
        <ele>14</ele>
        <time>2024-04-07T13:08:16Z</time>
      </trkpt>
      <trkpt lat="43.69504" lon="7.28323">
        <ele>13</ele>
        <time>2024-04-07T13:08:31Z</time>
      </trkpt>
      <trkpt lat="43.69558" lon="7.28337">
        <ele>11</ele>
        <time>2024-04-07T13:08:41Z</time>
      </trkpt>
      <trkpt lat="43.69673" lon="7.28358">
        <ele>9</ele>
        <time>2024-04-07T13:09:01Z</time>
      </trkpt>
      <trkpt lat="43.69693" lon="7.28357">
        <ele>10</ele>
        <time>2024-04-07T13:09:05Z</time>
      </trkpt>
      <trkpt lat="43.69814" lon="7.28377">
        <ele>10</ele>
        <time>2024-04-07T13:09:27Z</time>
      </trkpt>
      <trkpt lat="43.69832" lon="7.28382">
        <ele>10</ele>
        <time>2024-04-07T13:09:30Z</time>
      </trkpt>
      <trkpt lat="43.69838" lon="7.28386">
        <ele>10</ele>
        <time>2024-04-07T13:09:31Z</time>
      </trkpt>
      <trkpt lat="43.69845" lon="7.28396">
        <ele>10</ele>
        <time>2024-04-07T13:09:33Z</time>
      </trkpt>
      <trkpt lat="43.69851" lon="7.28415">
        <ele>9</ele>
        <time>2024-04-07T13:09:35Z</time>
      </trkpt>
      <trkpt lat="43.69844" lon="7.2851">
        <ele>7</ele>
        <time>2024-04-07T13:09:48Z</time>
      </trkpt>
      <trkpt lat="43.69832" lon="7.28628">
        <ele>10</ele>
        <time>2024-04-07T13:10:03Z</time>
      </trkpt>
      <trkpt lat="43.69833" lon="7.28638">
        <ele>10</ele>
        <time>2024-04-07T13:10:04Z</time>
      </trkpt>
      <trkpt lat="43.69815" lon="7.28813">
        <ele>17</ele>
        <time>2024-04-07T13:10:27Z</time>
      </trkpt>
      <trkpt lat="43.69808" lon="7.28847">
        <ele>18</ele>
        <time>2024-04-07T13:10:32Z</time>
      </trkpt>
      <trkpt lat="43.69798" lon="7.28866">
        <ele>19</ele>
        <time>2024-04-07T13:10:35Z</time>
      </trkpt>
      <trkpt lat="43.6979" lon="7.28875">
        <ele>20</ele>
        <time>2024-04-07T13:10:36Z</time>
      </trkpt>
      <trkpt lat="43.69784" lon="7.28879">
        <ele>20</ele>
        <time>2024-04-07T13:10:38Z</time>
      </trkpt>
      <trkpt lat="43.69769" lon="7.28885">
        <ele>21</ele>
        <time>2024-04-07T13:10:40Z</time>
      </trkpt>
      <trkpt lat="43.69711" lon="7.2889">
        <ele>24</ele>
        <time>2024-04-07T13:10:51Z</time>
      </trkpt>
      <trkpt lat="43.69692" lon="7.28902">
        <ele>26</ele>
        <time>2024-04-07T13:10:54Z</time>
      </trkpt>
      <trkpt lat="43.69681" lon="7.28917">
        <ele>29</ele>
        <time>2024-04-07T13:10:57Z</time>
      </trkpt>
      <trkpt lat="43.69675" lon="7.28932">
        <ele>30</ele>
        <time>2024-04-07T13:10:59Z</time>
      </trkpt>
      <trkpt lat="43.6967" lon="7.28957">
        <ele>31</ele>
        <time>2024-04-07T13:11:03Z</time>
      </trkpt>
      <trkpt lat="43.69666" lon="7.29118">
        <ele>39</ele>
        <time>2024-04-07T13:11:24Z</time>
      </trkpt>
      <trkpt lat="43.69663" lon="7.29146">
        <ele>40</ele>
        <time>2024-04-07T13:11:27Z</time>
      </trkpt>
      <trkpt lat="43.69661" lon="7.29159">
        <ele>41</ele>
        <time>2024-04-07T13:11:29Z</time>
      </trkpt>
      <trkpt lat="43.69646" lon="7.29198">
        <ele>43</ele>
        <time>2024-04-07T13:11:35Z</time>
      </trkpt>
      <trkpt lat="43.69632" lon="7.29216">
        <ele>44</ele>
        <time>2024-04-07T13:11:38Z</time>
      </trkpt>
      <trkpt lat="43.69586" lon="7.29272">
        <ele>45</ele>
        <time>2024-04-07T13:11:49Z</time>
      </trkpt>
      <trkpt lat="43.69557" lon="7.293">
        <ele>47</ele>
        <time>2024-04-07T13:11:55Z</time>
      </trkpt>
      <trkpt lat="43.69544" lon="7.29311">
        <ele>48</ele>
        <time>2024-04-07T13:11:58Z</time>
      </trkpt>
      <trkpt lat="43.69502" lon="7.29334">
        <ele>47</ele>
        <time>2024-04-07T13:12:06Z</time>
      </trkpt>
      <trkpt lat="43.69443" lon="7.29356">
        <ele>51</ele>
        <time>2024-04-07T13:12:17Z</time>
      </trkpt>
      <trkpt lat="43.69433" lon="7.29357">
        <ele>51</ele>
        <time>2024-04-07T13:12:19Z</time>
      </trkpt>
      <trkpt lat="43.69413" lon="7.29353">
        <ele>50</ele>
        <time>2024-04-07T13:12:22Z</time>
      </trkpt>
      <trkpt lat="43.69349" lon="7.29318">
        <ele>46</ele>
        <time>2024-04-07T13:12:34Z</time>
      </trkpt>
      <trkpt lat="43.69339" lon="7.29314">
        <ele>46</ele>
        <time>2024-04-07T13:12:36Z</time>
      </trkpt>
      <trkpt lat="43.69319" lon="7.29309">
        <ele>45</ele>
        <time>2024-04-07T13:12:40Z</time>
      </trkpt>
      <trkpt lat="43.69296" lon="7.29311">
        <ele>44</ele>
        <time>2024-04-07T13:12:44Z</time>
      </trkpt>
      <trkpt lat="43.69249" lon="7.29324">
        <ele>46</ele>
        <time>2024-04-07T13:12:52Z</time>
      </trkpt>
      <trkpt lat="43.69233" lon="7.2933">
        <ele>43</ele>
        <time>2024-04-07T13:12:55Z</time>
      </trkpt>
      <trkpt lat="43.6922" lon="7.29344">
        <ele>43</ele>
        <time>2024-04-07T13:12:58Z</time>
      </trkpt>
      <trkpt lat="43.6921" lon="7.29364">
        <ele>45</ele>
        <time>2024-04-07T13:13:01Z</time>
      </trkpt>
      <trkpt lat="43.69189" lon="7.29433">
        <ele>53</ele>
        <time>2024-04-07T13:13:11Z</time>
      </trkpt>
      <trkpt lat="43.69177" lon="7.29459">
        <ele>56</ele>
        <time>2024-04-07T13:13:15Z</time>
      </trkpt>
      <trkpt lat="43.69161" lon="7.29483">
        <ele>59</ele>
        <time>2024-04-07T13:13:19Z</time>
      </trkpt>
      <trkpt lat="43.69133" lon="7.29507">
        <ele>61</ele>
        <time>2024-04-07T13:13:25Z</time>
      </trkpt>
      <trkpt lat="43.69111" lon="7.29518">
        <ele>61</ele>
        <time>2024-04-07T13:13:29Z</time>
      </trkpt>
      <trkpt lat="43.69069" lon="7.29528">
        <ele>59</ele>
        <time>2024-04-07T13:13:37Z</time>
      </trkpt>
      <trkpt lat="43.69009" lon="7.29546">
        <ele>60</ele>
        <time>2024-04-07T13:13:48Z</time>
      </trkpt>
      <trkpt lat="43.68834" lon="7.29567">
        <ele>68</ele>
        <time>2024-04-07T13:14:19Z</time>
      </trkpt>
      <trkpt lat="43.68824" lon="7.29573">
        <ele>68</ele>
        <time>2024-04-07T13:14:21Z</time>
      </trkpt>
      <trkpt lat="43.68817" lon="7.29581">
        <ele>69</ele>
        <time>2024-04-07T13:14:23Z</time>
      </trkpt>
      <trkpt lat="43.68805" lon="7.29602">
        <ele>69</ele>
        <time>2024-04-07T13:14:26Z</time>
      </trkpt>
      <trkpt lat="43.68802" lon="7.29613">
        <ele>68</ele>
        <time>2024-04-07T13:14:28Z</time>
      </trkpt>
      <trkpt lat="43.68796" lon="7.29637">
        <ele>68</ele>
        <time>2024-04-07T13:14:31Z</time>
      </trkpt>
      <trkpt lat="43.68742" lon="7.29885">
        <ele>67</ele>
        <time>2024-04-07T13:15:04Z</time>
      </trkpt>
      <trkpt lat="43.68674" lon="7.30211">
        <ele>58</ele>
        <time>2024-04-07T13:15:48Z</time>
      </trkpt>
      <trkpt lat="43.6866" lon="7.30259">
        <ele>57</ele>
        <time>2024-04-07T13:15:54Z</time>
      </trkpt>
      <trkpt lat="43.68634" lon="7.30309">
        <ele>49</ele>
        <time>2024-04-07T13:16:02Z</time>
      </trkpt>
      <trkpt lat="43.68629" lon="7.30327">
        <ele>48</ele>
        <time>2024-04-07T13:16:05Z</time>
      </trkpt>
      <trkpt lat="43.68623" lon="7.30366">
        <ele>50</ele>
        <time>2024-04-07T13:16:10Z</time>
      </trkpt>
      <trkpt lat="43.68622" lon="7.30409">
        <ele>55</ele>
        <time>2024-04-07T13:16:16Z</time>
      </trkpt>
      <trkpt lat="43.68627" lon="7.30454">
        <ele>53</ele>
        <time>2024-04-07T13:16:21Z</time>
      </trkpt>
      <trkpt lat="43.68635" lon="7.30485">
        <ele>53</ele>
        <time>2024-04-07T13:16:26Z</time>
      </trkpt>
      <trkpt lat="43.68646" lon="7.30509">
        <ele>54</ele>
        <time>2024-04-07T13:16:29Z</time>
      </trkpt>
      <trkpt lat="43.68666" lon="7.30531">
        <ele>57</ele>
        <time>2024-04-07T13:16:34Z</time>
      </trkpt>
      <trkpt lat="43.68756" lon="7.30617">
        <ele>62</ele>
        <time>2024-04-07T13:16:53Z</time>
      </trkpt>
      <trkpt lat="43.688" lon="7.30654">
        <ele>61</ele>
        <time>2024-04-07T13:17:02Z</time>
      </trkpt>
      <trkpt lat="43.68818" lon="7.30666">
        <ele>63</ele>
        <time>2024-04-07T13:17:06Z</time>
      </trkpt>
      <trkpt lat="43.6887" lon="7.30691">
        <ele>62</ele>
        <time>2024-04-07T13:17:16Z</time>
      </trkpt>
      <trkpt lat="43.68897" lon="7.30701">
        <ele>61</ele>
        <time>2024-04-07T13:17:21Z</time>
      </trkpt>
      <trkpt lat="43.6891" lon="7.30704">
        <ele>61</ele>
        <time>2024-04-07T13:17:23Z</time>
      </trkpt>
      <trkpt lat="43.68933" lon="7.30705">
        <ele>62</ele>
        <time>2024-04-07T13:17:27Z</time>
      </trkpt>
      <trkpt lat="43.68989" lon="7.30699">
        <ele>65</ele>
        <time>2024-04-07T13:17:37Z</time>
      </trkpt>
      <trkpt lat="43.6912" lon="7.30704">
        <ele>59</ele>
        <time>2024-04-07T13:18:01Z</time>
      </trkpt>
      <trkpt lat="43.69243" lon="7.30705">
        <ele>61</ele>
        <time>2024-04-07T13:18:22Z</time>
      </trkpt>
      <trkpt lat="43.69315" lon="7.30696">
        <ele>56</ele>
        <time>2024-04-07T13:18:35Z</time>
      </trkpt>
      <trkpt lat="43.69346" lon="7.3068">
        <ele>57</ele>
        <time>2024-04-07T13:18:41Z</time>
      </trkpt>
      <trkpt lat="43.69365" lon="7.30665">
        <ele>57</ele>
        <time>2024-04-07T13:18:45Z</time>
      </trkpt>
      <trkpt lat="43.69378" lon="7.30652">
        <ele>58</ele>
        <time>2024-04-07T13:18:48Z</time>
      </trkpt>
      <trkpt lat="43.69395" lon="7.30631">
        <ele>61</ele>
        <time>2024-04-07T13:18:52Z</time>
      </trkpt>
      <trkpt lat="43.69439" lon="7.30571">
        <ele>72</ele>
        <time>2024-04-07T13:19:03Z</time>
      </trkpt>
      <trkpt lat="43.69457" lon="7.30553">
        <ele>75</ele>
        <time>2024-04-07T13:19:07Z</time>
      </trkpt>
      <trkpt lat="43.69607" lon="7.3048">
        <ele>82</ele>
        <time>2024-04-07T13:19:35Z</time>
      </trkpt>
      <trkpt lat="43.69627" lon="7.30473">
        <ele>82</ele>
        <time>2024-04-07T13:19:39Z</time>
      </trkpt>
      <trkpt lat="43.6964" lon="7.30471">
        <ele>81</ele>
        <time>2024-04-07T13:19:41Z</time>
      </trkpt>
      <trkpt lat="43.69709" lon="7.30471">
        <ele>70</ele>
        <time>2024-04-07T13:19:54Z</time>
      </trkpt>
      <trkpt lat="43.69787" lon="7.30452">
        <ele>74</ele>
        <time>2024-04-07T13:20:08Z</time>
      </trkpt>
      <trkpt lat="43.69806" lon="7.30456">
        <ele>71</ele>
        <time>2024-04-07T13:20:11Z</time>
      </trkpt>
      <trkpt lat="43.69826" lon="7.3047">
        <ele>66</ele>
        <time>2024-04-07T13:20:15Z</time>
      </trkpt>
      <trkpt lat="43.69856" lon="7.30497">
        <ele>59</ele>
        <time>2024-04-07T13:20:21Z</time>
      </trkpt>
      <trkpt lat="43.69885" lon="7.30518">
        <ele>55</ele>
        <time>2024-04-07T13:20:27Z</time>
      </trkpt>
      <trkpt lat="43.69883" lon="7.30526">
        <ele>52</ele>
        <time>2024-04-07T13:20:28Z</time>
      </trkpt>
      <trkpt lat="43.69879" lon="7.30528">
        <ele>51</ele>
        <time>2024-04-07T13:20:29Z</time>
      </trkpt>
      <trkpt lat="43.69873" lon="7.30525">
        <ele>52</ele>
        <time>2024-04-07T13:20:30Z</time>
      </trkpt>
      <trkpt lat="43.69833" lon="7.30526">
        <ele>49</ele>
        <time>2024-04-07T13:20:37Z</time>
      </trkpt>
      <trkpt lat="43.69814" lon="7.30524">
        <ele>48</ele>
        <time>2024-04-07T13:20:41Z</time>
      </trkpt>
      <trkpt lat="43.69775" lon="7.30508">
        <ele>48</ele>
        <time>2024-04-07T13:20:48Z</time>
      </trkpt>
      <trkpt lat="43.6976" lon="7.30504">
        <ele>48</ele>
        <time>2024-04-07T13:20:51Z</time>
      </trkpt>
      <trkpt lat="43.69743" lon="7.30507">
        <ele>47</ele>
        <time>2024-04-07T13:20:54Z</time>
      </trkpt>
      <trkpt lat="43.6976" lon="7.30504">
        <ele>48</ele>
        <time>2024-04-07T13:20:57Z</time>
      </trkpt>
      <trkpt lat="43.69775" lon="7.30508">
        <ele>48</ele>
        <time>2024-04-07T13:20:59Z</time>
      </trkpt>
      <trkpt lat="43.69814" lon="7.30524">
        <ele>48</ele>
        <time>2024-04-07T13:21:07Z</time>
      </trkpt>
      <trkpt lat="43.69833" lon="7.30526">
        <ele>49</ele>
        <time>2024-04-07T13:21:10Z</time>
      </trkpt>
      <trkpt lat="43.69873" lon="7.30525">
        <ele>52</ele>
        <time>2024-04-07T13:21:17Z</time>
      </trkpt>
      <trkpt lat="43.69879" lon="7.30528">
        <ele>51</ele>
        <time>2024-04-07T13:21:18Z</time>
      </trkpt>
      <trkpt lat="43.69883" lon="7.30526">
        <ele>52</ele>
        <time>2024-04-07T13:21:19Z</time>
      </trkpt>
      <trkpt lat="43.69885" lon="7.30518">
        <ele>55</ele>
        <time>2024-04-07T13:21:20Z</time>
      </trkpt>
      <trkpt lat="43.69907" lon="7.3053">
        <ele>53</ele>
        <time>2024-04-07T13:21:24Z</time>
      </trkpt>
      <trkpt lat="43.69928" lon="7.30537">
        <ele>52</ele>
        <time>2024-04-07T13:21:28Z</time>
      </trkpt>
      <trkpt lat="43.70001" lon="7.30555">
        <ele>55</ele>
        <time>2024-04-07T13:21:41Z</time>
      </trkpt>
      <trkpt lat="43.70057" lon="7.30573">
        <ele>55</ele>
        <time>2024-04-07T13:21:52Z</time>
      </trkpt>
      <trkpt lat="43.70083" lon="7.30589">
        <ele>53</ele>
        <time>2024-04-07T13:21:57Z</time>
      </trkpt>
      <trkpt lat="43.70103" lon="7.30605">
        <ele>53</ele>
        <time>2024-04-07T13:22:01Z</time>
      </trkpt>
      <trkpt lat="43.70122" lon="7.30625">
        <ele>52</ele>
        <time>2024-04-07T13:22:05Z</time>
      </trkpt>
      <trkpt lat="43.70244" lon="7.30826">
        <ele>50</ele>
        <time>2024-04-07T13:22:39Z</time>
      </trkpt>
      <trkpt lat="43.70275" lon="7.30869">
        <ele>51</ele>
        <time>2024-04-07T13:22:47Z</time>
      </trkpt>
      <trkpt lat="43.70292" lon="7.30887">
        <ele>51</ele>
        <time>2024-04-07T13:22:50Z</time>
      </trkpt>
      <trkpt lat="43.70305" lon="7.30896">
        <ele>52</ele>
        <time>2024-04-07T13:22:53Z</time>
      </trkpt>
      <trkpt lat="43.70322" lon="7.30904">
        <ele>52</ele>
        <time>2024-04-07T13:22:56Z</time>
      </trkpt>
      <trkpt lat="43.7043" lon="7.30939">
        <ele>54</ele>
        <time>2024-04-07T13:23:16Z</time>
      </trkpt>
      <trkpt lat="43.70466" lon="7.30948">
        <ele>57</ele>
        <time>2024-04-07T13:23:22Z</time>
      </trkpt>
      <trkpt lat="43.70506" lon="7.30947">
        <ele>62</ele>
        <time>2024-04-07T13:23:30Z</time>
      </trkpt>
      <trkpt lat="43.70517" lon="7.30949">
        <ele>63</ele>
        <time>2024-04-07T13:23:32Z</time>
      </trkpt>
      <trkpt lat="43.70541" lon="7.30956">
        <ele>65</ele>
        <time>2024-04-07T13:23:36Z</time>
      </trkpt>
      <trkpt lat="43.70572" lon="7.30962">
        <ele>67</ele>
        <time>2024-04-07T13:23:42Z</time>
      </trkpt>
      <trkpt lat="43.70582" lon="7.30968">
        <ele>67</ele>
        <time>2024-04-07T13:23:43Z</time>
      </trkpt>
      <trkpt lat="43.70589" lon="7.30978">
        <ele>66</ele>
        <time>2024-04-07T13:23:45Z</time>
      </trkpt>
      <trkpt lat="43.70592" lon="7.30989">
        <ele>64</ele>
        <time>2024-04-07T13:23:47Z</time>
      </trkpt>
      <trkpt lat="43.70587" lon="7.31073">
        <ele>64</ele>
        <time>2024-04-07T13:23:58Z</time>
      </trkpt>
      <trkpt lat="43.7059" lon="7.31095">
        <ele>65</ele>
        <time>2024-04-07T13:24:00Z</time>
      </trkpt>
      <trkpt lat="43.70593" lon="7.31103">
        <ele>65</ele>
        <time>2024-04-07T13:24:02Z</time>
      </trkpt>
      <trkpt lat="43.70639" lon="7.31165">
        <ele>73</ele>
        <time>2024-04-07T13:24:13Z</time>
      </trkpt>
      <trkpt lat="43.70655" lon="7.31182">
        <ele>73</ele>
        <time>2024-04-07T13:24:17Z</time>
      </trkpt>
      <trkpt lat="43.70671" lon="7.31196">
        <ele>74</ele>
        <time>2024-04-07T13:24:20Z</time>
      </trkpt>
      <trkpt lat="43.70697" lon="7.31217">
        <ele>75</ele>
        <time>2024-04-07T13:24:25Z</time>
      </trkpt>
      <trkpt lat="43.70742" lon="7.31237">
        <ele>79</ele>
        <time>2024-04-07T13:24:34Z</time>
      </trkpt>
      <trkpt lat="43.70788" lon="7.31271">
        <ele>81</ele>
        <time>2024-04-07T13:24:43Z</time>
      </trkpt>
      <trkpt lat="43.70799" lon="7.31286">
        <ele>80</ele>
        <time>2024-04-07T13:24:46Z</time>
      </trkpt>
      <trkpt lat="43.70803" lon="7.31298">
        <ele>79</ele>
        <time>2024-04-07T13:24:48Z</time>
      </trkpt>
      <trkpt lat="43.70828" lon="7.31382">
        <ele>76</ele>
        <time>2024-04-07T13:24:59Z</time>
      </trkpt>
      <trkpt lat="43.70827" lon="7.31406">
        <ele>75</ele>
        <time>2024-04-07T13:25:02Z</time>
      </trkpt>
      <trkpt lat="43.70815" lon="7.31467">
        <ele>70</ele>
        <time>2024-04-07T13:25:10Z</time>
      </trkpt>
      <trkpt lat="43.70807" lon="7.31526">
        <ele>70</ele>
        <time>2024-04-07T13:25:18Z</time>
      </trkpt>
      <trkpt lat="43.70803" lon="7.3154">
        <ele>70</ele>
        <time>2024-04-07T13:25:20Z</time>
      </trkpt>
      <trkpt lat="43.70799" lon="7.31548">
        <ele>69</ele>
        <time>2024-04-07T13:25:21Z</time>
      </trkpt>
      <trkpt lat="43.7077" lon="7.31582">
        <ele>56</ele>
        <time>2024-04-07T13:25:28Z</time>
      </trkpt>
      <trkpt lat="43.70759" lon="7.31601">
        <ele>54</ele>
        <time>2024-04-07T13:25:31Z</time>
      </trkpt>
      <trkpt lat="43.70722" lon="7.31676">
        <ele>53</ele>
        <time>2024-04-07T13:25:43Z</time>
      </trkpt>
      <trkpt lat="43.70716" lon="7.31695">
        <ele>51</ele>
        <time>2024-04-07T13:25:46Z</time>
      </trkpt>
      <trkpt lat="43.70715" lon="7.31707">
        <ele>51</ele>
        <time>2024-04-07T13:25:47Z</time>
      </trkpt>
      <trkpt lat="43.70723" lon="7.31762">
        <ele>61</ele>
        <time>2024-04-07T13:25:54Z</time>
      </trkpt>
      <trkpt lat="43.70724" lon="7.31771">
        <ele>63</ele>
        <time>2024-04-07T13:25:56Z</time>
      </trkpt>
      <trkpt lat="43.70722" lon="7.31788">
        <ele>65</ele>
        <time>2024-04-07T13:25:58Z</time>
      </trkpt>
      <trkpt lat="43.70672" lon="7.31892">
        <ele>56</ele>
        <time>2024-04-07T13:26:14Z</time>
      </trkpt>
      <trkpt lat="43.70634" lon="7.31944">
        <ele>52</ele>
        <time>2024-04-07T13:26:23Z</time>
      </trkpt>
      <trkpt lat="43.70618" lon="7.31963">
        <ele>49</ele>
        <time>2024-04-07T13:26:27Z</time>
      </trkpt>
      <trkpt lat="43.70573" lon="7.32007">
        <ele>41</ele>
        <time>2024-04-07T13:26:37Z</time>
      </trkpt>
      <trkpt lat="43.70563" lon="7.32021">
        <ele>41</ele>
        <time>2024-04-07T13:26:39Z</time>
      </trkpt>
      <trkpt lat="43.70532" lon="7.32075">
        <ele>44</ele>
        <time>2024-04-07T13:26:48Z</time>
      </trkpt>
      <trkpt lat="43.70506" lon="7.32113">
        <ele>45</ele>
        <time>2024-04-07T13:26:55Z</time>
      </trkpt>
      <trkpt lat="43.7048" lon="7.32139">
        <ele>46</ele>
        <time>2024-04-07T13:27:01Z</time>
      </trkpt>
      <trkpt lat="43.70467" lon="7.32149">
        <ele>46</ele>
        <time>2024-04-07T13:27:03Z</time>
      </trkpt>
      <trkpt lat="43.70437" lon="7.32167">
        <ele>42</ele>
        <time>2024-04-07T13:27:09Z</time>
      </trkpt>
      <trkpt lat="43.7042" lon="7.32181">
        <ele>40</ele>
        <time>2024-04-07T13:27:13Z</time>
      </trkpt>
      <trkpt lat="43.70403" lon="7.32206">
        <ele>43</ele>
        <time>2024-04-07T13:27:17Z</time>
      </trkpt>
      <trkpt lat="43.70369" lon="7.32263">
        <ele>44</ele>
        <time>2024-04-07T13:27:27Z</time>
      </trkpt>
      <trkpt lat="43.70326" lon="7.32364">
        <ele>39</ele>
        <time>2024-04-07T13:27:42Z</time>
      </trkpt>
      <trkpt lat="43.70309" lon="7.32399">
        <ele>37</ele>
        <time>2024-04-07T13:27:47Z</time>
      </trkpt>
      <trkpt lat="43.70282" lon="7.32443">
        <ele>37</ele>
        <time>2024-04-07T13:27:55Z</time>
      </trkpt>
      <trkpt lat="43.70203" lon="7.32548">
        <ele>32</ele>
        <time>2024-04-07T13:28:14Z</time>
      </trkpt>
      <trkpt lat="43.7019" lon="7.32562">
        <ele>30</ele>
        <time>2024-04-07T13:28:17Z</time>
      </trkpt>
      <trkpt lat="43.70183" lon="7.32575">
        <ele>30</ele>
        <time>2024-04-07T13:28:19Z</time>
      </trkpt>
      <trkpt lat="43.70179" lon="7.3259">
        <ele>29</ele>
        <time>2024-04-07T13:28:21Z</time>
      </trkpt>
      <trkpt lat="43.70174" lon="7.32629">
        <ele>29</ele>
        <time>2024-04-07T13:28:26Z</time>
      </trkpt>
      <trkpt lat="43.70169" lon="7.32649">
        <ele>28</ele>
        <time>2024-04-07T13:28:29Z</time>
      </trkpt>
      <trkpt lat="43.70165" lon="7.32656">
        <ele>28</ele>
        <time>2024-04-07T13:28:30Z</time>
      </trkpt>
      <trkpt lat="43.70152" lon="7.32663">
        <ele>28</ele>
        <time>2024-04-07T13:28:33Z</time>
      </trkpt>
      <trkpt lat="43.70147" lon="7.32663">
        <ele>28</ele>
        <time>2024-04-07T13:28:33Z</time>
      </trkpt>
      <trkpt lat="43.70151" lon="7.32682">
        <ele>26</ele>
        <time>2024-04-07T13:28:36Z</time>
      </trkpt>
      <trkpt lat="43.70212" lon="7.32857">
        <ele>15</ele>
        <time>2024-04-07T13:29:01Z</time>
      </trkpt>
      <trkpt lat="43.70231" lon="7.32909">
        <ele>14</ele>
        <time>2024-04-07T13:29:08Z</time>
      </trkpt>
      <trkpt lat="43.70292" lon="7.32959">
        <ele>12</ele>
        <time>2024-04-07T13:29:21Z</time>
      </trkpt>
      <trkpt lat="43.70303" lon="7.32969">
        <ele>11</ele>
        <time>2024-04-07T13:29:23Z</time>
      </trkpt>
      <trkpt lat="43.7033" lon="7.33007">
        <ele>11</ele>
        <time>2024-04-07T13:29:30Z</time>
      </trkpt>
      <trkpt lat="43.70395" lon="7.33114">
        <ele>10</ele>
        <time>2024-04-07T13:29:48Z</time>
      </trkpt>
      <trkpt lat="43.70412" lon="7.33161">
        <ele>8</ele>
        <time>2024-04-07T13:29:55Z</time>
      </trkpt>
      <trkpt lat="43.70419" lon="7.33187">
        <ele>8</ele>
        <time>2024-04-07T13:29:59Z</time>
      </trkpt>
      <trkpt lat="43.70425" lon="7.33239">
        <ele>8</ele>
        <time>2024-04-07T13:30:05Z</time>
      </trkpt>
      <trkpt lat="43.70429" lon="7.3325">
        <ele>8</ele>
        <time>2024-04-07T13:30:07Z</time>
      </trkpt>
      <trkpt lat="43.70436" lon="7.33262">
        <ele>10</ele>
        <time>2024-04-07T13:30:09Z</time>
      </trkpt>
      <trkpt lat="43.70467" lon="7.33301">
        <ele>15</ele>
        <time>2024-04-07T13:30:16Z</time>
      </trkpt>
      <trkpt lat="43.70514" lon="7.33366">
        <ele>19</ele>
        <time>2024-04-07T13:30:28Z</time>
      </trkpt>
      <trkpt lat="43.70519" lon="7.33371">
        <ele>19</ele>
        <time>2024-04-07T13:30:29Z</time>
      </trkpt>
      <trkpt lat="43.70528" lon="7.33376">
        <ele>19</ele>
        <time>2024-04-07T13:30:31Z</time>
      </trkpt>
      <trkpt lat="43.7053" lon="7.33389">
        <ele>19</ele>
        <time>2024-04-07T13:30:33Z</time>
      </trkpt>
      <trkpt lat="43.70537" lon="7.33405">
        <ele>19</ele>
        <time>2024-04-07T13:30:35Z</time>
      </trkpt>
      <trkpt lat="43.70574" lon="7.3345">
        <ele>16</ele>
        <time>2024-04-07T13:30:44Z</time>
      </trkpt>
      <trkpt lat="43.70588" lon="7.33473">
        <ele>14</ele>
        <time>2024-04-07T13:30:48Z</time>
      </trkpt>
      <trkpt lat="43.70596" lon="7.33495">
        <ele>13</ele>
        <time>2024-04-07T13:30:51Z</time>
      </trkpt>
      <trkpt lat="43.70603" lon="7.33508">
        <ele>12</ele>
        <time>2024-04-07T13:30:53Z</time>
      </trkpt>
      <trkpt lat="43.7061" lon="7.33515">
        <ele>11</ele>
        <time>2024-04-07T13:30:55Z</time>
      </trkpt>
      <trkpt lat="43.70621" lon="7.33521">
        <ele>10</ele>
        <time>2024-04-07T13:30:57Z</time>
      </trkpt>
      <trkpt lat="43.70642" lon="7.33519">
        <ele>10</ele>
        <time>2024-04-07T13:31:00Z</time>
      </trkpt>
      <trkpt lat="43.70665" lon="7.33511">
        <ele>10</ele>
        <time>2024-04-07T13:31:05Z</time>
      </trkpt>
      <trkpt lat="43.70752" lon="7.33443">
        <ele>8</ele>
        <time>2024-04-07T13:31:22Z</time>
      </trkpt>
      <trkpt lat="43.7077" lon="7.33436">
        <ele>9</ele>
        <time>2024-04-07T13:31:26Z</time>
      </trkpt>
      <trkpt lat="43.70774" lon="7.3344">
        <ele>8</ele>
        <time>2024-04-07T13:31:27Z</time>
      </trkpt>
      <trkpt lat="43.70778" lon="7.33439">
        <ele>9</ele>
        <time>2024-04-07T13:31:27Z</time>
      </trkpt>
      <trkpt lat="43.70788" lon="7.33441">
        <ele>8</ele>
        <time>2024-04-07T13:31:29Z</time>
      </trkpt>
      <trkpt lat="43.70823" lon="7.33456">
        <ele>6</ele>
        <time>2024-04-07T13:31:36Z</time>
      </trkpt>
      <trkpt lat="43.7084" lon="7.33461">
        <ele>6</ele>
        <time>2024-04-07T13:31:39Z</time>
      </trkpt>
      <trkpt lat="43.70901" lon="7.33472">
        <ele>6</ele>
        <time>2024-04-07T13:31:50Z</time>
      </trkpt>
      <trkpt lat="43.70923" lon="7.33481">
        <ele>6</ele>
        <time>2024-04-07T13:31:54Z</time>
      </trkpt>
      <trkpt lat="43.70978" lon="7.33524">
        <ele>6</ele>
        <time>2024-04-07T13:32:05Z</time>
      </trkpt>
      <trkpt lat="43.70997" lon="7.33532">
        <ele>6</ele>
        <time>2024-04-07T13:32:09Z</time>
      </trkpt>
      <trkpt lat="43.71015" lon="7.33538">
        <ele>7</ele>
        <time>2024-04-07T13:32:12Z</time>
      </trkpt>
      <trkpt lat="43.71059" lon="7.3354">
        <ele>10</ele>
        <time>2024-04-07T13:32:20Z</time>
      </trkpt>
      <trkpt lat="43.71089" lon="7.33552">
        <ele>11</ele>
        <time>2024-04-07T13:32:25Z</time>
      </trkpt>
      <trkpt lat="43.71125" lon="7.33574">
        <ele>12</ele>
        <time>2024-04-07T13:32:32Z</time>
      </trkpt>
      <trkpt lat="43.71194" lon="7.33626">
        <ele>18</ele>
        <time>2024-04-07T13:32:46Z</time>
      </trkpt>
      <trkpt lat="43.71221" lon="7.33664">
        <ele>20</ele>
        <time>2024-04-07T13:32:53Z</time>
      </trkpt>
      <trkpt lat="43.7124" lon="7.33703">
        <ele>20</ele>
        <time>2024-04-07T13:32:59Z</time>
      </trkpt>
      <trkpt lat="43.71273" lon="7.33758">
        <ele>22</ele>
        <time>2024-04-07T13:33:08Z</time>
      </trkpt>
      <trkpt lat="43.71319" lon="7.3387">
        <ele>22</ele>
        <time>2024-04-07T13:33:25Z</time>
      </trkpt>
      <trkpt lat="43.71336" lon="7.33918">
        <ele>21</ele>
        <time>2024-04-07T13:33:32Z</time>
      </trkpt>
      <trkpt lat="43.71341" lon="7.33945">
        <ele>21</ele>
        <time>2024-04-07T13:33:35Z</time>
      </trkpt>
      <trkpt lat="43.71344" lon="7.34032">
        <ele>19</ele>
        <time>2024-04-07T13:33:47Z</time>
      </trkpt>
      <trkpt lat="43.71346" lon="7.34045">
        <ele>19</ele>
        <time>2024-04-07T13:33:48Z</time>
      </trkpt>
      <trkpt lat="43.71349" lon="7.34055">
        <ele>20</ele>
        <time>2024-04-07T13:33:50Z</time>
      </trkpt>
      <trkpt lat="43.71368" lon="7.34101">
        <ele>23</ele>
        <time>2024-04-07T13:33:56Z</time>
      </trkpt>
      <trkpt lat="43.71395" lon="7.34201">
        <ele>20</ele>
        <time>2024-04-07T13:34:10Z</time>
      </trkpt>
      <trkpt lat="43.71401" lon="7.34241">
        <ele>11</ele>
        <time>2024-04-07T13:34:15Z</time>
      </trkpt>
      <trkpt lat="43.71409" lon="7.34365">
        <ele>10</ele>
        <time>2024-04-07T13:34:31Z</time>
      </trkpt>
      <trkpt lat="43.71407" lon="7.34394">
        <ele>10</ele>
        <time>2024-04-07T13:34:35Z</time>
      </trkpt>
      <trkpt lat="43.71408" lon="7.34441">
        <ele>11</ele>
        <time>2024-04-07T13:34:41Z</time>
      </trkpt>
      <trkpt lat="43.71413" lon="7.34477">
        <ele>13</ele>
        <time>2024-04-07T13:34:46Z</time>
      </trkpt>
      <trkpt lat="43.7142" lon="7.34504">
        <ele>18</ele>
        <time>2024-04-07T13:34:50Z</time>
      </trkpt>
      <trkpt lat="43.71423" lon="7.34517">
        <ele>22</ele>
        <time>2024-04-07T13:34:51Z</time>
      </trkpt>
      <trkpt lat="43.71432" lon="7.346">
        <ele>32</ele>
        <time>2024-04-07T13:35:02Z</time>
      </trkpt>
      <trkpt lat="43.71431" lon="7.34638">
        <ele>30</ele>
        <time>2024-04-07T13:35:07Z</time>
      </trkpt>
      <trkpt lat="43.71433" lon="7.34664">
        <ele>32</ele>
        <time>2024-04-07T13:35:10Z</time>
      </trkpt>
      <trkpt lat="43.71443" lon="7.34744">
        <ele>40</ele>
        <time>2024-04-07T13:35:21Z</time>
      </trkpt>
      <trkpt lat="43.71451" lon="7.34824">
        <ele>40</ele>
        <time>2024-04-07T13:35:31Z</time>
      </trkpt>
      <trkpt lat="43.71462" lon="7.3486">
        <ele>43</ele>
        <time>2024-04-07T13:35:36Z</time>
      </trkpt>
      <trkpt lat="43.71483" lon="7.34895">
        <ele>50</ele>
        <time>2024-04-07T13:35:42Z</time>
      </trkpt>
      <trkpt lat="43.71501" lon="7.34927">
        <ele>51</ele>
        <time>2024-04-07T13:35:47Z</time>
      </trkpt>
      <trkpt lat="43.71504" lon="7.34936">
        <ele>48</ele>
        <time>2024-04-07T13:35:49Z</time>
      </trkpt>
      <trkpt lat="43.7151" lon="7.34974">
        <ele>32</ele>
        <time>2024-04-07T13:35:54Z</time>
      </trkpt>
      <trkpt lat="43.71522" lon="7.35031">
        <ele>19</ele>
        <time>2024-04-07T13:36:01Z</time>
      </trkpt>
      <trkpt lat="43.71529" lon="7.35052">
        <ele>17</ele>
        <time>2024-04-07T13:36:04Z</time>
      </trkpt>
      <trkpt lat="43.7154" lon="7.35072">
        <ele>14</ele>
        <time>2024-04-07T13:36:07Z</time>
      </trkpt>
      <trkpt lat="43.71553" lon="7.35082">
        <ele>13</ele>
        <time>2024-04-07T13:36:10Z</time>
      </trkpt>
      <trkpt lat="43.7156" lon="7.35085">
        <ele>12</ele>
        <time>2024-04-07T13:36:11Z</time>
      </trkpt>
      <trkpt lat="43.71575" lon="7.35085">
        <ele>13</ele>
        <time>2024-04-07T13:36:14Z</time>
      </trkpt>
      <trkpt lat="43.71588" lon="7.35079">
        <ele>15</ele>
        <time>2024-04-07T13:36:17Z</time>
      </trkpt>
      <trkpt lat="43.71602" lon="7.35067">
        <ele>18</ele>
        <time>2024-04-07T13:36:19Z</time>
      </trkpt>
      <trkpt lat="43.71676" lon="7.34969">
        <ele>34</ele>
        <time>2024-04-07T13:36:38Z</time>
      </trkpt>
      <trkpt lat="43.71691" lon="7.34948">
        <ele>38</ele>
        <time>2024-04-07T13:36:42Z</time>
      </trkpt>
      <trkpt lat="43.71703" lon="7.34934">
        <ele>39</ele>
        <time>2024-04-07T13:36:44Z</time>
      </trkpt>
      <trkpt lat="43.71715" lon="7.34924">
        <ele>39</ele>
        <time>2024-04-07T13:36:47Z</time>
      </trkpt>
      <trkpt lat="43.7173" lon="7.34916">
        <ele>37</ele>
        <time>2024-04-07T13:36:50Z</time>
      </trkpt>
      <trkpt lat="43.71743" lon="7.34913">
        <ele>35</ele>
        <time>2024-04-07T13:36:52Z</time>
      </trkpt>
      <trkpt lat="43.71759" lon="7.34917">
        <ele>32</ele>
        <time>2024-04-07T13:36:55Z</time>
      </trkpt>
      <trkpt lat="43.71773" lon="7.34925">
        <ele>31</ele>
        <time>2024-04-07T13:36:58Z</time>
      </trkpt>
      <trkpt lat="43.71792" lon="7.34946">
        <ele>30</ele>
        <time>2024-04-07T13:37:02Z</time>
      </trkpt>
      <trkpt lat="43.71866" lon="7.35066">
        <ele>26</ele>
        <time>2024-04-07T13:37:22Z</time>
      </trkpt>
      <trkpt lat="43.71872" lon="7.3508">
        <ele>25</ele>
        <time>2024-04-07T13:37:24Z</time>
      </trkpt>
      <trkpt lat="43.71951" lon="7.35204">
        <ele>20</ele>
        <time>2024-04-07T13:37:46Z</time>
      </trkpt>
      <trkpt lat="43.72084" lon="7.35421">
        <ele>22</ele>
        <time>2024-04-07T13:38:22Z</time>
      </trkpt>
      <trkpt lat="43.72175" lon="7.35561">
        <ele>24</ele>
        <time>2024-04-07T13:38:46Z</time>
      </trkpt>
      <trkpt lat="43.72195" lon="7.35585">
        <ele>24</ele>
        <time>2024-04-07T13:38:51Z</time>
      </trkpt>
      <trkpt lat="43.72228" lon="7.35617">
        <ele>26</ele>
        <time>2024-04-07T13:38:58Z</time>
      </trkpt>
      <trkpt lat="43.72233" lon="7.35627">
        <ele>26</ele>
        <time>2024-04-07T13:39:00Z</time>
      </trkpt>
      <trkpt lat="43.72256" lon="7.35679">
        <ele>25</ele>
        <time>2024-04-07T13:39:08Z</time>
      </trkpt>
      <trkpt lat="43.7227" lon="7.35719">
        <ele>28</ele>
        <time>2024-04-07T13:39:13Z</time>
      </trkpt>
      <trkpt lat="43.72276" lon="7.35748">
        <ele>29</ele>
        <time>2024-04-07T13:39:17Z</time>
      </trkpt>
      <trkpt lat="43.72298" lon="7.35926">
        <ele>25</ele>
        <time>2024-04-07T13:39:40Z</time>
      </trkpt>
      <trkpt lat="43.723" lon="7.35958">
        <ele>28</ele>
        <time>2024-04-07T13:39:45Z</time>
      </trkpt>
      <trkpt lat="43.72299" lon="7.35986">
        <ele>29</ele>
        <time>2024-04-07T13:39:48Z</time>
      </trkpt>
      <trkpt lat="43.72277" lon="7.3634">
        <ele>30</ele>
        <time>2024-04-07T13:40:34Z</time>
      </trkpt>
      <trkpt lat="43.72271" lon="7.36385">
        <ele>31</ele>
        <time>2024-04-07T13:40:40Z</time>
      </trkpt>
      <trkpt lat="43.72251" lon="7.36468">
        <ele>24</ele>
        <time>2024-04-07T13:40:51Z</time>
      </trkpt>
      <trkpt lat="43.72236" lon="7.36508">
        <ele>25</ele>
        <time>2024-04-07T13:40:57Z</time>
      </trkpt>
      <trkpt lat="43.72212" lon="7.36558">
        <ele>29</ele>
        <time>2024-04-07T13:41:05Z</time>
      </trkpt>
      <trkpt lat="43.72184" lon="7.366">
        <ele>26</ele>
        <time>2024-04-07T13:41:12Z</time>
      </trkpt>
      <trkpt lat="43.72117" lon="7.36694">
        <ele>27</ele>
        <time>2024-04-07T13:41:29Z</time>
      </trkpt>
      <trkpt lat="43.72094" lon="7.36732">
        <ele>28</ele>
        <time>2024-04-07T13:41:35Z</time>
      </trkpt>
      <trkpt lat="43.72082" lon="7.36757">
        <ele>27</ele>
        <time>2024-04-07T13:41:39Z</time>
      </trkpt>
      <trkpt lat="43.7206" lon="7.36819">
        <ele>37</ele>
        <time>2024-04-07T13:41:48Z</time>
      </trkpt>
      <trkpt lat="43.72045" lon="7.36856">
        <ele>40</ele>
        <time>2024-04-07T13:41:53Z</time>
      </trkpt>
      <trkpt lat="43.72032" lon="7.36894">
        <ele>42</ele>
        <time>2024-04-07T13:41:59Z</time>
      </trkpt>
      <trkpt lat="43.72022" lon="7.36948">
        <ele>49</ele>
        <time>2024-04-07T13:42:06Z</time>
      </trkpt>
      <trkpt lat="43.72018" lon="7.36992">
        <ele>59</ele>
        <time>2024-04-07T13:42:12Z</time>
      </trkpt>
      <trkpt lat="43.72009" lon="7.37008">
        <ele>57</ele>
        <time>2024-04-07T13:42:14Z</time>
      </trkpt>
      <trkpt lat="43.71998" lon="7.37036">
        <ele>56</ele>
        <time>2024-04-07T13:42:18Z</time>
      </trkpt>
      <trkpt lat="43.71974" lon="7.37063">
        <ele>49</ele>
        <time>2024-04-07T13:42:24Z</time>
      </trkpt>
      <trkpt lat="43.71957" lon="7.37077">
        <ele>41</ele>
        <time>2024-04-07T13:42:27Z</time>
      </trkpt>
      <trkpt lat="43.71873" lon="7.37238">
        <ele>34</ele>
        <time>2024-04-07T13:42:53Z</time>
      </trkpt>
      <trkpt lat="43.71866" lon="7.37258">
        <ele>32</ele>
        <time>2024-04-07T13:42:56Z</time>
      </trkpt>
      <trkpt lat="43.71862" lon="7.37286">
        <ele>31</ele>
        <time>2024-04-07T13:42:59Z</time>
      </trkpt>
      <trkpt lat="43.71862" lon="7.37293">
        <ele>31</ele>
        <time>2024-04-07T13:43:00Z</time>
      </trkpt>
      <trkpt lat="43.71866" lon="7.37309">
        <ele>34</ele>
        <time>2024-04-07T13:43:03Z</time>
      </trkpt>
      <trkpt lat="43.71897" lon="7.37374">
        <ele>50</ele>
        <time>2024-04-07T13:43:13Z</time>
      </trkpt>
      <trkpt lat="43.71918" lon="7.3743">
        <ele>55</ele>
        <time>2024-04-07T13:43:21Z</time>
      </trkpt>
      <trkpt lat="43.71962" lon="7.3751">
        <ele>66</ele>
        <time>2024-04-07T13:43:34Z</time>
      </trkpt>
      <trkpt lat="43.71966" lon="7.3752">
        <ele>65</ele>
        <time>2024-04-07T13:43:35Z</time>
      </trkpt>
      <trkpt lat="43.7198" lon="7.37589">
        <ele>48</ele>
        <time>2024-04-07T13:43:44Z</time>
      </trkpt>
      <trkpt lat="43.71988" lon="7.37609">
        <ele>45</ele>
        <time>2024-04-07T13:43:47Z</time>
      </trkpt>
      <trkpt lat="43.71995" lon="7.37615">
        <ele>46</ele>
        <time>2024-04-07T13:43:49Z</time>
      </trkpt>
      <trkpt lat="43.72014" lon="7.37624">
        <ele>56</ele>
        <time>2024-04-07T13:43:52Z</time>
      </trkpt>
      <trkpt lat="43.7203" lon="7.37636">
        <ele>62</ele>
        <time>2024-04-07T13:43:56Z</time>
      </trkpt>
      <trkpt lat="43.72037" lon="7.37638">
        <ele>67</ele>
        <time>2024-04-07T13:43:57Z</time>
      </trkpt>
      <trkpt lat="43.72042" lon="7.3766">
        <ele>61</ele>
        <time>2024-04-07T13:44:00Z</time>
      </trkpt>
      <trkpt lat="43.72047" lon="7.37673">
        <ele>59</ele>
        <time>2024-04-07T13:44:02Z</time>
      </trkpt>
      <trkpt lat="43.72066" lon="7.37717">
        <ele>51</ele>
        <time>2024-04-07T13:44:08Z</time>
      </trkpt>
      <trkpt lat="43.72076" lon="7.37732">
        <ele>48</ele>
        <time>2024-04-07T13:44:11Z</time>
      </trkpt>
      <trkpt lat="43.72115" lon="7.37768">
        <ele>57</ele>
        <time>2024-04-07T13:44:19Z</time>
      </trkpt>
      <trkpt lat="43.72156" lon="7.37819">
        <ele>60</ele>
        <time>2024-04-07T13:44:29Z</time>
      </trkpt>
      <trkpt lat="43.7219" lon="7.37849">
        <ele>63</ele>
        <time>2024-04-07T13:44:36Z</time>
      </trkpt>
      <trkpt lat="43.72198" lon="7.37859">
        <ele>63</ele>
        <time>2024-04-07T13:44:38Z</time>
      </trkpt>
      <trkpt lat="43.72207" lon="7.37882">
        <ele>60</ele>
        <time>2024-04-07T13:44:41Z</time>
      </trkpt>
      <trkpt lat="43.72215" lon="7.37949">
        <ele>49</ele>
        <time>2024-04-07T13:44:50Z</time>
      </trkpt>
      <trkpt lat="43.72221" lon="7.37964">
        <ele>49</ele>
        <time>2024-04-07T13:44:52Z</time>
      </trkpt>
      <trkpt lat="43.72232" lon="7.37975">
        <ele>51</ele>
        <time>2024-04-07T13:44:55Z</time>
      </trkpt>
      <trkpt lat="43.72241" lon="7.3798">
        <ele>53</ele>
        <time>2024-04-07T13:44:57Z</time>
      </trkpt>
      <trkpt lat="43.72285" lon="7.3799">
        <ele>58</ele>
        <time>2024-04-07T13:45:04Z</time>
      </trkpt>
      <trkpt lat="43.7239" lon="7.38007">
        <ele>62</ele>
        <time>2024-04-07T13:45:23Z</time>
      </trkpt>
      <trkpt lat="43.72403" lon="7.38001">
        <ele>63</ele>
        <time>2024-04-07T13:45:26Z</time>
      </trkpt>
      <trkpt lat="43.72442" lon="7.37975">
        <ele>76</ele>
        <time>2024-04-07T13:45:33Z</time>
      </trkpt>
      <trkpt lat="43.72454" lon="7.3797">
        <ele>80</ele>
        <time>2024-04-07T13:45:36Z</time>
      </trkpt>
      <trkpt lat="43.72472" lon="7.37973">
        <ele>81</ele>
        <time>2024-04-07T13:45:39Z</time>
      </trkpt>
      <trkpt lat="43.72483" lon="7.37978">
        <ele>81</ele>
        <time>2024-04-07T13:45:41Z</time>
      </trkpt>
      <trkpt lat="43.72492" lon="7.37986">
        <ele>80</ele>
        <time>2024-04-07T13:45:43Z</time>
      </trkpt>
      <trkpt lat="43.72501" lon="7.37997">
        <ele>78</ele>
        <time>2024-04-07T13:45:45Z</time>
      </trkpt>
      <trkpt lat="43.72525" lon="7.38056">
        <ele>78</ele>
        <time>2024-04-07T13:45:54Z</time>
      </trkpt>
      <trkpt lat="43.7253" lon="7.3807">
        <ele>78</ele>
        <time>2024-04-07T13:45:56Z</time>
      </trkpt>
      <trkpt lat="43.72533" lon="7.38085">
        <ele>78</ele>
        <time>2024-04-07T13:45:58Z</time>
      </trkpt>
      <trkpt lat="43.72532" lon="7.3811">
        <ele>78</ele>
        <time>2024-04-07T13:46:01Z</time>
      </trkpt>
      <trkpt lat="43.72528" lon="7.38131">
        <ele>78</ele>
        <time>2024-04-07T13:46:04Z</time>
      </trkpt>
      <trkpt lat="43.72523" lon="7.38139">
        <ele>77</ele>
        <time>2024-04-07T13:46:05Z</time>
      </trkpt>
      <trkpt lat="43.72513" lon="7.38149">
        <ele>76</ele>
        <time>2024-04-07T13:46:07Z</time>
      </trkpt>
      <trkpt lat="43.72498" lon="7.38159">
        <ele>74</ele>
        <time>2024-04-07T13:46:10Z</time>
      </trkpt>
      <trkpt lat="43.72458" lon="7.38177">
        <ele>72</ele>
        <time>2024-04-07T13:46:18Z</time>
      </trkpt>
      <trkpt lat="43.72377" lon="7.38219">
        <ele>66</ele>
        <time>2024-04-07T13:46:33Z</time>
      </trkpt>
      <trkpt lat="43.72363" lon="7.38232">
        <ele>63</ele>
        <time>2024-04-07T13:46:36Z</time>
      </trkpt>
      <trkpt lat="43.72347" lon="7.38254">
        <ele>61</ele>
        <time>2024-04-07T13:46:40Z</time>
      </trkpt>
      <trkpt lat="43.72339" lon="7.3827">
        <ele>60</ele>
        <time>2024-04-07T13:46:43Z</time>
      </trkpt>
      <trkpt lat="43.72333" lon="7.38289">
        <ele>60</ele>
        <time>2024-04-07T13:46:45Z</time>
      </trkpt>
      <trkpt lat="43.72332" lon="7.3831">
        <ele>63</ele>
        <time>2024-04-07T13:46:48Z</time>
      </trkpt>
      <trkpt lat="43.72333" lon="7.38369">
        <ele>52</ele>
        <time>2024-04-07T13:46:56Z</time>
      </trkpt>
      <trkpt lat="43.72336" lon="7.38402">
        <ele>41</ele>
        <time>2024-04-07T13:47:00Z</time>
      </trkpt>
      <trkpt lat="43.72343" lon="7.38443">
        <ele>44</ele>
        <time>2024-04-07T13:47:05Z</time>
      </trkpt>
      <trkpt lat="43.72352" lon="7.38465">
        <ele>55</ele>
        <time>2024-04-07T13:47:09Z</time>
      </trkpt>
      <trkpt lat="43.72372" lon="7.38498">
        <ele>78</ele>
        <time>2024-04-07T13:47:14Z</time>
      </trkpt>
      <trkpt lat="43.72377" lon="7.3851">
        <ele>84</ele>
        <time>2024-04-07T13:47:16Z</time>
      </trkpt>
      <trkpt lat="43.7238" lon="7.38518">
        <ele>87</ele>
        <time>2024-04-07T13:47:17Z</time>
      </trkpt>
      <trkpt lat="43.72383" lon="7.38542">
        <ele>89</ele>
        <time>2024-04-07T13:47:20Z</time>
      </trkpt>
      <trkpt lat="43.72384" lon="7.38564">
        <ele>89</ele>
        <time>2024-04-07T13:47:23Z</time>
      </trkpt>
      <trkpt lat="43.72378" lon="7.38626">
        <ele>83</ele>
        <time>2024-04-07T13:47:31Z</time>
      </trkpt>
      <trkpt lat="43.72376" lon="7.3864">
        <ele>81</ele>
        <time>2024-04-07T13:47:33Z</time>
      </trkpt>
      <trkpt lat="43.72366" lon="7.38671">
        <ele>75</ele>
        <time>2024-04-07T13:47:37Z</time>
      </trkpt>
      <trkpt lat="43.72361" lon="7.38695">
        <ele>75</ele>
        <time>2024-04-07T13:47:40Z</time>
      </trkpt>
      <trkpt lat="43.72361" lon="7.38723">
        <ele>79</ele>
        <time>2024-04-07T13:47:44Z</time>
      </trkpt>
      <trkpt lat="43.72366" lon="7.38794">
        <ele>84</ele>
        <time>2024-04-07T13:47:53Z</time>
      </trkpt>
      <trkpt lat="43.72366" lon="7.38875">
        <ele>71</ele>
        <time>2024-04-07T13:48:04Z</time>
      </trkpt>
      <trkpt lat="43.72377" lon="7.38922">
        <ele>71</ele>
        <time>2024-04-07T13:48:10Z</time>
      </trkpt>
      <trkpt lat="43.7238" lon="7.38945">
        <ele>79</ele>
        <time>2024-04-07T13:48:13Z</time>
      </trkpt>
      <trkpt lat="43.72381" lon="7.38989">
        <ele>88</ele>
        <time>2024-04-07T13:48:19Z</time>
      </trkpt>
      <trkpt lat="43.72382" lon="7.39027">
        <ele>94</ele>
        <time>2024-04-07T13:48:24Z</time>
      </trkpt>
      <trkpt lat="43.7238" lon="7.39048">
        <ele>95</ele>
        <time>2024-04-07T13:48:26Z</time>
      </trkpt>
      <trkpt lat="43.72376" lon="7.39089">
        <ele>97</ele>
        <time>2024-04-07T13:48:32Z</time>
      </trkpt>
      <trkpt lat="43.72372" lon="7.39109">
        <ele>97</ele>
        <time>2024-04-07T13:48:34Z</time>
      </trkpt>
      <trkpt lat="43.72363" lon="7.39143">
        <ele>95</ele>
        <time>2024-04-07T13:48:39Z</time>
      </trkpt>
      <trkpt lat="43.72312" lon="7.39299">
        <ele>94</ele>
        <time>2024-04-07T13:49:01Z</time>
      </trkpt>
      <trkpt lat="43.72279" lon="7.39382">
        <ele>89</ele>
        <time>2024-04-07T13:49:13Z</time>
      </trkpt>
      <trkpt lat="43.72274" lon="7.39409">
        <ele>89</ele>
        <time>2024-04-07T13:49:17Z</time>
      </trkpt>
      <trkpt lat="43.72275" lon="7.39425">
        <ele>90</ele>
        <time>2024-04-07T13:49:19Z</time>
      </trkpt>
      <trkpt lat="43.72294" lon="7.39529">
        <ele>90</ele>
        <time>2024-04-07T13:49:33Z</time>
      </trkpt>
      <trkpt lat="43.72292" lon="7.39532">
        <ele>89</ele>
        <time>2024-04-07T13:49:33Z</time>
      </trkpt>
      <trkpt lat="43.72291" lon="7.39536">
        <ele>88</ele>
        <time>2024-04-07T13:49:34Z</time>
      </trkpt>
      <trkpt lat="43.72294" lon="7.39542">
        <ele>89</ele>
        <time>2024-04-07T13:49:35Z</time>
      </trkpt>
      <trkpt lat="43.72298" lon="7.39542">
        <ele>89</ele>
        <time>2024-04-07T13:49:35Z</time>
      </trkpt>
      <trkpt lat="43.72313" lon="7.39631">
        <ele>88</ele>
        <time>2024-04-07T13:49:47Z</time>
      </trkpt>
      <trkpt lat="43.72315" lon="7.39653">
        <ele>87</ele>
        <time>2024-04-07T13:49:50Z</time>
      </trkpt>
      <trkpt lat="43.72312" lon="7.39692">
        <ele>87</ele>
        <time>2024-04-07T13:49:55Z</time>
      </trkpt>
      <trkpt lat="43.72306" lon="7.39735">
        <ele>86</ele>
        <time>2024-04-07T13:50:01Z</time>
      </trkpt>
      <trkpt lat="43.72301" lon="7.39756">
        <ele>86</ele>
        <time>2024-04-07T13:50:03Z</time>
      </trkpt>
      <trkpt lat="43.72294" lon="7.39771">
        <ele>86</ele>
        <time>2024-04-07T13:50:06Z</time>
      </trkpt>
      <trkpt lat="43.7228" lon="7.3978">
        <ele>85</ele>
        <time>2024-04-07T13:50:08Z</time>
      </trkpt>
      <trkpt lat="43.72249" lon="7.39796">
        <ele>83</ele>
        <time>2024-04-07T13:50:14Z</time>
      </trkpt>
      <trkpt lat="43.72204" lon="7.39834">
        <ele>80</ele>
        <time>2024-04-07T13:50:24Z</time>
      </trkpt>
      <trkpt lat="43.72176" lon="7.39873">
        <ele>77</ele>
        <time>2024-04-07T13:50:31Z</time>
      </trkpt>
      <trkpt lat="43.72173" lon="7.39881">
        <ele>77</ele>
        <time>2024-04-07T13:50:32Z</time>
      </trkpt>
      <trkpt lat="43.72171" lon="7.39892">
        <ele>77</ele>
        <time>2024-04-07T13:50:33Z</time>
      </trkpt>
      <trkpt lat="43.72171" lon="7.39912">
        <ele>77</ele>
        <time>2024-04-07T13:50:36Z</time>
      </trkpt>
      <trkpt lat="43.72174" lon="7.39931">
        <ele>75</ele>
        <time>2024-04-07T13:50:38Z</time>
      </trkpt>
      <trkpt lat="43.72202" lon="7.39988">
        <ele>77</ele>
        <time>2024-04-07T13:50:47Z</time>
      </trkpt>
      <trkpt lat="43.72208" lon="7.40003">
        <ele>77</ele>
        <time>2024-04-07T13:50:50Z</time>
      </trkpt>
      <trkpt lat="43.7221" lon="7.40015">
        <ele>77</ele>
        <time>2024-04-07T13:50:51Z</time>
      </trkpt>
      <trkpt lat="43.72218" lon="7.40177">
        <ele>71</ele>
        <time>2024-04-07T13:51:12Z</time>
      </trkpt>
      <trkpt lat="43.7221" lon="7.40244">
        <ele>66</ele>
        <time>2024-04-07T13:51:21Z</time>
      </trkpt>
      <trkpt lat="43.72204" lon="7.40263">
        <ele>64</ele>
        <time>2024-04-07T13:51:23Z</time>
      </trkpt>
      <trkpt lat="43.72189" lon="7.40291">
        <ele>57</ele>
        <time>2024-04-07T13:51:28Z</time>
      </trkpt>
      <trkpt lat="43.72186" lon="7.40304">
        <ele>57</ele>
        <time>2024-04-07T13:51:30Z</time>
      </trkpt>
      <trkpt lat="43.72176" lon="7.40415">
        <ele>59</ele>
        <time>2024-04-07T13:51:44Z</time>
      </trkpt>
      <trkpt lat="43.72176" lon="7.40433">
        <ele>59</ele>
        <time>2024-04-07T13:51:46Z</time>
      </trkpt>
      <trkpt lat="43.72173" lon="7.40435">
        <ele>58</ele>
        <time>2024-04-07T13:51:47Z</time>
      </trkpt>
      <trkpt lat="43.72172" lon="7.40439">
        <ele>58</ele>
        <time>2024-04-07T13:51:47Z</time>
      </trkpt>
      <trkpt lat="43.72174" lon="7.40445">
        <ele>58</ele>
        <time>2024-04-07T13:51:48Z</time>
      </trkpt>
      <trkpt lat="43.72178" lon="7.40446">
        <ele>59</ele>
        <time>2024-04-07T13:51:49Z</time>
      </trkpt>
      <trkpt lat="43.7218" lon="7.40456">
        <ele>60</ele>
        <time>2024-04-07T13:51:50Z</time>
      </trkpt>
      <trkpt lat="43.72188" lon="7.4047">
        <ele>62</ele>
        <time>2024-04-07T13:51:53Z</time>
      </trkpt>
      <trkpt lat="43.72216" lon="7.40511">
        <ele>67</ele>
        <time>2024-04-07T13:52:00Z</time>
      </trkpt>
      <trkpt lat="43.72226" lon="7.40533">
        <ele>68</ele>
        <time>2024-04-07T13:52:03Z</time>
      </trkpt>
      <trkpt lat="43.7225" lon="7.40615">
        <ele>66</ele>
        <time>2024-04-07T13:52:15Z</time>
      </trkpt>
      <trkpt lat="43.72256" lon="7.40659">
        <ele>63</ele>
        <time>2024-04-07T13:52:20Z</time>
      </trkpt>
      <trkpt lat="43.72255" lon="7.407">
        <ele>62</ele>
        <time>2024-04-07T13:52:26Z</time>
      </trkpt>
      <trkpt lat="43.72249" lon="7.4079">
        <ele>58</ele>
        <time>2024-04-07T13:52:37Z</time>
      </trkpt>
      <trkpt lat="43.72249" lon="7.40808">
        <ele>57</ele>
        <time>2024-04-07T13:52:40Z</time>
      </trkpt>
      <trkpt lat="43.72256" lon="7.40828">
        <ele>57</ele>
        <time>2024-04-07T13:52:42Z</time>
      </trkpt>
      <trkpt lat="43.72268" lon="7.40841">
        <ele>58</ele>
        <time>2024-04-07T13:52:45Z</time>
      </trkpt>
      <trkpt lat="43.72321" lon="7.40881">
        <ele>54</ele>
        <time>2024-04-07T13:52:56Z</time>
      </trkpt>
      <trkpt lat="43.72342" lon="7.40894">
        <ele>52</ele>
        <time>2024-04-07T13:53:00Z</time>
      </trkpt>
      <trkpt lat="43.72354" lon="7.40897">
        <ele>51</ele>
        <time>2024-04-07T13:53:02Z</time>
      </trkpt>
      <trkpt lat="43.72365" lon="7.40896">
        <ele>52</ele>
        <time>2024-04-07T13:53:04Z</time>
      </trkpt>
      <trkpt lat="43.72402" lon="7.40876">
        <ele>62</ele>
        <time>2024-04-07T13:53:11Z</time>
      </trkpt>
      <trkpt lat="43.72413" lon="7.40872">
        <ele>64</ele>
        <time>2024-04-07T13:53:13Z</time>
      </trkpt>
      <trkpt lat="43.72424" lon="7.40871">
        <ele>66</ele>
        <time>2024-04-07T13:53:15Z</time>
      </trkpt>
      <trkpt lat="43.7244" lon="7.40873">
        <ele>66</ele>
        <time>2024-04-07T13:53:18Z</time>
      </trkpt>
      <trkpt lat="43.72447" lon="7.40875">
        <ele>66</ele>
        <time>2024-04-07T13:53:19Z</time>
      </trkpt>
      <trkpt lat="43.72459" lon="7.40883">
        <ele>64</ele>
        <time>2024-04-07T13:53:22Z</time>
      </trkpt>
      <trkpt lat="43.72466" lon="7.40891">
        <ele>62</ele>
        <time>2024-04-07T13:53:23Z</time>
      </trkpt>
      <trkpt lat="43.72499" lon="7.40935">
        <ele>53</ele>
        <time>2024-04-07T13:53:31Z</time>
      </trkpt>
      <trkpt lat="43.72518" lon="7.40957">
        <ele>49</ele>
        <time>2024-04-07T13:53:36Z</time>
      </trkpt>
      <trkpt lat="43.72527" lon="7.40963">
        <ele>48</ele>
        <time>2024-04-07T13:53:38Z</time>
      </trkpt>
      <trkpt lat="43.72546" lon="7.40967">
        <ele>49</ele>
        <time>2024-04-07T13:53:41Z</time>
      </trkpt>
      <trkpt lat="43.7256" lon="7.40974">
        <ele>49</ele>
        <time>2024-04-07T13:53:44Z</time>
      </trkpt>
      <trkpt lat="43.72566" lon="7.4098">
        <ele>49</ele>
        <time>2024-04-07T13:53:45Z</time>
      </trkpt>
      <trkpt lat="43.72574" lon="7.40996">
        <ele>46</ele>
        <time>2024-04-07T13:53:48Z</time>
      </trkpt>
      <trkpt lat="43.72594" lon="7.41061">
        <ele>36</ele>
        <time>2024-04-07T13:53:57Z</time>
      </trkpt>
      <trkpt lat="43.72603" lon="7.41075">
        <ele>36</ele>
        <time>2024-04-07T13:53:59Z</time>
      </trkpt>
      <trkpt lat="43.7262" lon="7.41091">
        <ele>37</ele>
        <time>2024-04-07T13:54:03Z</time>
      </trkpt>
      <trkpt lat="43.72781" lon="7.41181">
        <ele>30</ele>
        <time>2024-04-07T13:54:34Z</time>
      </trkpt>
      <trkpt lat="43.72792" lon="7.41204">
        <ele>27</ele>
        <time>2024-04-07T13:54:37Z</time>
      </trkpt>
      <trkpt lat="43.7279" lon="7.41209">
        <ele>26</ele>
        <time>2024-04-07T13:54:38Z</time>
      </trkpt>
      <trkpt lat="43.72791" lon="7.41221">
        <ele>25</ele>
        <time>2024-04-07T13:54:39Z</time>
      </trkpt>
      <trkpt lat="43.72797" lon="7.4123">
        <ele>25</ele>
        <time>2024-04-07T13:54:41Z</time>
      </trkpt>
      <trkpt lat="43.72804" lon="7.41231">
        <ele>25</ele>
        <time>2024-04-07T13:54:42Z</time>
      </trkpt>
      <trkpt lat="43.72812" lon="7.41226">
        <ele>27</ele>
        <time>2024-04-07T13:54:44Z</time>
      </trkpt>
      <trkpt lat="43.72818" lon="7.41212">
        <ele>29</ele>
        <time>2024-04-07T13:54:46Z</time>
      </trkpt>
      <trkpt lat="43.72822" lon="7.4121">
        <ele>30</ele>
        <time>2024-04-07T13:54:47Z</time>
      </trkpt>
      <trkpt lat="43.72832" lon="7.4121">
        <ele>31</ele>
        <time>2024-04-07T13:54:48Z</time>
      </trkpt>
      <trkpt lat="43.72853" lon="7.41221">
        <ele>32</ele>
        <time>2024-04-07T13:54:52Z</time>
      </trkpt>
      <trkpt lat="43.72862" lon="7.41228">
        <ele>32</ele>
        <time>2024-04-07T13:54:54Z</time>
      </trkpt>
      <trkpt lat="43.72857" lon="7.41236">
        <ele>30</ele>
        <time>2024-04-07T13:54:56Z</time>
      </trkpt>
      <trkpt lat="43.72859" lon="7.41246">
        <ele>29</ele>
        <time>2024-04-07T13:54:57Z</time>
      </trkpt>
      <trkpt lat="43.72866" lon="7.41249">
        <ele>29</ele>
        <time>2024-04-07T13:54:58Z</time>
      </trkpt>
      <trkpt lat="43.72871" lon="7.41246">
        <ele>30</ele>
        <time>2024-04-07T13:54:59Z</time>
      </trkpt>
      <trkpt lat="43.72875" lon="7.41253">
        <ele>29</ele>
        <time>2024-04-07T13:55:00Z</time>
      </trkpt>
      <trkpt lat="43.72893" lon="7.41262">
        <ele>30</ele>
        <time>2024-04-07T13:55:04Z</time>
      </trkpt>
      <trkpt lat="43.72935" lon="7.4129">
        <ele>33</ele>
        <time>2024-04-07T13:55:12Z</time>
      </trkpt>
      <trkpt lat="43.72978" lon="7.41299">
        <ele>41</ele>
        <time>2024-04-07T13:55:20Z</time>
      </trkpt>
      <trkpt lat="43.72993" lon="7.4131">
        <ele>43</ele>
        <time>2024-04-07T13:55:23Z</time>
      </trkpt>
      <trkpt lat="43.73002" lon="7.4132">
        <ele>44</ele>
        <time>2024-04-07T13:55:25Z</time>
      </trkpt>
      <trkpt lat="43.73007" lon="7.4133">
        <ele>45</ele>
        <time>2024-04-07T13:55:26Z</time>
      </trkpt>
      <trkpt lat="43.73031" lon="7.41402">
        <ele>49</ele>
        <time>2024-04-07T13:55:37Z</time>
      </trkpt>
      <trkpt lat="43.73035" lon="7.41418">
        <ele>48</ele>
        <time>2024-04-07T13:55:39Z</time>
      </trkpt>
      <trkpt lat="43.73042" lon="7.41434">
        <ele>49</ele>
        <time>2024-04-07T13:55:41Z</time>
      </trkpt>
      <trkpt lat="43.73047" lon="7.41439">
        <ele>51</ele>
        <time>2024-04-07T13:55:42Z</time>
      </trkpt>
      <trkpt lat="43.73078" lon="7.41491">
        <ele>52</ele>
        <time>2024-04-07T13:55:51Z</time>
      </trkpt>
      <trkpt lat="43.73081" lon="7.41494">
        <ele>52</ele>
        <time>2024-04-07T13:55:52Z</time>
      </trkpt>
      <trkpt lat="43.73084" lon="7.41492">
        <ele>54</ele>
        <time>2024-04-07T13:55:52Z</time>
      </trkpt>
      <trkpt lat="43.73093" lon="7.41524">
        <ele>46</ele>
        <time>2024-04-07T13:55:57Z</time>
      </trkpt>
      <trkpt lat="43.73125" lon="7.41575">
        <ele>39</ele>
        <time>2024-04-07T13:56:05Z</time>
      </trkpt>
      <trkpt lat="43.73148" lon="7.41609">
        <ele>38</ele>
        <time>2024-04-07T13:56:11Z</time>
      </trkpt>
      <trkpt lat="43.73194" lon="7.4167">
        <ele>36</ele>
        <time>2024-04-07T13:56:23Z</time>
      </trkpt>
      <trkpt lat="43.73194" lon="7.41676">
        <ele>35</ele>
        <time>2024-04-07T13:56:23Z</time>
      </trkpt>
      <trkpt lat="43.73195" lon="7.41679">
        <ele>35</ele>
        <time>2024-04-07T13:56:24Z</time>
      </trkpt>
      <trkpt lat="43.732" lon="7.41681">
        <ele>36</ele>
        <time>2024-04-07T13:56:25Z</time>
      </trkpt>
      <trkpt lat="43.73203" lon="7.41678">
        <ele>37</ele>
        <time>2024-04-07T13:56:25Z</time>
      </trkpt>
      <trkpt lat="43.73315" lon="7.41762">
        <ele>43</ele>
        <time>2024-04-07T13:56:48Z</time>
      </trkpt>
      <trkpt lat="43.73351" lon="7.41782">
        <ele>41</ele>
        <time>2024-04-07T13:56:55Z</time>
      </trkpt>
      <trkpt lat="43.73434" lon="7.41811">
        <ele>34</ele>
        <time>2024-04-07T13:57:10Z</time>
      </trkpt>
      <trkpt lat="43.73435" lon="7.41816">
        <ele>33</ele>
        <time>2024-04-07T13:57:11Z</time>
      </trkpt>
      <trkpt lat="43.73438" lon="7.41819">
        <ele>32</ele>
        <time>2024-04-07T13:57:12Z</time>
      </trkpt>
      <trkpt lat="43.73442" lon="7.41819">
        <ele>32</ele>
        <time>2024-04-07T13:57:12Z</time>
      </trkpt>
      <trkpt lat="43.73445" lon="7.41814">
        <ele>33</ele>
        <time>2024-04-07T13:57:13Z</time>
      </trkpt>
      <trkpt lat="43.73488" lon="7.41825">
        <ele>30</ele>
        <time>2024-04-07T13:57:21Z</time>
      </trkpt>
      <trkpt lat="43.73511" lon="7.41839">
        <ele>30</ele>
        <time>2024-04-07T13:57:25Z</time>
      </trkpt>
      <trkpt lat="43.73533" lon="7.41859">
        <ele>34</ele>
        <time>2024-04-07T13:57:30Z</time>
      </trkpt>
      <trkpt lat="43.7358" lon="7.41921">
        <ele>38</ele>
        <time>2024-04-07T13:57:42Z</time>
      </trkpt>
      <trkpt lat="43.7366" lon="7.4201">
        <ele>48</ele>
        <time>2024-04-07T13:58:00Z</time>
      </trkpt>
      <trkpt lat="43.73692" lon="7.42048">
        <ele>46</ele>
        <time>2024-04-07T13:58:07Z</time>
      </trkpt>
      <trkpt lat="43.73715" lon="7.42093">
        <ele>39</ele>
        <time>2024-04-07T13:58:14Z</time>
      </trkpt>
      <trkpt lat="43.73733" lon="7.42139">
        <ele>33</ele>
        <time>2024-04-07T13:58:21Z</time>
      </trkpt>
      <trkpt lat="43.73743" lon="7.42171">
        <ele>29</ele>
        <time>2024-04-07T13:58:26Z</time>
      </trkpt>
      <trkpt lat="43.73751" lon="7.42203">
        <ele>31</ele>
        <time>2024-04-07T13:58:30Z</time>
      </trkpt>
      <trkpt lat="43.73759" lon="7.42253">
        <ele>34</ele>
        <time>2024-04-07T13:58:37Z</time>
      </trkpt>
      <trkpt lat="43.73761" lon="7.42271">
        <ele>36</ele>
        <time>2024-04-07T13:58:39Z</time>
      </trkpt>
      <trkpt lat="43.7376" lon="7.42287">
        <ele>37</ele>
        <time>2024-04-07T13:58:41Z</time>
      </trkpt>
      <trkpt lat="43.73756" lon="7.42347">
        <ele>40</ele>
        <time>2024-04-07T13:58:49Z</time>
      </trkpt>
      <trkpt lat="43.73755" lon="7.42379">
        <ele>38</ele>
        <time>2024-04-07T13:58:53Z</time>
      </trkpt>
      <trkpt lat="43.7376" lon="7.42364">
        <ele>40</ele>
        <time>2024-04-07T13:58:55Z</time>
      </trkpt>
      <trkpt lat="43.73766" lon="7.42302">
        <ele>41</ele>
        <time>2024-04-07T13:59:03Z</time>
      </trkpt>
      <trkpt lat="43.73764" lon="7.42267">
        <ele>37</ele>
        <time>2024-04-07T13:59:08Z</time>
      </trkpt>
      <trkpt lat="43.73761" lon="7.42259">
        <ele>35</ele>
        <time>2024-04-07T13:59:09Z</time>
      </trkpt>
      <trkpt lat="43.73753" lon="7.42258">
        <ele>32</ele>
        <time>2024-04-07T13:59:10Z</time>
      </trkpt>
      <trkpt lat="43.73748" lon="7.42265">
        <ele>31</ele>
        <time>2024-04-07T13:59:11Z</time>
      </trkpt>
      <trkpt lat="43.73743" lon="7.42281">
        <ele>31</ele>
        <time>2024-04-07T13:59:14Z</time>
      </trkpt>
      <trkpt lat="43.7374" lon="7.4235">
        <ele>34</ele>
        <time>2024-04-07T13:59:23Z</time>
      </trkpt>
      <trkpt lat="43.73744" lon="7.42395">
        <ele>34</ele>
        <time>2024-04-07T13:59:28Z</time>
      </trkpt>
      <trkpt lat="43.73743" lon="7.42403">
        <ele>34</ele>
        <time>2024-04-07T13:59:29Z</time>
      </trkpt>
      <trkpt lat="43.73741" lon="7.42406">
        <ele>33</ele>
        <time>2024-04-07T13:59:30Z</time>
      </trkpt>
      <trkpt lat="43.73736" lon="7.42404">
        <ele>32</ele>
        <time>2024-04-07T13:59:31Z</time>
      </trkpt>
      <trkpt lat="43.73734" lon="7.42401">
        <ele>31</ele>
        <time>2024-04-07T13:59:31Z</time>
      </trkpt>
      <trkpt lat="43.7374" lon="7.42435">
        <ele>31</ele>
        <time>2024-04-07T13:59:36Z</time>
      </trkpt>
      <trkpt lat="43.73744" lon="7.42486">
        <ele>29</ele>
        <time>2024-04-07T13:59:42Z</time>
      </trkpt>
      <trkpt lat="43.73748" lon="7.42506">
        <ele>29</ele>
        <time>2024-04-07T13:59:45Z</time>
      </trkpt>
      <trkpt lat="43.73775" lon="7.42584">
        <ele>34</ele>
        <time>2024-04-07T13:59:56Z</time>
      </trkpt>
      <trkpt lat="43.73786" lon="7.42643">
        <ele>37</ele>
        <time>2024-04-07T14:00:04Z</time>
      </trkpt>
      <trkpt lat="43.73791" lon="7.42662">
        <ele>39</ele>
        <time>2024-04-07T14:00:07Z</time>
      </trkpt>
      <trkpt lat="43.73797" lon="7.42677">
        <ele>40</ele>
        <time>2024-04-07T14:00:09Z</time>
      </trkpt>
      <trkpt lat="43.73806" lon="7.42688">
        <ele>42</ele>
        <time>2024-04-07T14:00:11Z</time>
      </trkpt>
      <trkpt lat="43.73819" lon="7.42696">
        <ele>46</ele>
        <time>2024-04-07T14:00:14Z</time>
      </trkpt>
      <trkpt lat="43.73828" lon="7.42695">
        <ele>49</ele>
        <time>2024-04-07T14:00:15Z</time>
      </trkpt>
      <trkpt lat="43.73842" lon="7.42687">
        <ele>51</ele>
        <time>2024-04-07T14:00:18Z</time>
      </trkpt>
      <trkpt lat="43.73863" lon="7.42651">
        <ele>55</ele>
        <time>2024-04-07T14:00:24Z</time>
      </trkpt>
      <trkpt lat="43.73879" lon="7.42619">
        <ele>57</ele>
        <time>2024-04-07T14:00:29Z</time>
      </trkpt>
      <trkpt lat="43.73908" lon="7.42574">
        <ele>60</ele>
        <time>2024-04-07T14:00:37Z</time>
      </trkpt>
      <trkpt lat="43.73916" lon="7.42568">
        <ele>61</ele>
        <time>2024-04-07T14:00:38Z</time>
      </trkpt>
      <trkpt lat="43.73932" lon="7.42565">
        <ele>60</ele>
        <time>2024-04-07T14:00:41Z</time>
      </trkpt>
      <trkpt lat="43.73946" lon="7.42571">
        <ele>59</ele>
        <time>2024-04-07T14:00:44Z</time>
      </trkpt>
      <trkpt lat="43.73952" lon="7.42566">
        <ele>60</ele>
        <time>2024-04-07T14:00:45Z</time>
      </trkpt>
      <trkpt lat="43.73972" lon="7.42513">
        <ele>64</ele>
        <time>2024-04-07T14:00:53Z</time>
      </trkpt>
      <trkpt lat="43.74079" lon="7.42581">
        <ele>67</ele>
        <time>2024-04-07T14:01:14Z</time>
      </trkpt>
      <trkpt lat="43.74098" lon="7.42598">
        <ele>68</ele>
        <time>2024-04-07T14:01:18Z</time>
      </trkpt>
      <trkpt lat="43.74112" lon="7.42615">
        <ele>69</ele>
        <time>2024-04-07T14:01:21Z</time>
      </trkpt>
      <trkpt lat="43.74128" lon="7.42641">
        <ele>69</ele>
        <time>2024-04-07T14:01:25Z</time>
      </trkpt>
      <trkpt lat="43.74145" lon="7.42664">
        <ele>69</ele>
        <time>2024-04-07T14:01:29Z</time>
      </trkpt>
      <trkpt lat="43.74157" lon="7.42674">
        <ele>70</ele>
        <time>2024-04-07T14:01:32Z</time>
      </trkpt>
      <trkpt lat="43.74156" lon="7.42681">
        <ele>69</ele>
        <time>2024-04-07T14:01:33Z</time>
      </trkpt>
      <trkpt lat="43.7416" lon="7.42687">
        <ele>68</ele>
        <time>2024-04-07T14:01:34Z</time>
      </trkpt>
      <trkpt lat="43.74165" lon="7.42686">
        <ele>69</ele>
        <time>2024-04-07T14:01:35Z</time>
      </trkpt>
      <trkpt lat="43.7417" lon="7.42698">
        <ele>68</ele>
        <time>2024-04-07T14:01:37Z</time>
      </trkpt>
      <trkpt lat="43.74202" lon="7.42745">
        <ele>66</ele>
        <time>2024-04-07T14:01:45Z</time>
      </trkpt>
      <trkpt lat="43.74224" lon="7.42777">
        <ele>64</ele>
        <time>2024-04-07T14:01:51Z</time>
      </trkpt>
      <trkpt lat="43.74236" lon="7.42788">
        <ele>64</ele>
        <time>2024-04-07T14:01:53Z</time>
      </trkpt>
      <trkpt lat="43.74254" lon="7.428">
        <ele>64</ele>
        <time>2024-04-07T14:01:57Z</time>
      </trkpt>
      <trkpt lat="43.7433" lon="7.42838">
        <ele>66</ele>
        <time>2024-04-07T14:02:11Z</time>
      </trkpt>
      <trkpt lat="43.74403" lon="7.42881">
        <ele>67</ele>
        <time>2024-04-07T14:02:25Z</time>
      </trkpt>
      <trkpt lat="43.74547" lon="7.42948">
        <ele>66</ele>
        <time>2024-04-07T14:02:52Z</time>
      </trkpt>
      <trkpt lat="43.74558" lon="7.42958">
        <ele>66</ele>
        <time>2024-04-07T14:02:55Z</time>
      </trkpt>
      <trkpt lat="43.74593" lon="7.4301">
        <ele>65</ele>
        <time>2024-04-07T14:03:04Z</time>
      </trkpt>
      <trkpt lat="43.74614" lon="7.43023">
        <ele>67</ele>
        <time>2024-04-07T14:03:08Z</time>
      </trkpt>
      <trkpt lat="43.74621" lon="7.43029">
        <ele>67</ele>
        <time>2024-04-07T14:03:09Z</time>
      </trkpt>
      <trkpt lat="43.74641" lon="7.43056">
        <ele>65</ele>
        <time>2024-04-07T14:03:14Z</time>
      </trkpt>
      <trkpt lat="43.74679" lon="7.4312">
        <ele>60</ele>
        <time>2024-04-07T14:03:25Z</time>
      </trkpt>
      <trkpt lat="43.74702" lon="7.43151">
        <ele>61</ele>
        <time>2024-04-07T14:03:31Z</time>
      </trkpt>
      <trkpt lat="43.74716" lon="7.43167">
        <ele>63</ele>
        <time>2024-04-07T14:03:34Z</time>
      </trkpt>
      <trkpt lat="43.74727" lon="7.43174">
        <ele>65</ele>
        <time>2024-04-07T14:03:36Z</time>
      </trkpt>
      <trkpt lat="43.74736" lon="7.43175">
        <ele>67</ele>
        <time>2024-04-07T14:03:38Z</time>
      </trkpt>
      <trkpt lat="43.74751" lon="7.43173">
        <ele>72</ele>
        <time>2024-04-07T14:03:40Z</time>
      </trkpt>
      <trkpt lat="43.74766" lon="7.43177">
        <ele>74</ele>
        <time>2024-04-07T14:03:43Z</time>
      </trkpt>
      <trkpt lat="43.74771" lon="7.43182">
        <ele>73</ele>
        <time>2024-04-07T14:03:44Z</time>
      </trkpt>
      <trkpt lat="43.74778" lon="7.43195">
        <ele>71</ele>
        <time>2024-04-07T14:03:46Z</time>
      </trkpt>
      <trkpt lat="43.74785" lon="7.43213">
        <ele>66</ele>
        <time>2024-04-07T14:03:49Z</time>
      </trkpt>
      <trkpt lat="43.74782" lon="7.43222">
        <ele>63</ele>
        <time>2024-04-07T14:03:50Z</time>
      </trkpt>
      <trkpt lat="43.74786" lon="7.4323">
        <ele>61</ele>
        <time>2024-04-07T14:03:51Z</time>
      </trkpt>
      <trkpt lat="43.74784" lon="7.43242">
        <ele>57</ele>
        <time>2024-04-07T14:03:53Z</time>
      </trkpt>
      <trkpt lat="43.74785" lon="7.4325">
        <ele>55</ele>
        <time>2024-04-07T14:03:54Z</time>
      </trkpt>
      <trkpt lat="43.74795" lon="7.4328">
        <ele>55</ele>
        <time>2024-04-07T14:03:58Z</time>
      </trkpt>
      <trkpt lat="43.74805" lon="7.43299">
        <ele>56</ele>
        <time>2024-04-07T14:04:01Z</time>
      </trkpt>
      <trkpt lat="43.74838" lon="7.43341">
        <ele>61</ele>
        <time>2024-04-07T14:04:09Z</time>
      </trkpt>
      <trkpt lat="43.74863" lon="7.43381">
        <ele>61</ele>
        <time>2024-04-07T14:04:16Z</time>
      </trkpt>
      <trkpt lat="43.74892" lon="7.43433">
        <ele>55</ele>
        <time>2024-04-07T14:04:24Z</time>
      </trkpt>
      <trkpt lat="43.74904" lon="7.43465">
        <ele>52</ele>
        <time>2024-04-07T14:04:29Z</time>
      </trkpt>
      <trkpt lat="43.74906" lon="7.43486">
        <ele>50</ele>
        <time>2024-04-07T14:04:32Z</time>
      </trkpt>
      <trkpt lat="43.74906" lon="7.43571">
        <ele>42</ele>
        <time>2024-04-07T14:04:43Z</time>
      </trkpt>
      <trkpt lat="43.74912" lon="7.43604">
        <ele>41</ele>
        <time>2024-04-07T14:04:47Z</time>
      </trkpt>
      <trkpt lat="43.74915" lon="7.43616">
        <ele>41</ele>
        <time>2024-04-07T14:04:49Z</time>
      </trkpt>
      <trkpt lat="43.74927" lon="7.43637">
        <ele>42</ele>
        <time>2024-04-07T14:04:52Z</time>
      </trkpt>
      <trkpt lat="43.74978" lon="7.43689">
        <ele>50</ele>
        <time>2024-04-07T14:05:03Z</time>
      </trkpt>
      <trkpt lat="43.75004" lon="7.4372">
        <ele>53</ele>
        <time>2024-04-07T14:05:10Z</time>
      </trkpt>
      <trkpt lat="43.75071" lon="7.43785">
        <ele>56</ele>
        <time>2024-04-07T14:05:24Z</time>
      </trkpt>
      <trkpt lat="43.75094" lon="7.43802">
        <ele>55</ele>
        <time>2024-04-07T14:05:29Z</time>
      </trkpt>
      <trkpt lat="43.75128" lon="7.43821">
        <ele>53</ele>
        <time>2024-04-07T14:05:35Z</time>
      </trkpt>
      <trkpt lat="43.75168" lon="7.43844">
        <ele>55</ele>
        <time>2024-04-07T14:05:43Z</time>
      </trkpt>
      <trkpt lat="43.75187" lon="7.43859">
        <ele>58</ele>
        <time>2024-04-07T14:05:47Z</time>
      </trkpt>
      <trkpt lat="43.75193" lon="7.43872">
        <ele>59</ele>
        <time>2024-04-07T14:05:49Z</time>
      </trkpt>
      <trkpt lat="43.75199" lon="7.43889">
        <ele>60</ele>
        <time>2024-04-07T14:05:51Z</time>
      </trkpt>
      <trkpt lat="43.75211" lon="7.43904">
        <ele>61</ele>
        <time>2024-04-07T14:05:54Z</time>
      </trkpt>
      <trkpt lat="43.7527" lon="7.43948">
        <ele>68</ele>
        <time>2024-04-07T14:06:06Z</time>
      </trkpt>
      <trkpt lat="43.75277" lon="7.43956">
        <ele>69</ele>
        <time>2024-04-07T14:06:08Z</time>
      </trkpt>
      <trkpt lat="43.75313" lon="7.4403">
        <ele>70</ele>
        <time>2024-04-07T14:06:19Z</time>
      </trkpt>
      <trkpt lat="43.75319" lon="7.44048">
        <ele>69</ele>
        <time>2024-04-07T14:06:22Z</time>
      </trkpt>
      <trkpt lat="43.7534" lon="7.4423">
        <ele>63</ele>
        <time>2024-04-07T14:06:45Z</time>
      </trkpt>
      <trkpt lat="43.7534" lon="7.44264">
        <ele>61</ele>
        <time>2024-04-07T14:06:50Z</time>
      </trkpt>
      <trkpt lat="43.75322" lon="7.44478">
        <ele>59</ele>
        <time>2024-04-07T14:07:17Z</time>
      </trkpt>
      <trkpt lat="43.75319" lon="7.44525">
        <ele>59</ele>
        <time>2024-04-07T14:07:24Z</time>
      </trkpt>
      <trkpt lat="43.75319" lon="7.44539">
        <ele>60</ele>
        <time>2024-04-07T14:07:25Z</time>
      </trkpt>
      <trkpt lat="43.75321" lon="7.44549">
        <ele>61</ele>
        <time>2024-04-07T14:07:27Z</time>
      </trkpt>
      <trkpt lat="43.75363" lon="7.44633">
        <ele>65</ele>
        <time>2024-04-07T14:07:40Z</time>
      </trkpt>
      <trkpt lat="43.75371" lon="7.44643">
        <ele>65</ele>
        <time>2024-04-07T14:07:42Z</time>
      </trkpt>
      <trkpt lat="43.7538" lon="7.44649">
        <ele>68</ele>
        <time>2024-04-07T14:07:43Z</time>
      </trkpt>
      <trkpt lat="43.75389" lon="7.44652">
        <ele>71</ele>
        <time>2024-04-07T14:07:45Z</time>
      </trkpt>
      <trkpt lat="43.75409" lon="7.44654">
        <ele>81</ele>
        <time>2024-04-07T14:07:49Z</time>
      </trkpt>
      <trkpt lat="43.75418" lon="7.44658">
        <ele>84</ele>
        <time>2024-04-07T14:07:50Z</time>
      </trkpt>
      <trkpt lat="43.75428" lon="7.44668">
        <ele>83</ele>
        <time>2024-04-07T14:07:53Z</time>
      </trkpt>
      <trkpt lat="43.75438" lon="7.44683">
        <ele>79</ele>
        <time>2024-04-07T14:07:55Z</time>
      </trkpt>
      <trkpt lat="43.75452" lon="7.44724">
        <ele>66</ele>
        <time>2024-04-07T14:08:01Z</time>
      </trkpt>
      <trkpt lat="43.75463" lon="7.44744">
        <ele>61</ele>
        <time>2024-04-07T14:08:04Z</time>
      </trkpt>
      <trkpt lat="43.75474" lon="7.44755">
        <ele>61</ele>
        <time>2024-04-07T14:08:07Z</time>
      </trkpt>
      <trkpt lat="43.75506" lon="7.44774">
        <ele>67</ele>
        <time>2024-04-07T14:08:13Z</time>
      </trkpt>
      <trkpt lat="43.75538" lon="7.44796">
        <ele>70</ele>
        <time>2024-04-07T14:08:19Z</time>
      </trkpt>
      <trkpt lat="43.75548" lon="7.44804">
        <ele>71</ele>
        <time>2024-04-07T14:08:21Z</time>
      </trkpt>
      <trkpt lat="43.75555" lon="7.44816">
        <ele>70</ele>
        <time>2024-04-07T14:08:23Z</time>
      </trkpt>
      <trkpt lat="43.75578" lon="7.44862">
        <ele>65</ele>
        <time>2024-04-07T14:08:30Z</time>
      </trkpt>
      <trkpt lat="43.75588" lon="7.44879">
        <ele>63</ele>
        <time>2024-04-07T14:08:33Z</time>
      </trkpt>
      <trkpt lat="43.75606" lon="7.44899">
        <ele>62</ele>
        <time>2024-04-07T14:08:37Z</time>
      </trkpt>
      <trkpt lat="43.75619" lon="7.44905">
        <ele>62</ele>
        <time>2024-04-07T14:08:40Z</time>
      </trkpt>
      <trkpt lat="43.75658" lon="7.44899">
        <ele>72</ele>
        <time>2024-04-07T14:08:47Z</time>
      </trkpt>
      <trkpt lat="43.75677" lon="7.44905">
        <ele>74</ele>
        <time>2024-04-07T14:08:50Z</time>
      </trkpt>
      <trkpt lat="43.75694" lon="7.44912">
        <ele>76</ele>
        <time>2024-04-07T14:08:53Z</time>
      </trkpt>
      <trkpt lat="43.75702" lon="7.44918">
        <ele>76</ele>
        <time>2024-04-07T14:08:55Z</time>
      </trkpt>
      <trkpt lat="43.7574" lon="7.44962">
        <ele>72</ele>
        <time>2024-04-07T14:09:04Z</time>
      </trkpt>
      <trkpt lat="43.7575" lon="7.44971">
        <ele>72</ele>
        <time>2024-04-07T14:09:06Z</time>
      </trkpt>
      <trkpt lat="43.75783" lon="7.44993">
        <ele>76</ele>
        <time>2024-04-07T14:09:13Z</time>
      </trkpt>
      <trkpt lat="43.75807" lon="7.45012">
        <ele>78</ele>
        <time>2024-04-07T14:09:17Z</time>
      </trkpt>
      <trkpt lat="43.75891" lon="7.45086">
        <ele>80</ele>
        <time>2024-04-07T14:09:35Z</time>
      </trkpt>
      <trkpt lat="43.75998" lon="7.45209">
        <ele>79</ele>
        <time>2024-04-07T14:10:00Z</time>
      </trkpt>
      <trkpt lat="43.76019" lon="7.4524">
        <ele>80</ele>
        <time>2024-04-07T14:10:05Z</time>
      </trkpt>
      <trkpt lat="43.76018" lon="7.45249">
        <ele>77</ele>
        <time>2024-04-07T14:10:07Z</time>
      </trkpt>
      <trkpt lat="43.76019" lon="7.45253">
        <ele>76</ele>
        <time>2024-04-07T14:10:07Z</time>
      </trkpt>
      <trkpt lat="43.76021" lon="7.45256">
        <ele>76</ele>
        <time>2024-04-07T14:10:08Z</time>
      </trkpt>
      <trkpt lat="43.76027" lon="7.45259">
        <ele>78</ele>
        <time>2024-04-07T14:10:09Z</time>
      </trkpt>
      <trkpt lat="43.7603" lon="7.45267">
        <ele>77</ele>
        <time>2024-04-07T14:10:10Z</time>
      </trkpt>
      <trkpt lat="43.76038" lon="7.45273">
        <ele>79</ele>
        <time>2024-04-07T14:10:11Z</time>
      </trkpt>
      <trkpt lat="43.76041" lon="7.45277">
        <ele>79</ele>
        <time>2024-04-07T14:10:12Z</time>
      </trkpt>
      <trkpt lat="43.76059" lon="7.45313">
        <ele>76</ele>
        <time>2024-04-07T14:10:18Z</time>
      </trkpt>
      <trkpt lat="43.76074" lon="7.45346">
        <ele>72</ele>
        <time>2024-04-07T14:10:23Z</time>
      </trkpt>
      <trkpt lat="43.76082" lon="7.45378">
        <ele>68</ele>
        <time>2024-04-07T14:10:27Z</time>
      </trkpt>
      <trkpt lat="43.76086" lon="7.45388">
        <ele>68</ele>
        <time>2024-04-07T14:10:29Z</time>
      </trkpt>
      <trkpt lat="43.76101" lon="7.4542">
        <ele>64</ele>
        <time>2024-04-07T14:10:34Z</time>
      </trkpt>
      <trkpt lat="43.76107" lon="7.45427">
        <ele>63</ele>
        <time>2024-04-07T14:10:35Z</time>
      </trkpt>
      <trkpt lat="43.76118" lon="7.45436">
        <ele>63</ele>
        <time>2024-04-07T14:10:37Z</time>
      </trkpt>
      <trkpt lat="43.76143" lon="7.45448">
        <ele>66</ele>
        <time>2024-04-07T14:10:42Z</time>
      </trkpt>
      <trkpt lat="43.7619" lon="7.45452">
        <ele>73</ele>
        <time>2024-04-07T14:10:50Z</time>
      </trkpt>
      <trkpt lat="43.76197" lon="7.45457">
        <ele>74</ele>
        <time>2024-04-07T14:10:52Z</time>
      </trkpt>
      <trkpt lat="43.762" lon="7.45463">
        <ele>73</ele>
        <time>2024-04-07T14:10:53Z</time>
      </trkpt>
      <trkpt lat="43.76202" lon="7.45473">
        <ele>72</ele>
        <time>2024-04-07T14:10:54Z</time>
      </trkpt>
      <trkpt lat="43.76201" lon="7.45484">
        <ele>70</ele>
        <time>2024-04-07T14:10:55Z</time>
      </trkpt>
      <trkpt lat="43.76197" lon="7.45494">
        <ele>68</ele>
        <time>2024-04-07T14:10:57Z</time>
      </trkpt>
      <trkpt lat="43.76191" lon="7.45503">
        <ele>66</ele>
        <time>2024-04-07T14:10:58Z</time>
      </trkpt>
      <trkpt lat="43.76179" lon="7.45513">
        <ele>65</ele>
        <time>2024-04-07T14:11:01Z</time>
      </trkpt>
      <trkpt lat="43.76147" lon="7.45532">
        <ele>58</ele>
        <time>2024-04-07T14:11:07Z</time>
      </trkpt>
      <trkpt lat="43.76139" lon="7.4554">
        <ele>57</ele>
        <time>2024-04-07T14:11:09Z</time>
      </trkpt>
      <trkpt lat="43.76132" lon="7.4555">
        <ele>56</ele>
        <time>2024-04-07T14:11:11Z</time>
      </trkpt>
      <trkpt lat="43.76125" lon="7.45564">
        <ele>54</ele>
        <time>2024-04-07T14:11:13Z</time>
      </trkpt>
      <trkpt lat="43.76114" lon="7.45596">
        <ele>53</ele>
        <time>2024-04-07T14:11:17Z</time>
      </trkpt>
      <trkpt lat="43.76113" lon="7.45616">
        <ele>53</ele>
        <time>2024-04-07T14:11:20Z</time>
      </trkpt>
      <trkpt lat="43.7613" lon="7.45701">
        <ele>60</ele>
        <time>2024-04-07T14:11:31Z</time>
      </trkpt>
      <trkpt lat="43.76141" lon="7.45746">
        <ele>60</ele>
        <time>2024-04-07T14:11:37Z</time>
      </trkpt>
      <trkpt lat="43.76146" lon="7.45759">
        <ele>61</ele>
        <time>2024-04-07T14:11:39Z</time>
      </trkpt>
      <trkpt lat="43.7615" lon="7.45768">
        <ele>62</ele>
        <time>2024-04-07T14:11:41Z</time>
      </trkpt>
      <trkpt lat="43.76168" lon="7.45787">
        <ele>67</ele>
        <time>2024-04-07T14:11:45Z</time>
      </trkpt>
      <trkpt lat="43.76172" lon="7.45795">
        <ele>69</ele>
        <time>2024-04-07T14:11:46Z</time>
      </trkpt>
      <trkpt lat="43.76181" lon="7.45892">
        <ele>65</ele>
        <time>2024-04-07T14:11:59Z</time>
      </trkpt>
      <trkpt lat="43.76185" lon="7.4591">
        <ele>65</ele>
        <time>2024-04-07T14:12:01Z</time>
      </trkpt>
      <trkpt lat="43.76208" lon="7.45995">
        <ele>72</ele>
        <time>2024-04-07T14:12:13Z</time>
      </trkpt>
      <trkpt lat="43.76222" lon="7.46036">
        <ele>73</ele>
        <time>2024-04-07T14:12:18Z</time>
      </trkpt>
      <trkpt lat="43.76234" lon="7.46062">
        <ele>74</ele>
        <time>2024-04-07T14:12:22Z</time>
      </trkpt>
      <trkpt lat="43.76256" lon="7.46083">
        <ele>81</ele>
        <time>2024-04-07T14:12:27Z</time>
      </trkpt>
      <trkpt lat="43.76259" lon="7.46088">
        <ele>84</ele>
        <time>2024-04-07T14:12:28Z</time>
      </trkpt>
      <trkpt lat="43.76261" lon="7.46099">
        <ele>86</ele>
        <time>2024-04-07T14:12:30Z</time>
      </trkpt>
      <trkpt lat="43.76251" lon="7.46135">
        <ele>83</ele>
        <time>2024-04-07T14:12:34Z</time>
      </trkpt>
      <trkpt lat="43.76251" lon="7.46148">
        <ele>84</ele>
        <time>2024-04-07T14:12:36Z</time>
      </trkpt>
      <trkpt lat="43.76257" lon="7.46172">
        <ele>90</ele>
        <time>2024-04-07T14:12:39Z</time>
      </trkpt>
      <trkpt lat="43.76254" lon="7.46191">
        <ele>91</ele>
        <time>2024-04-07T14:12:42Z</time>
      </trkpt>
      <trkpt lat="43.76211" lon="7.46253">
        <ele>84</ele>
        <time>2024-04-07T14:12:53Z</time>
      </trkpt>
      <trkpt lat="43.76208" lon="7.46259">
        <ele>85</ele>
        <time>2024-04-07T14:12:54Z</time>
      </trkpt>
      <trkpt lat="43.76208" lon="7.46267">
        <ele>87</ele>
        <time>2024-04-07T14:12:55Z</time>
      </trkpt>
      <trkpt lat="43.7615" lon="7.46338">
        <ele>87</ele>
        <time>2024-04-07T14:13:09Z</time>
      </trkpt>
      <trkpt lat="43.76108" lon="7.46406">
        <ele>89</ele>
        <time>2024-04-07T14:13:20Z</time>
      </trkpt>
      <trkpt lat="43.76089" lon="7.46426">
        <ele>88</ele>
        <time>2024-04-07T14:13:24Z</time>
      </trkpt>
      <trkpt lat="43.76082" lon="7.46431">
        <ele>87</ele>
        <time>2024-04-07T14:13:26Z</time>
      </trkpt>
      <trkpt lat="43.76078" lon="7.46432">
        <ele>86</ele>
        <time>2024-04-07T14:13:27Z</time>
      </trkpt>
      <trkpt lat="43.76075" lon="7.46436">
        <ele>86</ele>
        <time>2024-04-07T14:13:27Z</time>
      </trkpt>
      <trkpt lat="43.76075" lon="7.46444">
        <ele>88</ele>
        <time>2024-04-07T14:13:28Z</time>
      </trkpt>
      <trkpt lat="43.76076" lon="7.46446">
        <ele>89</ele>
        <time>2024-04-07T14:13:29Z</time>
      </trkpt>
      <trkpt lat="43.76073" lon="7.46455">
        <ele>91</ele>
        <time>2024-04-07T14:13:30Z</time>
      </trkpt>
      <trkpt lat="43.76043" lon="7.46478">
        <ele>89</ele>
        <time>2024-04-07T14:13:36Z</time>
      </trkpt>
      <trkpt lat="43.76021" lon="7.46511">
        <ele>92</ele>
        <time>2024-04-07T14:13:42Z</time>
      </trkpt>
      <trkpt lat="43.76005" lon="7.46541">
        <ele>94</ele>
        <time>2024-04-07T14:13:47Z</time>
      </trkpt>
      <trkpt lat="43.7593" lon="7.46668">
        <ele>97</ele>
        <time>2024-04-07T14:14:08Z</time>
      </trkpt>
      <trkpt lat="43.75907" lon="7.46712">
        <ele>98</ele>
        <time>2024-04-07T14:14:15Z</time>
      </trkpt>
      <trkpt lat="43.75881" lon="7.46767">
        <ele>99</ele>
        <time>2024-04-07T14:14:23Z</time>
      </trkpt>
      <trkpt lat="43.75852" lon="7.46838">
        <ele>101</ele>
        <time>2024-04-07T14:14:34Z</time>
      </trkpt>
      <trkpt lat="43.75835" lon="7.46883">
        <ele>99</ele>
        <time>2024-04-07T14:14:40Z</time>
      </trkpt>
      <trkpt lat="43.75832" lon="7.469">
        <ele>100</ele>
        <time>2024-04-07T14:14:42Z</time>
      </trkpt>
      <trkpt lat="43.75831" lon="7.46921">
        <ele>102</ele>
        <time>2024-04-07T14:14:45Z</time>
      </trkpt>
      <trkpt lat="43.75834" lon="7.46935">
        <ele>102</ele>
        <time>2024-04-07T14:14:47Z</time>
      </trkpt>
      <trkpt lat="43.75837" lon="7.46943">
        <ele>103</ele>
        <time>2024-04-07T14:14:48Z</time>
      </trkpt>
      <trkpt lat="43.75843" lon="7.4695">
        <ele>104</ele>
        <time>2024-04-07T14:14:49Z</time>
      </trkpt>
      <trkpt lat="43.75843" lon="7.4696">
        <ele>103</ele>
        <time>2024-04-07T14:14:51Z</time>
      </trkpt>
      <trkpt lat="43.75849" lon="7.46966">
        <ele>104</ele>
        <time>2024-04-07T14:14:52Z</time>
      </trkpt>
      <trkpt lat="43.75868" lon="7.46993">
        <ele>105</ele>
        <time>2024-04-07T14:14:57Z</time>
      </trkpt>
      <trkpt lat="43.75903" lon="7.47026">
        <ele>106</ele>
        <time>2024-04-07T14:15:04Z</time>
      </trkpt>
      <trkpt lat="43.75937" lon="7.47052">
        <ele>104</ele>
        <time>2024-04-07T14:15:11Z</time>
      </trkpt>
      <trkpt lat="43.75967" lon="7.47068">
        <ele>102</ele>
        <time>2024-04-07T14:15:17Z</time>
      </trkpt>
      <trkpt lat="43.75986" lon="7.47075">
        <ele>101</ele>
        <time>2024-04-07T14:15:21Z</time>
      </trkpt>
      <trkpt lat="43.76003" lon="7.47077">
        <ele>101</ele>
        <time>2024-04-07T14:15:24Z</time>
      </trkpt>
      <trkpt lat="43.76058" lon="7.47079">
        <ele>100</ele>
        <time>2024-04-07T14:15:33Z</time>
      </trkpt>
      <trkpt lat="43.76081" lon="7.47082">
        <ele>99</ele>
        <time>2024-04-07T14:15:38Z</time>
      </trkpt>
      <trkpt lat="43.76134" lon="7.471">
        <ele>92</ele>
        <time>2024-04-07T14:15:47Z</time>
      </trkpt>
      <trkpt lat="43.76141" lon="7.47099">
        <ele>92</ele>
        <time>2024-04-07T14:15:48Z</time>
      </trkpt>
      <trkpt lat="43.76187" lon="7.47075">
        <ele>92</ele>
        <time>2024-04-07T14:15:57Z</time>
      </trkpt>
      <trkpt lat="43.76203" lon="7.47069">
        <ele>93</ele>
        <time>2024-04-07T14:16:00Z</time>
      </trkpt>
      <trkpt lat="43.76217" lon="7.47067">
        <ele>92</ele>
        <time>2024-04-07T14:16:03Z</time>
      </trkpt>
      <trkpt lat="43.76228" lon="7.47067">
        <ele>92</ele>
        <time>2024-04-07T14:16:05Z</time>
      </trkpt>
      <trkpt lat="43.7624" lon="7.47073">
        <ele>91</ele>
        <time>2024-04-07T14:16:07Z</time>
      </trkpt>
      <trkpt lat="43.76248" lon="7.47082">
        <ele>89</ele>
        <time>2024-04-07T14:16:09Z</time>
      </trkpt>
      <trkpt lat="43.76253" lon="7.47091">
        <ele>89</ele>
        <time>2024-04-07T14:16:10Z</time>
      </trkpt>
      <trkpt lat="43.76257" lon="7.47105">
        <ele>89</ele>
        <time>2024-04-07T14:16:12Z</time>
      </trkpt>
      <trkpt lat="43.76259" lon="7.47121">
        <ele>89</ele>
        <time>2024-04-07T14:16:14Z</time>
      </trkpt>
      <trkpt lat="43.76257" lon="7.47153">
        <ele>86</ele>
        <time>2024-04-07T14:16:18Z</time>
      </trkpt>
      <trkpt lat="43.76239" lon="7.47253">
        <ele>80</ele>
        <time>2024-04-07T14:16:32Z</time>
      </trkpt>
      <trkpt lat="43.76232" lon="7.47274">
        <ele>80</ele>
        <time>2024-04-07T14:16:35Z</time>
      </trkpt>
      <trkpt lat="43.76221" lon="7.47294">
        <ele>78</ele>
        <time>2024-04-07T14:16:38Z</time>
      </trkpt>
      <trkpt lat="43.76204" lon="7.47312">
        <ele>75</ele>
        <time>2024-04-07T14:16:42Z</time>
      </trkpt>
      <trkpt lat="43.76194" lon="7.47319">
        <ele>73</ele>
        <time>2024-04-07T14:16:44Z</time>
      </trkpt>
      <trkpt lat="43.76172" lon="7.47329">
        <ele>67</ele>
        <time>2024-04-07T14:16:48Z</time>
      </trkpt>
      <trkpt lat="43.76165" lon="7.47337">
        <ele>66</ele>
        <time>2024-04-07T14:16:49Z</time>
      </trkpt>
      <trkpt lat="43.76155" lon="7.47353">
        <ele>67</ele>
        <time>2024-04-07T14:16:52Z</time>
      </trkpt>
      <trkpt lat="43.7615" lon="7.47366">
        <ele>67</ele>
        <time>2024-04-07T14:16:54Z</time>
      </trkpt>
      <trkpt lat="43.76145" lon="7.47386">
        <ele>67</ele>
        <time>2024-04-07T14:16:57Z</time>
      </trkpt>
      <trkpt lat="43.76143" lon="7.47407">
        <ele>67</ele>
        <time>2024-04-07T14:16:59Z</time>
      </trkpt>
      <trkpt lat="43.76139" lon="7.47421">
        <ele>67</ele>
        <time>2024-04-07T14:17:01Z</time>
      </trkpt>
      <trkpt lat="43.76132" lon="7.47434">
        <ele>67</ele>
        <time>2024-04-07T14:17:03Z</time>
      </trkpt>
      <trkpt lat="43.76092" lon="7.47489">
        <ele>64</ele>
        <time>2024-04-07T14:17:13Z</time>
      </trkpt>
      <trkpt lat="43.76033" lon="7.47585">
        <ele>59</ele>
        <time>2024-04-07T14:17:30Z</time>
      </trkpt>
      <trkpt lat="43.76024" lon="7.47594">
        <ele>58</ele>
        <time>2024-04-07T14:17:32Z</time>
      </trkpt>
      <trkpt lat="43.75976" lon="7.47626">
        <ele>50</ele>
        <time>2024-04-07T14:17:41Z</time>
      </trkpt>
      <trkpt lat="43.75959" lon="7.47643">
        <ele>47</ele>
        <time>2024-04-07T14:17:45Z</time>
      </trkpt>
      <trkpt lat="43.75949" lon="7.4766">
        <ele>44</ele>
        <time>2024-04-07T14:17:48Z</time>
      </trkpt>
      <trkpt lat="43.75945" lon="7.47675">
        <ele>41</ele>
        <time>2024-04-07T14:17:50Z</time>
      </trkpt>
      <trkpt lat="43.75945" lon="7.47686">
        <ele>40</ele>
        <time>2024-04-07T14:17:51Z</time>
      </trkpt>
      <trkpt lat="43.75948" lon="7.47696">
        <ele>40</ele>
        <time>2024-04-07T14:17:52Z</time>
      </trkpt>
      <trkpt lat="43.75959" lon="7.47715">
        <ele>41</ele>
        <time>2024-04-07T14:17:56Z</time>
      </trkpt>
      <trkpt lat="43.75988" lon="7.47744">
        <ele>45</ele>
        <time>2024-04-07T14:18:02Z</time>
      </trkpt>
      <trkpt lat="43.76077" lon="7.4782">
        <ele>42</ele>
        <time>2024-04-07T14:18:21Z</time>
      </trkpt>
      <trkpt lat="43.76118" lon="7.47848">
        <ele>36</ele>
        <time>2024-04-07T14:18:29Z</time>
      </trkpt>
      <trkpt lat="43.76139" lon="7.47858">
        <ele>35</ele>
        <time>2024-04-07T14:18:33Z</time>
      </trkpt>
      <trkpt lat="43.76149" lon="7.47861">
        <ele>34</ele>
        <time>2024-04-07T14:18:35Z</time>
      </trkpt>
      <trkpt lat="43.76162" lon="7.47862">
        <ele>34</ele>
        <time>2024-04-07T14:18:37Z</time>
      </trkpt>
      <trkpt lat="43.76209" lon="7.47852">
        <ele>37</ele>
        <time>2024-04-07T14:18:45Z</time>
      </trkpt>
      <trkpt lat="43.76223" lon="7.47852">
        <ele>37</ele>
        <time>2024-04-07T14:18:48Z</time>
      </trkpt>
      <trkpt lat="43.76239" lon="7.47856">
        <ele>37</ele>
        <time>2024-04-07T14:18:51Z</time>
      </trkpt>
      <trkpt lat="43.76254" lon="7.47868">
        <ele>37</ele>
        <time>2024-04-07T14:18:54Z</time>
      </trkpt>
      <trkpt lat="43.76282" lon="7.47898">
        <ele>34</ele>
        <time>2024-04-07T14:19:00Z</time>
      </trkpt>
      <trkpt lat="43.76313" lon="7.47942">
        <ele>31</ele>
        <time>2024-04-07T14:19:08Z</time>
      </trkpt>
      <trkpt lat="43.76366" lon="7.48023">
        <ele>26</ele>
        <time>2024-04-07T14:19:22Z</time>
      </trkpt>
      <trkpt lat="43.76365" lon="7.48028">
        <ele>26</ele>
        <time>2024-04-07T14:19:23Z</time>
      </trkpt>
      <trkpt lat="43.76365" lon="7.48033">
        <ele>25</ele>
        <time>2024-04-07T14:19:23Z</time>
      </trkpt>
      <trkpt lat="43.76367" lon="7.48037">
        <ele>25</ele>
        <time>2024-04-07T14:19:24Z</time>
      </trkpt>
      <trkpt lat="43.7637" lon="7.4804">
        <ele>25</ele>
        <time>2024-04-07T14:19:25Z</time>
      </trkpt>
      <trkpt lat="43.76375" lon="7.4804">
        <ele>24</ele>
        <time>2024-04-07T14:19:25Z</time>
      </trkpt>
      <trkpt lat="43.76378" lon="7.48037">
        <ele>24</ele>
        <time>2024-04-07T14:19:26Z</time>
      </trkpt>
      <trkpt lat="43.7639" lon="7.48062">
        <ele>22</ele>
        <time>2024-04-07T14:19:30Z</time>
      </trkpt>
      <trkpt lat="43.76458" lon="7.48186">
        <ele>19</ele>
        <time>2024-04-07T14:19:50Z</time>
      </trkpt>
      <trkpt lat="43.76465" lon="7.48196">
        <ele>19</ele>
        <time>2024-04-07T14:19:52Z</time>
      </trkpt>
      <trkpt lat="43.7647" lon="7.48207">
        <ele>18</ele>
        <time>2024-04-07T14:19:53Z</time>
      </trkpt>
      <trkpt lat="43.76481" lon="7.48244">
        <ele>17</ele>
        <time>2024-04-07T14:19:59Z</time>
      </trkpt>
      <trkpt lat="43.7649" lon="7.4829">
        <ele>16</ele>
        <time>2024-04-07T14:20:05Z</time>
      </trkpt>
      <trkpt lat="43.76495" lon="7.48331">
        <ele>15</ele>
        <time>2024-04-07T14:20:10Z</time>
      </trkpt>
      <trkpt lat="43.76499" lon="7.48509">
        <ele>11</ele>
        <time>2024-04-07T14:20:33Z</time>
      </trkpt>
      <trkpt lat="43.76507" lon="7.48565">
        <ele>12</ele>
        <time>2024-04-07T14:20:40Z</time>
      </trkpt>
      <trkpt lat="43.76521" lon="7.48621">
        <ele>11</ele>
        <time>2024-04-07T14:20:48Z</time>
      </trkpt>
      <trkpt lat="43.76532" lon="7.48657">
        <ele>10</ele>
        <time>2024-04-07T14:20:53Z</time>
      </trkpt>
      <trkpt lat="43.76545" lon="7.48687">
        <ele>9</ele>
        <time>2024-04-07T14:20:57Z</time>
      </trkpt>
      <trkpt lat="43.76575" lon="7.48741">
        <ele>9</ele>
        <time>2024-04-07T14:21:06Z</time>
      </trkpt>
      <trkpt lat="43.76575" lon="7.4875">
        <ele>9</ele>
        <time>2024-04-07T14:21:07Z</time>
      </trkpt>
      <trkpt lat="43.76568" lon="7.4876">
        <ele>9</ele>
        <time>2024-04-07T14:21:09Z</time>
      </trkpt>
      <trkpt lat="43.76562" lon="7.48766">
        <ele>9</ele>
        <time>2024-04-07T14:21:10Z</time>
      </trkpt>
      <trkpt lat="43.76538" lon="7.48803">
        <ele>8</ele>
        <time>2024-04-07T14:21:17Z</time>
      </trkpt>
      <trkpt lat="43.76547" lon="7.48812">
        <ele>9</ele>
        <time>2024-04-07T14:21:19Z</time>
      </trkpt>
      <trkpt lat="43.76582" lon="7.48847">
        <ele>11</ele>
        <time>2024-04-07T14:21:26Z</time>
      </trkpt>
      <trkpt lat="43.76729" lon="7.48985">
        <ele>7</ele>
        <time>2024-04-07T14:21:58Z</time>
      </trkpt>
      <trkpt lat="43.76748" lon="7.49005">
        <ele>7</ele>
        <time>2024-04-07T14:22:02Z</time>
      </trkpt>
      <trkpt lat="43.76782" lon="7.49049">
        <ele>8</ele>
        <time>2024-04-07T14:22:11Z</time>
      </trkpt>
      <trkpt lat="43.7695" lon="7.49287">
        <ele>8</ele>
        <time>2024-04-07T14:22:53Z</time>
      </trkpt>
      <trkpt lat="43.76976" lon="7.49333">
        <ele>12</ele>
        <time>2024-04-07T14:23:01Z</time>
      </trkpt>
      <trkpt lat="43.77151" lon="7.49664">
        <ele>10</ele>
        <time>2024-04-07T14:23:54Z</time>
      </trkpt>
      <trkpt lat="43.7722" lon="7.49801">
        <ele>8</ele>
        <time>2024-04-07T14:24:15Z</time>
      </trkpt>
      <trkpt lat="43.77225" lon="7.49818">
        <ele>6</ele>
        <time>2024-04-07T14:24:17Z</time>
      </trkpt>
      <trkpt lat="43.77234" lon="7.49817">
        <ele>7</ele>
        <time>2024-04-07T14:24:19Z</time>
      </trkpt>
      <trkpt lat="43.77263" lon="7.49794">
        <ele>10</ele>
        <time>2024-04-07T14:24:25Z</time>
      </trkpt>
      <trkpt lat="43.77279" lon="7.49825">
        <ele>8</ele>
        <time>2024-04-07T14:24:30Z</time>
      </trkpt>
      <trkpt lat="43.77282" lon="7.49836">
        <ele>8</ele>
        <time>2024-04-07T14:24:31Z</time>
      </trkpt>
      <trkpt lat="43.77289" lon="7.49847">
        <ele>8</ele>
        <time>2024-04-07T14:24:33Z</time>
      </trkpt>
      <trkpt lat="43.77292" lon="7.49852">
        <ele>9</ele>
        <time>2024-04-07T14:24:34Z</time>
      </trkpt>
      <trkpt lat="43.77296" lon="7.49852">
        <ele>9</ele>
        <time>2024-04-07T14:24:35Z</time>
      </trkpt>
      <trkpt lat="43.77298" lon="7.49849">
        <ele>9</ele>
        <time>2024-04-07T14:24:35Z</time>
      </trkpt>
      <trkpt lat="43.77299" lon="7.49843">
        <ele>9</ele>
        <time>2024-04-07T14:24:36Z</time>
      </trkpt>
      <trkpt lat="43.77297" lon="7.4984">
        <ele>9</ele>
        <time>2024-04-07T14:24:37Z</time>
      </trkpt>
      <trkpt lat="43.77301" lon="7.49834">
        <ele>9</ele>
        <time>2024-04-07T14:24:38Z</time>
      </trkpt>
      <trkpt lat="43.77437" lon="7.49658">
        <ele>16</ele>
        <time>2024-04-07T14:25:11Z</time>
      </trkpt>
      <trkpt lat="43.77449" lon="7.49675">
        <ele>16</ele>
        <time>2024-04-07T14:25:14Z</time>
      </trkpt>
      <trkpt lat="43.7746" lon="7.49688">
        <ele>15</ele>
        <time>2024-04-07T14:25:16Z</time>
      </trkpt>
      <trkpt lat="43.77465" lon="7.49698">
        <ele>15</ele>
        <time>2024-04-07T14:25:18Z</time>
      </trkpt>
      <trkpt lat="43.77481" lon="7.49722">
        <ele>13</ele>
        <time>2024-04-07T14:25:22Z</time>
      </trkpt>
      <trkpt lat="43.77485" lon="7.49729">
        <ele>13</ele>
        <time>2024-04-07T14:25:23Z</time>
      </trkpt>
      <trkpt lat="43.7749" lon="7.49754">
        <ele>11</ele>
        <time>2024-04-07T14:25:27Z</time>
      </trkpt>
      <trkpt lat="43.7749" lon="7.49788">
        <ele>11</ele>
        <time>2024-04-07T14:25:31Z</time>
      </trkpt>
      <trkpt lat="43.77489" lon="7.49821">
        <ele>11</ele>
        <time>2024-04-07T14:25:35Z</time>
      </trkpt>
      <trkpt lat="43.77517" lon="7.49817">
        <ele>12</ele>
        <time>2024-04-07T14:25:40Z</time>
        <extensions>
          <visugpx:TrkExtension xmlns:visugpx="https://www.visugpx.com/editgpx/">
            <visugpx:node>1</visugpx:node>
            </visugpx:TrkExtension>
        </extensions>
      </trkpt>
    </trkseg>
  </trk>
</gpx>